<?xml version='1.0' encoding='UTF-8'?><gpx version="1.1" creator="JPX - https://github.com/jenetics/jpx" xmlns="http://www.topografix.com/GPX/1/1"><trk><trkseg><trkpt lat="43.8391241" lon="12.8916714"><ele>55.0</ele><time>2026-05-02T06:35:32.862Z</time></trkpt><trkpt lat="43.839215" lon="12.8916569"><ele>55.0</ele><time>2026-05-02T06:35:39.627Z</time></trkpt><trkpt lat="43.8344815" lon="12.8874627"><ele>67.5</ele><time>2026-05-02T06:36:32.159Z</time></trkpt><trkpt lat="43.8343162" lon="12.8876567"><ele>80.0</ele><time>2026-05-02T06:36:37.921Z</time></trkpt><trkpt lat="43.8103256" lon="12.8792426"><ele>198.0</ele><time>2026-05-02T06:40:02.377Z</time></trkpt><trkpt lat="43.7992377" lon="12.8688007"><ele>240.0</ele><time>2026-05-02T06:41:45.855Z</time></trkpt><trkpt lat="43.797853" lon="12.8661915"><ele>243.0</ele><time>2026-05-02T06:42:03.068Z</time></trkpt><trkpt lat="43.7975993" lon="12.8657103"><ele>246.0</ele><time>2026-05-02T06:42:09.313Z</time></trkpt><trkpt lat="43.7974286" lon="12.8654091"><ele>246.0</ele><time>2026-05-02T06:42:15.569Z</time></trkpt><trkpt lat="43.7973352" lon="12.8650226"><ele>246.0</ele><time>2026-05-02T06:42:22.071Z</time></trkpt><trkpt lat="43.7959192" lon="12.8637484"><ele>299.0</ele><time>2026-05-02T06:42:35.168Z</time></trkpt><trkpt lat="43.7971929" lon="12.854797"><ele>327.0</ele><time>2026-05-02T06:44:34.405Z</time></trkpt><trkpt lat="43.7931757" lon="12.8327774"><ele>350.0</ele><time>2026-05-02T06:49:54.244Z</time></trkpt><trkpt lat="43.7822049" lon="12.8372597"><ele>247.0</ele><time>2026-05-02T06:52:10.741Z</time></trkpt><trkpt lat="43.7684172" lon="12.8441747"><ele>299.0</ele><time>2026-05-02T06:57:17.143Z</time></trkpt><trkpt lat="43.7654849" lon="12.8491464"><ele>249.0</ele><time>2026-05-02T06:57:27.928Z</time></trkpt><trkpt lat="43.7705396" lon="12.845314"><ele>267.0</ele><time>2026-05-02T06:58:42.127Z</time></trkpt><trkpt lat="43.7523366" lon="12.8564378"><ele>235.0</ele><time>2026-05-02T07:06:45.445Z</time></trkpt><trkpt lat="43.7525813" lon="12.8535907"><ele>233.4</ele><time>2026-05-02T07:07:46.264Z</time></trkpt><trkpt lat="43.7525749" lon="12.8534381"><ele>231.8</ele><time>2026-05-02T07:07:47.247Z</time></trkpt><trkpt lat="43.7525575" lon="12.853283"><ele>230.2</ele><time>2026-05-02T07:07:48.171Z</time></trkpt><trkpt lat="43.7525267" lon="12.8531291"><ele>228.6</ele><time>2026-05-02T07:07:49.173Z</time></trkpt><trkpt lat="43.7524944" lon="12.8529983"><ele>227.0</ele><time>2026-05-02T07:07:50.185Z</time></trkpt><trkpt lat="43.7524448" lon="12.8528641"><ele>227.0</ele><time>2026-05-02T07:07:51.187Z</time></trkpt><trkpt lat="43.7523915" lon="12.8527326"><ele>227.0</ele><time>2026-05-02T07:07:52.19Z</time></trkpt><trkpt lat="43.7523434" lon="12.8526035"><ele>227.0</ele><time>2026-05-02T07:07:53.185Z</time></trkpt><trkpt lat="43.7523119" lon="12.852477"><ele>227.0</ele><time>2026-05-02T07:07:54.193Z</time></trkpt><trkpt lat="43.7523183" lon="12.8523641"><ele>227.0</ele><time>2026-05-02T07:07:55.175Z</time></trkpt><trkpt lat="43.7523486" lon="12.8522315"><ele>226.25</ele><time>2026-05-02T07:07:56.187Z</time></trkpt><trkpt lat="43.7524104" lon="12.8520952"><ele>225.5</ele><time>2026-05-02T07:07:57.181Z</time></trkpt><trkpt lat="43.7524505" lon="12.8519386"><ele>224.75</ele><time>2026-05-02T07:07:58.182Z</time></trkpt><trkpt lat="43.7524595" lon="12.851784"><ele>224.0</ele><time>2026-05-02T07:07:59.18Z</time></trkpt><trkpt lat="43.752451" lon="12.8516421"><ele>224.00000000000003</ele><time>2026-05-02T07:08:00.174Z</time></trkpt><trkpt lat="43.7524474" lon="12.8515056"><ele>224.0</ele><time>2026-05-02T07:08:01.183Z</time></trkpt><trkpt lat="43.7524421" lon="12.8513919"><ele>224.0</ele><time>2026-05-02T07:08:02.182Z</time></trkpt><trkpt lat="43.7524245" lon="12.8512905"><ele>224.0</ele><time>2026-05-02T07:08:03.182Z</time></trkpt><trkpt lat="43.7523765" lon="12.8511891"><ele>224.00000000000003</ele><time>2026-05-02T07:08:04.182Z</time></trkpt><trkpt lat="43.7522965" lon="12.8510989"><ele>224.0</ele><time>2026-05-02T07:08:05.176Z</time></trkpt><trkpt lat="43.752207" lon="12.8510206"><ele>221.25</ele><time>2026-05-02T07:08:06.176Z</time></trkpt><trkpt lat="43.7521057" lon="12.8509489"><ele>218.5</ele><time>2026-05-02T07:08:07.171Z</time></trkpt><trkpt lat="43.7519972" lon="12.8509054"><ele>215.75</ele><time>2026-05-02T07:08:08.073Z</time></trkpt><trkpt lat="43.7517996" lon="12.8508127"><ele>213.0</ele><time>2026-05-02T07:08:09.983Z</time></trkpt><trkpt lat="43.7517141" lon="12.8507799"><ele>213.0</ele><time>2026-05-02T07:08:10.976Z</time></trkpt><trkpt lat="43.7516332" lon="12.8507815"><ele>213.0</ele><time>2026-05-02T07:08:11.971Z</time></trkpt><trkpt lat="43.7515585" lon="12.8508167"><ele>213.0</ele><time>2026-05-02T07:08:12.972Z</time></trkpt><trkpt lat="43.751501" lon="12.8508876"><ele>213.0</ele><time>2026-05-02T07:08:13.876Z</time></trkpt><trkpt lat="43.7513666" lon="12.8510133"><ele>213.0</ele><time>2026-05-02T07:08:15.678Z</time></trkpt><trkpt lat="43.751186" lon="12.8511056"><ele>213.8</ele><time>2026-05-02T07:08:17.473Z</time></trkpt><trkpt lat="43.7510879" lon="12.851162"><ele>214.60000000000002</ele><time>2026-05-02T07:08:18.374Z</time></trkpt><trkpt lat="43.7510019" lon="12.8512169"><ele>215.39999999999998</ele><time>2026-05-02T07:08:19.276Z</time></trkpt><trkpt lat="43.7509166" lon="12.8512482"><ele>216.2</ele><time>2026-05-02T07:08:20.177Z</time></trkpt><trkpt lat="43.7508337" lon="12.8512492"><ele>217.0</ele><time>2026-05-02T07:08:21.188Z</time></trkpt><trkpt lat="43.7507587" lon="12.8512074"><ele>214.39999999999998</ele><time>2026-05-02T07:08:22.186Z</time></trkpt><trkpt lat="43.7506967" lon="12.8511219"><ele>211.79999999999998</ele><time>2026-05-02T07:08:23.184Z</time></trkpt><trkpt lat="43.7506315" lon="12.8510016"><ele>209.2</ele><time>2026-05-02T07:08:24.181Z</time></trkpt><trkpt lat="43.7505654" lon="12.8508669"><ele>206.6</ele><time>2026-05-02T07:08:25.179Z</time></trkpt><trkpt lat="43.7504939" lon="12.8507152"><ele>204.0</ele><time>2026-05-02T07:08:26.18Z</time></trkpt><trkpt lat="43.7504172" lon="12.8505798"><ele>200.75</ele><time>2026-05-02T07:08:27.174Z</time></trkpt><trkpt lat="43.7503201" lon="12.8504587"><ele>197.5</ele><time>2026-05-02T07:08:28.18Z</time></trkpt><trkpt lat="43.7502097" lon="12.8503482"><ele>194.25</ele><time>2026-05-02T07:08:29.185Z</time></trkpt><trkpt lat="43.7500969" lon="12.8502633"><ele>191.0</ele><time>2026-05-02T07:08:30.19Z</time></trkpt><trkpt lat="43.7499834" lon="12.8502223"><ele>188.5</ele><time>2026-05-02T07:08:31.191Z</time></trkpt><trkpt lat="43.7498651" lon="12.8502206"><ele>186.0</ele><time>2026-05-02T07:08:32.178Z</time></trkpt><trkpt lat="43.7497423" lon="12.8502145"><ele>183.5</ele><time>2026-05-02T07:08:33.183Z</time></trkpt><trkpt lat="43.7496189" lon="12.8501716"><ele>181.0</ele><time>2026-05-02T07:08:34.173Z</time></trkpt><trkpt lat="43.7494933" lon="12.8501117"><ele>181.0</ele><time>2026-05-02T07:08:35.182Z</time></trkpt><trkpt lat="43.7493867" lon="12.8500389"><ele>181.0</ele><time>2026-05-02T07:08:36.174Z</time></trkpt><trkpt lat="43.7493043" lon="12.8499625"><ele>181.0</ele><time>2026-05-02T07:08:37.185Z</time></trkpt><trkpt lat="43.749248" lon="12.8498768"><ele>181.0</ele><time>2026-05-02T07:08:38.174Z</time></trkpt><trkpt lat="43.74922" lon="12.8497866"><ele>181.0</ele><time>2026-05-02T07:08:39.183Z</time></trkpt><trkpt lat="43.7492344" lon="12.8496969"><ele>181.0</ele><time>2026-05-02T07:08:40.186Z</time></trkpt><trkpt lat="43.7492765" lon="12.849622"><ele>181.0</ele><time>2026-05-02T07:08:41.179Z</time></trkpt><trkpt lat="43.7493338" lon="12.8495338"><ele>181.0</ele><time>2026-05-02T07:08:42.189Z</time></trkpt><trkpt lat="43.7493807" lon="12.8494365"><ele>181.0</ele><time>2026-05-02T07:08:43.182Z</time></trkpt><trkpt lat="43.7493948" lon="12.8493181"><ele>181.0</ele><time>2026-05-02T07:08:44.189Z</time></trkpt><trkpt lat="43.7493745" lon="12.8492005"><ele>181.0</ele><time>2026-05-02T07:08:45.185Z</time></trkpt><trkpt lat="43.7493065" lon="12.8490817"><ele>179.8</ele><time>2026-05-02T07:08:46.191Z</time></trkpt><trkpt lat="43.7492258" lon="12.8489691"><ele>178.60000000000002</ele><time>2026-05-02T07:08:47.19Z</time></trkpt><trkpt lat="43.7491462" lon="12.8488774"><ele>177.4</ele><time>2026-05-02T07:08:48.192Z</time></trkpt><trkpt lat="43.7490778" lon="12.8488332"><ele>176.2</ele><time>2026-05-02T07:08:49.189Z</time></trkpt><trkpt lat="43.7490067" lon="12.8488272"><ele>175.0</ele><time>2026-05-02T07:08:50.19Z</time></trkpt><trkpt lat="43.7488879" lon="12.8487573"><ele>175.0</ele><time>2026-05-02T07:08:52.189Z</time></trkpt><trkpt lat="43.7488207" lon="12.848664"><ele>175.0</ele><time>2026-05-02T07:08:53.196Z</time></trkpt><trkpt lat="43.7487438" lon="12.8485397"><ele>175.0</ele><time>2026-05-02T07:08:54.187Z</time></trkpt><trkpt lat="43.7486592" lon="12.8484078"><ele>175.0</ele><time>2026-05-02T07:08:55.195Z</time></trkpt><trkpt lat="43.7485723" lon="12.8482899"><ele>173.8</ele><time>2026-05-02T07:08:56.191Z</time></trkpt><trkpt lat="43.7484873" lon="12.8481884"><ele>172.6</ele><time>2026-05-02T07:08:57.196Z</time></trkpt><trkpt lat="43.748406" lon="12.8481136"><ele>171.39999999999998</ele><time>2026-05-02T07:08:58.192Z</time></trkpt><trkpt lat="43.7483331" lon="12.8480556"><ele>170.2</ele><time>2026-05-02T07:08:59.188Z</time></trkpt><trkpt lat="43.7482834" lon="12.8480011"><ele>169.0</ele><time>2026-05-02T07:09:00.187Z</time></trkpt><trkpt lat="43.7482609" lon="12.8478557"><ele>169.0</ele><time>2026-05-02T07:09:02.202Z</time></trkpt><trkpt lat="43.7482947" lon="12.8477613"><ele>169.0</ele><time>2026-05-02T07:09:03.193Z</time></trkpt><trkpt lat="43.7483401" lon="12.847664"><ele>169.0</ele><time>2026-05-02T07:09:04.196Z</time></trkpt><trkpt lat="43.7483996" lon="12.8475689"><ele>169.0</ele><time>2026-05-02T07:09:05.195Z</time></trkpt><trkpt lat="43.7484725" lon="12.8474876"><ele>169.0</ele><time>2026-05-02T07:09:06.193Z</time></trkpt><trkpt lat="43.7485407" lon="12.8474148"><ele>169.0</ele><time>2026-05-02T07:09:07.188Z</time></trkpt><trkpt lat="43.7485912" lon="12.8473306"><ele>172.39999999999998</ele><time>2026-05-02T07:09:08.188Z</time></trkpt><trkpt lat="43.7486327" lon="12.8472214"><ele>175.8</ele><time>2026-05-02T07:09:09.193Z</time></trkpt><trkpt lat="43.7486441" lon="12.8470672"><ele>179.2</ele><time>2026-05-02T07:09:10.185Z</time></trkpt><trkpt lat="43.7486398" lon="12.8469073"><ele>182.60000000000002</ele><time>2026-05-02T07:09:11.186Z</time></trkpt><trkpt lat="43.7486256" lon="12.8467667"><ele>186.0</ele><time>2026-05-02T07:09:12.188Z</time></trkpt><trkpt lat="43.7486059" lon="12.8466358"><ele>186.0</ele><time>2026-05-02T07:09:13.186Z</time></trkpt><trkpt lat="43.7485755" lon="12.8465163"><ele>186.0</ele><time>2026-05-02T07:09:14.198Z</time></trkpt><trkpt lat="43.7485439" lon="12.8464231"><ele>186.0</ele><time>2026-05-02T07:09:15.204Z</time></trkpt><trkpt lat="43.7485273" lon="12.8463299"><ele>186.0</ele><time>2026-05-02T07:09:16.2Z</time></trkpt><trkpt lat="43.7485338" lon="12.8462192"><ele>186.0</ele><time>2026-05-02T07:09:17.209Z</time></trkpt><trkpt lat="43.7485632" lon="12.8460835"><ele>186.0</ele><time>2026-05-02T07:09:18.199Z</time></trkpt><trkpt lat="43.7486114" lon="12.845912"><ele>181.25</ele><time>2026-05-02T07:09:19.19Z</time></trkpt><trkpt lat="43.7486626" lon="12.845749"><ele>176.5</ele><time>2026-05-02T07:09:20.193Z</time></trkpt><trkpt lat="43.7487176" lon="12.8455865"><ele>171.75</ele><time>2026-05-02T07:09:21.19Z</time></trkpt><trkpt lat="43.748778" lon="12.8454269"><ele>167.0</ele><time>2026-05-02T07:09:22.194Z</time></trkpt><trkpt lat="43.7488379" lon="12.8452673"><ele>163.0</ele><time>2026-05-02T07:09:23.2Z</time></trkpt><trkpt lat="43.7489001" lon="12.8451223"><ele>159.0</ele><time>2026-05-02T07:09:24.193Z</time></trkpt><trkpt lat="43.7489656" lon="12.8449879"><ele>155.0</ele><time>2026-05-02T07:09:25.196Z</time></trkpt><trkpt lat="43.7490311" lon="12.8448702"><ele>151.0</ele><time>2026-05-02T07:09:26.191Z</time></trkpt><trkpt lat="43.7491124" lon="12.8447594"><ele>151.0</ele><time>2026-05-02T07:09:27.196Z</time></trkpt><trkpt lat="43.7491923" lon="12.8446596"><ele>151.0</ele><time>2026-05-02T07:09:28.188Z</time></trkpt><trkpt lat="43.7492668" lon="12.8445669"><ele>151.0</ele><time>2026-05-02T07:09:29.191Z</time></trkpt><trkpt lat="43.7493315" lon="12.8444707"><ele>151.0</ele><time>2026-05-02T07:09:30.183Z</time></trkpt><trkpt lat="43.7493832" lon="12.8443577"><ele>151.0</ele><time>2026-05-02T07:09:31.191Z</time></trkpt><trkpt lat="43.7494238" lon="12.8441971"><ele>152.25</ele><time>2026-05-02T07:09:32.189Z</time></trkpt><trkpt lat="43.7494555" lon="12.8439963"><ele>153.5</ele><time>2026-05-02T07:09:33.192Z</time></trkpt><trkpt lat="43.7495011" lon="12.8438151"><ele>154.75</ele><time>2026-05-02T07:09:34.191Z</time></trkpt><trkpt lat="43.7495493" lon="12.8436504"><ele>156.0</ele><time>2026-05-02T07:09:35.185Z</time></trkpt><trkpt lat="43.749585" lon="12.8434988"><ele>150.6</ele><time>2026-05-02T07:09:36.181Z</time></trkpt><trkpt lat="43.7496082" lon="12.8433572"><ele>145.2</ele><time>2026-05-02T07:09:37.184Z</time></trkpt><trkpt lat="43.7496207" lon="12.8432268"><ele>139.8</ele><time>2026-05-02T07:09:38.187Z</time></trkpt><trkpt lat="43.7496246" lon="12.8431033"><ele>134.4</ele><time>2026-05-02T07:09:39.191Z</time></trkpt><trkpt lat="43.749624" lon="12.842999"><ele>129.0</ele><time>2026-05-02T07:09:40.188Z</time></trkpt><trkpt lat="43.749612" lon="12.8428761"><ele>129.0</ele><time>2026-05-02T07:09:42.19Z</time></trkpt><trkpt lat="43.7495841" lon="12.8427852"><ele>129.0</ele><time>2026-05-02T07:09:55.196Z</time></trkpt><trkpt lat="43.7495812" lon="12.8426827"><ele>129.0</ele><time>2026-05-02T07:09:58.197Z</time></trkpt><trkpt lat="43.7495976" lon="12.8425665"><ele>129.0</ele><time>2026-05-02T07:10:00.195Z</time></trkpt><trkpt lat="43.7496003" lon="12.8424779"><ele>129.0</ele><time>2026-05-02T07:10:01.196Z</time></trkpt><trkpt lat="43.7495998" lon="12.8423653"><ele>129.0</ele><time>2026-05-02T07:10:02.2Z</time></trkpt><trkpt lat="43.7495917" lon="12.8422508"><ele>128.5</ele><time>2026-05-02T07:10:03.2Z</time></trkpt><trkpt lat="43.7495725" lon="12.8421305"><ele>128.0</ele><time>2026-05-02T07:10:04.201Z</time></trkpt><trkpt lat="43.7495482" lon="12.8420131"><ele>127.5</ele><time>2026-05-02T07:10:05.195Z</time></trkpt><trkpt lat="43.7495212" lon="12.8419139"><ele>127.0</ele><time>2026-05-02T07:10:06.199Z</time></trkpt><trkpt lat="43.7494917" lon="12.841832"><ele>126.5</ele><time>2026-05-02T07:10:07.199Z</time></trkpt><trkpt lat="43.7494276" lon="12.8416852"><ele>126.0</ele><time>2026-05-02T07:10:09.203Z</time></trkpt><trkpt lat="43.7493862" lon="12.8415329"><ele>127.16666666666667</ele><time>2026-05-02T07:10:11.2Z</time></trkpt><trkpt lat="43.7493357" lon="12.8413964"><ele>128.33333333333334</ele><time>2026-05-02T07:10:13.202Z</time></trkpt><trkpt lat="43.7492724" lon="12.8412618"><ele>129.5</ele><time>2026-05-02T07:10:15.202Z</time></trkpt><trkpt lat="43.749234" lon="12.8411844"><ele>130.66666666666669</ele><time>2026-05-02T07:10:16.2Z</time></trkpt><trkpt lat="43.7491914" lon="12.8411059"><ele>131.83333333333334</ele><time>2026-05-02T07:10:17.2Z</time></trkpt><trkpt lat="43.7491442" lon="12.8410235"><ele>133.0</ele><time>2026-05-02T07:10:18.196Z</time></trkpt><trkpt lat="43.7490843" lon="12.8409365"><ele>134.33333333333334</ele><time>2026-05-02T07:10:19.202Z</time></trkpt><trkpt lat="43.7490195" lon="12.8408504"><ele>135.66666666666669</ele><time>2026-05-02T07:10:20.193Z</time></trkpt><trkpt lat="43.7489629" lon="12.8407627"><ele>137.0</ele><time>2026-05-02T07:10:21.199Z</time></trkpt><trkpt lat="43.7489252" lon="12.8406773"><ele>138.33333333333334</ele><time>2026-05-02T07:10:22.192Z</time></trkpt><trkpt lat="43.7489116" lon="12.8405588"><ele>139.66666666666666</ele><time>2026-05-02T07:10:24.193Z</time></trkpt><trkpt lat="43.7490194" lon="12.8405043"><ele>141.0</ele><time>2026-05-02T07:10:26.19Z</time></trkpt><trkpt lat="43.7490729" lon="12.8404512"><ele>141.0</ele><time>2026-05-02T07:10:27.193Z</time></trkpt><trkpt lat="43.7491256" lon="12.8403645"><ele>141.0</ele><time>2026-05-02T07:10:28.198Z</time></trkpt><trkpt lat="43.7491827" lon="12.8402465"><ele>141.0</ele><time>2026-05-02T07:10:29.191Z</time></trkpt><trkpt lat="43.7492361" lon="12.8401275"><ele>141.0</ele><time>2026-05-02T07:10:30.194Z</time></trkpt><trkpt lat="43.7492862" lon="12.8400013"><ele>141.0</ele><time>2026-05-02T07:10:31.188Z</time></trkpt><trkpt lat="43.7493217" lon="12.8398746"><ele>141.16666666666666</ele><time>2026-05-02T07:10:32.189Z</time></trkpt><trkpt lat="43.74935" lon="12.8397728"><ele>141.33333333333334</ele><time>2026-05-02T07:10:33.188Z</time></trkpt><trkpt lat="43.7493819" lon="12.8396836"><ele>141.5</ele><time>2026-05-02T07:10:34.185Z</time></trkpt><trkpt lat="43.7494146" lon="12.8395997"><ele>141.66666666666669</ele><time>2026-05-02T07:10:35.186Z</time></trkpt><trkpt lat="43.7494538" lon="12.8394681"><ele>141.83333333333334</ele><time>2026-05-02T07:10:37.198Z</time></trkpt><trkpt lat="43.7494359" lon="12.8393608"><ele>142.0</ele><time>2026-05-02T07:10:39.194Z</time></trkpt><trkpt lat="43.7493575" lon="12.8392464"><ele>145.33333333333334</ele><time>2026-05-02T07:10:41.194Z</time></trkpt><trkpt lat="43.749308" lon="12.8391659"><ele>148.66666666666669</ele><time>2026-05-02T07:10:42.203Z</time></trkpt><trkpt lat="43.7492503" lon="12.839071"><ele>152.0</ele><time>2026-05-02T07:10:43.196Z</time></trkpt><trkpt lat="43.7492" lon="12.8389782"><ele>155.33333333333334</ele><time>2026-05-02T07:10:44.199Z</time></trkpt><trkpt lat="43.7491245" lon="12.8388758"><ele>158.66666666666666</ele><time>2026-05-02T07:10:46.2Z</time></trkpt><trkpt lat="43.7490492" lon="12.8388426"><ele>162.0</ele><time>2026-05-02T07:10:48.205Z</time></trkpt><trkpt lat="43.7489473" lon="12.8388436"><ele>162.0</ele><time>2026-05-02T07:10:50.208Z</time></trkpt><trkpt lat="43.7488555" lon="12.8388324"><ele>162.0</ele><time>2026-05-02T07:11:05.293Z</time></trkpt><trkpt lat="43.748735" lon="12.8388231"><ele>162.0</ele><time>2026-05-02T07:11:07.198Z</time></trkpt><trkpt lat="43.7486497" lon="12.8388161"><ele>162.0</ele><time>2026-05-02T07:11:08.197Z</time></trkpt><trkpt lat="43.7485594" lon="12.8387902"><ele>162.0</ele><time>2026-05-02T07:11:09.199Z</time></trkpt><trkpt lat="43.7484827" lon="12.8387573"><ele>163.5</ele><time>2026-05-02T07:11:10.204Z</time></trkpt><trkpt lat="43.7484031" lon="12.8387374"><ele>165.0</ele><time>2026-05-02T07:11:11.198Z</time></trkpt><trkpt lat="43.7483235" lon="12.8387441"><ele>166.5</ele><time>2026-05-02T07:11:12.203Z</time></trkpt><trkpt lat="43.7482547" lon="12.83878"><ele>168.0</ele><time>2026-05-02T07:11:13.2Z</time></trkpt><trkpt lat="43.7481786" lon="12.8388153"><ele>169.5</ele><time>2026-05-02T07:11:14.198Z</time></trkpt><trkpt lat="43.748088" lon="12.8388298"><ele>171.0</ele><time>2026-05-02T07:11:15.198Z</time></trkpt><trkpt lat="43.7479978" lon="12.8388058"><ele>171.0</ele><time>2026-05-02T07:11:16.203Z</time></trkpt><trkpt lat="43.7479154" lon="12.8387685"><ele>171.0</ele><time>2026-05-02T07:11:17.193Z</time></trkpt><trkpt lat="43.7478405" lon="12.8387169"><ele>171.0</ele><time>2026-05-02T07:11:18.199Z</time></trkpt><trkpt lat="43.7477819" lon="12.8386561"><ele>171.0</ele><time>2026-05-02T07:11:19.198Z</time></trkpt><trkpt lat="43.7477312" lon="12.8386006"><ele>171.0</ele><time>2026-05-02T07:11:20.191Z</time></trkpt><trkpt lat="43.7476738" lon="12.8385407"><ele>171.0</ele><time>2026-05-02T07:11:21.203Z</time></trkpt><trkpt lat="43.7476071" lon="12.8384698"><ele>176.20000000000002</ele><time>2026-05-02T07:11:22.192Z</time></trkpt><trkpt lat="43.7475314" lon="12.8384003"><ele>181.4</ele><time>2026-05-02T07:11:23.198Z</time></trkpt><trkpt lat="43.7474346" lon="12.8383363"><ele>186.6</ele><time>2026-05-02T07:11:24.192Z</time></trkpt><trkpt lat="43.7473218" lon="12.8382734"><ele>191.8</ele><time>2026-05-02T07:11:25.193Z</time></trkpt><trkpt lat="43.7472037" lon="12.8382058"><ele>197.0</ele><time>2026-05-02T07:11:26.198Z</time></trkpt><trkpt lat="43.7470921" lon="12.8381434"><ele>197.0</ele><time>2026-05-02T07:11:27.194Z</time></trkpt><trkpt lat="43.7469857" lon="12.8380959"><ele>197.0</ele><time>2026-05-02T07:11:28.2Z</time></trkpt><trkpt lat="43.7468938" lon="12.8380497"><ele>197.0</ele><time>2026-05-02T07:11:29.197Z</time></trkpt><trkpt lat="43.7468155" lon="12.8380277"><ele>197.0</ele><time>2026-05-02T07:11:30.197Z</time></trkpt><trkpt lat="43.7467219" lon="12.8380493"><ele>197.0</ele><time>2026-05-02T07:11:32.198Z</time></trkpt><trkpt lat="43.746648" lon="12.8379465"><ele>198.2</ele><time>2026-05-02T07:11:54.2Z</time></trkpt><trkpt lat="43.7466027" lon="12.8378512"><ele>199.39999999999998</ele><time>2026-05-02T07:11:55.198Z</time></trkpt><trkpt lat="43.7465478" lon="12.8377393"><ele>200.60000000000002</ele><time>2026-05-02T07:11:56.2Z</time></trkpt><trkpt lat="43.746483" lon="12.8376188"><ele>201.8</ele><time>2026-05-02T07:11:57.198Z</time></trkpt><trkpt lat="43.7464063" lon="12.8374953"><ele>203.0</ele><time>2026-05-02T07:11:58.193Z</time></trkpt><trkpt lat="43.7463107" lon="12.8373825"><ele>203.25</ele><time>2026-05-02T07:11:59.2Z</time></trkpt><trkpt lat="43.7461975" lon="12.8372843"><ele>203.5</ele><time>2026-05-02T07:12:00.204Z</time></trkpt><trkpt lat="43.7460839" lon="12.8372184"><ele>203.75</ele><time>2026-05-02T07:12:01.197Z</time></trkpt><trkpt lat="43.7459742" lon="12.8371891"><ele>204.0</ele><time>2026-05-02T07:12:02.199Z</time></trkpt><trkpt lat="43.7458634" lon="12.8371938"><ele>205.2</ele><time>2026-05-02T07:12:03.193Z</time></trkpt><trkpt lat="43.7457517" lon="12.8372071"><ele>206.39999999999998</ele><time>2026-05-02T07:12:04.196Z</time></trkpt><trkpt lat="43.745644" lon="12.8372407"><ele>207.6</ele><time>2026-05-02T07:12:05.194Z</time></trkpt><trkpt lat="43.745544" lon="12.8372487"><ele>208.8</ele><time>2026-05-02T07:12:06.195Z</time></trkpt><trkpt lat="43.7454533" lon="12.8372334"><ele>210.0</ele><time>2026-05-02T07:12:07.199Z</time></trkpt><trkpt lat="43.7453919" lon="12.8371823"><ele>210.0</ele><time>2026-05-02T07:12:08.201Z</time></trkpt><trkpt lat="43.7453412" lon="12.8370877"><ele>210.0</ele><time>2026-05-02T07:12:09.192Z</time></trkpt><trkpt lat="43.7452917" lon="12.8369676"><ele>210.0</ele><time>2026-05-02T07:12:10.199Z</time></trkpt><trkpt lat="43.7452355" lon="12.8368275"><ele>210.0</ele><time>2026-05-02T07:12:11.196Z</time></trkpt><trkpt lat="43.745163" lon="12.8367055"><ele>210.0</ele><time>2026-05-02T07:12:12.198Z</time></trkpt><trkpt lat="43.7450833" lon="12.8365946"><ele>214.0</ele><time>2026-05-02T07:12:13.195Z</time></trkpt><trkpt lat="43.7449922" lon="12.8364805"><ele>218.0</ele><time>2026-05-02T07:12:14.196Z</time></trkpt><trkpt lat="43.744894" lon="12.8363638"><ele>222.0</ele><time>2026-05-02T07:12:15.199Z</time></trkpt><trkpt lat="43.7447938" lon="12.8362435"><ele>226.0</ele><time>2026-05-02T07:12:16.198Z</time></trkpt><trkpt lat="43.7446964" lon="12.8361117"><ele>227.25</ele><time>2026-05-02T07:12:17.199Z</time></trkpt><trkpt lat="43.7446107" lon="12.8359658"><ele>228.5</ele><time>2026-05-02T07:12:18.196Z</time></trkpt><trkpt lat="43.7445254" lon="12.8358086"><ele>229.75</ele><time>2026-05-02T07:12:19.2Z</time></trkpt><trkpt lat="43.744443" lon="12.8356465"><ele>231.0</ele><time>2026-05-02T07:12:20.198Z</time></trkpt><trkpt lat="43.7443428" lon="12.835516"><ele>234.20000000000002</ele><time>2026-05-02T07:12:21.193Z</time></trkpt><trkpt lat="43.7442504" lon="12.8354035"><ele>237.40000000000003</ele><time>2026-05-02T07:12:22.199Z</time></trkpt><trkpt lat="43.7441595" lon="12.8352969"><ele>240.6</ele><time>2026-05-02T07:12:23.208Z</time></trkpt><trkpt lat="43.7440913" lon="12.8351856"><ele>243.8</ele><time>2026-05-02T07:12:24.2Z</time></trkpt><trkpt lat="43.7440443" lon="12.835074"><ele>247.0</ele><time>2026-05-02T07:12:25.199Z</time></trkpt><trkpt lat="43.7440093" lon="12.8349239"><ele>248.5</ele><time>2026-05-02T07:12:26.196Z</time></trkpt><trkpt lat="43.7439639" lon="12.8347646"><ele>250.0</ele><time>2026-05-02T07:12:27.199Z</time></trkpt><trkpt lat="43.7439132" lon="12.8346176"><ele>251.5</ele><time>2026-05-02T07:12:28.199Z</time></trkpt><trkpt lat="43.7438569" lon="12.8344828"><ele>253.0</ele><time>2026-05-02T07:12:29.198Z</time></trkpt><trkpt lat="43.7437997" lon="12.8343673"><ele>254.4</ele><time>2026-05-02T07:12:30.195Z</time></trkpt><trkpt lat="43.74374" lon="12.8342641"><ele>255.8</ele><time>2026-05-02T07:12:31.201Z</time></trkpt><trkpt lat="43.743681" lon="12.8341802"><ele>257.2</ele><time>2026-05-02T07:12:32.205Z</time></trkpt><trkpt lat="43.7435847" lon="12.8340732"><ele>258.6</ele><time>2026-05-02T07:12:34.193Z</time></trkpt><trkpt lat="43.7435399" lon="12.8339871"><ele>260.0</ele><time>2026-05-02T07:12:35.202Z</time></trkpt><trkpt lat="43.743505" lon="12.8338824"><ele>260.5</ele><time>2026-05-02T07:12:36.2Z</time></trkpt><trkpt lat="43.7434829" lon="12.8337748"><ele>261.0</ele><time>2026-05-02T07:12:37.206Z</time></trkpt><trkpt lat="43.7434619" lon="12.833685"><ele>261.5</ele><time>2026-05-02T07:12:38.197Z</time></trkpt><trkpt lat="43.7434078" lon="12.8335519"><ele>262.0</ele><time>2026-05-02T07:12:40.21Z</time></trkpt><trkpt lat="43.7433582" lon="12.8334394"><ele>262.5</ele><time>2026-05-02T07:12:42.203Z</time></trkpt><trkpt lat="43.7433013" lon="12.8333798"><ele>263.0</ele><time>2026-05-02T07:12:44.215Z</time></trkpt><trkpt lat="43.7432055" lon="12.8334666"><ele>263.2</ele><time>2026-05-02T07:12:46.212Z</time></trkpt><trkpt lat="43.7431463" lon="12.8335791"><ele>263.4</ele><time>2026-05-02T07:12:47.205Z</time></trkpt><trkpt lat="43.7430688" lon="12.8336838"><ele>263.59999999999997</ele><time>2026-05-02T07:12:48.2Z</time></trkpt><trkpt lat="43.742974" lon="12.8337694"><ele>263.8</ele><time>2026-05-02T07:12:49.206Z</time></trkpt><trkpt lat="43.7428519" lon="12.8338075"><ele>264.0</ele><time>2026-05-02T07:12:50.202Z</time></trkpt><trkpt lat="43.7427085" lon="12.8338038"><ele>264.0</ele><time>2026-05-02T07:12:51.199Z</time></trkpt><trkpt lat="43.7425588" lon="12.8337816"><ele>264.0</ele><time>2026-05-02T07:12:52.196Z</time></trkpt><trkpt lat="43.7424024" lon="12.8337558"><ele>264.0</ele><time>2026-05-02T07:12:53.204Z</time></trkpt><trkpt lat="43.7422394" lon="12.8337241"><ele>264.0</ele><time>2026-05-02T07:12:54.203Z</time></trkpt><trkpt lat="43.7420831" lon="12.8337114"><ele>264.0</ele><time>2026-05-02T07:12:55.204Z</time></trkpt><trkpt lat="43.7419322" lon="12.8336956"><ele>264.0</ele><time>2026-05-02T07:12:56.202Z</time></trkpt><trkpt lat="43.741793" lon="12.8336853"><ele>264.0</ele><time>2026-05-02T07:12:57.207Z</time></trkpt><trkpt lat="43.7416649" lon="12.833663"><ele>261.75</ele><time>2026-05-02T07:12:58.202Z</time></trkpt><trkpt lat="43.7415431" lon="12.833653"><ele>259.5</ele><time>2026-05-02T07:12:59.202Z</time></trkpt><trkpt lat="43.741423" lon="12.8336551"><ele>257.25</ele><time>2026-05-02T07:13:00.202Z</time></trkpt><trkpt lat="43.7413105" lon="12.833674"><ele>255.0</ele><time>2026-05-02T07:13:01.201Z</time></trkpt><trkpt lat="43.7412059" lon="12.8337235"><ele>255.0</ele><time>2026-05-02T07:13:02.2Z</time></trkpt><trkpt lat="43.7410991" lon="12.8337839"><ele>255.0</ele><time>2026-05-02T07:13:03.202Z</time></trkpt><trkpt lat="43.7409919" lon="12.8338711"><ele>255.0</ele><time>2026-05-02T07:13:04.197Z</time></trkpt><trkpt lat="43.7408865" lon="12.8339595"><ele>255.0</ele><time>2026-05-02T07:13:05.197Z</time></trkpt><trkpt lat="43.7407891" lon="12.8340467"><ele>253.25</ele><time>2026-05-02T07:13:06.199Z</time></trkpt><trkpt lat="43.7406894" lon="12.8341275"><ele>251.5</ele><time>2026-05-02T07:13:07.2Z</time></trkpt><trkpt lat="43.7405892" lon="12.8342012"><ele>249.75</ele><time>2026-05-02T07:13:08.196Z</time></trkpt><trkpt lat="43.7404859" lon="12.8342652"><ele>248.0</ele><time>2026-05-02T07:13:09.2Z</time></trkpt><trkpt lat="43.7403725" lon="12.8343119"><ele>245.25</ele><time>2026-05-02T07:13:10.197Z</time></trkpt><trkpt lat="43.7402414" lon="12.8343309"><ele>242.5</ele><time>2026-05-02T07:13:11.192Z</time></trkpt><trkpt lat="43.7400973" lon="12.8343397"><ele>239.75</ele><time>2026-05-02T07:13:12.198Z</time></trkpt><trkpt lat="43.7399488" lon="12.8343561"><ele>237.0</ele><time>2026-05-02T07:13:13.199Z</time></trkpt><trkpt lat="43.7397932" lon="12.8343753"><ele>236.5</ele><time>2026-05-02T07:13:14.204Z</time></trkpt><trkpt lat="43.739643" lon="12.8343983"><ele>236.0</ele><time>2026-05-02T07:13:15.206Z</time></trkpt><trkpt lat="43.7394923" lon="12.8344203"><ele>235.5</ele><time>2026-05-02T07:13:16.203Z</time></trkpt><trkpt lat="43.7393481" lon="12.8344333"><ele>235.0</ele><time>2026-05-02T07:13:17.2Z</time></trkpt><trkpt lat="43.7392007" lon="12.8344231"><ele>235.0</ele><time>2026-05-02T07:13:18.207Z</time></trkpt><trkpt lat="43.7390653" lon="12.8343705"><ele>235.0</ele><time>2026-05-02T07:13:19.207Z</time></trkpt><trkpt lat="43.7389225" lon="12.8343039"><ele>235.0</ele><time>2026-05-02T07:13:20.201Z</time></trkpt><trkpt lat="43.7388087" lon="12.8342196"><ele>235.0</ele><time>2026-05-02T07:13:21.205Z</time></trkpt><trkpt lat="43.7386995" lon="12.8341651"><ele>236.0</ele><time>2026-05-02T07:13:22.206Z</time></trkpt><trkpt lat="43.7385815" lon="12.8341642"><ele>237.0</ele><time>2026-05-02T07:13:23.207Z</time></trkpt><trkpt lat="43.7384494" lon="12.8342131"><ele>238.0</ele><time>2026-05-02T07:13:24.214Z</time></trkpt><trkpt lat="43.7383279" lon="12.8342802"><ele>239.0</ele><time>2026-05-02T07:13:25.203Z</time></trkpt><trkpt lat="43.738209" lon="12.8343582"><ele>241.75</ele><time>2026-05-02T07:13:26.21Z</time></trkpt><trkpt lat="43.7380929" lon="12.8344463"><ele>244.5</ele><time>2026-05-02T07:13:27.206Z</time></trkpt><trkpt lat="43.7379801" lon="12.834526"><ele>247.25</ele><time>2026-05-02T07:13:28.208Z</time></trkpt><trkpt lat="43.737868" lon="12.8345973"><ele>250.0</ele><time>2026-05-02T07:13:29.208Z</time></trkpt><trkpt lat="43.737767" lon="12.8346719"><ele>249.2</ele><time>2026-05-02T07:13:30.204Z</time></trkpt><trkpt lat="43.7376754" lon="12.8347514"><ele>248.4</ele><time>2026-05-02T07:13:31.203Z</time></trkpt><trkpt lat="43.7375991" lon="12.8348453"><ele>247.60000000000002</ele><time>2026-05-02T07:13:32.202Z</time></trkpt><trkpt lat="43.7375339" lon="12.8349522"><ele>246.8</ele><time>2026-05-02T07:13:33.201Z</time></trkpt><trkpt lat="43.7374711" lon="12.8350657"><ele>246.0</ele><time>2026-05-02T07:13:34.203Z</time></trkpt><trkpt lat="43.7374078" lon="12.8351785"><ele>246.0</ele><time>2026-05-02T07:13:35.207Z</time></trkpt><trkpt lat="43.7373422" lon="12.8352761"><ele>246.00000000000003</ele><time>2026-05-02T07:13:36.201Z</time></trkpt><trkpt lat="43.7372578" lon="12.8353574"><ele>246.00000000000003</ele><time>2026-05-02T07:13:37.202Z</time></trkpt><trkpt lat="43.7371667" lon="12.8354222"><ele>246.0</ele><time>2026-05-02T07:13:38.198Z</time></trkpt><trkpt lat="43.7370726" lon="12.8354868"><ele>246.0</ele><time>2026-05-02T07:13:39.199Z</time></trkpt><trkpt lat="43.7369854" lon="12.8355546"><ele>246.0</ele><time>2026-05-02T07:13:40.202Z</time></trkpt><trkpt lat="43.7369008" lon="12.8356233"><ele>246.00000000000003</ele><time>2026-05-02T07:13:41.2Z</time></trkpt><trkpt lat="43.736819" lon="12.8356865"><ele>246.00000000000003</ele><time>2026-05-02T07:13:42.205Z</time></trkpt><trkpt lat="43.7367381" lon="12.8357376"><ele>246.0</ele><time>2026-05-02T07:13:43.204Z</time></trkpt><trkpt lat="43.7366455" lon="12.8357535"><ele>246.0</ele><time>2026-05-02T07:13:44.2Z</time></trkpt><trkpt lat="43.7365472" lon="12.8357028"><ele>245.8</ele><time>2026-05-02T07:13:45.205Z</time></trkpt><trkpt lat="43.7364504" lon="12.8356175"><ele>245.60000000000002</ele><time>2026-05-02T07:13:46.203Z</time></trkpt><trkpt lat="43.7363671" lon="12.835525"><ele>245.4</ele><time>2026-05-02T07:13:47.203Z</time></trkpt><trkpt lat="43.7362857" lon="12.8354352"><ele>245.2</ele><time>2026-05-02T07:13:48.196Z</time></trkpt><trkpt lat="43.7362037" lon="12.8353478"><ele>245.0</ele><time>2026-05-02T07:13:49.2Z</time></trkpt><trkpt lat="43.736127" lon="12.8352557"><ele>246.6</ele><time>2026-05-02T07:13:50.202Z</time></trkpt><trkpt lat="43.7360489" lon="12.8351631"><ele>248.2</ele><time>2026-05-02T07:13:51.201Z</time></trkpt><trkpt lat="43.7359732" lon="12.8350726"><ele>249.8</ele><time>2026-05-02T07:13:52.194Z</time></trkpt><trkpt lat="43.7358973" lon="12.8349812"><ele>251.4</ele><time>2026-05-02T07:13:53.203Z</time></trkpt><trkpt lat="43.7358248" lon="12.8348955"><ele>253.0</ele><time>2026-05-02T07:13:54.202Z</time></trkpt><trkpt lat="43.7357522" lon="12.834809"><ele>252.99999999999997</ele><time>2026-05-02T07:13:55.209Z</time></trkpt><trkpt lat="43.7356787" lon="12.8347221"><ele>253.0</ele><time>2026-05-02T07:13:56.199Z</time></trkpt><trkpt lat="43.7356045" lon="12.8346355"><ele>253.0</ele><time>2026-05-02T07:13:57.198Z</time></trkpt><trkpt lat="43.7355353" lon="12.8345585"><ele>253.0</ele><time>2026-05-02T07:13:58.198Z</time></trkpt><trkpt lat="43.735467" lon="12.8344997"><ele>252.99999999999997</ele><time>2026-05-02T07:13:59.196Z</time></trkpt><trkpt lat="43.7354068" lon="12.8344671"><ele>253.0</ele><time>2026-05-02T07:14:00.192Z</time></trkpt><trkpt lat="43.735312" lon="12.8344321"><ele>252.99999999999997</ele><time>2026-05-02T07:14:02.198Z</time></trkpt><trkpt lat="43.7352565" lon="12.8343401"><ele>253.0</ele><time>2026-05-02T07:14:04.204Z</time></trkpt><trkpt lat="43.7352551" lon="12.8342454"><ele>253.0</ele><time>2026-05-02T07:14:05.195Z</time></trkpt><trkpt lat="43.7352546" lon="12.8341384"><ele>253.0</ele><time>2026-05-02T07:14:06.199Z</time></trkpt><trkpt lat="43.735254" lon="12.8340345"><ele>252.99999999999997</ele><time>2026-05-02T07:14:07.194Z</time></trkpt><trkpt lat="43.7352432" lon="12.833931"><ele>253.0</ele><time>2026-05-02T07:14:08.193Z</time></trkpt><trkpt lat="43.7352455" lon="12.8338321"><ele>251.60000000000002</ele><time>2026-05-02T07:14:09.197Z</time></trkpt><trkpt lat="43.7352662" lon="12.8336667"><ele>250.20000000000002</ele><time>2026-05-02T07:14:11.207Z</time></trkpt><trkpt lat="43.7352913" lon="12.8335789"><ele>248.8</ele><time>2026-05-02T07:14:12.207Z</time></trkpt><trkpt lat="43.7353214" lon="12.8334739"><ele>247.4</ele><time>2026-05-02T07:14:13.21Z</time></trkpt><trkpt lat="43.7353516" lon="12.8333537"><ele>246.0</ele><time>2026-05-02T07:14:14.206Z</time></trkpt><trkpt lat="43.7353748" lon="12.8332295"><ele>244.83333333333334</ele><time>2026-05-02T07:14:15.203Z</time></trkpt><trkpt lat="43.7353857" lon="12.8331077"><ele>243.66666666666669</ele><time>2026-05-02T07:14:16.202Z</time></trkpt><trkpt lat="43.7353829" lon="12.833"><ele>242.5</ele><time>2026-05-02T07:14:17.198Z</time></trkpt><trkpt lat="43.7353707" lon="12.8328977"><ele>241.33333333333334</ele><time>2026-05-02T07:14:18.199Z</time></trkpt><trkpt lat="43.7353479" lon="12.8327981"><ele>240.16666666666669</ele><time>2026-05-02T07:14:19.206Z</time></trkpt><trkpt lat="43.7352953" lon="12.8327052"><ele>239.0</ele><time>2026-05-02T07:14:20.197Z</time></trkpt><trkpt lat="43.7352276" lon="12.8326166"><ele>243.6</ele><time>2026-05-02T07:14:21.201Z</time></trkpt><trkpt lat="43.7351581" lon="12.832519"><ele>248.2</ele><time>2026-05-02T07:14:22.2Z</time></trkpt><trkpt lat="43.7350787" lon="12.8324128"><ele>252.79999999999998</ele><time>2026-05-02T07:14:23.204Z</time></trkpt><trkpt lat="43.7350006" lon="12.8323088"><ele>257.4</ele><time>2026-05-02T07:14:24.203Z</time></trkpt><trkpt lat="43.7349285" lon="12.8322173"><ele>262.0</ele><time>2026-05-02T07:14:25.191Z</time></trkpt><trkpt lat="43.7348621" lon="12.832153"><ele>262.0</ele><time>2026-05-02T07:14:26.208Z</time></trkpt><trkpt lat="43.7347811" lon="12.8320561"><ele>262.0</ele><time>2026-05-02T07:14:28.207Z</time></trkpt><trkpt lat="43.7348131" lon="12.8318907"><ele>262.0</ele><time>2026-05-02T07:14:30.202Z</time></trkpt><trkpt lat="43.734848" lon="12.8317771"><ele>262.0</ele><time>2026-05-02T07:14:31.209Z</time></trkpt><trkpt lat="43.7348642" lon="12.8316638"><ele>262.0</ele><time>2026-05-02T07:14:32.205Z</time></trkpt><trkpt lat="43.7348723" lon="12.8315404"><ele>259.4</ele><time>2026-05-02T07:14:33.201Z</time></trkpt><trkpt lat="43.7348628" lon="12.8314247"><ele>256.79999999999995</ele><time>2026-05-02T07:14:34.205Z</time></trkpt><trkpt lat="43.7348404" lon="12.8313327"><ele>254.2</ele><time>2026-05-02T07:14:35.205Z</time></trkpt><trkpt lat="43.7347636" lon="12.831231"><ele>251.6</ele><time>2026-05-02T07:14:37.195Z</time></trkpt><trkpt lat="43.7346622" lon="12.831137"><ele>249.0</ele><time>2026-05-02T07:14:39.192Z</time></trkpt><trkpt lat="43.7345898" lon="12.8310943"><ele>249.0</ele><time>2026-05-02T07:14:40.195Z</time></trkpt><trkpt lat="43.7345099" lon="12.8310496"><ele>249.0</ele><time>2026-05-02T07:14:41.192Z</time></trkpt><trkpt lat="43.7344239" lon="12.8310031"><ele>249.0</ele><time>2026-05-02T07:14:42.196Z</time></trkpt><trkpt lat="43.7343461" lon="12.8309525"><ele>249.0</ele><time>2026-05-02T07:14:43.195Z</time></trkpt><trkpt lat="43.7342678" lon="12.8309032"><ele>249.0</ele><time>2026-05-02T07:14:44.194Z</time></trkpt><trkpt lat="43.7341906" lon="12.8308534"><ele>249.0</ele><time>2026-05-02T07:14:45.202Z</time></trkpt><trkpt lat="43.7341143" lon="12.8307975"><ele>247.66666666666666</ele><time>2026-05-02T07:14:46.199Z</time></trkpt><trkpt lat="43.7340421" lon="12.8307477"><ele>246.33333333333331</ele><time>2026-05-02T07:14:47.206Z</time></trkpt><trkpt lat="43.7339685" lon="12.8307129"><ele>245.0</ele><time>2026-05-02T07:14:48.202Z</time></trkpt><trkpt lat="43.7338871" lon="12.8306901"><ele>243.66666666666666</ele><time>2026-05-02T07:14:49.21Z</time></trkpt><trkpt lat="43.7337926" lon="12.8306812"><ele>242.33333333333331</ele><time>2026-05-02T07:14:50.205Z</time></trkpt><trkpt lat="43.7336873" lon="12.8306818"><ele>241.0</ele><time>2026-05-02T07:14:51.202Z</time></trkpt><trkpt lat="43.7335837" lon="12.8306846"><ele>238.60000000000002</ele><time>2026-05-02T07:14:52.204Z</time></trkpt><trkpt lat="43.7334847" lon="12.8306837"><ele>236.20000000000002</ele><time>2026-05-02T07:14:53.199Z</time></trkpt><trkpt lat="43.7333921" lon="12.8306684"><ele>233.79999999999998</ele><time>2026-05-02T07:14:54.199Z</time></trkpt><trkpt lat="43.7333042" lon="12.8306414"><ele>231.39999999999998</ele><time>2026-05-02T07:14:55.203Z</time></trkpt><trkpt lat="43.7332156" lon="12.8306024"><ele>229.0</ele><time>2026-05-02T07:14:56.198Z</time></trkpt><trkpt lat="43.73314" lon="12.8305535"><ele>228.99999999999997</ele><time>2026-05-02T07:14:57.207Z</time></trkpt><trkpt lat="43.73306" lon="12.8304954"><ele>229.0</ele><time>2026-05-02T07:14:58.199Z</time></trkpt><trkpt lat="43.7329748" lon="12.8304415"><ele>229.0</ele><time>2026-05-02T07:14:59.203Z</time></trkpt><trkpt lat="43.7328896" lon="12.8303904"><ele>229.0</ele><time>2026-05-02T07:15:00.202Z</time></trkpt><trkpt lat="43.7328081" lon="12.8303428"><ele>228.99999999999997</ele><time>2026-05-02T07:15:01.201Z</time></trkpt><trkpt lat="43.7327376" lon="12.8303035"><ele>229.0</ele><time>2026-05-02T07:15:02.198Z</time></trkpt><trkpt lat="43.7326381" lon="12.830251"><ele>226.99999999999997</ele><time>2026-05-02T07:15:04.194Z</time></trkpt><trkpt lat="43.7326117" lon="12.8301557"><ele>225.0</ele><time>2026-05-02T07:15:08.215Z</time></trkpt><trkpt lat="43.7326187" lon="12.8300463"><ele>223.0</ele><time>2026-05-02T07:15:11.208Z</time></trkpt><trkpt lat="43.7326234" lon="12.829928"><ele>221.0</ele><time>2026-05-02T07:15:13.21Z</time></trkpt><trkpt lat="43.7326228" lon="12.8297923"><ele>218.99999999999997</ele><time>2026-05-02T07:15:15.208Z</time></trkpt><trkpt lat="43.7326154" lon="12.8296897"><ele>217.0</ele><time>2026-05-02T07:15:17.204Z</time></trkpt><trkpt lat="43.732586" lon="12.8295493"><ele>217.0</ele><time>2026-05-02T07:15:19.203Z</time></trkpt><trkpt lat="43.732547" lon="12.8293918"><ele>217.0</ele><time>2026-05-02T07:15:21.199Z</time></trkpt><trkpt lat="43.7324924" lon="12.8292357"><ele>217.0</ele><time>2026-05-02T07:15:23.192Z</time></trkpt><trkpt lat="43.7324621" lon="12.8291458"><ele>217.0</ele><time>2026-05-02T07:15:24.195Z</time></trkpt><trkpt lat="43.7324276" lon="12.8290535"><ele>217.0</ele><time>2026-05-02T07:15:25.205Z</time></trkpt><trkpt lat="43.7323946" lon="12.8289675"><ele>216.16666666666666</ele><time>2026-05-02T07:15:26.207Z</time></trkpt><trkpt lat="43.7323596" lon="12.8288798"><ele>215.33333333333331</ele><time>2026-05-02T07:15:27.203Z</time></trkpt><trkpt lat="43.7323229" lon="12.8287858"><ele>214.5</ele><time>2026-05-02T07:15:28.212Z</time></trkpt><trkpt lat="43.7322713" lon="12.8286967"><ele>213.66666666666669</ele><time>2026-05-02T07:15:29.202Z</time></trkpt><trkpt lat="43.7322107" lon="12.8286131"><ele>212.83333333333334</ele><time>2026-05-02T07:15:30.198Z</time></trkpt><trkpt lat="43.7321469" lon="12.8285381"><ele>212.0</ele><time>2026-05-02T07:15:31.207Z</time></trkpt><trkpt lat="43.7320863" lon="12.8284572"><ele>212.33333333333334</ele><time>2026-05-02T07:15:32.211Z</time></trkpt><trkpt lat="43.7320362" lon="12.8283841"><ele>212.66666666666669</ele><time>2026-05-02T07:15:33.209Z</time></trkpt><trkpt lat="43.7319964" lon="12.8283163"><ele>213.0</ele><time>2026-05-02T07:15:34.209Z</time></trkpt><trkpt lat="43.7319381" lon="12.8282066"><ele>213.33333333333331</ele><time>2026-05-02T07:15:36.206Z</time></trkpt><trkpt lat="43.7318873" lon="12.8281327"><ele>213.66666666666666</ele><time>2026-05-02T07:15:38.211Z</time></trkpt><trkpt lat="43.7318353" lon="12.828053"><ele>214.0</ele><time>2026-05-02T07:15:40.215Z</time></trkpt><trkpt lat="43.7317728" lon="12.8279698"><ele>214.0</ele><time>2026-05-02T07:15:42.211Z</time></trkpt><trkpt lat="43.7316969" lon="12.8279116"><ele>213.99999999999997</ele><time>2026-05-02T07:15:44.211Z</time></trkpt><trkpt lat="43.7316127" lon="12.8278501"><ele>213.99999999999997</ele><time>2026-05-02T07:15:46.211Z</time></trkpt><trkpt lat="43.7315327" lon="12.827801"><ele>214.0</ele><time>2026-05-02T07:15:48.21Z</time></trkpt><trkpt lat="43.7314437" lon="12.8277179"><ele>214.0</ele><time>2026-05-02T07:15:50.209Z</time></trkpt><trkpt lat="43.7313756" lon="12.8275623"><ele>211.66666666666666</ele><time>2026-05-02T07:15:52.203Z</time></trkpt><trkpt lat="43.7313417" lon="12.8274583"><ele>209.33333333333331</ele><time>2026-05-02T07:15:53.214Z</time></trkpt><trkpt lat="43.7313032" lon="12.8273512"><ele>207.0</ele><time>2026-05-02T07:15:54.22Z</time></trkpt><trkpt lat="43.7312584" lon="12.8272487"><ele>204.66666666666669</ele><time>2026-05-02T07:15:55.216Z</time></trkpt><trkpt lat="43.7312111" lon="12.8271394"><ele>202.33333333333334</ele><time>2026-05-02T07:15:56.218Z</time></trkpt><trkpt lat="43.7311702" lon="12.8270347"><ele>200.0</ele><time>2026-05-02T07:15:57.22Z</time></trkpt><trkpt lat="43.7311291" lon="12.8269397"><ele>200.00000000000003</ele><time>2026-05-02T07:15:58.216Z</time></trkpt><trkpt lat="43.7310931" lon="12.8268563"><ele>200.0</ele><time>2026-05-02T07:15:59.217Z</time></trkpt><trkpt lat="43.7310677" lon="12.8267647"><ele>200.0</ele><time>2026-05-02T07:16:00.213Z</time></trkpt><trkpt lat="43.7310488" lon="12.8266547"><ele>200.0</ele><time>2026-05-02T07:16:01.212Z</time></trkpt><trkpt lat="43.7310289" lon="12.8265541"><ele>200.00000000000003</ele><time>2026-05-02T07:16:02.212Z</time></trkpt><trkpt lat="43.7309989" lon="12.8264614"><ele>200.0</ele><time>2026-05-02T07:16:03.213Z</time></trkpt><trkpt lat="43.7309567" lon="12.8263668"><ele>198.83333333333334</ele><time>2026-05-02T07:16:04.2Z</time></trkpt><trkpt lat="43.7309001" lon="12.8262712"><ele>197.66666666666669</ele><time>2026-05-02T07:16:05.199Z</time></trkpt><trkpt lat="43.73085" lon="12.8261826"><ele>196.5</ele><time>2026-05-02T07:16:06.193Z</time></trkpt><trkpt lat="43.7308092" lon="12.8260864"><ele>195.33333333333331</ele><time>2026-05-02T07:16:07.197Z</time></trkpt><trkpt lat="43.730774" lon="12.8259858"><ele>194.16666666666666</ele><time>2026-05-02T07:16:08.2Z</time></trkpt><trkpt lat="43.730751" lon="12.8258698"><ele>193.0</ele><time>2026-05-02T07:16:09.199Z</time></trkpt><trkpt lat="43.7307219" lon="12.8257624"><ele>190.49999999999997</ele><time>2026-05-02T07:16:10.2Z</time></trkpt><trkpt lat="43.7306803" lon="12.825671"><ele>188.0</ele><time>2026-05-02T07:16:11.196Z</time></trkpt><trkpt lat="43.73062" lon="12.8256005"><ele>185.5</ele><time>2026-05-02T07:16:12.198Z</time></trkpt><trkpt lat="43.7305516" lon="12.8255443"><ele>183.0</ele><time>2026-05-02T07:16:13.197Z</time></trkpt><trkpt lat="43.7304574" lon="12.8255254"><ele>180.5</ele><time>2026-05-02T07:16:14.192Z</time></trkpt><trkpt lat="43.7303577" lon="12.8255273"><ele>178.0</ele><time>2026-05-02T07:16:15.193Z</time></trkpt><trkpt lat="43.7302454" lon="12.8255487"><ele>178.4</ele><time>2026-05-02T07:16:16.2Z</time></trkpt><trkpt lat="43.7301407" lon="12.8255607"><ele>178.8</ele><time>2026-05-02T07:16:17.195Z</time></trkpt><trkpt lat="43.7300248" lon="12.825567"><ele>179.2</ele><time>2026-05-02T07:16:18.199Z</time></trkpt><trkpt lat="43.7299181" lon="12.8255514"><ele>179.6</ele><time>2026-05-02T07:16:19.199Z</time></trkpt><trkpt lat="43.7298132" lon="12.8255273"><ele>180.0</ele><time>2026-05-02T07:16:20.203Z</time></trkpt><trkpt lat="43.7297123" lon="12.8255047"><ele>180.0</ele><time>2026-05-02T07:16:21.2Z</time></trkpt><trkpt lat="43.7296082" lon="12.8254765"><ele>180.0</ele><time>2026-05-02T07:16:22.203Z</time></trkpt><trkpt lat="43.7295102" lon="12.8254588"><ele>180.0</ele><time>2026-05-02T07:16:23.196Z</time></trkpt><trkpt lat="43.729406" lon="12.8254446"><ele>180.0</ele><time>2026-05-02T07:16:24.192Z</time></trkpt><trkpt lat="43.7292933" lon="12.8254473"><ele>180.0</ele><time>2026-05-02T07:16:25.2Z</time></trkpt><trkpt lat="43.7291884" lon="12.8254558"><ele>177.6</ele><time>2026-05-02T07:16:26.204Z</time></trkpt><trkpt lat="43.7290849" lon="12.825463"><ele>175.2</ele><time>2026-05-02T07:16:27.202Z</time></trkpt><trkpt lat="43.7289828" lon="12.825475"><ele>172.8</ele><time>2026-05-02T07:16:28.209Z</time></trkpt><trkpt lat="43.7288857" lon="12.8254856"><ele>170.4</ele><time>2026-05-02T07:16:29.203Z</time></trkpt><trkpt lat="43.7287895" lon="12.8254891"><ele>168.0</ele><time>2026-05-02T07:16:30.212Z</time></trkpt><trkpt lat="43.7286921" lon="12.8255037"><ele>168.0</ele><time>2026-05-02T07:16:31.203Z</time></trkpt><trkpt lat="43.7285946" lon="12.8255296"><ele>168.0</ele><time>2026-05-02T07:16:32.205Z</time></trkpt><trkpt lat="43.7284969" lon="12.8255717"><ele>168.0</ele><time>2026-05-02T07:16:33.207Z</time></trkpt><trkpt lat="43.7283987" lon="12.8256218"><ele>168.0</ele><time>2026-05-02T07:16:34.205Z</time></trkpt><trkpt lat="43.7283019" lon="12.8256835"><ele>168.0</ele><time>2026-05-02T07:16:35.207Z</time></trkpt><trkpt lat="43.7282058" lon="12.8257509"><ele>166.60000000000002</ele><time>2026-05-02T07:16:36.203Z</time></trkpt><trkpt lat="43.7281179" lon="12.8258263"><ele>165.20000000000002</ele><time>2026-05-02T07:16:37.2Z</time></trkpt><trkpt lat="43.7280394" lon="12.8259108"><ele>163.8</ele><time>2026-05-02T07:16:38.197Z</time></trkpt><trkpt lat="43.7279689" lon="12.8260016"><ele>162.4</ele><time>2026-05-02T07:16:39.206Z</time></trkpt><trkpt lat="43.7279058" lon="12.8260988"><ele>161.0</ele><time>2026-05-02T07:16:40.202Z</time></trkpt><trkpt lat="43.727848" lon="12.8261794"><ele>161.0</ele><time>2026-05-02T07:16:41.204Z</time></trkpt><trkpt lat="43.7277838" lon="12.8262278"><ele>161.0</ele><time>2026-05-02T07:16:42.206Z</time></trkpt><trkpt lat="43.7277112" lon="12.8262371"><ele>161.0</ele><time>2026-05-02T07:16:43.207Z</time></trkpt><trkpt lat="43.7276368" lon="12.8262047"><ele>161.0</ele><time>2026-05-02T07:16:44.206Z</time></trkpt><trkpt lat="43.7275731" lon="12.8261265"><ele>161.0</ele><time>2026-05-02T07:16:45.205Z</time></trkpt><trkpt lat="43.727513" lon="12.8260459"><ele>161.0</ele><time>2026-05-02T07:16:46.206Z</time></trkpt><trkpt lat="43.727448" lon="12.8260097"><ele>158.66666666666666</ele><time>2026-05-02T07:16:47.205Z</time></trkpt><trkpt lat="43.727382" lon="12.8260003"><ele>156.33333333333331</ele><time>2026-05-02T07:16:48.2Z</time></trkpt><trkpt lat="43.7273084" lon="12.8259789"><ele>154.0</ele><time>2026-05-02T07:16:49.198Z</time></trkpt><trkpt lat="43.7272298" lon="12.825928"><ele>151.66666666666666</ele><time>2026-05-02T07:16:50.188Z</time></trkpt><trkpt lat="43.7271388" lon="12.8258737"><ele>149.33333333333334</ele><time>2026-05-02T07:16:51.204Z</time></trkpt><trkpt lat="43.7270555" lon="12.8258259"><ele>147.0</ele><time>2026-05-02T07:16:52.199Z</time></trkpt><trkpt lat="43.7269833" lon="12.8257911"><ele>146.0</ele><time>2026-05-02T07:16:53.202Z</time></trkpt><trkpt lat="43.7269194" lon="12.8257562"><ele>145.0</ele><time>2026-05-02T07:16:54.196Z</time></trkpt><trkpt lat="43.7268097" lon="12.8256851"><ele>144.0</ele><time>2026-05-02T07:16:56.192Z</time></trkpt><trkpt lat="43.7267475" lon="12.8256031"><ele>143.0</ele><time>2026-05-02T07:16:57.196Z</time></trkpt><trkpt lat="43.7266664" lon="12.825509"><ele>142.0</ele><time>2026-05-02T07:16:58.184Z</time></trkpt><trkpt lat="43.726568" lon="12.825423"><ele>141.0</ele><time>2026-05-02T07:16:59.207Z</time></trkpt><trkpt lat="43.7264481" lon="12.8253301"><ele>140.0</ele><time>2026-05-02T07:17:00.187Z</time></trkpt><trkpt lat="43.7263163" lon="12.8252387"><ele>139.0</ele><time>2026-05-02T07:17:01.203Z</time></trkpt><trkpt lat="43.726178" lon="12.8251446"><ele>138.0</ele><time>2026-05-02T07:17:02.194Z</time></trkpt><trkpt lat="43.726045" lon="12.8250558"><ele>135.5</ele><time>2026-05-02T07:17:03.195Z</time></trkpt><trkpt lat="43.7259264" lon="12.8249704"><ele>133.0</ele><time>2026-05-02T07:17:04.186Z</time></trkpt><trkpt lat="43.7258145" lon="12.8248634"><ele>130.5</ele><time>2026-05-02T07:17:05.194Z</time></trkpt><trkpt lat="43.7257055" lon="12.8247624"><ele>128.0</ele><time>2026-05-02T07:17:06.2Z</time></trkpt><trkpt lat="43.7256232" lon="12.8246492"><ele>128.0</ele><time>2026-05-02T07:17:07.205Z</time></trkpt><trkpt lat="43.7255559" lon="12.8245109"><ele>128.0</ele><time>2026-05-02T07:17:08.205Z</time></trkpt><trkpt lat="43.7255214" lon="12.8243482"><ele>128.0</ele><time>2026-05-02T07:17:09.208Z</time></trkpt><trkpt lat="43.7254963" lon="12.8241775"><ele>128.0</ele><time>2026-05-02T07:17:10.201Z</time></trkpt><trkpt lat="43.7254823" lon="12.8240002"><ele>127.0</ele><time>2026-05-02T07:17:11.198Z</time></trkpt><trkpt lat="43.7254636" lon="12.8238245"><ele>126.0</ele><time>2026-05-02T07:17:12.199Z</time></trkpt><trkpt lat="43.7254413" lon="12.8236372"><ele>125.0</ele><time>2026-05-02T07:17:13.201Z</time></trkpt><trkpt lat="43.7254203" lon="12.8234466"><ele>124.0</ele><time>2026-05-02T07:17:14.202Z</time></trkpt><trkpt lat="43.7254004" lon="12.8232497"><ele>124.0</ele><time>2026-05-02T07:17:15.205Z</time></trkpt><trkpt lat="43.7253809" lon="12.8230475"><ele>124.0</ele><time>2026-05-02T07:17:16.21Z</time></trkpt><trkpt lat="43.7253656" lon="12.8228431"><ele>124.0</ele><time>2026-05-02T07:17:17.208Z</time></trkpt><trkpt lat="43.7253345" lon="12.8226423"><ele>124.0</ele><time>2026-05-02T07:17:18.205Z</time></trkpt><trkpt lat="43.7253054" lon="12.8224297"><ele>124.33333333333334</ele><time>2026-05-02T07:17:19.203Z</time></trkpt><trkpt lat="43.7252773" lon="12.8222144"><ele>124.66666666666666</ele><time>2026-05-02T07:17:20.202Z</time></trkpt><trkpt lat="43.7252582" lon="12.8219951"><ele>125.0</ele><time>2026-05-02T07:17:21.199Z</time></trkpt><trkpt lat="43.7252392" lon="12.8217828"><ele>121.66666666666666</ele><time>2026-05-02T07:17:22.203Z</time></trkpt><trkpt lat="43.7252166" lon="12.8215687"><ele>118.33333333333334</ele><time>2026-05-02T07:17:23.201Z</time></trkpt><trkpt lat="43.7251871" lon="12.821351"><ele>115.0</ele><time>2026-05-02T07:17:24.206Z</time></trkpt><trkpt lat="43.7251686" lon="12.8211388"><ele>115.66666666666667</ele><time>2026-05-02T07:17:25.202Z</time></trkpt><trkpt lat="43.7251481" lon="12.8209271"><ele>116.33333333333334</ele><time>2026-05-02T07:17:26.196Z</time></trkpt><trkpt lat="43.7251318" lon="12.8207151"><ele>117.0</ele><time>2026-05-02T07:17:27.196Z</time></trkpt><trkpt lat="43.7251175" lon="12.8204968"><ele>117.0</ele><time>2026-05-02T07:17:28.191Z</time></trkpt><trkpt lat="43.7251004" lon="12.8202799"><ele>117.0</ele><time>2026-05-02T07:17:29.203Z</time></trkpt><trkpt lat="43.7250873" lon="12.8200614"><ele>117.0</ele><time>2026-05-02T07:17:30.19Z</time></trkpt><trkpt lat="43.7250789" lon="12.8198443"><ele>117.33333333333334</ele><time>2026-05-02T07:17:31.202Z</time></trkpt><trkpt lat="43.7250712" lon="12.8196267"><ele>117.66666666666667</ele><time>2026-05-02T07:17:32.192Z</time></trkpt><trkpt lat="43.7250582" lon="12.8194034"><ele>118.0</ele><time>2026-05-02T07:17:33.196Z</time></trkpt><trkpt lat="43.7250456" lon="12.819183"><ele>119.0</ele><time>2026-05-02T07:17:34.197Z</time></trkpt><trkpt lat="43.7250335" lon="12.8189653"><ele>120.0</ele><time>2026-05-02T07:17:35.198Z</time></trkpt><trkpt lat="43.7250155" lon="12.818737"><ele>121.0</ele><time>2026-05-02T07:17:36.194Z</time></trkpt><trkpt lat="43.7249995" lon="12.8185226"><ele>121.75</ele><time>2026-05-02T07:17:37.204Z</time></trkpt><trkpt lat="43.7249856" lon="12.8183173"><ele>122.5</ele><time>2026-05-02T07:17:38.199Z</time></trkpt><trkpt lat="43.7249761" lon="12.8181253"><ele>123.25</ele><time>2026-05-02T07:17:39.197Z</time></trkpt><trkpt lat="43.7249676" lon="12.8179398"><ele>124.0</ele><time>2026-05-02T07:17:40.197Z</time></trkpt><trkpt lat="43.7249838" lon="12.8177503"><ele>123.0</ele><time>2026-05-02T07:17:41.198Z</time></trkpt><trkpt lat="43.7250272" lon="12.8175548"><ele>122.0</ele><time>2026-05-02T07:17:42.197Z</time></trkpt><trkpt lat="43.7250896" lon="12.8173643"><ele>121.0</ele><time>2026-05-02T07:17:43.196Z</time></trkpt><trkpt lat="43.7251577" lon="12.8171783"><ele>122.66666666666667</ele><time>2026-05-02T07:17:44.197Z</time></trkpt><trkpt lat="43.7252394" lon="12.8169889"><ele>124.33333333333334</ele><time>2026-05-02T07:17:45.195Z</time></trkpt><trkpt lat="43.7253157" lon="12.8167907"><ele>126.0</ele><time>2026-05-02T07:17:46.199Z</time></trkpt><trkpt lat="43.7253881" lon="12.8165875"><ele>126.0</ele><time>2026-05-02T07:17:47.197Z</time></trkpt><trkpt lat="43.7254635" lon="12.8163908"><ele>126.0</ele><time>2026-05-02T07:17:48.206Z</time></trkpt><trkpt lat="43.72552" lon="12.8161815"><ele>126.0</ele><time>2026-05-02T07:17:49.199Z</time></trkpt><trkpt lat="43.7255822" lon="12.8159758"><ele>125.66666666666666</ele><time>2026-05-02T07:17:50.2Z</time></trkpt><trkpt lat="43.725643" lon="12.8157613"><ele>125.33333333333333</ele><time>2026-05-02T07:17:51.198Z</time></trkpt><trkpt lat="43.7257071" lon="12.8155622"><ele>125.0</ele><time>2026-05-02T07:17:52.199Z</time></trkpt><trkpt lat="43.7257869" lon="12.8153745"><ele>125.0</ele><time>2026-05-02T07:17:53.206Z</time></trkpt><trkpt lat="43.7258601" lon="12.8151798"><ele>125.0</ele><time>2026-05-02T07:17:54.201Z</time></trkpt><trkpt lat="43.725932" lon="12.8149793"><ele>125.0</ele><time>2026-05-02T07:17:55.203Z</time></trkpt><trkpt lat="43.7260009" lon="12.8147847"><ele>128.33333333333331</ele><time>2026-05-02T07:17:56.202Z</time></trkpt><trkpt lat="43.7260641" lon="12.8145891"><ele>131.66666666666666</ele><time>2026-05-02T07:17:57.2Z</time></trkpt><trkpt lat="43.7261264" lon="12.8143956"><ele>135.0</ele><time>2026-05-02T07:17:58.199Z</time></trkpt><trkpt lat="43.7261861" lon="12.8141955"><ele>135.0</ele><time>2026-05-02T07:17:59.199Z</time></trkpt><trkpt lat="43.7262494" lon="12.8140059"><ele>135.0</ele><time>2026-05-02T07:18:00.2Z</time></trkpt><trkpt lat="43.7263079" lon="12.813816"><ele>135.0</ele><time>2026-05-02T07:18:01.202Z</time></trkpt><trkpt lat="43.7263514" lon="12.8136149"><ele>134.0</ele><time>2026-05-02T07:18:02.208Z</time></trkpt><trkpt lat="43.7263763" lon="12.8134083"><ele>133.0</ele><time>2026-05-02T07:18:03.201Z</time></trkpt><trkpt lat="43.7264083" lon="12.813206"><ele>132.0</ele><time>2026-05-02T07:18:04.204Z</time></trkpt><trkpt lat="43.7264364" lon="12.8130139"><ele>131.0</ele><time>2026-05-02T07:18:05.202Z</time></trkpt><trkpt lat="43.7264615" lon="12.8128137"><ele>131.0</ele><time>2026-05-02T07:18:06.198Z</time></trkpt><trkpt lat="43.7264831" lon="12.8126075"><ele>131.0</ele><time>2026-05-02T07:18:07.19Z</time></trkpt><trkpt lat="43.7265098" lon="12.8124035"><ele>131.0</ele><time>2026-05-02T07:18:08.204Z</time></trkpt><trkpt lat="43.7265374" lon="12.8121996"><ele>131.0</ele><time>2026-05-02T07:18:09.202Z</time></trkpt><trkpt lat="43.7265699" lon="12.8120061"><ele>131.0</ele><time>2026-05-02T07:18:10.205Z</time></trkpt><trkpt lat="43.7266031" lon="12.8118184"><ele>131.0</ele><time>2026-05-02T07:18:11.202Z</time></trkpt><trkpt lat="43.7266334" lon="12.8116271"><ele>131.0</ele><time>2026-05-02T07:18:12.204Z</time></trkpt><trkpt lat="43.7266617" lon="12.8114426"><ele>130.0</ele><time>2026-05-02T07:18:13.204Z</time></trkpt><trkpt lat="43.7266918" lon="12.8112378"><ele>129.0</ele><time>2026-05-02T07:18:14.198Z</time></trkpt><trkpt lat="43.7267246" lon="12.8110261"><ele>128.0</ele><time>2026-05-02T07:18:15.204Z</time></trkpt><trkpt lat="43.7267637" lon="12.8108193"><ele>127.75</ele><time>2026-05-02T07:18:16.197Z</time></trkpt><trkpt lat="43.7267984" lon="12.8106208"><ele>127.5</ele><time>2026-05-02T07:18:17.198Z</time></trkpt><trkpt lat="43.7268331" lon="12.8104481"><ele>127.25</ele><time>2026-05-02T07:18:18.192Z</time></trkpt><trkpt lat="43.7268544" lon="12.8103075"><ele>127.0</ele><time>2026-05-02T07:18:19.196Z</time></trkpt><trkpt lat="43.7268811" lon="12.8101905"><ele>126.8</ele><time>2026-05-02T07:18:20.197Z</time></trkpt><trkpt lat="43.7268951" lon="12.8100811"><ele>126.6</ele><time>2026-05-02T07:18:21.194Z</time></trkpt><trkpt lat="43.7269014" lon="12.8099299"><ele>126.39999999999999</ele><time>2026-05-02T07:18:23.192Z</time></trkpt><trkpt lat="43.7268226" lon="12.8098604"><ele>126.19999999999999</ele><time>2026-05-02T07:18:25.199Z</time></trkpt><trkpt lat="43.7267203" lon="12.8098633"><ele>126.0</ele><time>2026-05-02T07:18:26.202Z</time></trkpt><trkpt lat="43.7266021" lon="12.8098324"><ele>126.0</ele><time>2026-05-02T07:18:27.193Z</time></trkpt><trkpt lat="43.7264784" lon="12.8097819"><ele>126.0</ele><time>2026-05-02T07:18:28.203Z</time></trkpt><trkpt lat="43.7263656" lon="12.8097345"><ele>126.0</ele><time>2026-05-02T07:18:29.196Z</time></trkpt><trkpt lat="43.7262651" lon="12.809683"><ele>126.0</ele><time>2026-05-02T07:18:30.195Z</time></trkpt><trkpt lat="43.7261934" lon="12.8096269"><ele>126.0</ele><time>2026-05-02T07:18:31.196Z</time></trkpt><trkpt lat="43.7261402" lon="12.8095569"><ele>126.0</ele><time>2026-05-02T07:18:32.2Z</time></trkpt><trkpt lat="43.7261256" lon="12.8094717"><ele>126.0</ele><time>2026-05-02T07:18:33.206Z</time></trkpt><trkpt lat="43.7261448" lon="12.8093798"><ele>126.0</ele><time>2026-05-02T07:18:34.2Z</time></trkpt><trkpt lat="43.7261958" lon="12.8092717"><ele>126.0</ele><time>2026-05-02T07:18:35.196Z</time></trkpt><trkpt lat="43.7262507" lon="12.8091527"><ele>126.0</ele><time>2026-05-02T07:18:36.197Z</time></trkpt><trkpt lat="43.7262853" lon="12.8090162"><ele>126.0</ele><time>2026-05-02T07:18:37.198Z</time></trkpt><trkpt lat="43.726283" lon="12.8088765"><ele>125.8</ele><time>2026-05-02T07:18:38.192Z</time></trkpt><trkpt lat="43.7262353" lon="12.8087453"><ele>125.6</ele><time>2026-05-02T07:18:39.196Z</time></trkpt><trkpt lat="43.7261596" lon="12.8086468"><ele>125.4</ele><time>2026-05-02T07:18:40.194Z</time></trkpt><trkpt lat="43.726062" lon="12.8085927"><ele>125.2</ele><time>2026-05-02T07:18:41.197Z</time></trkpt><trkpt lat="43.7259569" lon="12.8085868"><ele>125.0</ele><time>2026-05-02T07:18:42.197Z</time></trkpt><trkpt lat="43.7258427" lon="12.8085867"><ele>125.75</ele><time>2026-05-02T07:18:43.197Z</time></trkpt><trkpt lat="43.7257202" lon="12.8085672"><ele>126.5</ele><time>2026-05-02T07:18:44.198Z</time></trkpt><trkpt lat="43.7255821" lon="12.8085465"><ele>127.25</ele><time>2026-05-02T07:18:45.201Z</time></trkpt><trkpt lat="43.7254508" lon="12.8085395"><ele>128.0</ele><time>2026-05-02T07:18:46.205Z</time></trkpt><trkpt lat="43.7253285" lon="12.8085755"><ele>128.0</ele><time>2026-05-02T07:18:47.199Z</time></trkpt><trkpt lat="43.7252318" lon="12.8086734"><ele>128.0</ele><time>2026-05-02T07:18:48.201Z</time></trkpt><trkpt lat="43.7251557" lon="12.8088071"><ele>128.0</ele><time>2026-05-02T07:18:49.192Z</time></trkpt><trkpt lat="43.7250879" lon="12.8089437"><ele>128.0</ele><time>2026-05-02T07:18:50.199Z</time></trkpt><trkpt lat="43.7250239" lon="12.8090884"><ele>132.5</ele><time>2026-05-02T07:18:51.195Z</time></trkpt><trkpt lat="43.7249696" lon="12.8092467"><ele>137.0</ele><time>2026-05-02T07:18:52.193Z</time></trkpt><trkpt lat="43.7249285" lon="12.8094078"><ele>141.5</ele><time>2026-05-02T07:18:53.194Z</time></trkpt><trkpt lat="43.7248926" lon="12.8095689"><ele>146.0</ele><time>2026-05-02T07:18:54.198Z</time></trkpt><trkpt lat="43.7248417" lon="12.8097124"><ele>146.0</ele><time>2026-05-02T07:18:55.204Z</time></trkpt><trkpt lat="43.724789" lon="12.8098176"><ele>146.0</ele><time>2026-05-02T07:18:56.209Z</time></trkpt><trkpt lat="43.724721" lon="12.8098633"><ele>146.0</ele><time>2026-05-02T07:18:57.206Z</time></trkpt><trkpt lat="43.7246398" lon="12.8098334"><ele>146.0</ele><time>2026-05-02T07:18:58.209Z</time></trkpt><trkpt lat="43.724582" lon="12.809739"><ele>146.0</ele><time>2026-05-02T07:18:59.207Z</time></trkpt><trkpt lat="43.7245532" lon="12.8096052"><ele>146.0</ele><time>2026-05-02T07:19:00.196Z</time></trkpt><trkpt lat="43.724536" lon="12.8094675"><ele>146.0</ele><time>2026-05-02T07:19:01.202Z</time></trkpt><trkpt lat="43.7245193" lon="12.8093306"><ele>146.0</ele><time>2026-05-02T07:19:02.197Z</time></trkpt><trkpt lat="43.7244958" lon="12.8091958"><ele>146.0</ele><time>2026-05-02T07:19:03.199Z</time></trkpt><trkpt lat="43.7244702" lon="12.8090561"><ele>146.0</ele><time>2026-05-02T07:19:04.206Z</time></trkpt><trkpt lat="43.7244513" lon="12.808924"><ele>146.0</ele><time>2026-05-02T07:19:05.2Z</time></trkpt><trkpt lat="43.7244309" lon="12.8087989"><ele>146.4</ele><time>2026-05-02T07:19:06.196Z</time></trkpt><trkpt lat="43.7244037" lon="12.8086926"><ele>146.8</ele><time>2026-05-02T07:19:07.201Z</time></trkpt><trkpt lat="43.7243547" lon="12.808612"><ele>147.20000000000002</ele><time>2026-05-02T07:19:08.197Z</time></trkpt><trkpt lat="43.724287" lon="12.8085301"><ele>147.6</ele><time>2026-05-02T07:19:09.203Z</time></trkpt><trkpt lat="43.7241936" lon="12.8084543"><ele>148.0</ele><time>2026-05-02T07:19:10.195Z</time></trkpt><trkpt lat="43.7240822" lon="12.8083918"><ele>154.5</ele><time>2026-05-02T07:19:11.199Z</time></trkpt><trkpt lat="43.7239661" lon="12.8083485"><ele>161.0</ele><time>2026-05-02T07:19:12.203Z</time></trkpt><trkpt lat="43.723842" lon="12.8083433"><ele>167.5</ele><time>2026-05-02T07:19:13.195Z</time></trkpt><trkpt lat="43.7237124" lon="12.8083539"><ele>174.0</ele><time>2026-05-02T07:19:14.202Z</time></trkpt><trkpt lat="43.7235756" lon="12.8083646"><ele>177.75</ele><time>2026-05-02T07:19:15.2Z</time></trkpt><trkpt lat="43.7234519" lon="12.8083481"><ele>181.5</ele><time>2026-05-02T07:19:16.199Z</time></trkpt><trkpt lat="43.7233203" lon="12.8082998"><ele>185.25</ele><time>2026-05-02T07:19:17.207Z</time></trkpt><trkpt lat="43.7231832" lon="12.8082282"><ele>189.0</ele><time>2026-05-02T07:19:18.202Z</time></trkpt><trkpt lat="43.7230449" lon="12.808131"><ele>189.0</ele><time>2026-05-02T07:19:19.207Z</time></trkpt><trkpt lat="43.7229097" lon="12.8080476"><ele>189.0</ele><time>2026-05-02T07:19:20.211Z</time></trkpt><trkpt lat="43.7227788" lon="12.8079825"><ele>189.0</ele><time>2026-05-02T07:19:21.212Z</time></trkpt><trkpt lat="43.7226532" lon="12.8079231"><ele>189.0</ele><time>2026-05-02T07:19:22.207Z</time></trkpt><trkpt lat="43.722529" lon="12.8078724"><ele>193.5</ele><time>2026-05-02T07:19:23.213Z</time></trkpt><trkpt lat="43.7224086" lon="12.80783"><ele>198.0</ele><time>2026-05-02T07:19:24.202Z</time></trkpt><trkpt lat="43.7223009" lon="12.8077817"><ele>202.5</ele><time>2026-05-02T07:19:25.206Z</time></trkpt><trkpt lat="43.7221821" lon="12.807735"><ele>207.0</ele><time>2026-05-02T07:19:26.208Z</time></trkpt><trkpt lat="43.7220768" lon="12.8076884"><ele>206.2</ele><time>2026-05-02T07:19:27.208Z</time></trkpt><trkpt lat="43.7219944" lon="12.8076293"><ele>205.39999999999998</ele><time>2026-05-02T07:19:28.21Z</time></trkpt><trkpt lat="43.7219321" lon="12.8075366"><ele>204.60000000000002</ele><time>2026-05-02T07:19:29.211Z</time></trkpt><trkpt lat="43.7218867" lon="12.8074139"><ele>203.8</ele><time>2026-05-02T07:19:30.204Z</time></trkpt><trkpt lat="43.7218215" lon="12.8072884"><ele>203.0</ele><time>2026-05-02T07:19:31.206Z</time></trkpt><trkpt lat="43.7217532" lon="12.8071825"><ele>208.2</ele><time>2026-05-02T07:19:32.194Z</time></trkpt><trkpt lat="43.7216824" lon="12.8070931"><ele>213.4</ele><time>2026-05-02T07:19:33.205Z</time></trkpt><trkpt lat="43.7216057" lon="12.8070325"><ele>218.59999999999997</ele><time>2026-05-02T07:19:34.208Z</time></trkpt><trkpt lat="43.721521" lon="12.8070077"><ele>223.79999999999998</ele><time>2026-05-02T07:19:35.214Z</time></trkpt><trkpt lat="43.7214238" lon="12.8070278"><ele>229.0</ele><time>2026-05-02T07:19:36.21Z</time></trkpt><trkpt lat="43.7213291" lon="12.8070923"><ele>229.0</ele><time>2026-05-02T07:19:37.198Z</time></trkpt><trkpt lat="43.7212438" lon="12.807176"><ele>228.99999999999997</ele><time>2026-05-02T07:19:38.2Z</time></trkpt><trkpt lat="43.7211543" lon="12.8072837"><ele>228.99999999999997</ele><time>2026-05-02T07:19:39.199Z</time></trkpt><trkpt lat="43.7210655" lon="12.8073746"><ele>229.0</ele><time>2026-05-02T07:19:40.196Z</time></trkpt><trkpt lat="43.7209746" lon="12.8074325"><ele>229.0</ele><time>2026-05-02T07:19:41.202Z</time></trkpt><trkpt lat="43.7208847" lon="12.8074333"><ele>230.0</ele><time>2026-05-02T07:19:42.205Z</time></trkpt><trkpt lat="43.7207995" lon="12.8073846"><ele>230.99999999999997</ele><time>2026-05-02T07:19:43.209Z</time></trkpt><trkpt lat="43.720721" lon="12.8073026"><ele>231.99999999999997</ele><time>2026-05-02T07:19:44.202Z</time></trkpt><trkpt lat="43.7206509" lon="12.8072035"><ele>233.0</ele><time>2026-05-02T07:19:45.218Z</time></trkpt><trkpt lat="43.7205967" lon="12.8071034"><ele>234.0</ele><time>2026-05-02T07:19:46.206Z</time></trkpt><trkpt lat="43.7205392" lon="12.8069944"><ele>234.0</ele><time>2026-05-02T07:19:47.205Z</time></trkpt><trkpt lat="43.7205014" lon="12.8068653"><ele>234.0</ele><time>2026-05-02T07:19:48.209Z</time></trkpt><trkpt lat="43.7204764" lon="12.8067146"><ele>234.0</ele><time>2026-05-02T07:19:49.209Z</time></trkpt><trkpt lat="43.7204477" lon="12.8065519"><ele>234.0</ele><time>2026-05-02T07:19:50.213Z</time></trkpt><trkpt lat="43.7204203" lon="12.8063854"><ele>232.75</ele><time>2026-05-02T07:19:51.207Z</time></trkpt><trkpt lat="43.7203916" lon="12.8062177"><ele>231.5</ele><time>2026-05-02T07:19:52.214Z</time></trkpt><trkpt lat="43.7203614" lon="12.8060494"><ele>230.25</ele><time>2026-05-02T07:19:53.209Z</time></trkpt><trkpt lat="43.7203242" lon="12.8058802"><ele>229.0</ele><time>2026-05-02T07:19:54.204Z</time></trkpt><trkpt lat="43.7202912" lon="12.8057165"><ele>229.75</ele><time>2026-05-02T07:19:55.209Z</time></trkpt><trkpt lat="43.7202631" lon="12.8055514"><ele>230.5</ele><time>2026-05-02T07:19:56.211Z</time></trkpt><trkpt lat="43.7202374" lon="12.8053779"><ele>231.25</ele><time>2026-05-02T07:19:57.212Z</time></trkpt><trkpt lat="43.720218" lon="12.8051994"><ele>232.0</ele><time>2026-05-02T07:19:58.214Z</time></trkpt><trkpt lat="43.7202024" lon="12.8050234"><ele>233.6</ele><time>2026-05-02T07:19:59.212Z</time></trkpt><trkpt lat="43.7201877" lon="12.8048619"><ele>235.2</ele><time>2026-05-02T07:20:00.207Z</time></trkpt><trkpt lat="43.720175" lon="12.8047278"><ele>236.8</ele><time>2026-05-02T07:20:01.209Z</time></trkpt><trkpt lat="43.7201549" lon="12.8046"><ele>238.4</ele><time>2026-05-02T07:20:02.208Z</time></trkpt><trkpt lat="43.7201181" lon="12.8044855"><ele>240.0</ele><time>2026-05-02T07:20:03.216Z</time></trkpt><trkpt lat="43.7200659" lon="12.8043955"><ele>240.0</ele><time>2026-05-02T07:20:04.214Z</time></trkpt><trkpt lat="43.7199982" lon="12.8043562"><ele>240.0</ele><time>2026-05-02T07:20:05.209Z</time></trkpt><trkpt lat="43.7199214" lon="12.8043435"><ele>240.0</ele><time>2026-05-02T07:20:06.21Z</time></trkpt><trkpt lat="43.7198295" lon="12.8043363"><ele>240.0</ele><time>2026-05-02T07:20:07.198Z</time></trkpt><trkpt lat="43.7197165" lon="12.8043351"><ele>240.0</ele><time>2026-05-02T07:20:08.197Z</time></trkpt><trkpt lat="43.7195896" lon="12.8043305"><ele>239.5</ele><time>2026-05-02T07:20:09.194Z</time></trkpt><trkpt lat="43.7194529" lon="12.8043136"><ele>239.0</ele><time>2026-05-02T07:20:10.194Z</time></trkpt><trkpt lat="43.7193126" lon="12.8042963"><ele>238.5</ele><time>2026-05-02T07:20:11.194Z</time></trkpt><trkpt lat="43.7191812" lon="12.8042738"><ele>238.0</ele><time>2026-05-02T07:20:12.2Z</time></trkpt><trkpt lat="43.7190609" lon="12.8042516"><ele>239.5</ele><time>2026-05-02T07:20:13.201Z</time></trkpt><trkpt lat="43.7189468" lon="12.804225"><ele>241.0</ele><time>2026-05-02T07:20:14.201Z</time></trkpt><trkpt lat="43.7188335" lon="12.8041769"><ele>242.5</ele><time>2026-05-02T07:20:15.21Z</time></trkpt><trkpt lat="43.7187218" lon="12.8041167"><ele>244.0</ele><time>2026-05-02T07:20:16.206Z</time></trkpt><trkpt lat="43.7186187" lon="12.8040503"><ele>244.6</ele><time>2026-05-02T07:20:17.207Z</time></trkpt><trkpt lat="43.7185212" lon="12.8039781"><ele>245.2</ele><time>2026-05-02T07:20:18.207Z</time></trkpt><trkpt lat="43.7184309" lon="12.8038908"><ele>245.79999999999998</ele><time>2026-05-02T07:20:19.21Z</time></trkpt><trkpt lat="43.7183491" lon="12.8038001"><ele>246.39999999999998</ele><time>2026-05-02T07:20:20.201Z</time></trkpt><trkpt lat="43.7182831" lon="12.8037113"><ele>247.0</ele><time>2026-05-02T07:20:21.199Z</time></trkpt><trkpt lat="43.7182325" lon="12.8036139"><ele>247.0</ele><time>2026-05-02T07:20:22.208Z</time></trkpt><trkpt lat="43.7181999" lon="12.8035081"><ele>247.0</ele><time>2026-05-02T07:20:23.202Z</time></trkpt><trkpt lat="43.7181719" lon="12.803376"><ele>247.0</ele><time>2026-05-02T07:20:24.196Z</time></trkpt><trkpt lat="43.7181411" lon="12.8032184"><ele>247.0</ele><time>2026-05-02T07:20:25.198Z</time></trkpt><trkpt lat="43.7181008" lon="12.8030383"><ele>247.0</ele><time>2026-05-02T07:20:26.198Z</time></trkpt><trkpt lat="43.7180633" lon="12.802843"><ele>248.25</ele><time>2026-05-02T07:20:27.202Z</time></trkpt><trkpt lat="43.7180215" lon="12.8026481"><ele>249.5</ele><time>2026-05-02T07:20:28.206Z</time></trkpt><trkpt lat="43.7179841" lon="12.8024466"><ele>250.75</ele><time>2026-05-02T07:20:29.209Z</time></trkpt><trkpt lat="43.7179415" lon="12.8022463"><ele>252.0</ele><time>2026-05-02T07:20:30.207Z</time></trkpt><trkpt lat="43.7179035" lon="12.8020792"><ele>252.0</ele><time>2026-05-02T07:20:31.215Z</time></trkpt><trkpt lat="43.7178563" lon="12.8019035"><ele>252.0</ele><time>2026-05-02T07:20:32.21Z</time></trkpt><trkpt lat="43.7178087" lon="12.8017364"><ele>252.0</ele><time>2026-05-02T07:20:33.206Z</time></trkpt><trkpt lat="43.7177722" lon="12.8015854"><ele>252.0</ele><time>2026-05-02T07:20:34.213Z</time></trkpt><trkpt lat="43.717738" lon="12.8014473"><ele>251.8</ele><time>2026-05-02T07:20:35.211Z</time></trkpt><trkpt lat="43.717715" lon="12.8013147"><ele>251.6</ele><time>2026-05-02T07:20:36.21Z</time></trkpt><trkpt lat="43.7177122" lon="12.8011898"><ele>251.40000000000003</ele><time>2026-05-02T07:20:37.209Z</time></trkpt><trkpt lat="43.7177266" lon="12.8010631"><ele>251.20000000000002</ele><time>2026-05-02T07:20:38.206Z</time></trkpt><trkpt lat="43.7177396" lon="12.8009358"><ele>251.0</ele><time>2026-05-02T07:20:39.203Z</time></trkpt><trkpt lat="43.7177344" lon="12.8008098"><ele>252.4</ele><time>2026-05-02T07:20:40.209Z</time></trkpt><trkpt lat="43.7177109" lon="12.8006866"><ele>253.8</ele><time>2026-05-02T07:20:41.209Z</time></trkpt><trkpt lat="43.7176745" lon="12.8005638"><ele>255.20000000000002</ele><time>2026-05-02T07:20:42.212Z</time></trkpt><trkpt lat="43.7176246" lon="12.8004477"><ele>256.6</ele><time>2026-05-02T07:20:43.211Z</time></trkpt><trkpt lat="43.717558" lon="12.8003498"><ele>258.0</ele><time>2026-05-02T07:20:44.208Z</time></trkpt><trkpt lat="43.7174799" lon="12.8002677"><ele>258.0</ele><time>2026-05-02T07:20:45.212Z</time></trkpt><trkpt lat="43.7173912" lon="12.8001845"><ele>258.0</ele><time>2026-05-02T07:20:46.214Z</time></trkpt><trkpt lat="43.7172968" lon="12.8000967"><ele>258.0</ele><time>2026-05-02T07:20:47.203Z</time></trkpt><trkpt lat="43.71721" lon="12.8000104"><ele>258.0</ele><time>2026-05-02T07:20:48.208Z</time></trkpt><trkpt lat="43.717129" lon="12.7999224"><ele>258.0</ele><time>2026-05-02T07:20:49.202Z</time></trkpt><trkpt lat="43.7170617" lon="12.799827"><ele>258.0</ele><time>2026-05-02T07:20:50.208Z</time></trkpt><trkpt lat="43.7170129" lon="12.799714"><ele>258.0</ele><time>2026-05-02T07:20:51.216Z</time></trkpt><trkpt lat="43.7170013" lon="12.7995821"><ele>258.0</ele><time>2026-05-02T07:20:52.213Z</time></trkpt><trkpt lat="43.7170117" lon="12.7994203"><ele>258.0</ele><time>2026-05-02T07:20:53.205Z</time></trkpt><trkpt lat="43.7170209" lon="12.7992446"><ele>258.0</ele><time>2026-05-02T07:20:54.213Z</time></trkpt><trkpt lat="43.7170214" lon="12.7990567"><ele>257.75</ele><time>2026-05-02T07:20:55.208Z</time></trkpt><trkpt lat="43.7170177" lon="12.798865"><ele>257.5</ele><time>2026-05-02T07:20:56.213Z</time></trkpt><trkpt lat="43.7170098" lon="12.7986737"><ele>257.25</ele><time>2026-05-02T07:20:57.202Z</time></trkpt><trkpt lat="43.7169912" lon="12.7984903"><ele>257.0</ele><time>2026-05-02T07:20:58.213Z</time></trkpt><trkpt lat="43.7169484" lon="12.7983267"><ele>259.4</ele><time>2026-05-02T07:20:59.206Z</time></trkpt><trkpt lat="43.7168997" lon="12.7981796"><ele>261.79999999999995</ele><time>2026-05-02T07:21:00.209Z</time></trkpt><trkpt lat="43.7168479" lon="12.7980512"><ele>264.2</ele><time>2026-05-02T07:21:01.203Z</time></trkpt><trkpt lat="43.7168" lon="12.7979355"><ele>266.59999999999997</ele><time>2026-05-02T07:21:02.207Z</time></trkpt><trkpt lat="43.7167474" lon="12.7978258"><ele>269.0</ele><time>2026-05-02T07:21:03.206Z</time></trkpt><trkpt lat="43.716691" lon="12.7977248"><ele>269.2</ele><time>2026-05-02T07:21:04.208Z</time></trkpt><trkpt lat="43.7166282" lon="12.797629"><ele>269.4</ele><time>2026-05-02T07:21:05.201Z</time></trkpt><trkpt lat="43.7165616" lon="12.7975313"><ele>269.6</ele><time>2026-05-02T07:21:06.207Z</time></trkpt><trkpt lat="43.7164863" lon="12.7974352"><ele>269.8</ele><time>2026-05-02T07:21:07.2Z</time></trkpt><trkpt lat="43.7163958" lon="12.7973343"><ele>270.0</ele><time>2026-05-02T07:21:08.199Z</time></trkpt><trkpt lat="43.7163048" lon="12.797247"><ele>270.0</ele><time>2026-05-02T07:21:09.195Z</time></trkpt><trkpt lat="43.7162252" lon="12.7971602"><ele>270.0</ele><time>2026-05-02T07:21:10.202Z</time></trkpt><trkpt lat="43.7161602" lon="12.7970695"><ele>270.0</ele><time>2026-05-02T07:21:11.191Z</time></trkpt><trkpt lat="43.7161149" lon="12.7969698"><ele>270.0</ele><time>2026-05-02T07:21:12.198Z</time></trkpt><trkpt lat="43.7160976" lon="12.7968588"><ele>270.0</ele><time>2026-05-02T07:21:13.199Z</time></trkpt><trkpt lat="43.7161149" lon="12.7967337"><ele>271.2</ele><time>2026-05-02T07:21:14.193Z</time></trkpt><trkpt lat="43.7161396" lon="12.7965933"><ele>272.4</ele><time>2026-05-02T07:21:15.196Z</time></trkpt><trkpt lat="43.7161577" lon="12.7964443"><ele>273.6</ele><time>2026-05-02T07:21:16.204Z</time></trkpt><trkpt lat="43.7161703" lon="12.7962933"><ele>274.8</ele><time>2026-05-02T07:21:17.205Z</time></trkpt><trkpt lat="43.7161782" lon="12.7961454"><ele>276.0</ele><time>2026-05-02T07:21:18.204Z</time></trkpt><trkpt lat="43.7161844" lon="12.7959942"><ele>278.0</ele><time>2026-05-02T07:21:19.201Z</time></trkpt><trkpt lat="43.716189" lon="12.7958365"><ele>280.0</ele><time>2026-05-02T07:21:20.204Z</time></trkpt><trkpt lat="43.7161842" lon="12.7956825"><ele>282.0</ele><time>2026-05-02T07:21:21.199Z</time></trkpt><trkpt lat="43.7161771" lon="12.7955318"><ele>284.0</ele><time>2026-05-02T07:21:22.197Z</time></trkpt><trkpt lat="43.7161799" lon="12.7953848"><ele>286.0</ele><time>2026-05-02T07:21:23.203Z</time></trkpt><trkpt lat="43.7161921" lon="12.7952414"><ele>288.40000000000003</ele><time>2026-05-02T07:21:24.204Z</time></trkpt><trkpt lat="43.7162202" lon="12.7950877"><ele>290.8</ele><time>2026-05-02T07:21:25.21Z</time></trkpt><trkpt lat="43.7162455" lon="12.7949373"><ele>293.20000000000005</ele><time>2026-05-02T07:21:26.205Z</time></trkpt><trkpt lat="43.716251" lon="12.7947926"><ele>295.6</ele><time>2026-05-02T07:21:27.212Z</time></trkpt><trkpt lat="43.7162227" lon="12.7946717"><ele>298.0</ele><time>2026-05-02T07:21:28.209Z</time></trkpt><trkpt lat="43.7161715" lon="12.7945912"><ele>298.0</ele><time>2026-05-02T07:21:29.199Z</time></trkpt><trkpt lat="43.7161169" lon="12.7944977"><ele>298.0</ele><time>2026-05-02T07:21:30.199Z</time></trkpt><trkpt lat="43.7160796" lon="12.7943893"><ele>298.0</ele><time>2026-05-02T07:21:31.206Z</time></trkpt><trkpt lat="43.7160876" lon="12.7942635"><ele>298.0</ele><time>2026-05-02T07:21:32.199Z</time></trkpt><trkpt lat="43.7161287" lon="12.7941161"><ele>298.0</ele><time>2026-05-02T07:21:33.207Z</time></trkpt><trkpt lat="43.7161629" lon="12.7939532"><ele>302.0</ele><time>2026-05-02T07:21:34.21Z</time></trkpt><trkpt lat="43.7161864" lon="12.7937764"><ele>306.0</ele><time>2026-05-02T07:21:35.206Z</time></trkpt><trkpt lat="43.7162065" lon="12.7935819"><ele>310.0</ele><time>2026-05-02T07:21:36.211Z</time></trkpt><trkpt lat="43.7162171" lon="12.7934004"><ele>314.0</ele><time>2026-05-02T07:21:37.215Z</time></trkpt><trkpt lat="43.7162246" lon="12.7932644"><ele>316.0</ele><time>2026-05-02T07:21:38.208Z</time></trkpt><trkpt lat="43.7162287" lon="12.7931685"><ele>318.0</ele><time>2026-05-02T07:21:39.219Z</time></trkpt><trkpt lat="43.7161789" lon="12.7930705"><ele>320.0</ele><time>2026-05-02T07:21:41.204Z</time></trkpt><trkpt lat="43.7160902" lon="12.7931934"><ele>322.0</ele><time>2026-05-02T07:21:43.199Z</time></trkpt><trkpt lat="43.7160443" lon="12.7932581"><ele>324.0</ele><time>2026-05-02T07:21:44.2Z</time></trkpt><trkpt lat="43.7159683" lon="12.7932199"><ele>326.0</ele><time>2026-05-02T07:21:46.214Z</time></trkpt><trkpt lat="43.7159582" lon="12.7931165"><ele>326.6</ele><time>2026-05-02T07:21:47.208Z</time></trkpt><trkpt lat="43.7159503" lon="12.7929666"><ele>327.20000000000005</ele><time>2026-05-02T07:21:48.201Z</time></trkpt><trkpt lat="43.715945" lon="12.7928182"><ele>327.79999999999995</ele><time>2026-05-02T07:21:49.206Z</time></trkpt><trkpt lat="43.7159493" lon="12.7926668"><ele>328.4</ele><time>2026-05-02T07:21:50.208Z</time></trkpt><trkpt lat="43.7159577" lon="12.7925117"><ele>329.0</ele><time>2026-05-02T07:21:51.209Z</time></trkpt><trkpt lat="43.7159612" lon="12.7923502"><ele>331.6</ele><time>2026-05-02T07:21:52.201Z</time></trkpt><trkpt lat="43.7159494" lon="12.7921989"><ele>334.2</ele><time>2026-05-02T07:21:53.208Z</time></trkpt><trkpt lat="43.7159114" lon="12.7920626"><ele>336.8</ele><time>2026-05-02T07:21:54.208Z</time></trkpt><trkpt lat="43.7158415" lon="12.7919372"><ele>339.40000000000003</ele><time>2026-05-02T07:21:55.206Z</time></trkpt><trkpt lat="43.7157682" lon="12.7918187"><ele>342.0</ele><time>2026-05-02T07:21:56.205Z</time></trkpt><trkpt lat="43.7157198" lon="12.7917003"><ele>345.20000000000005</ele><time>2026-05-02T07:21:57.198Z</time></trkpt><trkpt lat="43.7157053" lon="12.791576"><ele>348.4</ele><time>2026-05-02T07:21:58.203Z</time></trkpt><trkpt lat="43.7156974" lon="12.7914439"><ele>351.6</ele><time>2026-05-02T07:21:59.194Z</time></trkpt><trkpt lat="43.7156813" lon="12.791294"><ele>354.79999999999995</ele><time>2026-05-02T07:22:00.19Z</time></trkpt><trkpt lat="43.7156616" lon="12.7911485"><ele>358.0</ele><time>2026-05-02T07:22:01.2Z</time></trkpt><trkpt lat="43.7156302" lon="12.7909931"><ele>361.25</ele><time>2026-05-02T07:22:02.198Z</time></trkpt><trkpt lat="43.71559" lon="12.7908345"><ele>364.5</ele><time>2026-05-02T07:22:03.199Z</time></trkpt><trkpt lat="43.7155384" lon="12.7906766"><ele>367.75</ele><time>2026-05-02T07:22:04.198Z</time></trkpt><trkpt lat="43.7154725" lon="12.7905121"><ele>371.0</ele><time>2026-05-02T07:22:05.201Z</time></trkpt><trkpt lat="43.7154003" lon="12.7903436"><ele>371.0</ele><time>2026-05-02T07:22:06.2Z</time></trkpt><trkpt lat="43.7153304" lon="12.7901682"><ele>371.0</ele><time>2026-05-02T07:22:07.203Z</time></trkpt><trkpt lat="43.7152532" lon="12.7899845"><ele>371.0</ele><time>2026-05-02T07:22:08.214Z</time></trkpt><trkpt lat="43.7151632" lon="12.7898065"><ele>372.33333333333337</ele><time>2026-05-02T07:22:09.214Z</time></trkpt><trkpt lat="43.7150756" lon="12.789638"><ele>373.6666666666667</ele><time>2026-05-02T07:22:10.219Z</time></trkpt><trkpt lat="43.714984" lon="12.7894629"><ele>375.0</ele><time>2026-05-02T07:22:11.211Z</time></trkpt><trkpt lat="43.714883" lon="12.7892923"><ele>377.3333333333333</ele><time>2026-05-02T07:22:12.216Z</time></trkpt><trkpt lat="43.7147884" lon="12.7891157"><ele>379.66666666666663</ele><time>2026-05-02T07:22:13.213Z</time></trkpt><trkpt lat="43.7146831" lon="12.7889284"><ele>382.0</ele><time>2026-05-02T07:22:14.216Z</time></trkpt><trkpt lat="43.7145901" lon="12.7887314"><ele>382.0</ele><time>2026-05-02T07:22:15.208Z</time></trkpt><trkpt lat="43.7145062" lon="12.7885494"><ele>382.0</ele><time>2026-05-02T07:22:16.211Z</time></trkpt><trkpt lat="43.7144261" lon="12.7883776"><ele>382.0</ele><time>2026-05-02T07:22:17.209Z</time></trkpt><trkpt lat="43.7143435" lon="12.7882148"><ele>382.0</ele><time>2026-05-02T07:22:18.21Z</time></trkpt><trkpt lat="43.7142591" lon="12.7880566"><ele>386.0</ele><time>2026-05-02T07:22:19.213Z</time></trkpt><trkpt lat="43.7141884" lon="12.7879132"><ele>390.0</ele><time>2026-05-02T07:22:20.211Z</time></trkpt><trkpt lat="43.7141275" lon="12.7877973"><ele>394.0</ele><time>2026-05-02T07:22:21.209Z</time></trkpt><trkpt lat="43.7140594" lon="12.7876983"><ele>398.0</ele><time>2026-05-02T07:22:22.207Z</time></trkpt><trkpt lat="43.7139595" lon="12.7876067"><ele>402.0</ele><time>2026-05-02T07:22:23.202Z</time></trkpt><trkpt lat="43.7138459" lon="12.7875195"><ele>402.0</ele><time>2026-05-02T07:22:24.2Z</time></trkpt><trkpt lat="43.7137422" lon="12.7874413"><ele>402.0</ele><time>2026-05-02T07:22:25.198Z</time></trkpt><trkpt lat="43.7136574" lon="12.7873908"><ele>402.0</ele><time>2026-05-02T07:22:26.203Z</time></trkpt><trkpt lat="43.7135791" lon="12.7873269"><ele>402.0</ele><time>2026-05-02T07:22:27.196Z</time></trkpt><trkpt lat="43.7134983" lon="12.7872537"><ele>402.0</ele><time>2026-05-02T07:22:28.188Z</time></trkpt><trkpt lat="43.713425" lon="12.7871673"><ele>405.0</ele><time>2026-05-02T07:22:29.195Z</time></trkpt><trkpt lat="43.713361" lon="12.7870594"><ele>408.0</ele><time>2026-05-02T07:22:30.195Z</time></trkpt><trkpt lat="43.713308" lon="12.7869062"><ele>411.0</ele><time>2026-05-02T07:22:31.187Z</time></trkpt><trkpt lat="43.7132654" lon="12.7867344"><ele>414.0</ele><time>2026-05-02T07:22:32.198Z</time></trkpt><trkpt lat="43.7132266" lon="12.7865756"><ele>414.0</ele><time>2026-05-02T07:22:33.187Z</time></trkpt><trkpt lat="43.713181" lon="12.7864318"><ele>414.0</ele><time>2026-05-02T07:22:34.186Z</time></trkpt><trkpt lat="43.7131236" lon="12.7863195"><ele>414.0</ele><time>2026-05-02T07:22:35.187Z</time></trkpt><trkpt lat="43.713052" lon="12.7862191"><ele>414.0</ele><time>2026-05-02T07:22:36.187Z</time></trkpt><trkpt lat="43.712962" lon="12.7861361"><ele>414.0</ele><time>2026-05-02T07:22:37.194Z</time></trkpt><trkpt lat="43.7128585" lon="12.7860628"><ele>414.25</ele><time>2026-05-02T07:22:38.195Z</time></trkpt><trkpt lat="43.7127536" lon="12.7859747"><ele>414.5</ele><time>2026-05-02T07:22:39.199Z</time></trkpt><trkpt lat="43.7126532" lon="12.7858733"><ele>414.75</ele><time>2026-05-02T07:22:40.197Z</time></trkpt><trkpt lat="43.7125587" lon="12.7857654"><ele>415.0</ele><time>2026-05-02T07:22:41.201Z</time></trkpt><trkpt lat="43.7124652" lon="12.7856647"><ele>415.0</ele><time>2026-05-02T07:22:42.192Z</time></trkpt><trkpt lat="43.7123713" lon="12.7855587"><ele>415.0</ele><time>2026-05-02T07:22:43.192Z</time></trkpt><trkpt lat="43.7122824" lon="12.7854471"><ele>415.0</ele><time>2026-05-02T07:22:44.193Z</time></trkpt><trkpt lat="43.7121917" lon="12.7853314"><ele>415.0</ele><time>2026-05-02T07:22:45.191Z</time></trkpt><trkpt lat="43.712104" lon="12.7852122"><ele>416.2</ele><time>2026-05-02T07:22:46.201Z</time></trkpt><trkpt lat="43.7120172" lon="12.7850804"><ele>417.4</ele><time>2026-05-02T07:22:47.199Z</time></trkpt><trkpt lat="43.7119339" lon="12.7849626"><ele>418.6</ele><time>2026-05-02T07:22:48.199Z</time></trkpt><trkpt lat="43.71186" lon="12.7848573"><ele>419.8</ele><time>2026-05-02T07:22:49.192Z</time></trkpt><trkpt lat="43.7117925" lon="12.7847671"><ele>421.0</ele><time>2026-05-02T07:22:50.196Z</time></trkpt><trkpt lat="43.7117208" lon="12.7846928"><ele>421.00000000000006</ele><time>2026-05-02T07:22:51.199Z</time></trkpt><trkpt lat="43.7116425" lon="12.784647"><ele>421.0</ele><time>2026-05-02T07:22:52.196Z</time></trkpt><trkpt lat="43.7115656" lon="12.7846238"><ele>421.0</ele><time>2026-05-02T07:22:53.201Z</time></trkpt><trkpt lat="43.711488" lon="12.7846111"><ele>421.0</ele><time>2026-05-02T07:22:54.198Z</time></trkpt><trkpt lat="43.7114228" lon="12.7845939"><ele>421.00000000000006</ele><time>2026-05-02T07:22:55.195Z</time></trkpt><trkpt lat="43.7113274" lon="12.7845925"><ele>421.0</ele><time>2026-05-02T07:22:57.201Z</time></trkpt><trkpt lat="43.7112658" lon="12.7845742"><ele>421.0</ele><time>2026-05-02T07:22:59.2Z</time></trkpt><trkpt lat="43.7111951" lon="12.7844927"><ele>421.0</ele><time>2026-05-02T07:23:40.195Z</time></trkpt><trkpt lat="43.7111181" lon="12.784361"><ele>421.0</ele><time>2026-05-02T07:23:42.194Z</time></trkpt><trkpt lat="43.7110613" lon="12.7842851"><ele>421.0</ele><time>2026-05-02T07:23:43.193Z</time></trkpt><trkpt lat="43.7110046" lon="12.7842"><ele>421.0</ele><time>2026-05-02T07:23:44.192Z</time></trkpt><trkpt lat="43.7109553" lon="12.7841156"><ele>421.6666666666667</ele><time>2026-05-02T07:23:45.197Z</time></trkpt><trkpt lat="43.7109059" lon="12.7840223"><ele>422.33333333333337</ele><time>2026-05-02T07:23:46.186Z</time></trkpt><trkpt lat="43.7108501" lon="12.7839308"><ele>423.0</ele><time>2026-05-02T07:23:47.194Z</time></trkpt><trkpt lat="43.7107948" lon="12.7838526"><ele>423.66666666666663</ele><time>2026-05-02T07:23:48.194Z</time></trkpt><trkpt lat="43.7107413" lon="12.7837781"><ele>424.3333333333333</ele><time>2026-05-02T07:23:49.191Z</time></trkpt><trkpt lat="43.7106916" lon="12.7837128"><ele>425.0</ele><time>2026-05-02T07:23:50.196Z</time></trkpt><trkpt lat="43.7106264" lon="12.7835803"><ele>424.7142857142857</ele><time>2026-05-02T07:23:52.209Z</time></trkpt><trkpt lat="43.7105755" lon="12.783436"><ele>424.42857142857144</ele><time>2026-05-02T07:23:54.203Z</time></trkpt><trkpt lat="43.7105597" lon="12.7833511"><ele>424.1428571428571</ele><time>2026-05-02T07:23:55.2Z</time></trkpt><trkpt lat="43.7105498" lon="12.783262"><ele>423.8571428571429</ele><time>2026-05-02T07:23:56.208Z</time></trkpt><trkpt lat="43.7105394" lon="12.7831752"><ele>423.5714285714286</ele><time>2026-05-02T07:23:57.203Z</time></trkpt><trkpt lat="43.7105232" lon="12.7830904"><ele>423.2857142857143</ele><time>2026-05-02T07:23:58.208Z</time></trkpt><trkpt lat="43.7104905" lon="12.7830077"><ele>423.0</ele><time>2026-05-02T07:23:59.206Z</time></trkpt><trkpt lat="43.7104443" lon="12.7829245"><ele>423.0</ele><time>2026-05-02T07:24:00.208Z</time></trkpt><trkpt lat="43.7103918" lon="12.7828327"><ele>423.0</ele><time>2026-05-02T07:24:01.211Z</time></trkpt><trkpt lat="43.7103354" lon="12.7827361"><ele>423.0</ele><time>2026-05-02T07:24:02.203Z</time></trkpt><trkpt lat="43.7102829" lon="12.782642"><ele>423.0</ele><time>2026-05-02T07:24:03.204Z</time></trkpt><trkpt lat="43.7102381" lon="12.7825461"><ele>423.0</ele><time>2026-05-02T07:24:04.199Z</time></trkpt><trkpt lat="43.7102028" lon="12.7824401"><ele>423.0</ele><time>2026-05-02T07:24:05.193Z</time></trkpt><trkpt lat="43.7101754" lon="12.7823275"><ele>424.85714285714283</ele><time>2026-05-02T07:24:06.2Z</time></trkpt><trkpt lat="43.7101407" lon="12.7822252"><ele>426.7142857142857</ele><time>2026-05-02T07:24:07.204Z</time></trkpt><trkpt lat="43.7101028" lon="12.7821226"><ele>428.57142857142856</ele><time>2026-05-02T07:24:08.201Z</time></trkpt><trkpt lat="43.7100764" lon="12.7820212"><ele>430.42857142857144</ele><time>2026-05-02T07:24:09.204Z</time></trkpt><trkpt lat="43.7100433" lon="12.7819383"><ele>432.28571428571433</ele><time>2026-05-02T07:24:10.204Z</time></trkpt><trkpt lat="43.7100004" lon="12.7818711"><ele>434.14285714285717</ele><time>2026-05-02T07:24:11.209Z</time></trkpt><trkpt lat="43.7099366" lon="12.7818318"><ele>436.0</ele><time>2026-05-02T07:24:12.202Z</time></trkpt><trkpt lat="43.7098561" lon="12.7817962"><ele>436.00000000000006</ele><time>2026-05-02T07:24:13.209Z</time></trkpt><trkpt lat="43.7097744" lon="12.7817451"><ele>436.0</ele><time>2026-05-02T07:24:14.206Z</time></trkpt><trkpt lat="43.7096973" lon="12.7816896"><ele>436.0</ele><time>2026-05-02T07:24:15.199Z</time></trkpt><trkpt lat="43.7096178" lon="12.781631"><ele>436.0</ele><time>2026-05-02T07:24:16.196Z</time></trkpt><trkpt lat="43.7095406" lon="12.7815797"><ele>436.00000000000006</ele><time>2026-05-02T07:24:17.199Z</time></trkpt><trkpt lat="43.7094716" lon="12.7815452"><ele>436.0</ele><time>2026-05-02T07:24:18.195Z</time></trkpt><trkpt lat="43.7094036" lon="12.781532"><ele>438.83333333333337</ele><time>2026-05-02T07:24:19.194Z</time></trkpt><trkpt lat="43.70933" lon="12.7815265"><ele>441.6666666666667</ele><time>2026-05-02T07:24:20.203Z</time></trkpt><trkpt lat="43.7092662" lon="12.7815196"><ele>444.5</ele><time>2026-05-02T07:24:21.197Z</time></trkpt><trkpt lat="43.7091657" lon="12.7815324"><ele>447.33333333333337</ele><time>2026-05-02T07:24:23.201Z</time></trkpt><trkpt lat="43.7090859" lon="12.7816096"><ele>450.1666666666667</ele><time>2026-05-02T07:24:25.195Z</time></trkpt><trkpt lat="43.709044" lon="12.7817482"><ele>453.0</ele><time>2026-05-02T07:24:27.2Z</time></trkpt><trkpt lat="43.7090248" lon="12.7818685"><ele>454.79999999999995</ele><time>2026-05-02T07:24:29.205Z</time></trkpt><trkpt lat="43.7089655" lon="12.7819692"><ele>456.59999999999997</ele><time>2026-05-02T07:24:43.199Z</time></trkpt><trkpt lat="43.7088795" lon="12.7820751"><ele>458.40000000000003</ele><time>2026-05-02T07:24:45.207Z</time></trkpt><trkpt lat="43.7087914" lon="12.7821878"><ele>460.20000000000005</ele><time>2026-05-02T07:24:47.191Z</time></trkpt><trkpt lat="43.7087416" lon="12.7822453"><ele>462.0</ele><time>2026-05-02T07:24:48.197Z</time></trkpt><trkpt lat="43.7086913" lon="12.7823032"><ele>462.0</ele><time>2026-05-02T07:24:49.197Z</time></trkpt><trkpt lat="43.7086384" lon="12.7823626"><ele>462.0</ele><time>2026-05-02T07:24:50.203Z</time></trkpt><trkpt lat="43.7085881" lon="12.7824328"><ele>462.0</ele><time>2026-05-02T07:24:51.202Z</time></trkpt><trkpt lat="43.708533" lon="12.7825112"><ele>462.0</ele><time>2026-05-02T07:24:52.199Z</time></trkpt><trkpt lat="43.7084682" lon="12.782597"><ele>462.0</ele><time>2026-05-02T07:24:53.204Z</time></trkpt><trkpt lat="43.7083921" lon="12.7826792"><ele>462.0</ele><time>2026-05-02T07:24:54.198Z</time></trkpt><trkpt lat="43.7083116" lon="12.7827601"><ele>465.8</ele><time>2026-05-02T07:24:55.198Z</time></trkpt><trkpt lat="43.7082281" lon="12.7828555"><ele>469.6</ele><time>2026-05-02T07:24:56.198Z</time></trkpt><trkpt lat="43.7081572" lon="12.7829614"><ele>473.40000000000003</ele><time>2026-05-02T07:24:57.198Z</time></trkpt><trkpt lat="43.7080903" lon="12.7830372"><ele>477.20000000000005</ele><time>2026-05-02T07:24:58.203Z</time></trkpt><trkpt lat="43.7080321" lon="12.7830792"><ele>481.0</ele><time>2026-05-02T07:24:59.202Z</time></trkpt><trkpt lat="43.7079131" lon="12.7831303"><ele>480.99999999999994</ele><time>2026-05-02T07:25:01.192Z</time></trkpt><trkpt lat="43.7078423" lon="12.7831459"><ele>481.0</ele><time>2026-05-02T07:25:02.193Z</time></trkpt><trkpt lat="43.70777" lon="12.7831495"><ele>480.99999999999994</ele><time>2026-05-02T07:25:03.2Z</time></trkpt><trkpt lat="43.7077065" lon="12.7831476"><ele>480.99999999999994</ele><time>2026-05-02T07:25:04.194Z</time></trkpt><trkpt lat="43.7076447" lon="12.7831223"><ele>481.0</ele><time>2026-05-02T07:25:05.206Z</time></trkpt><trkpt lat="43.7075945" lon="12.7830618"><ele>480.99999999999994</ele><time>2026-05-02T07:25:06.198Z</time></trkpt><trkpt lat="43.7075454" lon="12.782988"><ele>480.99999999999994</ele><time>2026-05-02T07:25:07.198Z</time></trkpt><trkpt lat="43.7074953" lon="12.7829189"><ele>483.1428571428571</ele><time>2026-05-02T07:25:08.199Z</time></trkpt><trkpt lat="43.7074383" lon="12.7828657"><ele>485.2857142857143</ele><time>2026-05-02T07:25:09.198Z</time></trkpt><trkpt lat="43.7073753" lon="12.7828361"><ele>487.42857142857144</ele><time>2026-05-02T07:25:10.197Z</time></trkpt><trkpt lat="43.7073092" lon="12.7828228"><ele>489.57142857142856</ele><time>2026-05-02T07:25:11.2Z</time></trkpt><trkpt lat="43.7072421" lon="12.7828079"><ele>491.7142857142858</ele><time>2026-05-02T07:25:12.194Z</time></trkpt><trkpt lat="43.7071734" lon="12.7827868"><ele>493.8571428571429</ele><time>2026-05-02T07:25:13.201Z</time></trkpt><trkpt lat="43.7071008" lon="12.7827697"><ele>496.0</ele><time>2026-05-02T07:25:14.193Z</time></trkpt><trkpt lat="43.7070246" lon="12.7827821"><ele>496.00000000000006</ele><time>2026-05-02T07:25:15.192Z</time></trkpt><trkpt lat="43.7069414" lon="12.7827868"><ele>496.0</ele><time>2026-05-02T07:25:16.195Z</time></trkpt><trkpt lat="43.7068602" lon="12.782771"><ele>496.0</ele><time>2026-05-02T07:25:17.19Z</time></trkpt><trkpt lat="43.7067785" lon="12.7827487"><ele>496.0</ele><time>2026-05-02T07:25:18.191Z</time></trkpt><trkpt lat="43.7066868" lon="12.7827232"><ele>496.00000000000006</ele><time>2026-05-02T07:25:19.188Z</time></trkpt><trkpt lat="43.7065875" lon="12.7827031"><ele>496.0</ele><time>2026-05-02T07:25:20.189Z</time></trkpt><trkpt lat="43.7064912" lon="12.7826809"><ele>499.6</ele><time>2026-05-02T07:25:21.187Z</time></trkpt><trkpt lat="43.706392" lon="12.7826448"><ele>503.20000000000005</ele><time>2026-05-02T07:25:22.186Z</time></trkpt><trkpt lat="43.7062957" lon="12.7826056"><ele>506.79999999999995</ele><time>2026-05-02T07:25:23.187Z</time></trkpt><trkpt lat="43.7061984" lon="12.7825594"><ele>510.4</ele><time>2026-05-02T07:25:24.187Z</time></trkpt><trkpt lat="43.7061053" lon="12.7825078"><ele>514.0</ele><time>2026-05-02T07:25:25.18Z</time></trkpt><trkpt lat="43.7060283" lon="12.7824587"><ele>515.8333333333334</ele><time>2026-05-02T07:25:26.185Z</time></trkpt><trkpt lat="43.7059622" lon="12.7824204"><ele>517.6666666666667</ele><time>2026-05-02T07:25:27.181Z</time></trkpt><trkpt lat="43.7058564" lon="12.7824285"><ele>519.5</ele><time>2026-05-02T07:25:29.179Z</time></trkpt><trkpt lat="43.7057527" lon="12.7824794"><ele>521.3333333333334</ele><time>2026-05-02T07:25:31.188Z</time></trkpt><trkpt lat="43.70569" lon="12.7825012"><ele>523.1666666666666</ele><time>2026-05-02T07:25:32.189Z</time></trkpt><trkpt lat="43.7056263" lon="12.782516"><ele>525.0</ele><time>2026-05-02T07:25:33.194Z</time></trkpt><trkpt lat="43.7055575" lon="12.7825259"><ele>525.0</ele><time>2026-05-02T07:25:34.191Z</time></trkpt><trkpt lat="43.7054907" lon="12.7825411"><ele>525.0</ele><time>2026-05-02T07:25:35.195Z</time></trkpt><trkpt lat="43.7054214" lon="12.7825569"><ele>525.0</ele><time>2026-05-02T07:25:36.198Z</time></trkpt><trkpt lat="43.7053538" lon="12.7825606"><ele>525.0</ele><time>2026-05-02T07:25:37.198Z</time></trkpt><trkpt lat="43.7052765" lon="12.7825686"><ele>525.0</ele><time>2026-05-02T07:25:38.191Z</time></trkpt><trkpt lat="43.7051894" lon="12.7825731"><ele>525.0</ele><time>2026-05-02T07:25:39.203Z</time></trkpt><trkpt lat="43.7050996" lon="12.7825755"><ele>528.0</ele><time>2026-05-02T07:25:40.195Z</time></trkpt><trkpt lat="43.7050135" lon="12.7825605"><ele>531.0</ele><time>2026-05-02T07:25:41.195Z</time></trkpt><trkpt lat="43.7049146" lon="12.7825536"><ele>534.0</ele><time>2026-05-02T07:25:42.194Z</time></trkpt><trkpt lat="43.7048151" lon="12.7825539"><ele>537.0</ele><time>2026-05-02T07:25:43.193Z</time></trkpt><trkpt lat="43.7047189" lon="12.7825662"><ele>540.0</ele><time>2026-05-02T07:25:44.194Z</time></trkpt><trkpt lat="43.7046222" lon="12.7825874"><ele>540.0</ele><time>2026-05-02T07:25:45.201Z</time></trkpt><trkpt lat="43.7045321" lon="12.7826241"><ele>540.0</ele><time>2026-05-02T07:25:46.199Z</time></trkpt><trkpt lat="43.7044374" lon="12.7826763"><ele>540.0</ele><time>2026-05-02T07:25:47.198Z</time></trkpt><trkpt lat="43.7043471" lon="12.7827343"><ele>540.0</ele><time>2026-05-02T07:25:48.195Z</time></trkpt><trkpt lat="43.7042596" lon="12.7827963"><ele>540.0</ele><time>2026-05-02T07:25:49.186Z</time></trkpt><trkpt lat="43.7041884" lon="12.7828668"><ele>541.4</ele><time>2026-05-02T07:25:50.197Z</time></trkpt><trkpt lat="43.7041235" lon="12.7829644"><ele>542.8</ele><time>2026-05-02T07:25:51.19Z</time></trkpt><trkpt lat="43.7040636" lon="12.7830757"><ele>544.2</ele><time>2026-05-02T07:25:52.191Z</time></trkpt><trkpt lat="43.7039863" lon="12.7831671"><ele>545.6</ele><time>2026-05-02T07:25:53.19Z</time></trkpt><trkpt lat="43.7038982" lon="12.7832474"><ele>547.0</ele><time>2026-05-02T07:25:54.191Z</time></trkpt><trkpt lat="43.7037988" lon="12.7833394"><ele>547.0</ele><time>2026-05-02T07:25:55.191Z</time></trkpt><trkpt lat="43.7036894" lon="12.7834312"><ele>547.0</ele><time>2026-05-02T07:25:56.191Z</time></trkpt><trkpt lat="43.7035758" lon="12.7835171"><ele>547.0</ele><time>2026-05-02T07:25:57.192Z</time></trkpt><trkpt lat="43.7034657" lon="12.7835948"><ele>547.0</ele><time>2026-05-02T07:25:58.185Z</time></trkpt><trkpt lat="43.7033727" lon="12.7836566"><ele>548.6666666666667</ele><time>2026-05-02T07:25:59.184Z</time></trkpt><trkpt lat="43.703292" lon="12.7837066"><ele>550.3333333333334</ele><time>2026-05-02T07:26:00.187Z</time></trkpt><trkpt lat="43.7032303" lon="12.783759"><ele>552.0</ele><time>2026-05-02T07:26:01.186Z</time></trkpt><trkpt lat="43.7031715" lon="12.7838351"><ele>553.6666666666666</ele><time>2026-05-02T07:26:02.188Z</time></trkpt><trkpt lat="43.7031264" lon="12.783947"><ele>555.3333333333333</ele><time>2026-05-02T07:26:03.19Z</time></trkpt><trkpt lat="43.7030759" lon="12.7840556"><ele>557.0</ele><time>2026-05-02T07:26:04.187Z</time></trkpt><trkpt lat="43.7030176" lon="12.7841487"><ele>557.0</ele><time>2026-05-02T07:26:05.195Z</time></trkpt><trkpt lat="43.7029527" lon="12.7842437"><ele>557.0</ele><time>2026-05-02T07:26:06.192Z</time></trkpt><trkpt lat="43.7028803" lon="12.7843427"><ele>557.0</ele><time>2026-05-02T07:26:07.192Z</time></trkpt><trkpt lat="43.7028073" lon="12.7844541"><ele>557.0</ele><time>2026-05-02T07:26:08.195Z</time></trkpt><trkpt lat="43.7027395" lon="12.784567"><ele>557.0</ele><time>2026-05-02T07:26:09.194Z</time></trkpt><trkpt lat="43.7026823" lon="12.7846764"><ele>557.6666666666666</ele><time>2026-05-02T07:26:10.197Z</time></trkpt><trkpt lat="43.702626" lon="12.7847842"><ele>558.3333333333333</ele><time>2026-05-02T07:26:11.183Z</time></trkpt><trkpt lat="43.7025673" lon="12.7848908"><ele>559.0</ele><time>2026-05-02T07:26:12.187Z</time></trkpt><trkpt lat="43.7024988" lon="12.7849821"><ele>559.6666666666666</ele><time>2026-05-02T07:26:13.192Z</time></trkpt><trkpt lat="43.7024294" lon="12.7850532"><ele>560.3333333333334</ele><time>2026-05-02T07:26:14.185Z</time></trkpt><trkpt lat="43.7023632" lon="12.7850975"><ele>561.0</ele><time>2026-05-02T07:26:15.192Z</time></trkpt><trkpt lat="43.7022619" lon="12.7851275"><ele>561.0</ele><time>2026-05-02T07:26:17.195Z</time></trkpt><trkpt lat="43.7022129" lon="12.7850169"><ele>561.0</ele><time>2026-05-02T07:26:19.194Z</time></trkpt><trkpt lat="43.7021938" lon="12.7849"><ele>561.0</ele><time>2026-05-02T07:26:20.193Z</time></trkpt><trkpt lat="43.702161" lon="12.7847688"><ele>561.0</ele><time>2026-05-02T07:26:21.19Z</time></trkpt><trkpt lat="43.702128" lon="12.7846185"><ele>561.0</ele><time>2026-05-02T07:26:22.192Z</time></trkpt><trkpt lat="43.7020923" lon="12.7844561"><ele>561.2</ele><time>2026-05-02T07:26:23.189Z</time></trkpt><trkpt lat="43.7020536" lon="12.7843137"><ele>561.4000000000001</ele><time>2026-05-02T07:26:24.191Z</time></trkpt><trkpt lat="43.7020028" lon="12.7841934"><ele>561.6</ele><time>2026-05-02T07:26:25.195Z</time></trkpt><trkpt lat="43.7019449" lon="12.7840865"><ele>561.8000000000001</ele><time>2026-05-02T07:26:26.191Z</time></trkpt><trkpt lat="43.7018736" lon="12.7839891"><ele>562.0</ele><time>2026-05-02T07:26:27.192Z</time></trkpt><trkpt lat="43.7017855" lon="12.7838856"><ele>562.0</ele><time>2026-05-02T07:26:28.193Z</time></trkpt><trkpt lat="43.7016906" lon="12.7837679"><ele>562.0</ele><time>2026-05-02T07:26:29.202Z</time></trkpt><trkpt lat="43.7015922" lon="12.7836234"><ele>562.0</ele><time>2026-05-02T07:26:30.189Z</time></trkpt><trkpt lat="43.7014871" lon="12.7834743"><ele>562.0</ele><time>2026-05-02T07:26:31.203Z</time></trkpt><trkpt lat="43.7013796" lon="12.7833242"><ele>561.75</ele><time>2026-05-02T07:26:32.192Z</time></trkpt><trkpt lat="43.7012911" lon="12.7831806"><ele>561.5</ele><time>2026-05-02T07:26:33.189Z</time></trkpt><trkpt lat="43.7012176" lon="12.7830447"><ele>561.25</ele><time>2026-05-02T07:26:34.194Z</time></trkpt><trkpt lat="43.7011432" lon="12.7829265"><ele>561.0</ele><time>2026-05-02T07:26:35.192Z</time></trkpt><trkpt lat="43.7010778" lon="12.7828198"><ele>561.4</ele><time>2026-05-02T07:26:36.192Z</time></trkpt><trkpt lat="43.7010032" lon="12.7827023"><ele>561.8</ele><time>2026-05-02T07:26:37.195Z</time></trkpt><trkpt lat="43.7009253" lon="12.7825788"><ele>562.1999999999999</ele><time>2026-05-02T07:26:38.192Z</time></trkpt><trkpt lat="43.7008588" lon="12.782465"><ele>562.6</ele><time>2026-05-02T07:26:39.193Z</time></trkpt><trkpt lat="43.7008035" lon="12.7823724"><ele>563.0</ele><time>2026-05-02T07:26:40.195Z</time></trkpt><trkpt lat="43.7007533" lon="12.7822821"><ele>563.0</ele><time>2026-05-02T07:26:41.192Z</time></trkpt><trkpt lat="43.7007007" lon="12.7821775"><ele>563.0</ele><time>2026-05-02T07:26:42.196Z</time></trkpt><trkpt lat="43.700642" lon="12.7820625"><ele>563.0</ele><time>2026-05-02T07:26:43.191Z</time></trkpt><trkpt lat="43.7005789" lon="12.7819369"><ele>563.0</ele><time>2026-05-02T07:26:44.19Z</time></trkpt><trkpt lat="43.7005099" lon="12.7818022"><ele>563.0</ele><time>2026-05-02T07:26:45.189Z</time></trkpt><trkpt lat="43.700438" lon="12.7816596"><ele>563.0</ele><time>2026-05-02T07:26:46.192Z</time></trkpt><trkpt lat="43.7003666" lon="12.7815262"><ele>563.0</ele><time>2026-05-02T07:26:47.189Z</time></trkpt><trkpt lat="43.7002949" lon="12.7813825"><ele>563.0</ele><time>2026-05-02T07:26:48.194Z</time></trkpt><trkpt lat="43.700227" lon="12.7812384"><ele>563.0</ele><time>2026-05-02T07:26:49.19Z</time></trkpt><trkpt lat="43.7001646" lon="12.7810895"><ele>564.25</ele><time>2026-05-02T07:26:50.2Z</time></trkpt><trkpt lat="43.7001056" lon="12.7809435"><ele>565.5</ele><time>2026-05-02T07:26:51.195Z</time></trkpt><trkpt lat="43.7000521" lon="12.7808114"><ele>566.75</ele><time>2026-05-02T07:26:52.203Z</time></trkpt><trkpt lat="43.6999971" lon="12.7806774"><ele>568.0</ele><time>2026-05-02T07:26:53.204Z</time></trkpt><trkpt lat="43.6999404" lon="12.7805456"><ele>568.0</ele><time>2026-05-02T07:26:54.197Z</time></trkpt><trkpt lat="43.6998773" lon="12.7804129"><ele>568.0</ele><time>2026-05-02T07:26:55.204Z</time></trkpt><trkpt lat="43.6998054" lon="12.7803041"><ele>568.0</ele><time>2026-05-02T07:26:56.201Z</time></trkpt><trkpt lat="43.6997573" lon="12.7802238"><ele>568.0</ele><time>2026-05-02T07:26:57.204Z</time></trkpt><trkpt lat="43.6996976" lon="12.7801655"><ele>568.0</ele><time>2026-05-02T07:26:59.196Z</time></trkpt><trkpt lat="43.6996746" lon="12.7802962"><ele>568.0</ele><time>2026-05-02T07:27:02.202Z</time></trkpt><trkpt lat="43.6996893" lon="12.7804234"><ele>568.0</ele><time>2026-05-02T07:27:03.194Z</time></trkpt><trkpt lat="43.6996954" lon="12.7805679"><ele>568.0</ele><time>2026-05-02T07:27:04.199Z</time></trkpt><trkpt lat="43.6996837" lon="12.7807209"><ele>568.0</ele><time>2026-05-02T07:27:05.198Z</time></trkpt><trkpt lat="43.699663" lon="12.7808656"><ele>568.0</ele><time>2026-05-02T07:27:06.2Z</time></trkpt><trkpt lat="43.6996237" lon="12.7810088"><ele>567.6</ele><time>2026-05-02T07:27:07.197Z</time></trkpt><trkpt lat="43.6995767" lon="12.7811402"><ele>567.1999999999999</ele><time>2026-05-02T07:27:08.198Z</time></trkpt><trkpt lat="43.699524" lon="12.7812494"><ele>566.8</ele><time>2026-05-02T07:27:09.199Z</time></trkpt><trkpt lat="43.699459" lon="12.7813568"><ele>566.4</ele><time>2026-05-02T07:27:10.194Z</time></trkpt><trkpt lat="43.6993846" lon="12.7814616"><ele>566.0</ele><time>2026-05-02T07:27:11.191Z</time></trkpt><trkpt lat="43.6992988" lon="12.7815713"><ele>567.25</ele><time>2026-05-02T07:27:12.198Z</time></trkpt><trkpt lat="43.6992063" lon="12.7816798"><ele>568.5</ele><time>2026-05-02T07:27:13.194Z</time></trkpt><trkpt lat="43.6991113" lon="12.781789"><ele>569.75</ele><time>2026-05-02T07:27:14.193Z</time></trkpt><trkpt lat="43.6990237" lon="12.7819065"><ele>571.0</ele><time>2026-05-02T07:27:15.192Z</time></trkpt><trkpt lat="43.6989463" lon="12.7820352"><ele>571.0</ele><time>2026-05-02T07:27:16.191Z</time></trkpt><trkpt lat="43.6988734" lon="12.7821661"><ele>571.0</ele><time>2026-05-02T07:27:17.195Z</time></trkpt><trkpt lat="43.6988076" lon="12.7823027"><ele>571.0</ele><time>2026-05-02T07:27:18.192Z</time></trkpt><trkpt lat="43.6987528" lon="12.7824414"><ele>571.0</ele><time>2026-05-02T07:27:19.195Z</time></trkpt><trkpt lat="43.698711" lon="12.7825745"><ele>570.7142857142858</ele><time>2026-05-02T07:27:20.188Z</time></trkpt><trkpt lat="43.6986681" lon="12.7826863"><ele>570.4285714285714</ele><time>2026-05-02T07:27:21.187Z</time></trkpt><trkpt lat="43.6986245" lon="12.7827839"><ele>570.1428571428571</ele><time>2026-05-02T07:27:22.183Z</time></trkpt><trkpt lat="43.6985856" lon="12.782866"><ele>569.8571428571429</ele><time>2026-05-02T07:27:23.187Z</time></trkpt><trkpt lat="43.6985466" lon="12.7829386"><ele>569.5714285714286</ele><time>2026-05-02T07:27:24.186Z</time></trkpt><trkpt lat="43.698499" lon="12.7830036"><ele>569.2857142857143</ele><time>2026-05-02T07:27:25.187Z</time></trkpt><trkpt lat="43.6984409" lon="12.7830519"><ele>569.0</ele><time>2026-05-02T07:27:26.184Z</time></trkpt><trkpt lat="43.6983711" lon="12.7830975"><ele>568.6</ele><time>2026-05-02T07:27:27.186Z</time></trkpt><trkpt lat="43.6982847" lon="12.7831508"><ele>568.2</ele><time>2026-05-02T07:27:28.19Z</time></trkpt><trkpt lat="43.6981825" lon="12.7832054"><ele>567.8000000000001</ele><time>2026-05-02T07:27:29.189Z</time></trkpt><trkpt lat="43.6980762" lon="12.7832616"><ele>567.4</ele><time>2026-05-02T07:27:30.191Z</time></trkpt><trkpt lat="43.6979857" lon="12.7833071"><ele>567.0</ele><time>2026-05-02T07:27:31.188Z</time></trkpt><trkpt lat="43.6978949" lon="12.7833538"><ele>567.0</ele><time>2026-05-02T07:27:32.186Z</time></trkpt><trkpt lat="43.6978249" lon="12.7834065"><ele>567.0</ele><time>2026-05-02T07:27:33.188Z</time></trkpt><trkpt lat="43.6977781" lon="12.7834877"><ele>567.0</ele><time>2026-05-02T07:27:34.186Z</time></trkpt><trkpt lat="43.6977476" lon="12.7836144"><ele>567.0</ele><time>2026-05-02T07:27:35.192Z</time></trkpt><trkpt lat="43.6977332" lon="12.7837798"><ele>567.0</ele><time>2026-05-02T07:27:36.18Z</time></trkpt><trkpt lat="43.6977199" lon="12.7839593"><ele>566.5</ele><time>2026-05-02T07:27:37.183Z</time></trkpt><trkpt lat="43.6977166" lon="12.7841312"><ele>566.0</ele><time>2026-05-02T07:27:38.178Z</time></trkpt><trkpt lat="43.6977062" lon="12.7842889"><ele>565.5</ele><time>2026-05-02T07:27:39.185Z</time></trkpt><trkpt lat="43.6976953" lon="12.784443"><ele>565.0</ele><time>2026-05-02T07:27:40.185Z</time></trkpt><trkpt lat="43.6976766" lon="12.7845955"><ele>564.5</ele><time>2026-05-02T07:27:41.183Z</time></trkpt><trkpt lat="43.6976486" lon="12.7847557"><ele>564.0</ele><time>2026-05-02T07:27:42.182Z</time></trkpt><trkpt lat="43.697613" lon="12.784914"><ele>563.5</ele><time>2026-05-02T07:27:43.179Z</time></trkpt><trkpt lat="43.6975792" lon="12.7850706"><ele>563.0</ele><time>2026-05-02T07:27:44.181Z</time></trkpt><trkpt lat="43.6975506" lon="12.7852166"><ele>561.8</ele><time>2026-05-02T07:27:45.185Z</time></trkpt><trkpt lat="43.697527" lon="12.7853638"><ele>560.5999999999999</ele><time>2026-05-02T07:27:46.186Z</time></trkpt><trkpt lat="43.697504" lon="12.7855081"><ele>559.4000000000001</ele><time>2026-05-02T07:27:47.185Z</time></trkpt><trkpt lat="43.6974763" lon="12.7856456"><ele>558.2</ele><time>2026-05-02T07:27:48.187Z</time></trkpt><trkpt lat="43.6974592" lon="12.7857841"><ele>557.0</ele><time>2026-05-02T07:27:49.188Z</time></trkpt><trkpt lat="43.6974363" lon="12.7859294"><ele>553.5</ele><time>2026-05-02T07:27:50.191Z</time></trkpt><trkpt lat="43.6974009" lon="12.7860688"><ele>550.0</ele><time>2026-05-02T07:27:51.186Z</time></trkpt><trkpt lat="43.6973569" lon="12.7862188"><ele>546.5</ele><time>2026-05-02T07:27:52.191Z</time></trkpt><trkpt lat="43.697306" lon="12.7863799"><ele>543.0</ele><time>2026-05-02T07:27:53.187Z</time></trkpt><trkpt lat="43.697254" lon="12.7865326"><ele>543.0</ele><time>2026-05-02T07:27:54.183Z</time></trkpt><trkpt lat="43.6971963" lon="12.7866891"><ele>543.0</ele><time>2026-05-02T07:27:55.181Z</time></trkpt><trkpt lat="43.697136" lon="12.7868324"><ele>543.0</ele><time>2026-05-02T07:27:56.185Z</time></trkpt><trkpt lat="43.6970751" lon="12.7869821"><ele>543.0</ele><time>2026-05-02T07:27:57.183Z</time></trkpt><trkpt lat="43.6970009" lon="12.7871243"><ele>543.75</ele><time>2026-05-02T07:27:58.187Z</time></trkpt><trkpt lat="43.6969266" lon="12.7872665"><ele>544.5</ele><time>2026-05-02T07:27:59.19Z</time></trkpt><trkpt lat="43.6968445" lon="12.7873909"><ele>545.25</ele><time>2026-05-02T07:28:00.186Z</time></trkpt><trkpt lat="43.696756" lon="12.7875015"><ele>546.0</ele><time>2026-05-02T07:28:01.186Z</time></trkpt><trkpt lat="43.6966641" lon="12.7875982"><ele>544.0</ele><time>2026-05-02T07:28:02.184Z</time></trkpt><trkpt lat="43.696571" lon="12.7876878"><ele>542.0</ele><time>2026-05-02T07:28:03.19Z</time></trkpt><trkpt lat="43.6964845" lon="12.7877618"><ele>540.0</ele><time>2026-05-02T07:28:04.185Z</time></trkpt><trkpt lat="43.6964054" lon="12.7878331"><ele>538.0</ele><time>2026-05-02T07:28:05.188Z</time></trkpt><trkpt lat="43.6963273" lon="12.7878981"><ele>536.0</ele><time>2026-05-02T07:28:06.2Z</time></trkpt><trkpt lat="43.6962642" lon="12.7879485"><ele>536.0</ele><time>2026-05-02T07:28:07.196Z</time></trkpt><trkpt lat="43.6962019" lon="12.7880038"><ele>536.0</ele><time>2026-05-02T07:28:08.199Z</time></trkpt><trkpt lat="43.6961366" lon="12.7880711"><ele>536.0</ele><time>2026-05-02T07:28:09.198Z</time></trkpt><trkpt lat="43.6960698" lon="12.7881544"><ele>536.0</ele><time>2026-05-02T07:28:10.196Z</time></trkpt><trkpt lat="43.6959963" lon="12.78824"><ele>536.0</ele><time>2026-05-02T07:28:11.193Z</time></trkpt><trkpt lat="43.6959252" lon="12.788323"><ele>536.0</ele><time>2026-05-02T07:28:12.196Z</time></trkpt><trkpt lat="43.6958575" lon="12.7884123"><ele>536.0</ele><time>2026-05-02T07:28:13.198Z</time></trkpt><trkpt lat="43.6958084" lon="12.7884938"><ele>536.0</ele><time>2026-05-02T07:28:14.195Z</time></trkpt><trkpt lat="43.6957666" lon="12.7885739"><ele>536.0</ele><time>2026-05-02T07:28:15.192Z</time></trkpt><trkpt lat="43.6957073" lon="12.7887117"><ele>536.0</ele><time>2026-05-02T07:28:17.192Z</time></trkpt><trkpt lat="43.6956508" lon="12.7888198"><ele>536.0</ele><time>2026-05-02T07:28:19.194Z</time></trkpt><trkpt lat="43.6956284" lon="12.7889017"><ele>536.0</ele><time>2026-05-02T07:28:20.193Z</time></trkpt><trkpt lat="43.6956027" lon="12.7890113"><ele>533.6666666666666</ele><time>2026-05-02T07:28:21.198Z</time></trkpt><trkpt lat="43.6955671" lon="12.789103"><ele>531.3333333333333</ele><time>2026-05-02T07:28:22.187Z</time></trkpt><trkpt lat="43.6955322" lon="12.7891893"><ele>529.0</ele><time>2026-05-02T07:28:23.202Z</time></trkpt><trkpt lat="43.6954871" lon="12.7892889"><ele>526.6666666666666</ele><time>2026-05-02T07:28:25.195Z</time></trkpt><trkpt lat="43.6954967" lon="12.7894128"><ele>524.3333333333334</ele><time>2026-05-02T07:28:49.2Z</time></trkpt><trkpt lat="43.6955197" lon="12.7895155"><ele>522.0</ele><time>2026-05-02T07:28:51.19Z</time></trkpt><trkpt lat="43.6955449" lon="12.7896386"><ele>519.8000000000001</ele><time>2026-05-02T07:28:53.197Z</time></trkpt><trkpt lat="43.6955854" lon="12.7897776"><ele>517.6</ele><time>2026-05-02T07:28:55.197Z</time></trkpt><trkpt lat="43.6956289" lon="12.7899335"><ele>515.4000000000001</ele><time>2026-05-02T07:28:57.192Z</time></trkpt><trkpt lat="43.6956713" lon="12.7900594"><ele>513.2</ele><time>2026-05-02T07:28:59.193Z</time></trkpt><trkpt lat="43.6957028" lon="12.7901714"><ele>511.0</ele><time>2026-05-02T07:29:01.193Z</time></trkpt><trkpt lat="43.6956808" lon="12.7902998"><ele>509.83333333333337</ele><time>2026-05-02T07:29:03.202Z</time></trkpt><trkpt lat="43.6956123" lon="12.7904121"><ele>508.6666666666667</ele><time>2026-05-02T07:29:05.19Z</time></trkpt><trkpt lat="43.695609" lon="12.7905301"><ele>507.5</ele><time>2026-05-02T07:29:07.196Z</time></trkpt><trkpt lat="43.6956728" lon="12.7905767"><ele>506.33333333333337</ele><time>2026-05-02T07:29:09.196Z</time></trkpt><trkpt lat="43.6957697" lon="12.7905812"><ele>505.1666666666667</ele><time>2026-05-02T07:29:11.192Z</time></trkpt><trkpt lat="43.6958496" lon="12.7905686"><ele>504.0</ele><time>2026-05-02T07:29:13.196Z</time></trkpt><trkpt lat="43.695935" lon="12.7905392"><ele>504.0</ele><time>2026-05-02T07:29:15.195Z</time></trkpt><trkpt lat="43.6960177" lon="12.790481"><ele>504.0</ele><time>2026-05-02T07:29:17.196Z</time></trkpt><trkpt lat="43.6960929" lon="12.7903963"><ele>504.0</ele><time>2026-05-02T07:29:19.193Z</time></trkpt><trkpt lat="43.6961697" lon="12.7903169"><ele>504.0</ele><time>2026-05-02T07:29:21.198Z</time></trkpt><trkpt lat="43.6962425" lon="12.7902668"><ele>504.0</ele><time>2026-05-02T07:29:23.206Z</time></trkpt><trkpt lat="43.6963168" lon="12.7903002"><ele>504.0</ele><time>2026-05-02T07:29:25.193Z</time></trkpt><trkpt lat="43.696357" lon="12.7904096"><ele>500.0</ele><time>2026-05-02T07:29:27.195Z</time></trkpt><trkpt lat="43.6963575" lon="12.7905488"><ele>496.0</ele><time>2026-05-02T07:29:29.192Z</time></trkpt><trkpt lat="43.6963583" lon="12.7907037"><ele>492.0</ele><time>2026-05-02T07:29:31.179Z</time></trkpt><trkpt lat="43.6963583" lon="12.7907934"><ele>488.0</ele><time>2026-05-02T07:29:32.192Z</time></trkpt><trkpt lat="43.6963684" lon="12.7909558"><ele>484.0</ele><time>2026-05-02T07:29:34.187Z</time></trkpt><trkpt lat="43.696404" lon="12.7910603"><ele>483.83333333333337</ele><time>2026-05-02T07:29:36.193Z</time></trkpt><trkpt lat="43.6964262" lon="12.7911761"><ele>483.6666666666667</ele><time>2026-05-02T07:29:38.191Z</time></trkpt><trkpt lat="43.6964421" lon="12.7912995"><ele>483.5</ele><time>2026-05-02T07:29:40.191Z</time></trkpt><trkpt lat="43.6965066" lon="12.7913344"><ele>483.33333333333337</ele><time>2026-05-02T07:29:47.306Z</time></trkpt><trkpt lat="43.6965999" lon="12.7913793"><ele>483.1666666666667</ele><time>2026-05-02T07:29:51.193Z</time></trkpt><trkpt lat="43.6966719" lon="12.7914398"><ele>483.0</ele><time>2026-05-02T07:29:53.197Z</time></trkpt><trkpt lat="43.6967342" lon="12.7915165"><ele>483.0</ele><time>2026-05-02T07:29:55.197Z</time></trkpt><trkpt lat="43.6968101" lon="12.7915301"><ele>483.0</ele><time>2026-05-02T07:29:57.193Z</time></trkpt><trkpt lat="43.6969042" lon="12.7914692"><ele>483.0</ele><time>2026-05-02T07:29:59.186Z</time></trkpt><trkpt lat="43.6969429" lon="12.7913881"><ele>483.0</ele><time>2026-05-02T07:30:01.18Z</time></trkpt><trkpt lat="43.6970293" lon="12.7913277"><ele>483.0</ele><time>2026-05-02T07:30:03.18Z</time></trkpt><trkpt lat="43.6971284" lon="12.791334"><ele>483.0</ele><time>2026-05-02T07:30:05.185Z</time></trkpt><trkpt lat="43.6972031" lon="12.7913798"><ele>479.1666666666667</ele><time>2026-05-02T07:30:07.189Z</time></trkpt><trkpt lat="43.697272" lon="12.7914337"><ele>475.33333333333337</ele><time>2026-05-02T07:30:09.19Z</time></trkpt><trkpt lat="43.6973417" lon="12.7914835"><ele>471.5</ele><time>2026-05-02T07:30:11.193Z</time></trkpt><trkpt lat="43.6974278" lon="12.7915355"><ele>467.6666666666667</ele><time>2026-05-02T07:30:13.189Z</time></trkpt><trkpt lat="43.6975183" lon="12.791576"><ele>463.83333333333337</ele><time>2026-05-02T07:30:15.193Z</time></trkpt><trkpt lat="43.6976065" lon="12.7916321"><ele>460.0</ele><time>2026-05-02T07:30:17.19Z</time></trkpt><trkpt lat="43.6976664" lon="12.7917338"><ele>458.4</ele><time>2026-05-02T07:30:19.191Z</time></trkpt><trkpt lat="43.6977066" lon="12.7918704"><ele>456.8</ele><time>2026-05-02T07:30:21.188Z</time></trkpt><trkpt lat="43.6977277" lon="12.7920107"><ele>455.20000000000005</ele><time>2026-05-02T07:30:23.199Z</time></trkpt><trkpt lat="43.6977152" lon="12.7921433"><ele>453.6</ele><time>2026-05-02T07:30:25.198Z</time></trkpt><trkpt lat="43.6977056" lon="12.7922597"><ele>452.0</ele><time>2026-05-02T07:30:27.194Z</time></trkpt><trkpt lat="43.6977896" lon="12.792307"><ele>448.6</ele><time>2026-05-02T07:30:34.19Z</time></trkpt><trkpt lat="43.697879" lon="12.7923209"><ele>445.20000000000005</ele><time>2026-05-02T07:30:36.187Z</time></trkpt><trkpt lat="43.6979809" lon="12.7923127"><ele>441.8</ele><time>2026-05-02T07:30:38.189Z</time></trkpt><trkpt lat="43.698095" lon="12.7922888"><ele>438.4</ele><time>2026-05-02T07:30:40.193Z</time></trkpt><trkpt lat="43.6981844" lon="12.7922829"><ele>435.0</ele><time>2026-05-02T07:30:42.195Z</time></trkpt><trkpt lat="43.6982693" lon="12.7922908"><ele>435.0</ele><time>2026-05-02T07:30:44.197Z</time></trkpt><trkpt lat="43.6983536" lon="12.7923358"><ele>435.0</ele><time>2026-05-02T07:30:46.193Z</time></trkpt><trkpt lat="43.6984319" lon="12.7924107"><ele>435.0</ele><time>2026-05-02T07:30:48.193Z</time></trkpt><trkpt lat="43.6984942" lon="12.7925338"><ele>435.0</ele><time>2026-05-02T07:30:50.191Z</time></trkpt><trkpt lat="43.6985198" lon="12.7926721"><ele>435.0</ele><time>2026-05-02T07:30:52.197Z</time></trkpt><trkpt lat="43.6984902" lon="12.7928105"><ele>432.4</ele><time>2026-05-02T07:30:54.199Z</time></trkpt><trkpt lat="43.6984498" lon="12.7929292"><ele>429.8</ele><time>2026-05-02T07:30:56.213Z</time></trkpt><trkpt lat="43.6984001" lon="12.7930558"><ele>427.20000000000005</ele><time>2026-05-02T07:30:58.196Z</time></trkpt><trkpt lat="43.698362" lon="12.7931356"><ele>424.6</ele><time>2026-05-02T07:31:00.197Z</time></trkpt><trkpt lat="43.6983472" lon="12.7932427"><ele>422.0</ele><time>2026-05-02T07:31:32.193Z</time></trkpt><trkpt lat="43.6982936" lon="12.793424"><ele>417.5</ele><time>2026-05-02T07:31:34.189Z</time></trkpt><trkpt lat="43.6982542" lon="12.7935701"><ele>413.0</ele><time>2026-05-02T07:31:35.185Z</time></trkpt><trkpt lat="43.6982227" lon="12.7937404"><ele>408.5</ele><time>2026-05-02T07:31:36.189Z</time></trkpt><trkpt lat="43.6981915" lon="12.7939247"><ele>404.0</ele><time>2026-05-02T07:31:37.19Z</time></trkpt><trkpt lat="43.6981571" lon="12.7940948"><ele>403.99999999999994</ele><time>2026-05-02T07:31:38.194Z</time></trkpt><trkpt lat="43.6981345" lon="12.7942324"><ele>404.0</ele><time>2026-05-02T07:31:39.193Z</time></trkpt><trkpt lat="43.6981186" lon="12.7943401"><ele>404.0</ele><time>2026-05-02T07:31:40.191Z</time></trkpt><trkpt lat="43.6981293" lon="12.7944592"><ele>404.0</ele><time>2026-05-02T07:31:42.193Z</time></trkpt><trkpt lat="43.6982233" lon="12.7944179"><ele>403.99999999999994</ele><time>2026-05-02T07:31:44.183Z</time></trkpt><trkpt lat="43.6982703" lon="12.7943392"><ele>404.0</ele><time>2026-05-02T07:31:45.187Z</time></trkpt><trkpt lat="43.6983092" lon="12.7942467"><ele>403.99999999999994</ele><time>2026-05-02T07:31:46.184Z</time></trkpt><trkpt lat="43.6983413" lon="12.7941433"><ele>404.0</ele><time>2026-05-02T07:31:47.187Z</time></trkpt><trkpt lat="43.6983805" lon="12.794045"><ele>404.0</ele><time>2026-05-02T07:31:48.187Z</time></trkpt><trkpt lat="43.6984325" lon="12.7939676"><ele>404.0</ele><time>2026-05-02T07:31:49.187Z</time></trkpt><trkpt lat="43.6985046" lon="12.7939167"><ele>403.99999999999994</ele><time>2026-05-02T07:31:50.191Z</time></trkpt><trkpt lat="43.6985965" lon="12.793898"><ele>404.0</ele><time>2026-05-02T07:31:51.186Z</time></trkpt><trkpt lat="43.6986988" lon="12.793886"><ele>399.6</ele><time>2026-05-02T07:31:52.188Z</time></trkpt><trkpt lat="43.6987964" lon="12.7938612"><ele>395.2</ele><time>2026-05-02T07:31:53.188Z</time></trkpt><trkpt lat="43.6988946" lon="12.7938316"><ele>390.8</ele><time>2026-05-02T07:31:54.183Z</time></trkpt><trkpt lat="43.6989916" lon="12.7937989"><ele>386.40000000000003</ele><time>2026-05-02T07:31:55.192Z</time></trkpt><trkpt lat="43.6990787" lon="12.7937662"><ele>382.0</ele><time>2026-05-02T07:31:56.186Z</time></trkpt><trkpt lat="43.6991572" lon="12.7937182"><ele>382.0</ele><time>2026-05-02T07:31:57.194Z</time></trkpt><trkpt lat="43.6992251" lon="12.7936516"><ele>382.0</ele><time>2026-05-02T07:31:58.183Z</time></trkpt><trkpt lat="43.6992751" lon="12.7935885"><ele>382.0</ele><time>2026-05-02T07:31:59.183Z</time></trkpt><trkpt lat="43.6993333" lon="12.7934466"><ele>382.0</ele><time>2026-05-02T07:32:01.185Z</time></trkpt><trkpt lat="43.6993838" lon="12.7933755"><ele>382.0</ele><time>2026-05-02T07:32:03.187Z</time></trkpt><trkpt lat="43.699403" lon="12.79351"><ele>382.0</ele><time>2026-05-02T07:32:06.19Z</time></trkpt><trkpt lat="43.6993648" lon="12.7936089"><ele>382.0</ele><time>2026-05-02T07:32:07.186Z</time></trkpt><trkpt lat="43.6993229" lon="12.793725"><ele>382.0</ele><time>2026-05-02T07:32:08.19Z</time></trkpt><trkpt lat="43.6992763" lon="12.7938591"><ele>382.0</ele><time>2026-05-02T07:32:09.187Z</time></trkpt><trkpt lat="43.6992145" lon="12.794004"><ele>382.0</ele><time>2026-05-02T07:32:10.187Z</time></trkpt><trkpt lat="43.699141" lon="12.7941528"><ele>382.0</ele><time>2026-05-02T07:32:11.189Z</time></trkpt><trkpt lat="43.6990398" lon="12.7942822"><ele>382.0</ele><time>2026-05-02T07:32:12.187Z</time></trkpt><trkpt lat="43.6989262" lon="12.7943827"><ele>382.0</ele><time>2026-05-02T07:32:13.187Z</time></trkpt><trkpt lat="43.6988166" lon="12.7944742"><ele>382.0</ele><time>2026-05-02T07:32:14.192Z</time></trkpt><trkpt lat="43.6987488" lon="12.7945695"><ele>378.6</ele><time>2026-05-02T07:32:15.19Z</time></trkpt><trkpt lat="43.6987174" lon="12.7946966"><ele>375.20000000000005</ele><time>2026-05-02T07:32:16.191Z</time></trkpt><trkpt lat="43.6987122" lon="12.7948566"><ele>371.8</ele><time>2026-05-02T07:32:17.181Z</time></trkpt><trkpt lat="43.6987047" lon="12.7950135"><ele>368.4</ele><time>2026-05-02T07:32:18.187Z</time></trkpt><trkpt lat="43.6986845" lon="12.7951624"><ele>365.0</ele><time>2026-05-02T07:32:19.189Z</time></trkpt><trkpt lat="43.6986365" lon="12.7953035"><ele>363.5</ele><time>2026-05-02T07:32:20.186Z</time></trkpt><trkpt lat="43.6985873" lon="12.7954485"><ele>362.0</ele><time>2026-05-02T07:32:21.19Z</time></trkpt><trkpt lat="43.6985308" lon="12.7955946"><ele>360.5</ele><time>2026-05-02T07:32:22.185Z</time></trkpt><trkpt lat="43.6984842" lon="12.7957594"><ele>359.0</ele><time>2026-05-02T07:32:23.185Z</time></trkpt><trkpt lat="43.6984509" lon="12.7959414"><ele>362.0</ele><time>2026-05-02T07:32:24.184Z</time></trkpt><trkpt lat="43.6984381" lon="12.7961342"><ele>365.0</ele><time>2026-05-02T07:32:25.185Z</time></trkpt><trkpt lat="43.6984297" lon="12.7963249"><ele>368.0</ele><time>2026-05-02T07:32:26.19Z</time></trkpt><trkpt lat="43.6984046" lon="12.7965117"><ele>371.0</ele><time>2026-05-02T07:32:27.192Z</time></trkpt><trkpt lat="43.698361" lon="12.7966902"><ele>368.5</ele><time>2026-05-02T07:32:28.194Z</time></trkpt><trkpt lat="43.6982983" lon="12.7968731"><ele>366.0</ele><time>2026-05-02T07:32:29.195Z</time></trkpt><trkpt lat="43.6982308" lon="12.7970525"><ele>363.5</ele><time>2026-05-02T07:32:30.19Z</time></trkpt><trkpt lat="43.6981522" lon="12.7972386"><ele>361.0</ele><time>2026-05-02T07:32:31.196Z</time></trkpt><trkpt lat="43.6980649" lon="12.7974165"><ele>361.0</ele><time>2026-05-02T07:32:32.184Z</time></trkpt><trkpt lat="43.6979607" lon="12.7975769"><ele>361.0</ele><time>2026-05-02T07:32:33.192Z</time></trkpt><trkpt lat="43.6978406" lon="12.7977256"><ele>361.0</ele><time>2026-05-02T07:32:34.188Z</time></trkpt><trkpt lat="43.6977156" lon="12.7978509"><ele>362.0</ele><time>2026-05-02T07:32:35.192Z</time></trkpt><trkpt lat="43.6975895" lon="12.7979603"><ele>363.0</ele><time>2026-05-02T07:32:36.19Z</time></trkpt><trkpt lat="43.6974708" lon="12.7980627"><ele>364.0</ele><time>2026-05-02T07:32:37.195Z</time></trkpt><trkpt lat="43.6973519" lon="12.79817"><ele>365.0</ele><time>2026-05-02T07:32:38.197Z</time></trkpt><trkpt lat="43.6972399" lon="12.7982924"><ele>365.0</ele><time>2026-05-02T07:32:39.195Z</time></trkpt><trkpt lat="43.6971305" lon="12.7984027"><ele>365.0</ele><time>2026-05-02T07:32:40.198Z</time></trkpt><trkpt lat="43.6970194" lon="12.79851"><ele>365.0</ele><time>2026-05-02T07:32:41.198Z</time></trkpt><trkpt lat="43.6969152" lon="12.7986084"><ele>365.0</ele><time>2026-05-02T07:32:42.194Z</time></trkpt><trkpt lat="43.6968173" lon="12.7987046"><ele>367.75</ele><time>2026-05-02T07:32:43.195Z</time></trkpt><trkpt lat="43.6967244" lon="12.7988078"><ele>370.5</ele><time>2026-05-02T07:32:44.198Z</time></trkpt><trkpt lat="43.6966469" lon="12.7989219"><ele>373.25</ele><time>2026-05-02T07:32:45.201Z</time></trkpt><trkpt lat="43.696574" lon="12.7990425"><ele>376.0</ele><time>2026-05-02T07:32:46.199Z</time></trkpt><trkpt lat="43.6965116" lon="12.7991699"><ele>376.0</ele><time>2026-05-02T07:32:47.196Z</time></trkpt><trkpt lat="43.6964565" lon="12.7992933"><ele>376.0</ele><time>2026-05-02T07:32:48.188Z</time></trkpt><trkpt lat="43.6964088" lon="12.7994214"><ele>376.0</ele><time>2026-05-02T07:32:49.191Z</time></trkpt><trkpt lat="43.6963624" lon="12.7995664"><ele>376.0</ele><time>2026-05-02T07:32:50.193Z</time></trkpt><trkpt lat="43.6963204" lon="12.7997283"><ele>376.0</ele><time>2026-05-02T07:32:51.195Z</time></trkpt><trkpt lat="43.6962846" lon="12.7999044"><ele>377.75</ele><time>2026-05-02T07:32:52.194Z</time></trkpt><trkpt lat="43.6962476" lon="12.8000779"><ele>379.5</ele><time>2026-05-02T07:32:53.192Z</time></trkpt><trkpt lat="43.6962071" lon="12.8002496"><ele>381.25</ele><time>2026-05-02T07:32:54.195Z</time></trkpt><trkpt lat="43.6961592" lon="12.8004154"><ele>383.0</ele><time>2026-05-02T07:32:55.203Z</time></trkpt><trkpt lat="43.6961139" lon="12.8005847"><ele>376.5</ele><time>2026-05-02T07:32:56.179Z</time></trkpt><trkpt lat="43.6960818" lon="12.8007441"><ele>370.0</ele><time>2026-05-02T07:32:57.198Z</time></trkpt><trkpt lat="43.6960598" lon="12.8009077"><ele>363.5</ele><time>2026-05-02T07:32:58.195Z</time></trkpt><trkpt lat="43.6960459" lon="12.8010748"><ele>357.0</ele><time>2026-05-02T07:32:59.2Z</time></trkpt><trkpt lat="43.6960378" lon="12.801239"><ele>356.25</ele><time>2026-05-02T07:33:00.196Z</time></trkpt><trkpt lat="43.6960319" lon="12.8014031"><ele>355.5</ele><time>2026-05-02T07:33:01.198Z</time></trkpt><trkpt lat="43.6960236" lon="12.8015764"><ele>354.75</ele><time>2026-05-02T07:33:02.194Z</time></trkpt><trkpt lat="43.6960162" lon="12.8017635"><ele>354.0</ele><time>2026-05-02T07:33:03.195Z</time></trkpt><trkpt lat="43.6960107" lon="12.8019646"><ele>353.6666666666667</ele><time>2026-05-02T07:33:04.195Z</time></trkpt><trkpt lat="43.6960018" lon="12.8021849"><ele>353.33333333333337</ele><time>2026-05-02T07:33:05.194Z</time></trkpt><trkpt lat="43.6959931" lon="12.8023982"><ele>353.0</ele><time>2026-05-02T07:33:06.193Z</time></trkpt><trkpt lat="43.6959757" lon="12.802598"><ele>353.0</ele><time>2026-05-02T07:33:07.191Z</time></trkpt><trkpt lat="43.6959594" lon="12.8027839"><ele>353.0</ele><time>2026-05-02T07:33:08.187Z</time></trkpt><trkpt lat="43.6959224" lon="12.8029399"><ele>353.0</ele><time>2026-05-02T07:33:09.195Z</time></trkpt><trkpt lat="43.6958797" lon="12.8030822"><ele>353.0</ele><time>2026-05-02T07:33:10.193Z</time></trkpt><trkpt lat="43.6958461" lon="12.803234"><ele>353.0</ele><time>2026-05-02T07:33:11.195Z</time></trkpt><trkpt lat="43.6958402" lon="12.8034027"><ele>353.0</ele><time>2026-05-02T07:33:12.195Z</time></trkpt><trkpt lat="43.6958539" lon="12.803583"><ele>353.0</ele><time>2026-05-02T07:33:13.194Z</time></trkpt><trkpt lat="43.695885" lon="12.8037672"><ele>353.0</ele><time>2026-05-02T07:33:14.194Z</time></trkpt><trkpt lat="43.6959314" lon="12.8039428"><ele>350.25</ele><time>2026-05-02T07:33:15.196Z</time></trkpt><trkpt lat="43.6959832" lon="12.8041117"><ele>347.5</ele><time>2026-05-02T07:33:16.201Z</time></trkpt><trkpt lat="43.6960465" lon="12.8042664"><ele>344.75</ele><time>2026-05-02T07:33:17.192Z</time></trkpt><trkpt lat="43.6961138" lon="12.8044205"><ele>342.0</ele><time>2026-05-02T07:33:18.197Z</time></trkpt><trkpt lat="43.6961694" lon="12.8045785"><ele>340.40000000000003</ele><time>2026-05-02T07:33:19.194Z</time></trkpt><trkpt lat="43.6961959" lon="12.8047267"><ele>338.8</ele><time>2026-05-02T07:33:20.182Z</time></trkpt><trkpt lat="43.696176" lon="12.804871"><ele>337.2</ele><time>2026-05-02T07:33:21.198Z</time></trkpt><trkpt lat="43.6961489" lon="12.8050205"><ele>335.6</ele><time>2026-05-02T07:33:22.2Z</time></trkpt><trkpt lat="43.6961191" lon="12.8051571"><ele>334.0</ele><time>2026-05-02T07:33:23.206Z</time></trkpt><trkpt lat="43.6961144" lon="12.8052872"><ele>331.79999999999995</ele><time>2026-05-02T07:33:24.201Z</time></trkpt><trkpt lat="43.6961299" lon="12.8054093"><ele>329.59999999999997</ele><time>2026-05-02T07:33:25.206Z</time></trkpt><trkpt lat="43.696168" lon="12.8055278"><ele>327.4</ele><time>2026-05-02T07:33:26.206Z</time></trkpt><trkpt lat="43.6962294" lon="12.8056463"><ele>325.2</ele><time>2026-05-02T07:33:27.2Z</time></trkpt><trkpt lat="43.6963137" lon="12.8057723"><ele>323.0</ele><time>2026-05-02T07:33:28.211Z</time></trkpt><trkpt lat="43.6964242" lon="12.8059019"><ele>321.5</ele><time>2026-05-02T07:33:29.21Z</time></trkpt><trkpt lat="43.6965331" lon="12.8060283"><ele>320.0</ele><time>2026-05-02T07:33:30.217Z</time></trkpt><trkpt lat="43.6966332" lon="12.8061529"><ele>318.5</ele><time>2026-05-02T07:33:31.204Z</time></trkpt><trkpt lat="43.6967162" lon="12.8062724"><ele>317.0</ele><time>2026-05-02T07:33:32.209Z</time></trkpt><trkpt lat="43.6967677" lon="12.8064127"><ele>317.0</ele><time>2026-05-02T07:33:33.208Z</time></trkpt><trkpt lat="43.6967831" lon="12.8065721"><ele>317.0</ele><time>2026-05-02T07:33:34.209Z</time></trkpt><trkpt lat="43.6967601" lon="12.8067438"><ele>317.0</ele><time>2026-05-02T07:33:35.208Z</time></trkpt><trkpt lat="43.6967087" lon="12.806909"><ele>317.0</ele><time>2026-05-02T07:33:36.208Z</time></trkpt><trkpt lat="43.6966308" lon="12.8070546"><ele>316.0</ele><time>2026-05-02T07:33:37.199Z</time></trkpt><trkpt lat="43.6965373" lon="12.8071807"><ele>315.0</ele><time>2026-05-02T07:33:38.208Z</time></trkpt><trkpt lat="43.6964307" lon="12.8072624"><ele>314.0</ele><time>2026-05-02T07:33:39.203Z</time></trkpt><trkpt lat="43.6963149" lon="12.8072998"><ele>313.0</ele><time>2026-05-02T07:33:40.21Z</time></trkpt><trkpt lat="43.6961889" lon="12.8072908"><ele>309.0</ele><time>2026-05-02T07:33:41.201Z</time></trkpt><trkpt lat="43.6960639" lon="12.8072492"><ele>305.0</ele><time>2026-05-02T07:33:42.198Z</time></trkpt><trkpt lat="43.6959555" lon="12.8072012"><ele>301.0</ele><time>2026-05-02T07:33:43.202Z</time></trkpt><trkpt lat="43.6958644" lon="12.8071628"><ele>297.0</ele><time>2026-05-02T07:33:44.201Z</time></trkpt><trkpt lat="43.6957877" lon="12.8071653"><ele>293.0</ele><time>2026-05-02T07:33:45.204Z</time></trkpt><trkpt lat="43.6957275" lon="12.8072153"><ele>293.0</ele><time>2026-05-02T07:33:46.214Z</time></trkpt><trkpt lat="43.6956994" lon="12.8073057"><ele>293.0</ele><time>2026-05-02T07:33:47.209Z</time></trkpt><trkpt lat="43.695725" lon="12.807411"><ele>293.0</ele><time>2026-05-02T07:33:48.213Z</time></trkpt><trkpt lat="43.6957859" lon="12.8075298"><ele>293.0</ele><time>2026-05-02T07:33:49.204Z</time></trkpt><trkpt lat="43.6958521" lon="12.8076513"><ele>293.0</ele><time>2026-05-02T07:33:50.207Z</time></trkpt><trkpt lat="43.6959096" lon="12.8077677"><ele>290.8</ele><time>2026-05-02T07:33:51.201Z</time></trkpt><trkpt lat="43.6959558" lon="12.8078842"><ele>288.6</ele><time>2026-05-02T07:33:52.207Z</time></trkpt><trkpt lat="43.6959955" lon="12.808006"><ele>286.4</ele><time>2026-05-02T07:33:53.2Z</time></trkpt><trkpt lat="43.6960179" lon="12.8081096"><ele>284.2</ele><time>2026-05-02T07:33:54.209Z</time></trkpt><trkpt lat="43.6959598" lon="12.808228"><ele>282.0</ele><time>2026-05-02T07:33:56.208Z</time></trkpt><trkpt lat="43.6958272" lon="12.8081519"><ele>282.0</ele><time>2026-05-02T07:33:58.2Z</time></trkpt><trkpt lat="43.6957502" lon="12.8080308"><ele>282.0</ele><time>2026-05-02T07:33:59.202Z</time></trkpt><trkpt lat="43.6956614" lon="12.8079006"><ele>282.0</ele><time>2026-05-02T07:34:00.197Z</time></trkpt><trkpt lat="43.69556" lon="12.8077677"><ele>282.0</ele><time>2026-05-02T07:34:01.2Z</time></trkpt><trkpt lat="43.6954581" lon="12.8076313"><ele>284.75</ele><time>2026-05-02T07:34:02.199Z</time></trkpt><trkpt lat="43.6953567" lon="12.8074968"><ele>287.5</ele><time>2026-05-02T07:34:03.2Z</time></trkpt><trkpt lat="43.6952611" lon="12.8073708"><ele>290.25</ele><time>2026-05-02T07:34:04.195Z</time></trkpt><trkpt lat="43.6951652" lon="12.8072427"><ele>293.0</ele><time>2026-05-02T07:34:05.196Z</time></trkpt><trkpt lat="43.6950717" lon="12.8071233"><ele>288.5</ele><time>2026-05-02T07:34:06.196Z</time></trkpt><trkpt lat="43.694979" lon="12.8070104"><ele>284.0</ele><time>2026-05-02T07:34:07.202Z</time></trkpt><trkpt lat="43.6948902" lon="12.8068963"><ele>279.5</ele><time>2026-05-02T07:34:08.2Z</time></trkpt><trkpt lat="43.694794" lon="12.8067865"><ele>275.0</ele><time>2026-05-02T07:34:09.199Z</time></trkpt><trkpt lat="43.6946961" lon="12.8066873"><ele>275.0</ele><time>2026-05-02T07:34:10.204Z</time></trkpt><trkpt lat="43.6945911" lon="12.8066078"><ele>275.0</ele><time>2026-05-02T07:34:11.2Z</time></trkpt><trkpt lat="43.6944826" lon="12.8065488"><ele>275.0</ele><time>2026-05-02T07:34:12.202Z</time></trkpt><trkpt lat="43.6943693" lon="12.8065116"><ele>275.0</ele><time>2026-05-02T07:34:13.201Z</time></trkpt><trkpt lat="43.6942513" lon="12.8064696"><ele>267.75</ele><time>2026-05-02T07:34:14.201Z</time></trkpt><trkpt lat="43.6941337" lon="12.8064258"><ele>260.5</ele><time>2026-05-02T07:34:15.198Z</time></trkpt><trkpt lat="43.6940244" lon="12.8063558"><ele>253.25</ele><time>2026-05-02T07:34:16.205Z</time></trkpt><trkpt lat="43.6939203" lon="12.8062536"><ele>246.0</ele><time>2026-05-02T07:34:17.196Z</time></trkpt><trkpt lat="43.6938175" lon="12.8061376"><ele>246.0</ele><time>2026-05-02T07:34:18.202Z</time></trkpt><trkpt lat="43.6937148" lon="12.8060282"><ele>246.00000000000003</ele><time>2026-05-02T07:34:19.193Z</time></trkpt><trkpt lat="43.6936175" lon="12.805948"><ele>246.00000000000003</ele><time>2026-05-02T07:34:20.198Z</time></trkpt><trkpt lat="43.6935197" lon="12.805886"><ele>246.0</ele><time>2026-05-02T07:34:21.2Z</time></trkpt><trkpt lat="43.6934336" lon="12.8058273"><ele>246.0</ele><time>2026-05-02T07:34:22.2Z</time></trkpt><trkpt lat="43.6933521" lon="12.8057653"><ele>246.0</ele><time>2026-05-02T07:34:23.203Z</time></trkpt><trkpt lat="43.6932732" lon="12.8057096"><ele>246.0</ele><time>2026-05-02T07:34:24.199Z</time></trkpt><trkpt lat="43.6932066" lon="12.805675"><ele>246.0</ele><time>2026-05-02T07:34:25.202Z</time></trkpt><trkpt lat="43.6931369" lon="12.8056601"><ele>246.0</ele><time>2026-05-02T07:34:26.204Z</time></trkpt><trkpt lat="43.6930742" lon="12.8056831"><ele>246.0</ele><time>2026-05-02T07:34:27.209Z</time></trkpt><trkpt lat="43.6930267" lon="12.8057629"><ele>246.0</ele><time>2026-05-02T07:34:28.209Z</time></trkpt><trkpt lat="43.6930047" lon="12.8058813"><ele>243.16666666666666</ele><time>2026-05-02T07:34:29.216Z</time></trkpt><trkpt lat="43.692984" lon="12.8060106"><ele>240.33333333333331</ele><time>2026-05-02T07:34:30.205Z</time></trkpt><trkpt lat="43.6929558" lon="12.8061246"><ele>237.5</ele><time>2026-05-02T07:34:31.203Z</time></trkpt><trkpt lat="43.6929244" lon="12.8062326"><ele>234.66666666666666</ele><time>2026-05-02T07:34:32.209Z</time></trkpt><trkpt lat="43.6928846" lon="12.8063391"><ele>231.83333333333331</ele><time>2026-05-02T07:34:33.2Z</time></trkpt><trkpt lat="43.6928361" lon="12.8064379"><ele>229.0</ele><time>2026-05-02T07:34:34.202Z</time></trkpt><trkpt lat="43.6927811" lon="12.8065164"><ele>229.0</ele><time>2026-05-02T07:34:35.204Z</time></trkpt><trkpt lat="43.6927183" lon="12.8065703"><ele>228.99999999999997</ele><time>2026-05-02T07:34:36.199Z</time></trkpt><trkpt lat="43.6926682" lon="12.8066285"><ele>228.99999999999997</ele><time>2026-05-02T07:34:37.202Z</time></trkpt><trkpt lat="43.6926786" lon="12.8067491"><ele>229.0</ele><time>2026-05-02T07:34:39.203Z</time></trkpt><trkpt lat="43.6928053" lon="12.8067647"><ele>229.0</ele><time>2026-05-02T07:34:41.208Z</time></trkpt><trkpt lat="43.6929024" lon="12.8067278"><ele>229.0</ele><time>2026-05-02T07:34:42.203Z</time></trkpt><trkpt lat="43.6929942" lon="12.806688"><ele>228.99999999999997</ele><time>2026-05-02T07:34:43.204Z</time></trkpt><trkpt lat="43.6930694" lon="12.8066613"><ele>228.99999999999997</ele><time>2026-05-02T07:34:44.198Z</time></trkpt><trkpt lat="43.6931664" lon="12.8066833"><ele>229.0</ele><time>2026-05-02T07:34:46.204Z</time></trkpt><trkpt lat="43.6931319" lon="12.8068076"><ele>229.0</ele><time>2026-05-02T07:34:48.199Z</time></trkpt><trkpt lat="43.6930434" lon="12.8068828"><ele>226.0</ele><time>2026-05-02T07:34:49.199Z</time></trkpt><trkpt lat="43.6929368" lon="12.8069586"><ele>223.0</ele><time>2026-05-02T07:34:50.201Z</time></trkpt><trkpt lat="43.6928241" lon="12.8070355"><ele>220.0</ele><time>2026-05-02T07:34:51.197Z</time></trkpt><trkpt lat="43.6927096" lon="12.807114"><ele>217.0</ele><time>2026-05-02T07:34:52.2Z</time></trkpt><trkpt lat="43.692598" lon="12.8071972"><ele>217.0</ele><time>2026-05-02T07:34:53.199Z</time></trkpt><trkpt lat="43.6924945" lon="12.8072811"><ele>217.0</ele><time>2026-05-02T07:34:54.197Z</time></trkpt><trkpt lat="43.6923954" lon="12.8073599"><ele>217.0</ele><time>2026-05-02T07:34:55.198Z</time></trkpt><trkpt lat="43.6923131" lon="12.8074229"><ele>217.0</ele><time>2026-05-02T07:34:56.195Z</time></trkpt><trkpt lat="43.6922496" lon="12.8074746"><ele>217.0</ele><time>2026-05-02T07:34:57.195Z</time></trkpt><trkpt lat="43.6922152" lon="12.8076068"><ele>213.2</ele><time>2026-05-02T07:34:59.2Z</time></trkpt><trkpt lat="43.6922652" lon="12.8076876"><ele>209.39999999999998</ele><time>2026-05-02T07:35:00.199Z</time></trkpt><trkpt lat="43.6923568" lon="12.8077634"><ele>205.60000000000002</ele><time>2026-05-02T07:35:01.192Z</time></trkpt><trkpt lat="43.6924669" lon="12.8078415"><ele>201.8</ele><time>2026-05-02T07:35:02.202Z</time></trkpt><trkpt lat="43.6925818" lon="12.8079167"><ele>198.0</ele><time>2026-05-02T07:35:03.203Z</time></trkpt><trkpt lat="43.6926989" lon="12.8079935"><ele>198.0</ele><time>2026-05-02T07:35:04.195Z</time></trkpt><trkpt lat="43.692821" lon="12.8080874"><ele>198.0</ele><time>2026-05-02T07:35:05.198Z</time></trkpt><trkpt lat="43.6929313" lon="12.8082132"><ele>198.0</ele><time>2026-05-02T07:35:06.202Z</time></trkpt><trkpt lat="43.6930304" lon="12.8083796"><ele>198.0</ele><time>2026-05-02T07:35:07.198Z</time></trkpt><trkpt lat="43.6931194" lon="12.8085646"><ele>194.66666666666666</ele><time>2026-05-02T07:35:08.2Z</time></trkpt><trkpt lat="43.6931997" lon="12.8087444"><ele>191.33333333333331</ele><time>2026-05-02T07:35:09.199Z</time></trkpt><trkpt lat="43.6932791" lon="12.8089141"><ele>188.0</ele><time>2026-05-02T07:35:10.198Z</time></trkpt><trkpt lat="43.6933485" lon="12.8091029"><ele>188.0</ele><time>2026-05-02T07:35:11.199Z</time></trkpt><trkpt lat="43.6934069" lon="12.8092863"><ele>188.0</ele><time>2026-05-02T07:35:12.199Z</time></trkpt><trkpt lat="43.6934658" lon="12.8094874"><ele>188.0</ele><time>2026-05-02T07:35:13.198Z</time></trkpt><trkpt lat="43.6935357" lon="12.8096687"><ele>187.75</ele><time>2026-05-02T07:35:14.196Z</time></trkpt><trkpt lat="43.6936032" lon="12.8098353"><ele>187.5</ele><time>2026-05-02T07:35:15.189Z</time></trkpt><trkpt lat="43.6936691" lon="12.8099769"><ele>187.25</ele><time>2026-05-02T07:35:16.189Z</time></trkpt><trkpt lat="43.6937257" lon="12.8100938"><ele>187.0</ele><time>2026-05-02T07:35:17.19Z</time></trkpt><trkpt lat="43.6937692" lon="12.8102103"><ele>186.0</ele><time>2026-05-02T07:35:18.19Z</time></trkpt><trkpt lat="43.6937985" lon="12.810335"><ele>185.0</ele><time>2026-05-02T07:35:19.192Z</time></trkpt><trkpt lat="43.6937926" lon="12.8104698"><ele>184.0</ele><time>2026-05-02T07:35:20.199Z</time></trkpt><trkpt lat="43.6937467" lon="12.8106467"><ele>183.0</ele><time>2026-05-02T07:35:21.188Z</time></trkpt><trkpt lat="43.6936629" lon="12.810838"><ele>177.0</ele><time>2026-05-02T07:35:22.193Z</time></trkpt><trkpt lat="43.6935707" lon="12.8110156"><ele>171.0</ele><time>2026-05-02T07:35:23.193Z</time></trkpt><trkpt lat="43.6934862" lon="12.8111982"><ele>165.0</ele><time>2026-05-02T07:35:24.192Z</time></trkpt><trkpt lat="43.693404" lon="12.8113748"><ele>165.0</ele><time>2026-05-02T07:35:25.194Z</time></trkpt><trkpt lat="43.6933319" lon="12.8115354"><ele>165.0</ele><time>2026-05-02T07:35:26.198Z</time></trkpt><trkpt lat="43.6932473" lon="12.8116761"><ele>165.0</ele><time>2026-05-02T07:35:27.199Z</time></trkpt><trkpt lat="43.6931537" lon="12.8117729"><ele>165.0</ele><time>2026-05-02T07:35:28.192Z</time></trkpt><trkpt lat="43.6930428" lon="12.8118355"><ele>162.0</ele><time>2026-05-02T07:35:29.198Z</time></trkpt><trkpt lat="43.6929397" lon="12.8118675"><ele>159.0</ele><time>2026-05-02T07:35:30.192Z</time></trkpt><trkpt lat="43.6928242" lon="12.8118893"><ele>156.0</ele><time>2026-05-02T07:35:31.192Z</time></trkpt><trkpt lat="43.6927021" lon="12.8118995"><ele>153.0</ele><time>2026-05-02T07:35:32.2Z</time></trkpt><trkpt lat="43.6925794" lon="12.8118831"><ele>153.0</ele><time>2026-05-02T07:35:33.198Z</time></trkpt><trkpt lat="43.6924571" lon="12.8118375"><ele>153.0</ele><time>2026-05-02T07:35:34.2Z</time></trkpt><trkpt lat="43.6923366" lon="12.8117685"><ele>153.0</ele><time>2026-05-02T07:35:35.198Z</time></trkpt><trkpt lat="43.6922089" lon="12.8116637"><ele>153.0</ele><time>2026-05-02T07:35:36.192Z</time></trkpt><trkpt lat="43.6920843" lon="12.8115547"><ele>153.0</ele><time>2026-05-02T07:35:37.195Z</time></trkpt><trkpt lat="43.6919551" lon="12.8114572"><ele>153.0</ele><time>2026-05-02T07:35:38.193Z</time></trkpt><trkpt lat="43.6918334" lon="12.8113604"><ele>153.0</ele><time>2026-05-02T07:35:39.199Z</time></trkpt><trkpt lat="43.6917227" lon="12.8112583"><ele>153.0</ele><time>2026-05-02T07:35:40.192Z</time></trkpt><trkpt lat="43.691629" lon="12.8111507"><ele>150.0</ele><time>2026-05-02T07:35:41.189Z</time></trkpt><trkpt lat="43.6915462" lon="12.811045"><ele>147.0</ele><time>2026-05-02T07:35:42.192Z</time></trkpt><trkpt lat="43.6914516" lon="12.8109486"><ele>144.0</ele><time>2026-05-02T07:35:43.193Z</time></trkpt><trkpt lat="43.6913525" lon="12.8108757"><ele>141.0</ele><time>2026-05-02T07:35:44.194Z</time></trkpt><trkpt lat="43.6912393" lon="12.8108366"><ele>141.0</ele><time>2026-05-02T07:35:45.195Z</time></trkpt><trkpt lat="43.691123" lon="12.8108163"><ele>141.0</ele><time>2026-05-02T07:35:46.2Z</time></trkpt><trkpt lat="43.6910068" lon="12.8107939"><ele>141.0</ele><time>2026-05-02T07:35:47.196Z</time></trkpt><trkpt lat="43.6908887" lon="12.8107772"><ele>141.0</ele><time>2026-05-02T07:35:48.194Z</time></trkpt><trkpt lat="43.6907641" lon="12.8107623"><ele>137.25</ele><time>2026-05-02T07:35:49.195Z</time></trkpt><trkpt lat="43.6906358" lon="12.8107503"><ele>133.5</ele><time>2026-05-02T07:35:50.197Z</time></trkpt><trkpt lat="43.690503" lon="12.8107452"><ele>129.75</ele><time>2026-05-02T07:35:51.204Z</time></trkpt><trkpt lat="43.6903765" lon="12.8107456"><ele>126.0</ele><time>2026-05-02T07:35:52.198Z</time></trkpt><trkpt lat="43.6902629" lon="12.8107422"><ele>124.19999999999999</ele><time>2026-05-02T07:35:53.203Z</time></trkpt><trkpt lat="43.690154" lon="12.8107427"><ele>122.39999999999999</ele><time>2026-05-02T07:35:54.194Z</time></trkpt><trkpt lat="43.6900493" lon="12.8107531"><ele>120.6</ele><time>2026-05-02T07:35:55.194Z</time></trkpt><trkpt lat="43.6899591" lon="12.8107641"><ele>118.8</ele><time>2026-05-02T07:35:56.196Z</time></trkpt><trkpt lat="43.6898771" lon="12.8107733"><ele>117.0</ele><time>2026-05-02T07:35:57.189Z</time></trkpt><trkpt lat="43.6898138" lon="12.8107803"><ele>117.0</ele><time>2026-05-02T07:35:58.193Z</time></trkpt><trkpt lat="43.6897215" lon="12.8107928"><ele>116.99999999999999</ele><time>2026-05-02T07:36:00.192Z</time></trkpt><trkpt lat="43.6896383" lon="12.8107555"><ele>116.99999999999999</ele><time>2026-05-02T07:36:04.192Z</time></trkpt><trkpt lat="43.6895758" lon="12.8107064"><ele>117.0</ele><time>2026-05-02T07:36:05.201Z</time></trkpt><trkpt lat="43.689503" lon="12.8106215"><ele>117.0</ele><time>2026-05-02T07:36:06.19Z</time></trkpt><trkpt lat="43.689432" lon="12.8105163"><ele>117.5</ele><time>2026-05-02T07:36:07.191Z</time></trkpt><trkpt lat="43.6893599" lon="12.8104084"><ele>118.0</ele><time>2026-05-02T07:36:08.19Z</time></trkpt><trkpt lat="43.6892821" lon="12.8102981"><ele>118.5</ele><time>2026-05-02T07:36:09.188Z</time></trkpt><trkpt lat="43.6892012" lon="12.8101796"><ele>119.0</ele><time>2026-05-02T07:36:10.194Z</time></trkpt><trkpt lat="43.6891122" lon="12.8100649"><ele>119.0</ele><time>2026-05-02T07:36:11.196Z</time></trkpt><trkpt lat="43.6890197" lon="12.8099518"><ele>119.0</ele><time>2026-05-02T07:36:12.198Z</time></trkpt><trkpt lat="43.6889278" lon="12.8098279"><ele>119.0</ele><time>2026-05-02T07:36:13.199Z</time></trkpt><trkpt lat="43.6888544" lon="12.8096951"><ele>119.0</ele><time>2026-05-02T07:36:14.198Z</time></trkpt><trkpt lat="43.6887769" lon="12.8095647"><ele>119.0</ele><time>2026-05-02T07:36:15.198Z</time></trkpt><trkpt lat="43.6887033" lon="12.8094272"><ele>119.0</ele><time>2026-05-02T07:36:16.199Z</time></trkpt><trkpt lat="43.6886358" lon="12.8092818"><ele>119.0</ele><time>2026-05-02T07:36:17.198Z</time></trkpt><trkpt lat="43.6885703" lon="12.8091398"><ele>119.0</ele><time>2026-05-02T07:36:18.196Z</time></trkpt><trkpt lat="43.6884963" lon="12.8090024"><ele>118.75</ele><time>2026-05-02T07:36:19.197Z</time></trkpt><trkpt lat="43.6884196" lon="12.8088724"><ele>118.5</ele><time>2026-05-02T07:36:20.193Z</time></trkpt><trkpt lat="43.6883445" lon="12.8087415"><ele>118.25</ele><time>2026-05-02T07:36:21.199Z</time></trkpt><trkpt lat="43.688273" lon="12.8086164"><ele>118.0</ele><time>2026-05-02T07:36:22.193Z</time></trkpt><trkpt lat="43.6882024" lon="12.8084908"><ele>118.0</ele><time>2026-05-02T07:36:23.198Z</time></trkpt><trkpt lat="43.6881344" lon="12.8083621"><ele>118.0</ele><time>2026-05-02T07:36:24.197Z</time></trkpt><trkpt lat="43.6880624" lon="12.8082392"><ele>118.0</ele><time>2026-05-02T07:36:25.197Z</time></trkpt><trkpt lat="43.687993" lon="12.8081127"><ele>118.0</ele><time>2026-05-02T07:36:26.189Z</time></trkpt><trkpt lat="43.6879276" lon="12.8079937"><ele>118.0</ele><time>2026-05-02T07:36:27.199Z</time></trkpt><trkpt lat="43.687862" lon="12.8078703"><ele>118.00000000000001</ele><time>2026-05-02T07:36:28.194Z</time></trkpt><trkpt lat="43.6877913" lon="12.8077466"><ele>118.00000000000001</ele><time>2026-05-02T07:36:29.199Z</time></trkpt><trkpt lat="43.6877244" lon="12.8076224"><ele>118.0</ele><time>2026-05-02T07:36:30.201Z</time></trkpt><trkpt lat="43.6876647" lon="12.8074908"><ele>118.0</ele><time>2026-05-02T07:36:31.199Z</time></trkpt><trkpt lat="43.687622" lon="12.8073533"><ele>115.75</ele><time>2026-05-02T07:36:32.198Z</time></trkpt><trkpt lat="43.6876007" lon="12.8072024"><ele>113.5</ele><time>2026-05-02T07:36:33.192Z</time></trkpt><trkpt lat="43.6875977" lon="12.8070418"><ele>111.25</ele><time>2026-05-02T07:36:34.206Z</time></trkpt><trkpt lat="43.6876107" lon="12.8068689"><ele>109.0</ele><time>2026-05-02T07:36:35.195Z</time></trkpt><trkpt lat="43.6876441" lon="12.8066897"><ele>109.25</ele><time>2026-05-02T07:36:36.199Z</time></trkpt><trkpt lat="43.6876972" lon="12.8065181"><ele>109.5</ele><time>2026-05-02T07:36:37.192Z</time></trkpt><trkpt lat="43.6877587" lon="12.8063454"><ele>109.75</ele><time>2026-05-02T07:36:38.193Z</time></trkpt><trkpt lat="43.687826" lon="12.8061706"><ele>110.0</ele><time>2026-05-02T07:36:39.195Z</time></trkpt><trkpt lat="43.6878969" lon="12.805995"><ele>110.0</ele><time>2026-05-02T07:36:40.195Z</time></trkpt><trkpt lat="43.687968" lon="12.8058176"><ele>110.0</ele><time>2026-05-02T07:36:41.2Z</time></trkpt><trkpt lat="43.688044" lon="12.805637"><ele>110.0</ele><time>2026-05-02T07:36:42.195Z</time></trkpt><trkpt lat="43.6881172" lon="12.8054609"><ele>110.0</ele><time>2026-05-02T07:36:43.198Z</time></trkpt><trkpt lat="43.6881762" lon="12.8052804"><ele>108.5</ele><time>2026-05-02T07:36:44.193Z</time></trkpt><trkpt lat="43.6882351" lon="12.8051192"><ele>107.0</ele><time>2026-05-02T07:36:45.196Z</time></trkpt><trkpt lat="43.6882866" lon="12.8049774"><ele>105.5</ele><time>2026-05-02T07:36:46.191Z</time></trkpt><trkpt lat="43.6883297" lon="12.8048287"><ele>104.0</ele><time>2026-05-02T07:36:47.186Z</time></trkpt><trkpt lat="43.6883793" lon="12.8046854"><ele>103.99999999999999</ele><time>2026-05-02T07:36:48.189Z</time></trkpt><trkpt lat="43.6884242" lon="12.8045572"><ele>104.0</ele><time>2026-05-02T07:36:49.184Z</time></trkpt><trkpt lat="43.6884717" lon="12.8044437"><ele>104.0</ele><time>2026-05-02T07:36:50.188Z</time></trkpt><trkpt lat="43.6885137" lon="12.8043428"><ele>104.0</ele><time>2026-05-02T07:36:51.184Z</time></trkpt><trkpt lat="43.688551" lon="12.8042506"><ele>103.99999999999999</ele><time>2026-05-02T07:36:52.188Z</time></trkpt><trkpt lat="43.6885884" lon="12.8041731"><ele>104.0</ele><time>2026-05-02T07:36:53.19Z</time></trkpt><trkpt lat="43.6886516" lon="12.804039"><ele>107.33333333333333</ele><time>2026-05-02T07:36:55.188Z</time></trkpt><trkpt lat="43.6886938" lon="12.8039247"><ele>110.66666666666666</ele><time>2026-05-02T07:36:57.187Z</time></trkpt><trkpt lat="43.6887301" lon="12.8038074"><ele>114.0</ele><time>2026-05-02T07:36:59.184Z</time></trkpt><trkpt lat="43.688771" lon="12.8036903"><ele>117.33333333333334</ele><time>2026-05-02T07:37:01.189Z</time></trkpt><trkpt lat="43.6888025" lon="12.8035858"><ele>120.66666666666667</ele><time>2026-05-02T07:37:03.187Z</time></trkpt><trkpt lat="43.6888432" lon="12.8034914"><ele>124.0</ele><time>2026-05-02T07:37:06.189Z</time></trkpt><trkpt lat="43.6888092" lon="12.8034061"><ele>124.00000000000001</ele><time>2026-05-02T07:37:59.192Z</time></trkpt><trkpt lat="43.6887556" lon="12.8033569"><ele>124.0</ele><time>2026-05-02T07:38:00.189Z</time></trkpt><trkpt lat="43.6886811" lon="12.8033322"><ele>124.0</ele><time>2026-05-02T07:38:01.189Z</time></trkpt><trkpt lat="43.6885911" lon="12.803312"><ele>124.0</ele><time>2026-05-02T07:38:02.188Z</time></trkpt><trkpt lat="43.6884916" lon="12.8032991"><ele>124.00000000000001</ele><time>2026-05-02T07:38:03.192Z</time></trkpt><trkpt lat="43.6883839" lon="12.8032872"><ele>124.0</ele><time>2026-05-02T07:38:04.19Z</time></trkpt><trkpt lat="43.6882718" lon="12.8032723"><ele>116.5</ele><time>2026-05-02T07:38:05.191Z</time></trkpt><trkpt lat="43.6881622" lon="12.8032567"><ele>109.0</ele><time>2026-05-02T07:38:06.191Z</time></trkpt><trkpt lat="43.6880485" lon="12.8032444"><ele>101.5</ele><time>2026-05-02T07:38:07.194Z</time></trkpt><trkpt lat="43.6879287" lon="12.8032355"><ele>94.0</ele><time>2026-05-02T07:38:08.19Z</time></trkpt><trkpt lat="43.6878112" lon="12.8032234"><ele>96.5</ele><time>2026-05-02T07:38:09.192Z</time></trkpt><trkpt lat="43.6876935" lon="12.8032043"><ele>99.0</ele><time>2026-05-02T07:38:10.196Z</time></trkpt><trkpt lat="43.6875735" lon="12.8031849"><ele>101.5</ele><time>2026-05-02T07:38:11.188Z</time></trkpt><trkpt lat="43.6874534" lon="12.8031609"><ele>104.0</ele><time>2026-05-02T07:38:12.188Z</time></trkpt><trkpt lat="43.6873369" lon="12.8031428"><ele>104.0</ele><time>2026-05-02T07:38:13.191Z</time></trkpt><trkpt lat="43.6872191" lon="12.8031252"><ele>104.0</ele><time>2026-05-02T07:38:14.19Z</time></trkpt><trkpt lat="43.687104" lon="12.803107"><ele>104.0</ele><time>2026-05-02T07:38:15.192Z</time></trkpt><trkpt lat="43.6869895" lon="12.8030877"><ele>104.0</ele><time>2026-05-02T07:38:16.19Z</time></trkpt><trkpt lat="43.6868795" lon="12.8030699"><ele>105.4</ele><time>2026-05-02T07:38:17.188Z</time></trkpt><trkpt lat="43.6867743" lon="12.8030523"><ele>106.80000000000001</ele><time>2026-05-02T07:38:18.195Z</time></trkpt><trkpt lat="43.6866692" lon="12.8030406"><ele>108.19999999999999</ele><time>2026-05-02T07:38:19.192Z</time></trkpt><trkpt lat="43.6865632" lon="12.8030343"><ele>109.6</ele><time>2026-05-02T07:38:20.188Z</time></trkpt><trkpt lat="43.686452" lon="12.8030648"><ele>111.0</ele><time>2026-05-02T07:38:21.197Z</time></trkpt><trkpt lat="43.686342" lon="12.8031151"><ele>111.0</ele><time>2026-05-02T07:38:22.196Z</time></trkpt><trkpt lat="43.6862328" lon="12.8031567"><ele>111.0</ele><time>2026-05-02T07:38:23.204Z</time></trkpt><trkpt lat="43.686122" lon="12.803192"><ele>111.0</ele><time>2026-05-02T07:38:24.198Z</time></trkpt><trkpt lat="43.6860095" lon="12.8032164"><ele>111.0</ele><time>2026-05-02T07:38:25.199Z</time></trkpt><trkpt lat="43.6858993" lon="12.8032462"><ele>112.19999999999999</ele><time>2026-05-02T07:38:26.199Z</time></trkpt><trkpt lat="43.6857863" lon="12.8032763"><ele>113.39999999999999</ele><time>2026-05-02T07:38:27.195Z</time></trkpt><trkpt lat="43.6856747" lon="12.8033131"><ele>114.6</ele><time>2026-05-02T07:38:28.195Z</time></trkpt><trkpt lat="43.6855671" lon="12.8033528"><ele>115.8</ele><time>2026-05-02T07:38:29.196Z</time></trkpt><trkpt lat="43.6854645" lon="12.8033916"><ele>117.0</ele><time>2026-05-02T07:38:30.198Z</time></trkpt><trkpt lat="43.6853671" lon="12.8034293"><ele>117.0</ele><time>2026-05-02T07:38:31.194Z</time></trkpt><trkpt lat="43.6852776" lon="12.8034635"><ele>116.99999999999999</ele><time>2026-05-02T07:38:32.197Z</time></trkpt><trkpt lat="43.6851837" lon="12.803502"><ele>116.99999999999999</ele><time>2026-05-02T07:38:33.198Z</time></trkpt><trkpt lat="43.6850836" lon="12.80355"><ele>117.0</ele><time>2026-05-02T07:38:34.199Z</time></trkpt><trkpt lat="43.6849749" lon="12.8036008"><ele>117.0</ele><time>2026-05-02T07:38:35.195Z</time></trkpt><trkpt lat="43.6848636" lon="12.80365"><ele>116.5</ele><time>2026-05-02T07:38:36.195Z</time></trkpt><trkpt lat="43.6847453" lon="12.8037037"><ele>116.0</ele><time>2026-05-02T07:38:37.197Z</time></trkpt><trkpt lat="43.6846207" lon="12.8037576"><ele>115.5</ele><time>2026-05-02T07:38:38.196Z</time></trkpt><trkpt lat="43.6844959" lon="12.8038127"><ele>115.0</ele><time>2026-05-02T07:38:39.2Z</time></trkpt><trkpt lat="43.6843714" lon="12.8038688"><ele>115.0</ele><time>2026-05-02T07:38:40.204Z</time></trkpt><trkpt lat="43.684248" lon="12.8039214"><ele>115.0</ele><time>2026-05-02T07:38:41.198Z</time></trkpt><trkpt lat="43.6841325" lon="12.8039734"><ele>115.0</ele><time>2026-05-02T07:38:42.196Z</time></trkpt><trkpt lat="43.6840248" lon="12.8040187"><ele>115.0</ele><time>2026-05-02T07:38:43.195Z</time></trkpt><trkpt lat="43.6839285" lon="12.8040518"><ele>115.0</ele><time>2026-05-02T07:38:44.19Z</time></trkpt><trkpt lat="43.6838338" lon="12.8040654"><ele>115.0</ele><time>2026-05-02T07:38:45.197Z</time></trkpt><trkpt lat="43.6837453" lon="12.8040401"><ele>115.0</ele><time>2026-05-02T07:38:46.198Z</time></trkpt><trkpt lat="43.6836591" lon="12.8039816"><ele>115.0</ele><time>2026-05-02T07:38:47.19Z</time></trkpt><trkpt lat="43.6835778" lon="12.8039044"><ele>115.0</ele><time>2026-05-02T07:38:48.197Z</time></trkpt><trkpt lat="43.683497" lon="12.8037965"><ele>116.0</ele><time>2026-05-02T07:38:49.195Z</time></trkpt><trkpt lat="43.6834174" lon="12.8036703"><ele>117.0</ele><time>2026-05-02T07:38:50.196Z</time></trkpt><trkpt lat="43.683342" lon="12.8035432"><ele>118.0</ele><time>2026-05-02T07:38:51.196Z</time></trkpt><trkpt lat="43.6832619" lon="12.8034159"><ele>119.0</ele><time>2026-05-02T07:38:52.2Z</time></trkpt><trkpt lat="43.6831774" lon="12.8032829"><ele>119.0</ele><time>2026-05-02T07:38:53.201Z</time></trkpt><trkpt lat="43.6830941" lon="12.8031457"><ele>119.0</ele><time>2026-05-02T07:38:54.199Z</time></trkpt><trkpt lat="43.6830053" lon="12.8030224"><ele>119.0</ele><time>2026-05-02T07:38:55.195Z</time></trkpt><trkpt lat="43.6829124" lon="12.8029215"><ele>119.0</ele><time>2026-05-02T07:38:56.208Z</time></trkpt><trkpt lat="43.682803" lon="12.8028697"><ele>119.5</ele><time>2026-05-02T07:38:57.2Z</time></trkpt><trkpt lat="43.6826801" lon="12.8028507"><ele>120.0</ele><time>2026-05-02T07:38:58.2Z</time></trkpt><trkpt lat="43.6825434" lon="12.8028516"><ele>120.5</ele><time>2026-05-02T07:38:59.201Z</time></trkpt><trkpt lat="43.6824026" lon="12.8028527"><ele>121.0</ele><time>2026-05-02T07:39:00.202Z</time></trkpt><trkpt lat="43.6822588" lon="12.8028575"><ele>121.0</ele><time>2026-05-02T07:39:01.205Z</time></trkpt><trkpt lat="43.6821145" lon="12.8028672"><ele>121.0</ele><time>2026-05-02T07:39:02.198Z</time></trkpt><trkpt lat="43.6819796" lon="12.8029114"><ele>121.0</ele><time>2026-05-02T07:39:03.204Z</time></trkpt><trkpt lat="43.6818771" lon="12.8029656"><ele>121.0</ele><time>2026-05-02T07:39:04.197Z</time></trkpt><trkpt lat="43.6817794" lon="12.8030335"><ele>122.00000000000001</ele><time>2026-05-02T07:39:05.196Z</time></trkpt><trkpt lat="43.6816885" lon="12.8031031"><ele>123.0</ele><time>2026-05-02T07:39:06.196Z</time></trkpt><trkpt lat="43.6816049" lon="12.8031563"><ele>124.0</ele><time>2026-05-02T07:39:07.195Z</time></trkpt><trkpt lat="43.6815274" lon="12.8031724"><ele>125.0</ele><time>2026-05-02T07:39:08.197Z</time></trkpt><trkpt lat="43.6814526" lon="12.8031678"><ele>126.00000000000001</ele><time>2026-05-02T07:39:09.191Z</time></trkpt><trkpt lat="43.6813764" lon="12.803153"><ele>127.0</ele><time>2026-05-02T07:39:10.188Z</time></trkpt><trkpt lat="43.6812959" lon="12.803117"><ele>127.00000000000001</ele><time>2026-05-02T07:39:11.197Z</time></trkpt><trkpt lat="43.6812161" lon="12.8030638"><ele>127.0</ele><time>2026-05-02T07:39:12.188Z</time></trkpt><trkpt lat="43.6811378" lon="12.8029913"><ele>127.0</ele><time>2026-05-02T07:39:13.196Z</time></trkpt><trkpt lat="43.6810674" lon="12.8029052"><ele>127.0</ele><time>2026-05-02T07:39:14.195Z</time></trkpt><trkpt lat="43.6810058" lon="12.8028235"><ele>127.00000000000001</ele><time>2026-05-02T07:39:15.194Z</time></trkpt><trkpt lat="43.6809621" lon="12.8027555"><ele>127.0</ele><time>2026-05-02T07:39:16.193Z</time></trkpt><trkpt lat="43.6808902" lon="12.8027467"><ele>131.83333333333334</ele><time>2026-05-02T07:39:18.196Z</time></trkpt><trkpt lat="43.680911" lon="12.8028817"><ele>136.66666666666669</ele><time>2026-05-02T07:39:20.191Z</time></trkpt><trkpt lat="43.6809638" lon="12.8029896"><ele>141.5</ele><time>2026-05-02T07:39:21.185Z</time></trkpt><trkpt lat="43.6810101" lon="12.8030872"><ele>146.33333333333334</ele><time>2026-05-02T07:39:22.186Z</time></trkpt><trkpt lat="43.681032" lon="12.8031729"><ele>151.16666666666666</ele><time>2026-05-02T07:39:23.191Z</time></trkpt><trkpt lat="43.6809848" lon="12.8032327"><ele>156.0</ele><time>2026-05-02T07:39:25.196Z</time></trkpt><trkpt lat="43.6809305" lon="12.8030736"><ele>156.0</ele><time>2026-05-02T07:39:27.194Z</time></trkpt><trkpt lat="43.6809022" lon="12.8029512"><ele>156.0</ele><time>2026-05-02T07:39:28.189Z</time></trkpt><trkpt lat="43.6808494" lon="12.8028359"><ele>156.0</ele><time>2026-05-02T07:39:29.184Z</time></trkpt><trkpt lat="43.6807725" lon="12.8027221"><ele>156.0</ele><time>2026-05-02T07:39:30.195Z</time></trkpt><trkpt lat="43.6806639" lon="12.8026272"><ele>156.0</ele><time>2026-05-02T07:39:31.184Z</time></trkpt><trkpt lat="43.6805416" lon="12.8025654"><ele>158.5</ele><time>2026-05-02T07:39:32.186Z</time></trkpt><trkpt lat="43.6804292" lon="12.8025349"><ele>161.0</ele><time>2026-05-02T07:39:33.187Z</time></trkpt><trkpt lat="43.6803082" lon="12.8025444"><ele>163.5</ele><time>2026-05-02T07:39:34.191Z</time></trkpt><trkpt lat="43.6801911" lon="12.802585"><ele>166.0</ele><time>2026-05-02T07:39:35.19Z</time></trkpt><trkpt lat="43.6800825" lon="12.8026816"><ele>169.20000000000002</ele><time>2026-05-02T07:39:36.183Z</time></trkpt><trkpt lat="43.6799784" lon="12.8027947"><ele>172.4</ele><time>2026-05-02T07:39:37.18Z</time></trkpt><trkpt lat="43.6798855" lon="12.8028575"><ele>175.6</ele><time>2026-05-02T07:39:38.183Z</time></trkpt><trkpt lat="43.6797955" lon="12.8028637"><ele>178.8</ele><time>2026-05-02T07:39:39.178Z</time></trkpt><trkpt lat="43.6797265" lon="12.8028415"><ele>182.0</ele><time>2026-05-02T07:39:40.18Z</time></trkpt><trkpt lat="43.6796144" lon="12.8028582"><ele>182.0</ele><time>2026-05-02T07:39:42.177Z</time></trkpt><trkpt lat="43.6795453" lon="12.8029899"><ele>182.0</ele><time>2026-05-02T07:39:44.17Z</time></trkpt><trkpt lat="43.6795762" lon="12.8030981"><ele>182.0</ele><time>2026-05-02T07:39:46.176Z</time></trkpt><trkpt lat="43.6796477" lon="12.8030954"><ele>182.0</ele><time>2026-05-02T07:39:47.175Z</time></trkpt><trkpt lat="43.6797435" lon="12.8030731"><ele>182.0</ele><time>2026-05-02T07:39:48.175Z</time></trkpt><trkpt lat="43.6798523" lon="12.8030633"><ele>182.0</ele><time>2026-05-02T07:39:49.179Z</time></trkpt><trkpt lat="43.6799734" lon="12.8030578"><ele>182.0</ele><time>2026-05-02T07:39:50.18Z</time></trkpt><trkpt lat="43.6800906" lon="12.8030417"><ele>182.0</ele><time>2026-05-02T07:39:51.179Z</time></trkpt><trkpt lat="43.6801921" lon="12.8030266"><ele>182.0</ele><time>2026-05-02T07:39:52.18Z</time></trkpt><trkpt lat="43.6802699" lon="12.8030142"><ele>182.0</ele><time>2026-05-02T07:39:53.191Z</time></trkpt><trkpt lat="43.6803767" lon="12.8030475"><ele>182.0</ele><time>2026-05-02T07:39:55.195Z</time></trkpt><trkpt lat="43.6803613" lon="12.8031648"><ele>182.0</ele><time>2026-05-02T07:39:57.192Z</time></trkpt><trkpt lat="43.6803005" lon="12.803209"><ele>182.0</ele><time>2026-05-02T07:39:58.188Z</time></trkpt><trkpt lat="43.6801997" lon="12.8032372"><ele>182.0</ele><time>2026-05-02T07:39:59.179Z</time></trkpt><trkpt lat="43.6800891" lon="12.8032672"><ele>182.0</ele><time>2026-05-02T07:40:00.183Z</time></trkpt><trkpt lat="43.6799587" lon="12.8033073"><ele>182.0</ele><time>2026-05-02T07:40:01.18Z</time></trkpt><trkpt lat="43.6798425" lon="12.8033526"><ele>182.0</ele><time>2026-05-02T07:40:02.18Z</time></trkpt><trkpt lat="43.6797518" lon="12.8034014"><ele>182.0</ele><time>2026-05-02T07:40:03.185Z</time></trkpt><trkpt lat="43.6796908" lon="12.8034594"><ele>182.0</ele><time>2026-05-02T07:40:04.181Z</time></trkpt><trkpt lat="43.67979" lon="12.8035128"><ele>182.0</ele><time>2026-05-02T07:40:07.181Z</time></trkpt><trkpt lat="43.67988" lon="12.8034615"><ele>182.0</ele><time>2026-05-02T07:40:08.175Z</time></trkpt><trkpt lat="43.6799761" lon="12.8033987"><ele>182.0</ele><time>2026-05-02T07:40:09.176Z</time></trkpt><trkpt lat="43.6800744" lon="12.8033578"><ele>182.0</ele><time>2026-05-02T07:40:10.186Z</time></trkpt><trkpt lat="43.680183" lon="12.8033607"><ele>182.0</ele><time>2026-05-02T07:40:11.177Z</time></trkpt><trkpt lat="43.6802939" lon="12.8034078"><ele>182.0</ele><time>2026-05-02T07:40:12.184Z</time></trkpt><trkpt lat="43.6804043" lon="12.8034975"><ele>182.2</ele><time>2026-05-02T07:40:13.19Z</time></trkpt><trkpt lat="43.6804851" lon="12.803592"><ele>182.39999999999998</ele><time>2026-05-02T07:40:14.185Z</time></trkpt><trkpt lat="43.6805272" lon="12.8036778"><ele>182.60000000000002</ele><time>2026-05-02T07:40:15.186Z</time></trkpt><trkpt lat="43.6804926" lon="12.8037562"><ele>182.8</ele><time>2026-05-02T07:40:17.187Z</time></trkpt><trkpt lat="43.6803606" lon="12.8036532"><ele>183.0</ele><time>2026-05-02T07:40:19.184Z</time></trkpt><trkpt lat="43.6802624" lon="12.8035894"><ele>189.60000000000002</ele><time>2026-05-02T07:40:20.183Z</time></trkpt><trkpt lat="43.6801596" lon="12.8035621"><ele>196.20000000000002</ele><time>2026-05-02T07:40:21.181Z</time></trkpt><trkpt lat="43.6800567" lon="12.8035782"><ele>202.8</ele><time>2026-05-02T07:40:22.189Z</time></trkpt><trkpt lat="43.679959" lon="12.8036424"><ele>209.4</ele><time>2026-05-02T07:40:23.188Z</time></trkpt><trkpt lat="43.6798625" lon="12.8037485"><ele>216.0</ele><time>2026-05-02T07:40:24.183Z</time></trkpt><trkpt lat="43.6797664" lon="12.8038695"><ele>216.0</ele><time>2026-05-02T07:40:25.189Z</time></trkpt><trkpt lat="43.6796706" lon="12.803995"><ele>216.0</ele><time>2026-05-02T07:40:26.192Z</time></trkpt><trkpt lat="43.6795727" lon="12.8041134"><ele>216.0</ele><time>2026-05-02T07:40:27.188Z</time></trkpt><trkpt lat="43.6794842" lon="12.804226"><ele>216.0</ele><time>2026-05-02T07:40:28.187Z</time></trkpt><trkpt lat="43.6794139" lon="12.8043427"><ele>219.0</ele><time>2026-05-02T07:40:29.196Z</time></trkpt><trkpt lat="43.679361" lon="12.8044658"><ele>222.00000000000003</ele><time>2026-05-02T07:40:30.186Z</time></trkpt><trkpt lat="43.6793316" lon="12.8046016"><ele>225.00000000000003</ele><time>2026-05-02T07:40:31.181Z</time></trkpt><trkpt lat="43.6793194" lon="12.8047398"><ele>228.0</ele><time>2026-05-02T07:40:32.183Z</time></trkpt><trkpt lat="43.6792979" lon="12.8048506"><ele>231.0</ele><time>2026-05-02T07:40:33.185Z</time></trkpt><trkpt lat="43.6792629" lon="12.8049398"><ele>231.0</ele><time>2026-05-02T07:40:34.181Z</time></trkpt><trkpt lat="43.6792019" lon="12.8049973"><ele>231.00000000000003</ele><time>2026-05-02T07:40:35.183Z</time></trkpt><trkpt lat="43.6791185" lon="12.8050099"><ele>231.00000000000003</ele><time>2026-05-02T07:40:36.183Z</time></trkpt><trkpt lat="43.6790318" lon="12.8049704"><ele>231.0</ele><time>2026-05-02T07:40:37.178Z</time></trkpt><trkpt lat="43.6789302" lon="12.8048896"><ele>231.0</ele><time>2026-05-02T07:40:38.178Z</time></trkpt><trkpt lat="43.6788262" lon="12.8048232"><ele>231.0</ele><time>2026-05-02T07:40:39.181Z</time></trkpt><trkpt lat="43.6787196" lon="12.8047871"><ele>231.0</ele><time>2026-05-02T07:40:40.187Z</time></trkpt><trkpt lat="43.6786419" lon="12.8047815"><ele>231.0</ele><time>2026-05-02T07:40:41.184Z</time></trkpt><trkpt lat="43.6785423" lon="12.8048063"><ele>231.0</ele><time>2026-05-02T07:40:43.19Z</time></trkpt><trkpt lat="43.6785849" lon="12.8048826"><ele>231.0</ele><time>2026-05-02T07:40:45.186Z</time></trkpt><trkpt lat="43.6786705" lon="12.8049029"><ele>231.0</ele><time>2026-05-02T07:40:46.18Z</time></trkpt><trkpt lat="43.6787718" lon="12.8049291"><ele>231.0</ele><time>2026-05-02T07:40:47.178Z</time></trkpt><trkpt lat="43.6788666" lon="12.8049806"><ele>231.0</ele><time>2026-05-02T07:40:48.18Z</time></trkpt><trkpt lat="43.6789689" lon="12.8050473"><ele>231.0</ele><time>2026-05-02T07:40:49.177Z</time></trkpt><trkpt lat="43.6790902" lon="12.8051156"><ele>231.0</ele><time>2026-05-02T07:40:50.179Z</time></trkpt><trkpt lat="43.6792228" lon="12.8051751"><ele>234.25</ele><time>2026-05-02T07:40:51.176Z</time></trkpt><trkpt lat="43.67935" lon="12.8052078"><ele>237.5</ele><time>2026-05-02T07:40:52.185Z</time></trkpt><trkpt lat="43.6794675" lon="12.805194"><ele>240.75</ele><time>2026-05-02T07:40:53.181Z</time></trkpt><trkpt lat="43.6795656" lon="12.8051107"><ele>244.0</ele><time>2026-05-02T07:40:54.18Z</time></trkpt><trkpt lat="43.6796608" lon="12.805007"><ele>244.0</ele><time>2026-05-02T07:40:55.183Z</time></trkpt><trkpt lat="43.6797558" lon="12.804904"><ele>243.99999999999997</ele><time>2026-05-02T07:40:56.185Z</time></trkpt><trkpt lat="43.6798491" lon="12.8048022"><ele>243.99999999999997</ele><time>2026-05-02T07:40:57.184Z</time></trkpt><trkpt lat="43.6799343" lon="12.8047061"><ele>244.0</ele><time>2026-05-02T07:40:58.188Z</time></trkpt><trkpt lat="43.6800165" lon="12.8046302"><ele>244.0</ele><time>2026-05-02T07:40:59.203Z</time></trkpt><trkpt lat="43.6801017" lon="12.8045864"><ele>244.0</ele><time>2026-05-02T07:41:00.2Z</time></trkpt><trkpt lat="43.6801999" lon="12.8045889"><ele>243.99999999999997</ele><time>2026-05-02T07:41:01.203Z</time></trkpt><trkpt lat="43.6802804" lon="12.8046462"><ele>243.99999999999997</ele><time>2026-05-02T07:41:02.204Z</time></trkpt><trkpt lat="43.6803258" lon="12.8047485"><ele>244.0</ele><time>2026-05-02T07:41:03.203Z</time></trkpt><trkpt lat="43.6803193" lon="12.8048799"><ele>244.0</ele><time>2026-05-02T07:41:04.202Z</time></trkpt><trkpt lat="43.6802613" lon="12.8050064"><ele>244.0</ele><time>2026-05-02T07:41:05.197Z</time></trkpt><trkpt lat="43.6801683" lon="12.8050771"><ele>244.0</ele><time>2026-05-02T07:41:06.202Z</time></trkpt><trkpt lat="43.6800546" lon="12.8050977"><ele>244.0</ele><time>2026-05-02T07:41:07.197Z</time></trkpt><trkpt lat="43.6799455" lon="12.8051526"><ele>244.0</ele><time>2026-05-02T07:41:08.189Z</time></trkpt><trkpt lat="43.6798392" lon="12.8052303"><ele>251.0</ele><time>2026-05-02T07:41:09.19Z</time></trkpt><trkpt lat="43.6797416" lon="12.8053245"><ele>258.0</ele><time>2026-05-02T07:41:10.185Z</time></trkpt><trkpt lat="43.6796468" lon="12.8054375"><ele>265.0</ele><time>2026-05-02T07:41:11.177Z</time></trkpt><trkpt lat="43.6795548" lon="12.8055535"><ele>272.0</ele><time>2026-05-02T07:41:12.18Z</time></trkpt><trkpt lat="43.6794743" lon="12.8056699"><ele>271.0</ele><time>2026-05-02T07:41:13.18Z</time></trkpt><trkpt lat="43.679397" lon="12.8057692"><ele>270.0</ele><time>2026-05-02T07:41:14.187Z</time></trkpt><trkpt lat="43.6793216" lon="12.8058393"><ele>269.0</ele><time>2026-05-02T07:41:15.178Z</time></trkpt><trkpt lat="43.6792355" lon="12.8058888"><ele>268.0</ele><time>2026-05-02T07:41:16.184Z</time></trkpt><trkpt lat="43.6791351" lon="12.8059046"><ele>267.0</ele><time>2026-05-02T07:41:17.183Z</time></trkpt><trkpt lat="43.6790194" lon="12.8059162"><ele>267.0</ele><time>2026-05-02T07:41:18.184Z</time></trkpt><trkpt lat="43.6788956" lon="12.8059367"><ele>267.0</ele><time>2026-05-02T07:41:19.184Z</time></trkpt><trkpt lat="43.6787746" lon="12.8059863"><ele>267.0</ele><time>2026-05-02T07:41:20.182Z</time></trkpt><trkpt lat="43.6786676" lon="12.8060534"><ele>267.0</ele><time>2026-05-02T07:41:21.182Z</time></trkpt><trkpt lat="43.6785913" lon="12.8061253"><ele>266.42857142857144</ele><time>2026-05-02T07:41:22.18Z</time></trkpt><trkpt lat="43.6785237" lon="12.8061872"><ele>265.8571428571429</ele><time>2026-05-02T07:41:23.185Z</time></trkpt><trkpt lat="43.6784536" lon="12.8062103"><ele>265.2857142857143</ele><time>2026-05-02T07:41:24.183Z</time></trkpt><trkpt lat="43.6783884" lon="12.8061977"><ele>264.7142857142857</ele><time>2026-05-02T07:41:25.185Z</time></trkpt><trkpt lat="43.678322" lon="12.8061562"><ele>264.1428571428571</ele><time>2026-05-02T07:41:26.186Z</time></trkpt><trkpt lat="43.6782654" lon="12.8060918"><ele>263.57142857142856</ele><time>2026-05-02T07:41:27.18Z</time></trkpt><trkpt lat="43.6782259" lon="12.8060211"><ele>263.0</ele><time>2026-05-02T07:41:28.181Z</time></trkpt><trkpt lat="43.678186" lon="12.8059421"><ele>263.0</ele><time>2026-05-02T07:41:29.187Z</time></trkpt><trkpt lat="43.6780842" lon="12.8058683"><ele>263.0</ele><time>2026-05-02T07:41:31.192Z</time></trkpt><trkpt lat="43.6780118" lon="12.8058895"><ele>263.0</ele><time>2026-05-02T07:41:32.192Z</time></trkpt><trkpt lat="43.6779087" lon="12.8059348"><ele>263.0</ele><time>2026-05-02T07:41:33.189Z</time></trkpt><trkpt lat="43.6777884" lon="12.8059743"><ele>263.0</ele><time>2026-05-02T07:41:34.186Z</time></trkpt><trkpt lat="43.6776609" lon="12.8060039"><ele>271.5</ele><time>2026-05-02T07:41:35.185Z</time></trkpt><trkpt lat="43.6775275" lon="12.8060324"><ele>280.0</ele><time>2026-05-02T07:41:36.186Z</time></trkpt><trkpt lat="43.6773883" lon="12.8060528"><ele>288.5</ele><time>2026-05-02T07:41:37.179Z</time></trkpt><trkpt lat="43.6772514" lon="12.8060679"><ele>297.0</ele><time>2026-05-02T07:41:38.183Z</time></trkpt><trkpt lat="43.6771142" lon="12.8060901"><ele>297.0</ele><time>2026-05-02T07:41:39.179Z</time></trkpt><trkpt lat="43.676979" lon="12.8061069"><ele>297.0</ele><time>2026-05-02T07:41:40.183Z</time></trkpt><trkpt lat="43.6768383" lon="12.8061107"><ele>297.0</ele><time>2026-05-02T07:41:41.182Z</time></trkpt><trkpt lat="43.6767027" lon="12.8061036"><ele>297.0</ele><time>2026-05-02T07:41:42.181Z</time></trkpt><trkpt lat="43.6765859" lon="12.8060891"><ele>296.6</ele><time>2026-05-02T07:41:43.185Z</time></trkpt><trkpt lat="43.6764865" lon="12.8060745"><ele>296.2</ele><time>2026-05-02T07:41:44.185Z</time></trkpt><trkpt lat="43.6764149" lon="12.806032"><ele>295.8</ele><time>2026-05-02T07:41:45.19Z</time></trkpt><trkpt lat="43.6763737" lon="12.8058871"><ele>295.4</ele><time>2026-05-02T07:41:47.185Z</time></trkpt><trkpt lat="43.6763812" lon="12.8057199"><ele>295.0</ele><time>2026-05-02T07:41:49.186Z</time></trkpt><trkpt lat="43.6763196" lon="12.8056787"><ele>295.0</ele><time>2026-05-02T07:41:52.198Z</time></trkpt><trkpt lat="43.6762895" lon="12.8057621"><ele>295.0</ele><time>2026-05-02T07:41:53.192Z</time></trkpt><trkpt lat="43.676254" lon="12.8058659"><ele>295.0</ele><time>2026-05-02T07:41:54.2Z</time></trkpt><trkpt lat="43.6762027" lon="12.8059668"><ele>295.0</ele><time>2026-05-02T07:41:55.196Z</time></trkpt><trkpt lat="43.6761326" lon="12.8060429"><ele>295.0</ele><time>2026-05-02T07:41:56.192Z</time></trkpt><trkpt lat="43.6760417" lon="12.8061026"><ele>295.0</ele><time>2026-05-02T07:41:57.19Z</time></trkpt><trkpt lat="43.6759355" lon="12.8061507"><ele>296.6</ele><time>2026-05-02T07:41:58.191Z</time></trkpt><trkpt lat="43.6758245" lon="12.8061922"><ele>298.2</ele><time>2026-05-02T07:41:59.197Z</time></trkpt><trkpt lat="43.675713" lon="12.8062186"><ele>299.8</ele><time>2026-05-02T07:42:00.197Z</time></trkpt><trkpt lat="43.6756109" lon="12.8062255"><ele>301.4</ele><time>2026-05-02T07:42:01.202Z</time></trkpt><trkpt lat="43.6755166" lon="12.8062287"><ele>303.0</ele><time>2026-05-02T07:42:02.195Z</time></trkpt><trkpt lat="43.6754442" lon="12.8062361"><ele>303.0</ele><time>2026-05-02T07:42:03.201Z</time></trkpt><trkpt lat="43.6753778" lon="12.8063312"><ele>303.0</ele><time>2026-05-02T07:42:05.19Z</time></trkpt><trkpt lat="43.6753069" lon="12.8063719"><ele>303.0</ele><time>2026-05-02T07:42:07.197Z</time></trkpt><trkpt lat="43.6752341" lon="12.8064493"><ele>303.0</ele><time>2026-05-02T07:42:09.196Z</time></trkpt><trkpt lat="43.6751711" lon="12.8065654"><ele>303.0</ele><time>2026-05-02T07:42:11.189Z</time></trkpt><trkpt lat="43.6751255" lon="12.8066268"><ele>303.0</ele><time>2026-05-02T07:42:12.196Z</time></trkpt><trkpt lat="43.6750842" lon="12.8067194"><ele>306.0</ele><time>2026-05-02T07:42:13.19Z</time></trkpt><trkpt lat="43.675057" lon="12.8068359"><ele>309.0</ele><time>2026-05-02T07:42:14.194Z</time></trkpt><trkpt lat="43.6750467" lon="12.8069562"><ele>312.0</ele><time>2026-05-02T07:42:15.196Z</time></trkpt><trkpt lat="43.6750408" lon="12.8070534"><ele>315.0</ele><time>2026-05-02T07:42:16.21Z</time></trkpt><trkpt lat="43.6750322" lon="12.8071478"><ele>318.0</ele><time>2026-05-02T07:42:17.197Z</time></trkpt><trkpt lat="43.6750309" lon="12.8072428"><ele>321.0</ele><time>2026-05-02T07:42:18.193Z</time></trkpt><trkpt lat="43.6750252" lon="12.8073367"><ele>321.0</ele><time>2026-05-02T07:42:19.196Z</time></trkpt><trkpt lat="43.6749855" lon="12.8075068"><ele>321.0</ele><time>2026-05-02T07:42:21.193Z</time></trkpt><trkpt lat="43.6749533" lon="12.807593"><ele>321.0</ele><time>2026-05-02T07:42:22.196Z</time></trkpt><trkpt lat="43.6749205" lon="12.8076882"><ele>321.0</ele><time>2026-05-02T07:42:23.197Z</time></trkpt><trkpt lat="43.6748834" lon="12.8078517"><ele>321.0</ele><time>2026-05-02T07:42:25.194Z</time></trkpt><trkpt lat="43.6748498" lon="12.8080024"><ele>323.6</ele><time>2026-05-02T07:42:27.196Z</time></trkpt><trkpt lat="43.6748437" lon="12.8081278"><ele>326.20000000000005</ele><time>2026-05-02T07:42:29.192Z</time></trkpt><trkpt lat="43.6747744" lon="12.8082037"><ele>328.79999999999995</ele><time>2026-05-02T07:42:31.195Z</time></trkpt><trkpt lat="43.6746425" lon="12.8082143"><ele>331.4</ele><time>2026-05-02T07:42:33.199Z</time></trkpt><trkpt lat="43.674561" lon="12.8082296"><ele>334.0</ele><time>2026-05-02T07:42:34.208Z</time></trkpt><trkpt lat="43.6744782" lon="12.8082418"><ele>335.3333333333333</ele><time>2026-05-02T07:42:35.196Z</time></trkpt><trkpt lat="43.674391" lon="12.8082548"><ele>336.66666666666663</ele><time>2026-05-02T07:42:36.208Z</time></trkpt><trkpt lat="43.6743035" lon="12.8082556"><ele>338.0</ele><time>2026-05-02T07:42:37.207Z</time></trkpt><trkpt lat="43.6742209" lon="12.8082528"><ele>339.3333333333333</ele><time>2026-05-02T07:42:38.205Z</time></trkpt><trkpt lat="43.6741415" lon="12.8082521"><ele>340.6666666666667</ele><time>2026-05-02T07:42:39.205Z</time></trkpt><trkpt lat="43.6740757" lon="12.8082462"><ele>342.0</ele><time>2026-05-02T07:42:40.205Z</time></trkpt><trkpt lat="43.6739945" lon="12.8082156"><ele>342.0</ele><time>2026-05-02T07:42:42.209Z</time></trkpt><trkpt lat="43.673906" lon="12.8082196"><ele>342.0</ele><time>2026-05-02T07:42:44.203Z</time></trkpt><trkpt lat="43.6738431" lon="12.8082401"><ele>342.0</ele><time>2026-05-02T07:42:46.212Z</time></trkpt><trkpt lat="43.6737686" lon="12.8082499"><ele>342.0</ele><time>2026-05-02T07:42:58.204Z</time></trkpt><trkpt lat="43.6736581" lon="12.8082189"><ele>342.0</ele><time>2026-05-02T07:43:01.201Z</time></trkpt><trkpt lat="43.673592" lon="12.8081827"><ele>342.0</ele><time>2026-05-02T07:43:02.203Z</time></trkpt><trkpt lat="43.6735184" lon="12.8081342"><ele>344.6666666666667</ele><time>2026-05-02T07:43:03.197Z</time></trkpt><trkpt lat="43.6734526" lon="12.8080792"><ele>347.3333333333333</ele><time>2026-05-02T07:43:04.189Z</time></trkpt><trkpt lat="43.6733903" lon="12.8080101"><ele>350.0</ele><time>2026-05-02T07:43:05.198Z</time></trkpt><trkpt lat="43.6733315" lon="12.8079367"><ele>352.66666666666663</ele><time>2026-05-02T07:43:06.194Z</time></trkpt><trkpt lat="43.6732802" lon="12.8078669"><ele>355.3333333333333</ele><time>2026-05-02T07:43:07.195Z</time></trkpt><trkpt lat="43.6732143" lon="12.8077313"><ele>358.0</ele><time>2026-05-02T07:43:09.203Z</time></trkpt><trkpt lat="43.6731417" lon="12.8076358"><ele>358.0</ele><time>2026-05-02T07:43:11.194Z</time></trkpt><trkpt lat="43.6730627" lon="12.8076295"><ele>358.0</ele><time>2026-05-02T07:43:13.193Z</time></trkpt><trkpt lat="43.6729652" lon="12.8075726"><ele>358.0</ele><time>2026-05-02T07:43:15.195Z</time></trkpt><trkpt lat="43.6729209" lon="12.8075089"><ele>358.0</ele><time>2026-05-02T07:43:16.213Z</time></trkpt><trkpt lat="43.6728373" lon="12.8073913"><ele>358.0</ele><time>2026-05-02T07:43:18.203Z</time></trkpt><trkpt lat="43.6727539" lon="12.8073257"><ele>363.8333333333333</ele><time>2026-05-02T07:43:20.203Z</time></trkpt><trkpt lat="43.6726464" lon="12.8072481"><ele>369.66666666666663</ele><time>2026-05-02T07:43:26.199Z</time></trkpt><trkpt lat="43.6725942" lon="12.8071862"><ele>375.5</ele><time>2026-05-02T07:43:27.201Z</time></trkpt><trkpt lat="43.6725427" lon="12.8071109"><ele>381.3333333333333</ele><time>2026-05-02T07:43:28.195Z</time></trkpt><trkpt lat="43.6724897" lon="12.8070576"><ele>387.1666666666667</ele><time>2026-05-02T07:43:29.208Z</time></trkpt><trkpt lat="43.6724221" lon="12.8070914"><ele>393.0</ele><time>2026-05-02T07:43:31.204Z</time></trkpt><trkpt lat="43.672427" lon="12.8072143"><ele>393.0</ele><time>2026-05-02T07:43:33.197Z</time></trkpt><trkpt lat="43.6724507" lon="12.8073343"><ele>393.0</ele><time>2026-05-02T07:43:35.193Z</time></trkpt><trkpt lat="43.6724543" lon="12.8074328"><ele>393.0</ele><time>2026-05-02T07:43:37.201Z</time></trkpt><trkpt lat="43.6724459" lon="12.8075837"><ele>393.0</ele><time>2026-05-02T07:43:39.208Z</time></trkpt><trkpt lat="43.6724467" lon="12.8077572"><ele>393.0</ele><time>2026-05-02T07:43:41.203Z</time></trkpt><trkpt lat="43.6724482" lon="12.8078491"><ele>395.59999999999997</ele><time>2026-05-02T07:43:42.203Z</time></trkpt><trkpt lat="43.6724987" lon="12.8079679"><ele>398.2</ele><time>2026-05-02T07:43:44.199Z</time></trkpt><trkpt lat="43.67241" lon="12.8079919"><ele>400.8</ele><time>2026-05-02T07:43:49.203Z</time></trkpt><trkpt lat="43.672344" lon="12.8079267"><ele>403.4</ele><time>2026-05-02T07:43:50.198Z</time></trkpt><trkpt lat="43.6722724" lon="12.8078404"><ele>406.0</ele><time>2026-05-02T07:43:51.211Z</time></trkpt><trkpt lat="43.6721992" lon="12.8077566"><ele>406.00000000000006</ele><time>2026-05-02T07:43:52.199Z</time></trkpt><trkpt lat="43.6721233" lon="12.8076828"><ele>406.0</ele><time>2026-05-02T07:43:53.196Z</time></trkpt><trkpt lat="43.672066" lon="12.8076326"><ele>406.0</ele><time>2026-05-02T07:43:54.202Z</time></trkpt><trkpt lat="43.6719868" lon="12.8076638"><ele>406.0</ele><time>2026-05-02T07:43:56.204Z</time></trkpt><trkpt lat="43.6720229" lon="12.8078155"><ele>406.00000000000006</ele><time>2026-05-02T07:43:58.201Z</time></trkpt><trkpt lat="43.6720575" lon="12.8079113"><ele>406.0</ele><time>2026-05-02T07:43:59.197Z</time></trkpt><trkpt lat="43.6720845" lon="12.807994"><ele>406.00000000000006</ele><time>2026-05-02T07:44:00.2Z</time></trkpt><trkpt lat="43.6720976" lon="12.8080922"><ele>406.0</ele><time>2026-05-02T07:44:01.19Z</time></trkpt><trkpt lat="43.6720966" lon="12.8082061"><ele>406.0</ele><time>2026-05-02T07:44:02.198Z</time></trkpt><trkpt lat="43.6720945" lon="12.8083266"><ele>406.0</ele><time>2026-05-02T07:44:03.197Z</time></trkpt><trkpt lat="43.6720995" lon="12.8084646"><ele>406.00000000000006</ele><time>2026-05-02T07:44:04.199Z</time></trkpt><trkpt lat="43.6721069" lon="12.8086061"><ele>406.0</ele><time>2026-05-02T07:44:05.198Z</time></trkpt><trkpt lat="43.6721032" lon="12.808724"><ele>409.4</ele><time>2026-05-02T07:44:06.194Z</time></trkpt><trkpt lat="43.6721023" lon="12.8088185"><ele>412.8</ele><time>2026-05-02T07:44:07.19Z</time></trkpt><trkpt lat="43.6721623" lon="12.8089744"><ele>416.2</ele><time>2026-05-02T07:44:09.193Z</time></trkpt><trkpt lat="43.6722177" lon="12.8090512"><ele>419.59999999999997</ele><time>2026-05-02T07:44:10.195Z</time></trkpt><trkpt lat="43.6722832" lon="12.8091495"><ele>423.0</ele><time>2026-05-02T07:44:12.195Z</time></trkpt><trkpt lat="43.6722444" lon="12.8092445"><ele>423.0</ele><time>2026-05-02T07:44:15.195Z</time></trkpt><trkpt lat="43.6721743" lon="12.8092484"><ele>423.0</ele><time>2026-05-02T07:44:17.19Z</time></trkpt><trkpt lat="43.672085" lon="12.8092643"><ele>423.0</ele><time>2026-05-02T07:44:19.189Z</time></trkpt><trkpt lat="43.6719797" lon="12.8093297"><ele>423.0</ele><time>2026-05-02T07:44:21.194Z</time></trkpt><trkpt lat="43.6719442" lon="12.8094615"><ele>423.0</ele><time>2026-05-02T07:44:23.198Z</time></trkpt><trkpt lat="43.6719601" lon="12.80955"><ele>423.0</ele><time>2026-05-02T07:44:24.195Z</time></trkpt><trkpt lat="43.6719824" lon="12.809638"><ele>425.85714285714283</ele><time>2026-05-02T07:44:25.194Z</time></trkpt><trkpt lat="43.6720113" lon="12.8097273"><ele>428.7142857142857</ele><time>2026-05-02T07:44:26.19Z</time></trkpt><trkpt lat="43.6720413" lon="12.8098198"><ele>431.57142857142856</ele><time>2026-05-02T07:44:27.193Z</time></trkpt><trkpt lat="43.6720711" lon="12.8099063"><ele>434.42857142857144</ele><time>2026-05-02T07:44:28.189Z</time></trkpt><trkpt lat="43.6721003" lon="12.8099961"><ele>437.28571428571433</ele><time>2026-05-02T07:44:29.192Z</time></trkpt><trkpt lat="43.6721302" lon="12.8100947"><ele>440.14285714285717</ele><time>2026-05-02T07:44:30.189Z</time></trkpt><trkpt lat="43.6721598" lon="12.8101983"><ele>443.0</ele><time>2026-05-02T07:44:31.189Z</time></trkpt><trkpt lat="43.672186" lon="12.8103011"><ele>447.16666666666663</ele><time>2026-05-02T07:44:32.19Z</time></trkpt><trkpt lat="43.6722219" lon="12.8104038"><ele>451.3333333333333</ele><time>2026-05-02T07:44:33.185Z</time></trkpt><trkpt lat="43.6722693" lon="12.8104872"><ele>455.5</ele><time>2026-05-02T07:44:34.188Z</time></trkpt><trkpt lat="43.6723246" lon="12.8105589"><ele>459.66666666666663</ele><time>2026-05-02T07:44:35.192Z</time></trkpt><trkpt lat="43.67238" lon="12.8106335"><ele>463.8333333333333</ele><time>2026-05-02T07:44:36.184Z</time></trkpt><trkpt lat="43.672437" lon="12.8107067"><ele>468.0</ele><time>2026-05-02T07:44:37.194Z</time></trkpt><trkpt lat="43.6724933" lon="12.8107845"><ele>468.0</ele><time>2026-05-02T07:44:38.191Z</time></trkpt><trkpt lat="43.6725591" lon="12.8108704"><ele>468.0</ele><time>2026-05-02T07:44:39.192Z</time></trkpt><trkpt lat="43.6726265" lon="12.8109653"><ele>468.0</ele><time>2026-05-02T07:44:40.187Z</time></trkpt><trkpt lat="43.6726968" lon="12.8110616"><ele>468.0</ele><time>2026-05-02T07:44:41.187Z</time></trkpt><trkpt lat="43.6727626" lon="12.8111504"><ele>468.0</ele><time>2026-05-02T07:44:42.193Z</time></trkpt><trkpt lat="43.6728176" lon="12.8112108"><ele>468.0</ele><time>2026-05-02T07:44:43.191Z</time></trkpt><trkpt lat="43.6728902" lon="12.8113952"><ele>468.3333333333333</ele><time>2026-05-02T07:44:46.193Z</time></trkpt><trkpt lat="43.6728391" lon="12.8114885"><ele>468.66666666666663</ele><time>2026-05-02T07:44:48.194Z</time></trkpt><trkpt lat="43.6727269" lon="12.8115217"><ele>469.0</ele><time>2026-05-02T07:44:50.195Z</time></trkpt><trkpt lat="43.6726458" lon="12.8115249"><ele>469.3333333333333</ele><time>2026-05-02T07:44:51.209Z</time></trkpt><trkpt lat="43.6725626" lon="12.811529"><ele>469.66666666666663</ele><time>2026-05-02T07:44:52.202Z</time></trkpt><trkpt lat="43.672499" lon="12.8115397"><ele>470.0</ele><time>2026-05-02T07:44:53.204Z</time></trkpt><trkpt lat="43.6724031" lon="12.8115541"><ele>471.71428571428567</ele><time>2026-05-02T07:44:55.199Z</time></trkpt><trkpt lat="43.6723474" lon="12.8115011"><ele>473.4285714285714</ele><time>2026-05-02T07:45:08.241Z</time></trkpt><trkpt lat="43.6722833" lon="12.8114254"><ele>475.1428571428571</ele><time>2026-05-02T07:45:10.207Z</time></trkpt><trkpt lat="43.6722323" lon="12.8113627"><ele>476.8571428571429</ele><time>2026-05-02T07:45:11.196Z</time></trkpt><trkpt lat="43.6721773" lon="12.8112939"><ele>478.5714285714286</ele><time>2026-05-02T07:45:12.198Z</time></trkpt><trkpt lat="43.6721139" lon="12.8112266"><ele>480.28571428571433</ele><time>2026-05-02T07:45:13.199Z</time></trkpt><trkpt lat="43.6720554" lon="12.811162"><ele>482.0</ele><time>2026-05-02T07:45:14.199Z</time></trkpt><trkpt lat="43.6720026" lon="12.8111029"><ele>481.99999999999994</ele><time>2026-05-02T07:45:15.2Z</time></trkpt><trkpt lat="43.6719483" lon="12.8110416"><ele>482.0</ele><time>2026-05-02T07:45:16.193Z</time></trkpt><trkpt lat="43.6718922" lon="12.8109905"><ele>482.0</ele><time>2026-05-02T07:45:17.197Z</time></trkpt><trkpt lat="43.6718021" lon="12.8108933"><ele>482.0</ele><time>2026-05-02T07:45:19.194Z</time></trkpt><trkpt lat="43.6717208" lon="12.8108053"><ele>481.99999999999994</ele><time>2026-05-02T07:45:21.201Z</time></trkpt><trkpt lat="43.6716522" lon="12.8107294"><ele>482.0</ele><time>2026-05-02T07:45:23.199Z</time></trkpt><trkpt lat="43.6715857" lon="12.8106526"><ele>481.40000000000003</ele><time>2026-05-02T07:45:25.197Z</time></trkpt><trkpt lat="43.6715491" lon="12.810493"><ele>480.80000000000007</ele><time>2026-05-02T07:45:27.196Z</time></trkpt><trkpt lat="43.6715138" lon="12.8103967"><ele>480.2</ele><time>2026-05-02T07:45:28.189Z</time></trkpt><trkpt lat="43.6714723" lon="12.8102963"><ele>479.6</ele><time>2026-05-02T07:45:29.196Z</time></trkpt><trkpt lat="43.6714268" lon="12.8101928"><ele>479.0</ele><time>2026-05-02T07:45:30.199Z</time></trkpt><trkpt lat="43.6713812" lon="12.8100815"><ele>477.2</ele><time>2026-05-02T07:45:31.193Z</time></trkpt><trkpt lat="43.6713372" lon="12.8099661"><ele>475.4</ele><time>2026-05-02T07:45:32.197Z</time></trkpt><trkpt lat="43.6712921" lon="12.8098559"><ele>473.6</ele><time>2026-05-02T07:45:33.194Z</time></trkpt><trkpt lat="43.6712423" lon="12.809746"><ele>471.8</ele><time>2026-05-02T07:45:34.197Z</time></trkpt><trkpt lat="43.6711979" lon="12.8096376"><ele>470.0</ele><time>2026-05-02T07:45:35.197Z</time></trkpt><trkpt lat="43.6711574" lon="12.8095179"><ele>470.0</ele><time>2026-05-02T07:45:36.198Z</time></trkpt><trkpt lat="43.6711185" lon="12.8093893"><ele>470.0</ele><time>2026-05-02T07:45:37.195Z</time></trkpt><trkpt lat="43.671079" lon="12.8092577"><ele>470.0</ele><time>2026-05-02T07:45:38.199Z</time></trkpt><trkpt lat="43.6710423" lon="12.8091327"><ele>470.0</ele><time>2026-05-02T07:45:39.197Z</time></trkpt><trkpt lat="43.6710075" lon="12.809007"><ele>470.0</ele><time>2026-05-02T07:45:40.197Z</time></trkpt><trkpt lat="43.6709763" lon="12.8088857"><ele>470.4</ele><time>2026-05-02T07:45:41.201Z</time></trkpt><trkpt lat="43.6709459" lon="12.8087586"><ele>470.8</ele><time>2026-05-02T07:45:42.195Z</time></trkpt><trkpt lat="43.6709126" lon="12.8086331"><ele>471.20000000000005</ele><time>2026-05-02T07:45:43.199Z</time></trkpt><trkpt lat="43.6708784" lon="12.808512"><ele>471.6</ele><time>2026-05-02T07:45:44.205Z</time></trkpt><trkpt lat="43.6708391" lon="12.8084039"><ele>472.0</ele><time>2026-05-02T07:45:45.199Z</time></trkpt><trkpt lat="43.6707938" lon="12.808306"><ele>472.00000000000006</ele><time>2026-05-02T07:45:46.202Z</time></trkpt><trkpt lat="43.6707475" lon="12.8082311"><ele>472.0</ele><time>2026-05-02T07:45:47.202Z</time></trkpt><trkpt lat="43.6706929" lon="12.80817"><ele>472.0</ele><time>2026-05-02T07:45:48.205Z</time></trkpt><trkpt lat="43.6706339" lon="12.8081334"><ele>472.0</ele><time>2026-05-02T07:45:49.198Z</time></trkpt><trkpt lat="43.6705596" lon="12.8081346"><ele>472.00000000000006</ele><time>2026-05-02T07:45:50.207Z</time></trkpt><trkpt lat="43.6704513" lon="12.808146"><ele>472.0</ele><time>2026-05-02T07:45:51.203Z</time></trkpt><trkpt lat="43.6703394" lon="12.8081508"><ele>470.0</ele><time>2026-05-02T07:45:52.201Z</time></trkpt><trkpt lat="43.6702367" lon="12.8081213"><ele>468.00000000000006</ele><time>2026-05-02T07:45:53.198Z</time></trkpt><trkpt lat="43.6701329" lon="12.8080827"><ele>466.00000000000006</ele><time>2026-05-02T07:45:54.198Z</time></trkpt><trkpt lat="43.6700299" lon="12.8080448"><ele>464.0</ele><time>2026-05-02T07:45:55.204Z</time></trkpt><trkpt lat="43.6699259" lon="12.8080179"><ele>462.0</ele><time>2026-05-02T07:45:56.202Z</time></trkpt><trkpt lat="43.6698183" lon="12.8079968"><ele>462.0</ele><time>2026-05-02T07:45:57.203Z</time></trkpt><trkpt lat="43.6697056" lon="12.8079781"><ele>462.00000000000006</ele><time>2026-05-02T07:45:58.203Z</time></trkpt><trkpt lat="43.6695961" lon="12.8079446"><ele>462.00000000000006</ele><time>2026-05-02T07:45:59.203Z</time></trkpt><trkpt lat="43.6694899" lon="12.807895"><ele>462.0</ele><time>2026-05-02T07:46:00.203Z</time></trkpt><trkpt lat="43.669388" lon="12.8078319"><ele>462.0</ele><time>2026-05-02T07:46:01.205Z</time></trkpt><trkpt lat="43.6692966" lon="12.8077641"><ele>460.20000000000005</ele><time>2026-05-02T07:46:02.2Z</time></trkpt><trkpt lat="43.6692135" lon="12.8076892"><ele>458.40000000000003</ele><time>2026-05-02T07:46:03.204Z</time></trkpt><trkpt lat="43.6691445" lon="12.807585"><ele>456.59999999999997</ele><time>2026-05-02T07:46:04.203Z</time></trkpt><trkpt lat="43.6690881" lon="12.8074562"><ele>454.79999999999995</ele><time>2026-05-02T07:46:05.208Z</time></trkpt><trkpt lat="43.6690369" lon="12.8073294"><ele>453.0</ele><time>2026-05-02T07:46:06.208Z</time></trkpt><trkpt lat="43.6689826" lon="12.8071988"><ele>453.0</ele><time>2026-05-02T07:46:07.212Z</time></trkpt><trkpt lat="43.6689243" lon="12.80707"><ele>452.99999999999994</ele><time>2026-05-02T07:46:08.207Z</time></trkpt><trkpt lat="43.6688603" lon="12.806939"><ele>452.99999999999994</ele><time>2026-05-02T07:46:09.21Z</time></trkpt><trkpt lat="43.6687978" lon="12.806813"><ele>453.0</ele><time>2026-05-02T07:46:10.209Z</time></trkpt><trkpt lat="43.6687348" lon="12.8066916"><ele>453.0</ele><time>2026-05-02T07:46:11.207Z</time></trkpt><trkpt lat="43.6686729" lon="12.8065659"><ele>450.59999999999997</ele><time>2026-05-02T07:46:12.21Z</time></trkpt><trkpt lat="43.6686131" lon="12.8064432"><ele>448.19999999999993</ele><time>2026-05-02T07:46:13.211Z</time></trkpt><trkpt lat="43.6685505" lon="12.8063219"><ele>445.8</ele><time>2026-05-02T07:46:14.218Z</time></trkpt><trkpt lat="43.6684893" lon="12.8062088"><ele>443.4</ele><time>2026-05-02T07:46:15.215Z</time></trkpt><trkpt lat="43.668428" lon="12.8060999"><ele>441.0</ele><time>2026-05-02T07:46:16.22Z</time></trkpt><trkpt lat="43.6683664" lon="12.8059996"><ele>440.5</ele><time>2026-05-02T07:46:17.215Z</time></trkpt><trkpt lat="43.6683034" lon="12.8059082"><ele>440.0</ele><time>2026-05-02T07:46:18.209Z</time></trkpt><trkpt lat="43.6682495" lon="12.8058332"><ele>439.5</ele><time>2026-05-02T07:46:19.212Z</time></trkpt><trkpt lat="43.6681725" lon="12.8057307"><ele>439.0</ele><time>2026-05-02T07:46:21.212Z</time></trkpt><trkpt lat="43.6681865" lon="12.8056424"><ele>438.5</ele><time>2026-05-02T07:46:38.21Z</time></trkpt><trkpt lat="43.6682291" lon="12.8055636"><ele>438.0</ele><time>2026-05-02T07:46:48.215Z</time></trkpt><trkpt lat="43.6682762" lon="12.8054658"><ele>438.0</ele><time>2026-05-02T07:58:46.314Z</time></trkpt><trkpt lat="43.6683339" lon="12.8053261"><ele>438.0</ele><time>2026-05-02T07:58:48.224Z</time></trkpt><trkpt lat="43.668363" lon="12.8052477"><ele>438.0</ele><time>2026-05-02T07:58:49.218Z</time></trkpt><trkpt lat="43.668398" lon="12.8051724"><ele>438.0</ele><time>2026-05-02T07:58:50.222Z</time></trkpt><trkpt lat="43.668432" lon="12.8050928"><ele>438.0</ele><time>2026-05-02T07:58:51.211Z</time></trkpt><trkpt lat="43.6684676" lon="12.8050042"><ele>438.0</ele><time>2026-05-02T07:58:52.22Z</time></trkpt><trkpt lat="43.6685075" lon="12.8049058"><ele>437.1666666666667</ele><time>2026-05-02T07:58:53.224Z</time></trkpt><trkpt lat="43.6685492" lon="12.8048102"><ele>436.33333333333337</ele><time>2026-05-02T07:58:54.224Z</time></trkpt><trkpt lat="43.668586" lon="12.8047158"><ele>435.5</ele><time>2026-05-02T07:58:55.225Z</time></trkpt><trkpt lat="43.6686202" lon="12.8046215"><ele>434.6666666666667</ele><time>2026-05-02T07:58:56.222Z</time></trkpt><trkpt lat="43.6686515" lon="12.8045294"><ele>433.83333333333337</ele><time>2026-05-02T07:58:57.224Z</time></trkpt><trkpt lat="43.6686785" lon="12.8044337"><ele>433.0</ele><time>2026-05-02T07:58:58.218Z</time></trkpt><trkpt lat="43.6686987" lon="12.8043348"><ele>431.83333333333337</ele><time>2026-05-02T07:58:59.224Z</time></trkpt><trkpt lat="43.6687021" lon="12.8042361"><ele>430.6666666666667</ele><time>2026-05-02T07:59:00.219Z</time></trkpt><trkpt lat="43.6686933" lon="12.80414"><ele>429.5</ele><time>2026-05-02T07:59:01.218Z</time></trkpt><trkpt lat="43.6686705" lon="12.8040553"><ele>428.33333333333337</ele><time>2026-05-02T07:59:02.215Z</time></trkpt><trkpt lat="43.6686072" lon="12.8039295"><ele>427.1666666666667</ele><time>2026-05-02T07:59:04.209Z</time></trkpt><trkpt lat="43.6685385" lon="12.8038428"><ele>426.0</ele><time>2026-05-02T07:59:06.201Z</time></trkpt><trkpt lat="43.6684374" lon="12.8038078"><ele>426.0</ele><time>2026-05-02T07:59:08.211Z</time></trkpt><trkpt lat="43.6683702" lon="12.8038012"><ele>426.0</ele><time>2026-05-02T07:59:09.21Z</time></trkpt><trkpt lat="43.6682938" lon="12.8037909"><ele>426.0</ele><time>2026-05-02T07:59:10.211Z</time></trkpt><trkpt lat="43.6682086" lon="12.8037804"><ele>426.0</ele><time>2026-05-02T07:59:11.206Z</time></trkpt><trkpt lat="43.6681085" lon="12.8037654"><ele>426.0</ele><time>2026-05-02T07:59:12.211Z</time></trkpt><trkpt lat="43.6679995" lon="12.8037446"><ele>426.0</ele><time>2026-05-02T07:59:13.211Z</time></trkpt><trkpt lat="43.6678948" lon="12.8037173"><ele>426.0</ele><time>2026-05-02T07:59:14.207Z</time></trkpt><trkpt lat="43.6677894" lon="12.803677"><ele>426.0</ele><time>2026-05-02T07:59:15.216Z</time></trkpt><trkpt lat="43.6676867" lon="12.8036295"><ele>426.0</ele><time>2026-05-02T07:59:16.215Z</time></trkpt><trkpt lat="43.6675924" lon="12.8035794"><ele>426.0</ele><time>2026-05-02T07:59:17.205Z</time></trkpt><trkpt lat="43.6674945" lon="12.8035278"><ele>426.0</ele><time>2026-05-02T07:59:18.208Z</time></trkpt><trkpt lat="43.6673911" lon="12.8034786"><ele>426.25</ele><time>2026-05-02T07:59:19.206Z</time></trkpt><trkpt lat="43.6672828" lon="12.8034361"><ele>426.5</ele><time>2026-05-02T07:59:20.209Z</time></trkpt><trkpt lat="43.6671704" lon="12.803395"><ele>426.75</ele><time>2026-05-02T07:59:21.207Z</time></trkpt><trkpt lat="43.6670543" lon="12.8033622"><ele>427.0</ele><time>2026-05-02T07:59:22.214Z</time></trkpt><trkpt lat="43.666933" lon="12.8033318"><ele>428.5</ele><time>2026-05-02T07:59:23.214Z</time></trkpt><trkpt lat="43.6668118" lon="12.8032914"><ele>430.0</ele><time>2026-05-02T07:59:24.225Z</time></trkpt><trkpt lat="43.666691" lon="12.8032464"><ele>431.5</ele><time>2026-05-02T07:59:25.219Z</time></trkpt><trkpt lat="43.6665787" lon="12.8032061"><ele>433.0</ele><time>2026-05-02T07:59:26.219Z</time></trkpt><trkpt lat="43.6664664" lon="12.8031577"><ele>433.0</ele><time>2026-05-02T07:59:27.217Z</time></trkpt><trkpt lat="43.6663612" lon="12.803089"><ele>433.0</ele><time>2026-05-02T07:59:28.21Z</time></trkpt><trkpt lat="43.6662605" lon="12.8030002"><ele>433.0</ele><time>2026-05-02T07:59:29.219Z</time></trkpt><trkpt lat="43.6661701" lon="12.8028923"><ele>433.0</ele><time>2026-05-02T07:59:30.214Z</time></trkpt><trkpt lat="43.6660849" lon="12.8027649"><ele>433.25</ele><time>2026-05-02T07:59:31.213Z</time></trkpt><trkpt lat="43.6660072" lon="12.80263"><ele>433.5</ele><time>2026-05-02T07:59:32.212Z</time></trkpt><trkpt lat="43.6659369" lon="12.8024901"><ele>433.75</ele><time>2026-05-02T07:59:33.207Z</time></trkpt><trkpt lat="43.6658725" lon="12.8023445"><ele>434.0</ele><time>2026-05-02T07:59:34.214Z</time></trkpt><trkpt lat="43.6658114" lon="12.8022059"><ele>434.0</ele><time>2026-05-02T07:59:35.204Z</time></trkpt><trkpt lat="43.6657482" lon="12.8020756"><ele>434.0</ele><time>2026-05-02T07:59:36.207Z</time></trkpt><trkpt lat="43.665689" lon="12.8019432"><ele>434.0</ele><time>2026-05-02T07:59:37.206Z</time></trkpt><trkpt lat="43.6656324" lon="12.8018035"><ele>434.0</ele><time>2026-05-02T07:59:38.203Z</time></trkpt><trkpt lat="43.66558" lon="12.8016588"><ele>435.79999999999995</ele><time>2026-05-02T07:59:39.208Z</time></trkpt><trkpt lat="43.6655428" lon="12.8015217"><ele>437.59999999999997</ele><time>2026-05-02T07:59:40.206Z</time></trkpt><trkpt lat="43.6655066" lon="12.8013935"><ele>439.4</ele><time>2026-05-02T07:59:41.196Z</time></trkpt><trkpt lat="43.6654566" lon="12.8012744"><ele>441.2</ele><time>2026-05-02T07:59:42.195Z</time></trkpt><trkpt lat="43.6653859" lon="12.8011786"><ele>443.0</ele><time>2026-05-02T07:59:43.204Z</time></trkpt><trkpt lat="43.6652889" lon="12.8011071"><ele>443.0</ele><time>2026-05-02T07:59:44.197Z</time></trkpt><trkpt lat="43.6651809" lon="12.8010596"><ele>443.0</ele><time>2026-05-02T07:59:45.201Z</time></trkpt><trkpt lat="43.665055" lon="12.8010249"><ele>443.0</ele><time>2026-05-02T07:59:46.206Z</time></trkpt><trkpt lat="43.6649168" lon="12.8009955"><ele>443.0</ele><time>2026-05-02T07:59:47.223Z</time></trkpt><trkpt lat="43.6647735" lon="12.8009604"><ele>443.0</ele><time>2026-05-02T07:59:48.22Z</time></trkpt><trkpt lat="43.6646284" lon="12.8009181"><ele>443.0</ele><time>2026-05-02T07:59:49.214Z</time></trkpt><trkpt lat="43.6644836" lon="12.8008705"><ele>443.0</ele><time>2026-05-02T07:59:50.221Z</time></trkpt><trkpt lat="43.6643426" lon="12.8008354"><ele>443.0</ele><time>2026-05-02T07:59:51.213Z</time></trkpt><trkpt lat="43.6642109" lon="12.8007943"><ele>442.5</ele><time>2026-05-02T07:59:52.224Z</time></trkpt><trkpt lat="43.6640888" lon="12.8007554"><ele>442.0</ele><time>2026-05-02T07:59:53.223Z</time></trkpt><trkpt lat="43.6639572" lon="12.8007154"><ele>441.5</ele><time>2026-05-02T07:59:54.218Z</time></trkpt><trkpt lat="43.6638253" lon="12.8006747"><ele>441.0</ele><time>2026-05-02T07:59:55.227Z</time></trkpt><trkpt lat="43.6636971" lon="12.8006305"><ele>441.5</ele><time>2026-05-02T07:59:56.226Z</time></trkpt><trkpt lat="43.663568" lon="12.8005938"><ele>442.0</ele><time>2026-05-02T07:59:57.225Z</time></trkpt><trkpt lat="43.6634335" lon="12.8005561"><ele>442.5</ele><time>2026-05-02T07:59:58.218Z</time></trkpt><trkpt lat="43.6632998" lon="12.8005166"><ele>443.0</ele><time>2026-05-02T07:59:59.222Z</time></trkpt><trkpt lat="43.663171" lon="12.8004806"><ele>443.0</ele><time>2026-05-02T08:00:00.225Z</time></trkpt><trkpt lat="43.6630359" lon="12.8004416"><ele>443.0</ele><time>2026-05-02T08:00:01.223Z</time></trkpt><trkpt lat="43.6629032" lon="12.8004043"><ele>443.0</ele><time>2026-05-02T08:00:02.223Z</time></trkpt><trkpt lat="43.6627694" lon="12.8003702"><ele>443.0</ele><time>2026-05-02T08:00:03.227Z</time></trkpt><trkpt lat="43.6626358" lon="12.8003298"><ele>442.75</ele><time>2026-05-02T08:00:04.221Z</time></trkpt><trkpt lat="43.6625099" lon="12.8002829"><ele>442.5</ele><time>2026-05-02T08:00:05.221Z</time></trkpt><trkpt lat="43.6623903" lon="12.8002249"><ele>442.25</ele><time>2026-05-02T08:00:06.217Z</time></trkpt><trkpt lat="43.6622794" lon="12.8001544"><ele>442.0</ele><time>2026-05-02T08:00:07.226Z</time></trkpt><trkpt lat="43.6621638" lon="12.8000709"><ele>442.5</ele><time>2026-05-02T08:00:08.223Z</time></trkpt><trkpt lat="43.6620508" lon="12.7999915"><ele>443.0</ele><time>2026-05-02T08:00:09.224Z</time></trkpt><trkpt lat="43.6619453" lon="12.7999127"><ele>443.5</ele><time>2026-05-02T08:00:10.221Z</time></trkpt><trkpt lat="43.6618447" lon="12.7998366"><ele>444.0</ele><time>2026-05-02T08:00:11.219Z</time></trkpt><trkpt lat="43.661745" lon="12.7997684"><ele>441.75</ele><time>2026-05-02T08:00:12.209Z</time></trkpt><trkpt lat="43.6616512" lon="12.7996895"><ele>439.5</ele><time>2026-05-02T08:00:13.202Z</time></trkpt><trkpt lat="43.6615633" lon="12.7995947"><ele>437.25</ele><time>2026-05-02T08:00:14.198Z</time></trkpt><trkpt lat="43.6614828" lon="12.7994816"><ele>435.0</ele><time>2026-05-02T08:00:15.198Z</time></trkpt><trkpt lat="43.6613991" lon="12.7993659"><ele>436.5</ele><time>2026-05-02T08:00:16.208Z</time></trkpt><trkpt lat="43.6613143" lon="12.7992431"><ele>438.0</ele><time>2026-05-02T08:00:17.207Z</time></trkpt><trkpt lat="43.6612296" lon="12.7991205"><ele>439.5</ele><time>2026-05-02T08:00:18.214Z</time></trkpt><trkpt lat="43.6611408" lon="12.799"><ele>441.0</ele><time>2026-05-02T08:00:19.199Z</time></trkpt><trkpt lat="43.6610548" lon="12.798876"><ele>439.0</ele><time>2026-05-02T08:00:20.2Z</time></trkpt><trkpt lat="43.6609766" lon="12.7987477"><ele>437.0</ele><time>2026-05-02T08:00:21.204Z</time></trkpt><trkpt lat="43.6608979" lon="12.7986294"><ele>435.0</ele><time>2026-05-02T08:00:22.198Z</time></trkpt><trkpt lat="43.6608148" lon="12.7985138"><ele>433.0</ele><time>2026-05-02T08:00:23.207Z</time></trkpt><trkpt lat="43.6607245" lon="12.7984018"><ele>433.0</ele><time>2026-05-02T08:00:24.21Z</time></trkpt><trkpt lat="43.660621" lon="12.7982969"><ele>433.0</ele><time>2026-05-02T08:00:25.207Z</time></trkpt><trkpt lat="43.660519" lon="12.7981965"><ele>433.0</ele><time>2026-05-02T08:00:26.21Z</time></trkpt><trkpt lat="43.6604054" lon="12.7981005"><ele>433.0</ele><time>2026-05-02T08:00:27.208Z</time></trkpt><trkpt lat="43.6602929" lon="12.7980069"><ele>430.0</ele><time>2026-05-02T08:00:28.203Z</time></trkpt><trkpt lat="43.6601795" lon="12.7979274"><ele>427.0</ele><time>2026-05-02T08:00:29.212Z</time></trkpt><trkpt lat="43.6600694" lon="12.7978651"><ele>424.0</ele><time>2026-05-02T08:00:30.216Z</time></trkpt><trkpt lat="43.6599608" lon="12.7978321"><ele>421.0</ele><time>2026-05-02T08:00:31.226Z</time></trkpt><trkpt lat="43.6598455" lon="12.7978307"><ele>421.0</ele><time>2026-05-02T08:00:32.215Z</time></trkpt><trkpt lat="43.6597274" lon="12.7978721"><ele>421.0</ele><time>2026-05-02T08:00:33.229Z</time></trkpt><trkpt lat="43.6596104" lon="12.7979618"><ele>421.0</ele><time>2026-05-02T08:00:34.207Z</time></trkpt><trkpt lat="43.6595027" lon="12.7980873"><ele>421.0</ele><time>2026-05-02T08:00:35.208Z</time></trkpt><trkpt lat="43.6593951" lon="12.7982215"><ele>420.75</ele><time>2026-05-02T08:00:36.21Z</time></trkpt><trkpt lat="43.6592839" lon="12.7983412"><ele>420.5</ele><time>2026-05-02T08:00:37.209Z</time></trkpt><trkpt lat="43.6591583" lon="12.7984452"><ele>420.25</ele><time>2026-05-02T08:00:38.213Z</time></trkpt><trkpt lat="43.6590391" lon="12.7985239"><ele>420.0</ele><time>2026-05-02T08:00:39.218Z</time></trkpt><trkpt lat="43.6589282" lon="12.7985873"><ele>420.0</ele><time>2026-05-02T08:00:40.221Z</time></trkpt><trkpt lat="43.6588169" lon="12.7986423"><ele>420.0</ele><time>2026-05-02T08:00:41.212Z</time></trkpt><trkpt lat="43.6586943" lon="12.7986862"><ele>420.0</ele><time>2026-05-02T08:00:42.223Z</time></trkpt><trkpt lat="43.6585789" lon="12.7987134"><ele>420.0</ele><time>2026-05-02T08:00:43.216Z</time></trkpt><trkpt lat="43.6584644" lon="12.7987199"><ele>420.25</ele><time>2026-05-02T08:00:44.22Z</time></trkpt><trkpt lat="43.6583502" lon="12.798737"><ele>420.5</ele><time>2026-05-02T08:00:45.225Z</time></trkpt><trkpt lat="43.6582367" lon="12.7987781"><ele>420.75</ele><time>2026-05-02T08:00:46.219Z</time></trkpt><trkpt lat="43.6581242" lon="12.7988477"><ele>421.0</ele><time>2026-05-02T08:00:47.247Z</time></trkpt><trkpt lat="43.6580206" lon="12.7989443"><ele>421.0</ele><time>2026-05-02T08:00:48.219Z</time></trkpt><trkpt lat="43.6579274" lon="12.7990577"><ele>421.0</ele><time>2026-05-02T08:00:49.228Z</time></trkpt><trkpt lat="43.6578566" lon="12.7991794"><ele>421.0</ele><time>2026-05-02T08:00:50.226Z</time></trkpt><trkpt lat="43.6578119" lon="12.7993085"><ele>421.0</ele><time>2026-05-02T08:00:51.222Z</time></trkpt><trkpt lat="43.6577573" lon="12.7994135"><ele>421.0</ele><time>2026-05-02T08:00:52.22Z</time></trkpt><trkpt lat="43.6576948" lon="12.7994874"><ele>419.20000000000005</ele><time>2026-05-02T08:00:53.221Z</time></trkpt><trkpt lat="43.6576152" lon="12.7995215"><ele>417.40000000000003</ele><time>2026-05-02T08:00:54.22Z</time></trkpt><trkpt lat="43.6575162" lon="12.7995262"><ele>415.6</ele><time>2026-05-02T08:00:55.212Z</time></trkpt><trkpt lat="43.6573962" lon="12.7995342"><ele>413.8</ele><time>2026-05-02T08:00:56.21Z</time></trkpt><trkpt lat="43.6572777" lon="12.7995522"><ele>412.0</ele><time>2026-05-02T08:00:57.209Z</time></trkpt><trkpt lat="43.657173" lon="12.7995856"><ele>412.0</ele><time>2026-05-02T08:00:58.212Z</time></trkpt><trkpt lat="43.6570828" lon="12.7996377"><ele>412.0</ele><time>2026-05-02T08:00:59.205Z</time></trkpt><trkpt lat="43.657004" lon="12.7997085"><ele>412.0</ele><time>2026-05-02T08:01:00.217Z</time></trkpt><trkpt lat="43.6569333" lon="12.7998039"><ele>412.0</ele><time>2026-05-02T08:01:01.222Z</time></trkpt><trkpt lat="43.6568797" lon="12.799918"><ele>412.0</ele><time>2026-05-02T08:01:02.21Z</time></trkpt><trkpt lat="43.6568257" lon="12.8000517"><ele>410.0</ele><time>2026-05-02T08:01:03.215Z</time></trkpt><trkpt lat="43.6567736" lon="12.8001931"><ele>408.0</ele><time>2026-05-02T08:01:04.214Z</time></trkpt><trkpt lat="43.6567172" lon="12.8003147"><ele>406.0</ele><time>2026-05-02T08:01:05.216Z</time></trkpt><trkpt lat="43.6566529" lon="12.80042"><ele>404.0</ele><time>2026-05-02T08:01:06.203Z</time></trkpt><trkpt lat="43.6565825" lon="12.8005176"><ele>402.0</ele><time>2026-05-02T08:01:07.207Z</time></trkpt><trkpt lat="43.656506" lon="12.8006148"><ele>402.0</ele><time>2026-05-02T08:01:08.209Z</time></trkpt><trkpt lat="43.6564298" lon="12.8007187"><ele>402.0</ele><time>2026-05-02T08:01:09.202Z</time></trkpt><trkpt lat="43.6563522" lon="12.8008321"><ele>402.0</ele><time>2026-05-02T08:01:10.207Z</time></trkpt><trkpt lat="43.6562629" lon="12.8009585"><ele>402.0</ele><time>2026-05-02T08:01:11.217Z</time></trkpt><trkpt lat="43.6561734" lon="12.8010942"><ele>400.0</ele><time>2026-05-02T08:01:12.214Z</time></trkpt><trkpt lat="43.6560832" lon="12.8012335"><ele>398.0</ele><time>2026-05-02T08:01:13.217Z</time></trkpt><trkpt lat="43.6559936" lon="12.801384"><ele>396.0</ele><time>2026-05-02T08:01:14.216Z</time></trkpt><trkpt lat="43.6559101" lon="12.8015484"><ele>394.0</ele><time>2026-05-02T08:01:15.211Z</time></trkpt><trkpt lat="43.6558369" lon="12.8017102"><ele>393.25</ele><time>2026-05-02T08:01:16.215Z</time></trkpt><trkpt lat="43.6557555" lon="12.8018756"><ele>392.5</ele><time>2026-05-02T08:01:17.206Z</time></trkpt><trkpt lat="43.6556856" lon="12.8020455"><ele>391.75</ele><time>2026-05-02T08:01:18.207Z</time></trkpt><trkpt lat="43.6556244" lon="12.8022085"><ele>391.0</ele><time>2026-05-02T08:01:19.212Z</time></trkpt><trkpt lat="43.6555586" lon="12.8023689"><ele>391.0</ele><time>2026-05-02T08:01:20.223Z</time></trkpt><trkpt lat="43.6554966" lon="12.8025161"><ele>391.0</ele><time>2026-05-02T08:01:21.212Z</time></trkpt><trkpt lat="43.6554344" lon="12.802642"><ele>391.0</ele><time>2026-05-02T08:01:22.219Z</time></trkpt><trkpt lat="43.6553741" lon="12.802733"><ele>391.0</ele><time>2026-05-02T08:01:23.218Z</time></trkpt><trkpt lat="43.6552986" lon="12.8027863"><ele>391.0</ele><time>2026-05-02T08:01:24.215Z</time></trkpt><trkpt lat="43.6552117" lon="12.8028023"><ele>395.0</ele><time>2026-05-02T08:01:25.201Z</time></trkpt><trkpt lat="43.6551196" lon="12.8027998"><ele>399.0</ele><time>2026-05-02T08:01:26.209Z</time></trkpt><trkpt lat="43.6550149" lon="12.8028021"><ele>403.0</ele><time>2026-05-02T08:01:27.209Z</time></trkpt><trkpt lat="43.654904" lon="12.802811"><ele>407.0</ele><time>2026-05-02T08:01:28.208Z</time></trkpt><trkpt lat="43.6547969" lon="12.8028072"><ele>411.0</ele><time>2026-05-02T08:01:29.213Z</time></trkpt><trkpt lat="43.6547007" lon="12.8027853"><ele>411.0</ele><time>2026-05-02T08:01:30.219Z</time></trkpt><trkpt lat="43.6546072" lon="12.8027381"><ele>411.0</ele><time>2026-05-02T08:01:31.213Z</time></trkpt><trkpt lat="43.6545131" lon="12.8026957"><ele>411.0</ele><time>2026-05-02T08:01:32.218Z</time></trkpt><trkpt lat="43.6544183" lon="12.8026589"><ele>411.0</ele><time>2026-05-02T08:01:33.208Z</time></trkpt><trkpt lat="43.6543207" lon="12.8026212"><ele>411.0</ele><time>2026-05-02T08:01:34.207Z</time></trkpt><trkpt lat="43.6542147" lon="12.8025889"><ele>411.8</ele><time>2026-05-02T08:01:35.208Z</time></trkpt><trkpt lat="43.6541045" lon="12.8025586"><ele>412.6</ele><time>2026-05-02T08:01:36.203Z</time></trkpt><trkpt lat="43.6540026" lon="12.8025298"><ele>413.4</ele><time>2026-05-02T08:01:37.204Z</time></trkpt><trkpt lat="43.6539173" lon="12.8025184"><ele>414.2</ele><time>2026-05-02T08:01:38.206Z</time></trkpt><trkpt lat="43.6538455" lon="12.8025263"><ele>415.0</ele><time>2026-05-02T08:01:39.214Z</time></trkpt><trkpt lat="43.6537835" lon="12.8026542"><ele>416.4</ele><time>2026-05-02T08:01:41.212Z</time></trkpt><trkpt lat="43.6538179" lon="12.802757"><ele>417.8</ele><time>2026-05-02T08:01:42.212Z</time></trkpt><trkpt lat="43.6538666" lon="12.8028715"><ele>419.20000000000005</ele><time>2026-05-02T08:01:43.211Z</time></trkpt><trkpt lat="43.6539036" lon="12.8029984"><ele>420.6</ele><time>2026-05-02T08:01:44.204Z</time></trkpt><trkpt lat="43.6539128" lon="12.8031261"><ele>422.0</ele><time>2026-05-02T08:01:45.22Z</time></trkpt><trkpt lat="43.6538938" lon="12.8032495"><ele>422.0</ele><time>2026-05-02T08:01:46.229Z</time></trkpt><trkpt lat="43.6538529" lon="12.8033822"><ele>422.0</ele><time>2026-05-02T08:01:47.221Z</time></trkpt><trkpt lat="43.6538029" lon="12.8035303"><ele>422.0</ele><time>2026-05-02T08:01:48.227Z</time></trkpt><trkpt lat="43.6537442" lon="12.8036817"><ele>422.0</ele><time>2026-05-02T08:01:49.228Z</time></trkpt><trkpt lat="43.6536863" lon="12.8038413"><ele>422.25</ele><time>2026-05-02T08:01:50.226Z</time></trkpt><trkpt lat="43.6536278" lon="12.8040031"><ele>422.5</ele><time>2026-05-02T08:01:51.232Z</time></trkpt><trkpt lat="43.6535601" lon="12.8041594"><ele>422.75</ele><time>2026-05-02T08:01:52.219Z</time></trkpt><trkpt lat="43.6534825" lon="12.8043107"><ele>423.0</ele><time>2026-05-02T08:01:53.222Z</time></trkpt><trkpt lat="43.6533866" lon="12.8044486"><ele>424.25</ele><time>2026-05-02T08:01:54.225Z</time></trkpt><trkpt lat="43.653281" lon="12.8045639"><ele>425.5</ele><time>2026-05-02T08:01:55.226Z</time></trkpt><trkpt lat="43.6531687" lon="12.8046577"><ele>426.75</ele><time>2026-05-02T08:01:56.222Z</time></trkpt><trkpt lat="43.6530568" lon="12.8047454"><ele>428.0</ele><time>2026-05-02T08:01:57.227Z</time></trkpt><trkpt lat="43.6529461" lon="12.8048308"><ele>428.0</ele><time>2026-05-02T08:01:58.227Z</time></trkpt><trkpt lat="43.6528403" lon="12.8049215"><ele>428.0</ele><time>2026-05-02T08:01:59.222Z</time></trkpt><trkpt lat="43.6527445" lon="12.8050348"><ele>428.0</ele><time>2026-05-02T08:02:00.223Z</time></trkpt><trkpt lat="43.6526597" lon="12.8051713"><ele>428.0</ele><time>2026-05-02T08:02:01.23Z</time></trkpt><trkpt lat="43.6526046" lon="12.8053216"><ele>432.5</ele><time>2026-05-02T08:02:02.217Z</time></trkpt><trkpt lat="43.652557" lon="12.8054822"><ele>437.0</ele><time>2026-05-02T08:02:03.22Z</time></trkpt><trkpt lat="43.6525132" lon="12.805637"><ele>441.5</ele><time>2026-05-02T08:02:04.216Z</time></trkpt><trkpt lat="43.652463" lon="12.8057876"><ele>446.0</ele><time>2026-05-02T08:02:05.214Z</time></trkpt><trkpt lat="43.6524179" lon="12.8059452"><ele>445.75</ele><time>2026-05-02T08:02:06.215Z</time></trkpt><trkpt lat="43.6523679" lon="12.8061132"><ele>445.5</ele><time>2026-05-02T08:02:07.211Z</time></trkpt><trkpt lat="43.6523277" lon="12.8062769"><ele>445.25</ele><time>2026-05-02T08:02:08.202Z</time></trkpt><trkpt lat="43.6522977" lon="12.8064351"><ele>445.0</ele><time>2026-05-02T08:02:09.206Z</time></trkpt><trkpt lat="43.6522598" lon="12.8065814"><ele>445.0</ele><time>2026-05-02T08:02:10.217Z</time></trkpt><trkpt lat="43.6522252" lon="12.806702"><ele>445.0</ele><time>2026-05-02T08:02:11.216Z</time></trkpt><trkpt lat="43.6521903" lon="12.8067934"><ele>445.0</ele><time>2026-05-02T08:02:12.224Z</time></trkpt><trkpt lat="43.6520937" lon="12.8068936"><ele>445.0</ele><time>2026-05-02T08:02:14.211Z</time></trkpt><trkpt lat="43.6519949" lon="12.8069415"><ele>445.0</ele><time>2026-05-02T08:02:16.216Z</time></trkpt><trkpt lat="43.6518769" lon="12.8070105"><ele>445.4</ele><time>2026-05-02T08:02:18.225Z</time></trkpt><trkpt lat="43.6518093" lon="12.8070577"><ele>445.8</ele><time>2026-05-02T08:02:19.212Z</time></trkpt><trkpt lat="43.6517391" lon="12.807114"><ele>446.20000000000005</ele><time>2026-05-02T08:02:20.23Z</time></trkpt><trkpt lat="43.6516579" lon="12.8071833"><ele>446.6</ele><time>2026-05-02T08:02:21.207Z</time></trkpt><trkpt lat="43.6515655" lon="12.8072642"><ele>447.0</ele><time>2026-05-02T08:02:22.216Z</time></trkpt><trkpt lat="43.651465" lon="12.807369"><ele>447.0</ele><time>2026-05-02T08:02:23.21Z</time></trkpt><trkpt lat="43.6513696" lon="12.8074867"><ele>447.0</ele><time>2026-05-02T08:02:24.212Z</time></trkpt><trkpt lat="43.6512764" lon="12.8076117"><ele>447.0</ele><time>2026-05-02T08:02:25.207Z</time></trkpt><trkpt lat="43.651186" lon="12.8077434"><ele>447.0</ele><time>2026-05-02T08:02:26.212Z</time></trkpt><trkpt lat="43.6510904" lon="12.8078661"><ele>443.0</ele><time>2026-05-02T08:02:27.198Z</time></trkpt><trkpt lat="43.6509854" lon="12.8079946"><ele>439.0</ele><time>2026-05-02T08:02:28.199Z</time></trkpt><trkpt lat="43.6508711" lon="12.8081189"><ele>435.0</ele><time>2026-05-02T08:02:29.203Z</time></trkpt><trkpt lat="43.6507633" lon="12.8082351"><ele>431.0</ele><time>2026-05-02T08:02:30.201Z</time></trkpt><trkpt lat="43.650667" lon="12.8083444"><ele>431.0</ele><time>2026-05-02T08:02:31.22Z</time></trkpt><trkpt lat="43.6505749" lon="12.8084514"><ele>431.0</ele><time>2026-05-02T08:02:32.208Z</time></trkpt><trkpt lat="43.6504785" lon="12.8085605"><ele>431.0</ele><time>2026-05-02T08:02:33.202Z</time></trkpt><trkpt lat="43.6503762" lon="12.8086723"><ele>431.0</ele><time>2026-05-02T08:02:34.207Z</time></trkpt><trkpt lat="43.6502789" lon="12.808787"><ele>427.75</ele><time>2026-05-02T08:02:35.209Z</time></trkpt><trkpt lat="43.6501874" lon="12.8088997"><ele>424.5</ele><time>2026-05-02T08:02:36.212Z</time></trkpt><trkpt lat="43.6500995" lon="12.8090129"><ele>421.25</ele><time>2026-05-02T08:02:37.209Z</time></trkpt><trkpt lat="43.6500136" lon="12.8091183"><ele>418.0</ele><time>2026-05-02T08:02:38.21Z</time></trkpt><trkpt lat="43.6499337" lon="12.8092222"><ele>416.25</ele><time>2026-05-02T08:02:39.214Z</time></trkpt><trkpt lat="43.6498486" lon="12.8093291"><ele>414.5</ele><time>2026-05-02T08:02:40.207Z</time></trkpt><trkpt lat="43.6497607" lon="12.8094371"><ele>412.75</ele><time>2026-05-02T08:02:41.209Z</time></trkpt><trkpt lat="43.649665" lon="12.8095561"><ele>411.0</ele><time>2026-05-02T08:02:42.218Z</time></trkpt><trkpt lat="43.6495706" lon="12.8096874"><ele>411.0</ele><time>2026-05-02T08:02:43.223Z</time></trkpt><trkpt lat="43.6494882" lon="12.8098193"><ele>411.0</ele><time>2026-05-02T08:02:44.221Z</time></trkpt><trkpt lat="43.6494112" lon="12.8099491"><ele>411.0</ele><time>2026-05-02T08:02:45.223Z</time></trkpt><trkpt lat="43.64933" lon="12.8100759"><ele>411.0</ele><time>2026-05-02T08:02:46.23Z</time></trkpt><trkpt lat="43.6492363" lon="12.8101981"><ele>410.20000000000005</ele><time>2026-05-02T08:02:47.225Z</time></trkpt><trkpt lat="43.6491388" lon="12.8103003"><ele>409.40000000000003</ele><time>2026-05-02T08:02:48.229Z</time></trkpt><trkpt lat="43.649039" lon="12.8103877"><ele>408.6</ele><time>2026-05-02T08:02:49.225Z</time></trkpt><trkpt lat="43.648944" lon="12.8104495"><ele>407.8</ele><time>2026-05-02T08:02:50.222Z</time></trkpt><trkpt lat="43.6488518" lon="12.8104861"><ele>407.0</ele><time>2026-05-02T08:02:51.226Z</time></trkpt><trkpt lat="43.6487576" lon="12.8104989"><ele>407.0</ele><time>2026-05-02T08:02:52.227Z</time></trkpt><trkpt lat="43.6486505" lon="12.8104953"><ele>407.0</ele><time>2026-05-02T08:02:53.229Z</time></trkpt><trkpt lat="43.6485419" lon="12.8104765"><ele>407.0</ele><time>2026-05-02T08:02:54.226Z</time></trkpt><trkpt lat="43.6484237" lon="12.81047"><ele>407.0</ele><time>2026-05-02T08:02:55.228Z</time></trkpt><trkpt lat="43.6482927" lon="12.8104815"><ele>407.25</ele><time>2026-05-02T08:02:56.213Z</time></trkpt><trkpt lat="43.6481661" lon="12.8105186"><ele>407.5</ele><time>2026-05-02T08:02:57.222Z</time></trkpt><trkpt lat="43.6480386" lon="12.8105861"><ele>407.75</ele><time>2026-05-02T08:02:58.211Z</time></trkpt><trkpt lat="43.6479108" lon="12.8106763"><ele>408.0</ele><time>2026-05-02T08:02:59.225Z</time></trkpt><trkpt lat="43.6477834" lon="12.8107782"><ele>409.66666666666663</ele><time>2026-05-02T08:03:00.222Z</time></trkpt><trkpt lat="43.6476497" lon="12.8108956"><ele>411.3333333333333</ele><time>2026-05-02T08:03:01.228Z</time></trkpt><trkpt lat="43.6475138" lon="12.8109974"><ele>413.0</ele><time>2026-05-02T08:03:02.219Z</time></trkpt><trkpt lat="43.6473659" lon="12.8110923"><ele>412.75</ele><time>2026-05-02T08:03:03.223Z</time></trkpt><trkpt lat="43.6472384" lon="12.8111704"><ele>412.5</ele><time>2026-05-02T08:03:04.224Z</time></trkpt><trkpt lat="43.6471299" lon="12.8112556"><ele>412.25</ele><time>2026-05-02T08:03:05.219Z</time></trkpt><trkpt lat="43.6470303" lon="12.811328"><ele>412.0</ele><time>2026-05-02T08:03:06.22Z</time></trkpt><trkpt lat="43.6469314" lon="12.8113799"><ele>412.0</ele><time>2026-05-02T08:03:07.217Z</time></trkpt><trkpt lat="43.6468282" lon="12.811418"><ele>412.0</ele><time>2026-05-02T08:03:08.222Z</time></trkpt><trkpt lat="43.6467201" lon="12.8114139"><ele>412.0</ele><time>2026-05-02T08:03:09.228Z</time></trkpt><trkpt lat="43.6466097" lon="12.8113861"><ele>412.0</ele><time>2026-05-02T08:03:10.215Z</time></trkpt><trkpt lat="43.6464831" lon="12.8113637"><ele>412.0</ele><time>2026-05-02T08:03:11.211Z</time></trkpt><trkpt lat="43.6463516" lon="12.8113419"><ele>412.0</ele><time>2026-05-02T08:03:12.205Z</time></trkpt><trkpt lat="43.6462135" lon="12.8113447"><ele>412.0</ele><time>2026-05-02T08:03:13.204Z</time></trkpt><trkpt lat="43.6460751" lon="12.8113455"><ele>412.0</ele><time>2026-05-02T08:03:14.207Z</time></trkpt><trkpt lat="43.6459507" lon="12.8113377"><ele>413.40000000000003</ele><time>2026-05-02T08:03:15.206Z</time></trkpt><trkpt lat="43.6458425" lon="12.8113241"><ele>414.8</ele><time>2026-05-02T08:03:16.203Z</time></trkpt><trkpt lat="43.6457505" lon="12.811325"><ele>416.2</ele><time>2026-05-02T08:03:17.215Z</time></trkpt><trkpt lat="43.6456628" lon="12.8113727"><ele>417.6</ele><time>2026-05-02T08:03:18.211Z</time></trkpt><trkpt lat="43.6455738" lon="12.8114684"><ele>419.0</ele><time>2026-05-02T08:03:19.204Z</time></trkpt><trkpt lat="43.6454879" lon="12.8115817"><ele>418.99999999999994</ele><time>2026-05-02T08:03:20.22Z</time></trkpt><trkpt lat="43.6453979" lon="12.8116752"><ele>419.0</ele><time>2026-05-02T08:03:21.21Z</time></trkpt><trkpt lat="43.645311" lon="12.8117373"><ele>419.0</ele><time>2026-05-02T08:03:22.226Z</time></trkpt><trkpt lat="43.6452325" lon="12.8117598"><ele>419.0</ele><time>2026-05-02T08:03:23.209Z</time></trkpt><trkpt lat="43.6451666" lon="12.8117506"><ele>418.99999999999994</ele><time>2026-05-02T08:03:24.229Z</time></trkpt><trkpt lat="43.645094" lon="12.8117012"><ele>419.0</ele><time>2026-05-02T08:03:25.21Z</time></trkpt><trkpt lat="43.64502" lon="12.8116062"><ele>418.3333333333333</ele><time>2026-05-02T08:03:26.219Z</time></trkpt><trkpt lat="43.6449548" lon="12.8114901"><ele>417.66666666666663</ele><time>2026-05-02T08:03:27.2Z</time></trkpt><trkpt lat="43.6448973" lon="12.8113998"><ele>417.0</ele><time>2026-05-02T08:03:28.205Z</time></trkpt><trkpt lat="43.6448473" lon="12.8113262"><ele>416.33333333333337</ele><time>2026-05-02T08:03:29.195Z</time></trkpt><trkpt lat="43.6447851" lon="12.8112876"><ele>415.6666666666667</ele><time>2026-05-02T08:03:30.196Z</time></trkpt><trkpt lat="43.6447119" lon="12.8112662"><ele>415.0</ele><time>2026-05-02T08:03:31.207Z</time></trkpt><trkpt lat="43.6446233" lon="12.8112721"><ele>415.0</ele><time>2026-05-02T08:03:32.197Z</time></trkpt><trkpt lat="43.6445197" lon="12.8112813"><ele>415.0</ele><time>2026-05-02T08:03:33.203Z</time></trkpt><trkpt lat="43.6444072" lon="12.8112928"><ele>415.0</ele><time>2026-05-02T08:03:34.191Z</time></trkpt><trkpt lat="43.6442891" lon="12.8113037"><ele>415.0</ele><time>2026-05-02T08:03:35.199Z</time></trkpt><trkpt lat="43.6441705" lon="12.8112884"><ele>411.0</ele><time>2026-05-02T08:03:36.204Z</time></trkpt><trkpt lat="43.6440641" lon="12.8112561"><ele>407.0</ele><time>2026-05-02T08:03:37.204Z</time></trkpt><trkpt lat="43.6439561" lon="12.8112127"><ele>403.0</ele><time>2026-05-02T08:03:38.207Z</time></trkpt><trkpt lat="43.6438473" lon="12.8111562"><ele>399.0</ele><time>2026-05-02T08:03:39.203Z</time></trkpt><trkpt lat="43.643734" lon="12.8110886"><ele>398.5</ele><time>2026-05-02T08:03:40.212Z</time></trkpt><trkpt lat="43.6436292" lon="12.8110218"><ele>398.0</ele><time>2026-05-02T08:03:41.203Z</time></trkpt><trkpt lat="43.6435229" lon="12.8109553"><ele>397.5</ele><time>2026-05-02T08:03:42.201Z</time></trkpt><trkpt lat="43.6434184" lon="12.8108877"><ele>397.0</ele><time>2026-05-02T08:03:43.206Z</time></trkpt><trkpt lat="43.6433085" lon="12.8108159"><ele>397.0</ele><time>2026-05-02T08:03:44.21Z</time></trkpt><trkpt lat="43.6432072" lon="12.8107313"><ele>397.0</ele><time>2026-05-02T08:03:45.207Z</time></trkpt><trkpt lat="43.6431129" lon="12.8106474"><ele>397.0</ele><time>2026-05-02T08:03:46.209Z</time></trkpt><trkpt lat="43.6430251" lon="12.8105768"><ele>397.0</ele><time>2026-05-02T08:03:47.203Z</time></trkpt><trkpt lat="43.6429278" lon="12.8105084"><ele>397.0</ele><time>2026-05-02T08:03:48.2Z</time></trkpt><trkpt lat="43.6428337" lon="12.8104298"><ele>394.8</ele><time>2026-05-02T08:03:49.197Z</time></trkpt><trkpt lat="43.6427462" lon="12.8103377"><ele>392.6</ele><time>2026-05-02T08:03:50.201Z</time></trkpt><trkpt lat="43.6426769" lon="12.8102375"><ele>390.40000000000003</ele><time>2026-05-02T08:03:51.195Z</time></trkpt><trkpt lat="43.6426184" lon="12.8101374"><ele>388.20000000000005</ele><time>2026-05-02T08:03:52.199Z</time></trkpt><trkpt lat="43.6425561" lon="12.8100465"><ele>386.0</ele><time>2026-05-02T08:03:53.205Z</time></trkpt><trkpt lat="43.6424896" lon="12.8099724"><ele>384.99999999999994</ele><time>2026-05-02T08:03:54.213Z</time></trkpt><trkpt lat="43.6424231" lon="12.8099072"><ele>384.0</ele><time>2026-05-02T08:03:55.204Z</time></trkpt><trkpt lat="43.6423635" lon="12.8098527"><ele>383.0</ele><time>2026-05-02T08:03:56.201Z</time></trkpt><trkpt lat="43.642303" lon="12.8098001"><ele>382.0</ele><time>2026-05-02T08:03:57.205Z</time></trkpt><trkpt lat="43.6422241" lon="12.809668"><ele>381.0</ele><time>2026-05-02T08:03:59.218Z</time></trkpt><trkpt lat="43.6422108" lon="12.8095696"><ele>380.0</ele><time>2026-05-02T08:04:00.203Z</time></trkpt><trkpt lat="43.6422163" lon="12.8094637"><ele>380.0</ele><time>2026-05-02T08:04:01.212Z</time></trkpt><trkpt lat="43.6422255" lon="12.8093285"><ele>380.0</ele><time>2026-05-02T08:04:02.207Z</time></trkpt><trkpt lat="43.6422337" lon="12.809172"><ele>380.0</ele><time>2026-05-02T08:04:03.21Z</time></trkpt><trkpt lat="43.642236" lon="12.8090099"><ele>380.0</ele><time>2026-05-02T08:04:04.213Z</time></trkpt><trkpt lat="43.6422294" lon="12.80885"><ele>380.0</ele><time>2026-05-02T08:04:05.211Z</time></trkpt><trkpt lat="43.642211" lon="12.8086873"><ele>379.2</ele><time>2026-05-02T08:04:06.216Z</time></trkpt><trkpt lat="43.642176" lon="12.808541"><ele>378.4</ele><time>2026-05-02T08:04:07.204Z</time></trkpt><trkpt lat="43.6421376" lon="12.8084008"><ele>377.6</ele><time>2026-05-02T08:04:08.206Z</time></trkpt><trkpt lat="43.6420898" lon="12.8082792"><ele>376.8</ele><time>2026-05-02T08:04:09.207Z</time></trkpt><trkpt lat="43.6420412" lon="12.8081777"><ele>376.0</ele><time>2026-05-02T08:04:10.21Z</time></trkpt><trkpt lat="43.6419963" lon="12.8080944"><ele>372.3333333333333</ele><time>2026-05-02T08:04:11.21Z</time></trkpt><trkpt lat="43.6419473" lon="12.8080235"><ele>368.66666666666663</ele><time>2026-05-02T08:04:12.209Z</time></trkpt><trkpt lat="43.6418913" lon="12.8079707"><ele>365.0</ele><time>2026-05-02T08:04:13.205Z</time></trkpt><trkpt lat="43.6418231" lon="12.8079171"><ele>361.3333333333333</ele><time>2026-05-02T08:04:14.206Z</time></trkpt><trkpt lat="43.6417257" lon="12.8078797"><ele>357.6666666666667</ele><time>2026-05-02T08:04:15.203Z</time></trkpt><trkpt lat="43.641609" lon="12.8078625"><ele>354.0</ele><time>2026-05-02T08:04:16.202Z</time></trkpt><trkpt lat="43.6414746" lon="12.807831"><ele>354.0</ele><time>2026-05-02T08:04:17.206Z</time></trkpt><trkpt lat="43.6413408" lon="12.8077945"><ele>354.0</ele><time>2026-05-02T08:04:18.212Z</time></trkpt><trkpt lat="43.6412146" lon="12.8077588"><ele>354.0</ele><time>2026-05-02T08:04:19.207Z</time></trkpt><trkpt lat="43.641095" lon="12.8077161"><ele>354.0</ele><time>2026-05-02T08:04:20.21Z</time></trkpt><trkpt lat="43.6409792" lon="12.8076659"><ele>350.5</ele><time>2026-05-02T08:04:21.212Z</time></trkpt><trkpt lat="43.6408658" lon="12.8076166"><ele>347.0</ele><time>2026-05-02T08:04:22.214Z</time></trkpt><trkpt lat="43.6407468" lon="12.8075723"><ele>343.5</ele><time>2026-05-02T08:04:23.213Z</time></trkpt><trkpt lat="43.6406287" lon="12.8075234"><ele>340.0</ele><time>2026-05-02T08:04:24.22Z</time></trkpt><trkpt lat="43.6405104" lon="12.8074683"><ele>340.0</ele><time>2026-05-02T08:04:25.218Z</time></trkpt><trkpt lat="43.6403927" lon="12.8073942"><ele>340.0</ele><time>2026-05-02T08:04:26.211Z</time></trkpt><trkpt lat="43.640276" lon="12.8073061"><ele>340.0</ele><time>2026-05-02T08:04:27.21Z</time></trkpt><trkpt lat="43.6401568" lon="12.8071993"><ele>340.0</ele><time>2026-05-02T08:04:28.207Z</time></trkpt><trkpt lat="43.6400383" lon="12.8070763"><ele>336.5</ele><time>2026-05-02T08:04:29.21Z</time></trkpt><trkpt lat="43.6399169" lon="12.8069545"><ele>333.0</ele><time>2026-05-02T08:04:30.218Z</time></trkpt><trkpt lat="43.6397999" lon="12.8068516"><ele>329.5</ele><time>2026-05-02T08:04:31.218Z</time></trkpt><trkpt lat="43.6396738" lon="12.8067646"><ele>326.0</ele><time>2026-05-02T08:04:32.212Z</time></trkpt><trkpt lat="43.6395419" lon="12.8066855"><ele>324.0</ele><time>2026-05-02T08:04:33.21Z</time></trkpt><trkpt lat="43.6394099" lon="12.8066051"><ele>322.0</ele><time>2026-05-02T08:04:34.21Z</time></trkpt><trkpt lat="43.6392778" lon="12.8065356"><ele>320.0</ele><time>2026-05-02T08:04:35.214Z</time></trkpt><trkpt lat="43.6391544" lon="12.806466"><ele>318.0</ele><time>2026-05-02T08:04:36.215Z</time></trkpt><trkpt lat="43.6390405" lon="12.8064115"><ele>318.0</ele><time>2026-05-02T08:04:37.214Z</time></trkpt><trkpt lat="43.6389294" lon="12.8063653"><ele>318.0</ele><time>2026-05-02T08:04:38.216Z</time></trkpt><trkpt lat="43.63883" lon="12.8063125"><ele>318.0</ele><time>2026-05-02T08:04:39.215Z</time></trkpt><trkpt lat="43.6387529" lon="12.8062679"><ele>318.0</ele><time>2026-05-02T08:04:40.219Z</time></trkpt><trkpt lat="43.6386837" lon="12.8062269"><ele>318.0</ele><time>2026-05-02T08:04:41.207Z</time></trkpt><trkpt lat="43.6386243" lon="12.8061853"><ele>318.0</ele><time>2026-05-02T08:04:42.21Z</time></trkpt><trkpt lat="43.6385611" lon="12.806063"><ele>318.0</ele><time>2026-05-02T08:04:44.197Z</time></trkpt><trkpt lat="43.6385774" lon="12.8059748"><ele>318.0</ele><time>2026-05-02T08:04:45.195Z</time></trkpt><trkpt lat="43.6386047" lon="12.8058616"><ele>318.0</ele><time>2026-05-02T08:04:46.197Z</time></trkpt><trkpt lat="43.6386329" lon="12.8057409"><ele>318.0</ele><time>2026-05-02T08:04:47.195Z</time></trkpt><trkpt lat="43.6386559" lon="12.8056169"><ele>318.0</ele><time>2026-05-02T08:04:48.2Z</time></trkpt><trkpt lat="43.6386743" lon="12.8054839"><ele>318.0</ele><time>2026-05-02T08:04:49.199Z</time></trkpt><trkpt lat="43.638696" lon="12.8053472"><ele>318.0</ele><time>2026-05-02T08:04:50.195Z</time></trkpt><trkpt lat="43.6387177" lon="12.8052144"><ele>318.0</ele><time>2026-05-02T08:04:51.195Z</time></trkpt><trkpt lat="43.6387367" lon="12.8050824"><ele>318.0</ele><time>2026-05-02T08:04:52.195Z</time></trkpt><trkpt lat="43.6387514" lon="12.8049412"><ele>318.0</ele><time>2026-05-02T08:04:53.193Z</time></trkpt><trkpt lat="43.6387623" lon="12.8048041"><ele>318.0</ele><time>2026-05-02T08:04:54.189Z</time></trkpt><trkpt lat="43.6387708" lon="12.8046702"><ele>318.1666666666667</ele><time>2026-05-02T08:04:55.192Z</time></trkpt><trkpt lat="43.6387778" lon="12.8045458"><ele>318.3333333333333</ele><time>2026-05-02T08:04:56.195Z</time></trkpt><trkpt lat="43.6387816" lon="12.8044259"><ele>318.5</ele><time>2026-05-02T08:04:57.186Z</time></trkpt><trkpt lat="43.6387851" lon="12.8043116"><ele>318.66666666666663</ele><time>2026-05-02T08:04:58.185Z</time></trkpt><trkpt lat="43.6387846" lon="12.8041963"><ele>318.8333333333333</ele><time>2026-05-02T08:04:59.19Z</time></trkpt><trkpt lat="43.6387907" lon="12.804094"><ele>319.0</ele><time>2026-05-02T08:05:00.191Z</time></trkpt><trkpt lat="43.6387941" lon="12.8039834"><ele>317.16666666666663</ele><time>2026-05-02T08:05:01.196Z</time></trkpt><trkpt lat="43.638802" lon="12.8038827"><ele>315.3333333333333</ele><time>2026-05-02T08:05:02.19Z</time></trkpt><trkpt lat="43.6388148" lon="12.8037926"><ele>313.5</ele><time>2026-05-02T08:05:03.189Z</time></trkpt><trkpt lat="43.6388403" lon="12.8036629"><ele>311.6666666666667</ele><time>2026-05-02T08:05:05.189Z</time></trkpt><trkpt lat="43.6387759" lon="12.8036335"><ele>309.83333333333337</ele><time>2026-05-02T08:05:07.19Z</time></trkpt><trkpt lat="43.638675" lon="12.8037419"><ele>308.0</ele><time>2026-05-02T08:05:09.19Z</time></trkpt><trkpt lat="43.6386087" lon="12.8038129"><ele>304.33333333333337</ele><time>2026-05-02T08:05:10.19Z</time></trkpt><trkpt lat="43.6385366" lon="12.8038713"><ele>300.6666666666667</ele><time>2026-05-02T08:05:11.195Z</time></trkpt><trkpt lat="43.6384593" lon="12.8039105"><ele>297.0</ele><time>2026-05-02T08:05:12.189Z</time></trkpt><trkpt lat="43.6383798" lon="12.8039204"><ele>293.3333333333333</ele><time>2026-05-02T08:05:13.192Z</time></trkpt><trkpt lat="43.6383052" lon="12.8039012"><ele>289.66666666666663</ele><time>2026-05-02T08:05:14.192Z</time></trkpt><trkpt lat="43.6382299" lon="12.8038468"><ele>286.0</ele><time>2026-05-02T08:05:15.193Z</time></trkpt><trkpt lat="43.6381502" lon="12.8037614"><ele>286.0</ele><time>2026-05-02T08:05:16.195Z</time></trkpt><trkpt lat="43.6380708" lon="12.8036562"><ele>286.0</ele><time>2026-05-02T08:05:17.188Z</time></trkpt><trkpt lat="43.6379941" lon="12.8035435"><ele>286.0</ele><time>2026-05-02T08:05:18.191Z</time></trkpt><trkpt lat="43.6379213" lon="12.8034434"><ele>286.0</ele><time>2026-05-02T08:05:19.195Z</time></trkpt><trkpt lat="43.6378378" lon="12.8033557"><ele>286.0</ele><time>2026-05-02T08:05:20.189Z</time></trkpt><trkpt lat="43.6377453" lon="12.803286"><ele>282.8</ele><time>2026-05-02T08:05:21.19Z</time></trkpt><trkpt lat="43.6376447" lon="12.8032215"><ele>279.6</ele><time>2026-05-02T08:05:22.19Z</time></trkpt><trkpt lat="43.6375476" lon="12.8031433"><ele>276.4</ele><time>2026-05-02T08:05:23.192Z</time></trkpt><trkpt lat="43.6374635" lon="12.8030524"><ele>273.2</ele><time>2026-05-02T08:05:24.189Z</time></trkpt><trkpt lat="43.6373919" lon="12.802952"><ele>270.0</ele><time>2026-05-02T08:05:25.195Z</time></trkpt><trkpt lat="43.6373447" lon="12.8028396"><ele>270.0</ele><time>2026-05-02T08:05:26.191Z</time></trkpt><trkpt lat="43.6373106" lon="12.8027171"><ele>270.0</ele><time>2026-05-02T08:05:27.195Z</time></trkpt><trkpt lat="43.6372889" lon="12.8025783"><ele>270.0</ele><time>2026-05-02T08:05:28.19Z</time></trkpt><trkpt lat="43.6372711" lon="12.8024431"><ele>270.0</ele><time>2026-05-02T08:05:29.19Z</time></trkpt><trkpt lat="43.6372662" lon="12.802319"><ele>270.0</ele><time>2026-05-02T08:05:30.19Z</time></trkpt><trkpt lat="43.6372768" lon="12.8021969"><ele>270.1666666666667</ele><time>2026-05-02T08:05:31.199Z</time></trkpt><trkpt lat="43.6373078" lon="12.8020896"><ele>270.3333333333333</ele><time>2026-05-02T08:05:32.191Z</time></trkpt><trkpt lat="43.6373644" lon="12.8019914"><ele>270.5</ele><time>2026-05-02T08:05:33.195Z</time></trkpt><trkpt lat="43.6374326" lon="12.8018972"><ele>270.66666666666663</ele><time>2026-05-02T08:05:34.188Z</time></trkpt><trkpt lat="43.6374809" lon="12.8017882"><ele>270.8333333333333</ele><time>2026-05-02T08:05:35.191Z</time></trkpt><trkpt lat="43.6374932" lon="12.8016825"><ele>271.0</ele><time>2026-05-02T08:05:36.193Z</time></trkpt><trkpt lat="43.6374603" lon="12.8015717"><ele>272.6</ele><time>2026-05-02T08:05:37.194Z</time></trkpt><trkpt lat="43.6373924" lon="12.8014574"><ele>274.20000000000005</ele><time>2026-05-02T08:05:38.19Z</time></trkpt><trkpt lat="43.6373268" lon="12.8013496"><ele>275.79999999999995</ele><time>2026-05-02T08:05:39.196Z</time></trkpt><trkpt lat="43.6372637" lon="12.8012365"><ele>277.4</ele><time>2026-05-02T08:05:40.2Z</time></trkpt><trkpt lat="43.6372058" lon="12.8011117"><ele>279.0</ele><time>2026-05-02T08:05:41.194Z</time></trkpt><trkpt lat="43.6371571" lon="12.8009824"><ele>281.4</ele><time>2026-05-02T08:05:42.197Z</time></trkpt><trkpt lat="43.6371278" lon="12.8008483"><ele>283.79999999999995</ele><time>2026-05-02T08:05:43.195Z</time></trkpt><trkpt lat="43.6371243" lon="12.8007009"><ele>286.20000000000005</ele><time>2026-05-02T08:05:44.199Z</time></trkpt><trkpt lat="43.637147" lon="12.8005446"><ele>288.6</ele><time>2026-05-02T08:05:45.192Z</time></trkpt><trkpt lat="43.6371918" lon="12.8003972"><ele>291.0</ele><time>2026-05-02T08:05:46.191Z</time></trkpt><trkpt lat="43.6372563" lon="12.8002409"><ele>293.5</ele><time>2026-05-02T08:05:47.19Z</time></trkpt><trkpt lat="43.6373207" lon="12.8000771"><ele>296.0</ele><time>2026-05-02T08:05:48.193Z</time></trkpt><trkpt lat="43.6373781" lon="12.7999121"><ele>298.5</ele><time>2026-05-02T08:05:49.191Z</time></trkpt><trkpt lat="43.6374348" lon="12.7997403"><ele>301.0</ele><time>2026-05-02T08:05:50.191Z</time></trkpt><trkpt lat="43.6374881" lon="12.7995662"><ele>301.0</ele><time>2026-05-02T08:05:51.202Z</time></trkpt><trkpt lat="43.6375031" lon="12.799397"><ele>301.0</ele><time>2026-05-02T08:05:52.195Z</time></trkpt><trkpt lat="43.6374977" lon="12.7992408"><ele>301.0</ele><time>2026-05-02T08:05:53.196Z</time></trkpt><trkpt lat="43.6374953" lon="12.7991131"><ele>301.0</ele><time>2026-05-02T08:05:54.2Z</time></trkpt><trkpt lat="43.6374945" lon="12.7990215"><ele>301.0</ele><time>2026-05-02T08:05:55.193Z</time></trkpt><trkpt lat="43.6374791" lon="12.7989329"><ele>302.40000000000003</ele><time>2026-05-02T08:05:56.206Z</time></trkpt><trkpt lat="43.6374311" lon="12.7988425"><ele>303.8</ele><time>2026-05-02T08:05:57.208Z</time></trkpt><trkpt lat="43.6373442" lon="12.7987662"><ele>305.20000000000005</ele><time>2026-05-02T08:05:58.206Z</time></trkpt><trkpt lat="43.6372416" lon="12.7986951"><ele>306.6</ele><time>2026-05-02T08:05:59.198Z</time></trkpt><trkpt lat="43.6371472" lon="12.7986328"><ele>308.0</ele><time>2026-05-02T08:06:00.205Z</time></trkpt><trkpt lat="43.6370506" lon="12.7985935"><ele>307.25</ele><time>2026-05-02T08:06:01.205Z</time></trkpt><trkpt lat="43.6369448" lon="12.798588"><ele>306.5</ele><time>2026-05-02T08:06:02.201Z</time></trkpt><trkpt lat="43.6368177" lon="12.798624"><ele>305.75</ele><time>2026-05-02T08:06:03.202Z</time></trkpt><trkpt lat="43.6366803" lon="12.7986537"><ele>305.0</ele><time>2026-05-02T08:06:04.195Z</time></trkpt><trkpt lat="43.6365309" lon="12.7986678"><ele>305.0</ele><time>2026-05-02T08:06:05.195Z</time></trkpt><trkpt lat="43.6363844" lon="12.798658"><ele>305.0</ele><time>2026-05-02T08:06:06.193Z</time></trkpt><trkpt lat="43.6362304" lon="12.7986402"><ele>305.0</ele><time>2026-05-02T08:06:07.194Z</time></trkpt><trkpt lat="43.6360877" lon="12.7986271"><ele>305.0</ele><time>2026-05-02T08:06:08.199Z</time></trkpt><trkpt lat="43.6359578" lon="12.7986223"><ele>303.75</ele><time>2026-05-02T08:06:09.2Z</time></trkpt><trkpt lat="43.6358444" lon="12.7986191"><ele>302.5</ele><time>2026-05-02T08:06:10.196Z</time></trkpt><trkpt lat="43.6357234" lon="12.7986077"><ele>301.25</ele><time>2026-05-02T08:06:11.193Z</time></trkpt><trkpt lat="43.6355995" lon="12.7985797"><ele>300.0</ele><time>2026-05-02T08:06:12.194Z</time></trkpt><trkpt lat="43.6354594" lon="12.7985437"><ele>300.0</ele><time>2026-05-02T08:06:13.193Z</time></trkpt><trkpt lat="43.635323" lon="12.7985152"><ele>300.0</ele><time>2026-05-02T08:06:14.194Z</time></trkpt><trkpt lat="43.6351897" lon="12.7984989"><ele>300.0</ele><time>2026-05-02T08:06:15.201Z</time></trkpt><trkpt lat="43.6350547" lon="12.7985026"><ele>300.0</ele><time>2026-05-02T08:06:16.192Z</time></trkpt><trkpt lat="43.6349208" lon="12.7985281"><ele>300.5</ele><time>2026-05-02T08:06:17.203Z</time></trkpt><trkpt lat="43.634779" lon="12.7985718"><ele>301.0</ele><time>2026-05-02T08:06:18.197Z</time></trkpt><trkpt lat="43.634636" lon="12.7986241"><ele>301.5</ele><time>2026-05-02T08:06:19.198Z</time></trkpt><trkpt lat="43.6344854" lon="12.7986686"><ele>302.0</ele><time>2026-05-02T08:06:20.198Z</time></trkpt><trkpt lat="43.6343526" lon="12.7987138"><ele>302.0</ele><time>2026-05-02T08:06:21.202Z</time></trkpt><trkpt lat="43.6342139" lon="12.798784"><ele>302.0</ele><time>2026-05-02T08:06:22.197Z</time></trkpt><trkpt lat="43.6340819" lon="12.7988402"><ele>302.0</ele><time>2026-05-02T08:06:23.2Z</time></trkpt><trkpt lat="43.6339709" lon="12.7988677"><ele>302.0</ele><time>2026-05-02T08:06:24.195Z</time></trkpt><trkpt lat="43.6338591" lon="12.7988654"><ele>302.0</ele><time>2026-05-02T08:06:25.199Z</time></trkpt><trkpt lat="43.6337315" lon="12.7988573"><ele>302.0</ele><time>2026-05-02T08:06:26.191Z</time></trkpt><trkpt lat="43.6335946" lon="12.7988279"><ele>302.0</ele><time>2026-05-02T08:06:27.198Z</time></trkpt><trkpt lat="43.6334606" lon="12.7987447"><ele>302.0</ele><time>2026-05-02T08:06:28.2Z</time></trkpt><trkpt lat="43.6333283" lon="12.7986544"><ele>302.2</ele><time>2026-05-02T08:06:29.196Z</time></trkpt><trkpt lat="43.6332043" lon="12.7985863"><ele>302.4</ele><time>2026-05-02T08:06:30.193Z</time></trkpt><trkpt lat="43.6330964" lon="12.7985472"><ele>302.6</ele><time>2026-05-02T08:06:31.197Z</time></trkpt><trkpt lat="43.6330142" lon="12.7985043"><ele>302.8</ele><time>2026-05-02T08:06:32.189Z</time></trkpt><trkpt lat="43.6329576" lon="12.798421"><ele>303.0</ele><time>2026-05-02T08:06:33.197Z</time></trkpt><trkpt lat="43.6329302" lon="12.7982956"><ele>310.25</ele><time>2026-05-02T08:06:34.191Z</time></trkpt><trkpt lat="43.632921" lon="12.7981397"><ele>317.5</ele><time>2026-05-02T08:06:35.188Z</time></trkpt><trkpt lat="43.6329316" lon="12.7979769"><ele>324.75</ele><time>2026-05-02T08:06:36.194Z</time></trkpt><trkpt lat="43.6329411" lon="12.7978006"><ele>332.0</ele><time>2026-05-02T08:06:37.196Z</time></trkpt><trkpt lat="43.6329413" lon="12.7976304"><ele>331.6</ele><time>2026-05-02T08:06:38.193Z</time></trkpt><trkpt lat="43.6329355" lon="12.7974908"><ele>331.20000000000005</ele><time>2026-05-02T08:06:39.191Z</time></trkpt><trkpt lat="43.6329177" lon="12.7973592"><ele>330.8</ele><time>2026-05-02T08:06:40.186Z</time></trkpt><trkpt lat="43.6328799" lon="12.7972363"><ele>330.4</ele><time>2026-05-02T08:06:41.191Z</time></trkpt><trkpt lat="43.6328101" lon="12.7971157"><ele>330.0</ele><time>2026-05-02T08:06:42.191Z</time></trkpt><trkpt lat="43.6327189" lon="12.7969877"><ele>330.0</ele><time>2026-05-02T08:06:43.191Z</time></trkpt><trkpt lat="43.6326239" lon="12.7968516"><ele>330.0</ele><time>2026-05-02T08:06:44.194Z</time></trkpt><trkpt lat="43.6325461" lon="12.7967016"><ele>330.0</ele><time>2026-05-02T08:06:45.193Z</time></trkpt><trkpt lat="43.6324918" lon="12.796538"><ele>330.0</ele><time>2026-05-02T08:06:46.19Z</time></trkpt><trkpt lat="43.6324436" lon="12.7963829"><ele>330.8333333333333</ele><time>2026-05-02T08:06:47.194Z</time></trkpt><trkpt lat="43.6324026" lon="12.7962434"><ele>331.6666666666667</ele><time>2026-05-02T08:06:48.188Z</time></trkpt><trkpt lat="43.632378" lon="12.7961277"><ele>332.5</ele><time>2026-05-02T08:06:49.195Z</time></trkpt><trkpt lat="43.6323716" lon="12.7960256"><ele>333.33333333333337</ele><time>2026-05-02T08:06:50.191Z</time></trkpt><trkpt lat="43.6323793" lon="12.7959146"><ele>334.1666666666667</ele><time>2026-05-02T08:06:51.191Z</time></trkpt><trkpt lat="43.6323969" lon="12.7957895"><ele>335.0</ele><time>2026-05-02T08:06:52.191Z</time></trkpt><trkpt lat="43.6324177" lon="12.7956471"><ele>335.75</ele><time>2026-05-02T08:06:53.195Z</time></trkpt><trkpt lat="43.6324272" lon="12.7954946"><ele>336.5</ele><time>2026-05-02T08:06:54.189Z</time></trkpt><trkpt lat="43.632416" lon="12.7953305"><ele>337.25</ele><time>2026-05-02T08:06:55.195Z</time></trkpt><trkpt lat="43.6323757" lon="12.7951599"><ele>338.0</ele><time>2026-05-02T08:06:56.189Z</time></trkpt><trkpt lat="43.6323197" lon="12.7950055"><ele>339.59999999999997</ele><time>2026-05-02T08:06:57.187Z</time></trkpt><trkpt lat="43.632262" lon="12.7948716"><ele>341.2</ele><time>2026-05-02T08:06:58.188Z</time></trkpt><trkpt lat="43.6322029" lon="12.7947634"><ele>342.8</ele><time>2026-05-02T08:06:59.192Z</time></trkpt><trkpt lat="43.6321392" lon="12.7946701"><ele>344.4</ele><time>2026-05-02T08:07:00.197Z</time></trkpt><trkpt lat="43.632085" lon="12.7945886"><ele>346.0</ele><time>2026-05-02T08:07:01.198Z</time></trkpt><trkpt lat="43.6320224" lon="12.7945117"><ele>344.0</ele><time>2026-05-02T08:07:02.191Z</time></trkpt><trkpt lat="43.6319609" lon="12.794441"><ele>342.0</ele><time>2026-05-02T08:07:03.19Z</time></trkpt><trkpt lat="43.6319004" lon="12.7943706"><ele>340.0</ele><time>2026-05-02T08:07:04.19Z</time></trkpt><trkpt lat="43.6318307" lon="12.7943009"><ele>338.0</ele><time>2026-05-02T08:07:05.19Z</time></trkpt><trkpt lat="43.6317702" lon="12.7942162"><ele>336.0</ele><time>2026-05-02T08:07:06.189Z</time></trkpt><trkpt lat="43.6317134" lon="12.7941263"><ele>334.0</ele><time>2026-05-02T08:07:07.189Z</time></trkpt><trkpt lat="43.6316633" lon="12.7940321"><ele>334.0</ele><time>2026-05-02T08:07:08.193Z</time></trkpt><trkpt lat="43.6316127" lon="12.7939288"><ele>334.0</ele><time>2026-05-02T08:07:09.193Z</time></trkpt><trkpt lat="43.631562" lon="12.7938256"><ele>334.0</ele><time>2026-05-02T08:07:10.193Z</time></trkpt><trkpt lat="43.6315094" lon="12.7937218"><ele>334.0</ele><time>2026-05-02T08:07:11.19Z</time></trkpt><trkpt lat="43.631451" lon="12.7936099"><ele>334.0</ele><time>2026-05-02T08:07:12.186Z</time></trkpt><trkpt lat="43.6313906" lon="12.7934961"><ele>334.4</ele><time>2026-05-02T08:07:13.196Z</time></trkpt><trkpt lat="43.6313317" lon="12.7933738"><ele>334.79999999999995</ele><time>2026-05-02T08:07:14.192Z</time></trkpt><trkpt lat="43.631274" lon="12.7932472"><ele>335.20000000000005</ele><time>2026-05-02T08:07:15.2Z</time></trkpt><trkpt lat="43.6312153" lon="12.7931156"><ele>335.6</ele><time>2026-05-02T08:07:16.193Z</time></trkpt><trkpt lat="43.6311507" lon="12.7929833"><ele>336.0</ele><time>2026-05-02T08:07:17.19Z</time></trkpt><trkpt lat="43.6310904" lon="12.7928639"><ele>336.6666666666667</ele><time>2026-05-02T08:07:18.192Z</time></trkpt><trkpt lat="43.6310376" lon="12.7927434"><ele>337.3333333333333</ele><time>2026-05-02T08:07:19.195Z</time></trkpt><trkpt lat="43.6309917" lon="12.7926316"><ele>338.0</ele><time>2026-05-02T08:07:20.195Z</time></trkpt><trkpt lat="43.630957" lon="12.7925267"><ele>338.66666666666663</ele><time>2026-05-02T08:07:21.192Z</time></trkpt><trkpt lat="43.6309206" lon="12.7924389"><ele>339.3333333333333</ele><time>2026-05-02T08:07:22.192Z</time></trkpt><trkpt lat="43.6308759" lon="12.7923612"><ele>340.0</ele><time>2026-05-02T08:07:23.193Z</time></trkpt><trkpt lat="43.6308154" lon="12.7922927"><ele>340.6</ele><time>2026-05-02T08:07:24.197Z</time></trkpt><trkpt lat="43.6307483" lon="12.7922251"><ele>341.2</ele><time>2026-05-02T08:07:25.195Z</time></trkpt><trkpt lat="43.6306809" lon="12.7921345"><ele>341.79999999999995</ele><time>2026-05-02T08:07:26.196Z</time></trkpt><trkpt lat="43.6306151" lon="12.792028"><ele>342.4</ele><time>2026-05-02T08:07:27.198Z</time></trkpt><trkpt lat="43.6305576" lon="12.7919133"><ele>343.0</ele><time>2026-05-02T08:07:28.197Z</time></trkpt><trkpt lat="43.6304988" lon="12.7918053"><ele>344.5</ele><time>2026-05-02T08:07:29.192Z</time></trkpt><trkpt lat="43.6304475" lon="12.7917112"><ele>346.0</ele><time>2026-05-02T08:07:30.205Z</time></trkpt><trkpt lat="43.6303941" lon="12.7916245"><ele>347.5</ele><time>2026-05-02T08:07:31.21Z</time></trkpt><trkpt lat="43.6303468" lon="12.7915551"><ele>349.0</ele><time>2026-05-02T08:07:32.195Z</time></trkpt><trkpt lat="43.6302875" lon="12.7914966"><ele>350.5</ele><time>2026-05-02T08:07:33.196Z</time></trkpt><trkpt lat="43.6302165" lon="12.791444"><ele>352.0</ele><time>2026-05-02T08:07:34.187Z</time></trkpt><trkpt lat="43.6301402" lon="12.7913873"><ele>352.8</ele><time>2026-05-02T08:07:35.195Z</time></trkpt><trkpt lat="43.6300541" lon="12.7913283"><ele>353.6</ele><time>2026-05-02T08:07:36.193Z</time></trkpt><trkpt lat="43.6299617" lon="12.7912735"><ele>354.40000000000003</ele><time>2026-05-02T08:07:37.194Z</time></trkpt><trkpt lat="43.6298617" lon="12.7912284"><ele>355.20000000000005</ele><time>2026-05-02T08:07:38.196Z</time></trkpt><trkpt lat="43.6297641" lon="12.7911902"><ele>356.0</ele><time>2026-05-02T08:07:39.194Z</time></trkpt><trkpt lat="43.62967" lon="12.7911552"><ele>356.0</ele><time>2026-05-02T08:07:40.199Z</time></trkpt><trkpt lat="43.6295806" lon="12.7911144"><ele>356.0</ele><time>2026-05-02T08:07:41.196Z</time></trkpt><trkpt lat="43.6294779" lon="12.7910669"><ele>356.0</ele><time>2026-05-02T08:07:42.195Z</time></trkpt><trkpt lat="43.6293781" lon="12.7910027"><ele>356.0</ele><time>2026-05-02T08:07:43.197Z</time></trkpt><trkpt lat="43.6292835" lon="12.7909249"><ele>356.0</ele><time>2026-05-02T08:07:44.191Z</time></trkpt><trkpt lat="43.6291868" lon="12.7908347"><ele>359.0</ele><time>2026-05-02T08:07:45.191Z</time></trkpt><trkpt lat="43.6290954" lon="12.7907444"><ele>362.0</ele><time>2026-05-02T08:07:46.19Z</time></trkpt><trkpt lat="43.6289984" lon="12.7906456"><ele>365.0</ele><time>2026-05-02T08:07:47.189Z</time></trkpt><trkpt lat="43.6289013" lon="12.7905411"><ele>368.0</ele><time>2026-05-02T08:07:48.187Z</time></trkpt><trkpt lat="43.6288054" lon="12.7904325"><ele>368.0</ele><time>2026-05-02T08:07:49.183Z</time></trkpt><trkpt lat="43.6287156" lon="12.7903139"><ele>368.0</ele><time>2026-05-02T08:07:50.183Z</time></trkpt><trkpt lat="43.6286309" lon="12.7901883"><ele>368.0</ele><time>2026-05-02T08:07:51.189Z</time></trkpt><trkpt lat="43.628542" lon="12.7900754"><ele>368.0</ele><time>2026-05-02T08:07:52.187Z</time></trkpt><trkpt lat="43.6284466" lon="12.7899835"><ele>369.0</ele><time>2026-05-02T08:07:53.19Z</time></trkpt><trkpt lat="43.6283439" lon="12.7899257"><ele>370.0</ele><time>2026-05-02T08:07:54.185Z</time></trkpt><trkpt lat="43.6282489" lon="12.7898583"><ele>371.0</ele><time>2026-05-02T08:07:55.182Z</time></trkpt><trkpt lat="43.6281669" lon="12.7897702"><ele>372.0</ele><time>2026-05-02T08:07:56.178Z</time></trkpt><trkpt lat="43.6281037" lon="12.7896478"><ele>373.0</ele><time>2026-05-02T08:07:57.185Z</time></trkpt><trkpt lat="43.628053" lon="12.7895171"><ele>373.0</ele><time>2026-05-02T08:07:58.183Z</time></trkpt><trkpt lat="43.6279989" lon="12.7893825"><ele>373.0</ele><time>2026-05-02T08:07:59.184Z</time></trkpt><trkpt lat="43.627942" lon="12.7892524"><ele>373.0</ele><time>2026-05-02T08:08:00.189Z</time></trkpt><trkpt lat="43.6278745" lon="12.7891243"><ele>373.0</ele><time>2026-05-02T08:08:01.19Z</time></trkpt><trkpt lat="43.6277993" lon="12.7890139"><ele>373.0</ele><time>2026-05-02T08:08:02.186Z</time></trkpt><trkpt lat="43.6277169" lon="12.7889137"><ele>376.4</ele><time>2026-05-02T08:08:03.182Z</time></trkpt><trkpt lat="43.6276239" lon="12.7888486"><ele>379.79999999999995</ele><time>2026-05-02T08:08:04.185Z</time></trkpt><trkpt lat="43.6275301" lon="12.7887826"><ele>383.2</ele><time>2026-05-02T08:08:05.184Z</time></trkpt><trkpt lat="43.6274341" lon="12.7887138"><ele>386.6</ele><time>2026-05-02T08:08:06.18Z</time></trkpt><trkpt lat="43.6273431" lon="12.7886223"><ele>390.0</ele><time>2026-05-02T08:08:07.184Z</time></trkpt><trkpt lat="43.6272579" lon="12.7885138"><ele>390.25</ele><time>2026-05-02T08:08:08.179Z</time></trkpt><trkpt lat="43.6271654" lon="12.7883919"><ele>390.5</ele><time>2026-05-02T08:08:09.186Z</time></trkpt><trkpt lat="43.6270656" lon="12.7882754"><ele>390.75</ele><time>2026-05-02T08:08:10.187Z</time></trkpt><trkpt lat="43.6269651" lon="12.7881762"><ele>391.0</ele><time>2026-05-02T08:08:11.188Z</time></trkpt><trkpt lat="43.6268677" lon="12.7880777"><ele>394.0</ele><time>2026-05-02T08:08:12.192Z</time></trkpt><trkpt lat="43.6267914" lon="12.7879642"><ele>397.0</ele><time>2026-05-02T08:08:13.182Z</time></trkpt><trkpt lat="43.6267211" lon="12.7878485"><ele>400.0</ele><time>2026-05-02T08:08:14.19Z</time></trkpt><trkpt lat="43.6266563" lon="12.7877305"><ele>403.0</ele><time>2026-05-02T08:08:15.187Z</time></trkpt><trkpt lat="43.6265928" lon="12.7876107"><ele>406.0</ele><time>2026-05-02T08:08:16.187Z</time></trkpt><trkpt lat="43.626535" lon="12.7874821"><ele>406.0</ele><time>2026-05-02T08:08:17.19Z</time></trkpt><trkpt lat="43.6264665" lon="12.7873638"><ele>406.0</ele><time>2026-05-02T08:08:18.182Z</time></trkpt><trkpt lat="43.6263931" lon="12.7872674"><ele>406.0</ele><time>2026-05-02T08:08:19.187Z</time></trkpt><trkpt lat="43.6263119" lon="12.7871985"><ele>406.0</ele><time>2026-05-02T08:08:20.184Z</time></trkpt><trkpt lat="43.6262417" lon="12.7871344"><ele>406.0</ele><time>2026-05-02T08:08:21.187Z</time></trkpt><trkpt lat="43.6261923" lon="12.7870563"><ele>406.0</ele><time>2026-05-02T08:08:22.185Z</time></trkpt><trkpt lat="43.6261556" lon="12.7869474"><ele>406.0</ele><time>2026-05-02T08:08:23.186Z</time></trkpt><trkpt lat="43.6261308" lon="12.7868159"><ele>406.0</ele><time>2026-05-02T08:08:24.192Z</time></trkpt><trkpt lat="43.6261082" lon="12.7866724"><ele>406.0</ele><time>2026-05-02T08:08:25.186Z</time></trkpt><trkpt lat="43.6260799" lon="12.7865255"><ele>406.0</ele><time>2026-05-02T08:08:26.186Z</time></trkpt><trkpt lat="43.6260459" lon="12.7863806"><ele>409.8</ele><time>2026-05-02T08:08:27.183Z</time></trkpt><trkpt lat="43.6260206" lon="12.7862438"><ele>413.6</ele><time>2026-05-02T08:08:28.178Z</time></trkpt><trkpt lat="43.6260051" lon="12.7861147"><ele>417.4</ele><time>2026-05-02T08:08:29.179Z</time></trkpt><trkpt lat="43.6260092" lon="12.785991"><ele>421.2</ele><time>2026-05-02T08:08:30.186Z</time></trkpt><trkpt lat="43.6260431" lon="12.7858806"><ele>425.0</ele><time>2026-05-02T08:08:31.185Z</time></trkpt><trkpt lat="43.6261037" lon="12.7857818"><ele>429.3333333333333</ele><time>2026-05-02T08:08:32.184Z</time></trkpt><trkpt lat="43.6261899" lon="12.785705"><ele>433.66666666666663</ele><time>2026-05-02T08:08:33.188Z</time></trkpt><trkpt lat="43.6262653" lon="12.7856216"><ele>438.0</ele><time>2026-05-02T08:08:34.181Z</time></trkpt><trkpt lat="43.6263087" lon="12.7855282"><ele>442.33333333333337</ele><time>2026-05-02T08:08:35.183Z</time></trkpt><trkpt lat="43.6263197" lon="12.785407"><ele>446.6666666666667</ele><time>2026-05-02T08:08:37.188Z</time></trkpt><trkpt lat="43.6262385" lon="12.7854162"><ele>451.0</ele><time>2026-05-02T08:08:39.185Z</time></trkpt><trkpt lat="43.6261719" lon="12.7854847"><ele>449.5</ele><time>2026-05-02T08:08:40.185Z</time></trkpt><trkpt lat="43.6260877" lon="12.7855948"><ele>448.0</ele><time>2026-05-02T08:08:41.183Z</time></trkpt><trkpt lat="43.6259911" lon="12.785718"><ele>446.5</ele><time>2026-05-02T08:08:42.182Z</time></trkpt><trkpt lat="43.6259013" lon="12.7858618"><ele>445.0</ele><time>2026-05-02T08:08:43.181Z</time></trkpt><trkpt lat="43.6258224" lon="12.7860135"><ele>441.0</ele><time>2026-05-02T08:08:44.186Z</time></trkpt><trkpt lat="43.6257566" lon="12.7861658"><ele>437.0</ele><time>2026-05-02T08:08:45.177Z</time></trkpt><trkpt lat="43.6257252" lon="12.7863124"><ele>433.0</ele><time>2026-05-02T08:08:46.178Z</time></trkpt><trkpt lat="43.6257051" lon="12.7864264"><ele>429.0</ele><time>2026-05-02T08:08:47.181Z</time></trkpt><trkpt lat="43.6256882" lon="12.7865208"><ele>425.0</ele><time>2026-05-02T08:08:48.183Z</time></trkpt><trkpt lat="43.6256039" lon="12.7865911"><ele>425.0</ele><time>2026-05-02T08:08:50.177Z</time></trkpt><trkpt lat="43.6254612" lon="12.7865662"><ele>425.0</ele><time>2026-05-02T08:08:52.179Z</time></trkpt><trkpt lat="43.6253683" lon="12.7865485"><ele>425.0</ele><time>2026-05-02T08:08:53.183Z</time></trkpt><trkpt lat="43.6252695" lon="12.7865276"><ele>425.0</ele><time>2026-05-02T08:08:54.182Z</time></trkpt><trkpt lat="43.6251665" lon="12.7865147"><ele>425.0</ele><time>2026-05-02T08:08:55.186Z</time></trkpt><trkpt lat="43.6250601" lon="12.7864869"><ele>428.99999999999994</ele><time>2026-05-02T08:08:56.182Z</time></trkpt><trkpt lat="43.6249594" lon="12.7864387"><ele>433.0</ele><time>2026-05-02T08:08:57.183Z</time></trkpt><trkpt lat="43.624875" lon="12.7863944"><ele>437.0</ele><time>2026-05-02T08:08:58.186Z</time></trkpt><trkpt lat="43.6248007" lon="12.7863598"><ele>441.0</ele><time>2026-05-02T08:08:59.179Z</time></trkpt><trkpt lat="43.6247332" lon="12.7863585"><ele>444.99999999999994</ele><time>2026-05-02T08:09:00.187Z</time></trkpt><trkpt lat="43.6246791" lon="12.7864142"><ele>449.0</ele><time>2026-05-02T08:09:01.189Z</time></trkpt><trkpt lat="43.6246464" lon="12.7865006"><ele>448.99999999999994</ele><time>2026-05-02T08:09:02.188Z</time></trkpt><trkpt lat="43.6246058" lon="12.7865749"><ele>449.0</ele><time>2026-05-02T08:09:03.183Z</time></trkpt><trkpt lat="43.624542" lon="12.7866366"><ele>449.0</ele><time>2026-05-02T08:09:04.196Z</time></trkpt><trkpt lat="43.6244619" lon="12.7866919"><ele>449.0</ele><time>2026-05-02T08:09:05.185Z</time></trkpt><trkpt lat="43.6243678" lon="12.7867488"><ele>448.99999999999994</ele><time>2026-05-02T08:09:06.189Z</time></trkpt><trkpt lat="43.6242659" lon="12.7867984"><ele>449.0</ele><time>2026-05-02T08:09:07.188Z</time></trkpt><trkpt lat="43.6241788" lon="12.7868302"><ele>452.79999999999995</ele><time>2026-05-02T08:09:08.187Z</time></trkpt><trkpt lat="43.624103" lon="12.7868424"><ele>456.59999999999997</ele><time>2026-05-02T08:09:09.188Z</time></trkpt><trkpt lat="43.6240261" lon="12.7868311"><ele>460.4</ele><time>2026-05-02T08:09:10.188Z</time></trkpt><trkpt lat="43.623944" lon="12.7867745"><ele>464.2</ele><time>2026-05-02T08:09:11.188Z</time></trkpt><trkpt lat="43.6238601" lon="12.7866703"><ele>468.0</ele><time>2026-05-02T08:09:12.189Z</time></trkpt><trkpt lat="43.6237694" lon="12.7865515"><ele>468.0</ele><time>2026-05-02T08:09:13.19Z</time></trkpt><trkpt lat="43.6236806" lon="12.7864405"><ele>467.99999999999994</ele><time>2026-05-02T08:09:14.19Z</time></trkpt><trkpt lat="43.6236013" lon="12.7863259"><ele>467.99999999999994</ele><time>2026-05-02T08:09:15.19Z</time></trkpt><trkpt lat="43.6235406" lon="12.7862153"><ele>468.0</ele><time>2026-05-02T08:09:16.191Z</time></trkpt><trkpt lat="43.6235152" lon="12.7861228"><ele>468.0</ele><time>2026-05-02T08:09:17.192Z</time></trkpt><trkpt lat="43.6235945" lon="12.7859704"><ele>471.59999999999997</ele><time>2026-05-02T08:09:19.187Z</time></trkpt><trkpt lat="43.6236839" lon="12.7859449"><ele>475.19999999999993</ele><time>2026-05-02T08:09:20.196Z</time></trkpt><trkpt lat="43.6238079" lon="12.7859329"><ele>478.8</ele><time>2026-05-02T08:09:21.19Z</time></trkpt><trkpt lat="43.623902" lon="12.7859008"><ele>482.4</ele><time>2026-05-02T08:09:22.184Z</time></trkpt><trkpt lat="43.623983" lon="12.7858678"><ele>486.0</ele><time>2026-05-02T08:09:23.188Z</time></trkpt><trkpt lat="43.6240634" lon="12.7858185"><ele>486.0</ele><time>2026-05-02T08:09:24.19Z</time></trkpt><trkpt lat="43.6241325" lon="12.7857499"><ele>486.0</ele><time>2026-05-02T08:09:25.189Z</time></trkpt><trkpt lat="43.6241829" lon="12.7856556"><ele>486.0</ele><time>2026-05-02T08:09:26.19Z</time></trkpt><trkpt lat="43.624215" lon="12.7855382"><ele>486.0</ele><time>2026-05-02T08:09:27.182Z</time></trkpt><trkpt lat="43.6242489" lon="12.785409"><ele>486.0</ele><time>2026-05-02T08:09:28.189Z</time></trkpt><trkpt lat="43.6242929" lon="12.7852701"><ele>488.75</ele><time>2026-05-02T08:09:29.188Z</time></trkpt><trkpt lat="43.6243576" lon="12.785141"><ele>491.5</ele><time>2026-05-02T08:09:30.198Z</time></trkpt><trkpt lat="43.6244435" lon="12.7850491"><ele>494.25</ele><time>2026-05-02T08:09:31.195Z</time></trkpt><trkpt lat="43.6245545" lon="12.7849879"><ele>497.0</ele><time>2026-05-02T08:09:32.199Z</time></trkpt><trkpt lat="43.6246967" lon="12.7849622"><ele>497.0</ele><time>2026-05-02T08:09:33.187Z</time></trkpt><trkpt lat="43.6248341" lon="12.7849353"><ele>497.0</ele><time>2026-05-02T08:09:34.189Z</time></trkpt><trkpt lat="43.6249587" lon="12.7848937"><ele>497.0</ele><time>2026-05-02T08:09:35.196Z</time></trkpt><trkpt lat="43.6250769" lon="12.784817"><ele>497.0</ele><time>2026-05-02T08:09:36.191Z</time></trkpt><trkpt lat="43.6252042" lon="12.7847265"><ele>492.20000000000005</ele><time>2026-05-02T08:09:37.188Z</time></trkpt><trkpt lat="43.6253238" lon="12.7846649"><ele>487.40000000000003</ele><time>2026-05-02T08:09:38.194Z</time></trkpt><trkpt lat="43.6254246" lon="12.7846465"><ele>482.59999999999997</ele><time>2026-05-02T08:09:39.191Z</time></trkpt><trkpt lat="43.6255006" lon="12.7846133"><ele>477.79999999999995</ele><time>2026-05-02T08:09:40.196Z</time></trkpt><trkpt lat="43.6255602" lon="12.784528"><ele>473.0</ele><time>2026-05-02T08:09:42.19Z</time></trkpt><trkpt lat="43.6255147" lon="12.7844349"><ele>473.0</ele><time>2026-05-02T08:09:44.193Z</time></trkpt><trkpt lat="43.6254261" lon="12.7844327"><ele>472.99999999999994</ele><time>2026-05-02T08:09:46.197Z</time></trkpt><trkpt lat="43.6253592" lon="12.7844729"><ele>472.99999999999994</ele><time>2026-05-02T08:09:47.19Z</time></trkpt><trkpt lat="43.6252603" lon="12.7845076"><ele>473.0</ele><time>2026-05-02T08:09:48.193Z</time></trkpt><trkpt lat="43.6251501" lon="12.7845212"><ele>473.0</ele><time>2026-05-02T08:09:49.199Z</time></trkpt><trkpt lat="43.6250283" lon="12.7845183"><ele>479.0</ele><time>2026-05-02T08:09:50.186Z</time></trkpt><trkpt lat="43.6249022" lon="12.7844865"><ele>485.0</ele><time>2026-05-02T08:09:51.195Z</time></trkpt><trkpt lat="43.6247764" lon="12.7844302"><ele>491.0</ele><time>2026-05-02T08:09:52.19Z</time></trkpt><trkpt lat="43.624656" lon="12.7843617"><ele>497.0</ele><time>2026-05-02T08:09:53.192Z</time></trkpt><trkpt lat="43.6245413" lon="12.7842748"><ele>502.40000000000003</ele><time>2026-05-02T08:09:54.196Z</time></trkpt><trkpt lat="43.6244387" lon="12.7841861"><ele>507.80000000000007</ele><time>2026-05-02T08:09:55.191Z</time></trkpt><trkpt lat="43.6243356" lon="12.7841157"><ele>513.2</ele><time>2026-05-02T08:09:56.201Z</time></trkpt><trkpt lat="43.624234" lon="12.7840962"><ele>518.6</ele><time>2026-05-02T08:09:57.192Z</time></trkpt><trkpt lat="43.6241259" lon="12.7841125"><ele>524.0</ele><time>2026-05-02T08:09:58.188Z</time></trkpt><trkpt lat="43.6240209" lon="12.7841459"><ele>524.0</ele><time>2026-05-02T08:09:59.195Z</time></trkpt><trkpt lat="43.6239145" lon="12.7841491"><ele>524.0</ele><time>2026-05-02T08:10:00.201Z</time></trkpt><trkpt lat="43.6238009" lon="12.7841287"><ele>524.0</ele><time>2026-05-02T08:10:01.205Z</time></trkpt><trkpt lat="43.623668" lon="12.7841098"><ele>524.0</ele><time>2026-05-02T08:10:02.196Z</time></trkpt><trkpt lat="43.6235285" lon="12.7841025"><ele>524.8</ele><time>2026-05-02T08:10:03.192Z</time></trkpt><trkpt lat="43.623403" lon="12.7841002"><ele>525.5999999999999</ele><time>2026-05-02T08:10:04.191Z</time></trkpt><trkpt lat="43.623295" lon="12.7841058"><ele>526.4</ele><time>2026-05-02T08:10:05.191Z</time></trkpt><trkpt lat="43.6232118" lon="12.7841075"><ele>527.1999999999999</ele><time>2026-05-02T08:10:06.196Z</time></trkpt><trkpt lat="43.6230995" lon="12.7840982"><ele>528.0</ele><time>2026-05-02T08:10:08.201Z</time></trkpt><trkpt lat="43.6231019" lon="12.7839864"><ele>528.0</ele><time>2026-05-02T08:10:10.195Z</time></trkpt><trkpt lat="43.6231629" lon="12.7839488"><ele>528.0</ele><time>2026-05-02T08:10:11.194Z</time></trkpt><trkpt lat="43.6232588" lon="12.7839375"><ele>528.0</ele><time>2026-05-02T08:10:12.193Z</time></trkpt><trkpt lat="43.6233795" lon="12.7839334"><ele>528.0</ele><time>2026-05-02T08:10:13.19Z</time></trkpt><trkpt lat="43.6234842" lon="12.7839107"><ele>528.0</ele><time>2026-05-02T08:10:14.187Z</time></trkpt><trkpt lat="43.62357" lon="12.7838718"><ele>527.0</ele><time>2026-05-02T08:10:15.192Z</time></trkpt><trkpt lat="43.6236641" lon="12.7838146"><ele>526.0</ele><time>2026-05-02T08:10:16.189Z</time></trkpt><trkpt lat="43.6237569" lon="12.7837224"><ele>525.0</ele><time>2026-05-02T08:10:17.195Z</time></trkpt><trkpt lat="43.6238544" lon="12.7836264"><ele>524.0</ele><time>2026-05-02T08:10:18.193Z</time></trkpt><trkpt lat="43.6239582" lon="12.7835297"><ele>530.25</ele><time>2026-05-02T08:10:19.204Z</time></trkpt><trkpt lat="43.6240824" lon="12.783491"><ele>536.5</ele><time>2026-05-02T08:10:20.195Z</time></trkpt><trkpt lat="43.6242019" lon="12.783458"><ele>542.75</ele><time>2026-05-02T08:10:21.198Z</time></trkpt><trkpt lat="43.624309" lon="12.783409"><ele>549.0</ele><time>2026-05-02T08:10:22.202Z</time></trkpt><trkpt lat="43.6243953" lon="12.7833322"><ele>549.0</ele><time>2026-05-02T08:10:23.2Z</time></trkpt><trkpt lat="43.6244658" lon="12.7832029"><ele>549.0</ele><time>2026-05-02T08:10:24.198Z</time></trkpt><trkpt lat="43.6245344" lon="12.7830838"><ele>549.0</ele><time>2026-05-02T08:10:25.194Z</time></trkpt><trkpt lat="43.6246054" lon="12.7829986"><ele>549.0</ele><time>2026-05-02T08:10:26.192Z</time></trkpt><trkpt lat="43.6246948" lon="12.7829322"><ele>549.0</ele><time>2026-05-02T08:10:27.202Z</time></trkpt><trkpt lat="43.6248203" lon="12.782901"><ele>547.5</ele><time>2026-05-02T08:10:28.19Z</time></trkpt><trkpt lat="43.6249667" lon="12.7828868"><ele>546.0</ele><time>2026-05-02T08:10:29.194Z</time></trkpt><trkpt lat="43.625097" lon="12.7828628"><ele>544.5</ele><time>2026-05-02T08:10:30.197Z</time></trkpt><trkpt lat="43.6251907" lon="12.7828354"><ele>543.0</ele><time>2026-05-02T08:10:31.202Z</time></trkpt><trkpt lat="43.6251754" lon="12.7827302"><ele>543.0</ele><time>2026-05-02T08:10:40.196Z</time></trkpt><trkpt lat="43.6251129" lon="12.7827009"><ele>543.0</ele><time>2026-05-02T08:10:41.195Z</time></trkpt><trkpt lat="43.6250378" lon="12.7827044"><ele>543.0</ele><time>2026-05-02T08:10:42.189Z</time></trkpt><trkpt lat="43.6249516" lon="12.7827336"><ele>543.0</ele><time>2026-05-02T08:10:43.195Z</time></trkpt><trkpt lat="43.6248512" lon="12.7827616"><ele>543.0</ele><time>2026-05-02T08:10:44.193Z</time></trkpt><trkpt lat="43.6247452" lon="12.7827763"><ele>543.0</ele><time>2026-05-02T08:10:45.195Z</time></trkpt><trkpt lat="43.6246286" lon="12.7827488"><ele>543.0</ele><time>2026-05-02T08:10:46.195Z</time></trkpt><trkpt lat="43.624489" lon="12.7826975"><ele>543.0</ele><time>2026-05-02T08:10:47.186Z</time></trkpt><trkpt lat="43.6243357" lon="12.7826698"><ele>543.0</ele><time>2026-05-02T08:10:48.195Z</time></trkpt><trkpt lat="43.6241862" lon="12.7826623"><ele>543.0</ele><time>2026-05-02T08:10:49.187Z</time></trkpt><trkpt lat="43.6240545" lon="12.7826378"><ele>552.3333333333334</ele><time>2026-05-02T08:10:50.199Z</time></trkpt><trkpt lat="43.6239129" lon="12.7825816"><ele>561.6666666666667</ele><time>2026-05-02T08:10:51.196Z</time></trkpt><trkpt lat="43.6237654" lon="12.7825034"><ele>571.0</ele><time>2026-05-02T08:10:52.198Z</time></trkpt><trkpt lat="43.6236126" lon="12.7824435"><ele>572.25</ele><time>2026-05-02T08:10:53.197Z</time></trkpt><trkpt lat="43.6234705" lon="12.7824156"><ele>573.5</ele><time>2026-05-02T08:10:54.196Z</time></trkpt><trkpt lat="43.6233248" lon="12.7824284"><ele>574.75</ele><time>2026-05-02T08:10:55.193Z</time></trkpt><trkpt lat="43.6231775" lon="12.7824519"><ele>576.0</ele><time>2026-05-02T08:10:56.198Z</time></trkpt><trkpt lat="43.6230408" lon="12.7824887"><ele>576.0</ele><time>2026-05-02T08:10:57.193Z</time></trkpt><trkpt lat="43.6229097" lon="12.7825284"><ele>576.0</ele><time>2026-05-02T08:10:58.188Z</time></trkpt><trkpt lat="43.6227818" lon="12.7825553"><ele>576.0</ele><time>2026-05-02T08:10:59.189Z</time></trkpt><trkpt lat="43.6226573" lon="12.7825446"><ele>576.0</ele><time>2026-05-02T08:11:00.198Z</time></trkpt><trkpt lat="43.622517" lon="12.7825346"><ele>578.25</ele><time>2026-05-02T08:11:01.202Z</time></trkpt><trkpt lat="43.6223818" lon="12.7825199"><ele>580.5</ele><time>2026-05-02T08:11:02.195Z</time></trkpt><trkpt lat="43.62225" lon="12.7824554"><ele>582.75</ele><time>2026-05-02T08:11:03.198Z</time></trkpt><trkpt lat="43.6221263" lon="12.7823996"><ele>585.0</ele><time>2026-05-02T08:11:04.19Z</time></trkpt><trkpt lat="43.6220085" lon="12.7823265"><ele>584.0</ele><time>2026-05-02T08:11:05.193Z</time></trkpt><trkpt lat="43.621877" lon="12.7822556"><ele>583.0</ele><time>2026-05-02T08:11:06.199Z</time></trkpt><trkpt lat="43.6217392" lon="12.7821636"><ele>582.0</ele><time>2026-05-02T08:11:07.192Z</time></trkpt><trkpt lat="43.62161" lon="12.7820605"><ele>581.0</ele><time>2026-05-02T08:11:08.204Z</time></trkpt><trkpt lat="43.6214826" lon="12.7819438"><ele>585.5</ele><time>2026-05-02T08:11:09.193Z</time></trkpt><trkpt lat="43.6213523" lon="12.7818345"><ele>590.0</ele><time>2026-05-02T08:11:10.189Z</time></trkpt><trkpt lat="43.6212413" lon="12.78174"><ele>594.5</ele><time>2026-05-02T08:11:11.189Z</time></trkpt><trkpt lat="43.6211463" lon="12.7816821"><ele>599.0</ele><time>2026-05-02T08:11:12.188Z</time></trkpt><trkpt lat="43.6210929" lon="12.7816231"><ele>599.0</ele><time>2026-05-02T08:11:13.189Z</time></trkpt><trkpt lat="43.6210908" lon="12.7815164"><ele>599.0</ele><time>2026-05-02T08:11:15.192Z</time></trkpt><trkpt lat="43.6211486" lon="12.7814463"><ele>599.0</ele><time>2026-05-02T08:11:17.193Z</time></trkpt><trkpt lat="43.621261" lon="12.7813987"><ele>599.0</ele><time>2026-05-02T08:11:19.199Z</time></trkpt><trkpt lat="43.6213532" lon="12.7814003"><ele>599.0</ele><time>2026-05-02T08:11:20.197Z</time></trkpt><trkpt lat="43.6214872" lon="12.7814237"><ele>599.3333333333333</ele><time>2026-05-02T08:11:21.197Z</time></trkpt><trkpt lat="43.6216416" lon="12.7814719"><ele>599.6666666666666</ele><time>2026-05-02T08:11:22.19Z</time></trkpt><trkpt lat="43.6217987" lon="12.7815032"><ele>600.0</ele><time>2026-05-02T08:11:23.187Z</time></trkpt><trkpt lat="43.6219503" lon="12.7815279"><ele>600.75</ele><time>2026-05-02T08:11:24.192Z</time></trkpt><trkpt lat="43.6220815" lon="12.7815244"><ele>601.5</ele><time>2026-05-02T08:11:25.192Z</time></trkpt><trkpt lat="43.622197" lon="12.7814937"><ele>602.25</ele><time>2026-05-02T08:11:26.191Z</time></trkpt><trkpt lat="43.6223014" lon="12.7814411"><ele>603.0</ele><time>2026-05-02T08:11:27.198Z</time></trkpt><trkpt lat="43.6223835" lon="12.7813646"><ele>603.0</ele><time>2026-05-02T08:11:28.192Z</time></trkpt><trkpt lat="43.6224496" lon="12.7812635"><ele>603.0</ele><time>2026-05-02T08:11:29.194Z</time></trkpt><trkpt lat="43.6225157" lon="12.7811519"><ele>603.0</ele><time>2026-05-02T08:11:30.197Z</time></trkpt><trkpt lat="43.6225679" lon="12.7810021"><ele>603.0</ele><time>2026-05-02T08:11:31.194Z</time></trkpt><trkpt lat="43.622611" lon="12.7808535"><ele>603.0</ele><time>2026-05-02T08:11:32.193Z</time></trkpt><trkpt lat="43.6226454" lon="12.7807034"><ele>605.4</ele><time>2026-05-02T08:11:33.193Z</time></trkpt><trkpt lat="43.6226495" lon="12.7805379"><ele>607.8</ele><time>2026-05-02T08:11:34.191Z</time></trkpt><trkpt lat="43.6226437" lon="12.7804016"><ele>610.2</ele><time>2026-05-02T08:11:35.198Z</time></trkpt><trkpt lat="43.6226814" lon="12.7802813"><ele>612.6</ele><time>2026-05-02T08:11:37.192Z</time></trkpt><trkpt lat="43.622789" lon="12.7802666"><ele>615.0</ele><time>2026-05-02T08:11:39.202Z</time></trkpt><trkpt lat="43.6228799" lon="12.780308"><ele>615.0</ele><time>2026-05-02T08:11:40.195Z</time></trkpt><trkpt lat="43.6230088" lon="12.7803649"><ele>615.0</ele><time>2026-05-02T08:11:41.191Z</time></trkpt><trkpt lat="43.6231376" lon="12.7804159"><ele>615.0</ele><time>2026-05-02T08:11:42.189Z</time></trkpt><trkpt lat="43.6232531" lon="12.7804452"><ele>615.0</ele><time>2026-05-02T08:11:43.184Z</time></trkpt><trkpt lat="43.623349" lon="12.7804619"><ele>615.0</ele><time>2026-05-02T08:11:44.19Z</time></trkpt><trkpt lat="43.6234386" lon="12.7804522"><ele>615.0</ele><time>2026-05-02T08:11:45.195Z</time></trkpt><trkpt lat="43.6235273" lon="12.7804124"><ele>615.0</ele><time>2026-05-02T08:11:46.189Z</time></trkpt><trkpt lat="43.6236227" lon="12.7803372"><ele>615.0</ele><time>2026-05-02T08:11:47.193Z</time></trkpt><trkpt lat="43.6237038" lon="12.7802413"><ele>615.0</ele><time>2026-05-02T08:11:48.192Z</time></trkpt><trkpt lat="43.623776" lon="12.7801235"><ele>620.0</ele><time>2026-05-02T08:11:49.194Z</time></trkpt><trkpt lat="43.6238422" lon="12.779983"><ele>625.0</ele><time>2026-05-02T08:11:50.19Z</time></trkpt><trkpt lat="43.6239" lon="12.7798371"><ele>630.0</ele><time>2026-05-02T08:11:51.187Z</time></trkpt><trkpt lat="43.6239633" lon="12.7797155"><ele>635.0</ele><time>2026-05-02T08:11:52.198Z</time></trkpt><trkpt lat="43.6240453" lon="12.779625"><ele>635.0</ele><time>2026-05-02T08:11:53.191Z</time></trkpt><trkpt lat="43.6241524" lon="12.7795368"><ele>635.0</ele><time>2026-05-02T08:11:54.193Z</time></trkpt><trkpt lat="43.6242465" lon="12.7794639"><ele>635.0</ele><time>2026-05-02T08:11:55.192Z</time></trkpt><trkpt lat="43.6243295" lon="12.7793641"><ele>635.0</ele><time>2026-05-02T08:11:56.198Z</time></trkpt><trkpt lat="43.6244059" lon="12.779226"><ele>637.5</ele><time>2026-05-02T08:11:57.192Z</time></trkpt><trkpt lat="43.6244695" lon="12.7790806"><ele>640.0</ele><time>2026-05-02T08:11:58.197Z</time></trkpt><trkpt lat="43.6245401" lon="12.7789553"><ele>642.5</ele><time>2026-05-02T08:11:59.196Z</time></trkpt><trkpt lat="43.6246306" lon="12.7788535"><ele>645.0</ele><time>2026-05-02T08:12:00.199Z</time></trkpt><trkpt lat="43.6247367" lon="12.7787866"><ele>645.0</ele><time>2026-05-02T08:12:01.205Z</time></trkpt><trkpt lat="43.6248594" lon="12.7787596"><ele>645.0</ele><time>2026-05-02T08:12:02.19Z</time></trkpt><trkpt lat="43.6249857" lon="12.7787547"><ele>645.0</ele><time>2026-05-02T08:12:03.195Z</time></trkpt><trkpt lat="43.6250977" lon="12.7787464"><ele>645.0</ele><time>2026-05-02T08:12:04.192Z</time></trkpt><trkpt lat="43.6251919" lon="12.7787205"><ele>645.0</ele><time>2026-05-02T08:12:05.189Z</time></trkpt><trkpt lat="43.6252743" lon="12.7786615"><ele>645.0</ele><time>2026-05-02T08:12:06.197Z</time></trkpt><trkpt lat="43.6253423" lon="12.7785836"><ele>645.0</ele><time>2026-05-02T08:12:07.194Z</time></trkpt><trkpt lat="43.6253962" lon="12.7784991"><ele>645.0</ele><time>2026-05-02T08:12:08.203Z</time></trkpt><trkpt lat="43.6254461" lon="12.7784136"><ele>645.0</ele><time>2026-05-02T08:12:09.196Z</time></trkpt><trkpt lat="43.6254849" lon="12.7783062"><ele>645.0</ele><time>2026-05-02T08:12:10.207Z</time></trkpt><trkpt lat="43.625512" lon="12.7781633"><ele>646.0</ele><time>2026-05-02T08:12:11.194Z</time></trkpt><trkpt lat="43.6255427" lon="12.7780109"><ele>647.0</ele><time>2026-05-02T08:12:12.194Z</time></trkpt><trkpt lat="43.6255778" lon="12.7778844"><ele>648.0</ele><time>2026-05-02T08:12:13.191Z</time></trkpt><trkpt lat="43.6256276" lon="12.7778043"><ele>649.0</ele><time>2026-05-02T08:12:14.195Z</time></trkpt><trkpt lat="43.6257025" lon="12.7777677"><ele>650.0</ele><time>2026-05-02T08:12:15.2Z</time></trkpt><trkpt lat="43.6258021" lon="12.7777482"><ele>650.0</ele><time>2026-05-02T08:12:16.194Z</time></trkpt><trkpt lat="43.6258698" lon="12.7777324"><ele>650.0</ele><time>2026-05-02T08:12:17.191Z</time></trkpt><trkpt lat="43.625921" lon="12.7776449"><ele>650.0</ele><time>2026-05-02T08:12:19.188Z</time></trkpt><trkpt lat="43.6257956" lon="12.7776447"><ele>650.0</ele><time>2026-05-02T08:12:22.195Z</time></trkpt><trkpt lat="43.6257017" lon="12.7776753"><ele>650.0</ele><time>2026-05-02T08:12:23.197Z</time></trkpt><trkpt lat="43.6255902" lon="12.7777025"><ele>650.0</ele><time>2026-05-02T08:12:24.195Z</time></trkpt><trkpt lat="43.625486" lon="12.7777168"><ele>650.0</ele><time>2026-05-02T08:12:25.196Z</time></trkpt><trkpt lat="43.6253738" lon="12.7777507"><ele>650.0</ele><time>2026-05-02T08:12:26.193Z</time></trkpt><trkpt lat="43.6252587" lon="12.777811"><ele>650.0</ele><time>2026-05-02T08:12:27.192Z</time></trkpt><trkpt lat="43.6251485" lon="12.7778834"><ele>653.25</ele><time>2026-05-02T08:12:28.192Z</time></trkpt><trkpt lat="43.6250423" lon="12.7779232"><ele>656.5</ele><time>2026-05-02T08:12:29.196Z</time></trkpt><trkpt lat="43.6249354" lon="12.7779407"><ele>659.75</ele><time>2026-05-02T08:12:30.196Z</time></trkpt><trkpt lat="43.6248231" lon="12.7779023"><ele>663.0</ele><time>2026-05-02T08:12:31.201Z</time></trkpt><trkpt lat="43.6246943" lon="12.7778481"><ele>663.0</ele><time>2026-05-02T08:12:32.192Z</time></trkpt><trkpt lat="43.6245577" lon="12.7778064"><ele>663.0</ele><time>2026-05-02T08:12:33.2Z</time></trkpt><trkpt lat="43.6244088" lon="12.777788"><ele>663.0</ele><time>2026-05-02T08:12:34.196Z</time></trkpt><trkpt lat="43.6242601" lon="12.7777896"><ele>663.0</ele><time>2026-05-02T08:12:35.191Z</time></trkpt><trkpt lat="43.6241166" lon="12.7777893"><ele>666.0</ele><time>2026-05-02T08:12:36.193Z</time></trkpt><trkpt lat="43.6239544" lon="12.7777961"><ele>669.0</ele><time>2026-05-02T08:12:37.195Z</time></trkpt><trkpt lat="43.6238041" lon="12.777796"><ele>672.0</ele><time>2026-05-02T08:12:38.196Z</time></trkpt><trkpt lat="43.6236464" lon="12.7778188"><ele>673.25</ele><time>2026-05-02T08:12:39.196Z</time></trkpt><trkpt lat="43.62348" lon="12.7778638"><ele>674.5</ele><time>2026-05-02T08:12:40.197Z</time></trkpt><trkpt lat="43.6233411" lon="12.7778875"><ele>675.75</ele><time>2026-05-02T08:12:41.213Z</time></trkpt><trkpt lat="43.6232022" lon="12.7778863"><ele>677.0</ele><time>2026-05-02T08:12:42.195Z</time></trkpt><trkpt lat="43.6230745" lon="12.7778862"><ele>677.0</ele><time>2026-05-02T08:12:43.197Z</time></trkpt><trkpt lat="43.6229505" lon="12.7778816"><ele>677.0</ele><time>2026-05-02T08:12:44.194Z</time></trkpt><trkpt lat="43.6228369" lon="12.7778564"><ele>677.0</ele><time>2026-05-02T08:12:45.204Z</time></trkpt><trkpt lat="43.6227541" lon="12.7777837"><ele>677.0</ele><time>2026-05-02T08:12:46.204Z</time></trkpt><trkpt lat="43.6226807" lon="12.7776724"><ele>677.0</ele><time>2026-05-02T08:12:47.197Z</time></trkpt><trkpt lat="43.6226113" lon="12.7775513"><ele>681.0</ele><time>2026-05-02T08:12:48.202Z</time></trkpt><trkpt lat="43.6225357" lon="12.7774096"><ele>685.0</ele><time>2026-05-02T08:12:49.193Z</time></trkpt><trkpt lat="43.6224545" lon="12.7772985"><ele>689.0</ele><time>2026-05-02T08:12:50.2Z</time></trkpt><trkpt lat="43.6223636" lon="12.7772164"><ele>693.0</ele><time>2026-05-02T08:12:51.2Z</time></trkpt><trkpt lat="43.6222343" lon="12.7771578"><ele>693.0</ele><time>2026-05-02T08:12:52.191Z</time></trkpt><trkpt lat="43.622108" lon="12.777112"><ele>693.0</ele><time>2026-05-02T08:12:53.196Z</time></trkpt><trkpt lat="43.621996" lon="12.7770475"><ele>693.0</ele><time>2026-05-02T08:12:54.192Z</time></trkpt><trkpt lat="43.6219068" lon="12.7769516"><ele>693.0</ele><time>2026-05-02T08:12:55.209Z</time></trkpt><trkpt lat="43.6218332" lon="12.7768218"><ele>696.25</ele><time>2026-05-02T08:12:56.196Z</time></trkpt><trkpt lat="43.6217559" lon="12.7767054"><ele>699.5</ele><time>2026-05-02T08:12:57.199Z</time></trkpt><trkpt lat="43.6216577" lon="12.7766309"><ele>702.75</ele><time>2026-05-02T08:12:58.199Z</time></trkpt><trkpt lat="43.6215263" lon="12.7765824"><ele>706.0</ele><time>2026-05-02T08:12:59.194Z</time></trkpt><trkpt lat="43.621401" lon="12.7765062"><ele>706.0</ele><time>2026-05-02T08:13:00.201Z</time></trkpt><trkpt lat="43.6212793" lon="12.7763866"><ele>706.0</ele><time>2026-05-02T08:13:01.2Z</time></trkpt><trkpt lat="43.6211486" lon="12.7762398"><ele>706.0</ele><time>2026-05-02T08:13:02.197Z</time></trkpt><trkpt lat="43.6210134" lon="12.7761195"><ele>703.6666666666667</ele><time>2026-05-02T08:13:03.189Z</time></trkpt><trkpt lat="43.6208815" lon="12.776032"><ele>701.3333333333334</ele><time>2026-05-02T08:13:04.188Z</time></trkpt><trkpt lat="43.6207324" lon="12.775988"><ele>699.0</ele><time>2026-05-02T08:13:05.185Z</time></trkpt><trkpt lat="43.6205649" lon="12.775954"><ele>703.5</ele><time>2026-05-02T08:13:06.198Z</time></trkpt><trkpt lat="43.6204027" lon="12.7759289"><ele>708.0</ele><time>2026-05-02T08:13:07.197Z</time></trkpt><trkpt lat="43.6202593" lon="12.7758936"><ele>712.5</ele><time>2026-05-02T08:13:08.192Z</time></trkpt><trkpt lat="43.6201475" lon="12.7758615"><ele>717.0</ele><time>2026-05-02T08:13:09.197Z</time></trkpt><trkpt lat="43.6200737" lon="12.7758023"><ele>717.0</ele><time>2026-05-02T08:13:10.201Z</time></trkpt><trkpt lat="43.6200264" lon="12.7757141"><ele>717.0</ele><time>2026-05-02T08:13:11.204Z</time></trkpt><trkpt lat="43.6199824" lon="12.7755809"><ele>717.0</ele><time>2026-05-02T08:13:12.203Z</time></trkpt><trkpt lat="43.6199403" lon="12.7754157"><ele>717.0</ele><time>2026-05-02T08:13:13.198Z</time></trkpt><trkpt lat="43.6198926" lon="12.7752279"><ele>720.2</ele><time>2026-05-02T08:13:14.2Z</time></trkpt><trkpt lat="43.6198443" lon="12.775038"><ele>723.4000000000001</ele><time>2026-05-02T08:13:15.199Z</time></trkpt><trkpt lat="43.6198046" lon="12.7748663"><ele>726.5999999999999</ele><time>2026-05-02T08:13:16.207Z</time></trkpt><trkpt lat="43.6197662" lon="12.7747642"><ele>729.8</ele><time>2026-05-02T08:13:17.207Z</time></trkpt><trkpt lat="43.6197113" lon="12.7747009"><ele>733.0</ele><time>2026-05-02T08:13:18.197Z</time></trkpt><trkpt lat="43.6196391" lon="12.7746877"><ele>733.0</ele><time>2026-05-02T08:13:19.208Z</time></trkpt><trkpt lat="43.6195799" lon="12.774719"><ele>733.0</ele><time>2026-05-02T08:13:20.206Z</time></trkpt><trkpt lat="43.6195153" lon="12.7748542"><ele>733.0</ele><time>2026-05-02T08:13:22.196Z</time></trkpt><trkpt lat="43.6194985" lon="12.7749479"><ele>733.0</ele><time>2026-05-02T08:13:23.201Z</time></trkpt><trkpt lat="43.61947" lon="12.7750624"><ele>733.0</ele><time>2026-05-02T08:13:24.202Z</time></trkpt><trkpt lat="43.6194276" lon="12.7751962"><ele>733.0</ele><time>2026-05-02T08:13:25.2Z</time></trkpt><trkpt lat="43.6193715" lon="12.7753403"><ele>731.5999999999999</ele><time>2026-05-02T08:13:26.206Z</time></trkpt><trkpt lat="43.6192982" lon="12.7754776"><ele>730.1999999999999</ele><time>2026-05-02T08:13:27.197Z</time></trkpt><trkpt lat="43.6192228" lon="12.7755868"><ele>728.8</ele><time>2026-05-02T08:13:28.202Z</time></trkpt><trkpt lat="43.6191448" lon="12.7756687"><ele>727.4</ele><time>2026-05-02T08:13:29.2Z</time></trkpt><trkpt lat="43.6190584" lon="12.775721"><ele>726.0</ele><time>2026-05-02T08:13:30.206Z</time></trkpt><trkpt lat="43.6189634" lon="12.7757484"><ele>726.0</ele><time>2026-05-02T08:13:31.207Z</time></trkpt><trkpt lat="43.6188608" lon="12.7757491"><ele>726.0</ele><time>2026-05-02T08:13:32.197Z</time></trkpt><trkpt lat="43.6187473" lon="12.7757438"><ele>726.0</ele><time>2026-05-02T08:13:33.203Z</time></trkpt><trkpt lat="43.6186263" lon="12.7757322"><ele>726.0</ele><time>2026-05-02T08:13:34.203Z</time></trkpt><trkpt lat="43.6185129" lon="12.7757216"><ele>727.75</ele><time>2026-05-02T08:13:35.202Z</time></trkpt><trkpt lat="43.6184108" lon="12.7756839"><ele>729.5</ele><time>2026-05-02T08:13:36.209Z</time></trkpt><trkpt lat="43.6183035" lon="12.7755989"><ele>731.25</ele><time>2026-05-02T08:13:37.207Z</time></trkpt><trkpt lat="43.61819" lon="12.7754858"><ele>733.0</ele><time>2026-05-02T08:13:38.199Z</time></trkpt><trkpt lat="43.6180765" lon="12.7754021"><ele>733.0</ele><time>2026-05-02T08:13:39.2Z</time></trkpt><trkpt lat="43.6179689" lon="12.7753508"><ele>733.0</ele><time>2026-05-02T08:13:40.207Z</time></trkpt><trkpt lat="43.6178479" lon="12.7753539"><ele>733.0</ele><time>2026-05-02T08:13:41.204Z</time></trkpt><trkpt lat="43.6177078" lon="12.775398"><ele>733.0</ele><time>2026-05-02T08:13:42.211Z</time></trkpt><trkpt lat="43.617553" lon="12.7754437"><ele>735.0</ele><time>2026-05-02T08:13:43.2Z</time></trkpt><trkpt lat="43.6173902" lon="12.7754762"><ele>737.0</ele><time>2026-05-02T08:13:44.192Z</time></trkpt><trkpt lat="43.6172236" lon="12.7754655"><ele>739.0</ele><time>2026-05-02T08:13:45.201Z</time></trkpt><trkpt lat="43.6170484" lon="12.7754365"><ele>742.3333333333334</ele><time>2026-05-02T08:13:46.203Z</time></trkpt><trkpt lat="43.6168803" lon="12.7753944"><ele>745.6666666666666</ele><time>2026-05-02T08:13:47.21Z</time></trkpt><trkpt lat="43.6167267" lon="12.7753465"><ele>749.0</ele><time>2026-05-02T08:13:48.212Z</time></trkpt><trkpt lat="43.6165828" lon="12.7753111"><ele>749.0</ele><time>2026-05-02T08:13:49.208Z</time></trkpt><trkpt lat="43.6164747" lon="12.7752916"><ele>749.0</ele><time>2026-05-02T08:13:50.22Z</time></trkpt><trkpt lat="43.6163975" lon="12.7752981"><ele>749.0</ele><time>2026-05-02T08:13:51.21Z</time></trkpt><trkpt lat="43.6163059" lon="12.7753025"><ele>749.0</ele><time>2026-05-02T08:13:53.205Z</time></trkpt><trkpt lat="43.6162384" lon="12.7752713"><ele>749.0</ele><time>2026-05-02T08:13:55.213Z</time></trkpt><trkpt lat="43.6161798" lon="12.7752131"><ele>749.0</ele><time>2026-05-02T08:13:58.21Z</time></trkpt><trkpt lat="43.6161196" lon="12.7751404"><ele>749.0</ele><time>2026-05-02T08:14:01.217Z</time></trkpt><trkpt lat="43.6160638" lon="12.7750623"><ele>749.0</ele><time>2026-05-02T08:14:03.209Z</time></trkpt><trkpt lat="43.616011" lon="12.7749952"><ele>749.0</ele><time>2026-05-02T08:14:05.21Z</time></trkpt><trkpt lat="43.6159749" lon="12.7749207"><ele>749.0</ele><time>2026-05-02T08:14:07.214Z</time></trkpt><trkpt lat="43.6159445" lon="12.7748424"><ele>749.0</ele><time>2026-05-02T08:14:09.214Z</time></trkpt><trkpt lat="43.6159134" lon="12.7747514"><ele>749.0</ele><time>2026-05-02T08:14:11.22Z</time></trkpt><trkpt lat="43.6158916" lon="12.7746304"><ele>749.0</ele><time>2026-05-02T08:14:13.223Z</time></trkpt><trkpt lat="43.6159149" lon="12.7744517"><ele>748.8333333333333</ele><time>2026-05-02T08:14:15.212Z</time></trkpt><trkpt lat="43.6159452" lon="12.7743494"><ele>748.6666666666666</ele><time>2026-05-02T08:14:16.216Z</time></trkpt><trkpt lat="43.6159688" lon="12.7742367"><ele>748.5</ele><time>2026-05-02T08:14:17.219Z</time></trkpt><trkpt lat="43.6159922" lon="12.7741279"><ele>748.3333333333334</ele><time>2026-05-02T08:14:18.213Z</time></trkpt><trkpt lat="43.6160098" lon="12.7740284"><ele>748.1666666666667</ele><time>2026-05-02T08:14:19.221Z</time></trkpt><trkpt lat="43.6160322" lon="12.7739283"><ele>748.0</ele><time>2026-05-02T08:14:20.211Z</time></trkpt><trkpt lat="43.6160521" lon="12.7738254"><ele>748.0</ele><time>2026-05-02T08:14:21.214Z</time></trkpt><trkpt lat="43.6160709" lon="12.7737217"><ele>748.0</ele><time>2026-05-02T08:14:22.21Z</time></trkpt><trkpt lat="43.6160983" lon="12.773616"><ele>748.0</ele><time>2026-05-02T08:14:23.215Z</time></trkpt><trkpt lat="43.6161339" lon="12.7735256"><ele>748.0</ele><time>2026-05-02T08:14:24.218Z</time></trkpt><trkpt lat="43.6161746" lon="12.7734424"><ele>748.0</ele><time>2026-05-02T08:14:25.213Z</time></trkpt><trkpt lat="43.6162218" lon="12.7733649"><ele>748.0</ele><time>2026-05-02T08:14:26.217Z</time></trkpt><trkpt lat="43.6162703" lon="12.7733"><ele>748.0</ele><time>2026-05-02T08:14:27.214Z</time></trkpt><trkpt lat="43.6163273" lon="12.7732494"><ele>750.6666666666667</ele><time>2026-05-02T08:14:28.227Z</time></trkpt><trkpt lat="43.6163884" lon="12.7732256"><ele>753.3333333333334</ele><time>2026-05-02T08:14:29.217Z</time></trkpt><trkpt lat="43.6164511" lon="12.7732161"><ele>756.0</ele><time>2026-05-02T08:14:30.222Z</time></trkpt><trkpt lat="43.6165243" lon="12.7732241"><ele>758.6666666666666</ele><time>2026-05-02T08:14:31.221Z</time></trkpt><trkpt lat="43.6166037" lon="12.7732507"><ele>761.3333333333333</ele><time>2026-05-02T08:14:32.21Z</time></trkpt><trkpt lat="43.6167" lon="12.7732748"><ele>764.0</ele><time>2026-05-02T08:14:33.205Z</time></trkpt><trkpt lat="43.6168027" lon="12.7732913"><ele>764.0</ele><time>2026-05-02T08:14:34.207Z</time></trkpt><trkpt lat="43.616907" lon="12.7733028"><ele>764.0</ele><time>2026-05-02T08:14:35.206Z</time></trkpt><trkpt lat="43.617014" lon="12.7733111"><ele>764.0</ele><time>2026-05-02T08:14:36.21Z</time></trkpt><trkpt lat="43.6171244" lon="12.7733215"><ele>764.0</ele><time>2026-05-02T08:14:37.214Z</time></trkpt><trkpt lat="43.6172369" lon="12.7733318"><ele>764.0</ele><time>2026-05-02T08:14:38.217Z</time></trkpt><trkpt lat="43.6173523" lon="12.7733436"><ele>765.2</ele><time>2026-05-02T08:14:39.216Z</time></trkpt><trkpt lat="43.6174684" lon="12.7733618"><ele>766.4000000000001</ele><time>2026-05-02T08:14:40.217Z</time></trkpt><trkpt lat="43.6175816" lon="12.7733868"><ele>767.6</ele><time>2026-05-02T08:14:41.21Z</time></trkpt><trkpt lat="43.6176936" lon="12.7734082"><ele>768.8</ele><time>2026-05-02T08:14:42.216Z</time></trkpt><trkpt lat="43.617795" lon="12.7734347"><ele>770.0</ele><time>2026-05-02T08:14:43.213Z</time></trkpt><trkpt lat="43.6178826" lon="12.773448"><ele>770.4</ele><time>2026-05-02T08:14:44.219Z</time></trkpt><trkpt lat="43.6179523" lon="12.7734412"><ele>770.8</ele><time>2026-05-02T08:14:45.215Z</time></trkpt><trkpt lat="43.6180583" lon="12.7733804"><ele>771.2</ele><time>2026-05-02T08:14:47.208Z</time></trkpt><trkpt lat="43.6180703" lon="12.7732489"><ele>771.6</ele><time>2026-05-02T08:14:58.21Z</time></trkpt><trkpt lat="43.618084" lon="12.7731058"><ele>772.0</ele><time>2026-05-02T08:15:00.19Z</time></trkpt><trkpt lat="43.6181064" lon="12.7729442"><ele>772.0000000000001</ele><time>2026-05-02T08:15:02.181Z</time></trkpt><trkpt lat="43.6181257" lon="12.7728571"><ele>772.0</ele><time>2026-05-02T08:15:03.189Z</time></trkpt><trkpt lat="43.6181527" lon="12.7727631"><ele>772.0</ele><time>2026-05-02T08:15:04.184Z</time></trkpt><trkpt lat="43.6181859" lon="12.7726678"><ele>772.0</ele><time>2026-05-02T08:15:05.193Z</time></trkpt><trkpt lat="43.61822" lon="12.7725737"><ele>772.0</ele><time>2026-05-02T08:15:06.194Z</time></trkpt><trkpt lat="43.6182479" lon="12.7724791"><ele>772.0000000000001</ele><time>2026-05-02T08:15:07.19Z</time></trkpt><trkpt lat="43.6182786" lon="12.7723933"><ele>772.0</ele><time>2026-05-02T08:15:08.195Z</time></trkpt><trkpt lat="43.6183116" lon="12.772304"><ele>773.4999999999999</ele><time>2026-05-02T08:15:09.19Z</time></trkpt><trkpt lat="43.6183472" lon="12.77221"><ele>775.0</ele><time>2026-05-02T08:15:10.201Z</time></trkpt><trkpt lat="43.6183857" lon="12.7721061"><ele>776.5</ele><time>2026-05-02T08:15:11.19Z</time></trkpt><trkpt lat="43.6184234" lon="12.7720004"><ele>778.0</ele><time>2026-05-02T08:15:12.195Z</time></trkpt><trkpt lat="43.6184522" lon="12.7719097"><ele>779.4999999999999</ele><time>2026-05-02T08:15:13.194Z</time></trkpt><trkpt lat="43.6185084" lon="12.7717815"><ele>781.0</ele><time>2026-05-02T08:15:15.206Z</time></trkpt><trkpt lat="43.6185429" lon="12.7717028"><ele>781.8333333333333</ele><time>2026-05-02T08:15:33.193Z</time></trkpt><trkpt lat="43.6185768" lon="12.7716158"><ele>782.6666666666666</ele><time>2026-05-02T08:16:18.266Z</time></trkpt><trkpt lat="43.61863" lon="12.7714615"><ele>783.5</ele><time>2026-05-02T08:16:20.193Z</time></trkpt><trkpt lat="43.6186646" lon="12.771377"><ele>784.3333333333333</ele><time>2026-05-02T08:16:21.187Z</time></trkpt><trkpt lat="43.6187087" lon="12.7712922"><ele>785.1666666666666</ele><time>2026-05-02T08:16:22.186Z</time></trkpt><trkpt lat="43.6187623" lon="12.7712152"><ele>786.0</ele><time>2026-05-02T08:16:23.187Z</time></trkpt><trkpt lat="43.618823" lon="12.771146"><ele>786.2857142857143</ele><time>2026-05-02T08:16:24.187Z</time></trkpt><trkpt lat="43.6188834" lon="12.7710889"><ele>786.5714285714286</ele><time>2026-05-02T08:16:25.185Z</time></trkpt><trkpt lat="43.6189487" lon="12.771044"><ele>786.8571428571429</ele><time>2026-05-02T08:16:26.196Z</time></trkpt><trkpt lat="43.6190158" lon="12.7710066"><ele>787.1428571428571</ele><time>2026-05-02T08:16:27.187Z</time></trkpt><trkpt lat="43.6190801" lon="12.7709797"><ele>787.4285714285714</ele><time>2026-05-02T08:16:28.195Z</time></trkpt><trkpt lat="43.6191501" lon="12.7709626"><ele>787.7142857142858</ele><time>2026-05-02T08:16:29.189Z</time></trkpt><trkpt lat="43.6192175" lon="12.7709456"><ele>788.0</ele><time>2026-05-02T08:16:30.194Z</time></trkpt><trkpt lat="43.6192824" lon="12.770924"><ele>789.5000000000001</ele><time>2026-05-02T08:16:31.197Z</time></trkpt><trkpt lat="43.6193518" lon="12.7709051"><ele>791.0</ele><time>2026-05-02T08:16:32.194Z</time></trkpt><trkpt lat="43.619419" lon="12.7708926"><ele>792.5</ele><time>2026-05-02T08:16:33.197Z</time></trkpt><trkpt lat="43.6194819" lon="12.7708785"><ele>794.0</ele><time>2026-05-02T08:16:34.195Z</time></trkpt><trkpt lat="43.6195468" lon="12.7708683"><ele>795.5000000000001</ele><time>2026-05-02T08:16:35.191Z</time></trkpt><trkpt lat="43.6196096" lon="12.7708572"><ele>797.0</ele><time>2026-05-02T08:16:36.193Z</time></trkpt><trkpt lat="43.6197317" lon="12.7708326"><ele>796.8333333333334</ele><time>2026-05-02T08:16:38.186Z</time></trkpt><trkpt lat="43.6198404" lon="12.7708133"><ele>796.6666666666667</ele><time>2026-05-02T08:16:40.192Z</time></trkpt><trkpt lat="43.6199512" lon="12.7708419"><ele>796.5</ele><time>2026-05-02T08:16:42.195Z</time></trkpt><trkpt lat="43.6200119" lon="12.770882"><ele>796.3333333333333</ele><time>2026-05-02T08:16:43.186Z</time></trkpt><trkpt lat="43.6200728" lon="12.7709359"><ele>796.1666666666666</ele><time>2026-05-02T08:16:44.191Z</time></trkpt><trkpt lat="43.6201359" lon="12.7709956"><ele>796.0</ele><time>2026-05-02T08:16:45.191Z</time></trkpt><trkpt lat="43.6202047" lon="12.7710534"><ele>795.9999999999999</ele><time>2026-05-02T08:16:46.195Z</time></trkpt><trkpt lat="43.6202758" lon="12.7711069"><ele>796.0</ele><time>2026-05-02T08:16:47.193Z</time></trkpt><trkpt lat="43.6203466" lon="12.7711583"><ele>796.0</ele><time>2026-05-02T08:16:48.203Z</time></trkpt><trkpt lat="43.6204193" lon="12.7712083"><ele>796.0</ele><time>2026-05-02T08:16:49.198Z</time></trkpt><trkpt lat="43.6204831" lon="12.7712521"><ele>795.9999999999999</ele><time>2026-05-02T08:16:50.195Z</time></trkpt><trkpt lat="43.6205453" lon="12.7712949"><ele>796.0</ele><time>2026-05-02T08:16:51.197Z</time></trkpt><trkpt lat="43.6206131" lon="12.7713263"><ele>797.9999999999999</ele><time>2026-05-02T08:16:52.184Z</time></trkpt><trkpt lat="43.620681" lon="12.7713354"><ele>800.0</ele><time>2026-05-02T08:16:53.196Z</time></trkpt><trkpt lat="43.6207431" lon="12.7713102"><ele>802.0</ele><time>2026-05-02T08:16:54.19Z</time></trkpt><trkpt lat="43.6208004" lon="12.7712536"><ele>804.0</ele><time>2026-05-02T08:16:55.188Z</time></trkpt><trkpt lat="43.620856" lon="12.7711931"><ele>806.0</ele><time>2026-05-02T08:16:56.192Z</time></trkpt><trkpt lat="43.6209094" lon="12.7711324"><ele>807.9999999999999</ele><time>2026-05-02T08:16:57.195Z</time></trkpt><trkpt lat="43.6209713" lon="12.7710722"><ele>810.0</ele><time>2026-05-02T08:16:58.196Z</time></trkpt><trkpt lat="43.6210362" lon="12.7710045"><ele>811.5</ele><time>2026-05-02T08:16:59.191Z</time></trkpt><trkpt lat="43.6211028" lon="12.7709312"><ele>813.0</ele><time>2026-05-02T08:17:00.197Z</time></trkpt><trkpt lat="43.6211642" lon="12.770851"><ele>814.5</ele><time>2026-05-02T08:17:01.198Z</time></trkpt><trkpt lat="43.6212276" lon="12.7707641"><ele>816.0</ele><time>2026-05-02T08:17:02.19Z</time></trkpt><trkpt lat="43.6212816" lon="12.7706678"><ele>817.5</ele><time>2026-05-02T08:17:03.191Z</time></trkpt><trkpt lat="43.6213205" lon="12.7705677"><ele>819.0</ele><time>2026-05-02T08:17:04.193Z</time></trkpt><trkpt lat="43.6213499" lon="12.770457"><ele>819.6666666666666</ele><time>2026-05-02T08:17:05.198Z</time></trkpt><trkpt lat="43.6213901" lon="12.7703522"><ele>820.3333333333333</ele><time>2026-05-02T08:17:06.19Z</time></trkpt><trkpt lat="43.6214467" lon="12.7702628"><ele>821.0</ele><time>2026-05-02T08:17:07.191Z</time></trkpt><trkpt lat="43.6215149" lon="12.7701897"><ele>821.6666666666666</ele><time>2026-05-02T08:17:08.194Z</time></trkpt><trkpt lat="43.6215796" lon="12.7701046"><ele>822.3333333333333</ele><time>2026-05-02T08:17:09.193Z</time></trkpt><trkpt lat="43.6216437" lon="12.7700014"><ele>823.0</ele><time>2026-05-02T08:17:10.203Z</time></trkpt><trkpt lat="43.6217097" lon="12.7698986"><ele>824.5999999999999</ele><time>2026-05-02T08:17:11.193Z</time></trkpt><trkpt lat="43.6217684" lon="12.7697991"><ele>826.1999999999999</ele><time>2026-05-02T08:17:12.194Z</time></trkpt><trkpt lat="43.6218297" lon="12.7697008"><ele>827.8</ele><time>2026-05-02T08:17:13.196Z</time></trkpt><trkpt lat="43.621893" lon="12.7695976"><ele>829.4</ele><time>2026-05-02T08:17:14.193Z</time></trkpt><trkpt lat="43.6219623" lon="12.769499"><ele>831.0</ele><time>2026-05-02T08:17:15.194Z</time></trkpt><trkpt lat="43.6220298" lon="12.7694015"><ele>832.5999999999999</ele><time>2026-05-02T08:17:16.195Z</time></trkpt><trkpt lat="43.6220976" lon="12.769305"><ele>834.2</ele><time>2026-05-02T08:17:17.196Z</time></trkpt><trkpt lat="43.6221539" lon="12.7692073"><ele>835.8</ele><time>2026-05-02T08:17:18.198Z</time></trkpt><trkpt lat="43.6222068" lon="12.7691104"><ele>837.4000000000001</ele><time>2026-05-02T08:17:19.205Z</time></trkpt><trkpt lat="43.6222678" lon="12.7690163"><ele>839.0</ele><time>2026-05-02T08:17:20.198Z</time></trkpt><trkpt lat="43.6223391" lon="12.768922"><ele>839.0</ele><time>2026-05-02T08:17:21.197Z</time></trkpt><trkpt lat="43.6224193" lon="12.7688312"><ele>839.0</ele><time>2026-05-02T08:17:22.194Z</time></trkpt><trkpt lat="43.6225031" lon="12.7687372"><ele>839.0</ele><time>2026-05-02T08:17:23.192Z</time></trkpt><trkpt lat="43.6225841" lon="12.7686475"><ele>839.0</ele><time>2026-05-02T08:17:24.191Z</time></trkpt><trkpt lat="43.6226675" lon="12.7685469"><ele>839.0</ele><time>2026-05-02T08:17:25.194Z</time></trkpt><trkpt lat="43.6227491" lon="12.7684474"><ele>840.4000000000001</ele><time>2026-05-02T08:17:26.194Z</time></trkpt><trkpt lat="43.6228288" lon="12.7683477"><ele>841.8</ele><time>2026-05-02T08:17:27.196Z</time></trkpt><trkpt lat="43.6229066" lon="12.7682543"><ele>843.2</ele><time>2026-05-02T08:17:28.198Z</time></trkpt><trkpt lat="43.6229841" lon="12.7681647"><ele>844.5999999999999</ele><time>2026-05-02T08:17:29.198Z</time></trkpt><trkpt lat="43.6230594" lon="12.7680858"><ele>846.0</ele><time>2026-05-02T08:17:30.199Z</time></trkpt><trkpt lat="43.6231306" lon="12.7680059"><ele>846.0</ele><time>2026-05-02T08:17:31.197Z</time></trkpt><trkpt lat="43.6231963" lon="12.7679272"><ele>846.0</ele><time>2026-05-02T08:17:32.194Z</time></trkpt><trkpt lat="43.6232607" lon="12.767843"><ele>846.0</ele><time>2026-05-02T08:17:33.194Z</time></trkpt><trkpt lat="43.6233255" lon="12.7677531"><ele>846.0</ele><time>2026-05-02T08:17:34.192Z</time></trkpt><trkpt lat="43.6233869" lon="12.7676628"><ele>846.0</ele><time>2026-05-02T08:17:35.191Z</time></trkpt><trkpt lat="43.623446" lon="12.767567"><ele>846.0</ele><time>2026-05-02T08:17:36.188Z</time></trkpt><trkpt lat="43.6234962" lon="12.7674668"><ele>846.1666666666666</ele><time>2026-05-02T08:17:37.192Z</time></trkpt><trkpt lat="43.62354" lon="12.7673621"><ele>846.3333333333333</ele><time>2026-05-02T08:17:38.191Z</time></trkpt><trkpt lat="43.6235745" lon="12.7672462"><ele>846.5</ele><time>2026-05-02T08:17:39.193Z</time></trkpt><trkpt lat="43.6236074" lon="12.7671401"><ele>846.6666666666666</ele><time>2026-05-02T08:17:40.194Z</time></trkpt><trkpt lat="43.62364" lon="12.7670433"><ele>846.8333333333333</ele><time>2026-05-02T08:17:41.195Z</time></trkpt><trkpt lat="43.6236769" lon="12.7669459"><ele>847.0</ele><time>2026-05-02T08:17:42.192Z</time></trkpt><trkpt lat="43.623716" lon="12.7668464"><ele>847.3333333333333</ele><time>2026-05-02T08:17:43.195Z</time></trkpt><trkpt lat="43.6237557" lon="12.7667405"><ele>847.6666666666666</ele><time>2026-05-02T08:17:44.195Z</time></trkpt><trkpt lat="43.6237962" lon="12.7666302"><ele>848.0</ele><time>2026-05-02T08:17:45.192Z</time></trkpt><trkpt lat="43.6238361" lon="12.7665178"><ele>848.3333333333333</ele><time>2026-05-02T08:17:46.189Z</time></trkpt><trkpt lat="43.6238711" lon="12.7664053"><ele>848.6666666666666</ele><time>2026-05-02T08:17:47.191Z</time></trkpt><trkpt lat="43.6238963" lon="12.7662994"><ele>849.0</ele><time>2026-05-02T08:17:48.194Z</time></trkpt><trkpt lat="43.623922" lon="12.7661912"><ele>849.0</ele><time>2026-05-02T08:17:49.195Z</time></trkpt><trkpt lat="43.623938" lon="12.7660919"><ele>849.0</ele><time>2026-05-02T08:17:50.196Z</time></trkpt><trkpt lat="43.6239541" lon="12.7659994"><ele>849.0</ele><time>2026-05-02T08:17:51.194Z</time></trkpt><trkpt lat="43.6239722" lon="12.7659087"><ele>849.0</ele><time>2026-05-02T08:17:52.198Z</time></trkpt><trkpt lat="43.6240099" lon="12.7657345"><ele>849.0</ele><time>2026-05-02T08:17:54.191Z</time></trkpt><trkpt lat="43.6240297" lon="12.7656478"><ele>849.0</ele><time>2026-05-02T08:17:55.193Z</time></trkpt><trkpt lat="43.6240556" lon="12.765561"><ele>849.1428571428572</ele><time>2026-05-02T08:17:56.193Z</time></trkpt><trkpt lat="43.6240754" lon="12.765468"><ele>849.2857142857143</ele><time>2026-05-02T08:17:57.19Z</time></trkpt><trkpt lat="43.6240924" lon="12.7653733"><ele>849.4285714285714</ele><time>2026-05-02T08:17:58.191Z</time></trkpt><trkpt lat="43.6241028" lon="12.7652758"><ele>849.5714285714287</ele><time>2026-05-02T08:17:59.194Z</time></trkpt><trkpt lat="43.6241079" lon="12.7651814"><ele>849.7142857142857</ele><time>2026-05-02T08:18:00.196Z</time></trkpt><trkpt lat="43.6241082" lon="12.7650812"><ele>849.8571428571429</ele><time>2026-05-02T08:18:01.193Z</time></trkpt><trkpt lat="43.6241115" lon="12.7649783"><ele>850.0</ele><time>2026-05-02T08:18:02.193Z</time></trkpt><trkpt lat="43.6241167" lon="12.7648755"><ele>850.6666666666666</ele><time>2026-05-02T08:18:03.192Z</time></trkpt><trkpt lat="43.6241306" lon="12.7647724"><ele>851.3333333333333</ele><time>2026-05-02T08:18:04.19Z</time></trkpt><trkpt lat="43.6241541" lon="12.7646734"><ele>852.0</ele><time>2026-05-02T08:18:05.191Z</time></trkpt><trkpt lat="43.6241834" lon="12.7645719"><ele>852.6666666666667</ele><time>2026-05-02T08:18:06.191Z</time></trkpt><trkpt lat="43.624211" lon="12.7644709"><ele>853.3333333333334</ele><time>2026-05-02T08:18:07.192Z</time></trkpt><trkpt lat="43.6242397" lon="12.7643711"><ele>854.0</ele><time>2026-05-02T08:18:08.196Z</time></trkpt><trkpt lat="43.6242597" lon="12.7642714"><ele>855.1666666666667</ele><time>2026-05-02T08:18:09.195Z</time></trkpt><trkpt lat="43.6242795" lon="12.764165"><ele>856.3333333333334</ele><time>2026-05-02T08:18:10.195Z</time></trkpt><trkpt lat="43.6242988" lon="12.7640513"><ele>857.5</ele><time>2026-05-02T08:18:11.193Z</time></trkpt><trkpt lat="43.6243212" lon="12.7639407"><ele>858.6666666666667</ele><time>2026-05-02T08:18:12.194Z</time></trkpt><trkpt lat="43.6243412" lon="12.763824"><ele>859.8333333333334</ele><time>2026-05-02T08:18:13.192Z</time></trkpt><trkpt lat="43.6243652" lon="12.7637057"><ele>861.0</ele><time>2026-05-02T08:18:14.196Z</time></trkpt><trkpt lat="43.6243928" lon="12.7635902"><ele>861.1666666666666</ele><time>2026-05-02T08:18:15.195Z</time></trkpt><trkpt lat="43.6244205" lon="12.7634758"><ele>861.3333333333333</ele><time>2026-05-02T08:18:16.197Z</time></trkpt><trkpt lat="43.6244487" lon="12.7633623"><ele>861.5</ele><time>2026-05-02T08:18:17.192Z</time></trkpt><trkpt lat="43.6244806" lon="12.7632512"><ele>861.6666666666666</ele><time>2026-05-02T08:18:18.192Z</time></trkpt><trkpt lat="43.6245156" lon="12.7631492"><ele>861.8333333333333</ele><time>2026-05-02T08:18:19.201Z</time></trkpt><trkpt lat="43.6245537" lon="12.7630561"><ele>862.0</ele><time>2026-05-02T08:18:20.195Z</time></trkpt><trkpt lat="43.6245984" lon="12.7629689"><ele>863.2</ele><time>2026-05-02T08:18:21.199Z</time></trkpt><trkpt lat="43.6246413" lon="12.7628934"><ele>864.4000000000001</ele><time>2026-05-02T08:18:22.192Z</time></trkpt><trkpt lat="43.6246947" lon="12.7627645"><ele>865.5999999999999</ele><time>2026-05-02T08:18:24.185Z</time></trkpt><trkpt lat="43.6247109" lon="12.7626635"><ele>866.8</ele><time>2026-05-02T08:18:26.187Z</time></trkpt><trkpt lat="43.6247602" lon="12.7625711"><ele>868.0</ele><time>2026-05-02T08:18:28.189Z</time></trkpt><trkpt lat="43.6248448" lon="12.7624478"><ele>868.6666666666666</ele><time>2026-05-02T08:18:30.193Z</time></trkpt><trkpt lat="43.6248854" lon="12.7623708"><ele>869.3333333333333</ele><time>2026-05-02T08:18:31.185Z</time></trkpt><trkpt lat="43.6249277" lon="12.7622908"><ele>870.0</ele><time>2026-05-02T08:18:32.187Z</time></trkpt><trkpt lat="43.6249661" lon="12.7622005"><ele>870.6666666666667</ele><time>2026-05-02T08:18:33.185Z</time></trkpt><trkpt lat="43.6250099" lon="12.7621063"><ele>871.3333333333334</ele><time>2026-05-02T08:18:34.188Z</time></trkpt><trkpt lat="43.6250447" lon="12.7620065"><ele>872.0</ele><time>2026-05-02T08:18:35.183Z</time></trkpt><trkpt lat="43.6250692" lon="12.7619032"><ele>872.2857142857143</ele><time>2026-05-02T08:18:36.182Z</time></trkpt><trkpt lat="43.6250903" lon="12.7617968"><ele>872.5714285714287</ele><time>2026-05-02T08:18:37.187Z</time></trkpt><trkpt lat="43.6251086" lon="12.7616963"><ele>872.8571428571429</ele><time>2026-05-02T08:18:38.186Z</time></trkpt><trkpt lat="43.6251281" lon="12.7615984"><ele>873.1428571428571</ele><time>2026-05-02T08:18:39.185Z</time></trkpt><trkpt lat="43.6251489" lon="12.761502"><ele>873.4285714285714</ele><time>2026-05-02T08:18:40.186Z</time></trkpt><trkpt lat="43.6251661" lon="12.7614064"><ele>873.7142857142857</ele><time>2026-05-02T08:18:41.183Z</time></trkpt><trkpt lat="43.6251831" lon="12.7613119"><ele>874.0</ele><time>2026-05-02T08:18:42.191Z</time></trkpt><trkpt lat="43.6252079" lon="12.7612243"><ele>874.0</ele><time>2026-05-02T08:18:43.188Z</time></trkpt><trkpt lat="43.6252381" lon="12.7611377"><ele>874.0</ele><time>2026-05-02T08:18:44.183Z</time></trkpt><trkpt lat="43.6252572" lon="12.7610517"><ele>874.0</ele><time>2026-05-02T08:18:45.181Z</time></trkpt><trkpt lat="43.625274" lon="12.7609573"><ele>874.0</ele><time>2026-05-02T08:18:46.187Z</time></trkpt><trkpt lat="43.6252916" lon="12.7608674"><ele>874.0</ele><time>2026-05-02T08:18:47.183Z</time></trkpt><trkpt lat="43.6253203" lon="12.7607868"><ele>874.0</ele><time>2026-05-02T08:18:48.183Z</time></trkpt><trkpt lat="43.6253489" lon="12.7607038"><ele>874.0</ele><time>2026-05-02T08:18:49.185Z</time></trkpt><trkpt lat="43.6253746" lon="12.7606133"><ele>877.5714285714286</ele><time>2026-05-02T08:18:50.19Z</time></trkpt><trkpt lat="43.6253986" lon="12.7605193"><ele>881.1428571428571</ele><time>2026-05-02T08:18:51.184Z</time></trkpt><trkpt lat="43.6254215" lon="12.7604291"><ele>884.7142857142857</ele><time>2026-05-02T08:18:52.192Z</time></trkpt><trkpt lat="43.625451" lon="12.7603333"><ele>888.2857142857142</ele><time>2026-05-02T08:18:53.18Z</time></trkpt><trkpt lat="43.6254742" lon="12.7602354"><ele>891.8571428571429</ele><time>2026-05-02T08:18:54.185Z</time></trkpt><trkpt lat="43.6254934" lon="12.7601379"><ele>895.4285714285713</ele><time>2026-05-02T08:18:55.183Z</time></trkpt><trkpt lat="43.6255146" lon="12.7600463"><ele>898.9999999999999</ele><time>2026-05-02T08:18:56.184Z</time></trkpt><trkpt lat="43.625541" lon="12.7599631"><ele>898.9999999999999</ele><time>2026-05-02T08:18:57.187Z</time></trkpt><trkpt lat="43.6255635" lon="12.7598733"><ele>899.0</ele><time>2026-05-02T08:18:58.19Z</time></trkpt><trkpt lat="43.6255885" lon="12.7597905"><ele>898.9999999999999</ele><time>2026-05-02T08:18:59.19Z</time></trkpt><trkpt lat="43.6256215" lon="12.759707"><ele>898.9999999999999</ele><time>2026-05-02T08:19:00.187Z</time></trkpt><trkpt lat="43.625654" lon="12.7596198"><ele>899.0</ele><time>2026-05-02T08:19:01.192Z</time></trkpt><trkpt lat="43.6256879" lon="12.7595394"><ele>898.9999999999999</ele><time>2026-05-02T08:19:02.182Z</time></trkpt><trkpt lat="43.6257388" lon="12.7594183"><ele>898.9999999999999</ele><time>2026-05-02T08:19:04.187Z</time></trkpt><trkpt lat="43.6258056" lon="12.7593155"><ele>899.0000000000001</ele><time>2026-05-02T08:19:06.194Z</time></trkpt><trkpt lat="43.6258819" lon="12.7591854"><ele>899.0</ele><time>2026-05-02T08:19:08.188Z</time></trkpt><trkpt lat="43.6259216" lon="12.7591123"><ele>899.0</ele><time>2026-05-02T08:19:09.191Z</time></trkpt><trkpt lat="43.625958" lon="12.7590311"><ele>899.0</ele><time>2026-05-02T08:19:10.189Z</time></trkpt><trkpt lat="43.6259949" lon="12.7589439"><ele>899.0000000000001</ele><time>2026-05-02T08:19:11.189Z</time></trkpt><trkpt lat="43.6260321" lon="12.7588531"><ele>899.0</ele><time>2026-05-02T08:19:12.19Z</time></trkpt><trkpt lat="43.6260711" lon="12.7587723"><ele>899.0000000000001</ele><time>2026-05-02T08:19:13.19Z</time></trkpt><trkpt lat="43.6261079" lon="12.7586968"><ele>899.0</ele><time>2026-05-02T08:19:14.195Z</time></trkpt><trkpt lat="43.6261502" lon="12.7586177"><ele>899.0</ele><time>2026-05-02T08:19:15.19Z</time></trkpt><trkpt lat="43.6261984" lon="12.7585349"><ele>899.0</ele><time>2026-05-02T08:19:16.196Z</time></trkpt><trkpt lat="43.6262478" lon="12.7584501"><ele>899.0000000000001</ele><time>2026-05-02T08:19:17.191Z</time></trkpt><trkpt lat="43.626304" lon="12.7583625"><ele>899.0</ele><time>2026-05-02T08:19:18.19Z</time></trkpt><trkpt lat="43.6263566" lon="12.7582741"><ele>901.8000000000001</ele><time>2026-05-02T08:19:19.188Z</time></trkpt><trkpt lat="43.6264105" lon="12.7581781"><ele>904.6000000000001</ele><time>2026-05-02T08:19:20.19Z</time></trkpt><trkpt lat="43.6264616" lon="12.7580767"><ele>907.4</ele><time>2026-05-02T08:19:21.191Z</time></trkpt><trkpt lat="43.6265085" lon="12.7579682"><ele>910.2</ele><time>2026-05-02T08:19:22.191Z</time></trkpt><trkpt lat="43.6265546" lon="12.7578559"><ele>913.0</ele><time>2026-05-02T08:19:23.196Z</time></trkpt><trkpt lat="43.6266005" lon="12.7577379"><ele>912.2</ele><time>2026-05-02T08:19:24.189Z</time></trkpt><trkpt lat="43.6266445" lon="12.7576217"><ele>911.4</ele><time>2026-05-02T08:19:25.194Z</time></trkpt><trkpt lat="43.6266885" lon="12.7574982"><ele>910.6000000000001</ele><time>2026-05-02T08:19:26.191Z</time></trkpt><trkpt lat="43.6267282" lon="12.7573699"><ele>909.8000000000001</ele><time>2026-05-02T08:19:27.192Z</time></trkpt><trkpt lat="43.6267696" lon="12.7572407"><ele>909.0</ele><time>2026-05-02T08:19:28.195Z</time></trkpt><trkpt lat="43.6268123" lon="12.7571118"><ele>909.0</ele><time>2026-05-02T08:19:29.191Z</time></trkpt><trkpt lat="43.6268545" lon="12.7569824"><ele>909.0000000000001</ele><time>2026-05-02T08:19:30.194Z</time></trkpt><trkpt lat="43.6268983" lon="12.7568548"><ele>909.0000000000001</ele><time>2026-05-02T08:19:31.194Z</time></trkpt><trkpt lat="43.6269475" lon="12.7567285"><ele>909.0</ele><time>2026-05-02T08:19:32.192Z</time></trkpt><trkpt lat="43.627" lon="12.7566077"><ele>909.0</ele><time>2026-05-02T08:19:33.189Z</time></trkpt><trkpt lat="43.6270476" lon="12.7564944"><ele>910.0</ele><time>2026-05-02T08:19:34.186Z</time></trkpt><trkpt lat="43.6270936" lon="12.7563923"><ele>911.0</ele><time>2026-05-02T08:19:35.19Z</time></trkpt><trkpt lat="43.6271423" lon="12.7563053"><ele>912.0</ele><time>2026-05-02T08:19:36.192Z</time></trkpt><trkpt lat="43.6271882" lon="12.7562301"><ele>913.0</ele><time>2026-05-02T08:19:37.193Z</time></trkpt><trkpt lat="43.6272359" lon="12.7561569"><ele>914.0</ele><time>2026-05-02T08:19:38.192Z</time></trkpt><trkpt lat="43.627283" lon="12.7560832"><ele>915.0</ele><time>2026-05-02T08:19:39.193Z</time></trkpt><trkpt lat="43.6273297" lon="12.7560232"><ele>916.0</ele><time>2026-05-02T08:19:40.192Z</time></trkpt><trkpt lat="43.6273823" lon="12.7559645"><ele>915.9999999999999</ele><time>2026-05-02T08:19:41.192Z</time></trkpt><trkpt lat="43.627435" lon="12.755908"><ele>916.0</ele><time>2026-05-02T08:19:42.191Z</time></trkpt><trkpt lat="43.627492" lon="12.7558504"><ele>916.0</ele><time>2026-05-02T08:19:43.192Z</time></trkpt><trkpt lat="43.6275558" lon="12.7557869"><ele>916.0</ele><time>2026-05-02T08:19:44.194Z</time></trkpt><trkpt lat="43.6276205" lon="12.7557144"><ele>915.9999999999999</ele><time>2026-05-02T08:19:45.19Z</time></trkpt><trkpt lat="43.6276912" lon="12.755638"><ele>916.0</ele><time>2026-05-02T08:19:46.188Z</time></trkpt><trkpt lat="43.6277647" lon="12.7555638"><ele>917.5999999999999</ele><time>2026-05-02T08:19:47.192Z</time></trkpt><trkpt lat="43.627843" lon="12.7554887"><ele>919.1999999999999</ele><time>2026-05-02T08:19:48.195Z</time></trkpt><trkpt lat="43.6279229" lon="12.7554192"><ele>920.8000000000001</ele><time>2026-05-02T08:19:49.19Z</time></trkpt><trkpt lat="43.6280077" lon="12.7553653"><ele>922.4000000000001</ele><time>2026-05-02T08:19:50.189Z</time></trkpt><trkpt lat="43.6281006" lon="12.7553231"><ele>924.0</ele><time>2026-05-02T08:19:51.184Z</time></trkpt><trkpt lat="43.6281961" lon="12.7553044"><ele>924.0</ele><time>2026-05-02T08:19:52.199Z</time></trkpt><trkpt lat="43.6282974" lon="12.7553184"><ele>924.0000000000001</ele><time>2026-05-02T08:19:53.194Z</time></trkpt><trkpt lat="43.6284037" lon="12.7553501"><ele>924.0000000000001</ele><time>2026-05-02T08:19:54.202Z</time></trkpt><trkpt lat="43.6285099" lon="12.7553943"><ele>924.0</ele><time>2026-05-02T08:19:55.194Z</time></trkpt><trkpt lat="43.6286111" lon="12.7554464"><ele>924.0</ele><time>2026-05-02T08:19:56.19Z</time></trkpt><trkpt lat="43.6287058" lon="12.755512"><ele>921.0</ele><time>2026-05-02T08:19:57.192Z</time></trkpt><trkpt lat="43.6287939" lon="12.7555833"><ele>918.0000000000001</ele><time>2026-05-02T08:19:58.2Z</time></trkpt><trkpt lat="43.6288743" lon="12.7556671"><ele>915.0000000000001</ele><time>2026-05-02T08:19:59.197Z</time></trkpt><trkpt lat="43.6289426" lon="12.755762"><ele>912.0</ele><time>2026-05-02T08:20:00.194Z</time></trkpt><trkpt lat="43.6290021" lon="12.7558695"><ele>909.0</ele><time>2026-05-02T08:20:01.195Z</time></trkpt><trkpt lat="43.6290569" lon="12.7559886"><ele>911.6</ele><time>2026-05-02T08:20:02.177Z</time></trkpt><trkpt lat="43.6291149" lon="12.7561092"><ele>914.2</ele><time>2026-05-02T08:20:03.194Z</time></trkpt><trkpt lat="43.6291728" lon="12.7562367"><ele>916.8000000000001</ele><time>2026-05-02T08:20:04.183Z</time></trkpt><trkpt lat="43.6292323" lon="12.756368"><ele>919.4000000000001</ele><time>2026-05-02T08:20:05.181Z</time></trkpt><trkpt lat="43.6292904" lon="12.7564975"><ele>922.0</ele><time>2026-05-02T08:20:06.179Z</time></trkpt><trkpt lat="43.6293483" lon="12.75663"><ele>922.0</ele><time>2026-05-02T08:20:07.18Z</time></trkpt><trkpt lat="43.6294068" lon="12.7567641"><ele>922.0</ele><time>2026-05-02T08:20:08.175Z</time></trkpt><trkpt lat="43.6294733" lon="12.7568964"><ele>922.0</ele><time>2026-05-02T08:20:09.177Z</time></trkpt><trkpt lat="43.6295448" lon="12.7570194"><ele>922.0</ele><time>2026-05-02T08:20:10.175Z</time></trkpt><trkpt lat="43.6296165" lon="12.7571285"><ele>920.8</ele><time>2026-05-02T08:20:11.17Z</time></trkpt><trkpt lat="43.6296865" lon="12.7572254"><ele>919.6</ele><time>2026-05-02T08:20:12.175Z</time></trkpt><trkpt lat="43.6297582" lon="12.7573185"><ele>918.3999999999999</ele><time>2026-05-02T08:20:13.179Z</time></trkpt><trkpt lat="43.6298337" lon="12.757408"><ele>917.1999999999999</ele><time>2026-05-02T08:20:14.183Z</time></trkpt><trkpt lat="43.6299049" lon="12.7574932"><ele>916.0</ele><time>2026-05-02T08:20:15.183Z</time></trkpt><trkpt lat="43.6299804" lon="12.7575729"><ele>915.9999999999999</ele><time>2026-05-02T08:20:16.184Z</time></trkpt><trkpt lat="43.6300481" lon="12.7576455"><ele>916.0</ele><time>2026-05-02T08:20:17.183Z</time></trkpt><trkpt lat="43.6301151" lon="12.7577067"><ele>916.0</ele><time>2026-05-02T08:20:18.186Z</time></trkpt><trkpt lat="43.6301756" lon="12.7577549"><ele>916.0</ele><time>2026-05-02T08:20:19.187Z</time></trkpt><trkpt lat="43.6302377" lon="12.7577949"><ele>915.9999999999999</ele><time>2026-05-02T08:20:20.191Z</time></trkpt><trkpt lat="43.6302955" lon="12.757834"><ele>916.0</ele><time>2026-05-02T08:20:21.19Z</time></trkpt><trkpt lat="43.6303889" lon="12.7578771"><ele>915.6666666666666</ele><time>2026-05-02T08:20:23.193Z</time></trkpt><trkpt lat="43.6304606" lon="12.7579076"><ele>915.3333333333333</ele><time>2026-05-02T08:20:27.193Z</time></trkpt><trkpt lat="43.6305208" lon="12.7579372"><ele>915.0</ele><time>2026-05-02T08:20:29.191Z</time></trkpt><trkpt lat="43.6306027" lon="12.7579063"><ele>914.6666666666667</ele><time>2026-05-02T08:20:32.19Z</time></trkpt><trkpt lat="43.6306229" lon="12.7577836"><ele>914.3333333333334</ele><time>2026-05-02T08:20:35.192Z</time></trkpt><trkpt lat="43.6306358" lon="12.7576425"><ele>914.0</ele><time>2026-05-02T08:20:37.189Z</time></trkpt><trkpt lat="43.6306644" lon="12.7574843"><ele>914.0000000000001</ele><time>2026-05-02T08:20:39.19Z</time></trkpt><trkpt lat="43.6306842" lon="12.7573948"><ele>914.0</ele><time>2026-05-02T08:20:40.188Z</time></trkpt><trkpt lat="43.630703" lon="12.7573001"><ele>914.0</ele><time>2026-05-02T08:20:41.183Z</time></trkpt><trkpt lat="43.6307096" lon="12.7571949"><ele>914.0</ele><time>2026-05-02T08:20:42.19Z</time></trkpt><trkpt lat="43.6307063" lon="12.7570823"><ele>914.0000000000001</ele><time>2026-05-02T08:20:43.189Z</time></trkpt><trkpt lat="43.6306887" lon="12.7569633"><ele>914.0</ele><time>2026-05-02T08:20:44.187Z</time></trkpt><trkpt lat="43.630661" lon="12.7568365"><ele>915.2</ele><time>2026-05-02T08:20:45.191Z</time></trkpt><trkpt lat="43.6306275" lon="12.7567045"><ele>916.4000000000001</ele><time>2026-05-02T08:20:46.195Z</time></trkpt><trkpt lat="43.6305943" lon="12.7565725"><ele>917.6</ele><time>2026-05-02T08:20:47.188Z</time></trkpt><trkpt lat="43.630558" lon="12.7564399"><ele>918.8</ele><time>2026-05-02T08:20:48.188Z</time></trkpt><trkpt lat="43.6305224" lon="12.7563086"><ele>920.0</ele><time>2026-05-02T08:20:49.183Z</time></trkpt><trkpt lat="43.6304906" lon="12.7561719"><ele>920.8</ele><time>2026-05-02T08:20:50.195Z</time></trkpt><trkpt lat="43.6304606" lon="12.7560365"><ele>921.6</ele><time>2026-05-02T08:20:51.188Z</time></trkpt><trkpt lat="43.6304422" lon="12.7558987"><ele>922.4000000000001</ele><time>2026-05-02T08:20:52.191Z</time></trkpt><trkpt lat="43.6304294" lon="12.7557665"><ele>923.2</ele><time>2026-05-02T08:20:53.185Z</time></trkpt><trkpt lat="43.6304325" lon="12.7556343"><ele>924.0</ele><time>2026-05-02T08:20:54.188Z</time></trkpt><trkpt lat="43.6304458" lon="12.7555057"><ele>924.0</ele><time>2026-05-02T08:20:55.191Z</time></trkpt><trkpt lat="43.6304581" lon="12.7553794"><ele>924.0000000000001</ele><time>2026-05-02T08:20:56.196Z</time></trkpt><trkpt lat="43.6304698" lon="12.7552525"><ele>924.0000000000001</ele><time>2026-05-02T08:20:57.186Z</time></trkpt><trkpt lat="43.6304843" lon="12.7551164"><ele>924.0</ele><time>2026-05-02T08:20:58.193Z</time></trkpt><trkpt lat="43.6304941" lon="12.7549792"><ele>924.0</ele><time>2026-05-02T08:20:59.184Z</time></trkpt><trkpt lat="43.6305016" lon="12.7548395"><ele>924.8000000000001</ele><time>2026-05-02T08:21:00.187Z</time></trkpt><trkpt lat="43.6305056" lon="12.754696"><ele>925.6000000000001</ele><time>2026-05-02T08:21:01.185Z</time></trkpt><trkpt lat="43.6305059" lon="12.7545523"><ele>926.4</ele><time>2026-05-02T08:21:02.185Z</time></trkpt><trkpt lat="43.6305082" lon="12.754406"><ele>927.2</ele><time>2026-05-02T08:21:03.185Z</time></trkpt><trkpt lat="43.6305058" lon="12.7542598"><ele>928.0</ele><time>2026-05-02T08:21:04.187Z</time></trkpt><trkpt lat="43.6304992" lon="12.7541118"><ele>928.0</ele><time>2026-05-02T08:21:05.187Z</time></trkpt><trkpt lat="43.6304946" lon="12.7539611"><ele>928.0</ele><time>2026-05-02T08:21:06.19Z</time></trkpt><trkpt lat="43.6304887" lon="12.7538108"><ele>928.0</ele><time>2026-05-02T08:21:07.186Z</time></trkpt><trkpt lat="43.6304874" lon="12.753655"><ele>928.0</ele><time>2026-05-02T08:21:08.183Z</time></trkpt><trkpt lat="43.6304827" lon="12.7535022"><ele>928.0</ele><time>2026-05-02T08:21:09.187Z</time></trkpt><trkpt lat="43.6304772" lon="12.7533539"><ele>927.4</ele><time>2026-05-02T08:21:10.189Z</time></trkpt><trkpt lat="43.6304753" lon="12.7532153"><ele>926.8</ele><time>2026-05-02T08:21:11.185Z</time></trkpt><trkpt lat="43.6304832" lon="12.7530862"><ele>926.2</ele><time>2026-05-02T08:21:12.192Z</time></trkpt><trkpt lat="43.6305068" lon="12.752976"><ele>925.6</ele><time>2026-05-02T08:21:13.181Z</time></trkpt><trkpt lat="43.6305461" lon="12.7528919"><ele>925.0</ele><time>2026-05-02T08:21:14.187Z</time></trkpt><trkpt lat="43.6306658" lon="12.7528619"><ele>925.0</ele><time>2026-05-02T08:21:16.188Z</time></trkpt><trkpt lat="43.6307461" lon="12.7529089"><ele>925.0</ele><time>2026-05-02T08:21:17.187Z</time></trkpt><trkpt lat="43.6308419" lon="12.7529776"><ele>925.0</ele><time>2026-05-02T08:21:18.184Z</time></trkpt><trkpt lat="43.6309422" lon="12.7530662"><ele>925.0</ele><time>2026-05-02T08:21:19.183Z</time></trkpt><trkpt lat="43.6310445" lon="12.7531641"><ele>925.0</ele><time>2026-05-02T08:21:20.183Z</time></trkpt><trkpt lat="43.6311417" lon="12.7532608"><ele>925.3333333333333</ele><time>2026-05-02T08:21:21.188Z</time></trkpt><trkpt lat="43.6312313" lon="12.7533398"><ele>925.6666666666666</ele><time>2026-05-02T08:21:22.183Z</time></trkpt><trkpt lat="43.6313141" lon="12.7533972"><ele>926.0</ele><time>2026-05-02T08:21:23.185Z</time></trkpt><trkpt lat="43.6313964" lon="12.7534221"><ele>926.3333333333333</ele><time>2026-05-02T08:21:24.178Z</time></trkpt><trkpt lat="43.6314711" lon="12.7534229"><ele>926.6666666666666</ele><time>2026-05-02T08:21:25.188Z</time></trkpt><trkpt lat="43.6315396" lon="12.7533879"><ele>927.0</ele><time>2026-05-02T08:21:26.189Z</time></trkpt><trkpt lat="43.6316035" lon="12.7533089"><ele>927.0</ele><time>2026-05-02T08:21:27.19Z</time></trkpt><trkpt lat="43.6316478" lon="12.7532013"><ele>927.0</ele><time>2026-05-02T08:21:28.274Z</time></trkpt><trkpt lat="43.6316807" lon="12.7530811"><ele>927.0</ele><time>2026-05-02T08:21:29.18Z</time></trkpt><trkpt lat="43.6317099" lon="12.7529478"><ele>927.0</ele><time>2026-05-02T08:21:30.19Z</time></trkpt><trkpt lat="43.6317334" lon="12.7528141"><ele>927.0</ele><time>2026-05-02T08:21:31.191Z</time></trkpt><trkpt lat="43.6317476" lon="12.752692"><ele>925.8571428571427</ele><time>2026-05-02T08:21:32.185Z</time></trkpt><trkpt lat="43.6317594" lon="12.7525796"><ele>924.7142857142857</ele><time>2026-05-02T08:21:33.186Z</time></trkpt><trkpt lat="43.6317676" lon="12.7524727"><ele>923.5714285714284</ele><time>2026-05-02T08:21:34.188Z</time></trkpt><trkpt lat="43.6317768" lon="12.7523673"><ele>922.4285714285713</ele><time>2026-05-02T08:21:35.181Z</time></trkpt><trkpt lat="43.6317946" lon="12.7522677"><ele>921.2857142857142</ele><time>2026-05-02T08:21:36.189Z</time></trkpt><trkpt lat="43.6318181" lon="12.7521787"><ele>920.1428571428571</ele><time>2026-05-02T08:21:37.186Z</time></trkpt><trkpt lat="43.6318433" lon="12.7520959"><ele>919.0</ele><time>2026-05-02T08:21:38.183Z</time></trkpt><trkpt lat="43.6318858" lon="12.7519409"><ele>917.6</ele><time>2026-05-02T08:21:40.188Z</time></trkpt><trkpt lat="43.6319225" lon="12.7517844"><ele>916.2</ele><time>2026-05-02T08:21:42.183Z</time></trkpt><trkpt lat="43.6319586" lon="12.7516439"><ele>914.8000000000001</ele><time>2026-05-02T08:21:44.188Z</time></trkpt><trkpt lat="43.6319884" lon="12.7515078"><ele>913.4000000000001</ele><time>2026-05-02T08:21:46.193Z</time></trkpt><trkpt lat="43.6320185" lon="12.7514059"><ele>912.0</ele><time>2026-05-02T08:21:48.19Z</time></trkpt><trkpt lat="43.6320537" lon="12.7513101"><ele>912.5714285714286</ele><time>2026-05-02T08:21:51.186Z</time></trkpt><trkpt lat="43.6320944" lon="12.7512343"><ele>913.1428571428571</ele><time>2026-05-02T08:21:53.189Z</time></trkpt><trkpt lat="43.6321437" lon="12.7511565"><ele>913.7142857142857</ele><time>2026-05-02T08:21:55.192Z</time></trkpt><trkpt lat="43.6321968" lon="12.7511067"><ele>914.2857142857142</ele><time>2026-05-02T08:21:58.2Z</time></trkpt><trkpt lat="43.6322255" lon="12.7510106"><ele>914.8571428571429</ele><time>2026-05-02T08:23:39.282Z</time></trkpt><trkpt lat="43.6322666" lon="12.7509253"><ele>915.4285714285713</ele><time>2026-05-02T08:23:40.19Z</time></trkpt><trkpt lat="43.6323093" lon="12.7508179"><ele>916.0</ele><time>2026-05-02T08:23:41.189Z</time></trkpt><trkpt lat="43.6323409" lon="12.7507012"><ele>915.9999999999999</ele><time>2026-05-02T08:23:42.186Z</time></trkpt><trkpt lat="43.6323524" lon="12.7505825"><ele>916.0</ele><time>2026-05-02T08:23:43.197Z</time></trkpt><trkpt lat="43.6323529" lon="12.7504623"><ele>916.0</ele><time>2026-05-02T08:23:44.189Z</time></trkpt><trkpt lat="43.6323436" lon="12.7503444"><ele>916.0</ele><time>2026-05-02T08:23:45.199Z</time></trkpt><trkpt lat="43.6323264" lon="12.7502296"><ele>915.9999999999999</ele><time>2026-05-02T08:23:46.196Z</time></trkpt><trkpt lat="43.6323069" lon="12.7501106"><ele>916.0</ele><time>2026-05-02T08:23:47.2Z</time></trkpt><trkpt lat="43.6322861" lon="12.7499934"><ele>914.3333333333333</ele><time>2026-05-02T08:23:48.197Z</time></trkpt><trkpt lat="43.6322684" lon="12.74988"><ele>912.6666666666666</ele><time>2026-05-02T08:23:49.196Z</time></trkpt><trkpt lat="43.6322523" lon="12.7497712"><ele>911.0</ele><time>2026-05-02T08:23:50.203Z</time></trkpt><trkpt lat="43.6322392" lon="12.7496662"><ele>909.3333333333333</ele><time>2026-05-02T08:23:51.201Z</time></trkpt><trkpt lat="43.6322285" lon="12.7495557"><ele>907.6666666666666</ele><time>2026-05-02T08:23:52.203Z</time></trkpt><trkpt lat="43.6322253" lon="12.7494458"><ele>906.0</ele><time>2026-05-02T08:23:53.199Z</time></trkpt><trkpt lat="43.6322248" lon="12.7493344"><ele>905.0</ele><time>2026-05-02T08:23:54.199Z</time></trkpt><trkpt lat="43.6322273" lon="12.7492233"><ele>904.0</ele><time>2026-05-02T08:23:55.192Z</time></trkpt><trkpt lat="43.6322296" lon="12.7491108"><ele>903.0</ele><time>2026-05-02T08:23:56.194Z</time></trkpt><trkpt lat="43.6322282" lon="12.748998"><ele>902.0</ele><time>2026-05-02T08:23:57.198Z</time></trkpt><trkpt lat="43.6322244" lon="12.7488822"><ele>901.0</ele><time>2026-05-02T08:23:58.203Z</time></trkpt><trkpt lat="43.6322228" lon="12.7487675"><ele>900.0</ele><time>2026-05-02T08:23:59.2Z</time></trkpt><trkpt lat="43.6322179" lon="12.7486562"><ele>897.8333333333334</ele><time>2026-05-02T08:24:00.199Z</time></trkpt><trkpt lat="43.6322157" lon="12.7485423"><ele>895.6666666666667</ele><time>2026-05-02T08:24:01.213Z</time></trkpt><trkpt lat="43.6322128" lon="12.7484307"><ele>893.5</ele><time>2026-05-02T08:24:02.202Z</time></trkpt><trkpt lat="43.6322081" lon="12.7483203"><ele>891.3333333333334</ele><time>2026-05-02T08:24:03.205Z</time></trkpt><trkpt lat="43.632208" lon="12.7482105"><ele>889.1666666666667</ele><time>2026-05-02T08:24:04.198Z</time></trkpt><trkpt lat="43.6322098" lon="12.7480996"><ele>887.0</ele><time>2026-05-02T08:24:05.203Z</time></trkpt><trkpt lat="43.6322185" lon="12.7479955"><ele>887.0000000000001</ele><time>2026-05-02T08:24:06.193Z</time></trkpt><trkpt lat="43.632229" lon="12.7478865"><ele>887.0</ele><time>2026-05-02T08:24:07.192Z</time></trkpt><trkpt lat="43.6322428" lon="12.7477813"><ele>887.0</ele><time>2026-05-02T08:24:08.192Z</time></trkpt><trkpt lat="43.6322647" lon="12.7476759"><ele>887.0</ele><time>2026-05-02T08:24:09.187Z</time></trkpt><trkpt lat="43.6322976" lon="12.7475757"><ele>887.0000000000001</ele><time>2026-05-02T08:24:10.19Z</time></trkpt><trkpt lat="43.6323337" lon="12.7474657"><ele>887.0</ele><time>2026-05-02T08:24:11.186Z</time></trkpt><trkpt lat="43.6323687" lon="12.7473531"><ele>884.4000000000001</ele><time>2026-05-02T08:24:12.183Z</time></trkpt><trkpt lat="43.6324124" lon="12.7472403"><ele>881.8000000000001</ele><time>2026-05-02T08:24:13.188Z</time></trkpt><trkpt lat="43.6324645" lon="12.7471334"><ele>879.2</ele><time>2026-05-02T08:24:14.187Z</time></trkpt><trkpt lat="43.6325205" lon="12.7470206"><ele>876.6</ele><time>2026-05-02T08:24:15.177Z</time></trkpt><trkpt lat="43.6325909" lon="12.7468972"><ele>874.0</ele><time>2026-05-02T08:24:16.19Z</time></trkpt><trkpt lat="43.6326574" lon="12.7467798"><ele>873.0</ele><time>2026-05-02T08:24:17.183Z</time></trkpt><trkpt lat="43.6327207" lon="12.7466642"><ele>872.0000000000001</ele><time>2026-05-02T08:24:18.181Z</time></trkpt><trkpt lat="43.6327881" lon="12.7465538"><ele>871.0000000000001</ele><time>2026-05-02T08:24:19.184Z</time></trkpt><trkpt lat="43.6328559" lon="12.7464605"><ele>870.0</ele><time>2026-05-02T08:24:20.184Z</time></trkpt><trkpt lat="43.6329272" lon="12.7463808"><ele>869.0</ele><time>2026-05-02T08:24:21.184Z</time></trkpt><trkpt lat="43.6330058" lon="12.7462961"><ele>869.0000000000001</ele><time>2026-05-02T08:24:22.187Z</time></trkpt><trkpt lat="43.6330864" lon="12.7462307"><ele>869.0</ele><time>2026-05-02T08:24:23.192Z</time></trkpt><trkpt lat="43.6331706" lon="12.746173"><ele>869.0</ele><time>2026-05-02T08:24:24.188Z</time></trkpt><trkpt lat="43.6332545" lon="12.7461247"><ele>869.0</ele><time>2026-05-02T08:24:25.187Z</time></trkpt><trkpt lat="43.633334" lon="12.7460758"><ele>869.0000000000001</ele><time>2026-05-02T08:24:26.18Z</time></trkpt><trkpt lat="43.6333991" lon="12.7460219"><ele>869.0</ele><time>2026-05-02T08:24:27.18Z</time></trkpt><trkpt lat="43.6334606" lon="12.7459472"><ele>867.8000000000001</ele><time>2026-05-02T08:24:28.182Z</time></trkpt><trkpt lat="43.6335159" lon="12.7458348"><ele>866.6000000000001</ele><time>2026-05-02T08:24:29.175Z</time></trkpt><trkpt lat="43.6335706" lon="12.7457273"><ele>865.4</ele><time>2026-05-02T08:24:30.18Z</time></trkpt><trkpt lat="43.6336212" lon="12.7456244"><ele>864.2</ele><time>2026-05-02T08:24:31.189Z</time></trkpt><trkpt lat="43.6336757" lon="12.7455241"><ele>863.0</ele><time>2026-05-02T08:24:32.175Z</time></trkpt><trkpt lat="43.6337263" lon="12.745419"><ele>863.0</ele><time>2026-05-02T08:24:33.183Z</time></trkpt><trkpt lat="43.6337721" lon="12.7453043"><ele>863.0</ele><time>2026-05-02T08:24:34.176Z</time></trkpt><trkpt lat="43.6338168" lon="12.7451905"><ele>863.0</ele><time>2026-05-02T08:24:35.18Z</time></trkpt><trkpt lat="43.6338663" lon="12.745082"><ele>863.0</ele><time>2026-05-02T08:24:36.181Z</time></trkpt><trkpt lat="43.6339313" lon="12.7449855"><ele>863.0</ele><time>2026-05-02T08:24:37.176Z</time></trkpt><trkpt lat="43.6340047" lon="12.7448746"><ele>855.75</ele><time>2026-05-02T08:24:38.178Z</time></trkpt><trkpt lat="43.6340815" lon="12.744765"><ele>848.5</ele><time>2026-05-02T08:24:39.177Z</time></trkpt><trkpt lat="43.6341613" lon="12.7446556"><ele>841.25</ele><time>2026-05-02T08:24:40.184Z</time></trkpt><trkpt lat="43.634243" lon="12.7445219"><ele>834.0</ele><time>2026-05-02T08:24:41.175Z</time></trkpt><trkpt lat="43.6343319" lon="12.7443982"><ele>830.5</ele><time>2026-05-02T08:24:42.178Z</time></trkpt><trkpt lat="43.6344274" lon="12.7442753"><ele>827.0</ele><time>2026-05-02T08:24:43.18Z</time></trkpt><trkpt lat="43.6345145" lon="12.7441451"><ele>823.5</ele><time>2026-05-02T08:24:44.181Z</time></trkpt><trkpt lat="43.6346016" lon="12.7440203"><ele>820.0</ele><time>2026-05-02T08:24:45.183Z</time></trkpt><trkpt lat="43.6346794" lon="12.7439186"><ele>820.0</ele><time>2026-05-02T08:24:46.183Z</time></trkpt><trkpt lat="43.6347589" lon="12.7438182"><ele>820.0</ele><time>2026-05-02T08:24:47.182Z</time></trkpt><trkpt lat="43.6348358" lon="12.7437264"><ele>820.0</ele><time>2026-05-02T08:24:48.186Z</time></trkpt><trkpt lat="43.6349069" lon="12.7436372"><ele>820.0</ele><time>2026-05-02T08:24:49.187Z</time></trkpt><trkpt lat="43.6349688" lon="12.7435445"><ele>820.0</ele><time>2026-05-02T08:24:50.186Z</time></trkpt><trkpt lat="43.6350246" lon="12.7434605"><ele>816.1666666666666</ele><time>2026-05-02T08:24:51.188Z</time></trkpt><trkpt lat="43.635079" lon="12.7433766"><ele>812.3333333333333</ele><time>2026-05-02T08:24:52.181Z</time></trkpt><trkpt lat="43.6351322" lon="12.7432895"><ele>808.5</ele><time>2026-05-02T08:24:53.183Z</time></trkpt><trkpt lat="43.6351837" lon="12.7432072"><ele>804.6666666666667</ele><time>2026-05-02T08:24:54.186Z</time></trkpt><trkpt lat="43.6352435" lon="12.7431281"><ele>800.8333333333334</ele><time>2026-05-02T08:24:55.188Z</time></trkpt><trkpt lat="43.6352989" lon="12.7430505"><ele>797.0</ele><time>2026-05-02T08:24:56.183Z</time></trkpt><trkpt lat="43.6353637" lon="12.7429742"><ele>797.0000000000001</ele><time>2026-05-02T08:24:57.179Z</time></trkpt><trkpt lat="43.6354319" lon="12.7429016"><ele>797.0</ele><time>2026-05-02T08:24:58.19Z</time></trkpt><trkpt lat="43.6355009" lon="12.7428313"><ele>797.0</ele><time>2026-05-02T08:24:59.184Z</time></trkpt><trkpt lat="43.6355637" lon="12.7427567"><ele>797.0</ele><time>2026-05-02T08:25:00.188Z</time></trkpt><trkpt lat="43.6356208" lon="12.742677"><ele>797.0000000000001</ele><time>2026-05-02T08:25:01.195Z</time></trkpt><trkpt lat="43.6356804" lon="12.7425972"><ele>797.0</ele><time>2026-05-02T08:25:02.181Z</time></trkpt><trkpt lat="43.6357424" lon="12.7425167"><ele>792.5000000000001</ele><time>2026-05-02T08:25:03.19Z</time></trkpt><trkpt lat="43.6358064" lon="12.7424383"><ele>788.0</ele><time>2026-05-02T08:25:04.174Z</time></trkpt><trkpt lat="43.6358748" lon="12.7423648"><ele>783.5</ele><time>2026-05-02T08:25:05.176Z</time></trkpt><trkpt lat="43.6359449" lon="12.7422959"><ele>779.0</ele><time>2026-05-02T08:25:06.183Z</time></trkpt><trkpt lat="43.636026" lon="12.7422328"><ele>774.5000000000001</ele><time>2026-05-02T08:25:07.18Z</time></trkpt><trkpt lat="43.6361074" lon="12.7421649"><ele>770.0</ele><time>2026-05-02T08:25:08.18Z</time></trkpt><trkpt lat="43.636181" lon="12.7421009"><ele>770.0000000000001</ele><time>2026-05-02T08:25:09.183Z</time></trkpt><trkpt lat="43.6362552" lon="12.7420326"><ele>770.0</ele><time>2026-05-02T08:25:10.181Z</time></trkpt><trkpt lat="43.6363323" lon="12.7419709"><ele>770.0</ele><time>2026-05-02T08:25:11.179Z</time></trkpt><trkpt lat="43.6364093" lon="12.7419097"><ele>770.0</ele><time>2026-05-02T08:25:12.183Z</time></trkpt><trkpt lat="43.6364847" lon="12.7418579"><ele>770.0000000000001</ele><time>2026-05-02T08:25:13.186Z</time></trkpt><trkpt lat="43.6365663" lon="12.7418115"><ele>770.0</ele><time>2026-05-02T08:25:14.182Z</time></trkpt><trkpt lat="43.6366491" lon="12.7417776"><ele>766.6666666666667</ele><time>2026-05-02T08:25:15.196Z</time></trkpt><trkpt lat="43.6367318" lon="12.7417508"><ele>763.3333333333334</ele><time>2026-05-02T08:25:16.19Z</time></trkpt><trkpt lat="43.6368139" lon="12.741735"><ele>760.0</ele><time>2026-05-02T08:25:17.189Z</time></trkpt><trkpt lat="43.6368962" lon="12.7417217"><ele>756.6666666666667</ele><time>2026-05-02T08:25:18.193Z</time></trkpt><trkpt lat="43.6369849" lon="12.7417159"><ele>753.3333333333334</ele><time>2026-05-02T08:25:19.185Z</time></trkpt><trkpt lat="43.6370742" lon="12.741719"><ele>750.0</ele><time>2026-05-02T08:25:20.188Z</time></trkpt><trkpt lat="43.6371647" lon="12.7417361"><ele>749.8</ele><time>2026-05-02T08:25:21.188Z</time></trkpt><trkpt lat="43.6372611" lon="12.7417581"><ele>749.6</ele><time>2026-05-02T08:25:22.194Z</time></trkpt><trkpt lat="43.6373525" lon="12.7417879"><ele>749.4000000000001</ele><time>2026-05-02T08:25:23.189Z</time></trkpt><trkpt lat="43.6374424" lon="12.7418144"><ele>749.2</ele><time>2026-05-02T08:25:24.188Z</time></trkpt><trkpt lat="43.6375264" lon="12.7418439"><ele>749.0</ele><time>2026-05-02T08:25:25.188Z</time></trkpt><trkpt lat="43.6376074" lon="12.7418884"><ele>749.0</ele><time>2026-05-02T08:25:26.188Z</time></trkpt><trkpt lat="43.6376907" lon="12.7419324"><ele>749.0</ele><time>2026-05-02T08:25:27.193Z</time></trkpt><trkpt lat="43.6377661" lon="12.7419757"><ele>749.0</ele><time>2026-05-02T08:25:28.2Z</time></trkpt><trkpt lat="43.6378339" lon="12.7420213"><ele>749.0</ele><time>2026-05-02T08:25:29.193Z</time></trkpt><trkpt lat="43.6378884" lon="12.742066"><ele>749.0</ele><time>2026-05-02T08:25:30.19Z</time></trkpt><trkpt lat="43.6379716" lon="12.7421528"><ele>749.0</ele><time>2026-05-02T08:25:32.191Z</time></trkpt><trkpt lat="43.6380251" lon="12.7422288"><ele>745.1666666666666</ele><time>2026-05-02T08:25:34.185Z</time></trkpt><trkpt lat="43.638082" lon="12.7422804"><ele>741.3333333333333</ele><time>2026-05-02T08:25:37.189Z</time></trkpt><trkpt lat="43.6381397" lon="12.7423634"><ele>737.5</ele><time>2026-05-02T08:25:57.187Z</time></trkpt><trkpt lat="43.638211" lon="12.7424046"><ele>733.6666666666666</ele><time>2026-05-02T08:25:59.191Z</time></trkpt><trkpt lat="43.6383025" lon="12.7424545"><ele>729.8333333333334</ele><time>2026-05-02T08:26:01.192Z</time></trkpt><trkpt lat="43.6383629" lon="12.7424826"><ele>726.0</ele><time>2026-05-02T08:26:02.183Z</time></trkpt><trkpt lat="43.6384759" lon="12.7425373"><ele>726.0</ele><time>2026-05-02T08:26:04.178Z</time></trkpt><trkpt lat="43.6385544" lon="12.7425464"><ele>726.0</ele><time>2026-05-02T08:26:06.182Z</time></trkpt><trkpt lat="43.6386114" lon="12.7424901"><ele>726.0</ele><time>2026-05-02T08:26:08.18Z</time></trkpt><trkpt lat="43.6385997" lon="12.7423656"><ele>726.0</ele><time>2026-05-02T08:26:10.19Z</time></trkpt><trkpt lat="43.6385805" lon="12.7422733"><ele>726.0</ele><time>2026-05-02T08:26:11.183Z</time></trkpt><trkpt lat="43.6385623" lon="12.7421613"><ele>726.0</ele><time>2026-05-02T08:26:12.187Z</time></trkpt><trkpt lat="43.638545" lon="12.7420407"><ele>726.0</ele><time>2026-05-02T08:26:13.188Z</time></trkpt><trkpt lat="43.6385351" lon="12.7419124"><ele>726.0</ele><time>2026-05-02T08:26:14.189Z</time></trkpt><trkpt lat="43.638532" lon="12.7417788"><ele>726.0</ele><time>2026-05-02T08:26:15.191Z</time></trkpt><trkpt lat="43.6385218" lon="12.7416512"><ele>726.0</ele><time>2026-05-02T08:26:16.194Z</time></trkpt><trkpt lat="43.6385311" lon="12.7415348"><ele>726.0</ele><time>2026-05-02T08:26:17.189Z</time></trkpt><trkpt lat="43.6385624" lon="12.7414363"><ele>726.0</ele><time>2026-05-02T08:26:18.192Z</time></trkpt><trkpt lat="43.6386274" lon="12.7413456"><ele>719.5</ele><time>2026-05-02T08:26:19.199Z</time></trkpt><trkpt lat="43.6387167" lon="12.7412573"><ele>713.0</ele><time>2026-05-02T08:26:20.198Z</time></trkpt><trkpt lat="43.6388139" lon="12.7411688"><ele>706.5</ele><time>2026-05-02T08:26:21.2Z</time></trkpt><trkpt lat="43.6389125" lon="12.7410768"><ele>700.0</ele><time>2026-05-02T08:26:22.199Z</time></trkpt><trkpt lat="43.6390181" lon="12.7409879"><ele>700.0</ele><time>2026-05-02T08:26:23.201Z</time></trkpt><trkpt lat="43.6391277" lon="12.7409099"><ele>700.0</ele><time>2026-05-02T08:26:24.201Z</time></trkpt><trkpt lat="43.6392365" lon="12.7408417"><ele>700.0</ele><time>2026-05-02T08:26:25.194Z</time></trkpt><trkpt lat="43.6393464" lon="12.7407768"><ele>700.0</ele><time>2026-05-02T08:26:26.204Z</time></trkpt><trkpt lat="43.6394495" lon="12.7407179"><ele>697.2</ele><time>2026-05-02T08:26:27.206Z</time></trkpt><trkpt lat="43.6395516" lon="12.74066"><ele>694.4</ele><time>2026-05-02T08:26:28.205Z</time></trkpt><trkpt lat="43.6396529" lon="12.7406068"><ele>691.5999999999999</ele><time>2026-05-02T08:26:29.208Z</time></trkpt><trkpt lat="43.6397559" lon="12.7405553"><ele>688.8</ele><time>2026-05-02T08:26:30.206Z</time></trkpt><trkpt lat="43.6398525" lon="12.7405077"><ele>686.0</ele><time>2026-05-02T08:26:31.208Z</time></trkpt><trkpt lat="43.6399407" lon="12.7404616"><ele>686.0</ele><time>2026-05-02T08:26:32.198Z</time></trkpt><trkpt lat="43.6400168" lon="12.740415"><ele>686.0</ele><time>2026-05-02T08:26:33.198Z</time></trkpt><trkpt lat="43.6400847" lon="12.7403481"><ele>686.0</ele><time>2026-05-02T08:26:34.204Z</time></trkpt><trkpt lat="43.6401358" lon="12.7402588"><ele>686.0</ele><time>2026-05-02T08:26:35.187Z</time></trkpt><trkpt lat="43.6401854" lon="12.740151"><ele>686.0</ele><time>2026-05-02T08:26:36.205Z</time></trkpt><trkpt lat="43.6402344" lon="12.7400426"><ele>686.0</ele><time>2026-05-02T08:26:37.198Z</time></trkpt><trkpt lat="43.6402662" lon="12.7399257"><ele>685.8333333333333</ele><time>2026-05-02T08:26:38.192Z</time></trkpt><trkpt lat="43.6402936" lon="12.7398115"><ele>685.6666666666666</ele><time>2026-05-02T08:26:39.2Z</time></trkpt><trkpt lat="43.6403231" lon="12.7397107"><ele>685.5</ele><time>2026-05-02T08:26:40.193Z</time></trkpt><trkpt lat="43.6403515" lon="12.7396292"><ele>685.3333333333334</ele><time>2026-05-02T08:26:41.197Z</time></trkpt><trkpt lat="43.6404044" lon="12.7395131"><ele>685.1666666666667</ele><time>2026-05-02T08:26:43.197Z</time></trkpt><trkpt lat="43.6403827" lon="12.7394093"><ele>685.0</ele><time>2026-05-02T08:26:46.188Z</time></trkpt><trkpt lat="43.6402885" lon="12.7393924"><ele>684.0</ele><time>2026-05-02T08:26:48.194Z</time></trkpt><trkpt lat="43.6401584" lon="12.7393829"><ele>683.0</ele><time>2026-05-02T08:26:50.194Z</time></trkpt><trkpt lat="43.6400883" lon="12.739372"><ele>682.0</ele><time>2026-05-02T08:26:51.189Z</time></trkpt><trkpt lat="43.6400191" lon="12.739356"><ele>681.0</ele><time>2026-05-02T08:26:52.195Z</time></trkpt><trkpt lat="43.6399544" lon="12.7393334"><ele>680.0</ele><time>2026-05-02T08:26:53.194Z</time></trkpt><trkpt lat="43.6398918" lon="12.7393126"><ele>679.0</ele><time>2026-05-02T08:26:54.194Z</time></trkpt><trkpt lat="43.6397791" lon="12.7392588"><ele>679.0</ele><time>2026-05-02T08:26:56.197Z</time></trkpt><trkpt lat="43.6396604" lon="12.7392067"><ele>679.0</ele><time>2026-05-02T08:26:58.201Z</time></trkpt><trkpt lat="43.6396015" lon="12.7391755"><ele>679.0</ele><time>2026-05-02T08:26:59.205Z</time></trkpt><trkpt lat="43.6394937" lon="12.7391154"><ele>679.0</ele><time>2026-05-02T08:27:01.208Z</time></trkpt><trkpt lat="43.6393895" lon="12.7390603"><ele>679.0</ele><time>2026-05-02T08:27:03.197Z</time></trkpt><trkpt lat="43.6392944" lon="12.7390161"><ele>680.6666666666667</ele><time>2026-05-02T08:27:05.199Z</time></trkpt><trkpt lat="43.6392061" lon="12.7389711"><ele>682.3333333333334</ele><time>2026-05-02T08:27:07.198Z</time></trkpt><trkpt lat="43.6391285" lon="12.7389293"><ele>684.0</ele><time>2026-05-02T08:27:09.2Z</time></trkpt><trkpt lat="43.6390678" lon="12.7388892"><ele>685.6666666666666</ele><time>2026-05-02T08:27:11.205Z</time></trkpt><trkpt lat="43.6389678" lon="12.738819"><ele>687.3333333333333</ele><time>2026-05-02T08:35:32.19Z</time></trkpt><trkpt lat="43.638905" lon="12.7387794"><ele>689.0</ele><time>2026-05-02T08:35:33.183Z</time></trkpt><trkpt lat="43.6388269" lon="12.7387383"><ele>689.0</ele><time>2026-05-02T08:35:34.184Z</time></trkpt><trkpt lat="43.6387379" lon="12.7386938"><ele>689.0</ele><time>2026-05-02T08:35:35.18Z</time></trkpt><trkpt lat="43.6386381" lon="12.7386459"><ele>689.0</ele><time>2026-05-02T08:35:36.183Z</time></trkpt><trkpt lat="43.6385352" lon="12.7386014"><ele>689.0</ele><time>2026-05-02T08:35:37.183Z</time></trkpt><trkpt lat="43.6384307" lon="12.738557"><ele>689.0</ele><time>2026-05-02T08:35:38.185Z</time></trkpt><trkpt lat="43.6383142" lon="12.7385088"><ele>686.5</ele><time>2026-05-02T08:35:39.181Z</time></trkpt><trkpt lat="43.6381975" lon="12.7384631"><ele>684.0</ele><time>2026-05-02T08:35:40.191Z</time></trkpt><trkpt lat="43.6380807" lon="12.7384152"><ele>681.5</ele><time>2026-05-02T08:35:41.186Z</time></trkpt><trkpt lat="43.6379629" lon="12.7383707"><ele>679.0</ele><time>2026-05-02T08:35:42.19Z</time></trkpt><trkpt lat="43.6378493" lon="12.73833"><ele>682.0</ele><time>2026-05-02T08:35:43.19Z</time></trkpt><trkpt lat="43.6377365" lon="12.738286"><ele>685.0</ele><time>2026-05-02T08:35:44.189Z</time></trkpt><trkpt lat="43.637623" lon="12.7382434"><ele>688.0</ele><time>2026-05-02T08:35:45.188Z</time></trkpt><trkpt lat="43.6375149" lon="12.7382083"><ele>691.0</ele><time>2026-05-02T08:35:46.189Z</time></trkpt><trkpt lat="43.6374115" lon="12.7381768"><ele>691.0</ele><time>2026-05-02T08:35:47.187Z</time></trkpt><trkpt lat="43.6373133" lon="12.738143"><ele>691.0</ele><time>2026-05-02T08:35:48.19Z</time></trkpt><trkpt lat="43.6372153" lon="12.7381157"><ele>691.0</ele><time>2026-05-02T08:35:49.189Z</time></trkpt><trkpt lat="43.6371109" lon="12.7380977"><ele>691.0</ele><time>2026-05-02T08:35:50.196Z</time></trkpt><trkpt lat="43.6370073" lon="12.7380856"><ele>691.0</ele><time>2026-05-02T08:35:51.187Z</time></trkpt><trkpt lat="43.6369028" lon="12.7380794"><ele>690.0</ele><time>2026-05-02T08:35:52.191Z</time></trkpt><trkpt lat="43.636794" lon="12.7380761"><ele>689.0</ele><time>2026-05-02T08:35:53.201Z</time></trkpt><trkpt lat="43.636681" lon="12.7380787"><ele>688.0</ele><time>2026-05-02T08:35:54.187Z</time></trkpt><trkpt lat="43.6365636" lon="12.7380889"><ele>687.0</ele><time>2026-05-02T08:35:55.193Z</time></trkpt><trkpt lat="43.6364462" lon="12.738096"><ele>687.0</ele><time>2026-05-02T08:35:56.184Z</time></trkpt><trkpt lat="43.636339" lon="12.7381075"><ele>687.0</ele><time>2026-05-02T08:35:57.181Z</time></trkpt><trkpt lat="43.6362328" lon="12.7381425"><ele>687.0</ele><time>2026-05-02T08:35:58.186Z</time></trkpt><trkpt lat="43.6361398" lon="12.7381913"><ele>687.0</ele><time>2026-05-02T08:35:59.178Z</time></trkpt><trkpt lat="43.636061" lon="12.7382497"><ele>687.0</ele><time>2026-05-02T08:36:00.17Z</time></trkpt><trkpt lat="43.6359848" lon="12.7383249"><ele>685.5</ele><time>2026-05-02T08:36:01.176Z</time></trkpt><trkpt lat="43.6359057" lon="12.7384207"><ele>684.0</ele><time>2026-05-02T08:36:02.181Z</time></trkpt><trkpt lat="43.6358162" lon="12.7385422"><ele>682.5</ele><time>2026-05-02T08:36:03.175Z</time></trkpt><trkpt lat="43.6357251" lon="12.7386616"><ele>681.0</ele><time>2026-05-02T08:36:04.172Z</time></trkpt><trkpt lat="43.6356313" lon="12.7387967"><ele>685.0</ele><time>2026-05-02T08:36:05.173Z</time></trkpt><trkpt lat="43.6355431" lon="12.7389384"><ele>689.0</ele><time>2026-05-02T08:36:06.171Z</time></trkpt><trkpt lat="43.6354583" lon="12.7390774"><ele>693.0</ele><time>2026-05-02T08:36:07.175Z</time></trkpt><trkpt lat="43.6353845" lon="12.7392202"><ele>697.0</ele><time>2026-05-02T08:36:08.175Z</time></trkpt><trkpt lat="43.6353076" lon="12.7393655"><ele>694.5</ele><time>2026-05-02T08:36:09.17Z</time></trkpt><trkpt lat="43.63523" lon="12.7395238"><ele>692.0</ele><time>2026-05-02T08:36:10.177Z</time></trkpt><trkpt lat="43.6351508" lon="12.7396784"><ele>689.5</ele><time>2026-05-02T08:36:11.169Z</time></trkpt><trkpt lat="43.6350567" lon="12.7398285"><ele>687.0</ele><time>2026-05-02T08:36:12.174Z</time></trkpt><trkpt lat="43.6349555" lon="12.7399769"><ele>687.0</ele><time>2026-05-02T08:36:13.171Z</time></trkpt><trkpt lat="43.6348506" lon="12.7401271"><ele>687.0</ele><time>2026-05-02T08:36:14.179Z</time></trkpt><trkpt lat="43.6347489" lon="12.7402662"><ele>687.0</ele><time>2026-05-02T08:36:15.179Z</time></trkpt><trkpt lat="43.6346349" lon="12.7403866"><ele>687.0</ele><time>2026-05-02T08:36:16.177Z</time></trkpt><trkpt lat="43.6345212" lon="12.7405019"><ele>685.3333333333334</ele><time>2026-05-02T08:36:17.178Z</time></trkpt><trkpt lat="43.6343913" lon="12.7406223"><ele>683.6666666666667</ele><time>2026-05-02T08:36:18.176Z</time></trkpt><trkpt lat="43.6342601" lon="12.7407347"><ele>682.0</ele><time>2026-05-02T08:36:19.178Z</time></trkpt><trkpt lat="43.6341279" lon="12.7408606"><ele>682.0</ele><time>2026-05-02T08:36:20.171Z</time></trkpt><trkpt lat="43.6339879" lon="12.7409902"><ele>682.0</ele><time>2026-05-02T08:36:21.177Z</time></trkpt><trkpt lat="43.6338485" lon="12.7411042"><ele>682.0</ele><time>2026-05-02T08:36:22.179Z</time></trkpt><trkpt lat="43.6337096" lon="12.7412141"><ele>682.5</ele><time>2026-05-02T08:36:23.181Z</time></trkpt><trkpt lat="43.6335792" lon="12.7413225"><ele>683.0</ele><time>2026-05-02T08:36:24.174Z</time></trkpt><trkpt lat="43.6334537" lon="12.7414199"><ele>683.5</ele><time>2026-05-02T08:36:25.172Z</time></trkpt><trkpt lat="43.6333333" lon="12.7415185"><ele>684.0</ele><time>2026-05-02T08:36:26.173Z</time></trkpt><trkpt lat="43.6332078" lon="12.7416069"><ele>684.0</ele><time>2026-05-02T08:36:27.172Z</time></trkpt><trkpt lat="43.6330883" lon="12.7416847"><ele>684.0</ele><time>2026-05-02T08:36:28.184Z</time></trkpt><trkpt lat="43.6329646" lon="12.7417492"><ele>684.0</ele><time>2026-05-02T08:36:29.175Z</time></trkpt><trkpt lat="43.6328201" lon="12.7418125"><ele>684.0</ele><time>2026-05-02T08:36:30.175Z</time></trkpt><trkpt lat="43.6326897" lon="12.7418692"><ele>686.3333333333334</ele><time>2026-05-02T08:36:31.177Z</time></trkpt><trkpt lat="43.6325327" lon="12.7419421"><ele>688.6666666666667</ele><time>2026-05-02T08:36:32.175Z</time></trkpt><trkpt lat="43.6323913" lon="12.7420095"><ele>691.0</ele><time>2026-05-02T08:36:33.177Z</time></trkpt><trkpt lat="43.6322467" lon="12.7420812"><ele>691.0</ele><time>2026-05-02T08:36:34.175Z</time></trkpt><trkpt lat="43.6321063" lon="12.7421707"><ele>691.0</ele><time>2026-05-02T08:36:35.17Z</time></trkpt><trkpt lat="43.631964" lon="12.7422815"><ele>691.0</ele><time>2026-05-02T08:36:36.176Z</time></trkpt><trkpt lat="43.6318262" lon="12.7423774"><ele>687.25</ele><time>2026-05-02T08:36:37.173Z</time></trkpt><trkpt lat="43.6316816" lon="12.742471"><ele>683.5</ele><time>2026-05-02T08:36:38.172Z</time></trkpt><trkpt lat="43.6315493" lon="12.7425441"><ele>679.75</ele><time>2026-05-02T08:36:39.171Z</time></trkpt><trkpt lat="43.6314288" lon="12.7426026"><ele>676.0</ele><time>2026-05-02T08:36:40.166Z</time></trkpt><trkpt lat="43.6313236" lon="12.7426712"><ele>678.5999999999999</ele><time>2026-05-02T08:36:41.169Z</time></trkpt><trkpt lat="43.6312154" lon="12.7427322"><ele>681.2</ele><time>2026-05-02T08:36:42.165Z</time></trkpt><trkpt lat="43.6311194" lon="12.7427973"><ele>683.8</ele><time>2026-05-02T08:36:43.164Z</time></trkpt><trkpt lat="43.6310422" lon="12.7428749"><ele>686.4000000000001</ele><time>2026-05-02T08:36:44.165Z</time></trkpt><trkpt lat="43.630968" lon="12.7429296"><ele>689.0</ele><time>2026-05-02T08:36:45.17Z</time></trkpt><trkpt lat="43.6308834" lon="12.7429536"><ele>689.0</ele><time>2026-05-02T08:36:46.16Z</time></trkpt><trkpt lat="43.6308001" lon="12.7429465"><ele>689.0</ele><time>2026-05-02T08:36:47.162Z</time></trkpt><trkpt lat="43.6307103" lon="12.7429251"><ele>689.0</ele><time>2026-05-02T08:36:48.155Z</time></trkpt><trkpt lat="43.6306296" lon="12.7428778"><ele>689.0</ele><time>2026-05-02T08:36:49.156Z</time></trkpt><trkpt lat="43.6305676" lon="12.7428098"><ele>689.0</ele><time>2026-05-02T08:36:50.161Z</time></trkpt><trkpt lat="43.6305208" lon="12.7427208"><ele>689.0</ele><time>2026-05-02T08:36:51.16Z</time></trkpt><trkpt lat="43.6304744" lon="12.7426095"><ele>686.6</ele><time>2026-05-02T08:36:52.165Z</time></trkpt><trkpt lat="43.6304389" lon="12.7424859"><ele>684.2</ele><time>2026-05-02T08:36:53.159Z</time></trkpt><trkpt lat="43.6304146" lon="12.742349"><ele>681.8000000000001</ele><time>2026-05-02T08:36:54.164Z</time></trkpt><trkpt lat="43.6304181" lon="12.7422011"><ele>679.4000000000001</ele><time>2026-05-02T08:36:55.159Z</time></trkpt><trkpt lat="43.6304381" lon="12.7420551"><ele>677.0</ele><time>2026-05-02T08:36:56.158Z</time></trkpt><trkpt lat="43.6304783" lon="12.7419068"><ele>677.75</ele><time>2026-05-02T08:36:57.161Z</time></trkpt><trkpt lat="43.6305339" lon="12.7417563"><ele>678.5</ele><time>2026-05-02T08:36:58.165Z</time></trkpt><trkpt lat="43.6305983" lon="12.7415921"><ele>679.25</ele><time>2026-05-02T08:36:59.158Z</time></trkpt><trkpt lat="43.6306715" lon="12.7414156"><ele>680.0</ele><time>2026-05-02T08:37:00.161Z</time></trkpt><trkpt lat="43.6307447" lon="12.7412243"><ele>684.3333333333333</ele><time>2026-05-02T08:37:01.156Z</time></trkpt><trkpt lat="43.6308247" lon="12.7410219"><ele>688.6666666666666</ele><time>2026-05-02T08:37:02.15Z</time></trkpt><trkpt lat="43.6309149" lon="12.7408051"><ele>693.0</ele><time>2026-05-02T08:37:03.154Z</time></trkpt><trkpt lat="43.6310058" lon="12.7405757"><ele>693.0</ele><time>2026-05-02T08:37:04.155Z</time></trkpt><trkpt lat="43.6310938" lon="12.7403841"><ele>693.0</ele><time>2026-05-02T08:37:05.156Z</time></trkpt><trkpt lat="43.6311944" lon="12.7401972"><ele>693.0</ele><time>2026-05-02T08:37:06.152Z</time></trkpt><trkpt lat="43.6312773" lon="12.7400184"><ele>679.6666666666666</ele><time>2026-05-02T08:37:07.155Z</time></trkpt><trkpt lat="43.6313571" lon="12.73983"><ele>666.3333333333333</ele><time>2026-05-02T08:37:08.159Z</time></trkpt><trkpt lat="43.6314237" lon="12.7396388"><ele>653.0</ele><time>2026-05-02T08:37:09.159Z</time></trkpt><trkpt lat="43.6314811" lon="12.7394411"><ele>659.3333333333333</ele><time>2026-05-02T08:37:10.159Z</time></trkpt><trkpt lat="43.6315364" lon="12.7392301"><ele>665.6666666666666</ele><time>2026-05-02T08:37:11.154Z</time></trkpt><trkpt lat="43.631586" lon="12.7390192"><ele>672.0</ele><time>2026-05-02T08:37:12.156Z</time></trkpt><trkpt lat="43.6316395" lon="12.7388155"><ele>672.0</ele><time>2026-05-02T08:37:13.155Z</time></trkpt><trkpt lat="43.6316859" lon="12.7386191"><ele>672.0</ele><time>2026-05-02T08:37:14.164Z</time></trkpt><trkpt lat="43.6317317" lon="12.7384067"><ele>672.0</ele><time>2026-05-02T08:37:15.169Z</time></trkpt><trkpt lat="43.631765" lon="12.7381842"><ele>673.3333333333334</ele><time>2026-05-02T08:37:16.17Z</time></trkpt><trkpt lat="43.631782" lon="12.7379553"><ele>674.6666666666667</ele><time>2026-05-02T08:37:17.168Z</time></trkpt><trkpt lat="43.6317963" lon="12.7377346"><ele>676.0</ele><time>2026-05-02T08:37:18.177Z</time></trkpt><trkpt lat="43.6318068" lon="12.7375276"><ele>676.0</ele><time>2026-05-02T08:37:19.169Z</time></trkpt><trkpt lat="43.631829" lon="12.7373111"><ele>676.0</ele><time>2026-05-02T08:37:20.171Z</time></trkpt><trkpt lat="43.6318394" lon="12.7370837"><ele>676.0</ele><time>2026-05-02T08:37:21.172Z</time></trkpt><trkpt lat="43.6318353" lon="12.7368908"><ele>672.75</ele><time>2026-05-02T08:37:22.173Z</time></trkpt><trkpt lat="43.6318397" lon="12.7367129"><ele>669.5</ele><time>2026-05-02T08:37:23.176Z</time></trkpt><trkpt lat="43.6318568" lon="12.7365323"><ele>666.25</ele><time>2026-05-02T08:37:24.169Z</time></trkpt><trkpt lat="43.6318851" lon="12.7363501"><ele>663.0</ele><time>2026-05-02T08:37:25.181Z</time></trkpt><trkpt lat="43.6318898" lon="12.7361597"><ele>659.3333333333334</ele><time>2026-05-02T08:37:26.168Z</time></trkpt><trkpt lat="43.6318792" lon="12.7359497"><ele>655.6666666666667</ele><time>2026-05-02T08:37:27.173Z</time></trkpt><trkpt lat="43.6318677" lon="12.7357418"><ele>652.0</ele><time>2026-05-02T08:37:28.177Z</time></trkpt><trkpt lat="43.631863" lon="12.7355277"><ele>652.0</ele><time>2026-05-02T08:37:29.178Z</time></trkpt><trkpt lat="43.6318608" lon="12.7353125"><ele>652.0</ele><time>2026-05-02T08:37:30.175Z</time></trkpt><trkpt lat="43.6318657" lon="12.7350899"><ele>652.0</ele><time>2026-05-02T08:37:31.18Z</time></trkpt><trkpt lat="43.6318897" lon="12.7348699"><ele>649.75</ele><time>2026-05-02T08:37:32.174Z</time></trkpt><trkpt lat="43.6319139" lon="12.7346663"><ele>647.5</ele><time>2026-05-02T08:37:33.174Z</time></trkpt><trkpt lat="43.6319552" lon="12.7344676"><ele>645.25</ele><time>2026-05-02T08:37:34.175Z</time></trkpt><trkpt lat="43.6319838" lon="12.7342851"><ele>643.0</ele><time>2026-05-02T08:37:35.181Z</time></trkpt><trkpt lat="43.6320098" lon="12.7341403"><ele>640.8</ele><time>2026-05-02T08:37:36.178Z</time></trkpt><trkpt lat="43.632026" lon="12.7340302"><ele>638.5999999999999</ele><time>2026-05-02T08:37:37.184Z</time></trkpt><trkpt lat="43.6320203" lon="12.7338677"><ele>636.4000000000001</ele><time>2026-05-02T08:37:39.177Z</time></trkpt><trkpt lat="43.6319616" lon="12.7337459"><ele>634.2</ele><time>2026-05-02T08:37:41.174Z</time></trkpt><trkpt lat="43.6319273" lon="12.7336091"><ele>632.0</ele><time>2026-05-02T08:37:43.176Z</time></trkpt><trkpt lat="43.6319336" lon="12.7335121"><ele>630.0</ele><time>2026-05-02T08:37:44.178Z</time></trkpt><trkpt lat="43.631954" lon="12.733399"><ele>628.0</ele><time>2026-05-02T08:37:45.179Z</time></trkpt><trkpt lat="43.6319822" lon="12.7332495"><ele>626.0</ele><time>2026-05-02T08:37:46.176Z</time></trkpt><trkpt lat="43.6320067" lon="12.7330754"><ele>624.0</ele><time>2026-05-02T08:37:47.189Z</time></trkpt><trkpt lat="43.6320063" lon="12.732913"><ele>622.0</ele><time>2026-05-02T08:37:48.182Z</time></trkpt><trkpt lat="43.6319921" lon="12.7327842"><ele>621.1666666666667</ele><time>2026-05-02T08:37:49.174Z</time></trkpt><trkpt lat="43.6319845" lon="12.7326771"><ele>620.3333333333334</ele><time>2026-05-02T08:37:50.178Z</time></trkpt><trkpt lat="43.6320308" lon="12.7325297"><ele>619.5</ele><time>2026-05-02T08:37:52.179Z</time></trkpt><trkpt lat="43.6320846" lon="12.7324648"><ele>618.6666666666666</ele><time>2026-05-02T08:37:53.177Z</time></trkpt><trkpt lat="43.632147" lon="12.7324073"><ele>617.8333333333333</ele><time>2026-05-02T08:37:54.188Z</time></trkpt><trkpt lat="43.6321975" lon="12.7323419"><ele>617.0</ele><time>2026-05-02T08:37:55.179Z</time></trkpt><trkpt lat="43.6322459" lon="12.7322827"><ele>617.0</ele><time>2026-05-02T08:37:56.186Z</time></trkpt><trkpt lat="43.6323386" lon="12.7321796"><ele>617.0</ele><time>2026-05-02T08:37:58.184Z</time></trkpt><trkpt lat="43.6324407" lon="12.7320888"><ele>617.0</ele><time>2026-05-02T08:38:00.183Z</time></trkpt><trkpt lat="43.6325441" lon="12.7321073"><ele>617.0</ele><time>2026-05-02T08:38:02.185Z</time></trkpt><trkpt lat="43.6325891" lon="12.7321688"><ele>617.0</ele><time>2026-05-02T08:38:03.187Z</time></trkpt><trkpt lat="43.6326323" lon="12.7322612"><ele>617.0</ele><time>2026-05-02T08:38:04.188Z</time></trkpt><trkpt lat="43.6326662" lon="12.7323934"><ele>617.0</ele><time>2026-05-02T08:38:05.179Z</time></trkpt><trkpt lat="43.6326831" lon="12.732556"><ele>617.0</ele><time>2026-05-02T08:38:06.183Z</time></trkpt><trkpt lat="43.6326908" lon="12.7327367"><ele>617.0</ele><time>2026-05-02T08:38:07.18Z</time></trkpt><trkpt lat="43.6326971" lon="12.7329229"><ele>617.0</ele><time>2026-05-02T08:38:08.177Z</time></trkpt><trkpt lat="43.632693" lon="12.7331165"><ele>617.0</ele><time>2026-05-02T08:38:09.18Z</time></trkpt><trkpt lat="43.6326906" lon="12.7333088"><ele>617.0</ele><time>2026-05-02T08:38:10.168Z</time></trkpt><trkpt lat="43.6326889" lon="12.7334991"><ele>617.0</ele><time>2026-05-02T08:38:11.168Z</time></trkpt><trkpt lat="43.632698" lon="12.7336811"><ele>616.75</ele><time>2026-05-02T08:38:12.164Z</time></trkpt><trkpt lat="43.6327034" lon="12.7338518"><ele>616.5</ele><time>2026-05-02T08:38:13.163Z</time></trkpt><trkpt lat="43.6327069" lon="12.7340135"><ele>616.25</ele><time>2026-05-02T08:38:14.169Z</time></trkpt><trkpt lat="43.6327173" lon="12.7341853"><ele>616.0</ele><time>2026-05-02T08:38:15.166Z</time></trkpt><trkpt lat="43.6327277" lon="12.7343476"><ele>616.25</ele><time>2026-05-02T08:38:16.172Z</time></trkpt><trkpt lat="43.6327321" lon="12.7345122"><ele>616.5</ele><time>2026-05-02T08:38:17.17Z</time></trkpt><trkpt lat="43.6327388" lon="12.7346803"><ele>616.75</ele><time>2026-05-02T08:38:18.166Z</time></trkpt><trkpt lat="43.6327421" lon="12.7348417"><ele>617.0</ele><time>2026-05-02T08:38:19.164Z</time></trkpt><trkpt lat="43.6327413" lon="12.7349991"><ele>617.0</ele><time>2026-05-02T08:38:20.168Z</time></trkpt><trkpt lat="43.6327423" lon="12.7351606"><ele>617.0</ele><time>2026-05-02T08:38:21.164Z</time></trkpt><trkpt lat="43.632764" lon="12.7353158"><ele>617.0</ele><time>2026-05-02T08:38:22.167Z</time></trkpt><trkpt lat="43.6327957" lon="12.7354633"><ele>617.0</ele><time>2026-05-02T08:38:23.164Z</time></trkpt><trkpt lat="43.6328209" lon="12.7356072"><ele>612.5</ele><time>2026-05-02T08:38:24.164Z</time></trkpt><trkpt lat="43.6328494" lon="12.7357354"><ele>608.0</ele><time>2026-05-02T08:38:25.171Z</time></trkpt><trkpt lat="43.6328658" lon="12.7358425"><ele>603.5</ele><time>2026-05-02T08:38:26.163Z</time></trkpt><trkpt lat="43.6328493" lon="12.7359886"><ele>599.0</ele><time>2026-05-02T08:38:28.169Z</time></trkpt><trkpt lat="43.6328589" lon="12.7360908"><ele>594.5</ele><time>2026-05-02T08:38:30.17Z</time></trkpt><trkpt lat="43.6329175" lon="12.7360497"><ele>590.0</ele><time>2026-05-02T08:38:32.17Z</time></trkpt><trkpt lat="43.6329358" lon="12.7359595"><ele>589.2</ele><time>2026-05-02T08:38:33.17Z</time></trkpt><trkpt lat="43.6329485" lon="12.73585"><ele>588.4</ele><time>2026-05-02T08:38:34.168Z</time></trkpt><trkpt lat="43.632944" lon="12.7357171"><ele>587.6</ele><time>2026-05-02T08:38:35.166Z</time></trkpt><trkpt lat="43.6329501" lon="12.7355437"><ele>586.8</ele><time>2026-05-02T08:38:36.168Z</time></trkpt><trkpt lat="43.6329549" lon="12.7353634"><ele>586.0</ele><time>2026-05-02T08:38:37.163Z</time></trkpt><trkpt lat="43.6329681" lon="12.7351915"><ele>585.5</ele><time>2026-05-02T08:38:38.159Z</time></trkpt><trkpt lat="43.6329841" lon="12.735011"><ele>585.0</ele><time>2026-05-02T08:38:39.164Z</time></trkpt><trkpt lat="43.6330032" lon="12.7348276"><ele>584.5</ele><time>2026-05-02T08:38:40.166Z</time></trkpt><trkpt lat="43.6330307" lon="12.7346387"><ele>584.0</ele><time>2026-05-02T08:38:41.167Z</time></trkpt><trkpt lat="43.6330581" lon="12.7344491"><ele>583.25</ele><time>2026-05-02T08:38:42.165Z</time></trkpt><trkpt lat="43.6330865" lon="12.734256"><ele>582.5</ele><time>2026-05-02T08:38:43.164Z</time></trkpt><trkpt lat="43.6331207" lon="12.7340662"><ele>581.75</ele><time>2026-05-02T08:38:44.165Z</time></trkpt><trkpt lat="43.6331611" lon="12.7338754"><ele>581.0</ele><time>2026-05-02T08:38:45.165Z</time></trkpt><trkpt lat="43.6331996" lon="12.7336836"><ele>581.25</ele><time>2026-05-02T08:38:46.167Z</time></trkpt><trkpt lat="43.6332356" lon="12.7334963"><ele>581.5</ele><time>2026-05-02T08:38:47.163Z</time></trkpt><trkpt lat="43.633278" lon="12.7333239"><ele>581.75</ele><time>2026-05-02T08:38:48.169Z</time></trkpt><trkpt lat="43.6332995" lon="12.7331505"><ele>582.0</ele><time>2026-05-02T08:38:49.166Z</time></trkpt><trkpt lat="43.6333544" lon="12.7329842"><ele>582.0</ele><time>2026-05-02T08:38:50.165Z</time></trkpt><trkpt lat="43.633408" lon="12.7328226"><ele>582.0</ele><time>2026-05-02T08:38:51.16Z</time></trkpt><trkpt lat="43.6334588" lon="12.7326901"><ele>582.0</ele><time>2026-05-02T08:38:52.165Z</time></trkpt><trkpt lat="43.6335006" lon="12.732564"><ele>582.0</ele><time>2026-05-02T08:38:53.167Z</time></trkpt><trkpt lat="43.633547" lon="12.7324457"><ele>582.0</ele><time>2026-05-02T08:38:54.167Z</time></trkpt><trkpt lat="43.6336017" lon="12.7323276"><ele>576.75</ele><time>2026-05-02T08:38:55.164Z</time></trkpt><trkpt lat="43.6336581" lon="12.7321997"><ele>571.5</ele><time>2026-05-02T08:38:56.174Z</time></trkpt><trkpt lat="43.6337112" lon="12.7320722"><ele>566.25</ele><time>2026-05-02T08:38:57.17Z</time></trkpt><trkpt lat="43.6337705" lon="12.7319342"><ele>561.0</ele><time>2026-05-02T08:38:58.176Z</time></trkpt><trkpt lat="43.6338197" lon="12.731777"><ele>560.75</ele><time>2026-05-02T08:38:59.173Z</time></trkpt><trkpt lat="43.6338605" lon="12.7316095"><ele>560.5</ele><time>2026-05-02T08:39:00.17Z</time></trkpt><trkpt lat="43.6338982" lon="12.7314485"><ele>560.25</ele><time>2026-05-02T08:39:01.17Z</time></trkpt><trkpt lat="43.6339357" lon="12.7312963"><ele>560.0</ele><time>2026-05-02T08:39:02.169Z</time></trkpt><trkpt lat="43.6339747" lon="12.7311542"><ele>559.75</ele><time>2026-05-02T08:39:03.166Z</time></trkpt><trkpt lat="43.6340033" lon="12.7310039"><ele>559.5</ele><time>2026-05-02T08:39:04.166Z</time></trkpt><trkpt lat="43.6340193" lon="12.7308368"><ele>559.25</ele><time>2026-05-02T08:39:05.166Z</time></trkpt><trkpt lat="43.6340138" lon="12.7306653"><ele>559.0</ele><time>2026-05-02T08:39:06.166Z</time></trkpt><trkpt lat="43.6339959" lon="12.7304971"><ele>559.0</ele><time>2026-05-02T08:39:07.169Z</time></trkpt><trkpt lat="43.6339766" lon="12.7303364"><ele>559.0</ele><time>2026-05-02T08:39:08.165Z</time></trkpt><trkpt lat="43.6339601" lon="12.7301854"><ele>559.0</ele><time>2026-05-02T08:39:09.168Z</time></trkpt><trkpt lat="43.6339421" lon="12.7300592"><ele>559.0</ele><time>2026-05-02T08:39:10.169Z</time></trkpt><trkpt lat="43.6339262" lon="12.7299423"><ele>559.0</ele><time>2026-05-02T08:39:11.168Z</time></trkpt><trkpt lat="43.6339143" lon="12.7298286"><ele>559.0</ele><time>2026-05-02T08:39:12.172Z</time></trkpt><trkpt lat="43.6339015" lon="12.7297263"><ele>559.0</ele><time>2026-05-02T08:39:13.175Z</time></trkpt><trkpt lat="43.6338858" lon="12.7296297"><ele>559.0</ele><time>2026-05-02T08:39:14.176Z</time></trkpt><trkpt lat="43.6338575" lon="12.7295309"><ele>559.0</ele><time>2026-05-02T08:39:15.187Z</time></trkpt><trkpt lat="43.6338095" lon="12.7294431"><ele>559.0</ele><time>2026-05-02T08:39:16.175Z</time></trkpt><trkpt lat="43.6337462" lon="12.7293645"><ele>559.0</ele><time>2026-05-02T08:39:17.178Z</time></trkpt><trkpt lat="43.6336671" lon="12.7292962"><ele>561.25</ele><time>2026-05-02T08:39:18.179Z</time></trkpt><trkpt lat="43.6335739" lon="12.7292397"><ele>563.5</ele><time>2026-05-02T08:39:19.176Z</time></trkpt><trkpt lat="43.6334663" lon="12.7291949"><ele>565.75</ele><time>2026-05-02T08:39:20.174Z</time></trkpt><trkpt lat="43.6333537" lon="12.7291496"><ele>568.0</ele><time>2026-05-02T08:39:21.173Z</time></trkpt><trkpt lat="43.6332319" lon="12.7291127"><ele>568.0</ele><time>2026-05-02T08:39:22.173Z</time></trkpt><trkpt lat="43.6331079" lon="12.7290795"><ele>568.0</ele><time>2026-05-02T08:39:23.171Z</time></trkpt><trkpt lat="43.6329979" lon="12.7290699"><ele>568.0</ele><time>2026-05-02T08:39:24.175Z</time></trkpt><trkpt lat="43.6328986" lon="12.7290868"><ele>568.0</ele><time>2026-05-02T08:39:25.178Z</time></trkpt><trkpt lat="43.6328066" lon="12.7291343"><ele>568.0</ele><time>2026-05-02T08:39:26.172Z</time></trkpt><trkpt lat="43.6327195" lon="12.7291957"><ele>569.0</ele><time>2026-05-02T08:39:27.177Z</time></trkpt><trkpt lat="43.6326396" lon="12.7292844"><ele>570.0</ele><time>2026-05-02T08:39:28.18Z</time></trkpt><trkpt lat="43.6325581" lon="12.7294073"><ele>571.0</ele><time>2026-05-02T08:39:29.176Z</time></trkpt><trkpt lat="43.6324702" lon="12.7295213"><ele>572.0</ele><time>2026-05-02T08:39:30.166Z</time></trkpt><trkpt lat="43.6323795" lon="12.7296345"><ele>572.0</ele><time>2026-05-02T08:39:31.172Z</time></trkpt><trkpt lat="43.6322881" lon="12.7297277"><ele>572.0</ele><time>2026-05-02T08:39:32.164Z</time></trkpt><trkpt lat="43.6322026" lon="12.7297977"><ele>572.0</ele><time>2026-05-02T08:39:33.159Z</time></trkpt><trkpt lat="43.6321256" lon="12.7298444"><ele>572.0</ele><time>2026-05-02T08:39:34.167Z</time></trkpt><trkpt lat="43.632064" lon="12.7298847"><ele>572.0</ele><time>2026-05-02T08:39:35.161Z</time></trkpt><trkpt lat="43.6320154" lon="12.7299482"><ele>572.0</ele><time>2026-05-02T08:39:36.166Z</time></trkpt><trkpt lat="43.6319726" lon="12.7300174"><ele>568.8333333333333</ele><time>2026-05-02T08:39:37.16Z</time></trkpt><trkpt lat="43.6319279" lon="12.7300972"><ele>565.6666666666666</ele><time>2026-05-02T08:39:38.163Z</time></trkpt><trkpt lat="43.6318558" lon="12.7301569"><ele>562.5</ele><time>2026-05-02T08:39:39.162Z</time></trkpt><trkpt lat="43.63177" lon="12.7301989"><ele>559.3333333333334</ele><time>2026-05-02T08:39:40.164Z</time></trkpt><trkpt lat="43.6316727" lon="12.7302195"><ele>556.1666666666667</ele><time>2026-05-02T08:39:41.163Z</time></trkpt><trkpt lat="43.6315767" lon="12.7302111"><ele>553.0</ele><time>2026-05-02T08:39:42.164Z</time></trkpt><trkpt lat="43.6314782" lon="12.7301823"><ele>553.0</ele><time>2026-05-02T08:39:43.164Z</time></trkpt><trkpt lat="43.6313731" lon="12.7301395"><ele>553.0</ele><time>2026-05-02T08:39:44.169Z</time></trkpt><trkpt lat="43.631257" lon="12.7300866"><ele>553.0</ele><time>2026-05-02T08:39:45.163Z</time></trkpt><trkpt lat="43.6311372" lon="12.7300414"><ele>553.0</ele><time>2026-05-02T08:39:46.164Z</time></trkpt><trkpt lat="43.6310214" lon="12.7300234"><ele>550.5</ele><time>2026-05-02T08:39:47.171Z</time></trkpt><trkpt lat="43.6308991" lon="12.7300369"><ele>548.0</ele><time>2026-05-02T08:39:48.16Z</time></trkpt><trkpt lat="43.6307741" lon="12.7300887"><ele>545.5</ele><time>2026-05-02T08:39:49.17Z</time></trkpt><trkpt lat="43.6306497" lon="12.7301457"><ele>543.0</ele><time>2026-05-02T08:39:50.159Z</time></trkpt><trkpt lat="43.6305349" lon="12.7301855"><ele>543.0</ele><time>2026-05-02T08:39:51.159Z</time></trkpt><trkpt lat="43.6304481" lon="12.7302168"><ele>543.0</ele><time>2026-05-02T08:39:52.163Z</time></trkpt><trkpt lat="43.6303732" lon="12.7302489"><ele>543.0</ele><time>2026-05-02T08:39:53.166Z</time></trkpt><trkpt lat="43.6303117" lon="12.7302901"><ele>543.0</ele><time>2026-05-02T08:39:54.166Z</time></trkpt><trkpt lat="43.6302587" lon="12.7303554"><ele>543.0</ele><time>2026-05-02T08:39:55.171Z</time></trkpt><trkpt lat="43.6302238" lon="12.7304554"><ele>543.0</ele><time>2026-05-02T08:39:56.171Z</time></trkpt><trkpt lat="43.6301756" lon="12.7305826"><ele>543.6666666666666</ele><time>2026-05-02T08:39:57.17Z</time></trkpt><trkpt lat="43.6300844" lon="12.7307196"><ele>544.3333333333333</ele><time>2026-05-02T08:39:58.185Z</time></trkpt><trkpt lat="43.6299491" lon="12.7308687"><ele>545.0</ele><time>2026-05-02T08:39:59.167Z</time></trkpt><trkpt lat="43.6298055" lon="12.7310321"><ele>547.3333333333333</ele><time>2026-05-02T08:40:00.176Z</time></trkpt><trkpt lat="43.6296615" lon="12.731196"><ele>549.6666666666666</ele><time>2026-05-02T08:40:01.163Z</time></trkpt><trkpt lat="43.6295036" lon="12.7313457"><ele>552.0</ele><time>2026-05-02T08:40:02.169Z</time></trkpt><trkpt lat="43.629362" lon="12.7314844"><ele>552.0</ele><time>2026-05-02T08:40:03.168Z</time></trkpt><trkpt lat="43.6292287" lon="12.7316017"><ele>552.0</ele><time>2026-05-02T08:40:04.17Z</time></trkpt><trkpt lat="43.6290883" lon="12.7317202"><ele>552.0</ele><time>2026-05-02T08:40:05.163Z</time></trkpt><trkpt lat="43.6289442" lon="12.7318241"><ele>553.5</ele><time>2026-05-02T08:40:06.163Z</time></trkpt><trkpt lat="43.6288018" lon="12.7319274"><ele>555.0</ele><time>2026-05-02T08:40:07.161Z</time></trkpt><trkpt lat="43.6286537" lon="12.7319978"><ele>556.5</ele><time>2026-05-02T08:40:08.159Z</time></trkpt><trkpt lat="43.6285322" lon="12.7320522"><ele>558.0</ele><time>2026-05-02T08:40:09.168Z</time></trkpt><trkpt lat="43.6284467" lon="12.7320972"><ele>558.0</ele><time>2026-05-02T08:40:10.164Z</time></trkpt><trkpt lat="43.628386" lon="12.7321927"><ele>558.0</ele><time>2026-05-02T08:40:11.163Z</time></trkpt><trkpt lat="43.628315" lon="12.7323284"><ele>558.0</ele><time>2026-05-02T08:40:12.161Z</time></trkpt><trkpt lat="43.6282459" lon="12.7324749"><ele>558.0</ele><time>2026-05-02T08:40:13.168Z</time></trkpt><trkpt lat="43.628181" lon="12.7326168"><ele>561.5</ele><time>2026-05-02T08:40:14.165Z</time></trkpt><trkpt lat="43.6281223" lon="12.7327667"><ele>565.0</ele><time>2026-05-02T08:40:15.178Z</time></trkpt><trkpt lat="43.6280605" lon="12.7329228"><ele>568.5</ele><time>2026-05-02T08:40:16.167Z</time></trkpt><trkpt lat="43.628018" lon="12.733093"><ele>572.0</ele><time>2026-05-02T08:40:17.166Z</time></trkpt><trkpt lat="43.6279842" lon="12.7332719"><ele>572.0</ele><time>2026-05-02T08:40:18.163Z</time></trkpt><trkpt lat="43.6279514" lon="12.7334294"><ele>572.0</ele><time>2026-05-02T08:40:19.163Z</time></trkpt><trkpt lat="43.627897" lon="12.7335759"><ele>572.0</ele><time>2026-05-02T08:40:20.157Z</time></trkpt><trkpt lat="43.6278136" lon="12.7337128"><ele>572.0</ele><time>2026-05-02T08:40:21.17Z</time></trkpt><trkpt lat="43.6276915" lon="12.733843"><ele>569.6666666666666</ele><time>2026-05-02T08:40:22.163Z</time></trkpt><trkpt lat="43.6275454" lon="12.7339859"><ele>567.3333333333334</ele><time>2026-05-02T08:40:23.169Z</time></trkpt><trkpt lat="43.6274168" lon="12.734152"><ele>565.0</ele><time>2026-05-02T08:40:24.168Z</time></trkpt><trkpt lat="43.6272991" lon="12.7342893"><ele>564.5</ele><time>2026-05-02T08:40:25.166Z</time></trkpt><trkpt lat="43.6271811" lon="12.7344012"><ele>564.0</ele><time>2026-05-02T08:40:26.168Z</time></trkpt><trkpt lat="43.6270558" lon="12.7344943"><ele>563.5</ele><time>2026-05-02T08:40:27.164Z</time></trkpt><trkpt lat="43.6269403" lon="12.7345531"><ele>563.0</ele><time>2026-05-02T08:40:28.167Z</time></trkpt><trkpt lat="43.6268392" lon="12.7345997"><ele>563.0</ele><time>2026-05-02T08:40:29.161Z</time></trkpt><trkpt lat="43.6267514" lon="12.7347134"><ele>563.0</ele><time>2026-05-02T08:40:30.161Z</time></trkpt><trkpt lat="43.6266805" lon="12.7348957"><ele>563.0</ele><time>2026-05-02T08:40:31.177Z</time></trkpt><trkpt lat="43.6266066" lon="12.7351179"><ele>563.0</ele><time>2026-05-02T08:40:32.157Z</time></trkpt><trkpt lat="43.6265372" lon="12.7352928"><ele>565.1999999999999</ele><time>2026-05-02T08:40:33.166Z</time></trkpt><trkpt lat="43.6264655" lon="12.7354328"><ele>567.4</ele><time>2026-05-02T08:40:34.173Z</time></trkpt><trkpt lat="43.626408" lon="12.7355376"><ele>569.5999999999999</ele><time>2026-05-02T08:40:35.159Z</time></trkpt><trkpt lat="43.6263677" lon="12.7356618"><ele>571.8</ele><time>2026-05-02T08:40:36.167Z</time></trkpt><trkpt lat="43.62635" lon="12.7357969"><ele>574.0</ele><time>2026-05-02T08:40:37.168Z</time></trkpt><trkpt lat="43.6263654" lon="12.7359615"><ele>576.5</ele><time>2026-05-02T08:40:38.165Z</time></trkpt><trkpt lat="43.6263946" lon="12.7361614"><ele>579.0</ele><time>2026-05-02T08:40:39.167Z</time></trkpt><trkpt lat="43.6264176" lon="12.7363671"><ele>581.5</ele><time>2026-05-02T08:40:40.171Z</time></trkpt><trkpt lat="43.6264105" lon="12.7365661"><ele>584.0</ele><time>2026-05-02T08:40:41.159Z</time></trkpt><trkpt lat="43.6263492" lon="12.7367244"><ele>584.0</ele><time>2026-05-02T08:40:42.17Z</time></trkpt><trkpt lat="43.6262716" lon="12.7368283"><ele>584.0</ele><time>2026-05-02T08:40:43.163Z</time></trkpt><trkpt lat="43.6262022" lon="12.7369098"><ele>584.0</ele><time>2026-05-02T08:40:44.164Z</time></trkpt><trkpt lat="43.6261698" lon="12.7370089"><ele>584.0</ele><time>2026-05-02T08:40:45.17Z</time></trkpt><trkpt lat="43.6261516" lon="12.7371746"><ele>584.0</ele><time>2026-05-02T08:40:47.166Z</time></trkpt><trkpt lat="43.6261518" lon="12.737264"><ele>586.1666666666666</ele><time>2026-05-02T08:40:48.174Z</time></trkpt><trkpt lat="43.6261552" lon="12.7373532"><ele>588.3333333333333</ele><time>2026-05-02T08:40:49.169Z</time></trkpt><trkpt lat="43.6261708" lon="12.7374455"><ele>590.5</ele><time>2026-05-02T08:40:50.171Z</time></trkpt><trkpt lat="43.626198" lon="12.7375429"><ele>592.6666666666666</ele><time>2026-05-02T08:40:51.169Z</time></trkpt><trkpt lat="43.6262308" lon="12.7376535"><ele>594.8333333333334</ele><time>2026-05-02T08:40:52.174Z</time></trkpt><trkpt lat="43.6262702" lon="12.7377781"><ele>597.0</ele><time>2026-05-02T08:40:53.167Z</time></trkpt><trkpt lat="43.6263137" lon="12.7379108"><ele>599.5</ele><time>2026-05-02T08:40:54.168Z</time></trkpt><trkpt lat="43.6263595" lon="12.7380664"><ele>602.0</ele><time>2026-05-02T08:40:55.164Z</time></trkpt><trkpt lat="43.6263988" lon="12.7382433"><ele>604.5</ele><time>2026-05-02T08:40:56.164Z</time></trkpt><trkpt lat="43.6264303" lon="12.7384346"><ele>607.0</ele><time>2026-05-02T08:40:57.161Z</time></trkpt><trkpt lat="43.6264466" lon="12.7386054"><ele>607.0</ele><time>2026-05-02T08:40:58.163Z</time></trkpt><trkpt lat="43.6264593" lon="12.7387656"><ele>607.0</ele><time>2026-05-02T08:40:59.171Z</time></trkpt><trkpt lat="43.62646" lon="12.7388825"><ele>607.0</ele><time>2026-05-02T08:41:00.166Z</time></trkpt><trkpt lat="43.6264012" lon="12.7389774"><ele>607.0</ele><time>2026-05-02T08:41:02.154Z</time></trkpt><trkpt lat="43.6262666" lon="12.7389071"><ele>607.0</ele><time>2026-05-02T08:41:04.156Z</time></trkpt><trkpt lat="43.6261768" lon="12.7387984"><ele>603.6</ele><time>2026-05-02T08:41:05.153Z</time></trkpt><trkpt lat="43.6260802" lon="12.7386841"><ele>600.2</ele><time>2026-05-02T08:41:06.151Z</time></trkpt><trkpt lat="43.625981" lon="12.738617"><ele>596.8</ele><time>2026-05-02T08:41:07.16Z</time></trkpt><trkpt lat="43.6258987" lon="12.7385842"><ele>593.4</ele><time>2026-05-02T08:41:08.165Z</time></trkpt><trkpt lat="43.6258162" lon="12.7386026"><ele>590.0</ele><time>2026-05-02T08:41:09.157Z</time></trkpt><trkpt lat="43.6257446" lon="12.7386471"><ele>590.0</ele><time>2026-05-02T08:41:10.163Z</time></trkpt><trkpt lat="43.6256932" lon="12.7387397"><ele>590.0</ele><time>2026-05-02T08:41:11.159Z</time></trkpt><trkpt lat="43.6256602" lon="12.7388678"><ele>590.0</ele><time>2026-05-02T08:41:12.161Z</time></trkpt><trkpt lat="43.62565" lon="12.7390213"><ele>590.0</ele><time>2026-05-02T08:41:13.162Z</time></trkpt><trkpt lat="43.6256702" lon="12.7391966"><ele>590.0</ele><time>2026-05-02T08:41:14.163Z</time></trkpt><trkpt lat="43.6257136" lon="12.739404"><ele>594.5</ele><time>2026-05-02T08:41:15.175Z</time></trkpt><trkpt lat="43.6257615" lon="12.7396022"><ele>599.0</ele><time>2026-05-02T08:41:16.175Z</time></trkpt><trkpt lat="43.6257953" lon="12.7397682"><ele>603.5</ele><time>2026-05-02T08:41:17.169Z</time></trkpt><trkpt lat="43.6258232" lon="12.7399046"><ele>608.0</ele><time>2026-05-02T08:41:18.175Z</time></trkpt><trkpt lat="43.6258219" lon="12.7400079"><ele>608.0</ele><time>2026-05-02T08:41:19.176Z</time></trkpt><trkpt lat="43.6257346" lon="12.7400772"><ele>608.0</ele><time>2026-05-02T08:41:21.181Z</time></trkpt><trkpt lat="43.6256474" lon="12.7400548"><ele>608.0</ele><time>2026-05-02T08:41:22.178Z</time></trkpt><trkpt lat="43.6255226" lon="12.7400078"><ele>608.0</ele><time>2026-05-02T08:41:23.172Z</time></trkpt><trkpt lat="43.6253941" lon="12.7399313"><ele>606.0</ele><time>2026-05-02T08:41:24.17Z</time></trkpt><trkpt lat="43.6252634" lon="12.7398466"><ele>604.0</ele><time>2026-05-02T08:41:25.176Z</time></trkpt><trkpt lat="43.6251376" lon="12.7397951"><ele>602.0</ele><time>2026-05-02T08:41:26.174Z</time></trkpt><trkpt lat="43.6250263" lon="12.7397848"><ele>600.0</ele><time>2026-05-02T08:41:27.18Z</time></trkpt><trkpt lat="43.6249518" lon="12.739821"><ele>600.0</ele><time>2026-05-02T08:41:28.176Z</time></trkpt><trkpt lat="43.6248904" lon="12.7399066"><ele>600.0</ele><time>2026-05-02T08:41:29.178Z</time></trkpt><trkpt lat="43.6248146" lon="12.7400358"><ele>600.0</ele><time>2026-05-02T08:41:30.178Z</time></trkpt><trkpt lat="43.6247103" lon="12.7401883"><ele>600.0</ele><time>2026-05-02T08:41:31.174Z</time></trkpt><trkpt lat="43.6245929" lon="12.7403711"><ele>597.3333333333334</ele><time>2026-05-02T08:41:32.181Z</time></trkpt><trkpt lat="43.6244486" lon="12.7405654"><ele>594.6666666666667</ele><time>2026-05-02T08:41:33.171Z</time></trkpt><trkpt lat="43.6242971" lon="12.7407537"><ele>592.0</ele><time>2026-05-02T08:41:34.175Z</time></trkpt><trkpt lat="43.6241536" lon="12.7409456"><ele>599.3333333333334</ele><time>2026-05-02T08:41:35.175Z</time></trkpt><trkpt lat="43.624015" lon="12.7411561"><ele>606.6666666666666</ele><time>2026-05-02T08:41:36.178Z</time></trkpt><trkpt lat="43.6238917" lon="12.7413726"><ele>614.0</ele><time>2026-05-02T08:41:37.175Z</time></trkpt><trkpt lat="43.6237714" lon="12.7415793"><ele>614.0</ele><time>2026-05-02T08:41:38.18Z</time></trkpt><trkpt lat="43.623675" lon="12.7417549"><ele>614.0</ele><time>2026-05-02T08:41:39.178Z</time></trkpt><trkpt lat="43.6235846" lon="12.7419295"><ele>614.0</ele><time>2026-05-02T08:41:40.176Z</time></trkpt><trkpt lat="43.6235039" lon="12.7420847"><ele>612.75</ele><time>2026-05-02T08:41:41.172Z</time></trkpt><trkpt lat="43.6234296" lon="12.7422372"><ele>611.5</ele><time>2026-05-02T08:41:42.17Z</time></trkpt><trkpt lat="43.6233708" lon="12.7423869"><ele>610.25</ele><time>2026-05-02T08:41:43.175Z</time></trkpt><trkpt lat="43.6233318" lon="12.7425559"><ele>609.0</ele><time>2026-05-02T08:41:44.175Z</time></trkpt><trkpt lat="43.6233011" lon="12.74276"><ele>609.0</ele><time>2026-05-02T08:41:45.176Z</time></trkpt><trkpt lat="43.6232603" lon="12.7429176"><ele>609.0</ele><time>2026-05-02T08:41:46.179Z</time></trkpt><trkpt lat="43.6232201" lon="12.7430349"><ele>609.0</ele><time>2026-05-02T08:41:47.173Z</time></trkpt><trkpt lat="43.6231422" lon="12.7431531"><ele>609.0</ele><time>2026-05-02T08:41:48.18Z</time></trkpt><trkpt lat="43.6230426" lon="12.7432667"><ele>609.0</ele><time>2026-05-02T08:41:49.174Z</time></trkpt><trkpt lat="43.6229599" lon="12.7433878"><ele>609.0</ele><time>2026-05-02T08:41:50.178Z</time></trkpt><trkpt lat="43.6228901" lon="12.7435442"><ele>609.0</ele><time>2026-05-02T08:41:51.176Z</time></trkpt><trkpt lat="43.6228383" lon="12.7437565"><ele>609.0</ele><time>2026-05-02T08:41:52.179Z</time></trkpt><trkpt lat="43.6227992" lon="12.7439744"><ele>607.5</ele><time>2026-05-02T08:41:53.179Z</time></trkpt><trkpt lat="43.6227458" lon="12.7441813"><ele>606.0</ele><time>2026-05-02T08:41:54.181Z</time></trkpt><trkpt lat="43.6226683" lon="12.7443516"><ele>604.5</ele><time>2026-05-02T08:41:55.184Z</time></trkpt><trkpt lat="43.6225919" lon="12.7445052"><ele>603.0</ele><time>2026-05-02T08:41:56.185Z</time></trkpt><trkpt lat="43.6225468" lon="12.7446471"><ele>603.0</ele><time>2026-05-02T08:41:57.175Z</time></trkpt><trkpt lat="43.6225125" lon="12.7447691"><ele>603.0</ele><time>2026-05-02T08:41:58.192Z</time></trkpt><trkpt lat="43.6225086" lon="12.7448802"><ele>603.0</ele><time>2026-05-02T08:41:59.185Z</time></trkpt><trkpt lat="43.6225312" lon="12.7450174"><ele>603.0</ele><time>2026-05-02T08:42:00.182Z</time></trkpt><trkpt lat="43.6225532" lon="12.7451963"><ele>603.0</ele><time>2026-05-02T08:42:01.185Z</time></trkpt><trkpt lat="43.6225601" lon="12.745385"><ele>606.5</ele><time>2026-05-02T08:42:02.172Z</time></trkpt><trkpt lat="43.6225541" lon="12.745555"><ele>610.0</ele><time>2026-05-02T08:42:03.182Z</time></trkpt><trkpt lat="43.6225343" lon="12.7457062"><ele>613.5</ele><time>2026-05-02T08:42:04.174Z</time></trkpt><trkpt lat="43.6224966" lon="12.7458504"><ele>617.0</ele><time>2026-05-02T08:42:05.172Z</time></trkpt><trkpt lat="43.6224384" lon="12.7459886"><ele>621.0</ele><time>2026-05-02T08:42:06.174Z</time></trkpt><trkpt lat="43.6223484" lon="12.7461443"><ele>625.0</ele><time>2026-05-02T08:42:07.167Z</time></trkpt><trkpt lat="43.6222425" lon="12.7463057"><ele>629.0</ele><time>2026-05-02T08:42:08.174Z</time></trkpt><trkpt lat="43.6221349" lon="12.7464353"><ele>633.0</ele><time>2026-05-02T08:42:09.176Z</time></trkpt><trkpt lat="43.6220373" lon="12.7465745"><ele>627.0</ele><time>2026-05-02T08:42:10.178Z</time></trkpt><trkpt lat="43.6219623" lon="12.7467513"><ele>621.0</ele><time>2026-05-02T08:42:11.178Z</time></trkpt><trkpt lat="43.6219199" lon="12.7469552"><ele>615.0</ele><time>2026-05-02T08:42:12.178Z</time></trkpt><trkpt lat="43.6218962" lon="12.7471439"><ele>609.0</ele><time>2026-05-02T08:42:13.18Z</time></trkpt><trkpt lat="43.6218895" lon="12.7473041"><ele>609.0</ele><time>2026-05-02T08:42:14.175Z</time></trkpt><trkpt lat="43.6219032" lon="12.7474622"><ele>609.0</ele><time>2026-05-02T08:42:15.169Z</time></trkpt><trkpt lat="43.6219322" lon="12.7476105"><ele>609.0</ele><time>2026-05-02T08:42:16.173Z</time></trkpt><trkpt lat="43.6219489" lon="12.7477306"><ele>609.0</ele><time>2026-05-02T08:42:17.17Z</time></trkpt><trkpt lat="43.6219421" lon="12.7478178"><ele>609.0</ele><time>2026-05-02T08:42:18.173Z</time></trkpt><trkpt lat="43.621896" lon="12.7478862"><ele>609.0</ele><time>2026-05-02T08:42:19.171Z</time></trkpt><trkpt lat="43.6218109" lon="12.7479399"><ele>614.25</ele><time>2026-05-02T08:42:20.163Z</time></trkpt><trkpt lat="43.6217038" lon="12.7480044"><ele>619.5</ele><time>2026-05-02T08:42:21.166Z</time></trkpt><trkpt lat="43.6215919" lon="12.7481002"><ele>624.75</ele><time>2026-05-02T08:42:22.17Z</time></trkpt><trkpt lat="43.6214708" lon="12.7482422"><ele>630.0</ele><time>2026-05-02T08:42:23.167Z</time></trkpt><trkpt lat="43.6213583" lon="12.7484156"><ele>634.6666666666666</ele><time>2026-05-02T08:42:24.172Z</time></trkpt><trkpt lat="43.6212502" lon="12.7486177"><ele>639.3333333333333</ele><time>2026-05-02T08:42:25.173Z</time></trkpt><trkpt lat="43.6211505" lon="12.7488133"><ele>644.0</ele><time>2026-05-02T08:42:26.168Z</time></trkpt><trkpt lat="43.6210775" lon="12.7490059"><ele>635.5</ele><time>2026-05-02T08:42:27.177Z</time></trkpt><trkpt lat="43.6210277" lon="12.7491796"><ele>627.0</ele><time>2026-05-02T08:42:28.178Z</time></trkpt><trkpt lat="43.6209868" lon="12.7493313"><ele>618.5</ele><time>2026-05-02T08:42:29.177Z</time></trkpt><trkpt lat="43.6209815" lon="12.7495037"><ele>610.0</ele><time>2026-05-02T08:42:30.175Z</time></trkpt><trkpt lat="43.6210007" lon="12.7496705"><ele>610.0</ele><time>2026-05-02T08:42:31.175Z</time></trkpt><trkpt lat="43.6210447" lon="12.7498053"><ele>610.0</ele><time>2026-05-02T08:42:32.18Z</time></trkpt><trkpt lat="43.6211122" lon="12.7499428"><ele>610.0</ele><time>2026-05-02T08:42:33.17Z</time></trkpt><trkpt lat="43.6212204" lon="12.7500792"><ele>610.0</ele><time>2026-05-02T08:42:34.179Z</time></trkpt><trkpt lat="43.6213202" lon="12.7502067"><ele>617.0</ele><time>2026-05-02T08:42:35.169Z</time></trkpt><trkpt lat="43.6214145" lon="12.7503128"><ele>624.0</ele><time>2026-05-02T08:42:36.174Z</time></trkpt><trkpt lat="43.6214965" lon="12.7504019"><ele>631.0</ele><time>2026-05-02T08:42:37.174Z</time></trkpt><trkpt lat="43.6215643" lon="12.7504884"><ele>638.0</ele><time>2026-05-02T08:42:38.175Z</time></trkpt><trkpt lat="43.6216098" lon="12.7506156"><ele>645.0</ele><time>2026-05-02T08:42:40.174Z</time></trkpt><trkpt lat="43.6215166" lon="12.7507466"><ele>645.0</ele><time>2026-05-02T08:42:42.176Z</time></trkpt><trkpt lat="43.6214199" lon="12.7508093"><ele>645.0</ele><time>2026-05-02T08:42:43.175Z</time></trkpt><trkpt lat="43.6212996" lon="12.7508892"><ele>645.0</ele><time>2026-05-02T08:42:44.176Z</time></trkpt><trkpt lat="43.6211896" lon="12.7510216"><ele>645.0</ele><time>2026-05-02T08:42:45.176Z</time></trkpt><trkpt lat="43.6211013" lon="12.7511945"><ele>638.8</ele><time>2026-05-02T08:42:46.173Z</time></trkpt><trkpt lat="43.6210414" lon="12.7513494"><ele>632.6</ele><time>2026-05-02T08:42:47.174Z</time></trkpt><trkpt lat="43.6210005" lon="12.7514822"><ele>626.4</ele><time>2026-05-02T08:42:48.18Z</time></trkpt><trkpt lat="43.6209929" lon="12.7515796"><ele>620.2</ele><time>2026-05-02T08:42:49.183Z</time></trkpt><trkpt lat="43.6210186" lon="12.7516782"><ele>614.0</ele><time>2026-05-02T08:42:50.18Z</time></trkpt><trkpt lat="43.6210882" lon="12.751779"><ele>624.6</ele><time>2026-05-02T08:42:51.177Z</time></trkpt><trkpt lat="43.6211678" lon="12.7518807"><ele>635.2</ele><time>2026-05-02T08:42:52.174Z</time></trkpt><trkpt lat="43.6212388" lon="12.7519727"><ele>645.8000000000001</ele><time>2026-05-02T08:42:53.176Z</time></trkpt><trkpt lat="43.621298" lon="12.7520568"><ele>656.4</ele><time>2026-05-02T08:42:54.173Z</time></trkpt><trkpt lat="43.62128" lon="12.7521942"><ele>667.0</ele><time>2026-05-02T08:42:56.176Z</time></trkpt><trkpt lat="43.6212062" lon="12.7522554"><ele>663.0</ele><time>2026-05-02T08:42:57.169Z</time></trkpt><trkpt lat="43.6211169" lon="12.7523665"><ele>659.0</ele><time>2026-05-02T08:42:58.172Z</time></trkpt><trkpt lat="43.6210271" lon="12.7524998"><ele>655.0</ele><time>2026-05-02T08:42:59.175Z</time></trkpt><trkpt lat="43.6209405" lon="12.7526548"><ele>651.0</ele><time>2026-05-02T08:43:00.176Z</time></trkpt><trkpt lat="43.6208648" lon="12.7528271"><ele>651.0</ele><time>2026-05-02T08:43:01.177Z</time></trkpt><trkpt lat="43.6207847" lon="12.7529825"><ele>651.0</ele><time>2026-05-02T08:43:02.17Z</time></trkpt><trkpt lat="43.6206993" lon="12.753117"><ele>651.0</ele><time>2026-05-02T08:43:03.172Z</time></trkpt><trkpt lat="43.6206139" lon="12.7532425"><ele>651.0</ele><time>2026-05-02T08:43:04.169Z</time></trkpt><trkpt lat="43.6205406" lon="12.7533739"><ele>651.0</ele><time>2026-05-02T08:43:05.183Z</time></trkpt><trkpt lat="43.6204957" lon="12.7535387"><ele>651.0</ele><time>2026-05-02T08:43:06.173Z</time></trkpt><trkpt lat="43.6204601" lon="12.7537407"><ele>651.0</ele><time>2026-05-02T08:43:07.17Z</time></trkpt><trkpt lat="43.6204352" lon="12.7539463"><ele>651.0</ele><time>2026-05-02T08:43:08.175Z</time></trkpt><trkpt lat="43.6204185" lon="12.7541113"><ele>653.5999999999999</ele><time>2026-05-02T08:43:09.166Z</time></trkpt><trkpt lat="43.6203933" lon="12.7542475"><ele>656.2</ele><time>2026-05-02T08:43:10.168Z</time></trkpt><trkpt lat="43.6203779" lon="12.754383"><ele>658.8</ele><time>2026-05-02T08:43:11.167Z</time></trkpt><trkpt lat="43.6203949" lon="12.7545218"><ele>661.4000000000001</ele><time>2026-05-02T08:43:12.164Z</time></trkpt><trkpt lat="43.6204289" lon="12.7546708"><ele>664.0</ele><time>2026-05-02T08:43:13.16Z</time></trkpt><trkpt lat="43.6204652" lon="12.7548257"><ele>665.0</ele><time>2026-05-02T08:43:14.167Z</time></trkpt><trkpt lat="43.6205004" lon="12.7549564"><ele>666.0</ele><time>2026-05-02T08:43:15.168Z</time></trkpt><trkpt lat="43.6205199" lon="12.7550558"><ele>667.0</ele><time>2026-05-02T08:43:16.169Z</time></trkpt><trkpt lat="43.620478" lon="12.755161"><ele>668.0</ele><time>2026-05-02T08:43:18.164Z</time></trkpt><trkpt lat="43.6203476" lon="12.7550967"><ele>669.0</ele><time>2026-05-02T08:43:20.174Z</time></trkpt><trkpt lat="43.6202522" lon="12.7549818"><ele>669.0</ele><time>2026-05-02T08:43:21.162Z</time></trkpt><trkpt lat="43.6201523" lon="12.7548294"><ele>669.0</ele><time>2026-05-02T08:43:22.17Z</time></trkpt><trkpt lat="43.6200498" lon="12.7546538"><ele>669.0</ele><time>2026-05-02T08:43:23.165Z</time></trkpt><trkpt lat="43.6199573" lon="12.7544943"><ele>669.0</ele><time>2026-05-02T08:43:24.166Z</time></trkpt><trkpt lat="43.6198776" lon="12.7543728"><ele>669.0</ele><time>2026-05-02T08:43:25.167Z</time></trkpt><trkpt lat="43.6198095" lon="12.7542903"><ele>669.0</ele><time>2026-05-02T08:43:26.17Z</time></trkpt><trkpt lat="43.6197384" lon="12.7542291"><ele>669.0</ele><time>2026-05-02T08:43:27.179Z</time></trkpt><trkpt lat="43.6196608" lon="12.7542212"><ele>669.0</ele><time>2026-05-02T08:43:28.18Z</time></trkpt><trkpt lat="43.6195691" lon="12.7542798"><ele>668.5</ele><time>2026-05-02T08:43:29.173Z</time></trkpt><trkpt lat="43.6194814" lon="12.7543815"><ele>668.0</ele><time>2026-05-02T08:43:30.172Z</time></trkpt><trkpt lat="43.6193947" lon="12.7544962"><ele>667.5</ele><time>2026-05-02T08:43:31.172Z</time></trkpt><trkpt lat="43.6193" lon="12.7546116"><ele>667.0</ele><time>2026-05-02T08:43:32.172Z</time></trkpt><trkpt lat="43.6192078" lon="12.7547127"><ele>667.0</ele><time>2026-05-02T08:43:33.171Z</time></trkpt><trkpt lat="43.6191271" lon="12.7547872"><ele>667.0</ele><time>2026-05-02T08:43:34.17Z</time></trkpt><trkpt lat="43.619053" lon="12.7548414"><ele>667.0</ele><time>2026-05-02T08:43:35.172Z</time></trkpt><trkpt lat="43.6189837" lon="12.7548754"><ele>667.0</ele><time>2026-05-02T08:43:36.18Z</time></trkpt><trkpt lat="43.6189076" lon="12.7549027"><ele>667.0</ele><time>2026-05-02T08:43:37.174Z</time></trkpt><trkpt lat="43.6188162" lon="12.754934"><ele>667.0</ele><time>2026-05-02T08:43:38.179Z</time></trkpt><trkpt lat="43.618726" lon="12.7549695"><ele>668.5</ele><time>2026-05-02T08:43:39.175Z</time></trkpt><trkpt lat="43.618641" lon="12.7550095"><ele>670.0</ele><time>2026-05-02T08:43:40.176Z</time></trkpt><trkpt lat="43.6185601" lon="12.7550513"><ele>671.5</ele><time>2026-05-02T08:43:41.18Z</time></trkpt><trkpt lat="43.6184884" lon="12.7550909"><ele>673.0</ele><time>2026-05-02T08:43:42.175Z</time></trkpt><trkpt lat="43.6184147" lon="12.7551398"><ele>674.5</ele><time>2026-05-02T08:43:43.179Z</time></trkpt><trkpt lat="43.6183437" lon="12.7551967"><ele>676.0</ele><time>2026-05-02T08:43:44.178Z</time></trkpt><trkpt lat="43.6182675" lon="12.7552672"><ele>676.0</ele><time>2026-05-02T08:43:45.179Z</time></trkpt><trkpt lat="43.6181909" lon="12.7553551"><ele>676.0</ele><time>2026-05-02T08:43:46.174Z</time></trkpt><trkpt lat="43.6181183" lon="12.7554509"><ele>676.0</ele><time>2026-05-02T08:43:47.179Z</time></trkpt><trkpt lat="43.6180437" lon="12.7555473"><ele>676.0</ele><time>2026-05-02T08:43:48.18Z</time></trkpt><trkpt lat="43.6179595" lon="12.7556473"><ele>676.0</ele><time>2026-05-02T08:43:49.178Z</time></trkpt><trkpt lat="43.617873" lon="12.7557498"><ele>675.5</ele><time>2026-05-02T08:43:50.18Z</time></trkpt><trkpt lat="43.6177885" lon="12.7558609"><ele>675.0</ele><time>2026-05-02T08:43:51.179Z</time></trkpt><trkpt lat="43.6177045" lon="12.7559803"><ele>674.5</ele><time>2026-05-02T08:43:52.181Z</time></trkpt><trkpt lat="43.6176184" lon="12.7561069"><ele>674.0</ele><time>2026-05-02T08:43:53.181Z</time></trkpt><trkpt lat="43.6175358" lon="12.7562481"><ele>674.0</ele><time>2026-05-02T08:43:54.182Z</time></trkpt><trkpt lat="43.6174601" lon="12.7564005"><ele>674.0</ele><time>2026-05-02T08:43:55.188Z</time></trkpt><trkpt lat="43.6173896" lon="12.7565608"><ele>674.0</ele><time>2026-05-02T08:43:56.181Z</time></trkpt><trkpt lat="43.6173181" lon="12.7567287"><ele>674.0</ele><time>2026-05-02T08:43:57.181Z</time></trkpt><trkpt lat="43.6172516" lon="12.7568943"><ele>677.75</ele><time>2026-05-02T08:43:58.192Z</time></trkpt><trkpt lat="43.6171892" lon="12.757061"><ele>681.5</ele><time>2026-05-02T08:43:59.182Z</time></trkpt><trkpt lat="43.6171349" lon="12.7571946"><ele>685.25</ele><time>2026-05-02T08:44:00.182Z</time></trkpt><trkpt lat="43.6170734" lon="12.7573032"><ele>689.0</ele><time>2026-05-02T08:44:01.187Z</time></trkpt><trkpt lat="43.6170065" lon="12.7574113"><ele>684.8000000000001</ele><time>2026-05-02T08:44:02.179Z</time></trkpt><trkpt lat="43.6169484" lon="12.7575304"><ele>680.6</ele><time>2026-05-02T08:44:03.182Z</time></trkpt><trkpt lat="43.6169054" lon="12.7576652"><ele>676.4</ele><time>2026-05-02T08:44:04.187Z</time></trkpt><trkpt lat="43.6168692" lon="12.7578148"><ele>672.2</ele><time>2026-05-02T08:44:05.185Z</time></trkpt><trkpt lat="43.6168545" lon="12.7579668"><ele>668.0</ele><time>2026-05-02T08:44:06.184Z</time></trkpt><trkpt lat="43.6168302" lon="12.7581094"><ele>668.0</ele><time>2026-05-02T08:44:07.188Z</time></trkpt><trkpt lat="43.6168062" lon="12.7582541"><ele>668.0</ele><time>2026-05-02T08:44:08.182Z</time></trkpt><trkpt lat="43.6167896" lon="12.7583963"><ele>668.0</ele><time>2026-05-02T08:44:09.183Z</time></trkpt><trkpt lat="43.6167816" lon="12.7585477"><ele>668.0</ele><time>2026-05-02T08:44:10.183Z</time></trkpt><trkpt lat="43.6167811" lon="12.7587103"><ele>668.0</ele><time>2026-05-02T08:44:11.179Z</time></trkpt><trkpt lat="43.6167895" lon="12.7588859"><ele>667.0</ele><time>2026-05-02T08:44:12.183Z</time></trkpt><trkpt lat="43.6168104" lon="12.7590749"><ele>666.0</ele><time>2026-05-02T08:44:13.18Z</time></trkpt><trkpt lat="43.6168382" lon="12.7592695"><ele>665.0</ele><time>2026-05-02T08:44:14.182Z</time></trkpt><trkpt lat="43.6168718" lon="12.759468"><ele>664.0</ele><time>2026-05-02T08:44:15.183Z</time></trkpt><trkpt lat="43.6169125" lon="12.7596463"><ele>663.6666666666667</ele><time>2026-05-02T08:44:16.181Z</time></trkpt><trkpt lat="43.616955" lon="12.7597911"><ele>663.3333333333334</ele><time>2026-05-02T08:44:17.167Z</time></trkpt><trkpt lat="43.6169776" lon="12.7599192"><ele>663.0</ele><time>2026-05-02T08:44:18.189Z</time></trkpt><trkpt lat="43.617012" lon="12.7600296"><ele>662.6666666666666</ele><time>2026-05-02T08:44:19.165Z</time></trkpt><trkpt lat="43.6170365" lon="12.7601282"><ele>662.3333333333333</ele><time>2026-05-02T08:44:20.173Z</time></trkpt><trkpt lat="43.6170493" lon="12.7602195"><ele>662.0</ele><time>2026-05-02T08:44:21.17Z</time></trkpt><trkpt lat="43.6170596" lon="12.7603787"><ele>664.3333333333333</ele><time>2026-05-02T08:44:23.162Z</time></trkpt><trkpt lat="43.6170631" lon="12.7605038"><ele>666.6666666666666</ele><time>2026-05-02T08:44:25.16Z</time></trkpt><trkpt lat="43.617025" lon="12.7605842"><ele>669.0</ele><time>2026-05-02T08:44:27.163Z</time></trkpt><trkpt lat="43.6169218" lon="12.7606241"><ele>671.3333333333334</ele><time>2026-05-02T08:44:29.163Z</time></trkpt><trkpt lat="43.616854" lon="12.7606399"><ele>673.6666666666667</ele><time>2026-05-02T08:44:30.164Z</time></trkpt><trkpt lat="43.6167763" lon="12.7606593"><ele>676.0</ele><time>2026-05-02T08:44:31.167Z</time></trkpt><trkpt lat="43.616683" lon="12.7606851"><ele>676.0</ele><time>2026-05-02T08:44:32.167Z</time></trkpt><trkpt lat="43.6165822" lon="12.7607168"><ele>676.0</ele><time>2026-05-02T08:44:33.165Z</time></trkpt><trkpt lat="43.6164776" lon="12.7607589"><ele>676.0</ele><time>2026-05-02T08:44:34.16Z</time></trkpt><trkpt lat="43.6163657" lon="12.7608211"><ele>676.0</ele><time>2026-05-02T08:44:35.171Z</time></trkpt><trkpt lat="43.6162559" lon="12.7608959"><ele>676.0</ele><time>2026-05-02T08:44:36.173Z</time></trkpt><trkpt lat="43.6161544" lon="12.7609845"><ele>676.0</ele><time>2026-05-02T08:44:37.174Z</time></trkpt><trkpt lat="43.616067" lon="12.761078"><ele>676.0</ele><time>2026-05-02T08:44:38.179Z</time></trkpt><trkpt lat="43.6159911" lon="12.7611912"><ele>676.0</ele><time>2026-05-02T08:44:39.177Z</time></trkpt><trkpt lat="43.6159182" lon="12.7613311"><ele>677.5</ele><time>2026-05-02T08:44:40.184Z</time></trkpt><trkpt lat="43.615847" lon="12.761498"><ele>679.0</ele><time>2026-05-02T08:44:41.179Z</time></trkpt><trkpt lat="43.6157678" lon="12.7616716"><ele>680.5</ele><time>2026-05-02T08:44:42.177Z</time></trkpt><trkpt lat="43.6156848" lon="12.7618361"><ele>682.0</ele><time>2026-05-02T08:44:43.179Z</time></trkpt><trkpt lat="43.615599" lon="12.7619887"><ele>682.0</ele><time>2026-05-02T08:44:44.176Z</time></trkpt><trkpt lat="43.6155266" lon="12.7621124"><ele>682.0</ele><time>2026-05-02T08:44:45.182Z</time></trkpt><trkpt lat="43.6154559" lon="12.7622451"><ele>682.0</ele><time>2026-05-02T08:44:46.169Z</time></trkpt><trkpt lat="43.6153788" lon="12.7623825"><ele>682.0</ele><time>2026-05-02T08:44:47.182Z</time></trkpt><trkpt lat="43.6153028" lon="12.7625275"><ele>676.6</ele><time>2026-05-02T08:44:48.177Z</time></trkpt><trkpt lat="43.6152174" lon="12.7626556"><ele>671.2</ele><time>2026-05-02T08:44:49.18Z</time></trkpt><trkpt lat="43.615153" lon="12.7627818"><ele>665.8</ele><time>2026-05-02T08:44:50.183Z</time></trkpt><trkpt lat="43.6150911" lon="12.7628927"><ele>660.4</ele><time>2026-05-02T08:44:51.175Z</time></trkpt><trkpt lat="43.6150311" lon="12.7629955"><ele>655.0</ele><time>2026-05-02T08:44:52.184Z</time></trkpt><trkpt lat="43.6149756" lon="12.763091"><ele>655.0</ele><time>2026-05-02T08:44:53.185Z</time></trkpt><trkpt lat="43.6149275" lon="12.7631818"><ele>655.0</ele><time>2026-05-02T08:44:54.181Z</time></trkpt><trkpt lat="43.6148819" lon="12.7632736"><ele>655.0</ele><time>2026-05-02T08:44:55.188Z</time></trkpt><trkpt lat="43.6148405" lon="12.7633712"><ele>655.0</ele><time>2026-05-02T08:44:56.188Z</time></trkpt><trkpt lat="43.6148089" lon="12.7634748"><ele>655.0</ele><time>2026-05-02T08:44:57.176Z</time></trkpt><trkpt lat="43.6147845" lon="12.7635741"><ele>655.0</ele><time>2026-05-02T08:44:58.19Z</time></trkpt><trkpt lat="43.6147845" lon="12.7636729"><ele>651.3333333333334</ele><time>2026-05-02T08:44:59.188Z</time></trkpt><trkpt lat="43.6148226" lon="12.7637553"><ele>647.6666666666667</ele><time>2026-05-02T08:45:00.187Z</time></trkpt><trkpt lat="43.6148782" lon="12.7638014"><ele>644.0</ele><time>2026-05-02T08:45:01.19Z</time></trkpt><trkpt lat="43.6149682" lon="12.763844"><ele>640.3333333333334</ele><time>2026-05-02T08:45:03.182Z</time></trkpt><trkpt lat="43.6148562" lon="12.7638856"><ele>636.6666666666666</ele><time>2026-05-02T08:45:07.175Z</time></trkpt><trkpt lat="43.6147835" lon="12.7638592"><ele>633.0</ele><time>2026-05-02T08:45:08.177Z</time></trkpt><trkpt lat="43.6147122" lon="12.7638206"><ele>633.0</ele><time>2026-05-02T08:45:09.178Z</time></trkpt><trkpt lat="43.6146474" lon="12.7637773"><ele>633.0</ele><time>2026-05-02T08:45:10.178Z</time></trkpt><trkpt lat="43.6145921" lon="12.7637297"><ele>633.0</ele><time>2026-05-02T08:45:11.181Z</time></trkpt><trkpt lat="43.6145416" lon="12.7636618"><ele>633.0</ele><time>2026-05-02T08:45:12.171Z</time></trkpt><trkpt lat="43.6145104" lon="12.7635776"><ele>633.0</ele><time>2026-05-02T08:45:13.186Z</time></trkpt><trkpt lat="43.6145105" lon="12.7634787"><ele>633.0</ele><time>2026-05-02T08:45:14.177Z</time></trkpt><trkpt lat="43.6145331" lon="12.7633686"><ele>633.0</ele><time>2026-05-02T08:45:15.188Z</time></trkpt><trkpt lat="43.614575" lon="12.7632533"><ele>636.6666666666666</ele><time>2026-05-02T08:45:16.194Z</time></trkpt><trkpt lat="43.6146187" lon="12.7631392"><ele>640.3333333333334</ele><time>2026-05-02T08:45:17.185Z</time></trkpt><trkpt lat="43.6146591" lon="12.7630357"><ele>644.0</ele><time>2026-05-02T08:45:18.187Z</time></trkpt><trkpt lat="43.6146867" lon="12.7629475"><ele>647.6666666666667</ele><time>2026-05-02T08:45:19.18Z</time></trkpt><trkpt lat="43.6147147" lon="12.7628175"><ele>651.3333333333334</ele><time>2026-05-02T08:45:21.187Z</time></trkpt><trkpt lat="43.6146858" lon="12.762726"><ele>655.0</ele><time>2026-05-02T08:45:23.178Z</time></trkpt><trkpt lat="43.6146129" lon="12.7627451"><ele>655.0</ele><time>2026-05-02T08:45:25.188Z</time></trkpt><trkpt lat="43.6145237" lon="12.7628716"><ele>655.0</ele><time>2026-05-02T08:45:27.185Z</time></trkpt><trkpt lat="43.6144736" lon="12.7629691"><ele>655.0</ele><time>2026-05-02T08:45:28.185Z</time></trkpt><trkpt lat="43.6144214" lon="12.7630643"><ele>655.0</ele><time>2026-05-02T08:45:29.183Z</time></trkpt><trkpt lat="43.6143626" lon="12.7631582"><ele>655.0</ele><time>2026-05-02T08:45:30.187Z</time></trkpt><trkpt lat="43.6142998" lon="12.7632512"><ele>651.0</ele><time>2026-05-02T08:45:31.19Z</time></trkpt><trkpt lat="43.6142318" lon="12.7633352"><ele>647.0</ele><time>2026-05-02T08:45:32.187Z</time></trkpt><trkpt lat="43.6141704" lon="12.763411"><ele>643.0</ele><time>2026-05-02T08:45:33.188Z</time></trkpt><trkpt lat="43.6141131" lon="12.7634833"><ele>639.0</ele><time>2026-05-02T08:45:34.188Z</time></trkpt><trkpt lat="43.6140567" lon="12.7635533"><ele>635.0</ele><time>2026-05-02T08:45:35.187Z</time></trkpt><trkpt lat="43.6140118" lon="12.7636202"><ele>631.0</ele><time>2026-05-02T08:45:36.184Z</time></trkpt><trkpt lat="43.6139308" lon="12.7637022"><ele>631.0</ele><time>2026-05-02T08:45:38.189Z</time></trkpt><trkpt lat="43.6138464" lon="12.7636369"><ele>631.0</ele><time>2026-05-02T08:45:40.188Z</time></trkpt><trkpt lat="43.6138101" lon="12.763562"><ele>631.0</ele><time>2026-05-02T08:45:41.195Z</time></trkpt><trkpt lat="43.6137931" lon="12.7634587"><ele>631.0</ele><time>2026-05-02T08:45:42.184Z</time></trkpt><trkpt lat="43.6137915" lon="12.7633478"><ele>631.0</ele><time>2026-05-02T08:45:43.188Z</time></trkpt><trkpt lat="43.6137932" lon="12.7632226"><ele>631.0</ele><time>2026-05-02T08:45:44.188Z</time></trkpt><trkpt lat="43.6137983" lon="12.76308"><ele>631.0</ele><time>2026-05-02T08:45:45.184Z</time></trkpt><trkpt lat="43.6138046" lon="12.7629199"><ele>631.0</ele><time>2026-05-02T08:45:46.182Z</time></trkpt><trkpt lat="43.6138128" lon="12.7627508"><ele>631.0</ele><time>2026-05-02T08:45:47.188Z</time></trkpt><trkpt lat="43.6138246" lon="12.7625795"><ele>631.0</ele><time>2026-05-02T08:45:48.179Z</time></trkpt><trkpt lat="43.6138323" lon="12.7624168"><ele>629.75</ele><time>2026-05-02T08:45:49.175Z</time></trkpt><trkpt lat="43.6138544" lon="12.762262"><ele>628.5</ele><time>2026-05-02T08:45:50.183Z</time></trkpt><trkpt lat="43.6138838" lon="12.7621096"><ele>627.25</ele><time>2026-05-02T08:45:51.178Z</time></trkpt><trkpt lat="43.6139166" lon="12.7619591"><ele>626.0</ele><time>2026-05-02T08:45:52.186Z</time></trkpt><trkpt lat="43.6139641" lon="12.7618124"><ele>622.6</ele><time>2026-05-02T08:45:53.179Z</time></trkpt><trkpt lat="43.6140172" lon="12.7616686"><ele>619.2</ele><time>2026-05-02T08:45:54.179Z</time></trkpt><trkpt lat="43.614072" lon="12.7615331"><ele>615.8</ele><time>2026-05-02T08:45:55.178Z</time></trkpt><trkpt lat="43.614116" lon="12.76141"><ele>612.4</ele><time>2026-05-02T08:45:56.174Z</time></trkpt><trkpt lat="43.6141586" lon="12.7612919"><ele>609.0</ele><time>2026-05-02T08:45:57.177Z</time></trkpt><trkpt lat="43.6141774" lon="12.7611644"><ele>609.0</ele><time>2026-05-02T08:45:58.176Z</time></trkpt><trkpt lat="43.6142017" lon="12.7610448"><ele>609.0</ele><time>2026-05-02T08:45:59.177Z</time></trkpt><trkpt lat="43.614238" lon="12.7609262"><ele>609.0</ele><time>2026-05-02T08:46:00.178Z</time></trkpt><trkpt lat="43.6142663" lon="12.7608031"><ele>609.0</ele><time>2026-05-02T08:46:01.18Z</time></trkpt><trkpt lat="43.6142873" lon="12.7606611"><ele>609.0</ele><time>2026-05-02T08:46:02.176Z</time></trkpt><trkpt lat="43.614311" lon="12.7605157"><ele>605.5</ele><time>2026-05-02T08:46:03.18Z</time></trkpt><trkpt lat="43.6143414" lon="12.7603742"><ele>602.0</ele><time>2026-05-02T08:46:04.173Z</time></trkpt><trkpt lat="43.6143558" lon="12.760221"><ele>598.5</ele><time>2026-05-02T08:46:05.173Z</time></trkpt><trkpt lat="43.6143443" lon="12.7600517"><ele>595.0</ele><time>2026-05-02T08:46:06.182Z</time></trkpt><trkpt lat="43.6143073" lon="12.7598497"><ele>593.6666666666667</ele><time>2026-05-02T08:46:07.184Z</time></trkpt><trkpt lat="43.6142603" lon="12.7596371"><ele>592.3333333333334</ele><time>2026-05-02T08:46:08.184Z</time></trkpt><trkpt lat="43.614202" lon="12.759426"><ele>591.0</ele><time>2026-05-02T08:46:09.183Z</time></trkpt><trkpt lat="43.6141331" lon="12.7592363"><ele>591.0</ele><time>2026-05-02T08:46:10.183Z</time></trkpt><trkpt lat="43.6140722" lon="12.7590848"><ele>591.0</ele><time>2026-05-02T08:46:11.191Z</time></trkpt><trkpt lat="43.6139981" lon="12.7589479"><ele>591.0</ele><time>2026-05-02T08:46:12.176Z</time></trkpt><trkpt lat="43.6138996" lon="12.7588388"><ele>591.0</ele><time>2026-05-02T08:46:13.178Z</time></trkpt><trkpt lat="43.6138091" lon="12.7587634"><ele>591.0</ele><time>2026-05-02T08:46:14.179Z</time></trkpt><trkpt lat="43.6137301" lon="12.7586933"><ele>591.0</ele><time>2026-05-02T08:46:15.184Z</time></trkpt><trkpt lat="43.6136545" lon="12.7586378"><ele>591.0</ele><time>2026-05-02T08:46:16.18Z</time></trkpt><trkpt lat="43.613576" lon="12.7586016"><ele>591.0</ele><time>2026-05-02T08:46:17.181Z</time></trkpt><trkpt lat="43.6134823" lon="12.758586"><ele>591.0</ele><time>2026-05-02T08:46:18.196Z</time></trkpt><trkpt lat="43.6133586" lon="12.7585953"><ele>588.75</ele><time>2026-05-02T08:46:19.18Z</time></trkpt><trkpt lat="43.6132189" lon="12.7586049"><ele>586.5</ele><time>2026-05-02T08:46:20.192Z</time></trkpt><trkpt lat="43.6130721" lon="12.7586147"><ele>584.25</ele><time>2026-05-02T08:46:21.191Z</time></trkpt><trkpt lat="43.6129163" lon="12.758651"><ele>582.0</ele><time>2026-05-02T08:46:22.18Z</time></trkpt><trkpt lat="43.6127511" lon="12.7587056"><ele>582.0</ele><time>2026-05-02T08:46:23.186Z</time></trkpt><trkpt lat="43.6125887" lon="12.7587864"><ele>582.0</ele><time>2026-05-02T08:46:24.185Z</time></trkpt><trkpt lat="43.6124548" lon="12.7588263"><ele>582.0</ele><time>2026-05-02T08:46:25.184Z</time></trkpt><trkpt lat="43.6123072" lon="12.7588402"><ele>582.0</ele><time>2026-05-02T08:46:26.18Z</time></trkpt><trkpt lat="43.6121495" lon="12.7588459"><ele>582.0</ele><time>2026-05-02T08:46:27.183Z</time></trkpt><trkpt lat="43.6119843" lon="12.7588496"><ele>582.0</ele><time>2026-05-02T08:46:28.184Z</time></trkpt><trkpt lat="43.6118224" lon="12.7588899"><ele>582.6666666666666</ele><time>2026-05-02T08:46:29.181Z</time></trkpt><trkpt lat="43.6116798" lon="12.7589562"><ele>583.3333333333333</ele><time>2026-05-02T08:46:30.183Z</time></trkpt><trkpt lat="43.6115255" lon="12.7590553"><ele>584.0</ele><time>2026-05-02T08:46:31.185Z</time></trkpt><trkpt lat="43.6113844" lon="12.7591267"><ele>584.0</ele><time>2026-05-02T08:46:32.182Z</time></trkpt><trkpt lat="43.611238" lon="12.7591646"><ele>584.0</ele><time>2026-05-02T08:46:33.184Z</time></trkpt><trkpt lat="43.6110776" lon="12.7591926"><ele>584.0</ele><time>2026-05-02T08:46:34.182Z</time></trkpt><trkpt lat="43.6109234" lon="12.7592262"><ele>582.0</ele><time>2026-05-02T08:46:35.179Z</time></trkpt><trkpt lat="43.6107792" lon="12.7592653"><ele>580.0</ele><time>2026-05-02T08:46:36.181Z</time></trkpt><trkpt lat="43.6106394" lon="12.7593391"><ele>578.0</ele><time>2026-05-02T08:46:37.178Z</time></trkpt><trkpt lat="43.6104945" lon="12.759446"><ele>578.0</ele><time>2026-05-02T08:46:38.18Z</time></trkpt><trkpt lat="43.6103702" lon="12.759542"><ele>578.0</ele><time>2026-05-02T08:46:39.176Z</time></trkpt><trkpt lat="43.6102687" lon="12.7596065"><ele>578.0</ele><time>2026-05-02T08:46:40.18Z</time></trkpt><trkpt lat="43.6101623" lon="12.7596515"><ele>578.0</ele><time>2026-05-02T08:46:41.175Z</time></trkpt><trkpt lat="43.6100524" lon="12.759672"><ele>580.25</ele><time>2026-05-02T08:46:42.182Z</time></trkpt><trkpt lat="43.6099371" lon="12.759652"><ele>582.5</ele><time>2026-05-02T08:46:43.178Z</time></trkpt><trkpt lat="43.6098051" lon="12.7596211"><ele>584.75</ele><time>2026-05-02T08:46:44.172Z</time></trkpt><trkpt lat="43.6096636" lon="12.759574"><ele>587.0</ele><time>2026-05-02T08:46:45.179Z</time></trkpt><trkpt lat="43.609508" lon="12.7595271"><ele>587.2</ele><time>2026-05-02T08:46:46.181Z</time></trkpt><trkpt lat="43.6093654" lon="12.7594814"><ele>587.4000000000001</ele><time>2026-05-02T08:46:47.18Z</time></trkpt><trkpt lat="43.6092627" lon="12.7594389"><ele>587.5999999999999</ele><time>2026-05-02T08:46:48.186Z</time></trkpt><trkpt lat="43.6091957" lon="12.7593984"><ele>587.8</ele><time>2026-05-02T08:46:49.174Z</time></trkpt><trkpt lat="43.6091547" lon="12.7593318"><ele>588.0</ele><time>2026-05-02T08:46:50.179Z</time></trkpt><trkpt lat="43.6091412" lon="12.759239"><ele>593.75</ele><time>2026-05-02T08:46:51.179Z</time></trkpt><trkpt lat="43.6091436" lon="12.7591331"><ele>599.5</ele><time>2026-05-02T08:46:52.179Z</time></trkpt><trkpt lat="43.6091802" lon="12.7589886"><ele>605.25</ele><time>2026-05-02T08:46:53.18Z</time></trkpt><trkpt lat="43.6092231" lon="12.7588086"><ele>611.0</ele><time>2026-05-02T08:46:54.186Z</time></trkpt><trkpt lat="43.6092603" lon="12.7586304"><ele>612.2</ele><time>2026-05-02T08:46:55.182Z</time></trkpt><trkpt lat="43.6092774" lon="12.7584577"><ele>613.4000000000001</ele><time>2026-05-02T08:46:56.187Z</time></trkpt><trkpt lat="43.6092756" lon="12.7582983"><ele>614.6</ele><time>2026-05-02T08:46:57.19Z</time></trkpt><trkpt lat="43.6092518" lon="12.7581614"><ele>615.8000000000001</ele><time>2026-05-02T08:46:58.189Z</time></trkpt><trkpt lat="43.6092003" lon="12.7580544"><ele>617.0</ele><time>2026-05-02T08:46:59.18Z</time></trkpt><trkpt lat="43.6091356" lon="12.7579715"><ele>617.0</ele><time>2026-05-02T08:47:00.188Z</time></trkpt><trkpt lat="43.6090646" lon="12.7579378"><ele>617.0</ele><time>2026-05-02T08:47:01.188Z</time></trkpt><trkpt lat="43.6089701" lon="12.7579539"><ele>617.0</ele><time>2026-05-02T08:47:02.185Z</time></trkpt><trkpt lat="43.6088772" lon="12.7579842"><ele>617.0</ele><time>2026-05-02T08:47:03.184Z</time></trkpt><trkpt lat="43.6087826" lon="12.7580041"><ele>617.0</ele><time>2026-05-02T08:47:04.188Z</time></trkpt><trkpt lat="43.6086934" lon="12.7580235"><ele>613.6</ele><time>2026-05-02T08:47:05.183Z</time></trkpt><trkpt lat="43.6086122" lon="12.7580591"><ele>610.2</ele><time>2026-05-02T08:47:06.175Z</time></trkpt><trkpt lat="43.608554" lon="12.7581033"><ele>606.8</ele><time>2026-05-02T08:47:07.179Z</time></trkpt><trkpt lat="43.6084626" lon="12.7582039"><ele>603.4</ele><time>2026-05-02T08:47:09.184Z</time></trkpt><trkpt lat="43.6083664" lon="12.758241"><ele>600.0</ele><time>2026-05-02T08:47:11.192Z</time></trkpt><trkpt lat="43.6082848" lon="12.7581156"><ele>600.0</ele><time>2026-05-02T08:47:13.181Z</time></trkpt><trkpt lat="43.6082748" lon="12.7579552"><ele>600.0</ele><time>2026-05-02T08:47:15.186Z</time></trkpt><trkpt lat="43.6083084" lon="12.757876"><ele>600.0</ele><time>2026-05-02T08:47:16.181Z</time></trkpt><trkpt lat="43.6083592" lon="12.7578016"><ele>600.0</ele><time>2026-05-02T08:47:17.18Z</time></trkpt><trkpt lat="43.6084104" lon="12.7577256"><ele>600.0</ele><time>2026-05-02T08:47:18.178Z</time></trkpt><trkpt lat="43.6084725" lon="12.7576633"><ele>600.0</ele><time>2026-05-02T08:47:19.18Z</time></trkpt><trkpt lat="43.6085342" lon="12.7575951"><ele>599.8333333333334</ele><time>2026-05-02T08:47:20.174Z</time></trkpt><trkpt lat="43.608603" lon="12.7575382"><ele>599.6666666666666</ele><time>2026-05-02T08:47:21.17Z</time></trkpt><trkpt lat="43.6086695" lon="12.7574721"><ele>599.5</ele><time>2026-05-02T08:47:22.177Z</time></trkpt><trkpt lat="43.6087371" lon="12.7573992"><ele>599.3333333333333</ele><time>2026-05-02T08:47:23.175Z</time></trkpt><trkpt lat="43.6087939" lon="12.7573263"><ele>599.1666666666666</ele><time>2026-05-02T08:47:24.173Z</time></trkpt><trkpt lat="43.6088447" lon="12.7572412"><ele>599.0</ele><time>2026-05-02T08:47:25.176Z</time></trkpt><trkpt lat="43.6088833" lon="12.757151"><ele>599.1666666666666</ele><time>2026-05-02T08:47:26.172Z</time></trkpt><trkpt lat="43.6089105" lon="12.7570449"><ele>599.3333333333333</ele><time>2026-05-02T08:47:27.176Z</time></trkpt><trkpt lat="43.6089352" lon="12.756929"><ele>599.5</ele><time>2026-05-02T08:47:28.175Z</time></trkpt><trkpt lat="43.6089635" lon="12.7568234"><ele>599.6666666666666</ele><time>2026-05-02T08:47:29.176Z</time></trkpt><trkpt lat="43.6090047" lon="12.7567155"><ele>599.8333333333334</ele><time>2026-05-02T08:47:30.176Z</time></trkpt><trkpt lat="43.6090448" lon="12.7566106"><ele>600.0</ele><time>2026-05-02T08:47:31.171Z</time></trkpt><trkpt lat="43.6090827" lon="12.7564917"><ele>600.0</ele><time>2026-05-02T08:47:32.171Z</time></trkpt><trkpt lat="43.6091056" lon="12.7563478"><ele>600.0</ele><time>2026-05-02T08:47:33.172Z</time></trkpt><trkpt lat="43.6091029" lon="12.7561892"><ele>600.0</ele><time>2026-05-02T08:47:34.175Z</time></trkpt><trkpt lat="43.609085" lon="12.7560327"><ele>600.0</ele><time>2026-05-02T08:47:35.176Z</time></trkpt><trkpt lat="43.6090769" lon="12.7558682"><ele>599.5</ele><time>2026-05-02T08:47:36.17Z</time></trkpt><trkpt lat="43.6090828" lon="12.7557065"><ele>599.0</ele><time>2026-05-02T08:47:37.173Z</time></trkpt><trkpt lat="43.6090982" lon="12.7555315"><ele>598.5</ele><time>2026-05-02T08:47:38.17Z</time></trkpt><trkpt lat="43.60912" lon="12.7553467"><ele>598.0</ele><time>2026-05-02T08:47:39.171Z</time></trkpt><trkpt lat="43.6091422" lon="12.7551567"><ele>596.6</ele><time>2026-05-02T08:47:40.164Z</time></trkpt><trkpt lat="43.6091608" lon="12.7549712"><ele>595.1999999999999</ele><time>2026-05-02T08:47:41.17Z</time></trkpt><trkpt lat="43.6091764" lon="12.7548063"><ele>593.8</ele><time>2026-05-02T08:47:42.172Z</time></trkpt><trkpt lat="43.6091953" lon="12.7546651"><ele>592.4</ele><time>2026-05-02T08:47:43.165Z</time></trkpt><trkpt lat="43.6091978" lon="12.7545449"><ele>591.0</ele><time>2026-05-02T08:47:44.189Z</time></trkpt><trkpt lat="43.6091792" lon="12.7544401"><ele>590.0</ele><time>2026-05-02T08:47:45.194Z</time></trkpt><trkpt lat="43.609132" lon="12.7543533"><ele>589.0</ele><time>2026-05-02T08:47:46.186Z</time></trkpt><trkpt lat="43.6090559" lon="12.7542543"><ele>588.0</ele><time>2026-05-02T08:47:47.189Z</time></trkpt><trkpt lat="43.6089749" lon="12.754165"><ele>587.0</ele><time>2026-05-02T08:47:48.192Z</time></trkpt><trkpt lat="43.6088928" lon="12.7540925"><ele>586.0</ele><time>2026-05-02T08:47:49.195Z</time></trkpt><trkpt lat="43.6088094" lon="12.7540403"><ele>586.0</ele><time>2026-05-02T08:47:50.2Z</time></trkpt><trkpt lat="43.6087138" lon="12.7540147"><ele>586.0</ele><time>2026-05-02T08:47:51.202Z</time></trkpt><trkpt lat="43.6085972" lon="12.7540145"><ele>586.0</ele><time>2026-05-02T08:47:52.205Z</time></trkpt><trkpt lat="43.6084821" lon="12.7540255"><ele>586.0</ele><time>2026-05-02T08:47:53.207Z</time></trkpt><trkpt lat="43.6083736" lon="12.7540567"><ele>586.0</ele><time>2026-05-02T08:47:54.198Z</time></trkpt><trkpt lat="43.6082789" lon="12.754096"><ele>583.6666666666667</ele><time>2026-05-02T08:47:55.19Z</time></trkpt><trkpt lat="43.6082142" lon="12.7541258"><ele>581.3333333333334</ele><time>2026-05-02T08:47:56.194Z</time></trkpt><trkpt lat="43.6081325" lon="12.7541266"><ele>579.0</ele><time>2026-05-02T08:47:58.196Z</time></trkpt><trkpt lat="43.6081044" lon="12.7539777"><ele>576.6666666666666</ele><time>2026-05-02T08:48:00.184Z</time></trkpt><trkpt lat="43.6081297" lon="12.7538759"><ele>574.3333333333333</ele><time>2026-05-02T08:48:01.185Z</time></trkpt><trkpt lat="43.6081843" lon="12.7537741"><ele>572.0</ele><time>2026-05-02T08:48:02.181Z</time></trkpt><trkpt lat="43.6082529" lon="12.7536838"><ele>572.0</ele><time>2026-05-02T08:48:03.189Z</time></trkpt><trkpt lat="43.608341" lon="12.7536201"><ele>572.0</ele><time>2026-05-02T08:48:04.185Z</time></trkpt><trkpt lat="43.6084513" lon="12.753566"><ele>572.0</ele><time>2026-05-02T08:48:05.182Z</time></trkpt><trkpt lat="43.6085784" lon="12.7534935"><ele>572.0</ele><time>2026-05-02T08:48:06.174Z</time></trkpt><trkpt lat="43.6087055" lon="12.7534055"><ele>571.0</ele><time>2026-05-02T08:48:07.179Z</time></trkpt><trkpt lat="43.6088248" lon="12.7533142"><ele>570.0</ele><time>2026-05-02T08:48:08.178Z</time></trkpt><trkpt lat="43.60893" lon="12.7532262"><ele>569.0</ele><time>2026-05-02T08:48:09.175Z</time></trkpt><trkpt lat="43.6090189" lon="12.7531493"><ele>568.0</ele><time>2026-05-02T08:48:10.18Z</time></trkpt><trkpt lat="43.6090887" lon="12.7530765"><ele>568.0</ele><time>2026-05-02T08:48:11.179Z</time></trkpt><trkpt lat="43.6091461" lon="12.7529785"><ele>568.0</ele><time>2026-05-02T08:48:12.174Z</time></trkpt><trkpt lat="43.6091894" lon="12.7528621"><ele>568.0</ele><time>2026-05-02T08:48:13.185Z</time></trkpt><trkpt lat="43.6092033" lon="12.752741"><ele>568.0</ele><time>2026-05-02T08:48:14.171Z</time></trkpt><trkpt lat="43.6092068" lon="12.7526316"><ele>568.0</ele><time>2026-05-02T08:48:15.185Z</time></trkpt><trkpt lat="43.6091817" lon="12.7525168"><ele>568.0</ele><time>2026-05-02T08:48:16.18Z</time></trkpt><trkpt lat="43.6091248" lon="12.7523732"><ele>564.6666666666667</ele><time>2026-05-02T08:48:17.174Z</time></trkpt><trkpt lat="43.6090557" lon="12.7522107"><ele>561.3333333333334</ele><time>2026-05-02T08:48:18.187Z</time></trkpt><trkpt lat="43.6089627" lon="12.7520284"><ele>558.0</ele><time>2026-05-02T08:48:19.181Z</time></trkpt><trkpt lat="43.6088582" lon="12.7518528"><ele>557.25</ele><time>2026-05-02T08:48:20.192Z</time></trkpt><trkpt lat="43.6087606" lon="12.7516919"><ele>556.5</ele><time>2026-05-02T08:48:21.191Z</time></trkpt><trkpt lat="43.6086805" lon="12.7515657"><ele>555.75</ele><time>2026-05-02T08:48:22.184Z</time></trkpt><trkpt lat="43.6086215" lon="12.7514586"><ele>555.0</ele><time>2026-05-02T08:48:23.194Z</time></trkpt><trkpt lat="43.6085648" lon="12.7513625"><ele>553.8571428571429</ele><time>2026-05-02T08:48:24.191Z</time></trkpt><trkpt lat="43.6085069" lon="12.7512688"><ele>552.7142857142858</ele><time>2026-05-02T08:48:25.194Z</time></trkpt><trkpt lat="43.6084469" lon="12.7511826"><ele>551.5714285714286</ele><time>2026-05-02T08:48:26.191Z</time></trkpt><trkpt lat="43.6084077" lon="12.7511028"><ele>550.4285714285714</ele><time>2026-05-02T08:48:27.198Z</time></trkpt><trkpt lat="43.6083654" lon="12.751028"><ele>549.2857142857142</ele><time>2026-05-02T08:48:28.198Z</time></trkpt><trkpt lat="43.6083195" lon="12.7509607"><ele>548.1428571428571</ele><time>2026-05-02T08:48:29.187Z</time></trkpt><trkpt lat="43.6082646" lon="12.7509065"><ele>547.0</ele><time>2026-05-02T08:48:30.196Z</time></trkpt><trkpt lat="43.6081457" lon="12.750965"><ele>547.0</ele><time>2026-05-02T08:48:32.192Z</time></trkpt><trkpt lat="43.608071" lon="12.7510449"><ele>547.0</ele><time>2026-05-02T08:48:33.186Z</time></trkpt><trkpt lat="43.6079825" lon="12.7511013"><ele>547.0</ele><time>2026-05-02T08:48:34.182Z</time></trkpt><trkpt lat="43.6078729" lon="12.7511522"><ele>547.0</ele><time>2026-05-02T08:48:35.187Z</time></trkpt><trkpt lat="43.6077574" lon="12.7511732"><ele>547.0</ele><time>2026-05-02T08:48:36.189Z</time></trkpt><trkpt lat="43.6076343" lon="12.7511678"><ele>543.5</ele><time>2026-05-02T08:48:37.187Z</time></trkpt><trkpt lat="43.6075181" lon="12.7511406"><ele>540.0</ele><time>2026-05-02T08:48:38.202Z</time></trkpt><trkpt lat="43.6074081" lon="12.7510924"><ele>536.5</ele><time>2026-05-02T08:48:39.186Z</time></trkpt><trkpt lat="43.6073051" lon="12.7510334"><ele>533.0</ele><time>2026-05-02T08:48:40.19Z</time></trkpt><trkpt lat="43.607212" lon="12.7509626"><ele>532.3333333333333</ele><time>2026-05-02T08:48:41.193Z</time></trkpt><trkpt lat="43.6071477" lon="12.7508803"><ele>531.6666666666666</ele><time>2026-05-02T08:48:42.19Z</time></trkpt><trkpt lat="43.6071134" lon="12.7507859"><ele>531.0</ele><time>2026-05-02T08:48:43.201Z</time></trkpt><trkpt lat="43.6071432" lon="12.7506582"><ele>530.3333333333334</ele><time>2026-05-02T08:48:45.183Z</time></trkpt><trkpt lat="43.6071108" lon="12.7505411"><ele>529.6666666666667</ele><time>2026-05-02T08:48:48.201Z</time></trkpt><trkpt lat="43.6070325" lon="12.7505417"><ele>529.0</ele><time>2026-05-02T08:48:49.192Z</time></trkpt><trkpt lat="43.6069147" lon="12.7505739"><ele>528.25</ele><time>2026-05-02T08:48:50.19Z</time></trkpt><trkpt lat="43.6067683" lon="12.7506142"><ele>527.5</ele><time>2026-05-02T08:48:51.186Z</time></trkpt><trkpt lat="43.6066253" lon="12.7506374"><ele>526.75</ele><time>2026-05-02T08:48:52.188Z</time></trkpt><trkpt lat="43.6064827" lon="12.7506606"><ele>526.0</ele><time>2026-05-02T08:48:53.183Z</time></trkpt><trkpt lat="43.6063405" lon="12.7506969"><ele>526.0</ele><time>2026-05-02T08:48:54.175Z</time></trkpt><trkpt lat="43.6062239" lon="12.750734"><ele>526.0</ele><time>2026-05-02T08:48:55.19Z</time></trkpt><trkpt lat="43.6061471" lon="12.7507748"><ele>526.0</ele><time>2026-05-02T08:48:56.19Z</time></trkpt><trkpt lat="43.6060339" lon="12.7508158"><ele>526.0</ele><time>2026-05-02T08:48:58.188Z</time></trkpt><trkpt lat="43.6059132" lon="12.7507535"><ele>526.0</ele><time>2026-05-02T08:49:00.185Z</time></trkpt><trkpt lat="43.6058474" lon="12.7506774"><ele>523.25</ele><time>2026-05-02T08:49:01.198Z</time></trkpt><trkpt lat="43.6057893" lon="12.7505494"><ele>520.5</ele><time>2026-05-02T08:49:02.187Z</time></trkpt><trkpt lat="43.6057469" lon="12.7503973"><ele>517.75</ele><time>2026-05-02T08:49:03.183Z</time></trkpt><trkpt lat="43.6057105" lon="12.7502402"><ele>515.0</ele><time>2026-05-02T08:49:04.186Z</time></trkpt><trkpt lat="43.6056653" lon="12.7500841"><ele>513.0</ele><time>2026-05-02T08:49:05.184Z</time></trkpt><trkpt lat="43.6056149" lon="12.7499457"><ele>511.0</ele><time>2026-05-02T08:49:06.186Z</time></trkpt><trkpt lat="43.6055664" lon="12.749827"><ele>509.0</ele><time>2026-05-02T08:49:07.191Z</time></trkpt><trkpt lat="43.6055226" lon="12.7497115"><ele>507.0</ele><time>2026-05-02T08:49:08.185Z</time></trkpt><trkpt lat="43.6054856" lon="12.7496114"><ele>505.0</ele><time>2026-05-02T08:49:09.181Z</time></trkpt><trkpt lat="43.6054484" lon="12.7495211"><ele>505.00000000000006</ele><time>2026-05-02T08:49:10.186Z</time></trkpt><trkpt lat="43.6054116" lon="12.7494201"><ele>505.0</ele><time>2026-05-02T08:49:11.188Z</time></trkpt><trkpt lat="43.6053994" lon="12.7493116"><ele>505.0</ele><time>2026-05-02T08:49:12.182Z</time></trkpt><trkpt lat="43.6053954" lon="12.749201"><ele>505.0</ele><time>2026-05-02T08:49:13.185Z</time></trkpt><trkpt lat="43.6054037" lon="12.7490698"><ele>505.00000000000006</ele><time>2026-05-02T08:49:14.182Z</time></trkpt><trkpt lat="43.6054176" lon="12.7489236"><ele>505.0</ele><time>2026-05-02T08:49:15.19Z</time></trkpt><trkpt lat="43.6054257" lon="12.74877"><ele>505.8</ele><time>2026-05-02T08:49:16.183Z</time></trkpt><trkpt lat="43.6054186" lon="12.748619"><ele>506.6</ele><time>2026-05-02T08:49:17.189Z</time></trkpt><trkpt lat="43.6053957" lon="12.7484872"><ele>507.4</ele><time>2026-05-02T08:49:18.186Z</time></trkpt><trkpt lat="43.6053633" lon="12.7483728"><ele>508.2</ele><time>2026-05-02T08:49:19.187Z</time></trkpt><trkpt lat="43.605323" lon="12.7482752"><ele>509.0</ele><time>2026-05-02T08:49:20.194Z</time></trkpt><trkpt lat="43.6052607" lon="12.7482192"><ele>509.0</ele><time>2026-05-02T08:49:21.196Z</time></trkpt><trkpt lat="43.6051819" lon="12.7482025"><ele>509.0</ele><time>2026-05-02T08:49:22.199Z</time></trkpt><trkpt lat="43.6050824" lon="12.748212"><ele>509.0</ele><time>2026-05-02T08:49:23.198Z</time></trkpt><trkpt lat="43.6049496" lon="12.7482497"><ele>509.0</ele><time>2026-05-02T08:49:24.189Z</time></trkpt><trkpt lat="43.6048079" lon="12.7482873"><ele>509.0</ele><time>2026-05-02T08:49:25.195Z</time></trkpt><trkpt lat="43.6046643" lon="12.7483056"><ele>509.0</ele><time>2026-05-02T08:49:26.192Z</time></trkpt><trkpt lat="43.6045265" lon="12.7483229"><ele>509.0</ele><time>2026-05-02T08:49:27.189Z</time></trkpt><trkpt lat="43.6044126" lon="12.748354"><ele>509.0</ele><time>2026-05-02T08:49:28.19Z</time></trkpt><trkpt lat="43.6043056" lon="12.7483897"><ele>507.6</ele><time>2026-05-02T08:49:29.186Z</time></trkpt><trkpt lat="43.6042237" lon="12.74846"><ele>506.2</ele><time>2026-05-02T08:49:30.197Z</time></trkpt><trkpt lat="43.6041509" lon="12.7485835"><ele>504.80000000000007</ele><time>2026-05-02T08:49:31.184Z</time></trkpt><trkpt lat="43.6041021" lon="12.7487129"><ele>503.40000000000003</ele><time>2026-05-02T08:49:32.179Z</time></trkpt><trkpt lat="43.6040636" lon="12.7488334"><ele>502.0</ele><time>2026-05-02T08:49:33.188Z</time></trkpt><trkpt lat="43.6040276" lon="12.7489356"><ele>500.1666666666667</ele><time>2026-05-02T08:49:34.187Z</time></trkpt><trkpt lat="43.6039887" lon="12.749022"><ele>498.33333333333337</ele><time>2026-05-02T08:49:35.186Z</time></trkpt><trkpt lat="43.6039466" lon="12.7490907"><ele>496.5</ele><time>2026-05-02T08:49:36.186Z</time></trkpt><trkpt lat="43.6038246" lon="12.7491256"><ele>494.66666666666663</ele><time>2026-05-02T08:49:38.191Z</time></trkpt><trkpt lat="43.6037497" lon="12.7490749"><ele>492.8333333333333</ele><time>2026-05-02T08:49:39.188Z</time></trkpt><trkpt lat="43.6036861" lon="12.7490029"><ele>491.0</ele><time>2026-05-02T08:49:40.196Z</time></trkpt><trkpt lat="43.6036389" lon="12.7489024"><ele>489.20000000000005</ele><time>2026-05-02T08:49:41.196Z</time></trkpt><trkpt lat="43.6035677" lon="12.748784"><ele>487.40000000000003</ele><time>2026-05-02T08:49:42.186Z</time></trkpt><trkpt lat="43.603479" lon="12.7487044"><ele>485.6</ele><time>2026-05-02T08:49:43.183Z</time></trkpt><trkpt lat="43.6033664" lon="12.7486457"><ele>483.8</ele><time>2026-05-02T08:49:44.173Z</time></trkpt><trkpt lat="43.603263" lon="12.7486029"><ele>482.0</ele><time>2026-05-02T08:49:45.186Z</time></trkpt><trkpt lat="43.603163" lon="12.7485602"><ele>481.16666666666663</ele><time>2026-05-02T08:49:46.177Z</time></trkpt><trkpt lat="43.6030791" lon="12.7485164"><ele>480.3333333333333</ele><time>2026-05-02T08:49:47.177Z</time></trkpt><trkpt lat="43.6030105" lon="12.7484643"><ele>479.5</ele><time>2026-05-02T08:49:48.192Z</time></trkpt><trkpt lat="43.6029583" lon="12.7483987"><ele>478.66666666666663</ele><time>2026-05-02T08:49:49.183Z</time></trkpt><trkpt lat="43.6029208" lon="12.7483216"><ele>477.8333333333333</ele><time>2026-05-02T08:49:50.182Z</time></trkpt><trkpt lat="43.6028407" lon="12.748216"><ele>477.0</ele><time>2026-05-02T08:49:52.192Z</time></trkpt><trkpt lat="43.6027287" lon="12.7482487"><ele>477.0</ele><time>2026-05-02T08:49:54.182Z</time></trkpt><trkpt lat="43.6026567" lon="12.7482939"><ele>477.00000000000006</ele><time>2026-05-02T08:49:55.182Z</time></trkpt><trkpt lat="43.6025836" lon="12.7483429"><ele>477.00000000000006</ele><time>2026-05-02T08:49:56.178Z</time></trkpt><trkpt lat="43.6024979" lon="12.7483949"><ele>477.0</ele><time>2026-05-02T08:49:57.178Z</time></trkpt><trkpt lat="43.6024056" lon="12.7484459"><ele>477.0</ele><time>2026-05-02T08:49:58.179Z</time></trkpt><trkpt lat="43.6023127" lon="12.7484808"><ele>477.0</ele><time>2026-05-02T08:49:59.178Z</time></trkpt><trkpt lat="43.6022181" lon="12.7485005"><ele>477.0</ele><time>2026-05-02T08:50:00.172Z</time></trkpt><trkpt lat="43.6021291" lon="12.7485153"><ele>477.0</ele><time>2026-05-02T08:50:01.177Z</time></trkpt><trkpt lat="43.6020448" lon="12.7485287"><ele>477.0</ele><time>2026-05-02T08:50:02.172Z</time></trkpt><trkpt lat="43.6019696" lon="12.7485523"><ele>477.0</ele><time>2026-05-02T08:50:03.177Z</time></trkpt><trkpt lat="43.6019123" lon="12.7486035"><ele>477.0</ele><time>2026-05-02T08:50:04.168Z</time></trkpt><trkpt lat="43.601859" lon="12.7486906"><ele>476.5</ele><time>2026-05-02T08:50:05.17Z</time></trkpt><trkpt lat="43.6017934" lon="12.7488034"><ele>476.0</ele><time>2026-05-02T08:50:06.171Z</time></trkpt><trkpt lat="43.6017178" lon="12.7489407"><ele>475.5</ele><time>2026-05-02T08:50:07.168Z</time></trkpt><trkpt lat="43.6016504" lon="12.7490911"><ele>475.0</ele><time>2026-05-02T08:50:08.172Z</time></trkpt><trkpt lat="43.6016026" lon="12.7492464"><ele>473.6</ele><time>2026-05-02T08:50:09.171Z</time></trkpt><trkpt lat="43.6015575" lon="12.7493851"><ele>472.2</ele><time>2026-05-02T08:50:10.161Z</time></trkpt><trkpt lat="43.6014997" lon="12.7495188"><ele>470.79999999999995</ele><time>2026-05-02T08:50:11.16Z</time></trkpt><trkpt lat="43.6014481" lon="12.7496503"><ele>469.4</ele><time>2026-05-02T08:50:12.163Z</time></trkpt><trkpt lat="43.6014141" lon="12.7497793"><ele>468.0</ele><time>2026-05-02T08:50:13.16Z</time></trkpt><trkpt lat="43.601407" lon="12.7499007"><ele>468.0</ele><time>2026-05-02T08:50:14.16Z</time></trkpt><trkpt lat="43.6014052" lon="12.7500213"><ele>467.99999999999994</ele><time>2026-05-02T08:50:15.166Z</time></trkpt><trkpt lat="43.6013994" lon="12.7501214"><ele>467.99999999999994</ele><time>2026-05-02T08:50:16.177Z</time></trkpt><trkpt lat="43.6013476" lon="12.7502419"><ele>468.0</ele><time>2026-05-02T08:50:18.185Z</time></trkpt><trkpt lat="43.6012325" lon="12.7503033"><ele>468.0</ele><time>2026-05-02T08:50:20.192Z</time></trkpt><trkpt lat="43.6011484" lon="12.7503295"><ele>468.59999999999997</ele><time>2026-05-02T08:50:21.188Z</time></trkpt><trkpt lat="43.6010587" lon="12.7503545"><ele>469.19999999999993</ele><time>2026-05-02T08:50:22.189Z</time></trkpt><trkpt lat="43.6009593" lon="12.7503782"><ele>469.8</ele><time>2026-05-02T08:50:23.185Z</time></trkpt><trkpt lat="43.6008521" lon="12.7503962"><ele>470.4</ele><time>2026-05-02T08:50:24.188Z</time></trkpt><trkpt lat="43.6007413" lon="12.7504193"><ele>471.0</ele><time>2026-05-02T08:50:25.187Z</time></trkpt><trkpt lat="43.600631" lon="12.7504412"><ele>471.0</ele><time>2026-05-02T08:50:26.186Z</time></trkpt><trkpt lat="43.600525" lon="12.7504642"><ele>471.0</ele><time>2026-05-02T08:50:27.186Z</time></trkpt><trkpt lat="43.6004217" lon="12.750489"><ele>471.0</ele><time>2026-05-02T08:50:28.189Z</time></trkpt><trkpt lat="43.600316" lon="12.7505159"><ele>471.0</ele><time>2026-05-02T08:50:29.192Z</time></trkpt><trkpt lat="43.6002112" lon="12.7505401"><ele>471.0</ele><time>2026-05-02T08:50:30.187Z</time></trkpt><trkpt lat="43.6001118" lon="12.7505581"><ele>473.6</ele><time>2026-05-02T08:50:31.19Z</time></trkpt><trkpt lat="43.6000133" lon="12.75057"><ele>476.20000000000005</ele><time>2026-05-02T08:50:32.183Z</time></trkpt><trkpt lat="43.5999196" lon="12.7505872"><ele>478.79999999999995</ele><time>2026-05-02T08:50:33.188Z</time></trkpt><trkpt lat="43.5998368" lon="12.7506439"><ele>481.4</ele><time>2026-05-02T08:50:34.184Z</time></trkpt><trkpt lat="43.5997716" lon="12.7507475"><ele>484.0</ele><time>2026-05-02T08:50:35.177Z</time></trkpt><trkpt lat="43.5997122" lon="12.7508625"><ele>484.0</ele><time>2026-05-02T08:50:36.182Z</time></trkpt><trkpt lat="43.5996571" lon="12.75098"><ele>484.0</ele><time>2026-05-02T08:50:37.184Z</time></trkpt><trkpt lat="43.5996058" lon="12.7510931"><ele>484.0</ele><time>2026-05-02T08:50:38.184Z</time></trkpt><trkpt lat="43.5995678" lon="12.7512133"><ele>484.0</ele><time>2026-05-02T08:50:39.179Z</time></trkpt><trkpt lat="43.5995497" lon="12.7513375"><ele>484.0</ele><time>2026-05-02T08:50:40.181Z</time></trkpt><trkpt lat="43.5995315" lon="12.751448"><ele>484.0</ele><time>2026-05-02T08:50:41.187Z</time></trkpt><trkpt lat="43.5994962" lon="12.7515604"><ele>484.0</ele><time>2026-05-02T08:50:43.192Z</time></trkpt><trkpt lat="43.5993888" lon="12.7515579"><ele>484.0</ele><time>2026-05-02T08:50:46.184Z</time></trkpt><trkpt lat="43.5992803" lon="12.7514665"><ele>484.0</ele><time>2026-05-02T08:50:48.191Z</time></trkpt><trkpt lat="43.5992254" lon="12.7514036"><ele>484.0</ele><time>2026-05-02T08:50:49.197Z</time></trkpt><trkpt lat="43.599168" lon="12.7513368"><ele>484.00000000000006</ele><time>2026-05-02T08:50:50.187Z</time></trkpt><trkpt lat="43.5991188" lon="12.751268"><ele>484.0</ele><time>2026-05-02T08:50:51.187Z</time></trkpt><trkpt lat="43.5991019" lon="12.7511247"><ele>484.0</ele><time>2026-05-02T08:50:53.194Z</time></trkpt><trkpt lat="43.5991474" lon="12.7510547"><ele>484.0</ele><time>2026-05-02T08:50:54.188Z</time></trkpt><trkpt lat="43.5991926" lon="12.7509532"><ele>484.00000000000006</ele><time>2026-05-02T08:50:55.192Z</time></trkpt><trkpt lat="43.5992357" lon="12.7508553"><ele>484.0</ele><time>2026-05-02T08:50:56.19Z</time></trkpt><trkpt lat="43.5992741" lon="12.750759"><ele>485.83333333333337</ele><time>2026-05-02T08:50:57.191Z</time></trkpt><trkpt lat="43.5992922" lon="12.7506718"><ele>487.6666666666667</ele><time>2026-05-02T08:50:58.192Z</time></trkpt><trkpt lat="43.5993021" lon="12.7505764"><ele>489.5</ele><time>2026-05-02T08:50:59.192Z</time></trkpt><trkpt lat="43.5993183" lon="12.7504746"><ele>491.33333333333337</ele><time>2026-05-02T08:51:00.195Z</time></trkpt><trkpt lat="43.5993391" lon="12.7503884"><ele>493.1666666666667</ele><time>2026-05-02T08:51:01.19Z</time></trkpt><trkpt lat="43.5993832" lon="12.750223"><ele>495.0</ele><time>2026-05-02T08:51:03.184Z</time></trkpt><trkpt lat="43.5994086" lon="12.750112"><ele>498.2</ele><time>2026-05-02T08:51:04.185Z</time></trkpt><trkpt lat="43.5994382" lon="12.7499821"><ele>501.4</ele><time>2026-05-02T08:51:05.185Z</time></trkpt><trkpt lat="43.5994552" lon="12.7498553"><ele>504.6</ele><time>2026-05-02T08:51:06.178Z</time></trkpt><trkpt lat="43.5994623" lon="12.7497498"><ele>507.8</ele><time>2026-05-02T08:51:07.175Z</time></trkpt><trkpt lat="43.5994315" lon="12.7496381"><ele>511.0</ele><time>2026-05-02T08:51:09.175Z</time></trkpt><trkpt lat="43.5993351" lon="12.7498139"><ele>511.0</ele><time>2026-05-02T08:51:11.171Z</time></trkpt><trkpt lat="43.5992623" lon="12.7499305"><ele>511.0</ele><time>2026-05-02T08:51:12.176Z</time></trkpt><trkpt lat="43.5991826" lon="12.7499966"><ele>511.0</ele><time>2026-05-02T08:51:13.183Z</time></trkpt><trkpt lat="43.5991052" lon="12.7500138"><ele>511.0</ele><time>2026-05-02T08:51:14.188Z</time></trkpt><trkpt lat="43.5990175" lon="12.7499765"><ele>511.0</ele><time>2026-05-02T08:51:15.188Z</time></trkpt><trkpt lat="43.5989236" lon="12.7499181"><ele>511.00000000000006</ele><time>2026-05-02T08:51:16.191Z</time></trkpt><trkpt lat="43.5988467" lon="12.7498659"><ele>511.0</ele><time>2026-05-02T08:51:17.179Z</time></trkpt><trkpt lat="43.5987788" lon="12.7498073"><ele>511.0</ele><time>2026-05-02T08:51:18.182Z</time></trkpt><trkpt lat="43.5987172" lon="12.7497329"><ele>511.0</ele><time>2026-05-02T08:51:19.183Z</time></trkpt><trkpt lat="43.5986523" lon="12.7496425"><ele>511.00000000000006</ele><time>2026-05-02T08:51:20.192Z</time></trkpt><trkpt lat="43.598586" lon="12.7495485"><ele>511.0</ele><time>2026-05-02T08:51:21.185Z</time></trkpt><trkpt lat="43.5985298" lon="12.7494616"><ele>515.6</ele><time>2026-05-02T08:51:22.191Z</time></trkpt><trkpt lat="43.5984914" lon="12.7493708"><ele>520.2</ele><time>2026-05-02T08:51:23.182Z</time></trkpt><trkpt lat="43.5984633" lon="12.749282"><ele>524.8</ele><time>2026-05-02T08:51:24.184Z</time></trkpt><trkpt lat="43.5983835" lon="12.7491978"><ele>529.4</ele><time>2026-05-02T08:51:26.188Z</time></trkpt><trkpt lat="43.5982711" lon="12.7493031"><ele>534.0</ele><time>2026-05-02T08:51:28.185Z</time></trkpt><trkpt lat="43.5982042" lon="12.7493553"><ele>534.0</ele><time>2026-05-02T08:51:29.186Z</time></trkpt><trkpt lat="43.5981363" lon="12.7493791"><ele>534.0</ele><time>2026-05-02T08:51:30.179Z</time></trkpt><trkpt lat="43.598058" lon="12.749393"><ele>534.0</ele><time>2026-05-02T08:51:31.186Z</time></trkpt><trkpt lat="43.5979812" lon="12.7493893"><ele>534.0</ele><time>2026-05-02T08:51:32.18Z</time></trkpt><trkpt lat="43.5978769" lon="12.7493555"><ele>534.0</ele><time>2026-05-02T08:51:34.184Z</time></trkpt><trkpt lat="43.597805" lon="12.7492583"><ele>534.0</ele><time>2026-05-02T08:51:36.186Z</time></trkpt><trkpt lat="43.5977302" lon="12.7491244"><ele>533.3333333333334</ele><time>2026-05-02T08:51:38.183Z</time></trkpt><trkpt lat="43.5976998" lon="12.7490402"><ele>532.6666666666666</ele><time>2026-05-02T08:51:39.184Z</time></trkpt><trkpt lat="43.5976693" lon="12.7489424"><ele>532.0</ele><time>2026-05-02T08:51:40.186Z</time></trkpt><trkpt lat="43.5976415" lon="12.7488431"><ele>531.3333333333333</ele><time>2026-05-02T08:51:41.181Z</time></trkpt><trkpt lat="43.5975987" lon="12.7487149"><ele>530.6666666666666</ele><time>2026-05-02T08:51:43.182Z</time></trkpt><trkpt lat="43.5975743" lon="12.7486263"><ele>530.0</ele><time>2026-05-02T08:51:45.187Z</time></trkpt><trkpt lat="43.5975431" lon="12.748542"><ele>531.5714285714286</ele><time>2026-05-02T08:51:47.185Z</time></trkpt><trkpt lat="43.5974935" lon="12.748443"><ele>533.1428571428571</ele><time>2026-05-02T08:51:49.189Z</time></trkpt><trkpt lat="43.5974466" lon="12.7483844"><ele>534.7142857142858</ele><time>2026-05-02T08:52:00.188Z</time></trkpt><trkpt lat="43.5974341" lon="12.7482844"><ele>536.2857142857142</ele><time>2026-05-02T08:52:07.181Z</time></trkpt><trkpt lat="43.5974104" lon="12.748199"><ele>537.8571428571429</ele><time>2026-05-02T08:55:04.299Z</time></trkpt><trkpt lat="43.5973844" lon="12.7481174"><ele>539.4285714285714</ele><time>2026-05-02T08:55:14.207Z</time></trkpt><trkpt lat="43.5973432" lon="12.7480367"><ele>541.0</ele><time>2026-05-02T08:55:41.214Z</time></trkpt><trkpt lat="43.597351" lon="12.7479364"><ele>541.0</ele><time>2026-05-02T08:55:46.207Z</time></trkpt><trkpt lat="43.597325" lon="12.7478521"><ele>541.0</ele><time>2026-05-02T08:56:05.208Z</time></trkpt><trkpt lat="43.5973456" lon="12.7477303"><ele>541.0</ele><time>2026-05-02T08:59:13.232Z</time></trkpt><trkpt lat="43.597363" lon="12.7476252"><ele>541.0</ele><time>2026-05-02T08:59:15.233Z</time></trkpt><trkpt lat="43.5973922" lon="12.747505"><ele>541.0</ele><time>2026-05-02T08:59:17.231Z</time></trkpt><trkpt lat="43.5974213" lon="12.7473772"><ele>541.0</ele><time>2026-05-02T08:59:19.233Z</time></trkpt><trkpt lat="43.5974502" lon="12.7472535"><ele>542.1666666666667</ele><time>2026-05-02T08:59:21.23Z</time></trkpt><trkpt lat="43.5974877" lon="12.7471339"><ele>543.3333333333334</ele><time>2026-05-02T08:59:23.227Z</time></trkpt><trkpt lat="43.5975248" lon="12.7470326"><ele>544.5</ele><time>2026-05-02T08:59:25.222Z</time></trkpt><trkpt lat="43.5975629" lon="12.746933"><ele>545.6666666666666</ele><time>2026-05-02T08:59:27.232Z</time></trkpt><trkpt lat="43.5976104" lon="12.7468385"><ele>546.8333333333333</ele><time>2026-05-02T08:59:29.233Z</time></trkpt><trkpt lat="43.5976374" lon="12.7467425"><ele>548.0</ele><time>2026-05-02T08:59:31.228Z</time></trkpt><trkpt lat="43.597573" lon="12.7466474"><ele>549.8</ele><time>2026-05-02T08:59:34.238Z</time></trkpt><trkpt lat="43.5974894" lon="12.7465894"><ele>551.5999999999999</ele><time>2026-05-02T08:59:36.229Z</time></trkpt><trkpt lat="43.5973965" lon="12.7465293"><ele>553.4000000000001</ele><time>2026-05-02T08:59:38.226Z</time></trkpt><trkpt lat="43.5972992" lon="12.7464372"><ele>555.2</ele><time>2026-05-02T08:59:40.229Z</time></trkpt><trkpt lat="43.597247" lon="12.7463695"><ele>557.0</ele><time>2026-05-02T08:59:41.227Z</time></trkpt><trkpt lat="43.5971459" lon="12.7462801"><ele>557.0</ele><time>2026-05-02T08:59:43.224Z</time></trkpt><trkpt lat="43.5970448" lon="12.7462463"><ele>557.0</ele><time>2026-05-02T08:59:45.215Z</time></trkpt><trkpt lat="43.5969424" lon="12.7462707"><ele>557.0</ele><time>2026-05-02T08:59:47.211Z</time></trkpt><trkpt lat="43.5968273" lon="12.7463581"><ele>557.0</ele><time>2026-05-02T08:59:49.214Z</time></trkpt><trkpt lat="43.5967553" lon="12.7464089"><ele>557.0</ele><time>2026-05-02T08:59:50.212Z</time></trkpt><trkpt lat="43.5966864" lon="12.7464633"><ele>558.6</ele><time>2026-05-02T08:59:51.205Z</time></trkpt><trkpt lat="43.5966069" lon="12.7465149"><ele>560.2</ele><time>2026-05-02T08:59:52.212Z</time></trkpt><trkpt lat="43.5965243" lon="12.7465703"><ele>561.8</ele><time>2026-05-02T08:59:53.207Z</time></trkpt><trkpt lat="43.5964416" lon="12.7466357"><ele>563.4</ele><time>2026-05-02T08:59:54.212Z</time></trkpt><trkpt lat="43.596365" lon="12.7467009"><ele>565.0</ele><time>2026-05-02T08:59:55.198Z</time></trkpt><trkpt lat="43.5962924" lon="12.7467628"><ele>565.0</ele><time>2026-05-02T08:59:56.18Z</time></trkpt><trkpt lat="43.5962255" lon="12.7468072"><ele>565.0</ele><time>2026-05-02T08:59:57.182Z</time></trkpt><trkpt lat="43.5961522" lon="12.7468213"><ele>565.0</ele><time>2026-05-02T08:59:58.214Z</time></trkpt><trkpt lat="43.5960726" lon="12.7468369"><ele>565.0</ele><time>2026-05-02T09:00:00.199Z</time></trkpt><trkpt lat="43.5960141" lon="12.7467991"><ele>565.0</ele><time>2026-05-02T09:00:37.191Z</time></trkpt><trkpt lat="43.5958922" lon="12.74682"><ele>565.0</ele><time>2026-05-02T09:00:39.19Z</time></trkpt><trkpt lat="43.5958153" lon="12.7468524"><ele>565.3333333333334</ele><time>2026-05-02T09:00:40.191Z</time></trkpt><trkpt lat="43.5957173" lon="12.7468614"><ele>565.6666666666667</ele><time>2026-05-02T09:00:41.194Z</time></trkpt><trkpt lat="43.5956328" lon="12.7468857"><ele>566.0</ele><time>2026-05-02T09:00:42.2Z</time></trkpt><trkpt lat="43.5955575" lon="12.746913"><ele>566.3333333333334</ele><time>2026-05-02T09:00:43.201Z</time></trkpt><trkpt lat="43.5954796" lon="12.7469649"><ele>566.6666666666666</ele><time>2026-05-02T09:00:44.199Z</time></trkpt><trkpt lat="43.5954047" lon="12.7470083"><ele>567.0</ele><time>2026-05-02T09:00:45.201Z</time></trkpt><trkpt lat="43.5953322" lon="12.7470493"><ele>569.0</ele><time>2026-05-02T09:00:46.2Z</time></trkpt><trkpt lat="43.5952639" lon="12.747085"><ele>571.0</ele><time>2026-05-02T09:00:47.197Z</time></trkpt><trkpt lat="43.5952011" lon="12.7471018"><ele>573.0</ele><time>2026-05-02T09:00:48.211Z</time></trkpt><trkpt lat="43.5951283" lon="12.7471145"><ele>575.0</ele><time>2026-05-02T09:00:50.211Z</time></trkpt><trkpt lat="43.5951332" lon="12.7470224"><ele>577.0</ele><time>2026-05-02T09:01:05.205Z</time></trkpt><trkpt lat="43.5951663" lon="12.7469118"><ele>579.0</ele><time>2026-05-02T09:01:07.207Z</time></trkpt><trkpt lat="43.5952081" lon="12.7468178"><ele>581.0</ele><time>2026-05-02T09:01:08.214Z</time></trkpt><trkpt lat="43.5952727" lon="12.746706"><ele>581.25</ele><time>2026-05-02T09:01:09.213Z</time></trkpt><trkpt lat="43.5953535" lon="12.7466013"><ele>581.5</ele><time>2026-05-02T09:01:10.21Z</time></trkpt><trkpt lat="43.5954305" lon="12.7464913"><ele>581.75</ele><time>2026-05-02T09:01:11.204Z</time></trkpt><trkpt lat="43.5955109" lon="12.7463692"><ele>582.0</ele><time>2026-05-02T09:01:12.206Z</time></trkpt><trkpt lat="43.5955969" lon="12.7462453"><ele>582.0</ele><time>2026-05-02T09:01:13.205Z</time></trkpt><trkpt lat="43.5956728" lon="12.7461253"><ele>582.0</ele><time>2026-05-02T09:01:14.207Z</time></trkpt><trkpt lat="43.5957308" lon="12.7459897"><ele>582.0</ele><time>2026-05-02T09:01:15.211Z</time></trkpt><trkpt lat="43.5957619" lon="12.7458504"><ele>582.0</ele><time>2026-05-02T09:01:16.208Z</time></trkpt><trkpt lat="43.5957565" lon="12.745698"><ele>582.0</ele><time>2026-05-02T09:01:17.202Z</time></trkpt><trkpt lat="43.5957363" lon="12.745555"><ele>584.6666666666666</ele><time>2026-05-02T09:01:18.208Z</time></trkpt><trkpt lat="43.5957196" lon="12.7454232"><ele>587.3333333333334</ele><time>2026-05-02T09:01:19.206Z</time></trkpt><trkpt lat="43.5957242" lon="12.7453209"><ele>590.0</ele><time>2026-05-02T09:01:20.207Z</time></trkpt><trkpt lat="43.5957506" lon="12.745218"><ele>592.6666666666667</ele><time>2026-05-02T09:01:21.203Z</time></trkpt><trkpt lat="43.5957793" lon="12.7451027"><ele>595.3333333333334</ele><time>2026-05-02T09:01:22.204Z</time></trkpt><trkpt lat="43.5957836" lon="12.7449858"><ele>598.0</ele><time>2026-05-02T09:01:23.203Z</time></trkpt><trkpt lat="43.595761" lon="12.7448598"><ele>600.4</ele><time>2026-05-02T09:01:24.21Z</time></trkpt><trkpt lat="43.595725" lon="12.7447218"><ele>602.8</ele><time>2026-05-02T09:01:25.207Z</time></trkpt><trkpt lat="43.5956788" lon="12.744588"><ele>605.2</ele><time>2026-05-02T09:01:26.21Z</time></trkpt><trkpt lat="43.5956303" lon="12.7444425"><ele>607.6</ele><time>2026-05-02T09:01:27.212Z</time></trkpt><trkpt lat="43.5955748" lon="12.7443143"><ele>610.0</ele><time>2026-05-02T09:01:28.205Z</time></trkpt><trkpt lat="43.5955111" lon="12.7442064"><ele>610.5</ele><time>2026-05-02T09:01:29.211Z</time></trkpt><trkpt lat="43.5954365" lon="12.7441134"><ele>611.0</ele><time>2026-05-02T09:01:30.213Z</time></trkpt><trkpt lat="43.5953569" lon="12.7440372"><ele>611.5</ele><time>2026-05-02T09:01:31.213Z</time></trkpt><trkpt lat="43.5952806" lon="12.7439961"><ele>612.0</ele><time>2026-05-02T09:01:32.211Z</time></trkpt><trkpt lat="43.5952158" lon="12.7440051"><ele>612.5</ele><time>2026-05-02T09:01:33.213Z</time></trkpt><trkpt lat="43.5951658" lon="12.7440708"><ele>613.0</ele><time>2026-05-02T09:01:54.265Z</time></trkpt><trkpt lat="43.5950741" lon="12.7440906"><ele>611.1999999999999</ele><time>2026-05-02T09:01:56.203Z</time></trkpt><trkpt lat="43.5949939" lon="12.7441171"><ele>609.4</ele><time>2026-05-02T09:01:57.209Z</time></trkpt><trkpt lat="43.5949021" lon="12.7441457"><ele>607.5999999999999</ele><time>2026-05-02T09:01:58.213Z</time></trkpt><trkpt lat="43.5947984" lon="12.7441775"><ele>605.8</ele><time>2026-05-02T09:01:59.203Z</time></trkpt><trkpt lat="43.5946883" lon="12.7442166"><ele>604.0</ele><time>2026-05-02T09:02:00.214Z</time></trkpt><trkpt lat="43.5945822" lon="12.7442621"><ele>602.5</ele><time>2026-05-02T09:02:01.203Z</time></trkpt><trkpt lat="43.5944831" lon="12.7443054"><ele>601.0</ele><time>2026-05-02T09:02:02.202Z</time></trkpt><trkpt lat="43.5943994" lon="12.7443311"><ele>599.5</ele><time>2026-05-02T09:02:03.2Z</time></trkpt><trkpt lat="43.594331" lon="12.7443507"><ele>598.0</ele><time>2026-05-02T09:02:04.211Z</time></trkpt><trkpt lat="43.5942228" lon="12.7443131"><ele>596.5</ele><time>2026-05-02T09:02:06.217Z</time></trkpt><trkpt lat="43.5941884" lon="12.7442403"><ele>595.0</ele><time>2026-05-02T09:02:07.202Z</time></trkpt><trkpt lat="43.5941706" lon="12.7441559"><ele>595.0</ele><time>2026-05-02T09:02:08.211Z</time></trkpt><trkpt lat="43.5941853" lon="12.7439996"><ele>595.0</ele><time>2026-05-02T09:02:10.215Z</time></trkpt><trkpt lat="43.5942038" lon="12.7439047"><ele>595.0</ele><time>2026-05-02T09:02:11.203Z</time></trkpt><trkpt lat="43.5942459" lon="12.7437999"><ele>595.0</ele><time>2026-05-02T09:02:12.209Z</time></trkpt><trkpt lat="43.5943023" lon="12.7436994"><ele>595.0</ele><time>2026-05-02T09:02:13.21Z</time></trkpt><trkpt lat="43.5943633" lon="12.7436127"><ele>595.1666666666667</ele><time>2026-05-02T09:02:14.205Z</time></trkpt><trkpt lat="43.5944223" lon="12.7435175"><ele>595.3333333333334</ele><time>2026-05-02T09:02:15.204Z</time></trkpt><trkpt lat="43.5944774" lon="12.7434309"><ele>595.5</ele><time>2026-05-02T09:02:16.199Z</time></trkpt><trkpt lat="43.5945349" lon="12.7433516"><ele>595.6666666666666</ele><time>2026-05-02T09:02:17.2Z</time></trkpt><trkpt lat="43.5945967" lon="12.7432793"><ele>595.8333333333333</ele><time>2026-05-02T09:02:18.201Z</time></trkpt><trkpt lat="43.5946625" lon="12.7432187"><ele>596.0</ele><time>2026-05-02T09:02:19.197Z</time></trkpt><trkpt lat="43.59473" lon="12.7431728"><ele>596.0</ele><time>2026-05-02T09:02:20.191Z</time></trkpt><trkpt lat="43.5947912" lon="12.743124"><ele>596.0</ele><time>2026-05-02T09:02:21.19Z</time></trkpt><trkpt lat="43.5948444" lon="12.7430506"><ele>596.0</ele><time>2026-05-02T09:02:22.187Z</time></trkpt><trkpt lat="43.5948754" lon="12.7429629"><ele>596.0</ele><time>2026-05-02T09:02:23.185Z</time></trkpt><trkpt lat="43.5948974" lon="12.7428734"><ele>596.0</ele><time>2026-05-02T09:02:24.192Z</time></trkpt><trkpt lat="43.5949563" lon="12.7427311"><ele>596.0</ele><time>2026-05-02T09:02:26.193Z</time></trkpt><trkpt lat="43.5950667" lon="12.7426941"><ele>595.8333333333333</ele><time>2026-05-02T09:02:28.194Z</time></trkpt><trkpt lat="43.5951557" lon="12.7427037"><ele>595.6666666666666</ele><time>2026-05-02T09:02:29.19Z</time></trkpt><trkpt lat="43.5952481" lon="12.7427062"><ele>595.5</ele><time>2026-05-02T09:02:30.186Z</time></trkpt><trkpt lat="43.5953344" lon="12.7426977"><ele>595.3333333333334</ele><time>2026-05-02T09:02:31.181Z</time></trkpt><trkpt lat="43.5954139" lon="12.7426819"><ele>595.1666666666667</ele><time>2026-05-02T09:02:32.184Z</time></trkpt><trkpt lat="43.5954802" lon="12.7426559"><ele>595.0</ele><time>2026-05-02T09:02:33.192Z</time></trkpt><trkpt lat="43.5955463" lon="12.7425129"><ele>595.0</ele><time>2026-05-02T09:02:35.185Z</time></trkpt><trkpt lat="43.5955405" lon="12.7424122"><ele>595.0</ele><time>2026-05-02T09:02:36.181Z</time></trkpt><trkpt lat="43.5955116" lon="12.7423132"><ele>595.0</ele><time>2026-05-02T09:02:37.186Z</time></trkpt><trkpt lat="43.5954819" lon="12.7422112"><ele>595.0</ele><time>2026-05-02T09:02:38.18Z</time></trkpt><trkpt lat="43.5954589" lon="12.7421109"><ele>595.0</ele><time>2026-05-02T09:02:39.185Z</time></trkpt><trkpt lat="43.5954558" lon="12.7420125"><ele>595.0</ele><time>2026-05-02T09:02:40.191Z</time></trkpt><trkpt lat="43.5954606" lon="12.7419231"><ele>595.0</ele><time>2026-05-02T09:02:41.181Z</time></trkpt><trkpt lat="43.5954764" lon="12.7418332"><ele>592.3333333333334</ele><time>2026-05-02T09:02:42.186Z</time></trkpt><trkpt lat="43.5955001" lon="12.7417493"><ele>589.6666666666667</ele><time>2026-05-02T09:02:43.183Z</time></trkpt><trkpt lat="43.5955304" lon="12.7416527"><ele>587.0</ele><time>2026-05-02T09:02:44.187Z</time></trkpt><trkpt lat="43.5955632" lon="12.7415468"><ele>584.3333333333334</ele><time>2026-05-02T09:02:45.182Z</time></trkpt><trkpt lat="43.5955956" lon="12.7414478"><ele>581.6666666666666</ele><time>2026-05-02T09:02:46.182Z</time></trkpt><trkpt lat="43.5956188" lon="12.7413336"><ele>579.0</ele><time>2026-05-02T09:02:47.185Z</time></trkpt><trkpt lat="43.5956356" lon="12.7412191"><ele>579.0</ele><time>2026-05-02T09:02:48.184Z</time></trkpt><trkpt lat="43.5956507" lon="12.7411127"><ele>579.0</ele><time>2026-05-02T09:02:49.186Z</time></trkpt><trkpt lat="43.5956784" lon="12.7410118"><ele>579.0</ele><time>2026-05-02T09:02:50.182Z</time></trkpt><trkpt lat="43.5957179" lon="12.7409067"><ele>579.0</ele><time>2026-05-02T09:02:51.181Z</time></trkpt><trkpt lat="43.5957655" lon="12.7408015"><ele>579.0</ele><time>2026-05-02T09:02:52.188Z</time></trkpt><trkpt lat="43.5958257" lon="12.740721"><ele>579.0</ele><time>2026-05-02T09:02:53.19Z</time></trkpt><trkpt lat="43.5958955" lon="12.7406593"><ele>574.6</ele><time>2026-05-02T09:02:54.194Z</time></trkpt><trkpt lat="43.595959" lon="12.7406017"><ele>570.2</ele><time>2026-05-02T09:02:55.192Z</time></trkpt><trkpt lat="43.5960044" lon="12.7405396"><ele>565.8000000000001</ele><time>2026-05-02T09:02:56.182Z</time></trkpt><trkpt lat="43.596056" lon="12.7403853"><ele>561.4</ele><time>2026-05-02T09:02:58.187Z</time></trkpt><trkpt lat="43.5960696" lon="12.7402239"><ele>557.0</ele><time>2026-05-02T09:03:00.183Z</time></trkpt><trkpt lat="43.5961235" lon="12.7400808"><ele>554.6666666666666</ele><time>2026-05-02T09:03:02.187Z</time></trkpt><trkpt lat="43.5962264" lon="12.7399921"><ele>552.3333333333333</ele><time>2026-05-02T09:03:04.201Z</time></trkpt><trkpt lat="43.5962926" lon="12.7399881"><ele>550.0</ele><time>2026-05-02T09:03:05.19Z</time></trkpt><trkpt lat="43.5963645" lon="12.7400004"><ele>547.6666666666666</ele><time>2026-05-02T09:03:06.185Z</time></trkpt><trkpt lat="43.5964486" lon="12.7400233"><ele>545.3333333333334</ele><time>2026-05-02T09:03:07.185Z</time></trkpt><trkpt lat="43.5965415" lon="12.7400377"><ele>543.0</ele><time>2026-05-02T09:03:08.178Z</time></trkpt><trkpt lat="43.5966309" lon="12.7400281"><ele>543.0</ele><time>2026-05-02T09:03:09.187Z</time></trkpt><trkpt lat="43.5967098" lon="12.7399815"><ele>543.0</ele><time>2026-05-02T09:03:10.192Z</time></trkpt><trkpt lat="43.5967559" lon="12.7399005"><ele>543.0</ele><time>2026-05-02T09:03:11.189Z</time></trkpt><trkpt lat="43.596793" lon="12.7398214"><ele>543.0</ele><time>2026-05-02T09:03:12.181Z</time></trkpt><trkpt lat="43.5968356" lon="12.7397118"><ele>543.0</ele><time>2026-05-02T09:03:14.191Z</time></trkpt><trkpt lat="43.596708" lon="12.739742"><ele>543.0</ele><time>2026-05-02T09:03:18.181Z</time></trkpt><trkpt lat="43.5966098" lon="12.7397738"><ele>543.0</ele><time>2026-05-02T09:03:19.193Z</time></trkpt><trkpt lat="43.5964968" lon="12.7397754"><ele>543.0</ele><time>2026-05-02T09:03:20.172Z</time></trkpt><trkpt lat="43.5963774" lon="12.7397492"><ele>543.0</ele><time>2026-05-02T09:03:21.173Z</time></trkpt><trkpt lat="43.5962726" lon="12.7396877"><ele>543.0</ele><time>2026-05-02T09:03:22.176Z</time></trkpt><trkpt lat="43.5961758" lon="12.7396009"><ele>543.0</ele><time>2026-05-02T09:03:23.182Z</time></trkpt><trkpt lat="43.5960914" lon="12.7395009"><ele>543.0</ele><time>2026-05-02T09:03:24.182Z</time></trkpt><trkpt lat="43.5960229" lon="12.7393974"><ele>543.0</ele><time>2026-05-02T09:03:25.186Z</time></trkpt><trkpt lat="43.5959473" lon="12.7393183"><ele>543.0</ele><time>2026-05-02T09:03:26.183Z</time></trkpt><trkpt lat="43.5958651" lon="12.7392824"><ele>543.0</ele><time>2026-05-02T09:03:27.186Z</time></trkpt><trkpt lat="43.5957762" lon="12.73926"><ele>539.6</ele><time>2026-05-02T09:03:28.185Z</time></trkpt><trkpt lat="43.5956872" lon="12.7392294"><ele>536.1999999999999</ele><time>2026-05-02T09:03:29.183Z</time></trkpt><trkpt lat="43.595602" lon="12.7391821"><ele>532.8</ele><time>2026-05-02T09:03:30.179Z</time></trkpt><trkpt lat="43.595522" lon="12.7391115"><ele>529.4</ele><time>2026-05-02T09:03:31.179Z</time></trkpt><trkpt lat="43.5954383" lon="12.7390074"><ele>526.0</ele><time>2026-05-02T09:03:32.179Z</time></trkpt><trkpt lat="43.5953604" lon="12.7388674"><ele>524.75</ele><time>2026-05-02T09:03:33.183Z</time></trkpt><trkpt lat="43.5952881" lon="12.7387178"><ele>523.5</ele><time>2026-05-02T09:03:34.173Z</time></trkpt><trkpt lat="43.5952061" lon="12.7385684"><ele>522.25</ele><time>2026-05-02T09:03:35.184Z</time></trkpt><trkpt lat="43.5951418" lon="12.7384165"><ele>521.0</ele><time>2026-05-02T09:03:36.173Z</time></trkpt><trkpt lat="43.5950874" lon="12.7382791"><ele>521.0</ele><time>2026-05-02T09:03:37.179Z</time></trkpt><trkpt lat="43.5950476" lon="12.7381434"><ele>521.0</ele><time>2026-05-02T09:03:38.177Z</time></trkpt><trkpt lat="43.5950178" lon="12.7380222"><ele>521.0</ele><time>2026-05-02T09:03:39.178Z</time></trkpt><trkpt lat="43.5949861" lon="12.7379171"><ele>521.0</ele><time>2026-05-02T09:03:40.183Z</time></trkpt><trkpt lat="43.5949434" lon="12.7378433"><ele>521.0</ele><time>2026-05-02T09:03:41.179Z</time></trkpt><trkpt lat="43.5948912" lon="12.7377758"><ele>521.0</ele><time>2026-05-02T09:03:42.185Z</time></trkpt><trkpt lat="43.5948301" lon="12.7377263"><ele>521.0</ele><time>2026-05-02T09:03:43.184Z</time></trkpt><trkpt lat="43.5947635" lon="12.7377001"><ele>521.0</ele><time>2026-05-02T09:03:44.2Z</time></trkpt><trkpt lat="43.5946811" lon="12.7377182"><ele>521.0</ele><time>2026-05-02T09:03:45.192Z</time></trkpt><trkpt lat="43.5945687" lon="12.7377708"><ele>521.0</ele><time>2026-05-02T09:03:46.189Z</time></trkpt><trkpt lat="43.5944538" lon="12.7378339"><ele>521.0</ele><time>2026-05-02T09:03:47.189Z</time></trkpt><trkpt lat="43.5943524" lon="12.7379047"><ele>517.5</ele><time>2026-05-02T09:03:48.187Z</time></trkpt><trkpt lat="43.5942627" lon="12.7379904"><ele>514.0</ele><time>2026-05-02T09:03:49.192Z</time></trkpt><trkpt lat="43.594179" lon="12.7381077"><ele>510.5</ele><time>2026-05-02T09:03:50.195Z</time></trkpt><trkpt lat="43.5941045" lon="12.7382543"><ele>507.0</ele><time>2026-05-02T09:03:51.192Z</time></trkpt><trkpt lat="43.5940308" lon="12.7384052"><ele>507.0</ele><time>2026-05-02T09:03:52.196Z</time></trkpt><trkpt lat="43.5939457" lon="12.7385313"><ele>507.00000000000006</ele><time>2026-05-02T09:03:53.19Z</time></trkpt><trkpt lat="43.5938605" lon="12.7386281"><ele>507.00000000000006</ele><time>2026-05-02T09:03:54.189Z</time></trkpt><trkpt lat="43.5937784" lon="12.7386997"><ele>507.0</ele><time>2026-05-02T09:03:55.187Z</time></trkpt><trkpt lat="43.5937019" lon="12.7387639"><ele>507.0</ele><time>2026-05-02T09:03:56.191Z</time></trkpt><trkpt lat="43.5936345" lon="12.7388137"><ele>504.8333333333333</ele><time>2026-05-02T09:03:57.184Z</time></trkpt><trkpt lat="43.5935653" lon="12.7388364"><ele>502.66666666666663</ele><time>2026-05-02T09:03:58.194Z</time></trkpt><trkpt lat="43.5935002" lon="12.7388277"><ele>500.5</ele><time>2026-05-02T09:03:59.199Z</time></trkpt><trkpt lat="43.5934333" lon="12.7387889"><ele>498.3333333333333</ele><time>2026-05-02T09:04:00.198Z</time></trkpt><trkpt lat="43.5933659" lon="12.7387099"><ele>496.16666666666663</ele><time>2026-05-02T09:04:01.194Z</time></trkpt><trkpt lat="43.5932905" lon="12.738598"><ele>494.0</ele><time>2026-05-02T09:04:02.199Z</time></trkpt><trkpt lat="43.5932249" lon="12.7384383"><ele>493.25</ele><time>2026-05-02T09:04:03.191Z</time></trkpt><trkpt lat="43.5931669" lon="12.7382698"><ele>492.5</ele><time>2026-05-02T09:04:04.189Z</time></trkpt><trkpt lat="43.5931198" lon="12.7381163"><ele>491.75</ele><time>2026-05-02T09:04:05.186Z</time></trkpt><trkpt lat="43.5930796" lon="12.7379778"><ele>491.0</ele><time>2026-05-02T09:04:06.192Z</time></trkpt><trkpt lat="43.5930417" lon="12.7378573"><ele>490.99999999999994</ele><time>2026-05-02T09:04:07.186Z</time></trkpt><trkpt lat="43.5930009" lon="12.7377616"><ele>491.0</ele><time>2026-05-02T09:04:08.193Z</time></trkpt><trkpt lat="43.5929569" lon="12.7376817"><ele>491.0</ele><time>2026-05-02T09:04:09.189Z</time></trkpt><trkpt lat="43.5929005" lon="12.7376298"><ele>491.0</ele><time>2026-05-02T09:04:10.178Z</time></trkpt><trkpt lat="43.5928296" lon="12.7375993"><ele>490.99999999999994</ele><time>2026-05-02T09:04:11.183Z</time></trkpt><trkpt lat="43.5927488" lon="12.7375943"><ele>491.0</ele><time>2026-05-02T09:04:12.191Z</time></trkpt><trkpt lat="43.5926625" lon="12.7376098"><ele>488.75</ele><time>2026-05-02T09:04:13.187Z</time></trkpt><trkpt lat="43.5925621" lon="12.7376553"><ele>486.5</ele><time>2026-05-02T09:04:14.19Z</time></trkpt><trkpt lat="43.5924642" lon="12.7377202"><ele>484.25</ele><time>2026-05-02T09:04:15.197Z</time></trkpt><trkpt lat="43.5923644" lon="12.737814"><ele>482.0</ele><time>2026-05-02T09:04:16.198Z</time></trkpt><trkpt lat="43.5922648" lon="12.7379211"><ele>482.0</ele><time>2026-05-02T09:04:17.198Z</time></trkpt><trkpt lat="43.5921712" lon="12.7380366"><ele>482.00000000000006</ele><time>2026-05-02T09:04:18.194Z</time></trkpt><trkpt lat="43.5920975" lon="12.7381451"><ele>482.00000000000006</ele><time>2026-05-02T09:04:19.205Z</time></trkpt><trkpt lat="43.5920331" lon="12.738226"><ele>482.0</ele><time>2026-05-02T09:04:20.18Z</time></trkpt><trkpt lat="43.5919777" lon="12.7382792"><ele>482.0</ele><time>2026-05-02T09:04:21.198Z</time></trkpt><trkpt lat="43.5918535" lon="12.738235"><ele>479.6</ele><time>2026-05-02T09:04:23.194Z</time></trkpt><trkpt lat="43.5917915" lon="12.7381734"><ele>477.20000000000005</ele><time>2026-05-02T09:04:24.197Z</time></trkpt><trkpt lat="43.5917229" lon="12.7380995"><ele>474.8</ele><time>2026-05-02T09:04:25.194Z</time></trkpt><trkpt lat="43.5916463" lon="12.7380252"><ele>472.4</ele><time>2026-05-02T09:04:26.195Z</time></trkpt><trkpt lat="43.591547" lon="12.737947"><ele>470.0</ele><time>2026-05-02T09:04:27.198Z</time></trkpt><trkpt lat="43.5914241" lon="12.737866"><ele>470.0</ele><time>2026-05-02T09:04:28.194Z</time></trkpt><trkpt lat="43.5913029" lon="12.7377692"><ele>470.0</ele><time>2026-05-02T09:04:29.195Z</time></trkpt><trkpt lat="43.5911996" lon="12.7376614"><ele>470.0</ele><time>2026-05-02T09:04:30.198Z</time></trkpt><trkpt lat="43.5911189" lon="12.7375449"><ele>470.0</ele><time>2026-05-02T09:04:31.196Z</time></trkpt><trkpt lat="43.5910459" lon="12.7374433"><ele>469.8</ele><time>2026-05-02T09:04:32.197Z</time></trkpt><trkpt lat="43.5909624" lon="12.7373869"><ele>469.6</ele><time>2026-05-02T09:04:33.192Z</time></trkpt><trkpt lat="43.5908686" lon="12.7373496"><ele>469.4</ele><time>2026-05-02T09:04:34.197Z</time></trkpt><trkpt lat="43.5907556" lon="12.7373427"><ele>469.2</ele><time>2026-05-02T09:04:35.198Z</time></trkpt><trkpt lat="43.5906355" lon="12.7373557"><ele>469.0</ele><time>2026-05-02T09:04:36.201Z</time></trkpt><trkpt lat="43.5905254" lon="12.7373555"><ele>469.0</ele><time>2026-05-02T09:04:37.202Z</time></trkpt><trkpt lat="43.5904219" lon="12.7373263"><ele>469.0</ele><time>2026-05-02T09:04:38.198Z</time></trkpt><trkpt lat="43.590326" lon="12.7372612"><ele>469.0</ele><time>2026-05-02T09:04:39.206Z</time></trkpt><trkpt lat="43.5902373" lon="12.7371459"><ele>469.0</ele><time>2026-05-02T09:04:40.198Z</time></trkpt><trkpt lat="43.5901309" lon="12.7370251"><ele>468.75</ele><time>2026-05-02T09:04:41.193Z</time></trkpt><trkpt lat="43.5900017" lon="12.7369174"><ele>468.5</ele><time>2026-05-02T09:04:42.197Z</time></trkpt><trkpt lat="43.589867" lon="12.7368421"><ele>468.25</ele><time>2026-05-02T09:04:43.183Z</time></trkpt><trkpt lat="43.5897424" lon="12.7367919"><ele>468.0</ele><time>2026-05-02T09:04:44.192Z</time></trkpt><trkpt lat="43.5896369" lon="12.7367165"><ele>468.0</ele><time>2026-05-02T09:04:45.188Z</time></trkpt><trkpt lat="43.589537" lon="12.7365771"><ele>468.0</ele><time>2026-05-02T09:04:46.191Z</time></trkpt><trkpt lat="43.5894364" lon="12.7364338"><ele>468.0</ele><time>2026-05-02T09:04:47.189Z</time></trkpt><trkpt lat="43.58932" lon="12.7363031"><ele>468.0</ele><time>2026-05-02T09:04:48.193Z</time></trkpt><trkpt lat="43.5891912" lon="12.7362047"><ele>466.5</ele><time>2026-05-02T09:04:49.194Z</time></trkpt><trkpt lat="43.5890663" lon="12.7361358"><ele>465.0</ele><time>2026-05-02T09:04:50.192Z</time></trkpt><trkpt lat="43.5889355" lon="12.7360831"><ele>463.5</ele><time>2026-05-02T09:04:51.193Z</time></trkpt><trkpt lat="43.5888154" lon="12.7360467"><ele>462.0</ele><time>2026-05-02T09:04:52.191Z</time></trkpt><trkpt lat="43.588704" lon="12.736021"><ele>462.5</ele><time>2026-05-02T09:04:53.193Z</time></trkpt><trkpt lat="43.5885833" lon="12.7359938"><ele>463.0</ele><time>2026-05-02T09:04:54.194Z</time></trkpt><trkpt lat="43.5884535" lon="12.735973"><ele>463.5</ele><time>2026-05-02T09:04:55.193Z</time></trkpt><trkpt lat="43.5883101" lon="12.7359585"><ele>464.0</ele><time>2026-05-02T09:04:56.192Z</time></trkpt><trkpt lat="43.588162" lon="12.7359643"><ele>464.0</ele><time>2026-05-02T09:04:57.19Z</time></trkpt><trkpt lat="43.5880168" lon="12.7359641"><ele>464.0</ele><time>2026-05-02T09:04:58.196Z</time></trkpt><trkpt lat="43.5878772" lon="12.7359781"><ele>464.0</ele><time>2026-05-02T09:04:59.188Z</time></trkpt><trkpt lat="43.5877541" lon="12.7359927"><ele>464.0</ele><time>2026-05-02T09:05:00.192Z</time></trkpt><trkpt lat="43.5876486" lon="12.7360073"><ele>464.4</ele><time>2026-05-02T09:05:01.186Z</time></trkpt><trkpt lat="43.5875642" lon="12.7360169"><ele>464.79999999999995</ele><time>2026-05-02T09:05:02.183Z</time></trkpt><trkpt lat="43.5874942" lon="12.736065"><ele>465.20000000000005</ele><time>2026-05-02T09:05:03.187Z</time></trkpt><trkpt lat="43.5874204" lon="12.73615"><ele>465.6</ele><time>2026-05-02T09:05:04.186Z</time></trkpt><trkpt lat="43.5873426" lon="12.7362743"><ele>466.0</ele><time>2026-05-02T09:05:05.185Z</time></trkpt><trkpt lat="43.5872652" lon="12.7363957"><ele>466.0</ele><time>2026-05-02T09:05:06.186Z</time></trkpt><trkpt lat="43.58719" lon="12.7365291"><ele>466.0</ele><time>2026-05-02T09:05:07.177Z</time></trkpt><trkpt lat="43.58713" lon="12.7366751"><ele>466.0</ele><time>2026-05-02T09:05:08.186Z</time></trkpt><trkpt lat="43.5870905" lon="12.7367999"><ele>466.0</ele><time>2026-05-02T09:05:09.183Z</time></trkpt><trkpt lat="43.5870508" lon="12.7368967"><ele>466.0</ele><time>2026-05-02T09:05:10.187Z</time></trkpt><trkpt lat="43.5869827" lon="12.7369841"><ele>467.0</ele><time>2026-05-02T09:05:11.182Z</time></trkpt><trkpt lat="43.5868896" lon="12.7370642"><ele>468.0</ele><time>2026-05-02T09:05:12.188Z</time></trkpt><trkpt lat="43.5867764" lon="12.7371319"><ele>469.0</ele><time>2026-05-02T09:05:13.186Z</time></trkpt><trkpt lat="43.586655" lon="12.7371813"><ele>470.0</ele><time>2026-05-02T09:05:14.185Z</time></trkpt><trkpt lat="43.5865411" lon="12.7372281"><ele>470.0</ele><time>2026-05-02T09:05:15.188Z</time></trkpt><trkpt lat="43.5864323" lon="12.7372657"><ele>470.0</ele><time>2026-05-02T09:05:16.193Z</time></trkpt><trkpt lat="43.5863375" lon="12.7372801"><ele>470.0</ele><time>2026-05-02T09:05:17.201Z</time></trkpt><trkpt lat="43.5862536" lon="12.7372526"><ele>470.0</ele><time>2026-05-02T09:05:18.184Z</time></trkpt><trkpt lat="43.5861726" lon="12.7371996"><ele>470.0</ele><time>2026-05-02T09:05:19.191Z</time></trkpt><trkpt lat="43.5861077" lon="12.7371235"><ele>470.0</ele><time>2026-05-02T09:05:20.2Z</time></trkpt><trkpt lat="43.5860794" lon="12.737006"><ele>470.0</ele><time>2026-05-02T09:05:21.197Z</time></trkpt><trkpt lat="43.5860873" lon="12.7368641"><ele>470.0</ele><time>2026-05-02T09:05:22.201Z</time></trkpt><trkpt lat="43.5861127" lon="12.7367015"><ele>470.0</ele><time>2026-05-02T09:05:23.192Z</time></trkpt><trkpt lat="43.5861303" lon="12.7365314"><ele>470.0</ele><time>2026-05-02T09:05:24.185Z</time></trkpt><trkpt lat="43.586131" lon="12.7363391"><ele>472.2</ele><time>2026-05-02T09:05:25.184Z</time></trkpt><trkpt lat="43.5861137" lon="12.7361489"><ele>474.4</ele><time>2026-05-02T09:05:26.189Z</time></trkpt><trkpt lat="43.5860867" lon="12.7359913"><ele>476.6</ele><time>2026-05-02T09:05:27.187Z</time></trkpt><trkpt lat="43.586057" lon="12.7358972"><ele>478.8</ele><time>2026-05-02T09:05:28.191Z</time></trkpt><trkpt lat="43.5860553" lon="12.7357794"><ele>481.0</ele><time>2026-05-02T09:05:30.189Z</time></trkpt><trkpt lat="43.5861259" lon="12.7357222"><ele>483.0</ele><time>2026-05-02T09:05:32.191Z</time></trkpt><trkpt lat="43.5862059" lon="12.7358308"><ele>485.0</ele><time>2026-05-02T09:05:34.186Z</time></trkpt><trkpt lat="43.5862364" lon="12.735962"><ele>487.0</ele><time>2026-05-02T09:05:35.185Z</time></trkpt><trkpt lat="43.5862662" lon="12.7361232"><ele>489.0</ele><time>2026-05-02T09:05:36.19Z</time></trkpt><trkpt lat="43.5863122" lon="12.736279"><ele>489.0</ele><time>2026-05-02T09:05:37.183Z</time></trkpt><trkpt lat="43.5863698" lon="12.7364133"><ele>489.0</ele><time>2026-05-02T09:05:38.183Z</time></trkpt><trkpt lat="43.5864284" lon="12.736517"><ele>489.0</ele><time>2026-05-02T09:05:39.19Z</time></trkpt><trkpt lat="43.5864925" lon="12.7365939"><ele>489.0</ele><time>2026-05-02T09:05:40.19Z</time></trkpt><trkpt lat="43.5865971" lon="12.7365992"><ele>489.0</ele><time>2026-05-02T09:05:42.19Z</time></trkpt><trkpt lat="43.5866454" lon="12.7365393"><ele>489.0</ele><time>2026-05-02T09:05:43.195Z</time></trkpt><trkpt lat="43.5866911" lon="12.7364389"><ele>489.0</ele><time>2026-05-02T09:05:44.189Z</time></trkpt><trkpt lat="43.5867112" lon="12.7363267"><ele>489.0</ele><time>2026-05-02T09:05:45.186Z</time></trkpt><trkpt lat="43.5867253" lon="12.7362032"><ele>489.0</ele><time>2026-05-02T09:05:46.189Z</time></trkpt><trkpt lat="43.5867387" lon="12.7360745"><ele>489.0</ele><time>2026-05-02T09:05:47.186Z</time></trkpt><trkpt lat="43.5867412" lon="12.7359437"><ele>489.0</ele><time>2026-05-02T09:05:48.19Z</time></trkpt><trkpt lat="43.5867304" lon="12.7358162"><ele>492.0</ele><time>2026-05-02T09:05:49.187Z</time></trkpt><trkpt lat="43.5866965" lon="12.7356675"><ele>495.0</ele><time>2026-05-02T09:05:50.181Z</time></trkpt><trkpt lat="43.5866378" lon="12.7355049"><ele>498.0</ele><time>2026-05-02T09:05:51.188Z</time></trkpt><trkpt lat="43.586568" lon="12.7353249"><ele>501.0</ele><time>2026-05-02T09:05:52.193Z</time></trkpt><trkpt lat="43.5865008" lon="12.7351327"><ele>501.4</ele><time>2026-05-02T09:05:53.194Z</time></trkpt><trkpt lat="43.5864301" lon="12.7349787"><ele>501.8</ele><time>2026-05-02T09:05:54.194Z</time></trkpt><trkpt lat="43.5863842" lon="12.7348764"><ele>502.19999999999993</ele><time>2026-05-02T09:05:55.193Z</time></trkpt><trkpt lat="43.5863268" lon="12.7347856"><ele>502.59999999999997</ele><time>2026-05-02T09:05:56.19Z</time></trkpt><trkpt lat="43.5862612" lon="12.7347222"><ele>503.0</ele><time>2026-05-02T09:05:57.188Z</time></trkpt><trkpt lat="43.5861734" lon="12.7346924"><ele>503.0</ele><time>2026-05-02T09:05:58.197Z</time></trkpt><trkpt lat="43.5860955" lon="12.734645"><ele>502.99999999999994</ele><time>2026-05-02T09:05:59.187Z</time></trkpt><trkpt lat="43.5860144" lon="12.7345605"><ele>502.99999999999994</ele><time>2026-05-02T09:06:00.192Z</time></trkpt><trkpt lat="43.5859339" lon="12.7344602"><ele>503.0</ele><time>2026-05-02T09:06:01.195Z</time></trkpt><trkpt lat="43.5858416" lon="12.7343682"><ele>503.0</ele><time>2026-05-02T09:06:02.191Z</time></trkpt><trkpt lat="43.5857531" lon="12.7343087"><ele>507.2</ele><time>2026-05-02T09:06:03.196Z</time></trkpt><trkpt lat="43.5856735" lon="12.7342937"><ele>511.4</ele><time>2026-05-02T09:06:04.188Z</time></trkpt><trkpt lat="43.5855666" lon="12.7342675"><ele>515.5999999999999</ele><time>2026-05-02T09:06:06.192Z</time></trkpt><trkpt lat="43.5856118" lon="12.73415"><ele>519.8</ele><time>2026-05-02T09:06:09.197Z</time></trkpt><trkpt lat="43.5856958" lon="12.7341336"><ele>524.0</ele><time>2026-05-02T09:06:10.204Z</time></trkpt><trkpt lat="43.5857959" lon="12.7341476"><ele>524.0</ele><time>2026-05-02T09:06:11.192Z</time></trkpt><trkpt lat="43.5859006" lon="12.7341549"><ele>524.0</ele><time>2026-05-02T09:06:12.191Z</time></trkpt><trkpt lat="43.5860046" lon="12.7341287"><ele>524.0</ele><time>2026-05-02T09:06:13.194Z</time></trkpt><trkpt lat="43.5861001" lon="12.734066"><ele>524.0</ele><time>2026-05-02T09:06:14.181Z</time></trkpt><trkpt lat="43.586163" lon="12.7339861"><ele>524.0</ele><time>2026-05-02T09:06:15.193Z</time></trkpt><trkpt lat="43.5861895" lon="12.73389"><ele>521.8333333333333</ele><time>2026-05-02T09:06:16.196Z</time></trkpt><trkpt lat="43.586191" lon="12.7337768"><ele>519.6666666666666</ele><time>2026-05-02T09:06:17.194Z</time></trkpt><trkpt lat="43.5861846" lon="12.7336614"><ele>517.5</ele><time>2026-05-02T09:06:18.193Z</time></trkpt><trkpt lat="43.5861593" lon="12.7335538"><ele>515.3333333333334</ele><time>2026-05-02T09:06:19.192Z</time></trkpt><trkpt lat="43.5861001" lon="12.7334572"><ele>513.1666666666667</ele><time>2026-05-02T09:06:20.184Z</time></trkpt><trkpt lat="43.5860196" lon="12.7333758"><ele>511.0</ele><time>2026-05-02T09:06:21.189Z</time></trkpt><trkpt lat="43.5859447" lon="12.7332952"><ele>515.3333333333334</ele><time>2026-05-02T09:06:22.188Z</time></trkpt><trkpt lat="43.5858957" lon="12.7332157"><ele>519.6666666666667</ele><time>2026-05-02T09:06:23.183Z</time></trkpt><trkpt lat="43.5858736" lon="12.7331209"><ele>524.0</ele><time>2026-05-02T09:06:24.183Z</time></trkpt><trkpt lat="43.5858713" lon="12.7330191"><ele>528.3333333333334</ele><time>2026-05-02T09:06:25.186Z</time></trkpt><trkpt lat="43.5858943" lon="12.7328939"><ele>532.6666666666666</ele><time>2026-05-02T09:06:26.181Z</time></trkpt><trkpt lat="43.5859302" lon="12.7327469"><ele>537.0</ele><time>2026-05-02T09:06:27.177Z</time></trkpt><trkpt lat="43.5859551" lon="12.7325918"><ele>537.25</ele><time>2026-05-02T09:06:28.188Z</time></trkpt><trkpt lat="43.5859481" lon="12.7324457"><ele>537.5</ele><time>2026-05-02T09:06:29.188Z</time></trkpt><trkpt lat="43.5859108" lon="12.7322968"><ele>537.75</ele><time>2026-05-02T09:06:30.19Z</time></trkpt><trkpt lat="43.5858384" lon="12.7321516"><ele>538.0</ele><time>2026-05-02T09:06:31.183Z</time></trkpt><trkpt lat="43.5857478" lon="12.7320127"><ele>540.0</ele><time>2026-05-02T09:06:32.18Z</time></trkpt><trkpt lat="43.5856345" lon="12.7318842"><ele>542.0</ele><time>2026-05-02T09:06:33.178Z</time></trkpt><trkpt lat="43.5855175" lon="12.7317592"><ele>544.0</ele><time>2026-05-02T09:06:34.179Z</time></trkpt><trkpt lat="43.5853991" lon="12.7316709"><ele>546.0</ele><time>2026-05-02T09:06:35.177Z</time></trkpt><trkpt lat="43.5853098" lon="12.7315779"><ele>546.0</ele><time>2026-05-02T09:06:36.174Z</time></trkpt><trkpt lat="43.5852511" lon="12.7314778"><ele>546.0</ele><time>2026-05-02T09:06:37.176Z</time></trkpt><trkpt lat="43.5852161" lon="12.7313507"><ele>546.0</ele><time>2026-05-02T09:06:38.174Z</time></trkpt><trkpt lat="43.5851826" lon="12.7312096"><ele>546.0</ele><time>2026-05-02T09:06:39.176Z</time></trkpt><trkpt lat="43.5851161" lon="12.7311016"><ele>546.0</ele><time>2026-05-02T09:06:40.179Z</time></trkpt><trkpt lat="43.5850396" lon="12.7310269"><ele>544.0</ele><time>2026-05-02T09:06:41.177Z</time></trkpt><trkpt lat="43.5849432" lon="12.7309844"><ele>542.0</ele><time>2026-05-02T09:06:42.179Z</time></trkpt><trkpt lat="43.5848367" lon="12.7309479"><ele>540.0</ele><time>2026-05-02T09:06:43.181Z</time></trkpt><trkpt lat="43.5847228" lon="12.7309329"><ele>538.0</ele><time>2026-05-02T09:06:44.184Z</time></trkpt><trkpt lat="43.5846067" lon="12.7309251"><ele>536.0</ele><time>2026-05-02T09:06:45.182Z</time></trkpt><trkpt lat="43.5845092" lon="12.7308826"><ele>536.0</ele><time>2026-05-02T09:06:46.178Z</time></trkpt><trkpt lat="43.5844233" lon="12.7308213"><ele>536.0</ele><time>2026-05-02T09:06:47.179Z</time></trkpt><trkpt lat="43.5843497" lon="12.7307476"><ele>536.0</ele><time>2026-05-02T09:06:48.18Z</time></trkpt><trkpt lat="43.5842777" lon="12.7306778"><ele>536.0</ele><time>2026-05-02T09:06:49.184Z</time></trkpt><trkpt lat="43.5842124" lon="12.7306018"><ele>536.0</ele><time>2026-05-02T09:06:50.177Z</time></trkpt><trkpt lat="43.5841479" lon="12.7304941"><ele>536.0</ele><time>2026-05-02T09:06:51.184Z</time></trkpt><trkpt lat="43.5840938" lon="12.7303697"><ele>536.0</ele><time>2026-05-02T09:06:52.188Z</time></trkpt><trkpt lat="43.5840476" lon="12.7302436"><ele>536.0</ele><time>2026-05-02T09:06:53.188Z</time></trkpt><trkpt lat="43.5840163" lon="12.7301022"><ele>536.0</ele><time>2026-05-02T09:06:54.194Z</time></trkpt><trkpt lat="43.5839769" lon="12.7299599"><ele>536.0</ele><time>2026-05-02T09:06:55.193Z</time></trkpt><trkpt lat="43.5839165" lon="12.7298351"><ele>536.0</ele><time>2026-05-02T09:06:56.192Z</time></trkpt><trkpt lat="43.5838449" lon="12.729728"><ele>536.0</ele><time>2026-05-02T09:06:57.19Z</time></trkpt><trkpt lat="43.5837556" lon="12.7296317"><ele>536.0</ele><time>2026-05-02T09:06:58.192Z</time></trkpt><trkpt lat="43.5836562" lon="12.7295504"><ele>536.0</ele><time>2026-05-02T09:06:59.196Z</time></trkpt><trkpt lat="43.5835609" lon="12.7294894"><ele>536.0</ele><time>2026-05-02T09:07:00.194Z</time></trkpt><trkpt lat="43.5834698" lon="12.729464"><ele>538.6</ele><time>2026-05-02T09:07:01.191Z</time></trkpt><trkpt lat="43.583383" lon="12.7294779"><ele>541.2</ele><time>2026-05-02T09:07:02.193Z</time></trkpt><trkpt lat="43.5832964" lon="12.7295215"><ele>543.8</ele><time>2026-05-02T09:07:03.192Z</time></trkpt><trkpt lat="43.5832029" lon="12.7296113"><ele>546.4</ele><time>2026-05-02T09:07:04.193Z</time></trkpt><trkpt lat="43.5831045" lon="12.7297318"><ele>549.0</ele><time>2026-05-02T09:07:05.181Z</time></trkpt><trkpt lat="43.5830027" lon="12.7298493"><ele>549.0</ele><time>2026-05-02T09:07:06.186Z</time></trkpt><trkpt lat="43.5829064" lon="12.7299341"><ele>549.0</ele><time>2026-05-02T09:07:07.188Z</time></trkpt><trkpt lat="43.5828182" lon="12.7299802"><ele>549.0</ele><time>2026-05-02T09:07:08.19Z</time></trkpt><trkpt lat="43.5827349" lon="12.7299909"><ele>549.0</ele><time>2026-05-02T09:07:09.191Z</time></trkpt><trkpt lat="43.5826388" lon="12.729966"><ele>549.0</ele><time>2026-05-02T09:07:10.187Z</time></trkpt><trkpt lat="43.5825259" lon="12.7299364"><ele>550.0</ele><time>2026-05-02T09:07:11.194Z</time></trkpt><trkpt lat="43.5824168" lon="12.7299105"><ele>551.0</ele><time>2026-05-02T09:07:12.183Z</time></trkpt><trkpt lat="43.5823063" lon="12.7299286"><ele>552.0</ele><time>2026-05-02T09:07:13.183Z</time></trkpt><trkpt lat="43.582193" lon="12.7299644"><ele>553.0</ele><time>2026-05-02T09:07:14.177Z</time></trkpt><trkpt lat="43.5820926" lon="12.7299891"><ele>554.0</ele><time>2026-05-02T09:07:15.184Z</time></trkpt><trkpt lat="43.5820027" lon="12.7299987"><ele>554.0</ele><time>2026-05-02T09:07:16.195Z</time></trkpt><trkpt lat="43.5819333" lon="12.7299739"><ele>554.0</ele><time>2026-05-02T09:07:17.192Z</time></trkpt><trkpt lat="43.5818807" lon="12.7298479"><ele>554.0</ele><time>2026-05-02T09:07:19.197Z</time></trkpt><trkpt lat="43.5819074" lon="12.7296778"><ele>554.0</ele><time>2026-05-02T09:07:21.185Z</time></trkpt><trkpt lat="43.5819525" lon="12.729595"><ele>554.0</ele><time>2026-05-02T09:07:22.187Z</time></trkpt><trkpt lat="43.5820139" lon="12.7295278"><ele>555.0</ele><time>2026-05-02T09:07:23.186Z</time></trkpt><trkpt lat="43.5820962" lon="12.7294803"><ele>556.0</ele><time>2026-05-02T09:07:24.189Z</time></trkpt><trkpt lat="43.5822038" lon="12.729448"><ele>557.0</ele><time>2026-05-02T09:07:25.186Z</time></trkpt><trkpt lat="43.5823176" lon="12.7294084"><ele>558.0</ele><time>2026-05-02T09:07:26.193Z</time></trkpt><trkpt lat="43.5824252" lon="12.7293537"><ele>559.0</ele><time>2026-05-02T09:07:27.187Z</time></trkpt><trkpt lat="43.5825164" lon="12.7292753"><ele>562.25</ele><time>2026-05-02T09:07:28.19Z</time></trkpt><trkpt lat="43.5825746" lon="12.72916"><ele>565.5</ele><time>2026-05-02T09:07:29.191Z</time></trkpt><trkpt lat="43.5826065" lon="12.7290154"><ele>568.75</ele><time>2026-05-02T09:07:30.192Z</time></trkpt><trkpt lat="43.5826293" lon="12.7288388"><ele>572.0</ele><time>2026-05-02T09:07:31.181Z</time></trkpt><trkpt lat="43.5826675" lon="12.7286636"><ele>571.8000000000001</ele><time>2026-05-02T09:07:32.183Z</time></trkpt><trkpt lat="43.5827242" lon="12.728503"><ele>571.6</ele><time>2026-05-02T09:07:33.185Z</time></trkpt><trkpt lat="43.5827926" lon="12.728366"><ele>571.4000000000001</ele><time>2026-05-02T09:07:34.184Z</time></trkpt><trkpt lat="43.5828533" lon="12.7282622"><ele>571.2</ele><time>2026-05-02T09:07:35.185Z</time></trkpt><trkpt lat="43.582906" lon="12.7281618"><ele>571.0</ele><time>2026-05-02T09:07:36.183Z</time></trkpt><trkpt lat="43.5829244" lon="12.7280697"><ele>571.0</ele><time>2026-05-02T09:07:37.193Z</time></trkpt><trkpt lat="43.5829131" lon="12.7279564"><ele>571.0</ele><time>2026-05-02T09:07:38.191Z</time></trkpt><trkpt lat="43.582852" lon="12.7278447"><ele>571.0</ele><time>2026-05-02T09:07:39.183Z</time></trkpt><trkpt lat="43.5827799" lon="12.7277089"><ele>571.0</ele><time>2026-05-02T09:07:40.188Z</time></trkpt><trkpt lat="43.5827201" lon="12.7275416"><ele>571.0</ele><time>2026-05-02T09:07:41.179Z</time></trkpt><trkpt lat="43.5826752" lon="12.7273695"><ele>573.4</ele><time>2026-05-02T09:07:42.181Z</time></trkpt><trkpt lat="43.5826423" lon="12.7271928"><ele>575.8</ele><time>2026-05-02T09:07:43.182Z</time></trkpt><trkpt lat="43.582625" lon="12.7270228"><ele>578.1999999999999</ele><time>2026-05-02T09:07:44.171Z</time></trkpt><trkpt lat="43.5826209" lon="12.726874"><ele>580.6</ele><time>2026-05-02T09:07:45.179Z</time></trkpt><trkpt lat="43.5826292" lon="12.7267633"><ele>583.0</ele><time>2026-05-02T09:07:46.172Z</time></trkpt><trkpt lat="43.582635" lon="12.7266088"><ele>583.0</ele><time>2026-05-02T09:07:48.172Z</time></trkpt><trkpt lat="43.5826299" lon="12.7264415"><ele>583.0</ele><time>2026-05-02T09:07:50.182Z</time></trkpt><trkpt lat="43.5826009" lon="12.7263193"><ele>583.0</ele><time>2026-05-02T09:07:52.176Z</time></trkpt><trkpt lat="43.5825929" lon="12.726225"><ele>583.0</ele><time>2026-05-02T09:07:54.185Z</time></trkpt><trkpt lat="43.5825909" lon="12.7261325"><ele>583.0</ele><time>2026-05-02T09:07:56.177Z</time></trkpt><trkpt lat="43.582584" lon="12.7259846"><ele>582.1666666666667</ele><time>2026-05-02T09:07:58.181Z</time></trkpt><trkpt lat="43.5825719" lon="12.7258908"><ele>581.3333333333334</ele><time>2026-05-02T09:07:59.187Z</time></trkpt><trkpt lat="43.5825604" lon="12.7257949"><ele>580.5</ele><time>2026-05-02T09:08:00.182Z</time></trkpt><trkpt lat="43.5825438" lon="12.7256916"><ele>579.6666666666666</ele><time>2026-05-02T09:08:01.178Z</time></trkpt><trkpt lat="43.5825327" lon="12.7255862"><ele>578.8333333333333</ele><time>2026-05-02T09:08:02.182Z</time></trkpt><trkpt lat="43.5825157" lon="12.7254664"><ele>578.0</ele><time>2026-05-02T09:08:03.181Z</time></trkpt><trkpt lat="43.5825046" lon="12.7253327"><ele>576.5</ele><time>2026-05-02T09:08:04.188Z</time></trkpt><trkpt lat="43.582501" lon="12.7252051"><ele>575.0</ele><time>2026-05-02T09:08:05.182Z</time></trkpt><trkpt lat="43.5825028" lon="12.7250864"><ele>573.5</ele><time>2026-05-02T09:08:06.19Z</time></trkpt><trkpt lat="43.5825185" lon="12.7249736"><ele>572.0</ele><time>2026-05-02T09:08:07.189Z</time></trkpt><trkpt lat="43.5825432" lon="12.7248768"><ele>570.5</ele><time>2026-05-02T09:08:08.194Z</time></trkpt><trkpt lat="43.5825672" lon="12.7247867"><ele>569.0</ele><time>2026-05-02T09:08:09.194Z</time></trkpt><trkpt lat="43.5825895" lon="12.724699"><ele>569.0</ele><time>2026-05-02T09:08:10.196Z</time></trkpt><trkpt lat="43.5826241" lon="12.7246046"><ele>569.0</ele><time>2026-05-02T09:08:11.195Z</time></trkpt><trkpt lat="43.5826707" lon="12.7245026"><ele>569.0</ele><time>2026-05-02T09:08:12.205Z</time></trkpt><trkpt lat="43.5827417" lon="12.7243832"><ele>569.0</ele><time>2026-05-02T09:08:13.2Z</time></trkpt><trkpt lat="43.5828286" lon="12.7242567"><ele>569.0</ele><time>2026-05-02T09:08:14.203Z</time></trkpt><trkpt lat="43.5829162" lon="12.724116"><ele>567.0</ele><time>2026-05-02T09:08:15.203Z</time></trkpt><trkpt lat="43.5829956" lon="12.7239825"><ele>565.0</ele><time>2026-05-02T09:08:16.198Z</time></trkpt><trkpt lat="43.5830727" lon="12.7238469"><ele>563.0</ele><time>2026-05-02T09:08:17.195Z</time></trkpt><trkpt lat="43.5831634" lon="12.7237089"><ele>561.0</ele><time>2026-05-02T09:08:18.197Z</time></trkpt><trkpt lat="43.5832605" lon="12.7235658"><ele>566.0</ele><time>2026-05-02T09:08:19.214Z</time></trkpt><trkpt lat="43.5833723" lon="12.723428"><ele>571.0</ele><time>2026-05-02T09:08:20.217Z</time></trkpt><trkpt lat="43.5834943" lon="12.7232793"><ele>576.0</ele><time>2026-05-02T09:08:21.218Z</time></trkpt><trkpt lat="43.5836068" lon="12.7231455"><ele>573.0</ele><time>2026-05-02T09:08:22.216Z</time></trkpt><trkpt lat="43.5837203" lon="12.7229993"><ele>570.0</ele><time>2026-05-02T09:08:23.211Z</time></trkpt><trkpt lat="43.5838344" lon="12.7228566"><ele>567.0</ele><time>2026-05-02T09:08:24.19Z</time></trkpt><trkpt lat="43.5839359" lon="12.7227124"><ele>567.0</ele><time>2026-05-02T09:08:25.183Z</time></trkpt><trkpt lat="43.584027" lon="12.7225808"><ele>567.0</ele><time>2026-05-02T09:08:26.183Z</time></trkpt><trkpt lat="43.5841082" lon="12.7224609"><ele>567.0</ele><time>2026-05-02T09:08:27.183Z</time></trkpt><trkpt lat="43.5841659" lon="12.7223468"><ele>567.0</ele><time>2026-05-02T09:08:28.187Z</time></trkpt><trkpt lat="43.5842265" lon="12.7222498"><ele>567.0</ele><time>2026-05-02T09:08:29.188Z</time></trkpt><trkpt lat="43.5843" lon="12.7221701"><ele>567.0</ele><time>2026-05-02T09:08:30.19Z</time></trkpt><trkpt lat="43.5844061" lon="12.7221206"><ele>567.0</ele><time>2026-05-02T09:08:31.181Z</time></trkpt><trkpt lat="43.5845258" lon="12.7221179"><ele>567.0</ele><time>2026-05-02T09:08:32.183Z</time></trkpt><trkpt lat="43.5846418" lon="12.7221245"><ele>567.0</ele><time>2026-05-02T09:08:33.178Z</time></trkpt><trkpt lat="43.5847409" lon="12.7221137"><ele>567.0</ele><time>2026-05-02T09:08:34.184Z</time></trkpt><trkpt lat="43.5848344" lon="12.7220764"><ele>567.5</ele><time>2026-05-02T09:08:35.184Z</time></trkpt><trkpt lat="43.5849283" lon="12.7220201"><ele>568.0</ele><time>2026-05-02T09:08:36.189Z</time></trkpt><trkpt lat="43.58502" lon="12.7219228"><ele>568.5</ele><time>2026-05-02T09:08:37.183Z</time></trkpt><trkpt lat="43.5851221" lon="12.7218037"><ele>569.0</ele><time>2026-05-02T09:08:38.187Z</time></trkpt><trkpt lat="43.5852136" lon="12.7216833"><ele>569.0</ele><time>2026-05-02T09:08:39.183Z</time></trkpt><trkpt lat="43.5853008" lon="12.7215514"><ele>569.0</ele><time>2026-05-02T09:08:40.185Z</time></trkpt><trkpt lat="43.5853879" lon="12.721404"><ele>569.0</ele><time>2026-05-02T09:08:41.18Z</time></trkpt><trkpt lat="43.5854752" lon="12.7212413"><ele>569.0</ele><time>2026-05-02T09:08:42.185Z</time></trkpt><trkpt lat="43.5855584" lon="12.7210896"><ele>563.0</ele><time>2026-05-02T09:08:43.181Z</time></trkpt><trkpt lat="43.5856553" lon="12.7209191"><ele>557.0</ele><time>2026-05-02T09:08:44.185Z</time></trkpt><trkpt lat="43.5857656" lon="12.720764"><ele>551.0</ele><time>2026-05-02T09:08:45.183Z</time></trkpt><trkpt lat="43.5858729" lon="12.7206055"><ele>551.0</ele><time>2026-05-02T09:08:46.184Z</time></trkpt><trkpt lat="43.5859749" lon="12.720452"><ele>551.0</ele><time>2026-05-02T09:08:47.183Z</time></trkpt><trkpt lat="43.5860818" lon="12.7203028"><ele>551.0</ele><time>2026-05-02T09:08:48.18Z</time></trkpt><trkpt lat="43.5861854" lon="12.7201559"><ele>547.75</ele><time>2026-05-02T09:08:49.192Z</time></trkpt><trkpt lat="43.5862754" lon="12.7200161"><ele>544.5</ele><time>2026-05-02T09:08:50.179Z</time></trkpt><trkpt lat="43.5863654" lon="12.7198893"><ele>541.25</ele><time>2026-05-02T09:08:51.183Z</time></trkpt><trkpt lat="43.5864579" lon="12.7197528"><ele>538.0</ele><time>2026-05-02T09:08:52.181Z</time></trkpt><trkpt lat="43.5865479" lon="12.7196204"><ele>538.0</ele><time>2026-05-02T09:08:53.186Z</time></trkpt><trkpt lat="43.5866316" lon="12.7195088"><ele>538.0</ele><time>2026-05-02T09:08:54.188Z</time></trkpt><trkpt lat="43.5867015" lon="12.7194105"><ele>538.0</ele><time>2026-05-02T09:08:55.185Z</time></trkpt><trkpt lat="43.5867689" lon="12.7193065"><ele>538.0</ele><time>2026-05-02T09:08:56.187Z</time></trkpt><trkpt lat="43.5868253" lon="12.7191834"><ele>538.0</ele><time>2026-05-02T09:08:57.188Z</time></trkpt><trkpt lat="43.5868479" lon="12.7190477"><ele>536.8</ele><time>2026-05-02T09:08:58.188Z</time></trkpt><trkpt lat="43.5868598" lon="12.7188932"><ele>535.5999999999999</ele><time>2026-05-02T09:08:59.193Z</time></trkpt><trkpt lat="43.5868695" lon="12.7187492"><ele>534.4000000000001</ele><time>2026-05-02T09:09:00.185Z</time></trkpt><trkpt lat="43.5868788" lon="12.7186233"><ele>533.2</ele><time>2026-05-02T09:09:01.185Z</time></trkpt><trkpt lat="43.586886" lon="12.718511"><ele>532.0</ele><time>2026-05-02T09:09:02.181Z</time></trkpt><trkpt lat="43.5869042" lon="12.718412"><ele>529.6</ele><time>2026-05-02T09:09:03.189Z</time></trkpt><trkpt lat="43.5869429" lon="12.7183199"><ele>527.2</ele><time>2026-05-02T09:09:04.183Z</time></trkpt><trkpt lat="43.5869972" lon="12.7182358"><ele>524.8</ele><time>2026-05-02T09:09:05.187Z</time></trkpt><trkpt lat="43.5870776" lon="12.7181472"><ele>522.4</ele><time>2026-05-02T09:09:06.184Z</time></trkpt><trkpt lat="43.5871811" lon="12.7180459"><ele>520.0</ele><time>2026-05-02T09:09:07.184Z</time></trkpt><trkpt lat="43.587292" lon="12.7179512"><ele>519.75</ele><time>2026-05-02T09:09:08.184Z</time></trkpt><trkpt lat="43.5874054" lon="12.7178579"><ele>519.5</ele><time>2026-05-02T09:09:09.19Z</time></trkpt><trkpt lat="43.5875228" lon="12.71776"><ele>519.25</ele><time>2026-05-02T09:09:10.196Z</time></trkpt><trkpt lat="43.5876348" lon="12.7176474"><ele>519.0</ele><time>2026-05-02T09:09:11.203Z</time></trkpt><trkpt lat="43.587725" lon="12.7175175"><ele>517.25</ele><time>2026-05-02T09:09:12.199Z</time></trkpt><trkpt lat="43.5878077" lon="12.7173788"><ele>515.5</ele><time>2026-05-02T09:09:13.2Z</time></trkpt><trkpt lat="43.5878941" lon="12.7172293"><ele>513.75</ele><time>2026-05-02T09:09:14.203Z</time></trkpt><trkpt lat="43.5879784" lon="12.7170758"><ele>512.0</ele><time>2026-05-02T09:09:15.195Z</time></trkpt><trkpt lat="43.5880569" lon="12.7169124"><ele>510.0</ele><time>2026-05-02T09:09:16.206Z</time></trkpt><trkpt lat="43.5881251" lon="12.716718"><ele>508.0</ele><time>2026-05-02T09:09:17.196Z</time></trkpt><trkpt lat="43.5881838" lon="12.7165347"><ele>506.0</ele><time>2026-05-02T09:09:18.196Z</time></trkpt><trkpt lat="43.5882449" lon="12.7163527"><ele>504.0</ele><time>2026-05-02T09:09:19.194Z</time></trkpt><trkpt lat="43.5882936" lon="12.7162091"><ele>504.0</ele><time>2026-05-02T09:09:20.192Z</time></trkpt><trkpt lat="43.5883346" lon="12.7160758"><ele>504.0</ele><time>2026-05-02T09:09:21.194Z</time></trkpt><trkpt lat="43.5883727" lon="12.7159582"><ele>504.0</ele><time>2026-05-02T09:09:22.2Z</time></trkpt><trkpt lat="43.5884009" lon="12.7158659"><ele>504.0</ele><time>2026-05-02T09:09:23.201Z</time></trkpt><trkpt lat="43.5884189" lon="12.7157578"><ele>504.0</ele><time>2026-05-02T09:09:24.198Z</time></trkpt><trkpt lat="43.5884125" lon="12.7156456"><ele>504.0</ele><time>2026-05-02T09:09:25.195Z</time></trkpt><trkpt lat="43.5883787" lon="12.7155156"><ele>503.0</ele><time>2026-05-02T09:09:26.206Z</time></trkpt><trkpt lat="43.5883183" lon="12.7153476"><ele>502.0</ele><time>2026-05-02T09:09:27.196Z</time></trkpt><trkpt lat="43.5882399" lon="12.7151609"><ele>501.0</ele><time>2026-05-02T09:09:28.199Z</time></trkpt><trkpt lat="43.5881578" lon="12.7149793"><ele>500.0</ele><time>2026-05-02T09:09:29.201Z</time></trkpt><trkpt lat="43.5880796" lon="12.7148242"><ele>498.75</ele><time>2026-05-02T09:09:30.195Z</time></trkpt><trkpt lat="43.5880204" lon="12.7146837"><ele>497.5</ele><time>2026-05-02T09:09:31.198Z</time></trkpt><trkpt lat="43.5879885" lon="12.7145479"><ele>496.25</ele><time>2026-05-02T09:09:32.195Z</time></trkpt><trkpt lat="43.5879791" lon="12.7143841"><ele>495.0</ele><time>2026-05-02T09:09:33.195Z</time></trkpt><trkpt lat="43.5879792" lon="12.7142144"><ele>494.5</ele><time>2026-05-02T09:09:34.19Z</time></trkpt><trkpt lat="43.5879808" lon="12.7140372"><ele>494.0</ele><time>2026-05-02T09:09:35.19Z</time></trkpt><trkpt lat="43.5879789" lon="12.7138627"><ele>493.5</ele><time>2026-05-02T09:09:36.194Z</time></trkpt><trkpt lat="43.5879611" lon="12.7136888"><ele>493.0</ele><time>2026-05-02T09:09:37.191Z</time></trkpt><trkpt lat="43.5879429" lon="12.7135213"><ele>493.0</ele><time>2026-05-02T09:09:38.195Z</time></trkpt><trkpt lat="43.5879318" lon="12.7133385"><ele>493.0</ele><time>2026-05-02T09:09:39.195Z</time></trkpt><trkpt lat="43.5879272" lon="12.7131429"><ele>493.0</ele><time>2026-05-02T09:09:40.194Z</time></trkpt><trkpt lat="43.5879314" lon="12.7129578"><ele>493.0</ele><time>2026-05-02T09:09:41.197Z</time></trkpt><trkpt lat="43.5879456" lon="12.7128111"><ele>493.79999999999995</ele><time>2026-05-02T09:09:42.199Z</time></trkpt><trkpt lat="43.5879622" lon="12.7126786"><ele>494.59999999999997</ele><time>2026-05-02T09:09:43.194Z</time></trkpt><trkpt lat="43.5879939" lon="12.712559"><ele>495.40000000000003</ele><time>2026-05-02T09:09:44.201Z</time></trkpt><trkpt lat="43.5880282" lon="12.7124004"><ele>496.20000000000005</ele><time>2026-05-02T09:09:45.193Z</time></trkpt><trkpt lat="43.5880521" lon="12.7122142"><ele>497.0</ele><time>2026-05-02T09:09:46.198Z</time></trkpt><trkpt lat="43.58806" lon="12.7120181"><ele>498.6</ele><time>2026-05-02T09:09:47.195Z</time></trkpt><trkpt lat="43.588064" lon="12.711845"><ele>500.20000000000005</ele><time>2026-05-02T09:09:48.193Z</time></trkpt><trkpt lat="43.5880956" lon="12.7116859"><ele>501.8</ele><time>2026-05-02T09:09:49.197Z</time></trkpt><trkpt lat="43.5881366" lon="12.7115439"><ele>503.4</ele><time>2026-05-02T09:09:50.195Z</time></trkpt><trkpt lat="43.5881783" lon="12.7114467"><ele>505.0</ele><time>2026-05-02T09:09:51.19Z</time></trkpt><trkpt lat="43.5882246" lon="12.7113702"><ele>505.00000000000006</ele><time>2026-05-02T09:09:52.194Z</time></trkpt><trkpt lat="43.5882798" lon="12.711298"><ele>505.0</ele><time>2026-05-02T09:09:53.197Z</time></trkpt><trkpt lat="43.5883459" lon="12.711241"><ele>505.0</ele><time>2026-05-02T09:09:54.194Z</time></trkpt><trkpt lat="43.5884178" lon="12.7111977"><ele>505.0</ele><time>2026-05-02T09:09:55.194Z</time></trkpt><trkpt lat="43.588499" lon="12.7111663"><ele>505.00000000000006</ele><time>2026-05-02T09:09:56.199Z</time></trkpt><trkpt lat="43.5885782" lon="12.71115"><ele>505.0</ele><time>2026-05-02T09:09:57.194Z</time></trkpt><trkpt lat="43.588656" lon="12.7111454"><ele>504.4</ele><time>2026-05-02T09:09:58.194Z</time></trkpt><trkpt lat="43.588745" lon="12.7111433"><ele>503.8</ele><time>2026-05-02T09:09:59.191Z</time></trkpt><trkpt lat="43.5888405" lon="12.7111464"><ele>503.20000000000005</ele><time>2026-05-02T09:10:00.196Z</time></trkpt><trkpt lat="43.5889441" lon="12.7111425"><ele>502.6</ele><time>2026-05-02T09:10:01.199Z</time></trkpt><trkpt lat="43.5890486" lon="12.711124"><ele>502.0</ele><time>2026-05-02T09:10:02.193Z</time></trkpt><trkpt lat="43.5891501" lon="12.7110956"><ele>505.20000000000005</ele><time>2026-05-02T09:10:03.198Z</time></trkpt><trkpt lat="43.5892393" lon="12.7110448"><ele>508.40000000000003</ele><time>2026-05-02T09:10:04.196Z</time></trkpt><trkpt lat="43.589312" lon="12.7109604"><ele>511.59999999999997</ele><time>2026-05-02T09:10:05.196Z</time></trkpt><trkpt lat="43.5893706" lon="12.7108476"><ele>514.8</ele><time>2026-05-02T09:10:06.196Z</time></trkpt><trkpt lat="43.5894238" lon="12.7106951"><ele>518.0</ele><time>2026-05-02T09:10:07.19Z</time></trkpt><trkpt lat="43.5894728" lon="12.7105224"><ele>519.25</ele><time>2026-05-02T09:10:08.194Z</time></trkpt><trkpt lat="43.5895352" lon="12.7103494"><ele>520.5</ele><time>2026-05-02T09:10:09.194Z</time></trkpt><trkpt lat="43.5896062" lon="12.7101971"><ele>521.75</ele><time>2026-05-02T09:10:10.194Z</time></trkpt><trkpt lat="43.5896837" lon="12.7100721"><ele>523.0</ele><time>2026-05-02T09:10:11.19Z</time></trkpt><trkpt lat="43.5897724" lon="12.7099757"><ele>523.0</ele><time>2026-05-02T09:10:12.196Z</time></trkpt><trkpt lat="43.5898825" lon="12.7098912"><ele>523.0</ele><time>2026-05-02T09:10:13.194Z</time></trkpt><trkpt lat="43.5899874" lon="12.7098129"><ele>523.0</ele><time>2026-05-02T09:10:14.196Z</time></trkpt><trkpt lat="43.5900728" lon="12.7097319"><ele>523.0</ele><time>2026-05-02T09:10:15.194Z</time></trkpt><trkpt lat="43.5901422" lon="12.7096347"><ele>523.0</ele><time>2026-05-02T09:10:16.202Z</time></trkpt><trkpt lat="43.5901923" lon="12.7095"><ele>525.0</ele><time>2026-05-02T09:10:17.206Z</time></trkpt><trkpt lat="43.5902275" lon="12.7093214"><ele>527.0</ele><time>2026-05-02T09:10:18.195Z</time></trkpt><trkpt lat="43.5902498" lon="12.7091215"><ele>529.0</ele><time>2026-05-02T09:10:19.199Z</time></trkpt><trkpt lat="43.5902656" lon="12.7089163"><ele>531.0</ele><time>2026-05-02T09:10:20.197Z</time></trkpt><trkpt lat="43.5902946" lon="12.7087362"><ele>531.0</ele><time>2026-05-02T09:10:21.194Z</time></trkpt><trkpt lat="43.5903341" lon="12.7085956"><ele>531.0</ele><time>2026-05-02T09:10:22.192Z</time></trkpt><trkpt lat="43.5903749" lon="12.708484"><ele>531.0</ele><time>2026-05-02T09:10:23.193Z</time></trkpt><trkpt lat="43.5904195" lon="12.7083908"><ele>531.0</ele><time>2026-05-02T09:10:24.202Z</time></trkpt><trkpt lat="43.590496" lon="12.7083289"><ele>531.0</ele><time>2026-05-02T09:10:25.187Z</time></trkpt><trkpt lat="43.5905737" lon="12.7083205"><ele>531.0</ele><time>2026-05-02T09:10:26.194Z</time></trkpt><trkpt lat="43.5906658" lon="12.7083181"><ele>532.2</ele><time>2026-05-02T09:10:27.189Z</time></trkpt><trkpt lat="43.5907715" lon="12.7083225"><ele>533.4000000000001</ele><time>2026-05-02T09:10:28.189Z</time></trkpt><trkpt lat="43.5908872" lon="12.7083217"><ele>534.6</ele><time>2026-05-02T09:10:29.191Z</time></trkpt><trkpt lat="43.5909979" lon="12.7083056"><ele>535.8000000000001</ele><time>2026-05-02T09:10:30.193Z</time></trkpt><trkpt lat="43.5910854" lon="12.7082678"><ele>537.0</ele><time>2026-05-02T09:10:31.2Z</time></trkpt><trkpt lat="43.591146" lon="12.7081969"><ele>535.8000000000001</ele><time>2026-05-02T09:10:32.193Z</time></trkpt><trkpt lat="43.5911892" lon="12.7081012"><ele>534.6</ele><time>2026-05-02T09:10:33.195Z</time></trkpt><trkpt lat="43.5912086" lon="12.707997"><ele>533.4000000000001</ele><time>2026-05-02T09:10:34.189Z</time></trkpt><trkpt lat="43.5912106" lon="12.7078785"><ele>532.2</ele><time>2026-05-02T09:10:35.188Z</time></trkpt><trkpt lat="43.5912086" lon="12.7077323"><ele>531.0</ele><time>2026-05-02T09:10:36.192Z</time></trkpt><trkpt lat="43.591194" lon="12.7075543"><ele>536.5</ele><time>2026-05-02T09:10:37.185Z</time></trkpt><trkpt lat="43.5911725" lon="12.7073592"><ele>542.0</ele><time>2026-05-02T09:10:38.192Z</time></trkpt><trkpt lat="43.5911597" lon="12.7071687"><ele>547.5</ele><time>2026-05-02T09:10:39.187Z</time></trkpt><trkpt lat="43.5911569" lon="12.706984"><ele>553.0</ele><time>2026-05-02T09:10:40.191Z</time></trkpt><trkpt lat="43.5911696" lon="12.7067987"><ele>550.75</ele><time>2026-05-02T09:10:41.189Z</time></trkpt><trkpt lat="43.5911917" lon="12.7066152"><ele>548.5</ele><time>2026-05-02T09:10:42.189Z</time></trkpt><trkpt lat="43.591222" lon="12.7064384"><ele>546.25</ele><time>2026-05-02T09:10:43.187Z</time></trkpt><trkpt lat="43.5912467" lon="12.7062868"><ele>544.0</ele><time>2026-05-02T09:10:44.183Z</time></trkpt><trkpt lat="43.5912664" lon="12.7061622"><ele>545.2</ele><time>2026-05-02T09:10:45.193Z</time></trkpt><trkpt lat="43.5912865" lon="12.7060619"><ele>546.4</ele><time>2026-05-02T09:10:46.193Z</time></trkpt><trkpt lat="43.591316" lon="12.705944"><ele>547.6</ele><time>2026-05-02T09:10:47.187Z</time></trkpt><trkpt lat="43.591359" lon="12.7058166"><ele>548.8</ele><time>2026-05-02T09:10:48.198Z</time></trkpt><trkpt lat="43.5914248" lon="12.7056824"><ele>550.0</ele><time>2026-05-02T09:10:49.189Z</time></trkpt><trkpt lat="43.5915144" lon="12.7055442"><ele>550.0</ele><time>2026-05-02T09:10:50.184Z</time></trkpt><trkpt lat="43.5916108" lon="12.7054172"><ele>550.0</ele><time>2026-05-02T09:10:51.189Z</time></trkpt><trkpt lat="43.5917172" lon="12.7052999"><ele>550.0</ele><time>2026-05-02T09:10:52.191Z</time></trkpt><trkpt lat="43.5918212" lon="12.7051771"><ele>550.0</ele><time>2026-05-02T09:10:53.187Z</time></trkpt><trkpt lat="43.5919169" lon="12.7050416"><ele>547.0</ele><time>2026-05-02T09:10:54.194Z</time></trkpt><trkpt lat="43.5919962" lon="12.7048915"><ele>544.0</ele><time>2026-05-02T09:10:55.191Z</time></trkpt><trkpt lat="43.5920722" lon="12.7047442"><ele>541.0</ele><time>2026-05-02T09:10:56.186Z</time></trkpt><trkpt lat="43.5921517" lon="12.7046236"><ele>538.0</ele><time>2026-05-02T09:10:57.188Z</time></trkpt><trkpt lat="43.592238" lon="12.7045278"><ele>538.0</ele><time>2026-05-02T09:10:58.191Z</time></trkpt><trkpt lat="43.5923123" lon="12.7044331"><ele>538.0</ele><time>2026-05-02T09:10:59.19Z</time></trkpt><trkpt lat="43.5923734" lon="12.7043344"><ele>538.0</ele><time>2026-05-02T09:11:00.19Z</time></trkpt><trkpt lat="43.592419" lon="12.7042201"><ele>538.0</ele><time>2026-05-02T09:11:01.191Z</time></trkpt><trkpt lat="43.5924516" lon="12.7040641"><ele>538.0</ele><time>2026-05-02T09:11:02.189Z</time></trkpt><trkpt lat="43.5924762" lon="12.7038816"><ele>542.0</ele><time>2026-05-02T09:11:03.188Z</time></trkpt><trkpt lat="43.5925013" lon="12.7036904"><ele>546.0</ele><time>2026-05-02T09:11:04.189Z</time></trkpt><trkpt lat="43.5925139" lon="12.7034996"><ele>550.0</ele><time>2026-05-02T09:11:05.184Z</time></trkpt><trkpt lat="43.5925173" lon="12.7033138"><ele>554.0</ele><time>2026-05-02T09:11:06.189Z</time></trkpt><trkpt lat="43.592538" lon="12.7031468"><ele>555.6</ele><time>2026-05-02T09:11:07.184Z</time></trkpt><trkpt lat="43.5925754" lon="12.7030025"><ele>557.2</ele><time>2026-05-02T09:11:08.178Z</time></trkpt><trkpt lat="43.5926123" lon="12.702873"><ele>558.8000000000001</ele><time>2026-05-02T09:11:09.179Z</time></trkpt><trkpt lat="43.5926431" lon="12.7027489"><ele>560.4</ele><time>2026-05-02T09:11:10.187Z</time></trkpt><trkpt lat="43.592694" lon="12.7026293"><ele>562.0</ele><time>2026-05-02T09:11:11.188Z</time></trkpt><trkpt lat="43.5927483" lon="12.7024999"><ele>563.75</ele><time>2026-05-02T09:11:12.183Z</time></trkpt><trkpt lat="43.5928036" lon="12.7023516"><ele>565.5</ele><time>2026-05-02T09:11:13.19Z</time></trkpt><trkpt lat="43.5928517" lon="12.7021862"><ele>567.25</ele><time>2026-05-02T09:11:14.183Z</time></trkpt><trkpt lat="43.5928899" lon="12.7020101"><ele>569.0</ele><time>2026-05-02T09:11:15.185Z</time></trkpt><trkpt lat="43.5929182" lon="12.7018311"><ele>561.75</ele><time>2026-05-02T09:11:16.183Z</time></trkpt><trkpt lat="43.5929314" lon="12.7016522"><ele>554.5</ele><time>2026-05-02T09:11:17.187Z</time></trkpt><trkpt lat="43.5929424" lon="12.7014863"><ele>547.25</ele><time>2026-05-02T09:11:18.188Z</time></trkpt><trkpt lat="43.5929518" lon="12.7013454"><ele>540.0</ele><time>2026-05-02T09:11:19.189Z</time></trkpt><trkpt lat="43.5929844" lon="12.7012051"><ele>541.5</ele><time>2026-05-02T09:11:20.193Z</time></trkpt><trkpt lat="43.5930352" lon="12.7010594"><ele>543.0</ele><time>2026-05-02T09:11:21.19Z</time></trkpt><trkpt lat="43.593097" lon="12.7008926"><ele>544.5</ele><time>2026-05-02T09:11:22.197Z</time></trkpt><trkpt lat="43.593171" lon="12.7007202"><ele>546.0</ele><time>2026-05-02T09:11:23.197Z</time></trkpt><trkpt lat="43.593244" lon="12.7005483"><ele>546.0</ele><time>2026-05-02T09:11:24.199Z</time></trkpt><trkpt lat="43.5933214" lon="12.7003862"><ele>546.0</ele><time>2026-05-02T09:11:25.197Z</time></trkpt><trkpt lat="43.5933944" lon="12.7002589"><ele>546.0</ele><time>2026-05-02T09:11:26.199Z</time></trkpt><trkpt lat="43.5934578" lon="12.7001461"><ele>546.0</ele><time>2026-05-02T09:11:27.19Z</time></trkpt><trkpt lat="43.5934975" lon="12.7000689"><ele>546.0</ele><time>2026-05-02T09:11:28.191Z</time></trkpt><trkpt lat="43.5935447" lon="12.6999907"><ele>546.3333333333334</ele><time>2026-05-02T09:11:31.197Z</time></trkpt><trkpt lat="43.5935309" lon="12.6998992"><ele>546.6666666666666</ele><time>2026-05-02T09:11:34.193Z</time></trkpt><trkpt lat="43.5935201" lon="12.6997968"><ele>547.0</ele><time>2026-05-02T09:11:36.195Z</time></trkpt><trkpt lat="43.5935191" lon="12.6996898"><ele>547.3333333333333</ele><time>2026-05-02T09:11:38.193Z</time></trkpt><trkpt lat="43.5935192" lon="12.6996009"><ele>547.6666666666666</ele><time>2026-05-02T09:11:40.197Z</time></trkpt><trkpt lat="43.5935539" lon="12.6995026"><ele>548.0</ele><time>2026-05-02T09:11:42.201Z</time></trkpt><trkpt lat="43.5936093" lon="12.6993761"><ele>548.8</ele><time>2026-05-02T09:11:44.202Z</time></trkpt><trkpt lat="43.5936724" lon="12.6992539"><ele>549.5999999999999</ele><time>2026-05-02T09:11:46.2Z</time></trkpt><trkpt lat="43.5937589" lon="12.6991825"><ele>550.4000000000001</ele><time>2026-05-02T09:11:48.198Z</time></trkpt><trkpt lat="43.5938798" lon="12.6991134"><ele>551.2</ele><time>2026-05-02T09:11:50.201Z</time></trkpt><trkpt lat="43.5939454" lon="12.6990631"><ele>552.0</ele><time>2026-05-02T09:11:51.203Z</time></trkpt><trkpt lat="43.594011" lon="12.6990002"><ele>552.0</ele><time>2026-05-02T09:11:52.2Z</time></trkpt><trkpt lat="43.5940754" lon="12.6989241"><ele>552.0</ele><time>2026-05-02T09:11:53.206Z</time></trkpt><trkpt lat="43.5941211" lon="12.6988575"><ele>552.0</ele><time>2026-05-02T09:11:54.204Z</time></trkpt><trkpt lat="43.5941954" lon="12.6987355"><ele>552.0</ele><time>2026-05-02T09:11:56.203Z</time></trkpt><trkpt lat="43.5942704" lon="12.6985997"><ele>552.0</ele><time>2026-05-02T09:11:58.205Z</time></trkpt><trkpt lat="43.5943064" lon="12.6985248"><ele>551.3333333333334</ele><time>2026-05-02T09:11:59.208Z</time></trkpt><trkpt lat="43.5943499" lon="12.6984391"><ele>550.6666666666666</ele><time>2026-05-02T09:12:00.203Z</time></trkpt><trkpt lat="43.594397" lon="12.6983417"><ele>550.0</ele><time>2026-05-02T09:12:01.206Z</time></trkpt><trkpt lat="43.5944444" lon="12.6982489"><ele>549.3333333333333</ele><time>2026-05-02T09:12:02.203Z</time></trkpt><trkpt lat="43.5944778" lon="12.6981563"><ele>548.6666666666666</ele><time>2026-05-02T09:12:03.201Z</time></trkpt><trkpt lat="43.5945013" lon="12.698062"><ele>548.0</ele><time>2026-05-02T09:12:04.206Z</time></trkpt><trkpt lat="43.594523" lon="12.6979705"><ele>549.6666666666666</ele><time>2026-05-02T09:12:05.202Z</time></trkpt><trkpt lat="43.5945522" lon="12.6978139"><ele>551.3333333333333</ele><time>2026-05-02T09:12:07.203Z</time></trkpt><trkpt lat="43.594586" lon="12.6976966"><ele>553.0</ele><time>2026-05-02T09:12:09.196Z</time></trkpt><trkpt lat="43.5946337" lon="12.697608"><ele>554.6666666666666</ele><time>2026-05-02T09:12:12.199Z</time></trkpt><trkpt lat="43.5946964" lon="12.6975286"><ele>556.3333333333334</ele><time>2026-05-02T09:12:15.198Z</time></trkpt><trkpt lat="43.5947483" lon="12.6974744"><ele>558.0</ele><time>2026-05-02T09:12:18.196Z</time></trkpt><trkpt lat="43.5948055" lon="12.6974177"><ele>557.9999999999999</ele><time>2026-05-02T09:12:21.186Z</time></trkpt><trkpt lat="43.5948576" lon="12.6973662"><ele>558.0</ele><time>2026-05-02T09:12:24.195Z</time></trkpt><trkpt lat="43.594902" lon="12.6972909"><ele>558.0</ele><time>2026-05-02T09:13:00.194Z</time></trkpt><trkpt lat="43.5949686" lon="12.6972437"><ele>558.0</ele><time>2026-05-02T09:13:03.195Z</time></trkpt><trkpt lat="43.5950113" lon="12.6971544"><ele>558.0</ele><time>2026-05-02T09:13:08.191Z</time></trkpt><trkpt lat="43.5950454" lon="12.6970654"><ele>557.9999999999999</ele><time>2026-05-02T09:13:12.203Z</time></trkpt><trkpt lat="43.5950876" lon="12.6970007"><ele>558.0</ele><time>2026-05-02T09:13:17.199Z</time></trkpt><trkpt lat="43.5951263" lon="12.6968949"><ele>555.2857142857142</ele><time>2026-05-02T09:13:22.198Z</time></trkpt><trkpt lat="43.5951589" lon="12.6968166"><ele>552.5714285714286</ele><time>2026-05-02T09:13:24.202Z</time></trkpt><trkpt lat="43.5951962" lon="12.6967335"><ele>549.8571428571429</ele><time>2026-05-02T09:13:39.289Z</time></trkpt><trkpt lat="43.5952353" lon="12.6966036"><ele>547.1428571428571</ele><time>2026-05-02T09:13:42.186Z</time></trkpt><trkpt lat="43.5952646" lon="12.6965083"><ele>544.4285714285714</ele><time>2026-05-02T09:13:44.205Z</time></trkpt><trkpt lat="43.5952973" lon="12.6964328"><ele>541.7142857142857</ele><time>2026-05-02T09:13:46.196Z</time></trkpt><trkpt lat="43.5953457" lon="12.6963631"><ele>539.0</ele><time>2026-05-02T09:13:53.207Z</time></trkpt><trkpt lat="43.5954141" lon="12.6963879"><ele>538.4285714285714</ele><time>2026-05-02T09:14:08.208Z</time></trkpt><trkpt lat="43.5954761" lon="12.6964122"><ele>537.8571428571429</ele><time>2026-05-02T09:14:17.205Z</time></trkpt><trkpt lat="43.5955377" lon="12.6964593"><ele>537.2857142857142</ele><time>2026-05-02T09:14:26.202Z</time></trkpt><trkpt lat="43.5956035" lon="12.6965057"><ele>536.7142857142858</ele><time>2026-05-02T09:14:33.2Z</time></trkpt><trkpt lat="43.595665" lon="12.6965566"><ele>536.1428571428571</ele><time>2026-05-02T09:14:36.198Z</time></trkpt><trkpt lat="43.5957441" lon="12.6965924"><ele>535.5714285714286</ele><time>2026-05-02T09:14:39.203Z</time></trkpt><trkpt lat="43.5958182" lon="12.696626"><ele>535.0</ele><time>2026-05-02T09:14:42.201Z</time></trkpt><trkpt lat="43.5958722" lon="12.6966773"><ele>535.0</ele><time>2026-05-02T09:14:44.204Z</time></trkpt><trkpt lat="43.5959458" lon="12.6967346"><ele>535.0</ele><time>2026-05-02T09:14:46.196Z</time></trkpt><trkpt lat="43.5960308" lon="12.6967164"><ele>535.0</ele><time>2026-05-02T09:14:49.197Z</time></trkpt><trkpt lat="43.5961029" lon="12.6967292"><ele>535.0</ele><time>2026-05-02T09:14:52.198Z</time></trkpt><trkpt lat="43.5961573" lon="12.6966628"><ele>535.0</ele><time>2026-05-02T09:14:56.199Z</time></trkpt><trkpt lat="43.5962193" lon="12.6965891"><ele>535.0</ele><time>2026-05-02T09:14:59.2Z</time></trkpt><trkpt lat="43.5962517" lon="12.6965091"><ele>532.8333333333334</ele><time>2026-05-02T09:15:01.199Z</time></trkpt><trkpt lat="43.5963127" lon="12.6964625"><ele>530.6666666666667</ele><time>2026-05-02T09:15:03.195Z</time></trkpt><trkpt lat="43.5963849" lon="12.6964716"><ele>528.5</ele><time>2026-05-02T09:15:54.225Z</time></trkpt><trkpt lat="43.5964582" lon="12.6964338"><ele>526.3333333333334</ele><time>2026-05-02T09:18:53.297Z</time></trkpt><trkpt lat="43.596534" lon="12.6963328"><ele>524.1666666666666</ele><time>2026-05-02T09:18:55.212Z</time></trkpt><trkpt lat="43.5965881" lon="12.6962628"><ele>522.0</ele><time>2026-05-02T09:18:56.204Z</time></trkpt><trkpt lat="43.5966571" lon="12.6961854"><ele>522.0</ele><time>2026-05-02T09:18:57.206Z</time></trkpt><trkpt lat="43.5967362" lon="12.6961035"><ele>522.0</ele><time>2026-05-02T09:18:58.205Z</time></trkpt><trkpt lat="43.5968249" lon="12.6960246"><ele>522.0</ele><time>2026-05-02T09:18:59.203Z</time></trkpt><trkpt lat="43.5969214" lon="12.6959407"><ele>522.0</ele><time>2026-05-02T09:19:00.204Z</time></trkpt><trkpt lat="43.5970207" lon="12.6958515"><ele>522.0</ele><time>2026-05-02T09:19:01.209Z</time></trkpt><trkpt lat="43.5971221" lon="12.6957564"><ele>520.75</ele><time>2026-05-02T09:19:02.206Z</time></trkpt><trkpt lat="43.5972205" lon="12.6956558"><ele>519.5</ele><time>2026-05-02T09:19:03.211Z</time></trkpt><trkpt lat="43.5973173" lon="12.6955591"><ele>518.25</ele><time>2026-05-02T09:19:04.209Z</time></trkpt><trkpt lat="43.5974166" lon="12.6954648"><ele>517.0</ele><time>2026-05-02T09:19:05.205Z</time></trkpt><trkpt lat="43.5975103" lon="12.6953792"><ele>517.0</ele><time>2026-05-02T09:19:06.209Z</time></trkpt><trkpt lat="43.5975997" lon="12.6953048"><ele>517.0</ele><time>2026-05-02T09:19:07.21Z</time></trkpt><trkpt lat="43.5976843" lon="12.6952377"><ele>517.0</ele><time>2026-05-02T09:19:08.208Z</time></trkpt><trkpt lat="43.5977643" lon="12.695167"><ele>517.0</ele><time>2026-05-02T09:19:09.204Z</time></trkpt><trkpt lat="43.5978408" lon="12.6950807"><ele>517.0</ele><time>2026-05-02T09:19:10.207Z</time></trkpt><trkpt lat="43.5979076" lon="12.6949751"><ele>514.6</ele><time>2026-05-02T09:19:11.204Z</time></trkpt><trkpt lat="43.5979664" lon="12.6948602"><ele>512.2</ele><time>2026-05-02T09:19:12.204Z</time></trkpt><trkpt lat="43.5980207" lon="12.6947433"><ele>509.8</ele><time>2026-05-02T09:19:13.208Z</time></trkpt><trkpt lat="43.5980798" lon="12.6946298"><ele>507.4</ele><time>2026-05-02T09:19:14.209Z</time></trkpt><trkpt lat="43.5981471" lon="12.6945242"><ele>505.0</ele><time>2026-05-02T09:19:15.208Z</time></trkpt><trkpt lat="43.5982194" lon="12.6944217"><ele>507.4</ele><time>2026-05-02T09:19:16.207Z</time></trkpt><trkpt lat="43.5983013" lon="12.6943238"><ele>509.8</ele><time>2026-05-02T09:19:17.209Z</time></trkpt><trkpt lat="43.5983862" lon="12.694229"><ele>512.2</ele><time>2026-05-02T09:19:18.206Z</time></trkpt><trkpt lat="43.5984662" lon="12.6941261"><ele>514.6</ele><time>2026-05-02T09:19:19.212Z</time></trkpt><trkpt lat="43.5985387" lon="12.6940213"><ele>517.0</ele><time>2026-05-02T09:19:20.201Z</time></trkpt><trkpt lat="43.5986052" lon="12.6939216"><ele>512.4</ele><time>2026-05-02T09:19:21.202Z</time></trkpt><trkpt lat="43.5986785" lon="12.6938352"><ele>507.80000000000007</ele><time>2026-05-02T09:19:22.202Z</time></trkpt><trkpt lat="43.598762" lon="12.6937567"><ele>503.2</ele><time>2026-05-02T09:19:23.206Z</time></trkpt><trkpt lat="43.5988481" lon="12.6936971"><ele>498.6</ele><time>2026-05-02T09:19:24.204Z</time></trkpt><trkpt lat="43.5989342" lon="12.6936485"><ele>494.0</ele><time>2026-05-02T09:19:25.211Z</time></trkpt><trkpt lat="43.599028" lon="12.6935974"><ele>491.4</ele><time>2026-05-02T09:19:26.205Z</time></trkpt><trkpt lat="43.5991237" lon="12.69354"><ele>488.79999999999995</ele><time>2026-05-02T09:19:27.2Z</time></trkpt><trkpt lat="43.5992173" lon="12.6934639"><ele>486.20000000000005</ele><time>2026-05-02T09:19:28.204Z</time></trkpt><trkpt lat="43.5993144" lon="12.6933954"><ele>483.6</ele><time>2026-05-02T09:19:29.202Z</time></trkpt><trkpt lat="43.5994159" lon="12.6933178"><ele>481.0</ele><time>2026-05-02T09:19:30.2Z</time></trkpt><trkpt lat="43.5995152" lon="12.6932426"><ele>481.0</ele><time>2026-05-02T09:19:31.203Z</time></trkpt><trkpt lat="43.5996107" lon="12.6931633"><ele>481.0</ele><time>2026-05-02T09:19:32.208Z</time></trkpt><trkpt lat="43.5997014" lon="12.693075"><ele>481.0</ele><time>2026-05-02T09:19:33.197Z</time></trkpt><trkpt lat="43.5997863" lon="12.6929729"><ele>481.0</ele><time>2026-05-02T09:19:34.207Z</time></trkpt><trkpt lat="43.5998711" lon="12.6928606"><ele>486.75</ele><time>2026-05-02T09:19:35.198Z</time></trkpt><trkpt lat="43.5999561" lon="12.6927348"><ele>492.5</ele><time>2026-05-02T09:19:36.198Z</time></trkpt><trkpt lat="43.6000445" lon="12.6926079"><ele>498.25</ele><time>2026-05-02T09:19:37.201Z</time></trkpt><trkpt lat="43.6001347" lon="12.6924799"><ele>504.0</ele><time>2026-05-02T09:19:38.199Z</time></trkpt><trkpt lat="43.6002315" lon="12.6923509"><ele>504.0</ele><time>2026-05-02T09:19:39.2Z</time></trkpt><trkpt lat="43.6003307" lon="12.6922246"><ele>504.0</ele><time>2026-05-02T09:19:40.201Z</time></trkpt><trkpt lat="43.6004238" lon="12.6921048"><ele>504.0</ele><time>2026-05-02T09:19:41.19Z</time></trkpt><trkpt lat="43.6005085" lon="12.6920019"><ele>504.0</ele><time>2026-05-02T09:19:42.2Z</time></trkpt><trkpt lat="43.6005895" lon="12.6919223"><ele>503.6666666666667</ele><time>2026-05-02T09:19:43.192Z</time></trkpt><trkpt lat="43.6006694" lon="12.6918578"><ele>503.33333333333337</ele><time>2026-05-02T09:19:44.189Z</time></trkpt><trkpt lat="43.6007524" lon="12.6918154"><ele>503.0</ele><time>2026-05-02T09:19:45.187Z</time></trkpt><trkpt lat="43.6008379" lon="12.6918165"><ele>502.6666666666667</ele><time>2026-05-02T09:19:46.196Z</time></trkpt><trkpt lat="43.6009159" lon="12.6918452"><ele>502.33333333333337</ele><time>2026-05-02T09:19:47.195Z</time></trkpt><trkpt lat="43.6009966" lon="12.6918794"><ele>502.0</ele><time>2026-05-02T09:19:48.198Z</time></trkpt><trkpt lat="43.6010736" lon="12.6918919"><ele>502.0</ele><time>2026-05-02T09:19:49.2Z</time></trkpt><trkpt lat="43.6011572" lon="12.6918738"><ele>502.00000000000006</ele><time>2026-05-02T09:19:50.202Z</time></trkpt><trkpt lat="43.6012243" lon="12.6918126"><ele>502.00000000000006</ele><time>2026-05-02T09:19:51.195Z</time></trkpt><trkpt lat="43.6012832" lon="12.6917221"><ele>502.0</ele><time>2026-05-02T09:19:52.198Z</time></trkpt><trkpt lat="43.6013344" lon="12.6916068"><ele>502.0</ele><time>2026-05-02T09:19:53.205Z</time></trkpt><trkpt lat="43.6013708" lon="12.6914469"><ele>495.75</ele><time>2026-05-02T09:19:54.2Z</time></trkpt><trkpt lat="43.6014162" lon="12.6912645"><ele>489.5</ele><time>2026-05-02T09:19:55.198Z</time></trkpt><trkpt lat="43.6014672" lon="12.6910898"><ele>483.25</ele><time>2026-05-02T09:19:56.197Z</time></trkpt><trkpt lat="43.6015283" lon="12.6909192"><ele>477.0</ele><time>2026-05-02T09:19:57.199Z</time></trkpt><trkpt lat="43.6015912" lon="12.6907507"><ele>477.0</ele><time>2026-05-02T09:19:58.195Z</time></trkpt><trkpt lat="43.6016584" lon="12.6905975"><ele>477.0</ele><time>2026-05-02T09:19:59.191Z</time></trkpt><trkpt lat="43.6017229" lon="12.6904548"><ele>477.0</ele><time>2026-05-02T09:20:00.192Z</time></trkpt><trkpt lat="43.6017931" lon="12.6903307"><ele>477.0</ele><time>2026-05-02T09:20:01.194Z</time></trkpt><trkpt lat="43.6018704" lon="12.6902201"><ele>473.0</ele><time>2026-05-02T09:20:02.199Z</time></trkpt><trkpt lat="43.6019544" lon="12.690112"><ele>469.0</ele><time>2026-05-02T09:20:03.194Z</time></trkpt><trkpt lat="43.6020503" lon="12.6900041"><ele>465.0</ele><time>2026-05-02T09:20:04.193Z</time></trkpt><trkpt lat="43.6021611" lon="12.6898948"><ele>461.0</ele><time>2026-05-02T09:20:05.2Z</time></trkpt><trkpt lat="43.6022644" lon="12.6897937"><ele>461.0</ele><time>2026-05-02T09:20:06.196Z</time></trkpt><trkpt lat="43.6023676" lon="12.6897022"><ele>461.0</ele><time>2026-05-02T09:20:07.194Z</time></trkpt><trkpt lat="43.6024722" lon="12.6896242"><ele>461.0</ele><time>2026-05-02T09:20:08.203Z</time></trkpt><trkpt lat="43.6025762" lon="12.6895644"><ele>461.0</ele><time>2026-05-02T09:20:09.196Z</time></trkpt><trkpt lat="43.6026758" lon="12.6895146"><ele>461.0</ele><time>2026-05-02T09:20:10.201Z</time></trkpt><trkpt lat="43.6027709" lon="12.6894796"><ele>461.0</ele><time>2026-05-02T09:20:11.194Z</time></trkpt><trkpt lat="43.6028637" lon="12.6894642"><ele>461.0</ele><time>2026-05-02T09:20:12.199Z</time></trkpt><trkpt lat="43.6029591" lon="12.6894748"><ele>461.0</ele><time>2026-05-02T09:20:13.197Z</time></trkpt><trkpt lat="43.6030699" lon="12.6894903"><ele>461.0</ele><time>2026-05-02T09:20:14.2Z</time></trkpt><trkpt lat="43.6031824" lon="12.6895"><ele>462.0</ele><time>2026-05-02T09:20:15.198Z</time></trkpt><trkpt lat="43.6032919" lon="12.6895048"><ele>463.0</ele><time>2026-05-02T09:20:16.198Z</time></trkpt><trkpt lat="43.6033977" lon="12.689497"><ele>464.0</ele><time>2026-05-02T09:20:17.194Z</time></trkpt><trkpt lat="43.6034926" lon="12.6894676"><ele>465.0</ele><time>2026-05-02T09:20:18.198Z</time></trkpt><trkpt lat="43.6035784" lon="12.6894206"><ele>466.0</ele><time>2026-05-02T09:20:19.203Z</time></trkpt><trkpt lat="43.6036516" lon="12.6893504"><ele>459.20000000000005</ele><time>2026-05-02T09:20:20.194Z</time></trkpt><trkpt lat="43.6037113" lon="12.6892533"><ele>452.40000000000003</ele><time>2026-05-02T09:20:21.196Z</time></trkpt><trkpt lat="43.6037609" lon="12.6891247"><ele>445.6</ele><time>2026-05-02T09:20:22.197Z</time></trkpt><trkpt lat="43.6038121" lon="12.6889823"><ele>438.8</ele><time>2026-05-02T09:20:23.19Z</time></trkpt><trkpt lat="43.6038629" lon="12.6888401"><ele>432.0</ele><time>2026-05-02T09:20:24.189Z</time></trkpt><trkpt lat="43.6039222" lon="12.6887136"><ele>432.0</ele><time>2026-05-02T09:20:25.193Z</time></trkpt><trkpt lat="43.6039906" lon="12.6886101"><ele>432.00000000000006</ele><time>2026-05-02T09:20:26.197Z</time></trkpt><trkpt lat="43.604077" lon="12.6885375"><ele>432.00000000000006</ele><time>2026-05-02T09:20:27.19Z</time></trkpt><trkpt lat="43.6041767" lon="12.6884904"><ele>432.0</ele><time>2026-05-02T09:20:28.2Z</time></trkpt><trkpt lat="43.6042862" lon="12.6884637"><ele>432.0</ele><time>2026-05-02T09:20:29.194Z</time></trkpt><trkpt lat="43.6044106" lon="12.6884326"><ele>433.75</ele><time>2026-05-02T09:20:30.196Z</time></trkpt><trkpt lat="43.6045394" lon="12.6883923"><ele>435.5</ele><time>2026-05-02T09:20:31.197Z</time></trkpt><trkpt lat="43.6046653" lon="12.6883436"><ele>437.25</ele><time>2026-05-02T09:20:32.192Z</time></trkpt><trkpt lat="43.6047841" lon="12.6882819"><ele>439.0</ele><time>2026-05-02T09:20:33.203Z</time></trkpt><trkpt lat="43.6048968" lon="12.6882166"><ele>439.0</ele><time>2026-05-02T09:20:34.195Z</time></trkpt><trkpt lat="43.6050102" lon="12.6881613"><ele>439.0</ele><time>2026-05-02T09:20:35.197Z</time></trkpt><trkpt lat="43.6051246" lon="12.6881175"><ele>439.0</ele><time>2026-05-02T09:20:36.191Z</time></trkpt><trkpt lat="43.6052474" lon="12.6880874"><ele>439.0</ele><time>2026-05-02T09:20:37.192Z</time></trkpt><trkpt lat="43.6053729" lon="12.6880661"><ele>436.0</ele><time>2026-05-02T09:20:38.191Z</time></trkpt><trkpt lat="43.6054974" lon="12.688057"><ele>433.0</ele><time>2026-05-02T09:20:39.197Z</time></trkpt><trkpt lat="43.6056164" lon="12.6880437"><ele>430.0</ele><time>2026-05-02T09:20:40.195Z</time></trkpt><trkpt lat="43.6057212" lon="12.6880197"><ele>427.0</ele><time>2026-05-02T09:20:41.192Z</time></trkpt><trkpt lat="43.6058073" lon="12.6879974"><ele>424.0</ele><time>2026-05-02T09:20:42.202Z</time></trkpt><trkpt lat="43.6058754" lon="12.6879384"><ele>424.0</ele><time>2026-05-02T09:20:43.199Z</time></trkpt><trkpt lat="43.6059344" lon="12.6878463"><ele>424.0</ele><time>2026-05-02T09:20:44.197Z</time></trkpt><trkpt lat="43.6059866" lon="12.6877272"><ele>424.0</ele><time>2026-05-02T09:20:45.19Z</time></trkpt><trkpt lat="43.6060312" lon="12.6875907"><ele>424.0</ele><time>2026-05-02T09:20:46.191Z</time></trkpt><trkpt lat="43.6060701" lon="12.6874577"><ele>424.0</ele><time>2026-05-02T09:20:47.19Z</time></trkpt><trkpt lat="43.6061019" lon="12.687316"><ele>427.75</ele><time>2026-05-02T09:20:48.192Z</time></trkpt><trkpt lat="43.6061337" lon="12.6871522"><ele>431.5</ele><time>2026-05-02T09:20:49.19Z</time></trkpt><trkpt lat="43.6061549" lon="12.6869797"><ele>435.25</ele><time>2026-05-02T09:20:50.182Z</time></trkpt><trkpt lat="43.6061802" lon="12.6868059"><ele>439.0</ele><time>2026-05-02T09:20:51.185Z</time></trkpt><trkpt lat="43.6062096" lon="12.6866445"><ele>434.4</ele><time>2026-05-02T09:20:52.191Z</time></trkpt><trkpt lat="43.6062408" lon="12.6864945"><ele>429.79999999999995</ele><time>2026-05-02T09:20:53.192Z</time></trkpt><trkpt lat="43.6062691" lon="12.6863565"><ele>425.20000000000005</ele><time>2026-05-02T09:20:54.193Z</time></trkpt><trkpt lat="43.6062992" lon="12.686236"><ele>420.6</ele><time>2026-05-02T09:20:55.192Z</time></trkpt><trkpt lat="43.6063358" lon="12.6861317"><ele>416.0</ele><time>2026-05-02T09:20:56.182Z</time></trkpt><trkpt lat="43.6063802" lon="12.6860495"><ele>416.0</ele><time>2026-05-02T09:20:57.186Z</time></trkpt><trkpt lat="43.6064487" lon="12.6859808"><ele>416.0</ele><time>2026-05-02T09:20:58.189Z</time></trkpt><trkpt lat="43.6065299" lon="12.6859227"><ele>416.0</ele><time>2026-05-02T09:20:59.186Z</time></trkpt><trkpt lat="43.6066143" lon="12.685859"><ele>416.0</ele><time>2026-05-02T09:21:00.193Z</time></trkpt><trkpt lat="43.6066969" lon="12.6857707"><ele>416.0</ele><time>2026-05-02T09:21:01.193Z</time></trkpt><trkpt lat="43.6067646" lon="12.6856548"><ele>416.0</ele><time>2026-05-02T09:21:02.182Z</time></trkpt><trkpt lat="43.60683" lon="12.6855407"><ele>416.0</ele><time>2026-05-02T09:21:03.192Z</time></trkpt><trkpt lat="43.6069043" lon="12.6854472"><ele>416.0</ele><time>2026-05-02T09:21:04.189Z</time></trkpt><trkpt lat="43.6069928" lon="12.6853703"><ele>416.0</ele><time>2026-05-02T09:21:05.189Z</time></trkpt><trkpt lat="43.6070936" lon="12.685296"><ele>416.0</ele><time>2026-05-02T09:21:06.187Z</time></trkpt><trkpt lat="43.6072019" lon="12.6852196"><ele>412.75</ele><time>2026-05-02T09:21:07.188Z</time></trkpt><trkpt lat="43.607306" lon="12.6851327"><ele>409.5</ele><time>2026-05-02T09:21:08.19Z</time></trkpt><trkpt lat="43.6074067" lon="12.685035"><ele>406.25</ele><time>2026-05-02T09:21:09.187Z</time></trkpt><trkpt lat="43.6075078" lon="12.68493"><ele>403.0</ele><time>2026-05-02T09:21:10.19Z</time></trkpt><trkpt lat="43.6076086" lon="12.6848091"><ele>403.0</ele><time>2026-05-02T09:21:11.191Z</time></trkpt><trkpt lat="43.6077096" lon="12.6846879"><ele>403.0</ele><time>2026-05-02T09:21:12.192Z</time></trkpt><trkpt lat="43.6078158" lon="12.6845644"><ele>403.0</ele><time>2026-05-02T09:21:13.196Z</time></trkpt><trkpt lat="43.6079239" lon="12.6844399"><ele>403.0</ele><time>2026-05-02T09:21:14.198Z</time></trkpt><trkpt lat="43.6080277" lon="12.6843367"><ele>400.5</ele><time>2026-05-02T09:21:15.199Z</time></trkpt><trkpt lat="43.608122" lon="12.6842304"><ele>398.0</ele><time>2026-05-02T09:21:16.198Z</time></trkpt><trkpt lat="43.6082116" lon="12.684128"><ele>395.5</ele><time>2026-05-02T09:21:17.194Z</time></trkpt><trkpt lat="43.6083106" lon="12.6840181"><ele>393.0</ele><time>2026-05-02T09:21:18.197Z</time></trkpt><trkpt lat="43.6084088" lon="12.6839098"><ele>393.0</ele><time>2026-05-02T09:21:19.199Z</time></trkpt><trkpt lat="43.608523" lon="12.6838102"><ele>393.0</ele><time>2026-05-02T09:21:20.199Z</time></trkpt><trkpt lat="43.6086356" lon="12.6837094"><ele>393.0</ele><time>2026-05-02T09:21:21.194Z</time></trkpt><trkpt lat="43.608745" lon="12.6836043"><ele>393.0</ele><time>2026-05-02T09:21:22.2Z</time></trkpt><trkpt lat="43.6088469" lon="12.683498"><ele>390.5</ele><time>2026-05-02T09:21:23.196Z</time></trkpt><trkpt lat="43.6089406" lon="12.6833901"><ele>388.0</ele><time>2026-05-02T09:21:24.202Z</time></trkpt><trkpt lat="43.6090255" lon="12.6832827"><ele>385.5</ele><time>2026-05-02T09:21:25.195Z</time></trkpt><trkpt lat="43.6091061" lon="12.6831768"><ele>383.0</ele><time>2026-05-02T09:21:26.199Z</time></trkpt><trkpt lat="43.6091957" lon="12.6830839"><ele>383.0</ele><time>2026-05-02T09:21:27.2Z</time></trkpt><trkpt lat="43.6092925" lon="12.6830052"><ele>383.0</ele><time>2026-05-02T09:21:28.201Z</time></trkpt><trkpt lat="43.6093944" lon="12.6829438"><ele>383.0</ele><time>2026-05-02T09:21:29.195Z</time></trkpt><trkpt lat="43.6095049" lon="12.6829018"><ele>383.0</ele><time>2026-05-02T09:21:30.193Z</time></trkpt><trkpt lat="43.6096194" lon="12.6828819"><ele>382.59999999999997</ele><time>2026-05-02T09:21:31.197Z</time></trkpt><trkpt lat="43.609726" lon="12.6828626"><ele>382.2</ele><time>2026-05-02T09:21:32.199Z</time></trkpt><trkpt lat="43.6098212" lon="12.6828117"><ele>381.8</ele><time>2026-05-02T09:21:33.199Z</time></trkpt><trkpt lat="43.6099177" lon="12.6827278"><ele>381.4</ele><time>2026-05-02T09:21:34.198Z</time></trkpt><trkpt lat="43.6100123" lon="12.6826255"><ele>381.0</ele><time>2026-05-02T09:21:35.197Z</time></trkpt><trkpt lat="43.6100987" lon="12.6824949"><ele>381.0</ele><time>2026-05-02T09:21:36.196Z</time></trkpt><trkpt lat="43.610183" lon="12.6823556"><ele>381.0</ele><time>2026-05-02T09:21:37.2Z</time></trkpt><trkpt lat="43.6102572" lon="12.6822274"><ele>381.0</ele><time>2026-05-02T09:21:38.195Z</time></trkpt><trkpt lat="43.6103345" lon="12.6821217"><ele>381.0</ele><time>2026-05-02T09:21:39.195Z</time></trkpt><trkpt lat="43.61042" lon="12.6820314"><ele>378.25</ele><time>2026-05-02T09:21:40.199Z</time></trkpt><trkpt lat="43.6105123" lon="12.6819578"><ele>375.5</ele><time>2026-05-02T09:21:41.194Z</time></trkpt><trkpt lat="43.6106118" lon="12.6818982"><ele>372.75</ele><time>2026-05-02T09:21:42.2Z</time></trkpt><trkpt lat="43.6107242" lon="12.6818708"><ele>370.0</ele><time>2026-05-02T09:21:43.199Z</time></trkpt><trkpt lat="43.6108533" lon="12.6818643"><ele>370.0</ele><time>2026-05-02T09:21:44.201Z</time></trkpt><trkpt lat="43.6109892" lon="12.6818623"><ele>370.0</ele><time>2026-05-02T09:21:45.203Z</time></trkpt><trkpt lat="43.6111333" lon="12.6818505"><ele>370.0</ele><time>2026-05-02T09:21:46.205Z</time></trkpt><trkpt lat="43.6112765" lon="12.6818327"><ele>370.0</ele><time>2026-05-02T09:21:47.2Z</time></trkpt><trkpt lat="43.611413" lon="12.6818108"><ele>368.5</ele><time>2026-05-02T09:21:48.21Z</time></trkpt><trkpt lat="43.6115438" lon="12.6817938"><ele>367.0</ele><time>2026-05-02T09:21:49.207Z</time></trkpt><trkpt lat="43.6116721" lon="12.6817695"><ele>365.5</ele><time>2026-05-02T09:21:50.205Z</time></trkpt><trkpt lat="43.6117978" lon="12.681745"><ele>364.0</ele><time>2026-05-02T09:21:51.21Z</time></trkpt><trkpt lat="43.6119181" lon="12.6817194"><ele>362.0</ele><time>2026-05-02T09:21:52.205Z</time></trkpt><trkpt lat="43.6120336" lon="12.6817022"><ele>360.0</ele><time>2026-05-02T09:21:53.203Z</time></trkpt><trkpt lat="43.6121396" lon="12.6816812"><ele>358.0</ele><time>2026-05-02T09:21:54.21Z</time></trkpt><trkpt lat="43.6122414" lon="12.6816653"><ele>356.0</ele><time>2026-05-02T09:21:55.204Z</time></trkpt><trkpt lat="43.612344" lon="12.6816511"><ele>354.0</ele><time>2026-05-02T09:21:56.207Z</time></trkpt><trkpt lat="43.6124408" lon="12.6816413"><ele>354.0</ele><time>2026-05-02T09:21:57.207Z</time></trkpt><trkpt lat="43.6125328" lon="12.6816439"><ele>354.0</ele><time>2026-05-02T09:21:58.205Z</time></trkpt><trkpt lat="43.6126209" lon="12.6816757"><ele>354.0</ele><time>2026-05-02T09:21:59.212Z</time></trkpt><trkpt lat="43.6127057" lon="12.6817395"><ele>354.0</ele><time>2026-05-02T09:22:00.199Z</time></trkpt><trkpt lat="43.6128033" lon="12.6818171"><ele>354.0</ele><time>2026-05-02T09:22:01.201Z</time></trkpt><trkpt lat="43.6129044" lon="12.6818929"><ele>351.79999999999995</ele><time>2026-05-02T09:22:02.201Z</time></trkpt><trkpt lat="43.6129961" lon="12.6819774"><ele>349.59999999999997</ele><time>2026-05-02T09:22:03.205Z</time></trkpt><trkpt lat="43.6130854" lon="12.6820791"><ele>347.4</ele><time>2026-05-02T09:22:04.205Z</time></trkpt><trkpt lat="43.6131635" lon="12.6821793"><ele>345.2</ele><time>2026-05-02T09:22:05.201Z</time></trkpt><trkpt lat="43.6132332" lon="12.6822744"><ele>343.0</ele><time>2026-05-02T09:22:06.2Z</time></trkpt><trkpt lat="43.6132895" lon="12.6823543"><ele>343.0</ele><time>2026-05-02T09:22:07.204Z</time></trkpt><trkpt lat="43.6133282" lon="12.6824351"><ele>343.0</ele><time>2026-05-02T09:22:08.204Z</time></trkpt><trkpt lat="43.613356" lon="12.6825211"><ele>343.0</ele><time>2026-05-02T09:22:09.202Z</time></trkpt><trkpt lat="43.6133634" lon="12.6826156"><ele>343.0</ele><time>2026-05-02T09:22:10.207Z</time></trkpt><trkpt lat="43.6133573" lon="12.6827176"><ele>343.0</ele><time>2026-05-02T09:22:11.203Z</time></trkpt><trkpt lat="43.6133455" lon="12.682823"><ele>343.0</ele><time>2026-05-02T09:22:12.198Z</time></trkpt><trkpt lat="43.6133349" lon="12.6829241"><ele>343.0</ele><time>2026-05-02T09:22:13.202Z</time></trkpt><trkpt lat="43.6133383" lon="12.6830622"><ele>343.0</ele><time>2026-05-02T09:22:15.204Z</time></trkpt><trkpt lat="43.6134113" lon="12.6831102"><ele>343.0</ele><time>2026-05-02T09:22:17.202Z</time></trkpt><trkpt lat="43.613499" lon="12.6830278"><ele>343.0</ele><time>2026-05-02T09:22:19.198Z</time></trkpt><trkpt lat="43.6135457" lon="12.6829685"><ele>343.0</ele><time>2026-05-02T09:22:20.198Z</time></trkpt><trkpt lat="43.6135968" lon="12.6828258"><ele>343.0</ele><time>2026-05-02T09:22:22.199Z</time></trkpt><trkpt lat="43.613592" lon="12.6826469"><ele>343.0</ele><time>2026-05-02T09:22:24.199Z</time></trkpt><trkpt lat="43.6135753" lon="12.6825486"><ele>343.0</ele><time>2026-05-02T09:22:25.192Z</time></trkpt><trkpt lat="43.6135468" lon="12.6824427"><ele>343.0</ele><time>2026-05-02T09:22:26.189Z</time></trkpt><trkpt lat="43.613516" lon="12.6823129"><ele>343.0</ele><time>2026-05-02T09:22:27.189Z</time></trkpt><trkpt lat="43.613478" lon="12.682186"><ele>343.0</ele><time>2026-05-02T09:22:28.193Z</time></trkpt><trkpt lat="43.6134454" lon="12.6820744"><ele>343.0</ele><time>2026-05-02T09:22:29.186Z</time></trkpt><trkpt lat="43.6134222" lon="12.681982"><ele>343.0</ele><time>2026-05-02T09:22:30.191Z</time></trkpt><trkpt lat="43.6134086" lon="12.6818616"><ele>343.0</ele><time>2026-05-02T09:22:32.186Z</time></trkpt><trkpt lat="43.6134387" lon="12.6817835"><ele>343.0</ele><time>2026-05-02T09:22:34.186Z</time></trkpt><trkpt lat="43.6135197" lon="12.681784"><ele>343.0</ele><time>2026-05-02T09:22:37.195Z</time></trkpt><trkpt lat="43.6135851" lon="12.6818846"><ele>343.0</ele><time>2026-05-02T09:22:39.188Z</time></trkpt><trkpt lat="43.6136252" lon="12.6819691"><ele>343.0</ele><time>2026-05-02T09:22:40.19Z</time></trkpt><trkpt lat="43.6136766" lon="12.6820662"><ele>338.4</ele><time>2026-05-02T09:22:41.19Z</time></trkpt><trkpt lat="43.6137439" lon="12.6821635"><ele>333.79999999999995</ele><time>2026-05-02T09:22:42.19Z</time></trkpt><trkpt lat="43.6138203" lon="12.6822646"><ele>329.2</ele><time>2026-05-02T09:22:43.186Z</time></trkpt><trkpt lat="43.6138956" lon="12.6823671"><ele>324.6</ele><time>2026-05-02T09:22:44.197Z</time></trkpt><trkpt lat="43.6139656" lon="12.6824846"><ele>320.0</ele><time>2026-05-02T09:22:45.196Z</time></trkpt><trkpt lat="43.6140181" lon="12.6826112"><ele>320.0</ele><time>2026-05-02T09:22:46.198Z</time></trkpt><trkpt lat="43.6140586" lon="12.6827464"><ele>320.0</ele><time>2026-05-02T09:22:47.191Z</time></trkpt><trkpt lat="43.6140728" lon="12.6828781"><ele>320.0</ele><time>2026-05-02T09:22:48.189Z</time></trkpt><trkpt lat="43.6140582" lon="12.68301"><ele>320.0</ele><time>2026-05-02T09:22:49.199Z</time></trkpt><trkpt lat="43.6140019" lon="12.683146"><ele>320.0</ele><time>2026-05-02T09:22:50.195Z</time></trkpt><trkpt lat="43.6139212" lon="12.6832771"><ele>316.75</ele><time>2026-05-02T09:22:51.199Z</time></trkpt><trkpt lat="43.6138325" lon="12.683401"><ele>313.5</ele><time>2026-05-02T09:22:52.191Z</time></trkpt><trkpt lat="43.6137243" lon="12.6835318"><ele>310.25</ele><time>2026-05-02T09:22:53.194Z</time></trkpt><trkpt lat="43.6136092" lon="12.6836616"><ele>307.0</ele><time>2026-05-02T09:22:54.192Z</time></trkpt><trkpt lat="43.613491" lon="12.6837916"><ele>307.0</ele><time>2026-05-02T09:22:55.193Z</time></trkpt><trkpt lat="43.6133741" lon="12.6839091"><ele>307.0</ele><time>2026-05-02T09:22:56.19Z</time></trkpt><trkpt lat="43.6132535" lon="12.6840226"><ele>307.0</ele><time>2026-05-02T09:22:57.192Z</time></trkpt><trkpt lat="43.6131568" lon="12.6841185"><ele>307.0</ele><time>2026-05-02T09:22:58.191Z</time></trkpt><trkpt lat="43.6130747" lon="12.6842035"><ele>307.0</ele><time>2026-05-02T09:22:59.192Z</time></trkpt><trkpt lat="43.6130054" lon="12.684278"><ele>307.0</ele><time>2026-05-02T09:23:00.194Z</time></trkpt><trkpt lat="43.612944" lon="12.6843436"><ele>307.0</ele><time>2026-05-02T09:23:01.191Z</time></trkpt><trkpt lat="43.6128766" lon="12.6843844"><ele>307.0</ele><time>2026-05-02T09:23:02.192Z</time></trkpt><trkpt lat="43.612795" lon="12.68441"><ele>307.0</ele><time>2026-05-02T09:23:03.199Z</time></trkpt><trkpt lat="43.6127059" lon="12.6844031"><ele>307.0</ele><time>2026-05-02T09:23:04.204Z</time></trkpt><trkpt lat="43.6126157" lon="12.6843772"><ele>307.8333333333333</ele><time>2026-05-02T09:23:05.198Z</time></trkpt><trkpt lat="43.6125347" lon="12.6843371"><ele>308.66666666666663</ele><time>2026-05-02T09:23:06.191Z</time></trkpt><trkpt lat="43.612462" lon="12.6842921"><ele>309.5</ele><time>2026-05-02T09:23:07.201Z</time></trkpt><trkpt lat="43.6124008" lon="12.6842558"><ele>310.3333333333333</ele><time>2026-05-02T09:23:08.194Z</time></trkpt><trkpt lat="43.6123023" lon="12.6842303"><ele>311.1666666666667</ele><time>2026-05-02T09:23:10.199Z</time></trkpt><trkpt lat="43.6122675" lon="12.6843185"><ele>312.0</ele><time>2026-05-02T09:23:13.198Z</time></trkpt><trkpt lat="43.6123827" lon="12.6843897"><ele>308.0</ele><time>2026-05-02T09:23:15.194Z</time></trkpt><trkpt lat="43.6124683" lon="12.6844297"><ele>304.0</ele><time>2026-05-02T09:23:16.191Z</time></trkpt><trkpt lat="43.6125586" lon="12.6844817"><ele>300.0</ele><time>2026-05-02T09:23:17.191Z</time></trkpt><trkpt lat="43.612654" lon="12.6845474"><ele>296.0</ele><time>2026-05-02T09:23:18.188Z</time></trkpt><trkpt lat="43.6127568" lon="12.6846057"><ele>292.0</ele><time>2026-05-02T09:23:19.196Z</time></trkpt><trkpt lat="43.6128651" lon="12.6846493"><ele>289.0</ele><time>2026-05-02T09:23:20.193Z</time></trkpt><trkpt lat="43.6129902" lon="12.6846717"><ele>286.0</ele><time>2026-05-02T09:23:21.195Z</time></trkpt><trkpt lat="43.6131167" lon="12.6846665"><ele>283.0</ele><time>2026-05-02T09:23:22.195Z</time></trkpt><trkpt lat="43.6132335" lon="12.6846415"><ele>280.0</ele><time>2026-05-02T09:23:23.193Z</time></trkpt><trkpt lat="43.6133476" lon="12.6846207"><ele>280.0</ele><time>2026-05-02T09:23:24.196Z</time></trkpt><trkpt lat="43.6134587" lon="12.6845838"><ele>280.0</ele><time>2026-05-02T09:23:25.193Z</time></trkpt><trkpt lat="43.6135781" lon="12.6845296"><ele>280.0</ele><time>2026-05-02T09:23:26.191Z</time></trkpt><trkpt lat="43.6136998" lon="12.6844537"><ele>280.0</ele><time>2026-05-02T09:23:27.189Z</time></trkpt><trkpt lat="43.6138281" lon="12.6843751"><ele>281.0</ele><time>2026-05-02T09:23:28.194Z</time></trkpt><trkpt lat="43.613959" lon="12.6843004"><ele>282.0</ele><time>2026-05-02T09:23:29.191Z</time></trkpt><trkpt lat="43.6140933" lon="12.684238"><ele>283.0</ele><time>2026-05-02T09:23:30.192Z</time></trkpt><trkpt lat="43.6142232" lon="12.6841959"><ele>284.0</ele><time>2026-05-02T09:23:31.191Z</time></trkpt><trkpt lat="43.6143476" lon="12.6841471"><ele>284.0</ele><time>2026-05-02T09:23:32.194Z</time></trkpt><trkpt lat="43.6144622" lon="12.6841007"><ele>284.0</ele><time>2026-05-02T09:23:33.19Z</time></trkpt><trkpt lat="43.6145762" lon="12.6840499"><ele>284.0</ele><time>2026-05-02T09:23:34.192Z</time></trkpt><trkpt lat="43.6146869" lon="12.6840044"><ele>284.0</ele><time>2026-05-02T09:23:35.194Z</time></trkpt><trkpt lat="43.6147964" lon="12.68395"><ele>280.5</ele><time>2026-05-02T09:23:36.192Z</time></trkpt><trkpt lat="43.6149116" lon="12.6839056"><ele>277.0</ele><time>2026-05-02T09:23:37.193Z</time></trkpt><trkpt lat="43.6150252" lon="12.6838565"><ele>273.5</ele><time>2026-05-02T09:23:38.188Z</time></trkpt><trkpt lat="43.6151423" lon="12.6837971"><ele>270.0</ele><time>2026-05-02T09:23:39.194Z</time></trkpt><trkpt lat="43.6152556" lon="12.6837351"><ele>268.75</ele><time>2026-05-02T09:23:40.191Z</time></trkpt><trkpt lat="43.6153623" lon="12.6836731"><ele>267.5</ele><time>2026-05-02T09:23:41.194Z</time></trkpt><trkpt lat="43.6154696" lon="12.6836115"><ele>266.25</ele><time>2026-05-02T09:23:42.191Z</time></trkpt><trkpt lat="43.6155796" lon="12.6835487"><ele>265.0</ele><time>2026-05-02T09:23:43.192Z</time></trkpt><trkpt lat="43.6156864" lon="12.6834899"><ele>265.0</ele><time>2026-05-02T09:23:44.193Z</time></trkpt><trkpt lat="43.6157861" lon="12.6834347"><ele>265.0</ele><time>2026-05-02T09:23:45.187Z</time></trkpt><trkpt lat="43.6158724" lon="12.6833755"><ele>265.0</ele><time>2026-05-02T09:23:46.195Z</time></trkpt><trkpt lat="43.6159493" lon="12.683303"><ele>265.0</ele><time>2026-05-02T09:23:47.189Z</time></trkpt><trkpt lat="43.6160239" lon="12.6832072"><ele>265.0</ele><time>2026-05-02T09:23:48.194Z</time></trkpt><trkpt lat="43.6160895" lon="12.6830791"><ele>265.0</ele><time>2026-05-02T09:23:49.19Z</time></trkpt><trkpt lat="43.616152" lon="12.682931"><ele>265.0</ele><time>2026-05-02T09:23:50.19Z</time></trkpt><trkpt lat="43.6162083" lon="12.6827565"><ele>265.0</ele><time>2026-05-02T09:23:51.188Z</time></trkpt><trkpt lat="43.6162594" lon="12.6825784"><ele>265.0</ele><time>2026-05-02T09:23:52.189Z</time></trkpt><trkpt lat="43.6163028" lon="12.6824139"><ele>262.5</ele><time>2026-05-02T09:23:53.19Z</time></trkpt><trkpt lat="43.6163641" lon="12.6822509"><ele>260.0</ele><time>2026-05-02T09:23:54.194Z</time></trkpt><trkpt lat="43.6164458" lon="12.6820974"><ele>257.5</ele><time>2026-05-02T09:23:55.196Z</time></trkpt><trkpt lat="43.6165378" lon="12.6819509"><ele>255.0</ele><time>2026-05-02T09:23:56.19Z</time></trkpt><trkpt lat="43.6166391" lon="12.6818209"><ele>255.0</ele><time>2026-05-02T09:23:57.194Z</time></trkpt><trkpt lat="43.6167382" lon="12.6817014"><ele>255.0</ele><time>2026-05-02T09:23:58.189Z</time></trkpt><trkpt lat="43.6168365" lon="12.6815961"><ele>255.0</ele><time>2026-05-02T09:23:59.191Z</time></trkpt><trkpt lat="43.6169301" lon="12.6814902"><ele>255.0</ele><time>2026-05-02T09:24:00.186Z</time></trkpt><trkpt lat="43.617024" lon="12.6813834"><ele>253.8</ele><time>2026-05-02T09:24:01.193Z</time></trkpt><trkpt lat="43.6171195" lon="12.6812719"><ele>252.6</ele><time>2026-05-02T09:24:02.192Z</time></trkpt><trkpt lat="43.6172131" lon="12.6811716"><ele>251.39999999999998</ele><time>2026-05-02T09:24:03.188Z</time></trkpt><trkpt lat="43.6173023" lon="12.6810831"><ele>250.2</ele><time>2026-05-02T09:24:04.19Z</time></trkpt><trkpt lat="43.6173805" lon="12.6810163"><ele>249.0</ele><time>2026-05-02T09:24:05.191Z</time></trkpt><trkpt lat="43.6174482" lon="12.680982"><ele>249.0</ele><time>2026-05-02T09:24:06.186Z</time></trkpt><trkpt lat="43.6175448" lon="12.6808857"><ele>248.99999999999997</ele><time>2026-05-02T09:24:08.188Z</time></trkpt><trkpt lat="43.6175735" lon="12.680692"><ele>248.99999999999997</ele><time>2026-05-02T09:24:10.194Z</time></trkpt><trkpt lat="43.6175793" lon="12.6805781"><ele>249.0</ele><time>2026-05-02T09:24:11.19Z</time></trkpt><trkpt lat="43.6176025" lon="12.6804584"><ele>249.0</ele><time>2026-05-02T09:24:12.194Z</time></trkpt><trkpt lat="43.617648" lon="12.6803395"><ele>249.33333333333334</ele><time>2026-05-02T09:24:13.187Z</time></trkpt><trkpt lat="43.6177203" lon="12.6802315"><ele>249.66666666666669</ele><time>2026-05-02T09:24:14.193Z</time></trkpt><trkpt lat="43.617806" lon="12.680146"><ele>250.0</ele><time>2026-05-02T09:24:15.184Z</time></trkpt><trkpt lat="43.6178825" lon="12.6800768"><ele>250.33333333333334</ele><time>2026-05-02T09:24:16.189Z</time></trkpt><trkpt lat="43.6179472" lon="12.6800179"><ele>250.66666666666669</ele><time>2026-05-02T09:24:17.191Z</time></trkpt><trkpt lat="43.6179947" lon="12.6799605"><ele>251.0</ele><time>2026-05-02T09:24:18.19Z</time></trkpt><trkpt lat="43.6180247" lon="12.6798835"><ele>247.60000000000002</ele><time>2026-05-02T09:24:19.192Z</time></trkpt><trkpt lat="43.618041" lon="12.6797986"><ele>244.20000000000002</ele><time>2026-05-02T09:24:20.195Z</time></trkpt><trkpt lat="43.6180188" lon="12.6797054"><ele>240.79999999999998</ele><time>2026-05-02T09:24:21.192Z</time></trkpt><trkpt lat="43.6179563" lon="12.679608"><ele>237.39999999999998</ele><time>2026-05-02T09:24:22.187Z</time></trkpt><trkpt lat="43.6178674" lon="12.679509"><ele>234.0</ele><time>2026-05-02T09:24:23.192Z</time></trkpt><trkpt lat="43.617765" lon="12.6794047"><ele>234.0</ele><time>2026-05-02T09:24:24.185Z</time></trkpt><trkpt lat="43.6176567" lon="12.6792903"><ele>234.0</ele><time>2026-05-02T09:24:25.186Z</time></trkpt><trkpt lat="43.6175503" lon="12.6791758"><ele>234.0</ele><time>2026-05-02T09:24:26.184Z</time></trkpt><trkpt lat="43.6174512" lon="12.6790645"><ele>234.0</ele><time>2026-05-02T09:24:27.182Z</time></trkpt><trkpt lat="43.6173535" lon="12.6789501"><ele>234.0</ele><time>2026-05-02T09:24:28.187Z</time></trkpt><trkpt lat="43.6172637" lon="12.6788455"><ele>233.99999999999997</ele><time>2026-05-02T09:24:29.179Z</time></trkpt><trkpt lat="43.6171891" lon="12.6787456"><ele>233.99999999999997</ele><time>2026-05-02T09:24:30.181Z</time></trkpt><trkpt lat="43.6171313" lon="12.6786499"><ele>234.0</ele><time>2026-05-02T09:24:31.179Z</time></trkpt><trkpt lat="43.6170788" lon="12.6785476"><ele>234.0</ele><time>2026-05-02T09:24:32.178Z</time></trkpt><trkpt lat="43.6170439" lon="12.6784394"><ele>229.25</ele><time>2026-05-02T09:24:33.183Z</time></trkpt><trkpt lat="43.6170248" lon="12.6782982"><ele>224.5</ele><time>2026-05-02T09:24:34.185Z</time></trkpt><trkpt lat="43.617038" lon="12.6781364"><ele>219.75</ele><time>2026-05-02T09:24:35.18Z</time></trkpt><trkpt lat="43.6170481" lon="12.6779634"><ele>215.0</ele><time>2026-05-02T09:24:36.183Z</time></trkpt><trkpt lat="43.6170513" lon="12.6777996"><ele>213.8</ele><time>2026-05-02T09:24:37.174Z</time></trkpt><trkpt lat="43.6170462" lon="12.6776519"><ele>212.6</ele><time>2026-05-02T09:24:38.178Z</time></trkpt><trkpt lat="43.6170364" lon="12.6775005"><ele>211.39999999999998</ele><time>2026-05-02T09:24:39.179Z</time></trkpt><trkpt lat="43.617011" lon="12.6773705"><ele>210.2</ele><time>2026-05-02T09:24:40.186Z</time></trkpt><trkpt lat="43.6169665" lon="12.6772502"><ele>209.0</ele><time>2026-05-02T09:24:41.186Z</time></trkpt><trkpt lat="43.6169142" lon="12.6771465"><ele>208.83333333333334</ele><time>2026-05-02T09:24:42.185Z</time></trkpt><trkpt lat="43.6168549" lon="12.6770564"><ele>208.66666666666669</ele><time>2026-05-02T09:24:43.193Z</time></trkpt><trkpt lat="43.6167815" lon="12.6769781"><ele>208.5</ele><time>2026-05-02T09:24:44.186Z</time></trkpt><trkpt lat="43.6167077" lon="12.6769178"><ele>208.33333333333331</ele><time>2026-05-02T09:24:45.188Z</time></trkpt><trkpt lat="43.6166414" lon="12.6768698"><ele>208.16666666666666</ele><time>2026-05-02T09:24:46.184Z</time></trkpt><trkpt lat="43.6165697" lon="12.6767632"><ele>208.0</ele><time>2026-05-02T09:24:48.187Z</time></trkpt><trkpt lat="43.6165832" lon="12.6766776"><ele>208.0</ele><time>2026-05-02T09:24:49.189Z</time></trkpt><trkpt lat="43.6166253" lon="12.6765841"><ele>208.0</ele><time>2026-05-02T09:24:50.189Z</time></trkpt><trkpt lat="43.6166822" lon="12.6764793"><ele>208.0</ele><time>2026-05-02T09:24:51.187Z</time></trkpt><trkpt lat="43.6167524" lon="12.676373"><ele>208.0</ele><time>2026-05-02T09:24:52.192Z</time></trkpt><trkpt lat="43.6168274" lon="12.6762704"><ele>208.0</ele><time>2026-05-02T09:24:53.196Z</time></trkpt><trkpt lat="43.6169021" lon="12.6761766"><ele>207.4</ele><time>2026-05-02T09:24:54.195Z</time></trkpt><trkpt lat="43.6169786" lon="12.676096"><ele>206.8</ele><time>2026-05-02T09:24:55.195Z</time></trkpt><trkpt lat="43.6170586" lon="12.6760558"><ele>206.2</ele><time>2026-05-02T09:24:56.196Z</time></trkpt><trkpt lat="43.6171476" lon="12.6760601"><ele>205.6</ele><time>2026-05-02T09:24:57.199Z</time></trkpt><trkpt lat="43.61724" lon="12.6760925"><ele>205.0</ele><time>2026-05-02T09:24:58.194Z</time></trkpt><trkpt lat="43.617333" lon="12.6761594"><ele>205.0</ele><time>2026-05-02T09:24:59.197Z</time></trkpt><trkpt lat="43.6174267" lon="12.6762563"><ele>205.0</ele><time>2026-05-02T09:25:00.195Z</time></trkpt><trkpt lat="43.6175158" lon="12.6763665"><ele>205.0</ele><time>2026-05-02T09:25:01.197Z</time></trkpt><trkpt lat="43.617601" lon="12.6764817"><ele>205.0</ele><time>2026-05-02T09:25:02.195Z</time></trkpt><trkpt lat="43.6176865" lon="12.6765937"><ele>205.0</ele><time>2026-05-02T09:25:03.198Z</time></trkpt><trkpt lat="43.6177775" lon="12.6767024"><ele>205.0</ele><time>2026-05-02T09:25:04.198Z</time></trkpt><trkpt lat="43.6178703" lon="12.6768018"><ele>205.0</ele><time>2026-05-02T09:25:05.196Z</time></trkpt><trkpt lat="43.6179647" lon="12.6768981"><ele>205.0</ele><time>2026-05-02T09:25:06.198Z</time></trkpt><trkpt lat="43.6180568" lon="12.6769965"><ele>204.75</ele><time>2026-05-02T09:25:07.196Z</time></trkpt><trkpt lat="43.6181466" lon="12.6771026"><ele>204.5</ele><time>2026-05-02T09:25:08.191Z</time></trkpt><trkpt lat="43.618236" lon="12.6772221"><ele>204.25</ele><time>2026-05-02T09:25:09.193Z</time></trkpt><trkpt lat="43.6183223" lon="12.6773499"><ele>204.0</ele><time>2026-05-02T09:25:10.195Z</time></trkpt><trkpt lat="43.6184159" lon="12.6774942"><ele>204.0</ele><time>2026-05-02T09:25:11.199Z</time></trkpt><trkpt lat="43.6185146" lon="12.6776382"><ele>204.0</ele><time>2026-05-02T09:25:12.195Z</time></trkpt><trkpt lat="43.618627" lon="12.6777931"><ele>204.0</ele><time>2026-05-02T09:25:13.2Z</time></trkpt><trkpt lat="43.6187462" lon="12.6779326"><ele>203.5</ele><time>2026-05-02T09:25:14.199Z</time></trkpt><trkpt lat="43.6188722" lon="12.6780592"><ele>203.0</ele><time>2026-05-02T09:25:15.196Z</time></trkpt><trkpt lat="43.6189965" lon="12.6781679"><ele>202.5</ele><time>2026-05-02T09:25:16.196Z</time></trkpt><trkpt lat="43.6191131" lon="12.6782726"><ele>202.0</ele><time>2026-05-02T09:25:17.196Z</time></trkpt><trkpt lat="43.6192199" lon="12.6783895"><ele>202.0</ele><time>2026-05-02T09:25:18.194Z</time></trkpt><trkpt lat="43.6193314" lon="12.6785212"><ele>202.0</ele><time>2026-05-02T09:25:19.197Z</time></trkpt><trkpt lat="43.6194408" lon="12.678659"><ele>202.0</ele><time>2026-05-02T09:25:20.193Z</time></trkpt><trkpt lat="43.6195469" lon="12.6788018"><ele>202.0</ele><time>2026-05-02T09:25:21.2Z</time></trkpt><trkpt lat="43.619638" lon="12.6789444"><ele>201.0</ele><time>2026-05-02T09:25:22.196Z</time></trkpt><trkpt lat="43.6197311" lon="12.679107"><ele>200.0</ele><time>2026-05-02T09:25:23.198Z</time></trkpt><trkpt lat="43.6198221" lon="12.6792773"><ele>199.0</ele><time>2026-05-02T09:25:24.2Z</time></trkpt><trkpt lat="43.6199173" lon="12.6794375"><ele>199.0</ele><time>2026-05-02T09:25:25.197Z</time></trkpt><trkpt lat="43.6200224" lon="12.6796153"><ele>199.0</ele><time>2026-05-02T09:25:26.196Z</time></trkpt><trkpt lat="43.6201268" lon="12.67979"><ele>199.0</ele><time>2026-05-02T09:25:27.196Z</time></trkpt><trkpt lat="43.6202406" lon="12.6799671"><ele>198.33333333333331</ele><time>2026-05-02T09:25:28.199Z</time></trkpt><trkpt lat="43.6203532" lon="12.6801379"><ele>197.66666666666669</ele><time>2026-05-02T09:25:29.192Z</time></trkpt><trkpt lat="43.620468" lon="12.6802962"><ele>197.0</ele><time>2026-05-02T09:25:30.194Z</time></trkpt><trkpt lat="43.6205769" lon="12.6804607"><ele>197.0</ele><time>2026-05-02T09:25:31.195Z</time></trkpt><trkpt lat="43.6206734" lon="12.6806161"><ele>197.0</ele><time>2026-05-02T09:25:32.192Z</time></trkpt><trkpt lat="43.6207578" lon="12.6807578"><ele>197.0</ele><time>2026-05-02T09:25:33.192Z</time></trkpt><trkpt lat="43.6208306" lon="12.6808908"><ele>197.0</ele><time>2026-05-02T09:25:34.193Z</time></trkpt><trkpt lat="43.6208953" lon="12.6810055"><ele>197.6</ele><time>2026-05-02T09:25:35.197Z</time></trkpt><trkpt lat="43.6209645" lon="12.681111"><ele>198.2</ele><time>2026-05-02T09:25:36.192Z</time></trkpt><trkpt lat="43.6210437" lon="12.6812158"><ele>198.8</ele><time>2026-05-02T09:25:37.196Z</time></trkpt><trkpt lat="43.6211154" lon="12.6813341"><ele>199.4</ele><time>2026-05-02T09:25:38.193Z</time></trkpt><trkpt lat="43.621191" lon="12.681465"><ele>200.0</ele><time>2026-05-02T09:25:39.193Z</time></trkpt><trkpt lat="43.6212565" lon="12.6816186"><ele>198.8</ele><time>2026-05-02T09:25:40.194Z</time></trkpt><trkpt lat="43.6213197" lon="12.6817603"><ele>197.6</ele><time>2026-05-02T09:25:41.19Z</time></trkpt><trkpt lat="43.6213668" lon="12.6818901"><ele>196.39999999999998</ele><time>2026-05-02T09:25:42.19Z</time></trkpt><trkpt lat="43.6214014" lon="12.6820083"><ele>195.2</ele><time>2026-05-02T09:25:43.192Z</time></trkpt><trkpt lat="43.6214286" lon="12.6821151"><ele>194.0</ele><time>2026-05-02T09:25:44.194Z</time></trkpt><trkpt lat="43.6214451" lon="12.6822207"><ele>194.0</ele><time>2026-05-02T09:25:45.193Z</time></trkpt><trkpt lat="43.6214354" lon="12.6823341"><ele>194.0</ele><time>2026-05-02T09:25:46.199Z</time></trkpt><trkpt lat="43.621389" lon="12.6824624"><ele>194.0</ele><time>2026-05-02T09:25:47.196Z</time></trkpt><trkpt lat="43.6212989" lon="12.6826085"><ele>194.0</ele><time>2026-05-02T09:25:48.191Z</time></trkpt><trkpt lat="43.6211904" lon="12.6827602"><ele>194.6</ele><time>2026-05-02T09:25:49.193Z</time></trkpt><trkpt lat="43.6210965" lon="12.6828923"><ele>195.2</ele><time>2026-05-02T09:25:50.195Z</time></trkpt><trkpt lat="43.6210143" lon="12.6830073"><ele>195.79999999999998</ele><time>2026-05-02T09:25:51.19Z</time></trkpt><trkpt lat="43.620944" lon="12.6830933"><ele>196.39999999999998</ele><time>2026-05-02T09:25:52.204Z</time></trkpt><trkpt lat="43.6208952" lon="12.6831721"><ele>197.0</ele><time>2026-05-02T09:25:53.198Z</time></trkpt><trkpt lat="43.6208894" lon="12.683301"><ele>197.0</ele><time>2026-05-02T09:25:55.199Z</time></trkpt><trkpt lat="43.6209332" lon="12.6833751"><ele>197.0</ele><time>2026-05-02T09:25:56.195Z</time></trkpt><trkpt lat="43.6210068" lon="12.6834595"><ele>197.0</ele><time>2026-05-02T09:25:57.198Z</time></trkpt><trkpt lat="43.6210913" lon="12.6835422"><ele>197.0</ele><time>2026-05-02T09:25:58.188Z</time></trkpt><trkpt lat="43.6211726" lon="12.6835964"><ele>197.0</ele><time>2026-05-02T09:25:59.189Z</time></trkpt><trkpt lat="43.6212586" lon="12.6836379"><ele>198.0</ele><time>2026-05-02T09:26:00.192Z</time></trkpt><trkpt lat="43.6213681" lon="12.6836077"><ele>199.0</ele><time>2026-05-02T09:26:01.186Z</time></trkpt><trkpt lat="43.6214863" lon="12.683544"><ele>200.0</ele><time>2026-05-02T09:26:02.191Z</time></trkpt><trkpt lat="43.6216209" lon="12.6834472"><ele>201.0</ele><time>2026-05-02T09:26:03.179Z</time></trkpt><trkpt lat="43.6217552" lon="12.6833577"><ele>201.0</ele><time>2026-05-02T09:26:04.178Z</time></trkpt><trkpt lat="43.6218903" lon="12.6832782"><ele>201.0</ele><time>2026-05-02T09:26:05.179Z</time></trkpt><trkpt lat="43.6220292" lon="12.683227"><ele>201.0</ele><time>2026-05-02T09:26:06.182Z</time></trkpt><trkpt lat="43.6221737" lon="12.6832316"><ele>201.0</ele><time>2026-05-02T09:26:07.187Z</time></trkpt><trkpt lat="43.6223291" lon="12.6832698"><ele>200.0</ele><time>2026-05-02T09:26:08.187Z</time></trkpt><trkpt lat="43.6224922" lon="12.6833157"><ele>199.0</ele><time>2026-05-02T09:26:09.191Z</time></trkpt><trkpt lat="43.6226607" lon="12.6833707"><ele>198.0</ele><time>2026-05-02T09:26:10.193Z</time></trkpt><trkpt lat="43.622827" lon="12.6834093"><ele>198.0</ele><time>2026-05-02T09:26:11.188Z</time></trkpt><trkpt lat="43.6229988" lon="12.6834043"><ele>198.0</ele><time>2026-05-02T09:26:12.189Z</time></trkpt><trkpt lat="43.6231577" lon="12.6833701"><ele>198.0</ele><time>2026-05-02T09:26:13.193Z</time></trkpt><trkpt lat="43.6233058" lon="12.6833224"><ele>198.0</ele><time>2026-05-02T09:26:14.195Z</time></trkpt><trkpt lat="43.6234362" lon="12.6832869"><ele>198.0</ele><time>2026-05-02T09:26:15.192Z</time></trkpt><trkpt lat="43.6235547" lon="12.6832617"><ele>198.0</ele><time>2026-05-02T09:26:16.192Z</time></trkpt><trkpt lat="43.6236714" lon="12.6832389"><ele>198.0</ele><time>2026-05-02T09:26:17.19Z</time></trkpt><trkpt lat="43.6237934" lon="12.6832565"><ele>198.0</ele><time>2026-05-02T09:26:18.193Z</time></trkpt><trkpt lat="43.6239029" lon="12.6833119"><ele>198.0</ele><time>2026-05-02T09:26:19.19Z</time></trkpt><trkpt lat="43.6239975" lon="12.6834049"><ele>198.0</ele><time>2026-05-02T09:26:20.192Z</time></trkpt><trkpt lat="43.624076" lon="12.6835473"><ele>198.0</ele><time>2026-05-02T09:26:21.19Z</time></trkpt><trkpt lat="43.6241476" lon="12.6837093"><ele>198.0</ele><time>2026-05-02T09:26:22.194Z</time></trkpt><trkpt lat="43.6242083" lon="12.6838932"><ele>198.0</ele><time>2026-05-02T09:26:23.196Z</time></trkpt><trkpt lat="43.6242491" lon="12.6840943"><ele>198.0</ele><time>2026-05-02T09:26:24.195Z</time></trkpt><trkpt lat="43.6242752" lon="12.6843008"><ele>198.0</ele><time>2026-05-02T09:26:25.197Z</time></trkpt><trkpt lat="43.6243031" lon="12.684498"><ele>197.5</ele><time>2026-05-02T09:26:26.201Z</time></trkpt><trkpt lat="43.6243259" lon="12.684702"><ele>197.0</ele><time>2026-05-02T09:26:27.198Z</time></trkpt><trkpt lat="43.6243493" lon="12.6848803"><ele>196.5</ele><time>2026-05-02T09:26:28.203Z</time></trkpt><trkpt lat="43.6243952" lon="12.6850242"><ele>196.0</ele><time>2026-05-02T09:26:29.205Z</time></trkpt><trkpt lat="43.6244646" lon="12.6851435"><ele>195.5</ele><time>2026-05-02T09:26:30.206Z</time></trkpt><trkpt lat="43.6245689" lon="12.6852408"><ele>195.0</ele><time>2026-05-02T09:26:31.208Z</time></trkpt><trkpt lat="43.6247135" lon="12.6853238"><ele>194.5</ele><time>2026-05-02T09:26:32.202Z</time></trkpt><trkpt lat="43.6248516" lon="12.6853993"><ele>194.0</ele><time>2026-05-02T09:26:33.191Z</time></trkpt><trkpt lat="43.6249883" lon="12.685464"><ele>195.66666666666669</ele><time>2026-05-02T09:26:34.198Z</time></trkpt><trkpt lat="43.6251307" lon="12.6855341"><ele>197.33333333333331</ele><time>2026-05-02T09:26:35.198Z</time></trkpt><trkpt lat="43.6252736" lon="12.6856055"><ele>199.0</ele><time>2026-05-02T09:26:36.2Z</time></trkpt><trkpt lat="43.6254163" lon="12.6856796"><ele>199.33333333333331</ele><time>2026-05-02T09:26:37.201Z</time></trkpt><trkpt lat="43.6255682" lon="12.6857633"><ele>199.66666666666669</ele><time>2026-05-02T09:26:38.2Z</time></trkpt><trkpt lat="43.6257223" lon="12.685829"><ele>200.0</ele><time>2026-05-02T09:26:39.2Z</time></trkpt><trkpt lat="43.6258824" lon="12.6858875"><ele>200.0</ele><time>2026-05-02T09:26:40.191Z</time></trkpt><trkpt lat="43.6260474" lon="12.6859264"><ele>200.0</ele><time>2026-05-02T09:26:41.191Z</time></trkpt><trkpt lat="43.6262076" lon="12.6859432"><ele>200.0</ele><time>2026-05-02T09:26:42.195Z</time></trkpt><trkpt lat="43.6263602" lon="12.6859532"><ele>199.0</ele><time>2026-05-02T09:26:43.195Z</time></trkpt><trkpt lat="43.6265031" lon="12.685971"><ele>198.0</ele><time>2026-05-02T09:26:44.196Z</time></trkpt><trkpt lat="43.6266429" lon="12.6859881"><ele>197.0</ele><time>2026-05-02T09:26:45.197Z</time></trkpt><trkpt lat="43.6267802" lon="12.6860094"><ele>196.0</ele><time>2026-05-02T09:26:46.199Z</time></trkpt><trkpt lat="43.6269144" lon="12.6860201"><ele>195.5</ele><time>2026-05-02T09:26:47.195Z</time></trkpt><trkpt lat="43.6270507" lon="12.6860292"><ele>195.0</ele><time>2026-05-02T09:26:48.194Z</time></trkpt><trkpt lat="43.6271771" lon="12.6860317"><ele>194.5</ele><time>2026-05-02T09:26:49.192Z</time></trkpt><trkpt lat="43.6272883" lon="12.6860449"><ele>194.0</ele><time>2026-05-02T09:26:50.191Z</time></trkpt><trkpt lat="43.6273928" lon="12.6860646"><ele>194.00000000000003</ele><time>2026-05-02T09:26:51.198Z</time></trkpt><trkpt lat="43.6274931" lon="12.6860832"><ele>194.0</ele><time>2026-05-02T09:26:52.194Z</time></trkpt><trkpt lat="43.6275842" lon="12.6860775"><ele>194.0</ele><time>2026-05-02T09:26:53.195Z</time></trkpt><trkpt lat="43.62766" lon="12.6860434"><ele>194.0</ele><time>2026-05-02T09:26:54.202Z</time></trkpt><trkpt lat="43.6277257" lon="12.6860071"><ele>194.00000000000003</ele><time>2026-05-02T09:26:55.197Z</time></trkpt><trkpt lat="43.627814" lon="12.6859373"><ele>194.0</ele><time>2026-05-02T09:26:57.194Z</time></trkpt><trkpt lat="43.6278755" lon="12.6859635"><ele>194.00000000000003</ele><time>2026-05-02T09:26:59.198Z</time></trkpt><trkpt lat="43.6278915" lon="12.6860498"><ele>194.0</ele><time>2026-05-02T09:27:00.195Z</time></trkpt><trkpt lat="43.6278895" lon="12.6861652"><ele>194.0</ele><time>2026-05-02T09:27:01.198Z</time></trkpt><trkpt lat="43.6278908" lon="12.6862857"><ele>194.0</ele><time>2026-05-02T09:27:02.19Z</time></trkpt><trkpt lat="43.6279078" lon="12.6863951"><ele>194.00000000000003</ele><time>2026-05-02T09:27:03.193Z</time></trkpt><trkpt lat="43.6279448" lon="12.6864965"><ele>194.0</ele><time>2026-05-02T09:27:04.19Z</time></trkpt><trkpt lat="43.6280055" lon="12.686586"><ele>193.75</ele><time>2026-05-02T09:27:05.186Z</time></trkpt><trkpt lat="43.6280762" lon="12.6866845"><ele>193.5</ele><time>2026-05-02T09:27:06.182Z</time></trkpt><trkpt lat="43.6281553" lon="12.6867916"><ele>193.25</ele><time>2026-05-02T09:27:07.181Z</time></trkpt><trkpt lat="43.628244" lon="12.6869069"><ele>193.0</ele><time>2026-05-02T09:27:08.181Z</time></trkpt><trkpt lat="43.6283336" lon="12.6870267"><ele>192.5</ele><time>2026-05-02T09:27:09.184Z</time></trkpt><trkpt lat="43.6284264" lon="12.6871557"><ele>192.0</ele><time>2026-05-02T09:27:10.19Z</time></trkpt><trkpt lat="43.6285265" lon="12.6872871"><ele>191.5</ele><time>2026-05-02T09:27:11.193Z</time></trkpt><trkpt lat="43.6286244" lon="12.6874116"><ele>191.0</ele><time>2026-05-02T09:27:12.195Z</time></trkpt><trkpt lat="43.6287207" lon="12.687536"><ele>191.0</ele><time>2026-05-02T09:27:13.193Z</time></trkpt><trkpt lat="43.6288173" lon="12.687662"><ele>191.0</ele><time>2026-05-02T09:27:14.196Z</time></trkpt><trkpt lat="43.6289052" lon="12.6878021"><ele>191.0</ele><time>2026-05-02T09:27:15.193Z</time></trkpt><trkpt lat="43.6289844" lon="12.6879491"><ele>191.0</ele><time>2026-05-02T09:27:16.202Z</time></trkpt><trkpt lat="43.6290556" lon="12.688105"><ele>193.5</ele><time>2026-05-02T09:27:17.194Z</time></trkpt><trkpt lat="43.6291233" lon="12.6882687"><ele>196.0</ele><time>2026-05-02T09:27:18.19Z</time></trkpt><trkpt lat="43.6291904" lon="12.6884447"><ele>198.5</ele><time>2026-05-02T09:27:19.197Z</time></trkpt><trkpt lat="43.6292538" lon="12.6886379"><ele>201.0</ele><time>2026-05-02T09:27:20.19Z</time></trkpt><trkpt lat="43.6293223" lon="12.688839"><ele>202.66666666666669</ele><time>2026-05-02T09:27:21.196Z</time></trkpt><trkpt lat="43.6293873" lon="12.6890461"><ele>204.33333333333334</ele><time>2026-05-02T09:27:22.194Z</time></trkpt><trkpt lat="43.6294388" lon="12.6892597"><ele>206.0</ele><time>2026-05-02T09:27:23.191Z</time></trkpt><trkpt lat="43.6294719" lon="12.6894841"><ele>201.33333333333334</ele><time>2026-05-02T09:27:24.195Z</time></trkpt><trkpt lat="43.6295025" lon="12.6897165"><ele>196.66666666666669</ele><time>2026-05-02T09:27:25.188Z</time></trkpt><trkpt lat="43.6295322" lon="12.6899338"><ele>192.0</ele><time>2026-05-02T09:27:26.193Z</time></trkpt><trkpt lat="43.6295776" lon="12.6901528"><ele>194.0</ele><time>2026-05-02T09:27:27.188Z</time></trkpt><trkpt lat="43.6296352" lon="12.6903773"><ele>196.0</ele><time>2026-05-02T09:27:28.187Z</time></trkpt><trkpt lat="43.6297079" lon="12.6905949"><ele>198.0</ele><time>2026-05-02T09:27:29.193Z</time></trkpt><trkpt lat="43.6297909" lon="12.6908152"><ele>198.0</ele><time>2026-05-02T09:27:30.188Z</time></trkpt><trkpt lat="43.6298716" lon="12.6910217"><ele>198.0</ele><time>2026-05-02T09:27:31.194Z</time></trkpt><trkpt lat="43.6299552" lon="12.6912288"><ele>198.0</ele><time>2026-05-02T09:27:32.187Z</time></trkpt><trkpt lat="43.6300305" lon="12.6914127"><ele>196.33333333333331</ele><time>2026-05-02T09:27:33.184Z</time></trkpt><trkpt lat="43.6301211" lon="12.691573"><ele>194.66666666666666</ele><time>2026-05-02T09:27:34.188Z</time></trkpt><trkpt lat="43.6302181" lon="12.691732"><ele>193.0</ele><time>2026-05-02T09:27:35.194Z</time></trkpt><trkpt lat="43.6303191" lon="12.6918902"><ele>194.25</ele><time>2026-05-02T09:27:36.189Z</time></trkpt><trkpt lat="43.6304138" lon="12.6920384"><ele>195.5</ele><time>2026-05-02T09:27:37.197Z</time></trkpt><trkpt lat="43.6305106" lon="12.6921852"><ele>196.75</ele><time>2026-05-02T09:27:38.192Z</time></trkpt><trkpt lat="43.6305997" lon="12.6923492"><ele>198.0</ele><time>2026-05-02T09:27:39.198Z</time></trkpt><trkpt lat="43.6306746" lon="12.6925239"><ele>198.0</ele><time>2026-05-02T09:27:40.193Z</time></trkpt><trkpt lat="43.6307309" lon="12.6927182"><ele>198.0</ele><time>2026-05-02T09:27:41.198Z</time></trkpt><trkpt lat="43.6307702" lon="12.6929202"><ele>198.0</ele><time>2026-05-02T09:27:42.196Z</time></trkpt><trkpt lat="43.6307862" lon="12.6931065"><ele>198.0</ele><time>2026-05-02T09:27:43.197Z</time></trkpt><trkpt lat="43.6308167" lon="12.6932609"><ele>198.0</ele><time>2026-05-02T09:27:44.205Z</time></trkpt><trkpt lat="43.6308841" lon="12.693408"><ele>198.0</ele><time>2026-05-02T09:27:45.199Z</time></trkpt><trkpt lat="43.6309752" lon="12.6935499"><ele>198.0</ele><time>2026-05-02T09:27:46.202Z</time></trkpt><trkpt lat="43.6310806" lon="12.6936793"><ele>198.0</ele><time>2026-05-02T09:27:47.195Z</time></trkpt><trkpt lat="43.6312061" lon="12.6937804"><ele>198.0</ele><time>2026-05-02T09:27:48.206Z</time></trkpt><trkpt lat="43.631338" lon="12.6938609"><ele>198.0</ele><time>2026-05-02T09:27:49.194Z</time></trkpt><trkpt lat="43.6314672" lon="12.6939235"><ele>198.0</ele><time>2026-05-02T09:27:50.202Z</time></trkpt><trkpt lat="43.6315824" lon="12.6940046"><ele>198.0</ele><time>2026-05-02T09:27:51.199Z</time></trkpt><trkpt lat="43.6316799" lon="12.6941129"><ele>198.0</ele><time>2026-05-02T09:27:52.199Z</time></trkpt><trkpt lat="43.6317591" lon="12.6942682"><ele>198.0</ele><time>2026-05-02T09:27:53.198Z</time></trkpt><trkpt lat="43.6318415" lon="12.6944409"><ele>198.0</ele><time>2026-05-02T09:27:54.2Z</time></trkpt><trkpt lat="43.6319189" lon="12.6946077"><ele>198.0</ele><time>2026-05-02T09:27:55.205Z</time></trkpt><trkpt lat="43.6319912" lon="12.694773"><ele>197.75</ele><time>2026-05-02T09:27:56.199Z</time></trkpt><trkpt lat="43.6320746" lon="12.6949218"><ele>197.5</ele><time>2026-05-02T09:27:57.194Z</time></trkpt><trkpt lat="43.6321777" lon="12.6950508"><ele>197.25</ele><time>2026-05-02T09:27:58.189Z</time></trkpt><trkpt lat="43.6322974" lon="12.6951585"><ele>197.0</ele><time>2026-05-02T09:27:59.199Z</time></trkpt><trkpt lat="43.6324084" lon="12.6952168"><ele>197.0</ele><time>2026-05-02T09:28:00.195Z</time></trkpt><trkpt lat="43.6325404" lon="12.6952487"><ele>197.0</ele><time>2026-05-02T09:28:01.194Z</time></trkpt><trkpt lat="43.6326713" lon="12.6952603"><ele>197.0</ele><time>2026-05-02T09:28:02.192Z</time></trkpt><trkpt lat="43.6327938" lon="12.6952713"><ele>197.0</ele><time>2026-05-02T09:28:03.197Z</time></trkpt><trkpt lat="43.6328947" lon="12.6953024"><ele>196.5</ele><time>2026-05-02T09:28:04.197Z</time></trkpt><trkpt lat="43.6329817" lon="12.6953812"><ele>196.0</ele><time>2026-05-02T09:28:05.196Z</time></trkpt><trkpt lat="43.6330612" lon="12.6954896"><ele>195.5</ele><time>2026-05-02T09:28:06.196Z</time></trkpt><trkpt lat="43.6331253" lon="12.695622"><ele>195.0</ele><time>2026-05-02T09:28:07.195Z</time></trkpt><trkpt lat="43.6331793" lon="12.6957702"><ele>195.0</ele><time>2026-05-02T09:28:08.197Z</time></trkpt><trkpt lat="43.6332276" lon="12.6959448"><ele>195.0</ele><time>2026-05-02T09:28:09.195Z</time></trkpt><trkpt lat="43.6332616" lon="12.6961331"><ele>195.0</ele><time>2026-05-02T09:28:10.196Z</time></trkpt><trkpt lat="43.6332749" lon="12.6963222"><ele>195.0</ele><time>2026-05-02T09:28:11.185Z</time></trkpt><trkpt lat="43.6332614" lon="12.6965107"><ele>194.66666666666669</ele><time>2026-05-02T09:28:12.191Z</time></trkpt><trkpt lat="43.6332356" lon="12.6967092"><ele>194.33333333333334</ele><time>2026-05-02T09:28:13.18Z</time></trkpt><trkpt lat="43.6332217" lon="12.6969193"><ele>194.0</ele><time>2026-05-02T09:28:14.189Z</time></trkpt><trkpt lat="43.6332145" lon="12.6971374"><ele>194.75</ele><time>2026-05-02T09:28:15.193Z</time></trkpt><trkpt lat="43.6332382" lon="12.6973194"><ele>195.5</ele><time>2026-05-02T09:28:16.202Z</time></trkpt><trkpt lat="43.6332895" lon="12.6974892"><ele>196.25</ele><time>2026-05-02T09:28:17.2Z</time></trkpt><trkpt lat="43.6333721" lon="12.6976462"><ele>197.0</ele><time>2026-05-02T09:28:18.2Z</time></trkpt><trkpt lat="43.6334822" lon="12.6977776"><ele>194.0</ele><time>2026-05-02T09:28:19.194Z</time></trkpt><trkpt lat="43.6335982" lon="12.6979107"><ele>191.0</ele><time>2026-05-02T09:28:20.193Z</time></trkpt><trkpt lat="43.6336979" lon="12.6980574"><ele>188.0</ele><time>2026-05-02T09:28:21.189Z</time></trkpt><trkpt lat="43.6337883" lon="12.6982149"><ele>185.0</ele><time>2026-05-02T09:28:22.195Z</time></trkpt><trkpt lat="43.633867" lon="12.6983848"><ele>185.0</ele><time>2026-05-02T09:28:23.191Z</time></trkpt><trkpt lat="43.6339399" lon="12.698567"><ele>185.0</ele><time>2026-05-02T09:28:24.192Z</time></trkpt><trkpt lat="43.6340018" lon="12.6987602"><ele>185.0</ele><time>2026-05-02T09:28:25.191Z</time></trkpt><trkpt lat="43.6340415" lon="12.6989529"><ele>185.0</ele><time>2026-05-02T09:28:26.191Z</time></trkpt><trkpt lat="43.6340553" lon="12.6991457"><ele>185.75</ele><time>2026-05-02T09:28:27.183Z</time></trkpt><trkpt lat="43.6340507" lon="12.6993445"><ele>186.5</ele><time>2026-05-02T09:28:28.195Z</time></trkpt><trkpt lat="43.6340277" lon="12.6995247"><ele>187.25</ele><time>2026-05-02T09:28:29.192Z</time></trkpt><trkpt lat="43.6339928" lon="12.6997121"><ele>188.0</ele><time>2026-05-02T09:28:30.189Z</time></trkpt><trkpt lat="43.6339577" lon="12.6998995"><ele>188.75</ele><time>2026-05-02T09:28:31.188Z</time></trkpt><trkpt lat="43.6339218" lon="12.7000937"><ele>189.5</ele><time>2026-05-02T09:28:32.206Z</time></trkpt><trkpt lat="43.6338829" lon="12.7002866"><ele>190.25</ele><time>2026-05-02T09:28:33.201Z</time></trkpt><trkpt lat="43.6338343" lon="12.7004918"><ele>191.0</ele><time>2026-05-02T09:28:34.211Z</time></trkpt><trkpt lat="43.6337763" lon="12.7006887"><ele>191.0</ele><time>2026-05-02T09:28:35.206Z</time></trkpt><trkpt lat="43.6337197" lon="12.7008775"><ele>191.0</ele><time>2026-05-02T09:28:36.203Z</time></trkpt><trkpt lat="43.6336645" lon="12.7010496"><ele>191.0</ele><time>2026-05-02T09:28:37.209Z</time></trkpt><trkpt lat="43.6336253" lon="12.701217"><ele>191.0</ele><time>2026-05-02T09:28:38.199Z</time></trkpt><trkpt lat="43.6336153" lon="12.7013871"><ele>190.33333333333331</ele><time>2026-05-02T09:28:39.208Z</time></trkpt><trkpt lat="43.6336385" lon="12.7015735"><ele>189.66666666666666</ele><time>2026-05-02T09:28:40.204Z</time></trkpt><trkpt lat="43.6336849" lon="12.7017809"><ele>189.0</ele><time>2026-05-02T09:28:41.208Z</time></trkpt><trkpt lat="43.6337439" lon="12.7020003"><ele>189.0</ele><time>2026-05-02T09:28:42.203Z</time></trkpt><trkpt lat="43.6337913" lon="12.7022248"><ele>189.0</ele><time>2026-05-02T09:28:43.195Z</time></trkpt><trkpt lat="43.6338306" lon="12.7024588"><ele>189.0</ele><time>2026-05-02T09:28:44.192Z</time></trkpt><trkpt lat="43.6338632" lon="12.7026946"><ele>189.66666666666666</ele><time>2026-05-02T09:28:45.198Z</time></trkpt><trkpt lat="43.6339045" lon="12.7029306"><ele>190.33333333333331</ele><time>2026-05-02T09:28:46.198Z</time></trkpt><trkpt lat="43.6339438" lon="12.7031592"><ele>191.0</ele><time>2026-05-02T09:28:47.209Z</time></trkpt><trkpt lat="43.6339871" lon="12.7033965"><ele>191.5</ele><time>2026-05-02T09:28:48.205Z</time></trkpt><trkpt lat="43.6340222" lon="12.7036027"><ele>192.0</ele><time>2026-05-02T09:28:49.21Z</time></trkpt><trkpt lat="43.6340559" lon="12.7038045"><ele>192.5</ele><time>2026-05-02T09:28:50.205Z</time></trkpt><trkpt lat="43.6340926" lon="12.7039877"><ele>193.0</ele><time>2026-05-02T09:28:51.202Z</time></trkpt><trkpt lat="43.6341131" lon="12.7041611"><ele>193.0</ele><time>2026-05-02T09:28:52.212Z</time></trkpt><trkpt lat="43.6341236" lon="12.704339"><ele>193.0</ele><time>2026-05-02T09:28:53.211Z</time></trkpt><trkpt lat="43.6341165" lon="12.7045185"><ele>193.0</ele><time>2026-05-02T09:28:54.212Z</time></trkpt><trkpt lat="43.6340904" lon="12.7046997"><ele>193.0</ele><time>2026-05-02T09:28:55.206Z</time></trkpt><trkpt lat="43.6340609" lon="12.7048974"><ele>192.33333333333331</ele><time>2026-05-02T09:28:56.203Z</time></trkpt><trkpt lat="43.6340259" lon="12.7050924"><ele>191.66666666666666</ele><time>2026-05-02T09:28:57.21Z</time></trkpt><trkpt lat="43.6339899" lon="12.7052956"><ele>191.0</ele><time>2026-05-02T09:28:58.207Z</time></trkpt><trkpt lat="43.6339527" lon="12.7055031"><ele>189.0</ele><time>2026-05-02T09:28:59.21Z</time></trkpt><trkpt lat="43.6339201" lon="12.7057052"><ele>187.0</ele><time>2026-05-02T09:29:00.2Z</time></trkpt><trkpt lat="43.633883" lon="12.705912"><ele>185.0</ele><time>2026-05-02T09:29:01.2Z</time></trkpt><trkpt lat="43.6338501" lon="12.7061248"><ele>183.66666666666666</ele><time>2026-05-02T09:29:02.204Z</time></trkpt><trkpt lat="43.6338113" lon="12.7063417"><ele>182.33333333333334</ele><time>2026-05-02T09:29:03.204Z</time></trkpt><trkpt lat="43.63377" lon="12.7065512"><ele>181.0</ele><time>2026-05-02T09:29:04.194Z</time></trkpt><trkpt lat="43.6337259" lon="12.706754"><ele>180.25</ele><time>2026-05-02T09:29:05.213Z</time></trkpt><trkpt lat="43.6336981" lon="12.7069468"><ele>179.5</ele><time>2026-05-02T09:29:06.201Z</time></trkpt><trkpt lat="43.6336718" lon="12.7071412"><ele>178.75</ele><time>2026-05-02T09:29:07.205Z</time></trkpt><trkpt lat="43.6336512" lon="12.7073401"><ele>178.0</ele><time>2026-05-02T09:29:08.201Z</time></trkpt><trkpt lat="43.6336496" lon="12.7075383"><ele>178.0</ele><time>2026-05-02T09:29:09.189Z</time></trkpt><trkpt lat="43.6336848" lon="12.7077222"><ele>178.0</ele><time>2026-05-02T09:29:10.192Z</time></trkpt><trkpt lat="43.6337548" lon="12.707899"><ele>178.0</ele><time>2026-05-02T09:29:11.189Z</time></trkpt><trkpt lat="43.6338385" lon="12.7080673"><ele>178.0</ele><time>2026-05-02T09:29:12.19Z</time></trkpt><trkpt lat="43.6339222" lon="12.7082247"><ele>179.75</ele><time>2026-05-02T09:29:13.184Z</time></trkpt><trkpt lat="43.6340106" lon="12.7083896"><ele>181.5</ele><time>2026-05-02T09:29:14.188Z</time></trkpt><trkpt lat="43.6340981" lon="12.708567"><ele>183.25</ele><time>2026-05-02T09:29:15.19Z</time></trkpt><trkpt lat="43.6341702" lon="12.7087409"><ele>185.0</ele><time>2026-05-02T09:29:16.187Z</time></trkpt><trkpt lat="43.6342214" lon="12.7089131"><ele>187.5</ele><time>2026-05-02T09:29:17.196Z</time></trkpt><trkpt lat="43.6342635" lon="12.7090904"><ele>190.0</ele><time>2026-05-02T09:29:18.189Z</time></trkpt><trkpt lat="43.6342775" lon="12.7092773"><ele>192.5</ele><time>2026-05-02T09:29:19.198Z</time></trkpt><trkpt lat="43.6342797" lon="12.7094849"><ele>195.0</ele><time>2026-05-02T09:29:20.189Z</time></trkpt><trkpt lat="43.6342677" lon="12.7096898"><ele>196.25</ele><time>2026-05-02T09:29:21.195Z</time></trkpt><trkpt lat="43.6342558" lon="12.7098943"><ele>197.5</ele><time>2026-05-02T09:29:22.197Z</time></trkpt><trkpt lat="43.634261" lon="12.7101044"><ele>198.75</ele><time>2026-05-02T09:29:23.193Z</time></trkpt><trkpt lat="43.6342757" lon="12.7102991"><ele>200.0</ele><time>2026-05-02T09:29:24.189Z</time></trkpt><trkpt lat="43.6342941" lon="12.7104973"><ele>200.25</ele><time>2026-05-02T09:29:25.189Z</time></trkpt><trkpt lat="43.6343158" lon="12.7107024"><ele>200.5</ele><time>2026-05-02T09:29:26.184Z</time></trkpt><trkpt lat="43.6343317" lon="12.710902"><ele>200.75</ele><time>2026-05-02T09:29:27.184Z</time></trkpt><trkpt lat="43.6343506" lon="12.7110911"><ele>201.0</ele><time>2026-05-02T09:29:28.187Z</time></trkpt><trkpt lat="43.6343729" lon="12.7112524"><ele>201.25</ele><time>2026-05-02T09:29:29.185Z</time></trkpt><trkpt lat="43.6343953" lon="12.711407"><ele>201.5</ele><time>2026-05-02T09:29:30.192Z</time></trkpt><trkpt lat="43.6344092" lon="12.7115643"><ele>201.75</ele><time>2026-05-02T09:29:31.189Z</time></trkpt><trkpt lat="43.6344137" lon="12.7117372"><ele>202.0</ele><time>2026-05-02T09:29:32.19Z</time></trkpt><trkpt lat="43.6343995" lon="12.7118902"><ele>201.0</ele><time>2026-05-02T09:29:33.186Z</time></trkpt><trkpt lat="43.6343818" lon="12.7120346"><ele>200.0</ele><time>2026-05-02T09:29:34.188Z</time></trkpt><trkpt lat="43.6343504" lon="12.7121911"><ele>199.0</ele><time>2026-05-02T09:29:35.195Z</time></trkpt><trkpt lat="43.6343101" lon="12.7123406"><ele>198.0</ele><time>2026-05-02T09:29:36.188Z</time></trkpt><trkpt lat="43.6342741" lon="12.7124901"><ele>198.0</ele><time>2026-05-02T09:29:37.188Z</time></trkpt><trkpt lat="43.6342434" lon="12.7126388"><ele>198.0</ele><time>2026-05-02T09:29:38.186Z</time></trkpt><trkpt lat="43.6342105" lon="12.7127796"><ele>198.0</ele><time>2026-05-02T09:29:39.186Z</time></trkpt><trkpt lat="43.6341702" lon="12.7129044"><ele>198.0</ele><time>2026-05-02T09:29:40.188Z</time></trkpt><trkpt lat="43.6341179" lon="12.7130199"><ele>198.0</ele><time>2026-05-02T09:29:41.184Z</time></trkpt><trkpt lat="43.6340643" lon="12.7131081"><ele>196.33333333333334</ele><time>2026-05-02T09:29:42.179Z</time></trkpt><trkpt lat="43.6340192" lon="12.7131701"><ele>194.66666666666666</ele><time>2026-05-02T09:29:43.178Z</time></trkpt><trkpt lat="43.6339854" lon="12.7132637"><ele>193.0</ele><time>2026-05-02T09:29:45.176Z</time></trkpt><trkpt lat="43.6340324" lon="12.7131649"><ele>191.33333333333331</ele><time>2026-05-02T09:29:48.172Z</time></trkpt><trkpt lat="43.6340877" lon="12.7130718"><ele>189.66666666666666</ele><time>2026-05-02T09:29:49.179Z</time></trkpt><trkpt lat="43.634151" lon="12.7129524"><ele>188.0</ele><time>2026-05-02T09:29:50.183Z</time></trkpt><trkpt lat="43.6342264" lon="12.7128315"><ele>186.5</ele><time>2026-05-02T09:29:51.182Z</time></trkpt><trkpt lat="43.6343122" lon="12.7127009"><ele>185.0</ele><time>2026-05-02T09:29:52.181Z</time></trkpt><trkpt lat="43.6344103" lon="12.7125691"><ele>183.5</ele><time>2026-05-02T09:29:53.176Z</time></trkpt><trkpt lat="43.6345269" lon="12.7124458"><ele>182.0</ele><time>2026-05-02T09:29:54.176Z</time></trkpt><trkpt lat="43.6346559" lon="12.7123188"><ele>182.0</ele><time>2026-05-02T09:29:55.172Z</time></trkpt><trkpt lat="43.6347746" lon="12.7121911"><ele>182.0</ele><time>2026-05-02T09:29:56.18Z</time></trkpt><trkpt lat="43.6348644" lon="12.7120553"><ele>182.0</ele><time>2026-05-02T09:29:57.18Z</time></trkpt><trkpt lat="43.6349152" lon="12.711903"><ele>182.0</ele><time>2026-05-02T09:29:58.177Z</time></trkpt><trkpt lat="43.6349648" lon="12.7117763"><ele>181.83333333333331</ele><time>2026-05-02T09:29:59.176Z</time></trkpt><trkpt lat="43.6350151" lon="12.7116886"><ele>181.66666666666666</ele><time>2026-05-02T09:30:00.174Z</time></trkpt><trkpt lat="43.6350794" lon="12.7116159"><ele>181.5</ele><time>2026-05-02T09:30:01.174Z</time></trkpt><trkpt lat="43.635153" lon="12.7115567"><ele>181.33333333333334</ele><time>2026-05-02T09:30:02.167Z</time></trkpt><trkpt lat="43.6352415" lon="12.7115219"><ele>181.16666666666669</ele><time>2026-05-02T09:30:03.172Z</time></trkpt><trkpt lat="43.6353364" lon="12.7114943"><ele>181.0</ele><time>2026-05-02T09:30:04.179Z</time></trkpt><trkpt lat="43.6354411" lon="12.7114751"><ele>180.8</ele><time>2026-05-02T09:30:05.178Z</time></trkpt><trkpt lat="43.6355537" lon="12.7114547"><ele>180.60000000000002</ele><time>2026-05-02T09:30:06.183Z</time></trkpt><trkpt lat="43.6356642" lon="12.711431"><ele>180.4</ele><time>2026-05-02T09:30:07.177Z</time></trkpt><trkpt lat="43.6357665" lon="12.7114161"><ele>180.2</ele><time>2026-05-02T09:30:08.171Z</time></trkpt><trkpt lat="43.6358688" lon="12.7114031"><ele>180.0</ele><time>2026-05-02T09:30:09.175Z</time></trkpt><trkpt lat="43.6359682" lon="12.7113943"><ele>180.0</ele><time>2026-05-02T09:30:10.186Z</time></trkpt><trkpt lat="43.6360692" lon="12.711384"><ele>180.0</ele><time>2026-05-02T09:30:11.186Z</time></trkpt><trkpt lat="43.6361615" lon="12.7113799"><ele>180.0</ele><time>2026-05-02T09:30:12.189Z</time></trkpt><trkpt lat="43.6362436" lon="12.7113942"><ele>180.0</ele><time>2026-05-02T09:30:13.185Z</time></trkpt><trkpt lat="43.6363222" lon="12.7114392"><ele>180.0</ele><time>2026-05-02T09:30:14.188Z</time></trkpt><trkpt lat="43.6363789" lon="12.711524"><ele>180.0</ele><time>2026-05-02T09:30:15.181Z</time></trkpt><trkpt lat="43.6364151" lon="12.7116415"><ele>181.4</ele><time>2026-05-02T09:30:16.179Z</time></trkpt><trkpt lat="43.6364435" lon="12.7117367"><ele>182.8</ele><time>2026-05-02T09:30:17.178Z</time></trkpt><trkpt lat="43.6364944" lon="12.7118659"><ele>184.2</ele><time>2026-05-02T09:30:19.185Z</time></trkpt><trkpt lat="43.6365619" lon="12.7120151"><ele>185.6</ele><time>2026-05-02T09:30:21.186Z</time></trkpt><trkpt lat="43.6365981" lon="12.7121117"><ele>187.0</ele><time>2026-05-02T09:30:22.179Z</time></trkpt><trkpt lat="43.6366423" lon="12.7122256"><ele>187.0</ele><time>2026-05-02T09:30:23.175Z</time></trkpt><trkpt lat="43.6366958" lon="12.7123371"><ele>187.0</ele><time>2026-05-02T09:30:24.175Z</time></trkpt><trkpt lat="43.6367661" lon="12.7124547"><ele>187.0</ele><time>2026-05-02T09:30:25.175Z</time></trkpt><trkpt lat="43.6368532" lon="12.712564"><ele>187.0</ele><time>2026-05-02T09:30:26.177Z</time></trkpt><trkpt lat="43.6369538" lon="12.7126664"><ele>186.75</ele><time>2026-05-02T09:30:27.175Z</time></trkpt><trkpt lat="43.6370679" lon="12.7127627"><ele>186.5</ele><time>2026-05-02T09:30:28.178Z</time></trkpt><trkpt lat="43.6371914" lon="12.7128569"><ele>186.25</ele><time>2026-05-02T09:30:29.179Z</time></trkpt><trkpt lat="43.6373189" lon="12.7129416"><ele>186.0</ele><time>2026-05-02T09:30:30.178Z</time></trkpt><trkpt lat="43.6374516" lon="12.7130089"><ele>186.0</ele><time>2026-05-02T09:30:31.18Z</time></trkpt><trkpt lat="43.637578" lon="12.7130685"><ele>186.0</ele><time>2026-05-02T09:30:32.177Z</time></trkpt><trkpt lat="43.6376986" lon="12.7131223"><ele>186.0</ele><time>2026-05-02T09:30:33.178Z</time></trkpt><trkpt lat="43.6378122" lon="12.7131701"><ele>186.0</ele><time>2026-05-02T09:30:34.182Z</time></trkpt><trkpt lat="43.6379195" lon="12.7132211"><ele>187.4</ele><time>2026-05-02T09:30:35.177Z</time></trkpt><trkpt lat="43.6380175" lon="12.7132642"><ele>188.8</ele><time>2026-05-02T09:30:36.18Z</time></trkpt><trkpt lat="43.6381086" lon="12.7132952"><ele>190.20000000000002</ele><time>2026-05-02T09:30:37.185Z</time></trkpt><trkpt lat="43.6381976" lon="12.7133288"><ele>191.60000000000002</ele><time>2026-05-02T09:30:38.177Z</time></trkpt><trkpt lat="43.6382855" lon="12.7133664"><ele>193.0</ele><time>2026-05-02T09:30:39.185Z</time></trkpt><trkpt lat="43.6383577" lon="12.7134013"><ele>193.00000000000003</ele><time>2026-05-02T09:30:40.176Z</time></trkpt><trkpt lat="43.6384165" lon="12.7134391"><ele>193.0</ele><time>2026-05-02T09:30:41.172Z</time></trkpt><trkpt lat="43.638498" lon="12.7135133"><ele>193.0</ele><time>2026-05-02T09:30:43.167Z</time></trkpt><trkpt lat="43.6385531" lon="12.7135714"><ele>193.0</ele><time>2026-05-02T09:30:45.175Z</time></trkpt><trkpt lat="43.6384916" lon="12.7135044"><ele>193.0</ele><time>2026-05-02T09:33:35.195Z</time></trkpt><trkpt lat="43.6385371" lon="12.7134407"><ele>193.00000000000003</ele><time>2026-05-02T09:34:04.193Z</time></trkpt><trkpt lat="43.6384696" lon="12.7134394"><ele>193.0</ele><time>2026-05-02T09:34:55.167Z</time></trkpt><trkpt lat="43.638407" lon="12.7134895"><ele>193.00000000000003</ele><time>2026-05-02T09:35:11.161Z</time></trkpt><trkpt lat="43.6383338" lon="12.7134983"><ele>193.0</ele><time>2026-05-02T09:36:02.161Z</time></trkpt><trkpt lat="43.6384014" lon="12.713502"><ele>193.0</ele><time>2026-05-02T09:36:10.168Z</time></trkpt><trkpt lat="43.6384502" lon="12.71344"><ele>193.0</ele><time>2026-05-02T09:36:42.159Z</time></trkpt><trkpt lat="43.6383887" lon="12.713401"><ele>193.0</ele><time>2026-05-02T09:36:54.144Z</time></trkpt><trkpt lat="43.638325" lon="12.7134136"><ele>193.00000000000003</ele><time>2026-05-02T09:36:58.146Z</time></trkpt><trkpt lat="43.6383578" lon="12.7133346"><ele>193.0</ele><time>2026-05-02T09:37:03.152Z</time></trkpt><trkpt lat="43.6383341" lon="12.7134505"><ele>193.0</ele><time>2026-05-02T09:37:09.153Z</time></trkpt><trkpt lat="43.638369" lon="12.7132941"><ele>193.0</ele><time>2026-05-02T09:37:49.142Z</time></trkpt><trkpt lat="43.6384182" lon="12.7131557"><ele>193.0</ele><time>2026-05-02T09:37:51.133Z</time></trkpt><trkpt lat="43.638461" lon="12.7130426"><ele>193.0</ele><time>2026-05-02T09:37:53.145Z</time></trkpt><trkpt lat="43.6384229" lon="12.7132858"><ele>193.00000000000003</ele><time>2026-05-02T09:38:04.185Z</time></trkpt><trkpt lat="43.6384188" lon="12.7133733"><ele>193.0</ele><time>2026-05-02T09:38:05.197Z</time></trkpt><trkpt lat="43.6384669" lon="12.7134333"><ele>193.0</ele><time>2026-05-02T09:38:11.192Z</time></trkpt><trkpt lat="43.6384755" lon="12.7135312"><ele>193.0</ele><time>2026-05-02T09:38:17.194Z</time></trkpt><trkpt lat="43.6385397" lon="12.7135247"><ele>193.0</ele><time>2026-05-02T09:42:34.184Z</time></trkpt><trkpt lat="43.6386036" lon="12.7135392"><ele>193.00000000000003</ele><time>2026-05-02T09:43:11.184Z</time></trkpt><trkpt lat="43.6385593" lon="12.7134735"><ele>193.0</ele><time>2026-05-02T09:44:26.192Z</time></trkpt><trkpt lat="43.6385366" lon="12.7135605"><ele>193.0</ele><time>2026-05-02T09:45:06.194Z</time></trkpt><trkpt lat="43.6385706" lon="12.7134831"><ele>193.0</ele><time>2026-05-02T09:45:41.184Z</time></trkpt><trkpt lat="43.638569" lon="12.7133776"><ele>193.0</ele><time>2026-05-02T09:48:55.181Z</time></trkpt><trkpt lat="43.638569" lon="12.7133776"><ele>193.0</ele><time>2026-05-02T09:48:55.181Z</time></trkpt><trkpt lat="43.6386205" lon="12.7134522"><ele>193.0</ele><time>2026-05-02T09:51:25.176Z</time></trkpt><trkpt lat="43.6385716" lon="12.7135375"><ele>193.0</ele><time>2026-05-02T09:51:36.17Z</time></trkpt><trkpt lat="43.6386013" lon="12.7136247"><ele>193.0</ele><time>2026-05-02T09:51:39.169Z</time></trkpt><trkpt lat="43.6385612" lon="12.7135573"><ele>193.0</ele><time>2026-05-02T09:51:56.174Z</time></trkpt><trkpt lat="43.6386233" lon="12.7136043"><ele>193.0</ele><time>2026-05-02T09:54:53.181Z</time></trkpt><trkpt lat="43.6387323" lon="12.7136943"><ele>193.0</ele><time>2026-05-02T09:54:55.185Z</time></trkpt><trkpt lat="43.6388018" lon="12.7137653"><ele>193.0</ele><time>2026-05-02T09:54:56.179Z</time></trkpt><trkpt lat="43.6388828" lon="12.7138464"><ele>193.0</ele><time>2026-05-02T09:54:57.183Z</time></trkpt><trkpt lat="43.6389716" lon="12.7139332"><ele>193.0</ele><time>2026-05-02T09:54:58.18Z</time></trkpt><trkpt lat="43.6390675" lon="12.7140268"><ele>193.0</ele><time>2026-05-02T09:54:59.186Z</time></trkpt><trkpt lat="43.6391616" lon="12.7141201"><ele>193.0</ele><time>2026-05-02T09:55:00.18Z</time></trkpt><trkpt lat="43.6392579" lon="12.7142087"><ele>193.0</ele><time>2026-05-02T09:55:01.188Z</time></trkpt><trkpt lat="43.6393552" lon="12.7142986"><ele>193.0</ele><time>2026-05-02T09:55:02.183Z</time></trkpt><trkpt lat="43.6394518" lon="12.7143939"><ele>192.25</ele><time>2026-05-02T09:55:03.178Z</time></trkpt><trkpt lat="43.6395498" lon="12.7144948"><ele>191.5</ele><time>2026-05-02T09:55:04.18Z</time></trkpt><trkpt lat="43.6396528" lon="12.7145988"><ele>190.75</ele><time>2026-05-02T09:55:05.178Z</time></trkpt><trkpt lat="43.6397566" lon="12.7147099"><ele>190.0</ele><time>2026-05-02T09:55:06.178Z</time></trkpt><trkpt lat="43.6398598" lon="12.7148171"><ele>190.0</ele><time>2026-05-02T09:55:07.182Z</time></trkpt><trkpt lat="43.639962" lon="12.7149216"><ele>190.0</ele><time>2026-05-02T09:55:08.181Z</time></trkpt><trkpt lat="43.6400663" lon="12.7150275"><ele>190.0</ele><time>2026-05-02T09:55:09.178Z</time></trkpt><trkpt lat="43.6401791" lon="12.715126"><ele>190.0</ele><time>2026-05-02T09:55:10.183Z</time></trkpt><trkpt lat="43.6402935" lon="12.7152195"><ele>189.75</ele><time>2026-05-02T09:55:11.181Z</time></trkpt><trkpt lat="43.6404101" lon="12.7153149"><ele>189.5</ele><time>2026-05-02T09:55:12.184Z</time></trkpt><trkpt lat="43.6405226" lon="12.7154063"><ele>189.25</ele><time>2026-05-02T09:55:13.183Z</time></trkpt><trkpt lat="43.6406303" lon="12.7155071"><ele>189.0</ele><time>2026-05-02T09:55:14.186Z</time></trkpt><trkpt lat="43.6407279" lon="12.7156246"><ele>189.0</ele><time>2026-05-02T09:55:15.184Z</time></trkpt><trkpt lat="43.6408176" lon="12.7157512"><ele>189.0</ele><time>2026-05-02T09:55:16.186Z</time></trkpt><trkpt lat="43.6409079" lon="12.7158707"><ele>189.0</ele><time>2026-05-02T09:55:17.182Z</time></trkpt><trkpt lat="43.6410025" lon="12.7159866"><ele>189.0</ele><time>2026-05-02T09:55:18.182Z</time></trkpt><trkpt lat="43.6411001" lon="12.7160937"><ele>197.5</ele><time>2026-05-02T09:55:19.185Z</time></trkpt><trkpt lat="43.6412011" lon="12.7161927"><ele>206.0</ele><time>2026-05-02T09:55:20.175Z</time></trkpt><trkpt lat="43.6412998" lon="12.7162834"><ele>214.5</ele><time>2026-05-02T09:55:21.187Z</time></trkpt><trkpt lat="43.6413998" lon="12.7163629"><ele>223.0</ele><time>2026-05-02T09:55:22.182Z</time></trkpt><trkpt lat="43.6414978" lon="12.7164479"><ele>223.0</ele><time>2026-05-02T09:55:23.175Z</time></trkpt><trkpt lat="43.6415931" lon="12.716541"><ele>223.0</ele><time>2026-05-02T09:55:24.173Z</time></trkpt><trkpt lat="43.6416901" lon="12.7166473"><ele>223.0</ele><time>2026-05-02T09:55:25.182Z</time></trkpt><trkpt lat="43.6417887" lon="12.7167597"><ele>223.0</ele><time>2026-05-02T09:55:26.173Z</time></trkpt><trkpt lat="43.6418858" lon="12.7168877"><ele>223.0</ele><time>2026-05-02T09:55:27.169Z</time></trkpt><trkpt lat="43.6419838" lon="12.7170254"><ele>223.0</ele><time>2026-05-02T09:55:28.173Z</time></trkpt><trkpt lat="43.6420882" lon="12.7171505"><ele>223.0</ele><time>2026-05-02T09:55:29.168Z</time></trkpt><trkpt lat="43.6421956" lon="12.7172692"><ele>223.0</ele><time>2026-05-02T09:55:30.176Z</time></trkpt><trkpt lat="43.6423111" lon="12.7173798"><ele>223.0</ele><time>2026-05-02T09:55:31.171Z</time></trkpt><trkpt lat="43.6424282" lon="12.7174911"><ele>223.0</ele><time>2026-05-02T09:55:32.175Z</time></trkpt><trkpt lat="43.6425306" lon="12.7176015"><ele>223.0</ele><time>2026-05-02T09:55:33.173Z</time></trkpt><trkpt lat="43.6426353" lon="12.7177213"><ele>223.0</ele><time>2026-05-02T09:55:34.177Z</time></trkpt><trkpt lat="43.6427398" lon="12.7178312"><ele>223.0</ele><time>2026-05-02T09:55:35.178Z</time></trkpt><trkpt lat="43.6428441" lon="12.7179209"><ele>223.0</ele><time>2026-05-02T09:55:36.176Z</time></trkpt><trkpt lat="43.6429578" lon="12.7180095"><ele>223.0</ele><time>2026-05-02T09:55:37.171Z</time></trkpt><trkpt lat="43.6430742" lon="12.7180998"><ele>223.0</ele><time>2026-05-02T09:55:38.178Z</time></trkpt><trkpt lat="43.6431894" lon="12.7181897"><ele>223.0</ele><time>2026-05-02T09:55:39.176Z</time></trkpt><trkpt lat="43.6433043" lon="12.7182739"><ele>223.0</ele><time>2026-05-02T09:55:40.182Z</time></trkpt><trkpt lat="43.6434123" lon="12.7183632"><ele>223.0</ele><time>2026-05-02T09:55:41.184Z</time></trkpt><trkpt lat="43.6435157" lon="12.7184724"><ele>223.0</ele><time>2026-05-02T09:55:42.181Z</time></trkpt><trkpt lat="43.6436109" lon="12.7185962"><ele>286.25</ele><time>2026-05-02T09:55:43.182Z</time></trkpt><trkpt lat="43.6437034" lon="12.7187305"><ele>349.5</ele><time>2026-05-02T09:55:44.172Z</time></trkpt><trkpt lat="43.6437928" lon="12.7188654"><ele>412.75</ele><time>2026-05-02T09:55:45.179Z</time></trkpt><trkpt lat="43.643874" lon="12.718999"><ele>476.0</ele><time>2026-05-02T09:55:46.186Z</time></trkpt><trkpt lat="43.6439492" lon="12.7191386"><ele>476.0</ele><time>2026-05-02T09:55:47.185Z</time></trkpt><trkpt lat="43.6440209" lon="12.7192768"><ele>476.0</ele><time>2026-05-02T09:55:48.183Z</time></trkpt><trkpt lat="43.6440859" lon="12.7194228"><ele>476.0</ele><time>2026-05-02T09:55:49.184Z</time></trkpt><trkpt lat="43.644144" lon="12.7195723"><ele>476.0</ele><time>2026-05-02T09:55:50.183Z</time></trkpt><trkpt lat="43.6442008" lon="12.7197311"><ele>468.25</ele><time>2026-05-02T09:55:51.187Z</time></trkpt><trkpt lat="43.6442548" lon="12.7199012"><ele>460.5</ele><time>2026-05-02T09:55:52.193Z</time></trkpt><trkpt lat="43.6443103" lon="12.7200752"><ele>452.75</ele><time>2026-05-02T09:55:53.197Z</time></trkpt><trkpt lat="43.6443693" lon="12.7202432"><ele>445.0</ele><time>2026-05-02T09:55:54.185Z</time></trkpt><trkpt lat="43.6444283" lon="12.7203994"><ele>447.5</ele><time>2026-05-02T09:55:55.195Z</time></trkpt><trkpt lat="43.6444789" lon="12.7205503"><ele>450.0</ele><time>2026-05-02T09:55:56.191Z</time></trkpt><trkpt lat="43.6445298" lon="12.720703"><ele>452.5</ele><time>2026-05-02T09:55:57.199Z</time></trkpt><trkpt lat="43.6445834" lon="12.7208481"><ele>455.0</ele><time>2026-05-02T09:55:58.191Z</time></trkpt><trkpt lat="43.6446485" lon="12.7209827"><ele>451.5</ele><time>2026-05-02T09:55:59.191Z</time></trkpt><trkpt lat="43.6447218" lon="12.7211051"><ele>448.0</ele><time>2026-05-02T09:56:00.191Z</time></trkpt><trkpt lat="43.6448056" lon="12.7212148"><ele>444.5</ele><time>2026-05-02T09:56:01.189Z</time></trkpt><trkpt lat="43.6448985" lon="12.7213208"><ele>441.0</ele><time>2026-05-02T09:56:02.184Z</time></trkpt><trkpt lat="43.6449975" lon="12.7214204"><ele>441.0</ele><time>2026-05-02T09:56:03.175Z</time></trkpt><trkpt lat="43.6450933" lon="12.7215132"><ele>441.0</ele><time>2026-05-02T09:56:04.189Z</time></trkpt><trkpt lat="43.6451872" lon="12.7216013"><ele>441.0</ele><time>2026-05-02T09:56:05.182Z</time></trkpt><trkpt lat="43.6452749" lon="12.7216831"><ele>441.0</ele><time>2026-05-02T09:56:06.19Z</time></trkpt><trkpt lat="43.6453553" lon="12.7217647"><ele>441.0</ele><time>2026-05-02T09:56:07.187Z</time></trkpt><trkpt lat="43.6454314" lon="12.7218418"><ele>441.20000000000005</ele><time>2026-05-02T09:56:08.183Z</time></trkpt><trkpt lat="43.6455139" lon="12.7219292"><ele>441.40000000000003</ele><time>2026-05-02T09:56:09.183Z</time></trkpt><trkpt lat="43.6455973" lon="12.7220212"><ele>441.6</ele><time>2026-05-02T09:56:10.178Z</time></trkpt><trkpt lat="43.6456776" lon="12.7221216"><ele>441.8</ele><time>2026-05-02T09:56:11.18Z</time></trkpt><trkpt lat="43.6457541" lon="12.722216"><ele>442.0</ele><time>2026-05-02T09:56:12.181Z</time></trkpt><trkpt lat="43.6458262" lon="12.7223172"><ele>442.0</ele><time>2026-05-02T09:56:13.181Z</time></trkpt><trkpt lat="43.6458894" lon="12.7224325"><ele>442.00000000000006</ele><time>2026-05-02T09:56:14.18Z</time></trkpt><trkpt lat="43.6459449" lon="12.7225522"><ele>442.00000000000006</ele><time>2026-05-02T09:56:15.176Z</time></trkpt><trkpt lat="43.6459997" lon="12.7226767"><ele>442.0</ele><time>2026-05-02T09:56:16.178Z</time></trkpt><trkpt lat="43.6460565" lon="12.7227971"><ele>442.0</ele><time>2026-05-02T09:56:17.173Z</time></trkpt><trkpt lat="43.6461105" lon="12.7229163"><ele>444.8</ele><time>2026-05-02T09:56:18.167Z</time></trkpt><trkpt lat="43.6461629" lon="12.7230378"><ele>447.6</ele><time>2026-05-02T09:56:19.171Z</time></trkpt><trkpt lat="43.6462182" lon="12.7231538"><ele>450.40000000000003</ele><time>2026-05-02T09:56:20.163Z</time></trkpt><trkpt lat="43.6462636" lon="12.723274"><ele>453.20000000000005</ele><time>2026-05-02T09:56:21.165Z</time></trkpt><trkpt lat="43.6463029" lon="12.7233969"><ele>456.0</ele><time>2026-05-02T09:56:22.172Z</time></trkpt><trkpt lat="43.6463397" lon="12.7235208"><ele>452.8</ele><time>2026-05-02T09:56:23.173Z</time></trkpt><trkpt lat="43.646366" lon="12.723651"><ele>449.6</ele><time>2026-05-02T09:56:24.165Z</time></trkpt><trkpt lat="43.6463871" lon="12.7237732"><ele>446.4</ele><time>2026-05-02T09:56:25.176Z</time></trkpt><trkpt lat="43.6463916" lon="12.7239296"><ele>443.2</ele><time>2026-05-02T09:56:27.166Z</time></trkpt><trkpt lat="43.6463965" lon="12.7240263"><ele>440.0</ele><time>2026-05-02T09:56:29.176Z</time></trkpt><trkpt lat="43.6464377" lon="12.7241645"><ele>439.99999999999994</ele><time>2026-05-02T09:56:31.171Z</time></trkpt><trkpt lat="43.6464631" lon="12.7242464"><ele>440.0</ele><time>2026-05-02T09:56:32.177Z</time></trkpt><trkpt lat="43.6464809" lon="12.7243436"><ele>440.0</ele><time>2026-05-02T09:56:33.175Z</time></trkpt><trkpt lat="43.6465032" lon="12.7244538"><ele>440.0</ele><time>2026-05-02T09:56:34.181Z</time></trkpt><trkpt lat="43.6465277" lon="12.7245722"><ele>439.99999999999994</ele><time>2026-05-02T09:56:35.186Z</time></trkpt><trkpt lat="43.6465551" lon="12.7246991"><ele>440.0</ele><time>2026-05-02T09:56:36.185Z</time></trkpt><trkpt lat="43.6465824" lon="12.7248323"><ele>443.6</ele><time>2026-05-02T09:56:37.189Z</time></trkpt><trkpt lat="43.6466111" lon="12.7249738"><ele>447.2</ele><time>2026-05-02T09:56:38.198Z</time></trkpt><trkpt lat="43.6466446" lon="12.7251099"><ele>450.79999999999995</ele><time>2026-05-02T09:56:39.191Z</time></trkpt><trkpt lat="43.6466758" lon="12.7252427"><ele>454.4</ele><time>2026-05-02T09:56:40.201Z</time></trkpt><trkpt lat="43.6467065" lon="12.7253829"><ele>458.0</ele><time>2026-05-02T09:56:41.187Z</time></trkpt><trkpt lat="43.6467411" lon="12.7255267"><ele>460.0</ele><time>2026-05-02T09:56:42.188Z</time></trkpt><trkpt lat="43.6467752" lon="12.7256691"><ele>461.99999999999994</ele><time>2026-05-02T09:56:43.186Z</time></trkpt><trkpt lat="43.6468069" lon="12.7258164"><ele>463.99999999999994</ele><time>2026-05-02T09:56:44.189Z</time></trkpt><trkpt lat="43.6468387" lon="12.7259599"><ele>466.0</ele><time>2026-05-02T09:56:45.19Z</time></trkpt><trkpt lat="43.6468772" lon="12.7260988"><ele>468.0</ele><time>2026-05-02T09:56:46.186Z</time></trkpt><trkpt lat="43.6469227" lon="12.7262372"><ele>462.2</ele><time>2026-05-02T09:56:47.189Z</time></trkpt><trkpt lat="43.6469759" lon="12.7263658"><ele>456.4</ele><time>2026-05-02T09:56:48.191Z</time></trkpt><trkpt lat="43.6470413" lon="12.7264786"><ele>450.59999999999997</ele><time>2026-05-02T09:56:49.192Z</time></trkpt><trkpt lat="43.6471156" lon="12.7265742"><ele>444.79999999999995</ele><time>2026-05-02T09:56:50.185Z</time></trkpt><trkpt lat="43.6471959" lon="12.7266623"><ele>439.0</ele><time>2026-05-02T09:56:51.188Z</time></trkpt><trkpt lat="43.6472762" lon="12.7267542"><ele>439.0</ele><time>2026-05-02T09:56:52.176Z</time></trkpt><trkpt lat="43.6473659" lon="12.7268411"><ele>439.0</ele><time>2026-05-02T09:56:53.185Z</time></trkpt><trkpt lat="43.647462" lon="12.7269286"><ele>439.0</ele><time>2026-05-02T09:56:54.189Z</time></trkpt><trkpt lat="43.647545" lon="12.7270299"><ele>439.0</ele><time>2026-05-02T09:56:55.184Z</time></trkpt><trkpt lat="43.6476283" lon="12.7271073"><ele>439.0</ele><time>2026-05-02T09:56:56.183Z</time></trkpt><trkpt lat="43.6477103" lon="12.7271704"><ele>445.2</ele><time>2026-05-02T09:56:57.185Z</time></trkpt><trkpt lat="43.6477984" lon="12.7272346"><ele>451.4</ele><time>2026-05-02T09:56:58.188Z</time></trkpt><trkpt lat="43.6478806" lon="12.7273101"><ele>457.6</ele><time>2026-05-02T09:56:59.187Z</time></trkpt><trkpt lat="43.6479632" lon="12.7273811"><ele>463.8</ele><time>2026-05-02T09:57:00.179Z</time></trkpt><trkpt lat="43.6480468" lon="12.7274536"><ele>470.0</ele><time>2026-05-02T09:57:01.188Z</time></trkpt><trkpt lat="43.6481246" lon="12.7275168"><ele>469.99999999999994</ele><time>2026-05-02T09:57:02.179Z</time></trkpt><trkpt lat="43.6481932" lon="12.7275654"><ele>470.0</ele><time>2026-05-02T09:57:03.181Z</time></trkpt><trkpt lat="43.6482543" lon="12.7275961"><ele>470.0</ele><time>2026-05-02T09:57:04.183Z</time></trkpt><trkpt lat="43.6483473" lon="12.7276311"><ele>470.0</ele><time>2026-05-02T09:57:06.185Z</time></trkpt><trkpt lat="43.6484348" lon="12.7276515"><ele>469.99999999999994</ele><time>2026-05-02T09:57:08.185Z</time></trkpt><trkpt lat="43.6485142" lon="12.7276486"><ele>470.0</ele><time>2026-05-02T09:57:10.182Z</time></trkpt><trkpt lat="43.6486265" lon="12.7276687"><ele>472.16666666666663</ele><time>2026-05-02T09:57:12.178Z</time></trkpt><trkpt lat="43.6486919" lon="12.7276811"><ele>474.3333333333333</ele><time>2026-05-02T09:57:13.183Z</time></trkpt><trkpt lat="43.6487565" lon="12.7277074"><ele>476.5</ele><time>2026-05-02T09:57:14.189Z</time></trkpt><trkpt lat="43.6488265" lon="12.7277385"><ele>478.66666666666663</ele><time>2026-05-02T09:57:15.183Z</time></trkpt><trkpt lat="43.6489042" lon="12.7277682"><ele>480.8333333333333</ele><time>2026-05-02T09:57:16.19Z</time></trkpt><trkpt lat="43.6489873" lon="12.727793"><ele>483.0</ele><time>2026-05-02T09:57:17.189Z</time></trkpt><trkpt lat="43.6490712" lon="12.7278188"><ele>483.0</ele><time>2026-05-02T09:57:18.188Z</time></trkpt><trkpt lat="43.6491637" lon="12.727857"><ele>482.99999999999994</ele><time>2026-05-02T09:57:19.189Z</time></trkpt><trkpt lat="43.6492569" lon="12.727914"><ele>482.99999999999994</ele><time>2026-05-02T09:57:20.183Z</time></trkpt><trkpt lat="43.6493458" lon="12.727985"><ele>483.0</ele><time>2026-05-02T09:57:21.186Z</time></trkpt><trkpt lat="43.649427" lon="12.7280649"><ele>483.0</ele><time>2026-05-02T09:57:22.184Z</time></trkpt><trkpt lat="43.6495121" lon="12.7281438"><ele>489.0</ele><time>2026-05-02T09:57:23.187Z</time></trkpt><trkpt lat="43.6495901" lon="12.7282222"><ele>494.99999999999994</ele><time>2026-05-02T09:57:24.188Z</time></trkpt><trkpt lat="43.6496688" lon="12.7283032"><ele>500.99999999999994</ele><time>2026-05-02T09:57:25.185Z</time></trkpt><trkpt lat="43.6497432" lon="12.7283877"><ele>507.0</ele><time>2026-05-02T09:57:26.187Z</time></trkpt><trkpt lat="43.6498194" lon="12.7284691"><ele>513.0</ele><time>2026-05-02T09:57:27.18Z</time></trkpt><trkpt lat="43.6498872" lon="12.7285499"><ele>505.4</ele><time>2026-05-02T09:57:28.184Z</time></trkpt><trkpt lat="43.6499524" lon="12.7286328"><ele>497.79999999999995</ele><time>2026-05-02T09:57:29.18Z</time></trkpt><trkpt lat="43.6500212" lon="12.7287119"><ele>490.2</ele><time>2026-05-02T09:57:30.182Z</time></trkpt><trkpt lat="43.6500932" lon="12.7287913"><ele>482.6</ele><time>2026-05-02T09:57:31.183Z</time></trkpt><trkpt lat="43.650162" lon="12.7288759"><ele>475.0</ele><time>2026-05-02T09:57:32.182Z</time></trkpt><trkpt lat="43.6502284" lon="12.7289618"><ele>471.6666666666667</ele><time>2026-05-02T09:57:33.182Z</time></trkpt><trkpt lat="43.6502961" lon="12.7290464"><ele>468.33333333333337</ele><time>2026-05-02T09:57:34.187Z</time></trkpt><trkpt lat="43.6503608" lon="12.7291322"><ele>465.0</ele><time>2026-05-02T09:57:35.182Z</time></trkpt><trkpt lat="43.6504267" lon="12.7292148"><ele>461.66666666666663</ele><time>2026-05-02T09:57:36.185Z</time></trkpt><trkpt lat="43.650488" lon="12.7293037"><ele>458.3333333333333</ele><time>2026-05-02T09:57:37.181Z</time></trkpt><trkpt lat="43.6505463" lon="12.7293927"><ele>455.0</ele><time>2026-05-02T09:57:38.185Z</time></trkpt><trkpt lat="43.6506116" lon="12.729471"><ele>454.99999999999994</ele><time>2026-05-02T09:57:39.177Z</time></trkpt><trkpt lat="43.6506808" lon="12.7295372"><ele>455.0</ele><time>2026-05-02T09:57:40.189Z</time></trkpt><trkpt lat="43.6507439" lon="12.7295821"><ele>455.0</ele><time>2026-05-02T09:57:41.194Z</time></trkpt><trkpt lat="43.6508397" lon="12.7295948"><ele>455.0</ele><time>2026-05-02T09:57:43.189Z</time></trkpt><trkpt lat="43.6509035" lon="12.7295883"><ele>454.99999999999994</ele><time>2026-05-02T09:57:46.188Z</time></trkpt><trkpt lat="43.6509596" lon="12.7295338"><ele>455.0</ele><time>2026-05-02T09:58:09.221Z</time></trkpt><trkpt lat="43.6510593" lon="12.729499"><ele>459.8</ele><time>2026-05-02T09:58:11.192Z</time></trkpt><trkpt lat="43.6511758" lon="12.7294412"><ele>464.6</ele><time>2026-05-02T09:58:13.18Z</time></trkpt><trkpt lat="43.6512818" lon="12.7293959"><ele>469.4</ele><time>2026-05-02T09:58:15.183Z</time></trkpt><trkpt lat="43.6514063" lon="12.729382"><ele>474.2</ele><time>2026-05-02T09:58:17.192Z</time></trkpt><trkpt lat="43.65147" lon="12.729406"><ele>479.0</ele><time>2026-05-02T09:58:18.187Z</time></trkpt><trkpt lat="43.6515437" lon="12.7294411"><ele>479.0</ele><time>2026-05-02T09:58:19.191Z</time></trkpt><trkpt lat="43.6516253" lon="12.7294886"><ele>479.0</ele><time>2026-05-02T09:58:20.192Z</time></trkpt><trkpt lat="43.6517087" lon="12.729538"><ele>479.0</ele><time>2026-05-02T09:58:21.193Z</time></trkpt><trkpt lat="43.6517948" lon="12.7295878"><ele>479.0</ele><time>2026-05-02T09:58:22.189Z</time></trkpt><trkpt lat="43.6518795" lon="12.7296353"><ele>479.0</ele><time>2026-05-02T09:58:23.19Z</time></trkpt><trkpt lat="43.6519626" lon="12.7296813"><ele>458.3333333333333</ele><time>2026-05-02T09:58:24.188Z</time></trkpt><trkpt lat="43.6520436" lon="12.729731"><ele>437.66666666666663</ele><time>2026-05-02T09:58:25.189Z</time></trkpt><trkpt lat="43.6521226" lon="12.7297834"><ele>417.0</ele><time>2026-05-02T09:58:26.189Z</time></trkpt><trkpt lat="43.6521997" lon="12.7298314"><ele>396.3333333333333</ele><time>2026-05-02T09:58:27.183Z</time></trkpt><trkpt lat="43.6522795" lon="12.7298727"><ele>375.66666666666663</ele><time>2026-05-02T09:58:28.194Z</time></trkpt><trkpt lat="43.6523599" lon="12.7299141"><ele>355.0</ele><time>2026-05-02T09:58:29.175Z</time></trkpt><trkpt lat="43.6524447" lon="12.7299635"><ele>355.0</ele><time>2026-05-02T09:58:30.185Z</time></trkpt><trkpt lat="43.6525329" lon="12.7300137"><ele>355.0</ele><time>2026-05-02T09:58:31.183Z</time></trkpt><trkpt lat="43.6526221" lon="12.7300635"><ele>355.0</ele><time>2026-05-02T09:58:32.188Z</time></trkpt><trkpt lat="43.6527119" lon="12.7301122"><ele>355.0</ele><time>2026-05-02T09:58:33.185Z</time></trkpt><trkpt lat="43.6528035" lon="12.7301579"><ele>355.0</ele><time>2026-05-02T09:58:34.179Z</time></trkpt><trkpt lat="43.6528926" lon="12.7302069"><ele>347.3333333333333</ele><time>2026-05-02T09:58:35.185Z</time></trkpt><trkpt lat="43.6529738" lon="12.7302531"><ele>339.66666666666663</ele><time>2026-05-02T09:58:36.184Z</time></trkpt><trkpt lat="43.6530521" lon="12.7302968"><ele>332.0</ele><time>2026-05-02T09:58:37.19Z</time></trkpt><trkpt lat="43.6531296" lon="12.7303327"><ele>324.3333333333333</ele><time>2026-05-02T09:58:38.183Z</time></trkpt><trkpt lat="43.6531967" lon="12.7303857"><ele>316.6666666666667</ele><time>2026-05-02T09:58:39.18Z</time></trkpt><trkpt lat="43.6532476" lon="12.7304585"><ele>309.0</ele><time>2026-05-02T09:58:40.186Z</time></trkpt><trkpt lat="43.6532927" lon="12.7305411"><ele>309.0</ele><time>2026-05-02T09:58:41.176Z</time></trkpt><trkpt lat="43.653344" lon="12.730615"><ele>309.0</ele><time>2026-05-02T09:58:42.167Z</time></trkpt><trkpt lat="43.6533945" lon="12.7306912"><ele>309.0</ele><time>2026-05-02T09:58:43.163Z</time></trkpt><trkpt lat="43.6534491" lon="12.7307671"><ele>309.0</ele><time>2026-05-02T09:58:44.159Z</time></trkpt><trkpt lat="43.653514" lon="12.7308623"><ele>309.0</ele><time>2026-05-02T09:58:45.167Z</time></trkpt><trkpt lat="43.6535383" lon="12.7310442"><ele>313.4</ele><time>2026-05-02T09:58:46.18Z</time></trkpt><trkpt lat="43.6535694" lon="12.7311843"><ele>317.79999999999995</ele><time>2026-05-02T09:58:47.178Z</time></trkpt><trkpt lat="43.6536133" lon="12.7313139"><ele>322.20000000000005</ele><time>2026-05-02T09:58:48.18Z</time></trkpt><trkpt lat="43.6536905" lon="12.731386"><ele>326.6</ele><time>2026-05-02T09:58:49.192Z</time></trkpt><trkpt lat="43.6537726" lon="12.7314479"><ele>331.0</ele><time>2026-05-02T09:58:50.188Z</time></trkpt><trkpt lat="43.6538599" lon="12.7315051"><ele>311.5</ele><time>2026-05-02T09:58:51.187Z</time></trkpt><trkpt lat="43.6539465" lon="12.7315576"><ele>292.0</ele><time>2026-05-02T09:58:52.19Z</time></trkpt><trkpt lat="43.6540322" lon="12.7316008"><ele>272.5</ele><time>2026-05-02T09:58:53.202Z</time></trkpt><trkpt lat="43.6541091" lon="12.7316512"><ele>253.0</ele><time>2026-05-02T09:58:54.2Z</time></trkpt><trkpt lat="43.6541809" lon="12.7317084"><ele>233.49999999999997</ele><time>2026-05-02T09:58:55.195Z</time></trkpt><trkpt lat="43.654249" lon="12.731774"><ele>214.0</ele><time>2026-05-02T09:58:56.194Z</time></trkpt><trkpt lat="43.6543168" lon="12.7318499"><ele>209.39999999999998</ele><time>2026-05-02T09:58:57.195Z</time></trkpt><trkpt lat="43.6543841" lon="12.7319346"><ele>204.79999999999998</ele><time>2026-05-02T09:58:58.194Z</time></trkpt><trkpt lat="43.6544608" lon="12.7320244"><ele>200.2</ele><time>2026-05-02T09:58:59.193Z</time></trkpt><trkpt lat="43.6545361" lon="12.7321194"><ele>195.60000000000002</ele><time>2026-05-02T09:59:00.199Z</time></trkpt><trkpt lat="43.6546172" lon="12.7322015"><ele>191.0</ele><time>2026-05-02T09:59:01.196Z</time></trkpt><trkpt lat="43.6547027" lon="12.7322667"><ele>189.5</ele><time>2026-05-02T09:59:02.198Z</time></trkpt><trkpt lat="43.6547785" lon="12.7323337"><ele>188.0</ele><time>2026-05-02T09:59:03.202Z</time></trkpt><trkpt lat="43.6548502" lon="12.732397"><ele>186.5</ele><time>2026-05-02T09:59:04.204Z</time></trkpt><trkpt lat="43.6549185" lon="12.7324621"><ele>185.0</ele><time>2026-05-02T09:59:05.199Z</time></trkpt><trkpt lat="43.6549805" lon="12.7325436"><ele>183.5</ele><time>2026-05-02T09:59:06.198Z</time></trkpt><trkpt lat="43.6550419" lon="12.7326318"><ele>182.0</ele><time>2026-05-02T09:59:07.195Z</time></trkpt><trkpt lat="43.6551039" lon="12.7327346"><ele>182.2</ele><time>2026-05-02T09:59:08.197Z</time></trkpt><trkpt lat="43.6551716" lon="12.7328416"><ele>182.39999999999998</ele><time>2026-05-02T09:59:09.199Z</time></trkpt><trkpt lat="43.6552456" lon="12.7329407"><ele>182.60000000000002</ele><time>2026-05-02T09:59:10.201Z</time></trkpt><trkpt lat="43.6553234" lon="12.733026"><ele>182.8</ele><time>2026-05-02T09:59:11.206Z</time></trkpt><trkpt lat="43.6554056" lon="12.7331001"><ele>183.0</ele><time>2026-05-02T09:59:12.208Z</time></trkpt><trkpt lat="43.6554985" lon="12.7331622"><ele>183.0</ele><time>2026-05-02T09:59:13.202Z</time></trkpt><trkpt lat="43.6556012" lon="12.73321"><ele>183.0</ele><time>2026-05-02T09:59:14.21Z</time></trkpt><trkpt lat="43.6557091" lon="12.7332416"><ele>183.0</ele><time>2026-05-02T09:59:15.213Z</time></trkpt><trkpt lat="43.6558168" lon="12.7332674"><ele>183.0</ele><time>2026-05-02T09:59:16.212Z</time></trkpt><trkpt lat="43.6559232" lon="12.7333037"><ele>183.0</ele><time>2026-05-02T09:59:17.21Z</time></trkpt><trkpt lat="43.6560251" lon="12.7333544"><ele>185.60000000000002</ele><time>2026-05-02T09:59:18.204Z</time></trkpt><trkpt lat="43.6561262" lon="12.7334147"><ele>188.20000000000002</ele><time>2026-05-02T09:59:19.204Z</time></trkpt><trkpt lat="43.6562287" lon="12.7334779"><ele>190.8</ele><time>2026-05-02T09:59:20.2Z</time></trkpt><trkpt lat="43.6563305" lon="12.7335384"><ele>193.4</ele><time>2026-05-02T09:59:21.21Z</time></trkpt><trkpt lat="43.6564287" lon="12.7336015"><ele>196.0</ele><time>2026-05-02T09:59:22.22Z</time></trkpt><trkpt lat="43.6565227" lon="12.7336576"><ele>189.75</ele><time>2026-05-02T09:59:23.212Z</time></trkpt><trkpt lat="43.6566231" lon="12.733715"><ele>183.5</ele><time>2026-05-02T09:59:24.218Z</time></trkpt><trkpt lat="43.656732" lon="12.7337757"><ele>177.25</ele><time>2026-05-02T09:59:25.212Z</time></trkpt><trkpt lat="43.6568446" lon="12.7338464"><ele>171.0</ele><time>2026-05-02T09:59:26.209Z</time></trkpt><trkpt lat="43.6569625" lon="12.7339181"><ele>171.0</ele><time>2026-05-02T09:59:27.214Z</time></trkpt><trkpt lat="43.6570851" lon="12.733985"><ele>171.0</ele><time>2026-05-02T09:59:28.212Z</time></trkpt><trkpt lat="43.6572134" lon="12.7340479"><ele>171.0</ele><time>2026-05-02T09:59:29.209Z</time></trkpt><trkpt lat="43.657348" lon="12.7341081"><ele>171.0</ele><time>2026-05-02T09:59:30.212Z</time></trkpt><trkpt lat="43.6574872" lon="12.7341601"><ele>171.0</ele><time>2026-05-02T09:59:31.201Z</time></trkpt><trkpt lat="43.6576265" lon="12.7342125"><ele>171.0</ele><time>2026-05-02T09:59:32.209Z</time></trkpt><trkpt lat="43.6577743" lon="12.7342398"><ele>171.0</ele><time>2026-05-02T09:59:33.21Z</time></trkpt><trkpt lat="43.6579255" lon="12.7342579"><ele>171.0</ele><time>2026-05-02T09:59:34.211Z</time></trkpt><trkpt lat="43.6580644" lon="12.7342661"><ele>172.25</ele><time>2026-05-02T09:59:35.212Z</time></trkpt><trkpt lat="43.658202" lon="12.7342839"><ele>173.5</ele><time>2026-05-02T09:59:36.21Z</time></trkpt><trkpt lat="43.6583427" lon="12.7343131"><ele>174.75</ele><time>2026-05-02T09:59:37.213Z</time></trkpt><trkpt lat="43.6584773" lon="12.7343432"><ele>176.0</ele><time>2026-05-02T09:59:38.202Z</time></trkpt><trkpt lat="43.6586145" lon="12.7343752"><ele>171.25</ele><time>2026-05-02T09:59:39.208Z</time></trkpt><trkpt lat="43.6587497" lon="12.7344029"><ele>166.5</ele><time>2026-05-02T09:59:40.224Z</time></trkpt><trkpt lat="43.6588862" lon="12.7344337"><ele>161.75</ele><time>2026-05-02T09:59:41.22Z</time></trkpt><trkpt lat="43.6590182" lon="12.7344706"><ele>157.0</ele><time>2026-05-02T09:59:42.213Z</time></trkpt><trkpt lat="43.6591511" lon="12.7345017"><ele>157.0</ele><time>2026-05-02T09:59:43.208Z</time></trkpt><trkpt lat="43.6592803" lon="12.7345381"><ele>157.0</ele><time>2026-05-02T09:59:44.211Z</time></trkpt><trkpt lat="43.6594018" lon="12.7345874"><ele>157.0</ele><time>2026-05-02T09:59:45.216Z</time></trkpt><trkpt lat="43.6595144" lon="12.7346448"><ele>157.0</ele><time>2026-05-02T09:59:46.212Z</time></trkpt><trkpt lat="43.6596227" lon="12.7347083"><ele>159.25</ele><time>2026-05-02T09:59:47.214Z</time></trkpt><trkpt lat="43.6597294" lon="12.7347747"><ele>161.5</ele><time>2026-05-02T09:59:48.204Z</time></trkpt><trkpt lat="43.6598383" lon="12.7348509"><ele>163.75</ele><time>2026-05-02T09:59:49.212Z</time></trkpt><trkpt lat="43.659944" lon="12.7349439"><ele>166.0</ele><time>2026-05-02T09:59:50.208Z</time></trkpt><trkpt lat="43.6600473" lon="12.7350501"><ele>166.0</ele><time>2026-05-02T09:59:51.207Z</time></trkpt><trkpt lat="43.6601458" lon="12.7351666"><ele>166.0</ele><time>2026-05-02T09:59:52.209Z</time></trkpt><trkpt lat="43.6602392" lon="12.7352887"><ele>166.0</ele><time>2026-05-02T09:59:53.208Z</time></trkpt><trkpt lat="43.6603294" lon="12.7354116"><ele>166.0</ele><time>2026-05-02T09:59:54.208Z</time></trkpt><trkpt lat="43.6604231" lon="12.7355373"><ele>163.5</ele><time>2026-05-02T09:59:55.278Z</time></trkpt><trkpt lat="43.6605148" lon="12.7356522"><ele>161.0</ele><time>2026-05-02T09:59:56.205Z</time></trkpt><trkpt lat="43.6606118" lon="12.7357637"><ele>158.5</ele><time>2026-05-02T09:59:57.227Z</time></trkpt><trkpt lat="43.6607181" lon="12.7358596"><ele>156.0</ele><time>2026-05-02T09:59:58.289Z</time></trkpt><trkpt lat="43.6608279" lon="12.7359365"><ele>156.0</ele><time>2026-05-02T09:59:59.303Z</time></trkpt><trkpt lat="43.660944" lon="12.7360006"><ele>156.0</ele><time>2026-05-02T10:00:00.299Z</time></trkpt><trkpt lat="43.6610737" lon="12.7360467"><ele>156.0</ele><time>2026-05-02T10:00:01.304Z</time></trkpt><trkpt lat="43.6612036" lon="12.7360879"><ele>156.0</ele><time>2026-05-02T10:00:02.289Z</time></trkpt><trkpt lat="43.6613369" lon="12.7361255"><ele>154.0</ele><time>2026-05-02T10:00:03.265Z</time></trkpt><trkpt lat="43.6614705" lon="12.7361641"><ele>152.0</ele><time>2026-05-02T10:00:04.288Z</time></trkpt><trkpt lat="43.6615992" lon="12.7361978"><ele>150.0</ele><time>2026-05-02T10:00:05.201Z</time></trkpt><trkpt lat="43.6617326" lon="12.7362306"><ele>148.0</ele><time>2026-05-02T10:00:06.206Z</time></trkpt><trkpt lat="43.6618614" lon="12.7362607"><ele>149.75</ele><time>2026-05-02T10:00:07.203Z</time></trkpt><trkpt lat="43.6619826" lon="12.7362923"><ele>151.5</ele><time>2026-05-02T10:00:08.203Z</time></trkpt><trkpt lat="43.6620981" lon="12.7363271"><ele>153.25</ele><time>2026-05-02T10:00:09.211Z</time></trkpt><trkpt lat="43.6622105" lon="12.7363595"><ele>155.0</ele><time>2026-05-02T10:00:10.206Z</time></trkpt><trkpt lat="43.6623239" lon="12.736395"><ele>155.0</ele><time>2026-05-02T10:00:11.207Z</time></trkpt><trkpt lat="43.6624378" lon="12.7364315"><ele>155.0</ele><time>2026-05-02T10:00:12.205Z</time></trkpt><trkpt lat="43.6625503" lon="12.7364706"><ele>155.0</ele><time>2026-05-02T10:00:13.207Z</time></trkpt><trkpt lat="43.66266" lon="12.7365222"><ele>155.0</ele><time>2026-05-02T10:00:14.211Z</time></trkpt><trkpt lat="43.6627657" lon="12.7365902"><ele>156.5</ele><time>2026-05-02T10:00:15.201Z</time></trkpt><trkpt lat="43.6628643" lon="12.7366786"><ele>158.0</ele><time>2026-05-02T10:00:16.207Z</time></trkpt><trkpt lat="43.6629568" lon="12.7367737"><ele>159.5</ele><time>2026-05-02T10:00:17.196Z</time></trkpt><trkpt lat="43.6630411" lon="12.7368729"><ele>161.0</ele><time>2026-05-02T10:00:18.209Z</time></trkpt><trkpt lat="43.6631185" lon="12.7369773"><ele>161.0</ele><time>2026-05-02T10:00:19.204Z</time></trkpt><trkpt lat="43.6631935" lon="12.7370855"><ele>161.0</ele><time>2026-05-02T10:00:20.197Z</time></trkpt><trkpt lat="43.6632634" lon="12.7372047"><ele>161.0</ele><time>2026-05-02T10:00:21.194Z</time></trkpt><trkpt lat="43.6633219" lon="12.7373289"><ele>161.0</ele><time>2026-05-02T10:00:22.206Z</time></trkpt><trkpt lat="43.6633782" lon="12.7374585"><ele>161.0</ele><time>2026-05-02T10:00:23.203Z</time></trkpt><trkpt lat="43.663437" lon="12.7375997"><ele>158.0</ele><time>2026-05-02T10:00:24.201Z</time></trkpt><trkpt lat="43.6634937" lon="12.7377537"><ele>155.0</ele><time>2026-05-02T10:00:25.198Z</time></trkpt><trkpt lat="43.6635468" lon="12.7379158"><ele>152.0</ele><time>2026-05-02T10:00:26.202Z</time></trkpt><trkpt lat="43.6635957" lon="12.7380886"><ele>149.0</ele><time>2026-05-02T10:00:27.203Z</time></trkpt><trkpt lat="43.6636354" lon="12.7382643"><ele>156.25</ele><time>2026-05-02T10:00:28.203Z</time></trkpt><trkpt lat="43.6636662" lon="12.7384466"><ele>163.5</ele><time>2026-05-02T10:00:29.21Z</time></trkpt><trkpt lat="43.6636849" lon="12.7386287"><ele>170.75</ele><time>2026-05-02T10:00:30.2Z</time></trkpt><trkpt lat="43.6636824" lon="12.7388058"><ele>178.0</ele><time>2026-05-02T10:00:31.203Z</time></trkpt><trkpt lat="43.663667" lon="12.738978"><ele>178.0</ele><time>2026-05-02T10:00:32.201Z</time></trkpt><trkpt lat="43.6636246" lon="12.7391542"><ele>178.0</ele><time>2026-05-02T10:00:33.2Z</time></trkpt><trkpt lat="43.6635687" lon="12.7393336"><ele>178.0</ele><time>2026-05-02T10:00:34.203Z</time></trkpt><trkpt lat="43.6635158" lon="12.7395155"><ele>178.0</ele><time>2026-05-02T10:00:35.2Z</time></trkpt><trkpt lat="43.6634673" lon="12.7396994"><ele>171.75</ele><time>2026-05-02T10:00:36.198Z</time></trkpt><trkpt lat="43.6634294" lon="12.7398753"><ele>165.5</ele><time>2026-05-02T10:00:37.195Z</time></trkpt><trkpt lat="43.6634108" lon="12.7400598"><ele>159.25</ele><time>2026-05-02T10:00:38.192Z</time></trkpt><trkpt lat="43.6634028" lon="12.7402689"><ele>153.0</ele><time>2026-05-02T10:00:39.193Z</time></trkpt><trkpt lat="43.6634139" lon="12.7404897"><ele>152.75</ele><time>2026-05-02T10:00:40.201Z</time></trkpt><trkpt lat="43.6634348" lon="12.7406958"><ele>152.5</ele><time>2026-05-02T10:00:41.203Z</time></trkpt><trkpt lat="43.6634542" lon="12.7408925"><ele>152.25</ele><time>2026-05-02T10:00:42.204Z</time></trkpt><trkpt lat="43.6634765" lon="12.7410667"><ele>152.0</ele><time>2026-05-02T10:00:43.205Z</time></trkpt><trkpt lat="43.6635002" lon="12.7412422"><ele>152.0</ele><time>2026-05-02T10:00:44.201Z</time></trkpt><trkpt lat="43.6635181" lon="12.7414195"><ele>152.0</ele><time>2026-05-02T10:00:45.205Z</time></trkpt><trkpt lat="43.6635365" lon="12.7415901"><ele>152.0</ele><time>2026-05-02T10:00:46.204Z</time></trkpt><trkpt lat="43.6635595" lon="12.7417536"><ele>152.0</ele><time>2026-05-02T10:00:47.208Z</time></trkpt><trkpt lat="43.6635799" lon="12.7419191"><ele>152.5</ele><time>2026-05-02T10:00:48.206Z</time></trkpt><trkpt lat="43.6635969" lon="12.7420834"><ele>153.0</ele><time>2026-05-02T10:00:49.209Z</time></trkpt><trkpt lat="43.6636122" lon="12.7422488"><ele>153.5</ele><time>2026-05-02T10:00:50.209Z</time></trkpt><trkpt lat="43.6636257" lon="12.7424206"><ele>154.0</ele><time>2026-05-02T10:00:51.205Z</time></trkpt><trkpt lat="43.663644" lon="12.7425983"><ele>155.5</ele><time>2026-05-02T10:00:52.212Z</time></trkpt><trkpt lat="43.6636642" lon="12.7427717"><ele>157.0</ele><time>2026-05-02T10:00:53.207Z</time></trkpt><trkpt lat="43.6636845" lon="12.7429477"><ele>158.5</ele><time>2026-05-02T10:00:54.209Z</time></trkpt><trkpt lat="43.6637032" lon="12.7431224"><ele>160.0</ele><time>2026-05-02T10:00:55.207Z</time></trkpt><trkpt lat="43.6637234" lon="12.7432925"><ele>160.0</ele><time>2026-05-02T10:00:56.21Z</time></trkpt><trkpt lat="43.6637426" lon="12.7434646"><ele>160.0</ele><time>2026-05-02T10:00:57.205Z</time></trkpt><trkpt lat="43.663759" lon="12.7436422"><ele>160.0</ele><time>2026-05-02T10:00:58.206Z</time></trkpt><trkpt lat="43.6637751" lon="12.7438219"><ele>160.0</ele><time>2026-05-02T10:00:59.21Z</time></trkpt><trkpt lat="43.6637901" lon="12.744006"><ele>159.75</ele><time>2026-05-02T10:01:00.211Z</time></trkpt><trkpt lat="43.6638093" lon="12.7441881"><ele>159.5</ele><time>2026-05-02T10:01:01.217Z</time></trkpt><trkpt lat="43.663828" lon="12.7443689"><ele>159.25</ele><time>2026-05-02T10:01:02.211Z</time></trkpt><trkpt lat="43.6638455" lon="12.7445491"><ele>159.0</ele><time>2026-05-02T10:01:03.206Z</time></trkpt><trkpt lat="43.6638617" lon="12.7447275"><ele>159.0</ele><time>2026-05-02T10:01:04.206Z</time></trkpt><trkpt lat="43.6638755" lon="12.7449046"><ele>159.0</ele><time>2026-05-02T10:01:05.209Z</time></trkpt><trkpt lat="43.663889" lon="12.7450839"><ele>159.0</ele><time>2026-05-02T10:01:06.206Z</time></trkpt><trkpt lat="43.6639028" lon="12.7452653"><ele>159.0</ele><time>2026-05-02T10:01:07.211Z</time></trkpt><trkpt lat="43.6639156" lon="12.7454502"><ele>158.25</ele><time>2026-05-02T10:01:08.21Z</time></trkpt><trkpt lat="43.6639264" lon="12.7456357"><ele>157.5</ele><time>2026-05-02T10:01:09.208Z</time></trkpt><trkpt lat="43.6639338" lon="12.7458219"><ele>156.75</ele><time>2026-05-02T10:01:10.206Z</time></trkpt><trkpt lat="43.6639435" lon="12.7460076"><ele>156.0</ele><time>2026-05-02T10:01:11.21Z</time></trkpt><trkpt lat="43.6639556" lon="12.7461991"><ele>156.25</ele><time>2026-05-02T10:01:12.204Z</time></trkpt><trkpt lat="43.6639672" lon="12.7463928"><ele>156.5</ele><time>2026-05-02T10:01:13.206Z</time></trkpt><trkpt lat="43.66398" lon="12.7465817"><ele>156.75</ele><time>2026-05-02T10:01:14.205Z</time></trkpt><trkpt lat="43.6639899" lon="12.7467737"><ele>157.0</ele><time>2026-05-02T10:01:15.211Z</time></trkpt><trkpt lat="43.6640017" lon="12.7469597"><ele>157.0</ele><time>2026-05-02T10:01:16.209Z</time></trkpt><trkpt lat="43.6640116" lon="12.747151"><ele>157.0</ele><time>2026-05-02T10:01:17.209Z</time></trkpt><trkpt lat="43.6640206" lon="12.7473323"><ele>157.0</ele><time>2026-05-02T10:01:18.214Z</time></trkpt><trkpt lat="43.6640284" lon="12.7475147"><ele>157.0</ele><time>2026-05-02T10:01:19.215Z</time></trkpt><trkpt lat="43.6640368" lon="12.7476908"><ele>156.25</ele><time>2026-05-02T10:01:20.209Z</time></trkpt><trkpt lat="43.6640413" lon="12.7478602"><ele>155.5</ele><time>2026-05-02T10:01:21.21Z</time></trkpt><trkpt lat="43.6640551" lon="12.7480382"><ele>154.75</ele><time>2026-05-02T10:01:22.214Z</time></trkpt><trkpt lat="43.6640679" lon="12.7482196"><ele>154.0</ele><time>2026-05-02T10:01:23.211Z</time></trkpt><trkpt lat="43.6640794" lon="12.7483977"><ele>153.75</ele><time>2026-05-02T10:01:24.21Z</time></trkpt><trkpt lat="43.6640909" lon="12.7485801"><ele>153.5</ele><time>2026-05-02T10:01:25.213Z</time></trkpt><trkpt lat="43.6641023" lon="12.7487655"><ele>153.25</ele><time>2026-05-02T10:01:26.207Z</time></trkpt><trkpt lat="43.6641136" lon="12.7489535"><ele>153.0</ele><time>2026-05-02T10:01:27.211Z</time></trkpt><trkpt lat="43.6641229" lon="12.7491372"><ele>153.0</ele><time>2026-05-02T10:01:28.209Z</time></trkpt><trkpt lat="43.6641359" lon="12.7493268"><ele>153.0</ele><time>2026-05-02T10:01:29.204Z</time></trkpt><trkpt lat="43.6641469" lon="12.7495115"><ele>153.0</ele><time>2026-05-02T10:01:30.208Z</time></trkpt><trkpt lat="43.6641634" lon="12.7496896"><ele>153.0</ele><time>2026-05-02T10:01:31.203Z</time></trkpt><trkpt lat="43.6641988" lon="12.7498718"><ele>151.75</ele><time>2026-05-02T10:01:32.212Z</time></trkpt><trkpt lat="43.6642479" lon="12.7500425"><ele>150.5</ele><time>2026-05-02T10:01:33.197Z</time></trkpt><trkpt lat="43.6643066" lon="12.7502162"><ele>149.25</ele><time>2026-05-02T10:01:34.206Z</time></trkpt><trkpt lat="43.6643705" lon="12.7503906"><ele>148.0</ele><time>2026-05-02T10:01:35.204Z</time></trkpt><trkpt lat="43.6644319" lon="12.7505551"><ele>151.25</ele><time>2026-05-02T10:01:36.207Z</time></trkpt><trkpt lat="43.6644891" lon="12.750709"><ele>154.5</ele><time>2026-05-02T10:01:37.205Z</time></trkpt><trkpt lat="43.6645482" lon="12.7508611"><ele>157.75</ele><time>2026-05-02T10:01:38.208Z</time></trkpt><trkpt lat="43.6646013" lon="12.751013"><ele>161.0</ele><time>2026-05-02T10:01:39.205Z</time></trkpt><trkpt lat="43.6646521" lon="12.751163"><ele>161.0</ele><time>2026-05-02T10:01:40.211Z</time></trkpt><trkpt lat="43.6646999" lon="12.7513148"><ele>161.0</ele><time>2026-05-02T10:01:41.207Z</time></trkpt><trkpt lat="43.664739" lon="12.7514701"><ele>161.0</ele><time>2026-05-02T10:01:42.213Z</time></trkpt><trkpt lat="43.664774" lon="12.7516361"><ele>161.0</ele><time>2026-05-02T10:01:43.21Z</time></trkpt><trkpt lat="43.6648041" lon="12.7518035"><ele>159.60000000000002</ele><time>2026-05-02T10:01:44.211Z</time></trkpt><trkpt lat="43.6648271" lon="12.7519669"><ele>158.20000000000002</ele><time>2026-05-02T10:01:45.209Z</time></trkpt><trkpt lat="43.6648497" lon="12.7521151"><ele>156.8</ele><time>2026-05-02T10:01:46.207Z</time></trkpt><trkpt lat="43.6648852" lon="12.7522509"><ele>155.4</ele><time>2026-05-02T10:01:47.213Z</time></trkpt><trkpt lat="43.6649366" lon="12.752378"><ele>154.0</ele><time>2026-05-02T10:01:48.212Z</time></trkpt><trkpt lat="43.6650197" lon="12.7524693"><ele>154.0</ele><time>2026-05-02T10:01:49.223Z</time></trkpt><trkpt lat="43.6651306" lon="12.7525434"><ele>154.0</ele><time>2026-05-02T10:01:50.207Z</time></trkpt><trkpt lat="43.6652495" lon="12.7526183"><ele>154.0</ele><time>2026-05-02T10:01:51.21Z</time></trkpt><trkpt lat="43.6653663" lon="12.7527004"><ele>154.0</ele><time>2026-05-02T10:01:52.213Z</time></trkpt><trkpt lat="43.6654734" lon="12.7528033"><ele>157.75</ele><time>2026-05-02T10:01:53.211Z</time></trkpt><trkpt lat="43.665568" lon="12.7529377"><ele>161.5</ele><time>2026-05-02T10:01:54.215Z</time></trkpt><trkpt lat="43.6656477" lon="12.7531057"><ele>165.25</ele><time>2026-05-02T10:01:55.208Z</time></trkpt><trkpt lat="43.6657262" lon="12.7532828"><ele>169.0</ele><time>2026-05-02T10:01:56.215Z</time></trkpt><trkpt lat="43.6658028" lon="12.7534568"><ele>163.0</ele><time>2026-05-02T10:01:57.191Z</time></trkpt><trkpt lat="43.665893" lon="12.7536298"><ele>157.0</ele><time>2026-05-02T10:01:58.206Z</time></trkpt><trkpt lat="43.6659937" lon="12.7537965"><ele>151.0</ele><time>2026-05-02T10:01:59.205Z</time></trkpt><trkpt lat="43.6660982" lon="12.7539482"><ele>155.33333333333334</ele><time>2026-05-02T10:02:00.208Z</time></trkpt><trkpt lat="43.666212" lon="12.7540858"><ele>159.66666666666666</ele><time>2026-05-02T10:02:01.21Z</time></trkpt><trkpt lat="43.6663355" lon="12.7542106"><ele>164.0</ele><time>2026-05-02T10:02:02.203Z</time></trkpt><trkpt lat="43.6664769" lon="12.7543159"><ele>157.66666666666666</ele><time>2026-05-02T10:02:03.199Z</time></trkpt><trkpt lat="43.6666328" lon="12.7543866"><ele>151.33333333333334</ele><time>2026-05-02T10:02:04.203Z</time></trkpt><trkpt lat="43.666792" lon="12.7544503"><ele>145.0</ele><time>2026-05-02T10:02:05.204Z</time></trkpt><trkpt lat="43.666957" lon="12.7544828"><ele>143.33333333333334</ele><time>2026-05-02T10:02:06.211Z</time></trkpt><trkpt lat="43.6671131" lon="12.7544778"><ele>141.66666666666666</ele><time>2026-05-02T10:02:07.208Z</time></trkpt><trkpt lat="43.6672529" lon="12.7544197"><ele>140.0</ele><time>2026-05-02T10:02:08.217Z</time></trkpt><trkpt lat="43.667385" lon="12.754321"><ele>145.33333333333331</ele><time>2026-05-02T10:02:09.211Z</time></trkpt><trkpt lat="43.6675035" lon="12.7541759"><ele>150.66666666666666</ele><time>2026-05-02T10:02:10.208Z</time></trkpt><trkpt lat="43.6676238" lon="12.7540171"><ele>156.0</ele><time>2026-05-02T10:02:11.21Z</time></trkpt><trkpt lat="43.6677492" lon="12.7538564"><ele>154.0</ele><time>2026-05-02T10:02:12.205Z</time></trkpt><trkpt lat="43.667884" lon="12.7536764"><ele>152.0</ele><time>2026-05-02T10:02:13.203Z</time></trkpt><trkpt lat="43.6680292" lon="12.7534873"><ele>150.0</ele><time>2026-05-02T10:02:14.199Z</time></trkpt><trkpt lat="43.6681775" lon="12.7532922"><ele>150.0</ele><time>2026-05-02T10:02:15.191Z</time></trkpt><trkpt lat="43.6683208" lon="12.7531124"><ele>150.0</ele><time>2026-05-02T10:02:16.198Z</time></trkpt><trkpt lat="43.6684468" lon="12.7529585"><ele>150.0</ele><time>2026-05-02T10:02:17.203Z</time></trkpt><trkpt lat="43.6685641" lon="12.7528181"><ele>146.5</ele><time>2026-05-02T10:02:18.194Z</time></trkpt><trkpt lat="43.6686778" lon="12.7526743"><ele>143.0</ele><time>2026-05-02T10:02:19.217Z</time></trkpt><trkpt lat="43.6687707" lon="12.7525185"><ele>139.5</ele><time>2026-05-02T10:02:20.193Z</time></trkpt><trkpt lat="43.6688354" lon="12.7523523"><ele>136.0</ele><time>2026-05-02T10:02:21.196Z</time></trkpt><trkpt lat="43.6688561" lon="12.7521787"><ele>136.0</ele><time>2026-05-02T10:02:22.201Z</time></trkpt><trkpt lat="43.668875" lon="12.752011"><ele>136.0</ele><time>2026-05-02T10:02:23.199Z</time></trkpt><trkpt lat="43.6689264" lon="12.7518478"><ele>136.0</ele><time>2026-05-02T10:02:24.205Z</time></trkpt><trkpt lat="43.6690041" lon="12.7516982"><ele>136.0</ele><time>2026-05-02T10:02:25.205Z</time></trkpt><trkpt lat="43.6690957" lon="12.7515554"><ele>134.33333333333334</ele><time>2026-05-02T10:02:26.198Z</time></trkpt><trkpt lat="43.6692035" lon="12.7514348"><ele>132.66666666666666</ele><time>2026-05-02T10:02:27.208Z</time></trkpt><trkpt lat="43.6693395" lon="12.7513304"><ele>131.0</ele><time>2026-05-02T10:02:28.207Z</time></trkpt><trkpt lat="43.6694987" lon="12.7512434"><ele>131.0</ele><time>2026-05-02T10:02:29.208Z</time></trkpt><trkpt lat="43.669664" lon="12.7511588"><ele>131.0</ele><time>2026-05-02T10:02:30.205Z</time></trkpt><trkpt lat="43.6698292" lon="12.7510777"><ele>131.0</ele><time>2026-05-02T10:02:31.21Z</time></trkpt><trkpt lat="43.6699913" lon="12.7509993"><ele>130.66666666666666</ele><time>2026-05-02T10:02:32.209Z</time></trkpt><trkpt lat="43.6701472" lon="12.7509133"><ele>130.33333333333334</ele><time>2026-05-02T10:02:33.207Z</time></trkpt><trkpt lat="43.6702884" lon="12.7508094"><ele>130.0</ele><time>2026-05-02T10:02:34.207Z</time></trkpt><trkpt lat="43.6704117" lon="12.7506857"><ele>130.0</ele><time>2026-05-02T10:02:35.207Z</time></trkpt><trkpt lat="43.6705265" lon="12.7505294"><ele>130.0</ele><time>2026-05-02T10:02:36.206Z</time></trkpt><trkpt lat="43.6706306" lon="12.7503491"><ele>130.0</ele><time>2026-05-02T10:02:37.206Z</time></trkpt><trkpt lat="43.6707351" lon="12.7501475"><ele>132.33333333333334</ele><time>2026-05-02T10:02:38.202Z</time></trkpt><trkpt lat="43.6708425" lon="12.7499292"><ele>134.66666666666666</ele><time>2026-05-02T10:02:39.212Z</time></trkpt><trkpt lat="43.6709546" lon="12.7497323"><ele>137.0</ele><time>2026-05-02T10:02:40.206Z</time></trkpt><trkpt lat="43.6710694" lon="12.7495671"><ele>136.0</ele><time>2026-05-02T10:02:41.21Z</time></trkpt><trkpt lat="43.6711896" lon="12.7494358"><ele>135.0</ele><time>2026-05-02T10:02:42.206Z</time></trkpt><trkpt lat="43.6713203" lon="12.7493448"><ele>134.0</ele><time>2026-05-02T10:02:43.213Z</time></trkpt><trkpt lat="43.6714696" lon="12.7493089"><ele>134.0</ele><time>2026-05-02T10:02:44.212Z</time></trkpt><trkpt lat="43.6716288" lon="12.7493149"><ele>134.0</ele><time>2026-05-02T10:02:45.204Z</time></trkpt><trkpt lat="43.6717901" lon="12.749364"><ele>134.0</ele><time>2026-05-02T10:02:46.2Z</time></trkpt><trkpt lat="43.6719492" lon="12.7494199"><ele>130.66666666666666</ele><time>2026-05-02T10:02:47.21Z</time></trkpt><trkpt lat="43.6721075" lon="12.749502"><ele>127.33333333333334</ele><time>2026-05-02T10:02:48.209Z</time></trkpt><trkpt lat="43.6722697" lon="12.7495835"><ele>124.0</ele><time>2026-05-02T10:02:49.209Z</time></trkpt><trkpt lat="43.6724161" lon="12.7496545"><ele>124.0</ele><time>2026-05-02T10:02:50.208Z</time></trkpt><trkpt lat="43.672551" lon="12.7497202"><ele>124.0</ele><time>2026-05-02T10:02:51.206Z</time></trkpt><trkpt lat="43.6726762" lon="12.7497845"><ele>124.0</ele><time>2026-05-02T10:02:52.207Z</time></trkpt><trkpt lat="43.672791" lon="12.7498414"><ele>124.0</ele><time>2026-05-02T10:02:53.211Z</time></trkpt><trkpt lat="43.6729084" lon="12.7498827"><ele>124.25</ele><time>2026-05-02T10:02:54.207Z</time></trkpt><trkpt lat="43.6730264" lon="12.7499082"><ele>124.5</ele><time>2026-05-02T10:02:55.214Z</time></trkpt><trkpt lat="43.6731392" lon="12.7499229"><ele>124.75</ele><time>2026-05-02T10:02:56.215Z</time></trkpt><trkpt lat="43.6732509" lon="12.7499422"><ele>125.0</ele><time>2026-05-02T10:02:57.21Z</time></trkpt><trkpt lat="43.6733598" lon="12.7499745"><ele>125.0</ele><time>2026-05-02T10:02:58.211Z</time></trkpt><trkpt lat="43.6734663" lon="12.7500129"><ele>125.0</ele><time>2026-05-02T10:02:59.208Z</time></trkpt><trkpt lat="43.6735686" lon="12.7500573"><ele>125.0</ele><time>2026-05-02T10:03:00.21Z</time></trkpt><trkpt lat="43.6736646" lon="12.7501111"><ele>125.0</ele><time>2026-05-02T10:03:01.211Z</time></trkpt><trkpt lat="43.6737533" lon="12.7501813"><ele>125.0</ele><time>2026-05-02T10:03:02.207Z</time></trkpt><trkpt lat="43.6738348" lon="12.7502751"><ele>125.4</ele><time>2026-05-02T10:03:03.213Z</time></trkpt><trkpt lat="43.6739105" lon="12.7503797"><ele>125.8</ele><time>2026-05-02T10:03:04.213Z</time></trkpt><trkpt lat="43.6739821" lon="12.7504841"><ele>126.19999999999999</ele><time>2026-05-02T10:03:05.211Z</time></trkpt><trkpt lat="43.6740518" lon="12.750584"><ele>126.6</ele><time>2026-05-02T10:03:06.202Z</time></trkpt><trkpt lat="43.6741171" lon="12.7506765"><ele>127.0</ele><time>2026-05-02T10:03:07.206Z</time></trkpt><trkpt lat="43.6741714" lon="12.7507775"><ele>127.0</ele><time>2026-05-02T10:03:08.21Z</time></trkpt><trkpt lat="43.6742014" lon="12.7508907"><ele>126.99999999999999</ele><time>2026-05-02T10:03:09.213Z</time></trkpt><trkpt lat="43.6741987" lon="12.7510187"><ele>126.99999999999999</ele><time>2026-05-02T10:03:10.212Z</time></trkpt><trkpt lat="43.674163" lon="12.7511478"><ele>127.0</ele><time>2026-05-02T10:03:11.215Z</time></trkpt><trkpt lat="43.6741034" lon="12.7512716"><ele>127.0</ele><time>2026-05-02T10:03:12.208Z</time></trkpt><trkpt lat="43.674039" lon="12.7513976"><ele>127.19999999999999</ele><time>2026-05-02T10:03:13.206Z</time></trkpt><trkpt lat="43.6739847" lon="12.7515208"><ele>127.39999999999999</ele><time>2026-05-02T10:03:14.208Z</time></trkpt><trkpt lat="43.6739487" lon="12.7516412"><ele>127.60000000000001</ele><time>2026-05-02T10:03:15.194Z</time></trkpt><trkpt lat="43.6739412" lon="12.7517614"><ele>127.80000000000001</ele><time>2026-05-02T10:03:16.21Z</time></trkpt><trkpt lat="43.6739757" lon="12.7518791"><ele>128.0</ele><time>2026-05-02T10:03:17.205Z</time></trkpt><trkpt lat="43.6740343" lon="12.7519911"><ele>127.2</ele><time>2026-05-02T10:03:18.21Z</time></trkpt><trkpt lat="43.6741066" lon="12.75209"><ele>126.4</ele><time>2026-05-02T10:03:19.212Z</time></trkpt><trkpt lat="43.6741824" lon="12.752185"><ele>125.60000000000001</ele><time>2026-05-02T10:03:20.209Z</time></trkpt><trkpt lat="43.6742595" lon="12.7522733"><ele>124.80000000000001</ele><time>2026-05-02T10:03:21.208Z</time></trkpt><trkpt lat="43.6743327" lon="12.7523566"><ele>124.0</ele><time>2026-05-02T10:03:22.212Z</time></trkpt><trkpt lat="43.6744074" lon="12.7524346"><ele>124.0</ele><time>2026-05-02T10:03:23.203Z</time></trkpt><trkpt lat="43.6744795" lon="12.7525129"><ele>124.0</ele><time>2026-05-02T10:03:24.206Z</time></trkpt><trkpt lat="43.6745474" lon="12.7525928"><ele>124.0</ele><time>2026-05-02T10:03:25.216Z</time></trkpt><trkpt lat="43.6746034" lon="12.7526942"><ele>124.0</ele><time>2026-05-02T10:03:26.216Z</time></trkpt><trkpt lat="43.6746332" lon="12.7528218"><ele>124.0</ele><time>2026-05-02T10:03:27.21Z</time></trkpt><trkpt lat="43.6746412" lon="12.7529519"><ele>123.50000000000001</ele><time>2026-05-02T10:03:28.212Z</time></trkpt><trkpt lat="43.6746518" lon="12.7530774"><ele>123.0</ele><time>2026-05-02T10:03:29.212Z</time></trkpt><trkpt lat="43.6746777" lon="12.7531883"><ele>122.5</ele><time>2026-05-02T10:03:30.203Z</time></trkpt><trkpt lat="43.6747132" lon="12.7532828"><ele>122.0</ele><time>2026-05-02T10:03:31.21Z</time></trkpt><trkpt lat="43.6747537" lon="12.7533638"><ele>121.50000000000001</ele><time>2026-05-02T10:03:32.207Z</time></trkpt><trkpt lat="43.6748061" lon="12.7534256"><ele>121.0</ele><time>2026-05-02T10:03:33.205Z</time></trkpt><trkpt lat="43.6748691" lon="12.7534509"><ele>121.0</ele><time>2026-05-02T10:03:34.196Z</time></trkpt><trkpt lat="43.6749281" lon="12.7533971"><ele>121.0</ele><time>2026-05-02T10:03:35.199Z</time></trkpt><trkpt lat="43.6749965" lon="12.7532653"><ele>121.0</ele><time>2026-05-02T10:03:36.191Z</time></trkpt><trkpt lat="43.6750594" lon="12.7530817"><ele>121.0</ele><time>2026-05-02T10:03:37.196Z</time></trkpt><trkpt lat="43.6751136" lon="12.7529087"><ele>121.0</ele><time>2026-05-02T10:03:38.199Z</time></trkpt><trkpt lat="43.6751674" lon="12.7527417"><ele>121.0</ele><time>2026-05-02T10:03:39.2Z</time></trkpt><trkpt lat="43.6752284" lon="12.7525755"><ele>121.0</ele><time>2026-05-02T10:03:40.202Z</time></trkpt><trkpt lat="43.6752918" lon="12.7524108"><ele>121.0</ele><time>2026-05-02T10:03:41.201Z</time></trkpt><trkpt lat="43.6753472" lon="12.7522581"><ele>121.0</ele><time>2026-05-02T10:03:42.202Z</time></trkpt><trkpt lat="43.6753936" lon="12.7521225"><ele>121.0</ele><time>2026-05-02T10:03:43.208Z</time></trkpt><trkpt lat="43.6754245" lon="12.7519929"><ele>121.0</ele><time>2026-05-02T10:03:44.202Z</time></trkpt><trkpt lat="43.6754342" lon="12.7518686"><ele>121.0</ele><time>2026-05-02T10:03:45.21Z</time></trkpt><trkpt lat="43.6754042" lon="12.7517618"><ele>121.0</ele><time>2026-05-02T10:03:46.204Z</time></trkpt><trkpt lat="43.6753648" lon="12.7516718"><ele>121.19999999999999</ele><time>2026-05-02T10:03:47.207Z</time></trkpt><trkpt lat="43.675346" lon="12.7515765"><ele>121.39999999999999</ele><time>2026-05-02T10:03:48.196Z</time></trkpt><trkpt lat="43.6753526" lon="12.7514805"><ele>121.6</ele><time>2026-05-02T10:03:49.205Z</time></trkpt><trkpt lat="43.6754103" lon="12.7513885"><ele>121.8</ele><time>2026-05-02T10:03:50.206Z</time></trkpt><trkpt lat="43.6755049" lon="12.7512999"><ele>122.0</ele><time>2026-05-02T10:03:51.204Z</time></trkpt><trkpt lat="43.6756135" lon="12.7512079"><ele>122.0</ele><time>2026-05-02T10:03:52.21Z</time></trkpt><trkpt lat="43.6757283" lon="12.7511078"><ele>122.0</ele><time>2026-05-02T10:03:53.206Z</time></trkpt><trkpt lat="43.6758436" lon="12.7509989"><ele>122.0</ele><time>2026-05-02T10:03:54.206Z</time></trkpt><trkpt lat="43.6759472" lon="12.7508762"><ele>122.0</ele><time>2026-05-02T10:03:55.2Z</time></trkpt><trkpt lat="43.6760353" lon="12.7507377"><ele>124.5</ele><time>2026-05-02T10:03:56.206Z</time></trkpt><trkpt lat="43.6761061" lon="12.7505868"><ele>127.0</ele><time>2026-05-02T10:03:57.205Z</time></trkpt><trkpt lat="43.6761601" lon="12.7504202"><ele>129.5</ele><time>2026-05-02T10:03:58.202Z</time></trkpt><trkpt lat="43.6762085" lon="12.7502494"><ele>132.0</ele><time>2026-05-02T10:03:59.209Z</time></trkpt><trkpt lat="43.6762581" lon="12.750079"><ele>132.0</ele><time>2026-05-02T10:04:00.211Z</time></trkpt><trkpt lat="43.676313" lon="12.7499138"><ele>132.0</ele><time>2026-05-02T10:04:01.209Z</time></trkpt><trkpt lat="43.6763794" lon="12.7497537"><ele>132.0</ele><time>2026-05-02T10:04:02.203Z</time></trkpt><trkpt lat="43.6764613" lon="12.7496075"><ele>132.0</ele><time>2026-05-02T10:04:03.212Z</time></trkpt><trkpt lat="43.6765664" lon="12.7494885"><ele>132.0</ele><time>2026-05-02T10:04:04.204Z</time></trkpt><trkpt lat="43.6766946" lon="12.7494179"><ele>132.0</ele><time>2026-05-02T10:04:05.205Z</time></trkpt><trkpt lat="43.6768266" lon="12.7493757"><ele>132.0</ele><time>2026-05-02T10:04:06.202Z</time></trkpt><trkpt lat="43.6769545" lon="12.7493435"><ele>132.0</ele><time>2026-05-02T10:04:07.196Z</time></trkpt><trkpt lat="43.6770833" lon="12.7493219"><ele>132.25</ele><time>2026-05-02T10:04:08.209Z</time></trkpt><trkpt lat="43.6772073" lon="12.7493219"><ele>132.5</ele><time>2026-05-02T10:04:09.2Z</time></trkpt><trkpt lat="43.6773261" lon="12.749354"><ele>132.75</ele><time>2026-05-02T10:04:10.208Z</time></trkpt><trkpt lat="43.6774371" lon="12.7494387"><ele>133.0</ele><time>2026-05-02T10:04:11.203Z</time></trkpt><trkpt lat="43.6775332" lon="12.749551"><ele>133.66666666666669</ele><time>2026-05-02T10:04:12.21Z</time></trkpt><trkpt lat="43.6775983" lon="12.7496719"><ele>134.33333333333334</ele><time>2026-05-02T10:04:13.209Z</time></trkpt><trkpt lat="43.6776444" lon="12.7497895"><ele>135.0</ele><time>2026-05-02T10:04:14.207Z</time></trkpt><trkpt lat="43.6776776" lon="12.7499009"><ele>135.66666666666666</ele><time>2026-05-02T10:04:15.206Z</time></trkpt><trkpt lat="43.677696" lon="12.7500066"><ele>136.33333333333331</ele><time>2026-05-02T10:04:16.208Z</time></trkpt><trkpt lat="43.6777095" lon="12.750106"><ele>137.0</ele><time>2026-05-02T10:04:17.215Z</time></trkpt><trkpt lat="43.677714" lon="12.7501941"><ele>137.5</ele><time>2026-05-02T10:04:18.207Z</time></trkpt><trkpt lat="43.6777105" lon="12.7503356"><ele>138.0</ele><time>2026-05-02T10:04:20.206Z</time></trkpt><trkpt lat="43.6777043" lon="12.7504509"><ele>138.5</ele><time>2026-05-02T10:04:23.21Z</time></trkpt><trkpt lat="43.6776944" lon="12.7505419"><ele>139.0</ele><time>2026-05-02T10:04:27.208Z</time></trkpt><trkpt lat="43.6777081" lon="12.7506981"><ele>139.5</ele><time>2026-05-02T10:04:46.238Z</time></trkpt><trkpt lat="43.6777112" lon="12.7508121"><ele>140.0</ele><time>2026-05-02T10:04:47.199Z</time></trkpt><trkpt lat="43.6777184" lon="12.7509549"><ele>140.5</ele><time>2026-05-02T10:04:48.196Z</time></trkpt><trkpt lat="43.6777227" lon="12.7511154"><ele>141.0</ele><time>2026-05-02T10:04:49.199Z</time></trkpt><trkpt lat="43.6777276" lon="12.7512879"><ele>141.5</ele><time>2026-05-02T10:04:50.195Z</time></trkpt><trkpt lat="43.6777298" lon="12.7514716"><ele>142.0</ele><time>2026-05-02T10:04:51.191Z</time></trkpt><trkpt lat="43.6777274" lon="12.7516639"><ele>142.0</ele><time>2026-05-02T10:04:52.2Z</time></trkpt><trkpt lat="43.6777184" lon="12.751865"><ele>142.0</ele><time>2026-05-02T10:04:53.192Z</time></trkpt><trkpt lat="43.6777001" lon="12.7520649"><ele>142.0</ele><time>2026-05-02T10:04:54.193Z</time></trkpt><trkpt lat="43.6776484" lon="12.7522598"><ele>142.0</ele><time>2026-05-02T10:04:55.192Z</time></trkpt><trkpt lat="43.6775821" lon="12.7524553"><ele>142.66666666666669</ele><time>2026-05-02T10:04:56.193Z</time></trkpt><trkpt lat="43.6775223" lon="12.7526474"><ele>143.33333333333334</ele><time>2026-05-02T10:04:57.195Z</time></trkpt><trkpt lat="43.6774773" lon="12.7528686"><ele>144.0</ele><time>2026-05-02T10:04:58.194Z</time></trkpt><trkpt lat="43.6774396" lon="12.7531025"><ele>143.0</ele><time>2026-05-02T10:04:59.195Z</time></trkpt><trkpt lat="43.6774075" lon="12.7533393"><ele>142.0</ele><time>2026-05-02T10:05:00.189Z</time></trkpt><trkpt lat="43.6773676" lon="12.7535832"><ele>141.0</ele><time>2026-05-02T10:05:01.203Z</time></trkpt><trkpt lat="43.6773296" lon="12.7538292"><ele>141.0</ele><time>2026-05-02T10:05:02.197Z</time></trkpt><trkpt lat="43.6772919" lon="12.7540804"><ele>141.0</ele><time>2026-05-02T10:05:03.192Z</time></trkpt><trkpt lat="43.6772519" lon="12.7543266"><ele>141.0</ele><time>2026-05-02T10:05:04.193Z</time></trkpt><trkpt lat="43.677213" lon="12.75458"><ele>142.66666666666666</ele><time>2026-05-02T10:05:05.198Z</time></trkpt><trkpt lat="43.677172" lon="12.75483"><ele>144.33333333333331</ele><time>2026-05-02T10:05:06.197Z</time></trkpt><trkpt lat="43.6771304" lon="12.7550895"><ele>146.0</ele><time>2026-05-02T10:05:07.202Z</time></trkpt><trkpt lat="43.6770938" lon="12.7553515"><ele>148.33333333333331</ele><time>2026-05-02T10:05:08.199Z</time></trkpt><trkpt lat="43.6770503" lon="12.7556106"><ele>150.66666666666666</ele><time>2026-05-02T10:05:09.196Z</time></trkpt><trkpt lat="43.6770128" lon="12.7558713"><ele>153.0</ele><time>2026-05-02T10:05:10.195Z</time></trkpt><trkpt lat="43.6769732" lon="12.7561321"><ele>154.0</ele><time>2026-05-02T10:05:11.197Z</time></trkpt><trkpt lat="43.6769383" lon="12.7563959"><ele>155.0</ele><time>2026-05-02T10:05:12.197Z</time></trkpt><trkpt lat="43.676912" lon="12.7566581"><ele>156.0</ele><time>2026-05-02T10:05:13.195Z</time></trkpt><trkpt lat="43.6768842" lon="12.7569192"><ele>151.0</ele><time>2026-05-02T10:05:14.196Z</time></trkpt><trkpt lat="43.6768529" lon="12.7571856"><ele>146.0</ele><time>2026-05-02T10:05:15.196Z</time></trkpt><trkpt lat="43.6768239" lon="12.7574529"><ele>141.0</ele><time>2026-05-02T10:05:16.195Z</time></trkpt><trkpt lat="43.6768022" lon="12.7577135"><ele>141.0</ele><time>2026-05-02T10:05:17.203Z</time></trkpt><trkpt lat="43.6767857" lon="12.7579735"><ele>141.0</ele><time>2026-05-02T10:05:18.199Z</time></trkpt><trkpt lat="43.6767707" lon="12.7582315"><ele>141.0</ele><time>2026-05-02T10:05:19.196Z</time></trkpt><trkpt lat="43.6767837" lon="12.7584675"><ele>142.66666666666666</ele><time>2026-05-02T10:05:20.193Z</time></trkpt><trkpt lat="43.6768167" lon="12.7586863"><ele>144.33333333333331</ele><time>2026-05-02T10:05:21.199Z</time></trkpt><trkpt lat="43.6768622" lon="12.7588816"><ele>146.0</ele><time>2026-05-02T10:05:22.202Z</time></trkpt><trkpt lat="43.6769459" lon="12.759045"><ele>146.0</ele><time>2026-05-02T10:05:23.2Z</time></trkpt><trkpt lat="43.6770812" lon="12.7591585"><ele>146.0</ele><time>2026-05-02T10:05:24.203Z</time></trkpt><trkpt lat="43.6772429" lon="12.7592242"><ele>146.0</ele><time>2026-05-02T10:05:25.197Z</time></trkpt><trkpt lat="43.6774117" lon="12.7593018"><ele>143.33333333333331</ele><time>2026-05-02T10:05:26.197Z</time></trkpt><trkpt lat="43.6775778" lon="12.7593885"><ele>140.66666666666666</ele><time>2026-05-02T10:05:27.191Z</time></trkpt><trkpt lat="43.6777459" lon="12.7594871"><ele>138.0</ele><time>2026-05-02T10:05:28.194Z</time></trkpt><trkpt lat="43.677915" lon="12.7595996"><ele>138.0</ele><time>2026-05-02T10:05:29.193Z</time></trkpt><trkpt lat="43.6780792" lon="12.7597214"><ele>138.0</ele><time>2026-05-02T10:05:30.194Z</time></trkpt><trkpt lat="43.6782442" lon="12.7598583"><ele>138.0</ele><time>2026-05-02T10:05:31.199Z</time></trkpt><trkpt lat="43.6783986" lon="12.7600297"><ele>139.0</ele><time>2026-05-02T10:05:32.197Z</time></trkpt><trkpt lat="43.6785457" lon="12.760201"><ele>140.0</ele><time>2026-05-02T10:05:33.193Z</time></trkpt><trkpt lat="43.6786915" lon="12.7603636"><ele>141.0</ele><time>2026-05-02T10:05:34.195Z</time></trkpt><trkpt lat="43.6788346" lon="12.760523"><ele>141.0</ele><time>2026-05-02T10:05:35.192Z</time></trkpt><trkpt lat="43.6789677" lon="12.760676"><ele>141.0</ele><time>2026-05-02T10:05:36.195Z</time></trkpt><trkpt lat="43.6790759" lon="12.7608466"><ele>141.0</ele><time>2026-05-02T10:05:37.196Z</time></trkpt><trkpt lat="43.6791668" lon="12.7610447"><ele>139.0</ele><time>2026-05-02T10:05:38.202Z</time></trkpt><trkpt lat="43.6792388" lon="12.7612587"><ele>137.0</ele><time>2026-05-02T10:05:39.194Z</time></trkpt><trkpt lat="43.6793073" lon="12.7614798"><ele>135.0</ele><time>2026-05-02T10:05:40.199Z</time></trkpt><trkpt lat="43.6793774" lon="12.7616912"><ele>139.0</ele><time>2026-05-02T10:05:41.197Z</time></trkpt><trkpt lat="43.6794462" lon="12.7619119"><ele>143.0</ele><time>2026-05-02T10:05:42.2Z</time></trkpt><trkpt lat="43.6795216" lon="12.7621349"><ele>147.0</ele><time>2026-05-02T10:05:43.198Z</time></trkpt><trkpt lat="43.679591" lon="12.7623624"><ele>147.0</ele><time>2026-05-02T10:05:44.201Z</time></trkpt><trkpt lat="43.6796535" lon="12.7625974"><ele>147.0</ele><time>2026-05-02T10:05:45.2Z</time></trkpt><trkpt lat="43.6796955" lon="12.7628415"><ele>147.0</ele><time>2026-05-02T10:05:46.201Z</time></trkpt><trkpt lat="43.6797276" lon="12.7630832"><ele>147.0</ele><time>2026-05-02T10:05:47.202Z</time></trkpt><trkpt lat="43.6797712" lon="12.7633241"><ele>147.0</ele><time>2026-05-02T10:05:48.199Z</time></trkpt><trkpt lat="43.6798191" lon="12.7635554"><ele>147.0</ele><time>2026-05-02T10:05:49.206Z</time></trkpt><trkpt lat="43.6798708" lon="12.7637854"><ele>146.0</ele><time>2026-05-02T10:05:50.201Z</time></trkpt><trkpt lat="43.679927" lon="12.7640119"><ele>145.0</ele><time>2026-05-02T10:05:51.192Z</time></trkpt><trkpt lat="43.6799867" lon="12.7642409"><ele>144.0</ele><time>2026-05-02T10:05:52.203Z</time></trkpt><trkpt lat="43.6800666" lon="12.7644478"><ele>141.33333333333334</ele><time>2026-05-02T10:05:53.195Z</time></trkpt><trkpt lat="43.6801727" lon="12.7646099"><ele>138.66666666666669</ele><time>2026-05-02T10:05:54.203Z</time></trkpt><trkpt lat="43.6802984" lon="12.7647362"><ele>136.0</ele><time>2026-05-02T10:05:55.198Z</time></trkpt><trkpt lat="43.6804194" lon="12.764869"><ele>138.33333333333334</ele><time>2026-05-02T10:05:56.196Z</time></trkpt><trkpt lat="43.6805114" lon="12.7650441"><ele>140.66666666666666</ele><time>2026-05-02T10:05:57.195Z</time></trkpt><trkpt lat="43.680577" lon="12.7652574"><ele>143.0</ele><time>2026-05-02T10:05:58.197Z</time></trkpt><trkpt lat="43.6806278" lon="12.7654989"><ele>143.0</ele><time>2026-05-02T10:05:59.193Z</time></trkpt><trkpt lat="43.6806916" lon="12.7657315"><ele>143.0</ele><time>2026-05-02T10:06:00.196Z</time></trkpt><trkpt lat="43.6807733" lon="12.7659612"><ele>143.0</ele><time>2026-05-02T10:06:01.191Z</time></trkpt><trkpt lat="43.6808743" lon="12.7661798"><ele>142.66666666666666</ele><time>2026-05-02T10:06:02.197Z</time></trkpt><trkpt lat="43.6809791" lon="12.766396"><ele>142.33333333333334</ele><time>2026-05-02T10:06:03.194Z</time></trkpt><trkpt lat="43.681089" lon="12.7666166"><ele>142.0</ele><time>2026-05-02T10:06:04.189Z</time></trkpt><trkpt lat="43.6811999" lon="12.7668415"><ele>139.33333333333334</ele><time>2026-05-02T10:06:05.193Z</time></trkpt><trkpt lat="43.6813085" lon="12.7670652"><ele>136.66666666666666</ele><time>2026-05-02T10:06:06.191Z</time></trkpt><trkpt lat="43.6814203" lon="12.767283"><ele>134.0</ele><time>2026-05-02T10:06:07.194Z</time></trkpt><trkpt lat="43.6815309" lon="12.7675046"><ele>133.33333333333331</ele><time>2026-05-02T10:06:08.192Z</time></trkpt><trkpt lat="43.6816477" lon="12.767729"><ele>132.66666666666666</ele><time>2026-05-02T10:06:09.195Z</time></trkpt><trkpt lat="43.6817639" lon="12.767947"><ele>132.0</ele><time>2026-05-02T10:06:10.192Z</time></trkpt><trkpt lat="43.6818772" lon="12.7681687"><ele>133.0</ele><time>2026-05-02T10:06:11.196Z</time></trkpt><trkpt lat="43.6819908" lon="12.7683865"><ele>134.0</ele><time>2026-05-02T10:06:12.195Z</time></trkpt><trkpt lat="43.6821027" lon="12.7685974"><ele>135.0</ele><time>2026-05-02T10:06:13.193Z</time></trkpt><trkpt lat="43.6822056" lon="12.7688039"><ele>135.0</ele><time>2026-05-02T10:06:14.194Z</time></trkpt><trkpt lat="43.6823127" lon="12.7690158"><ele>135.0</ele><time>2026-05-02T10:06:15.191Z</time></trkpt><trkpt lat="43.6824127" lon="12.7692205"><ele>135.0</ele><time>2026-05-02T10:06:16.196Z</time></trkpt><trkpt lat="43.6825048" lon="12.7694271"><ele>132.0</ele><time>2026-05-02T10:06:17.198Z</time></trkpt><trkpt lat="43.6825913" lon="12.7696499"><ele>129.0</ele><time>2026-05-02T10:06:18.189Z</time></trkpt><trkpt lat="43.6826647" lon="12.7698759"><ele>126.0</ele><time>2026-05-02T10:06:19.198Z</time></trkpt><trkpt lat="43.6827222" lon="12.7701188"><ele>130.33333333333334</ele><time>2026-05-02T10:06:20.193Z</time></trkpt><trkpt lat="43.6827763" lon="12.7703836"><ele>134.66666666666669</ele><time>2026-05-02T10:06:21.194Z</time></trkpt><trkpt lat="43.6828283" lon="12.7706351"><ele>139.0</ele><time>2026-05-02T10:06:22.194Z</time></trkpt><trkpt lat="43.6828812" lon="12.7708839"><ele>137.33333333333334</ele><time>2026-05-02T10:06:23.196Z</time></trkpt><trkpt lat="43.6829332" lon="12.7711234"><ele>135.66666666666666</ele><time>2026-05-02T10:06:24.193Z</time></trkpt><trkpt lat="43.6829969" lon="12.7713631"><ele>134.0</ele><time>2026-05-02T10:06:25.202Z</time></trkpt><trkpt lat="43.6830567" lon="12.7715969"><ele>134.0</ele><time>2026-05-02T10:06:26.201Z</time></trkpt><trkpt lat="43.6831093" lon="12.7718253"><ele>134.0</ele><time>2026-05-02T10:06:27.198Z</time></trkpt><trkpt lat="43.6831636" lon="12.7720546"><ele>134.0</ele><time>2026-05-02T10:06:28.203Z</time></trkpt><trkpt lat="43.6832173" lon="12.7722882"><ele>134.0</ele><time>2026-05-02T10:06:29.199Z</time></trkpt><trkpt lat="43.6832727" lon="12.7725136"><ele>134.0</ele><time>2026-05-02T10:06:30.201Z</time></trkpt><trkpt lat="43.6833255" lon="12.7727463"><ele>134.0</ele><time>2026-05-02T10:06:31.202Z</time></trkpt><trkpt lat="43.6833825" lon="12.7729767"><ele>133.66666666666666</ele><time>2026-05-02T10:06:32.202Z</time></trkpt><trkpt lat="43.6834383" lon="12.773213"><ele>133.33333333333334</ele><time>2026-05-02T10:06:33.199Z</time></trkpt><trkpt lat="43.6834944" lon="12.7734493"><ele>133.0</ele><time>2026-05-02T10:06:34.205Z</time></trkpt><trkpt lat="43.6835562" lon="12.7736872"><ele>136.33333333333334</ele><time>2026-05-02T10:06:35.202Z</time></trkpt><trkpt lat="43.6836192" lon="12.7739234"><ele>139.66666666666666</ele><time>2026-05-02T10:06:36.199Z</time></trkpt><trkpt lat="43.6836741" lon="12.7741644"><ele>143.0</ele><time>2026-05-02T10:06:37.202Z</time></trkpt><trkpt lat="43.6836844" lon="12.7744124"><ele>143.0</ele><time>2026-05-02T10:06:38.202Z</time></trkpt><trkpt lat="43.6836577" lon="12.7746533"><ele>143.0</ele><time>2026-05-02T10:06:39.202Z</time></trkpt><trkpt lat="43.6836208" lon="12.7749031"><ele>143.0</ele><time>2026-05-02T10:06:40.198Z</time></trkpt><trkpt lat="43.6836122" lon="12.775165"><ele>141.66666666666666</ele><time>2026-05-02T10:06:41.205Z</time></trkpt><trkpt lat="43.6836526" lon="12.7754094"><ele>140.33333333333334</ele><time>2026-05-02T10:06:42.201Z</time></trkpt><trkpt lat="43.6837308" lon="12.7756301"><ele>139.0</ele><time>2026-05-02T10:06:43.198Z</time></trkpt><trkpt lat="43.6838202" lon="12.775828"><ele>139.0</ele><time>2026-05-02T10:06:44.198Z</time></trkpt><trkpt lat="43.6839202" lon="12.7759998"><ele>139.0</ele><time>2026-05-02T10:06:45.2Z</time></trkpt><trkpt lat="43.684019" lon="12.7761737"><ele>139.0</ele><time>2026-05-02T10:06:46.201Z</time></trkpt><trkpt lat="43.6841199" lon="12.7763348"><ele>137.0</ele><time>2026-05-02T10:06:47.205Z</time></trkpt><trkpt lat="43.6842164" lon="12.776494"><ele>135.0</ele><time>2026-05-02T10:06:48.201Z</time></trkpt><trkpt lat="43.6843047" lon="12.7766617"><ele>133.0</ele><time>2026-05-02T10:06:49.204Z</time></trkpt><trkpt lat="43.6843878" lon="12.7768332"><ele>134.33333333333334</ele><time>2026-05-02T10:06:50.198Z</time></trkpt><trkpt lat="43.6844622" lon="12.7770316"><ele>135.66666666666666</ele><time>2026-05-02T10:06:51.201Z</time></trkpt><trkpt lat="43.6845057" lon="12.7772532"><ele>137.0</ele><time>2026-05-02T10:06:52.204Z</time></trkpt><trkpt lat="43.6845325" lon="12.7774855"><ele>136.0</ele><time>2026-05-02T10:06:53.2Z</time></trkpt><trkpt lat="43.6845534" lon="12.777715"><ele>135.0</ele><time>2026-05-02T10:06:54.197Z</time></trkpt><trkpt lat="43.6845729" lon="12.7779411"><ele>134.0</ele><time>2026-05-02T10:06:55.205Z</time></trkpt><trkpt lat="43.6845887" lon="12.7781702"><ele>134.0</ele><time>2026-05-02T10:06:56.2Z</time></trkpt><trkpt lat="43.6846072" lon="12.7784012"><ele>134.0</ele><time>2026-05-02T10:06:57.201Z</time></trkpt><trkpt lat="43.6846279" lon="12.7786406"><ele>134.0</ele><time>2026-05-02T10:06:58.201Z</time></trkpt><trkpt lat="43.6846523" lon="12.7788808"><ele>134.33333333333331</ele><time>2026-05-02T10:06:59.202Z</time></trkpt><trkpt lat="43.6846783" lon="12.7791241"><ele>134.66666666666666</ele><time>2026-05-02T10:07:00.199Z</time></trkpt><trkpt lat="43.6847054" lon="12.7793658"><ele>135.0</ele><time>2026-05-02T10:07:01.201Z</time></trkpt><trkpt lat="43.6847294" lon="12.7796079"><ele>135.0</ele><time>2026-05-02T10:07:02.2Z</time></trkpt><trkpt lat="43.6847592" lon="12.7798456"><ele>135.0</ele><time>2026-05-02T10:07:03.194Z</time></trkpt><trkpt lat="43.6848063" lon="12.7800812"><ele>135.0</ele><time>2026-05-02T10:07:04.198Z</time></trkpt><trkpt lat="43.6848699" lon="12.780316"><ele>133.0</ele><time>2026-05-02T10:07:05.199Z</time></trkpt><trkpt lat="43.6849439" lon="12.7805538"><ele>131.0</ele><time>2026-05-02T10:07:06.198Z</time></trkpt><trkpt lat="43.6850316" lon="12.7807915"><ele>129.0</ele><time>2026-05-02T10:07:07.202Z</time></trkpt><trkpt lat="43.68512" lon="12.7810327"><ele>132.33333333333334</ele><time>2026-05-02T10:07:08.199Z</time></trkpt><trkpt lat="43.6852103" lon="12.781273"><ele>135.66666666666669</ele><time>2026-05-02T10:07:09.198Z</time></trkpt><trkpt lat="43.6852962" lon="12.7815123"><ele>139.0</ele><time>2026-05-02T10:07:10.202Z</time></trkpt><trkpt lat="43.6853843" lon="12.78175"><ele>134.66666666666669</ele><time>2026-05-02T10:07:11.202Z</time></trkpt><trkpt lat="43.6854731" lon="12.7819903"><ele>130.33333333333334</ele><time>2026-05-02T10:07:12.2Z</time></trkpt><trkpt lat="43.6855545" lon="12.7822284"><ele>126.0</ele><time>2026-05-02T10:07:13.2Z</time></trkpt><trkpt lat="43.6856186" lon="12.7824675"><ele>125.33333333333334</ele><time>2026-05-02T10:07:14.198Z</time></trkpt><trkpt lat="43.6856645" lon="12.7827197"><ele>124.66666666666667</ele><time>2026-05-02T10:07:15.197Z</time></trkpt><trkpt lat="43.6856813" lon="12.7829745"><ele>124.0</ele><time>2026-05-02T10:07:16.201Z</time></trkpt><trkpt lat="43.6856875" lon="12.7832394"><ele>124.0</ele><time>2026-05-02T10:07:17.2Z</time></trkpt><trkpt lat="43.6856986" lon="12.7834864"><ele>124.0</ele><time>2026-05-02T10:07:18.198Z</time></trkpt><trkpt lat="43.6857122" lon="12.7837066"><ele>124.0</ele><time>2026-05-02T10:07:19.199Z</time></trkpt><trkpt lat="43.6857213" lon="12.7839143"><ele>124.0</ele><time>2026-05-02T10:07:20.192Z</time></trkpt><trkpt lat="43.6857309" lon="12.7841064"><ele>124.0</ele><time>2026-05-02T10:07:21.193Z</time></trkpt><trkpt lat="43.6857384" lon="12.7843048"><ele>124.0</ele><time>2026-05-02T10:07:22.197Z</time></trkpt><trkpt lat="43.6857516" lon="12.7844981"><ele>124.0</ele><time>2026-05-02T10:07:23.192Z</time></trkpt><trkpt lat="43.6857628" lon="12.7846748"><ele>124.4</ele><time>2026-05-02T10:07:24.195Z</time></trkpt><trkpt lat="43.6857755" lon="12.7848421"><ele>124.80000000000001</ele><time>2026-05-02T10:07:25.196Z</time></trkpt><trkpt lat="43.6857809" lon="12.7849906"><ele>125.19999999999999</ele><time>2026-05-02T10:07:26.197Z</time></trkpt><trkpt lat="43.6857813" lon="12.7851134"><ele>125.6</ele><time>2026-05-02T10:07:27.201Z</time></trkpt><trkpt lat="43.6857902" lon="12.7852059"><ele>126.0</ele><time>2026-05-02T10:07:28.2Z</time></trkpt><trkpt lat="43.685839" lon="12.7853336"><ele>126.33333333333333</ele><time>2026-05-02T10:07:30.194Z</time></trkpt><trkpt lat="43.6858928" lon="12.7854082"><ele>126.66666666666666</ele><time>2026-05-02T10:07:32.197Z</time></trkpt><trkpt lat="43.6859592" lon="12.7854555"><ele>127.0</ele><time>2026-05-02T10:07:49.202Z</time></trkpt><trkpt lat="43.6859754" lon="12.7855614"><ele>127.33333333333333</ele><time>2026-05-02T10:08:18.189Z</time></trkpt><trkpt lat="43.6859705" lon="12.7856919"><ele>127.66666666666666</ele><time>2026-05-02T10:08:20.19Z</time></trkpt><trkpt lat="43.6859512" lon="12.7857819"><ele>128.0</ele><time>2026-05-02T10:08:22.194Z</time></trkpt><trkpt lat="43.6858428" lon="12.7857758"><ele>128.0</ele><time>2026-05-02T10:10:40.197Z</time></trkpt><trkpt lat="43.6857964" lon="12.7859397"><ele>128.0</ele><time>2026-05-02T10:10:42.194Z</time></trkpt><trkpt lat="43.685787" lon="12.7860898"><ele>128.0</ele><time>2026-05-02T10:10:43.186Z</time></trkpt><trkpt lat="43.6857976" lon="12.7862594"><ele>128.0</ele><time>2026-05-02T10:10:44.195Z</time></trkpt><trkpt lat="43.68581" lon="12.7864409"><ele>128.25</ele><time>2026-05-02T10:10:45.191Z</time></trkpt><trkpt lat="43.6858221" lon="12.7866267"><ele>128.5</ele><time>2026-05-02T10:10:46.197Z</time></trkpt><trkpt lat="43.6858267" lon="12.7867974"><ele>128.75</ele><time>2026-05-02T10:10:47.185Z</time></trkpt><trkpt lat="43.6858318" lon="12.7869534"><ele>129.0</ele><time>2026-05-02T10:10:48.2Z</time></trkpt><trkpt lat="43.6858391" lon="12.7870934"><ele>129.4</ele><time>2026-05-02T10:10:49.205Z</time></trkpt><trkpt lat="43.6858442" lon="12.7872211"><ele>129.8</ele><time>2026-05-02T10:10:50.194Z</time></trkpt><trkpt lat="43.6858458" lon="12.7873402"><ele>130.2</ele><time>2026-05-02T10:10:51.194Z</time></trkpt><trkpt lat="43.6858476" lon="12.787457"><ele>130.6</ele><time>2026-05-02T10:10:52.201Z</time></trkpt><trkpt lat="43.6858536" lon="12.7875811"><ele>131.0</ele><time>2026-05-02T10:10:53.202Z</time></trkpt><trkpt lat="43.6858624" lon="12.7877211"><ele>131.0</ele><time>2026-05-02T10:10:54.196Z</time></trkpt><trkpt lat="43.6858725" lon="12.7878725"><ele>131.0</ele><time>2026-05-02T10:10:55.197Z</time></trkpt><trkpt lat="43.6858831" lon="12.7880326"><ele>131.0</ele><time>2026-05-02T10:10:56.195Z</time></trkpt><trkpt lat="43.6858925" lon="12.7882016"><ele>131.0</ele><time>2026-05-02T10:10:57.193Z</time></trkpt><trkpt lat="43.6859019" lon="12.7883855"><ele>130.25</ele><time>2026-05-02T10:10:58.2Z</time></trkpt><trkpt lat="43.685914" lon="12.7885734"><ele>129.5</ele><time>2026-05-02T10:10:59.195Z</time></trkpt><trkpt lat="43.6859266" lon="12.7887706"><ele>128.75</ele><time>2026-05-02T10:11:00.2Z</time></trkpt><trkpt lat="43.685937" lon="12.7889821"><ele>128.0</ele><time>2026-05-02T10:11:01.194Z</time></trkpt><trkpt lat="43.6859423" lon="12.7892099"><ele>128.33333333333331</ele><time>2026-05-02T10:11:02.199Z</time></trkpt><trkpt lat="43.6859431" lon="12.7894337"><ele>128.66666666666666</ele><time>2026-05-02T10:11:03.191Z</time></trkpt><trkpt lat="43.6859436" lon="12.7896544"><ele>129.0</ele><time>2026-05-02T10:11:04.191Z</time></trkpt><trkpt lat="43.6859432" lon="12.7898564"><ele>129.0</ele><time>2026-05-02T10:11:05.197Z</time></trkpt><trkpt lat="43.6859316" lon="12.7900326"><ele>129.0</ele><time>2026-05-02T10:11:06.193Z</time></trkpt><trkpt lat="43.6859089" lon="12.7901915"><ele>129.0</ele><time>2026-05-02T10:11:07.192Z</time></trkpt><trkpt lat="43.6858858" lon="12.7903369"><ele>129.0</ele><time>2026-05-02T10:11:08.193Z</time></trkpt><trkpt lat="43.6858489" lon="12.7904501"><ele>129.0</ele><time>2026-05-02T10:11:09.192Z</time></trkpt><trkpt lat="43.6858135" lon="12.7905602"><ele>129.0</ele><time>2026-05-02T10:11:10.192Z</time></trkpt><trkpt lat="43.6858015" lon="12.790684"><ele>129.0</ele><time>2026-05-02T10:11:11.191Z</time></trkpt><trkpt lat="43.6858179" lon="12.7908146"><ele>129.0</ele><time>2026-05-02T10:11:12.2Z</time></trkpt><trkpt lat="43.6858711" lon="12.7909457"><ele>129.0</ele><time>2026-05-02T10:11:13.195Z</time></trkpt><trkpt lat="43.6859406" lon="12.7910811"><ele>129.0</ele><time>2026-05-02T10:11:14.197Z</time></trkpt><trkpt lat="43.6859964" lon="12.7912333"><ele>129.25</ele><time>2026-05-02T10:11:15.193Z</time></trkpt><trkpt lat="43.686034" lon="12.7914044"><ele>129.5</ele><time>2026-05-02T10:11:16.195Z</time></trkpt><trkpt lat="43.6860565" lon="12.7915891"><ele>129.75</ele><time>2026-05-02T10:11:17.206Z</time></trkpt><trkpt lat="43.6860662" lon="12.7917833"><ele>130.0</ele><time>2026-05-02T10:11:18.202Z</time></trkpt><trkpt lat="43.6860758" lon="12.7919752"><ele>130.0</ele><time>2026-05-02T10:11:19.195Z</time></trkpt><trkpt lat="43.686083" lon="12.7921659"><ele>130.0</ele><time>2026-05-02T10:11:20.196Z</time></trkpt><trkpt lat="43.6860943" lon="12.7923747"><ele>130.0</ele><time>2026-05-02T10:11:21.201Z</time></trkpt><trkpt lat="43.6861086" lon="12.7926091"><ele>136.66666666666669</ele><time>2026-05-02T10:11:22.199Z</time></trkpt><trkpt lat="43.6861154" lon="12.7928486"><ele>143.33333333333334</ele><time>2026-05-02T10:11:23.201Z</time></trkpt><trkpt lat="43.6861267" lon="12.7930998"><ele>150.0</ele><time>2026-05-02T10:11:24.204Z</time></trkpt><trkpt lat="43.6861411" lon="12.7933337"><ele>149.0</ele><time>2026-05-02T10:11:25.208Z</time></trkpt><trkpt lat="43.6861476" lon="12.7935547"><ele>148.0</ele><time>2026-05-02T10:11:26.205Z</time></trkpt><trkpt lat="43.6861556" lon="12.7937781"><ele>147.0</ele><time>2026-05-02T10:11:27.201Z</time></trkpt><trkpt lat="43.6861612" lon="12.7940007"><ele>147.0</ele><time>2026-05-02T10:11:28.205Z</time></trkpt><trkpt lat="43.6861705" lon="12.794221"><ele>147.0</ele><time>2026-05-02T10:11:29.207Z</time></trkpt><trkpt lat="43.6861764" lon="12.794436"><ele>147.0</ele><time>2026-05-02T10:11:30.207Z</time></trkpt><trkpt lat="43.6861909" lon="12.794641"><ele>144.25</ele><time>2026-05-02T10:11:31.201Z</time></trkpt><trkpt lat="43.6862066" lon="12.7948454"><ele>141.5</ele><time>2026-05-02T10:11:32.203Z</time></trkpt><trkpt lat="43.68622" lon="12.795045"><ele>138.75</ele><time>2026-05-02T10:11:33.199Z</time></trkpt><trkpt lat="43.6862353" lon="12.795251"><ele>136.0</ele><time>2026-05-02T10:11:34.205Z</time></trkpt><trkpt lat="43.6862598" lon="12.7954531"><ele>133.5</ele><time>2026-05-02T10:11:35.206Z</time></trkpt><trkpt lat="43.6862815" lon="12.7956465"><ele>131.0</ele><time>2026-05-02T10:11:36.199Z</time></trkpt><trkpt lat="43.6862986" lon="12.7958118"><ele>128.5</ele><time>2026-05-02T10:11:37.201Z</time></trkpt><trkpt lat="43.6863237" lon="12.7959532"><ele>126.0</ele><time>2026-05-02T10:11:38.2Z</time></trkpt><trkpt lat="43.6863507" lon="12.7960874"><ele>125.19999999999999</ele><time>2026-05-02T10:11:39.203Z</time></trkpt><trkpt lat="43.6863748" lon="12.7962277"><ele>124.39999999999999</ele><time>2026-05-02T10:11:40.195Z</time></trkpt><trkpt lat="43.6864004" lon="12.796369"><ele>123.6</ele><time>2026-05-02T10:11:41.201Z</time></trkpt><trkpt lat="43.6864342" lon="12.7965091"><ele>122.8</ele><time>2026-05-02T10:11:42.2Z</time></trkpt><trkpt lat="43.6864753" lon="12.7966479"><ele>122.0</ele><time>2026-05-02T10:11:43.201Z</time></trkpt><trkpt lat="43.6865181" lon="12.7967819"><ele>121.75</ele><time>2026-05-02T10:11:44.202Z</time></trkpt><trkpt lat="43.6865689" lon="12.7969134"><ele>121.5</ele><time>2026-05-02T10:11:45.201Z</time></trkpt><trkpt lat="43.6866282" lon="12.7970466"><ele>121.25</ele><time>2026-05-02T10:11:46.204Z</time></trkpt><trkpt lat="43.6866892" lon="12.7971845"><ele>121.0</ele><time>2026-05-02T10:11:47.199Z</time></trkpt><trkpt lat="43.6867579" lon="12.7973349"><ele>121.0</ele><time>2026-05-02T10:11:48.204Z</time></trkpt><trkpt lat="43.6868263" lon="12.7974834"><ele>121.0</ele><time>2026-05-02T10:11:49.201Z</time></trkpt><trkpt lat="43.6868961" lon="12.7976333"><ele>121.0</ele><time>2026-05-02T10:11:50.201Z</time></trkpt><trkpt lat="43.686963" lon="12.7977799"><ele>121.0</ele><time>2026-05-02T10:11:51.195Z</time></trkpt><trkpt lat="43.6870297" lon="12.7979272"><ele>122.5</ele><time>2026-05-02T10:11:52.2Z</time></trkpt><trkpt lat="43.6871022" lon="12.7980727"><ele>124.0</ele><time>2026-05-02T10:11:53.197Z</time></trkpt><trkpt lat="43.6871807" lon="12.7982039"><ele>125.5</ele><time>2026-05-02T10:11:54.191Z</time></trkpt><trkpt lat="43.6872695" lon="12.7983309"><ele>127.0</ele><time>2026-05-02T10:11:55.199Z</time></trkpt><trkpt lat="43.687364" lon="12.7984609"><ele>130.0</ele><time>2026-05-02T10:11:56.201Z</time></trkpt><trkpt lat="43.6874647" lon="12.7985721"><ele>133.0</ele><time>2026-05-02T10:11:57.196Z</time></trkpt><trkpt lat="43.6875681" lon="12.7986774"><ele>136.0</ele><time>2026-05-02T10:11:58.203Z</time></trkpt><trkpt lat="43.6876719" lon="12.7987756"><ele>139.0</ele><time>2026-05-02T10:11:59.203Z</time></trkpt><trkpt lat="43.6877772" lon="12.7988702"><ele>139.0</ele><time>2026-05-02T10:12:00.195Z</time></trkpt><trkpt lat="43.6878855" lon="12.7989683"><ele>139.0</ele><time>2026-05-02T10:12:01.198Z</time></trkpt><trkpt lat="43.6879942" lon="12.7990698"><ele>139.0</ele><time>2026-05-02T10:12:02.193Z</time></trkpt><trkpt lat="43.6880983" lon="12.7991754"><ele>139.0</ele><time>2026-05-02T10:12:03.191Z</time></trkpt><trkpt lat="43.6881987" lon="12.7992947"><ele>132.75</ele><time>2026-05-02T10:12:04.191Z</time></trkpt><trkpt lat="43.6882912" lon="12.7994274"><ele>126.5</ele><time>2026-05-02T10:12:05.187Z</time></trkpt><trkpt lat="43.6883761" lon="12.7995775"><ele>120.25</ele><time>2026-05-02T10:12:06.191Z</time></trkpt><trkpt lat="43.6884514" lon="12.7997412"><ele>114.0</ele><time>2026-05-02T10:12:07.19Z</time></trkpt><trkpt lat="43.6885151" lon="12.7999114"><ele>114.0</ele><time>2026-05-02T10:12:08.191Z</time></trkpt><trkpt lat="43.6885654" lon="12.8000643"><ele>114.0</ele><time>2026-05-02T10:12:09.186Z</time></trkpt><trkpt lat="43.6886214" lon="12.8002156"><ele>114.0</ele><time>2026-05-02T10:12:10.187Z</time></trkpt><trkpt lat="43.688683" lon="12.8003665"><ele>114.0</ele><time>2026-05-02T10:12:11.188Z</time></trkpt><trkpt lat="43.6887376" lon="12.8005089"><ele>117.5</ele><time>2026-05-02T10:12:12.185Z</time></trkpt><trkpt lat="43.6887864" lon="12.8006594"><ele>121.0</ele><time>2026-05-02T10:12:13.189Z</time></trkpt><trkpt lat="43.6888293" lon="12.8008096"><ele>124.5</ele><time>2026-05-02T10:12:14.189Z</time></trkpt><trkpt lat="43.6888643" lon="12.8009608"><ele>128.0</ele><time>2026-05-02T10:12:15.186Z</time></trkpt><trkpt lat="43.6888966" lon="12.8011164"><ele>128.0</ele><time>2026-05-02T10:12:16.187Z</time></trkpt><trkpt lat="43.6889248" lon="12.8012798"><ele>128.0</ele><time>2026-05-02T10:12:17.19Z</time></trkpt><trkpt lat="43.6889442" lon="12.8014458"><ele>128.0</ele><time>2026-05-02T10:12:18.183Z</time></trkpt><trkpt lat="43.6889514" lon="12.8016094"><ele>128.0</ele><time>2026-05-02T10:12:19.188Z</time></trkpt><trkpt lat="43.6889538" lon="12.801751"><ele>128.20000000000002</ele><time>2026-05-02T10:12:20.18Z</time></trkpt><trkpt lat="43.6889484" lon="12.8018573"><ele>128.4</ele><time>2026-05-02T10:12:21.179Z</time></trkpt><trkpt lat="43.6889369" lon="12.8020153"><ele>128.60000000000002</ele><time>2026-05-02T10:12:23.179Z</time></trkpt><trkpt lat="43.6889401" lon="12.802125"><ele>128.8</ele><time>2026-05-02T10:12:25.177Z</time></trkpt><trkpt lat="43.6889408" lon="12.8022458"><ele>129.0</ele><time>2026-05-02T10:14:23.271Z</time></trkpt><trkpt lat="43.6889285" lon="12.8024451"><ele>129.0</ele><time>2026-05-02T10:14:25.182Z</time></trkpt><trkpt lat="43.6889182" lon="12.8025853"><ele>129.0</ele><time>2026-05-02T10:14:26.181Z</time></trkpt><trkpt lat="43.688909" lon="12.802736"><ele>129.0</ele><time>2026-05-02T10:14:27.174Z</time></trkpt><trkpt lat="43.6889021" lon="12.8028917"><ele>129.0</ele><time>2026-05-02T10:14:28.18Z</time></trkpt><trkpt lat="43.6888935" lon="12.8030626"><ele>129.0</ele><time>2026-05-02T10:14:29.181Z</time></trkpt><trkpt lat="43.6888842" lon="12.8032345"><ele>128.25</ele><time>2026-05-02T10:14:30.177Z</time></trkpt><trkpt lat="43.6888687" lon="12.8034035"><ele>127.5</ele><time>2026-05-02T10:14:31.181Z</time></trkpt><trkpt lat="43.6888451" lon="12.8035701"><ele>126.75</ele><time>2026-05-02T10:14:32.179Z</time></trkpt><trkpt lat="43.6888191" lon="12.8037363"><ele>126.0</ele><time>2026-05-02T10:14:33.179Z</time></trkpt><trkpt lat="43.6887801" lon="12.8039009"><ele>126.0</ele><time>2026-05-02T10:14:34.179Z</time></trkpt><trkpt lat="43.6887307" lon="12.8040588"><ele>126.0</ele><time>2026-05-02T10:14:35.183Z</time></trkpt><trkpt lat="43.6886734" lon="12.8042175"><ele>126.0</ele><time>2026-05-02T10:14:36.18Z</time></trkpt><trkpt lat="43.6886046" lon="12.8043649"><ele>126.0</ele><time>2026-05-02T10:14:37.186Z</time></trkpt><trkpt lat="43.6885319" lon="12.8045027"><ele>120.5</ele><time>2026-05-02T10:14:38.181Z</time></trkpt><trkpt lat="43.6884623" lon="12.8046439"><ele>115.0</ele><time>2026-05-02T10:14:39.18Z</time></trkpt><trkpt lat="43.6883977" lon="12.804788"><ele>109.5</ele><time>2026-05-02T10:14:40.179Z</time></trkpt><trkpt lat="43.688339" lon="12.8049353"><ele>104.0</ele><time>2026-05-02T10:14:41.182Z</time></trkpt><trkpt lat="43.6882741" lon="12.8050752"><ele>105.5</ele><time>2026-05-02T10:14:42.182Z</time></trkpt><trkpt lat="43.6882082" lon="12.8052247"><ele>107.0</ele><time>2026-05-02T10:14:43.184Z</time></trkpt><trkpt lat="43.6881416" lon="12.8053802"><ele>108.5</ele><time>2026-05-02T10:14:44.188Z</time></trkpt><trkpt lat="43.6880754" lon="12.8055487"><ele>110.0</ele><time>2026-05-02T10:14:45.191Z</time></trkpt><trkpt lat="43.6880094" lon="12.8057258"><ele>110.0</ele><time>2026-05-02T10:14:46.198Z</time></trkpt><trkpt lat="43.6879392" lon="12.8059157"><ele>110.0</ele><time>2026-05-02T10:14:47.198Z</time></trkpt><trkpt lat="43.68787" lon="12.8061053"><ele>110.0</ele><time>2026-05-02T10:14:48.196Z</time></trkpt><trkpt lat="43.6878089" lon="12.8062873"><ele>109.75</ele><time>2026-05-02T10:14:49.2Z</time></trkpt><trkpt lat="43.6877563" lon="12.8064559"><ele>109.5</ele><time>2026-05-02T10:14:50.201Z</time></trkpt><trkpt lat="43.6877037" lon="12.8066276"><ele>109.25</ele><time>2026-05-02T10:14:51.196Z</time></trkpt><trkpt lat="43.6876553" lon="12.8067912"><ele>109.0</ele><time>2026-05-02T10:14:52.203Z</time></trkpt><trkpt lat="43.6876192" lon="12.8069557"><ele>109.0</ele><time>2026-05-02T10:14:53.197Z</time></trkpt><trkpt lat="43.6876028" lon="12.8071202"><ele>109.0</ele><time>2026-05-02T10:14:54.2Z</time></trkpt><trkpt lat="43.6876095" lon="12.8072985"><ele>109.0</ele><time>2026-05-02T10:14:55.2Z</time></trkpt><trkpt lat="43.6876508" lon="12.8074697"><ele>109.0</ele><time>2026-05-02T10:14:56.2Z</time></trkpt><trkpt lat="43.6877123" lon="12.8076419"><ele>111.25</ele><time>2026-05-02T10:14:57.196Z</time></trkpt><trkpt lat="43.6877853" lon="12.8078072"><ele>113.5</ele><time>2026-05-02T10:14:58.201Z</time></trkpt><trkpt lat="43.6878739" lon="12.8079638"><ele>115.75</ele><time>2026-05-02T10:14:59.2Z</time></trkpt><trkpt lat="43.6879823" lon="12.8081031"><ele>118.0</ele><time>2026-05-02T10:15:00.196Z</time></trkpt><trkpt lat="43.6880884" lon="12.8082487"><ele>118.0</ele><time>2026-05-02T10:15:01.202Z</time></trkpt><trkpt lat="43.6881863" lon="12.8084042"><ele>118.0</ele><time>2026-05-02T10:15:02.198Z</time></trkpt><trkpt lat="43.6882837" lon="12.8085586"><ele>118.0</ele><time>2026-05-02T10:15:03.199Z</time></trkpt><trkpt lat="43.6883821" lon="12.8087105"><ele>118.0</ele><time>2026-05-02T10:15:04.2Z</time></trkpt><trkpt lat="43.6884718" lon="12.8088677"><ele>118.0</ele><time>2026-05-02T10:15:05.193Z</time></trkpt><trkpt lat="43.6885521" lon="12.80902"><ele>118.0</ele><time>2026-05-02T10:15:06.199Z</time></trkpt><trkpt lat="43.6886321" lon="12.8091616"><ele>118.0</ele><time>2026-05-02T10:15:07.192Z</time></trkpt><trkpt lat="43.6886982" lon="12.8092878"><ele>118.0</ele><time>2026-05-02T10:15:08.193Z</time></trkpt><trkpt lat="43.6887633" lon="12.8094156"><ele>118.16666666666667</ele><time>2026-05-02T10:15:09.196Z</time></trkpt><trkpt lat="43.6888245" lon="12.8095331"><ele>118.33333333333334</ele><time>2026-05-02T10:15:10.195Z</time></trkpt><trkpt lat="43.6888691" lon="12.8096312"><ele>118.5</ele><time>2026-05-02T10:15:11.202Z</time></trkpt><trkpt lat="43.6889177" lon="12.8097232"><ele>118.66666666666666</ele><time>2026-05-02T10:15:12.201Z</time></trkpt><trkpt lat="43.6889697" lon="12.8098043"><ele>118.83333333333333</ele><time>2026-05-02T10:15:13.203Z</time></trkpt><trkpt lat="43.6890242" lon="12.809898"><ele>119.0</ele><time>2026-05-02T10:15:14.198Z</time></trkpt><trkpt lat="43.6890808" lon="12.8099856"><ele>119.0</ele><time>2026-05-02T10:15:15.202Z</time></trkpt><trkpt lat="43.6891417" lon="12.8100728"><ele>119.0</ele><time>2026-05-02T10:15:16.198Z</time></trkpt><trkpt lat="43.6891989" lon="12.8101548"><ele>119.0</ele><time>2026-05-02T10:15:17.208Z</time></trkpt><trkpt lat="43.6892506" lon="12.8102189"><ele>119.0</ele><time>2026-05-02T10:15:18.196Z</time></trkpt><trkpt lat="43.6893385" lon="12.8103148"><ele>119.0</ele><time>2026-05-02T10:15:20.199Z</time></trkpt><trkpt lat="43.6894239" lon="12.8104182"><ele>118.6</ele><time>2026-05-02T10:15:22.208Z</time></trkpt><trkpt lat="43.6895048" lon="12.810521"><ele>118.2</ele><time>2026-05-02T10:15:24.209Z</time></trkpt><trkpt lat="43.6895878" lon="12.8106483"><ele>117.79999999999998</ele><time>2026-05-02T10:15:26.208Z</time></trkpt><trkpt lat="43.6896282" lon="12.8107252"><ele>117.39999999999999</ele><time>2026-05-02T10:15:27.211Z</time></trkpt><trkpt lat="43.689661" lon="12.8108156"><ele>117.0</ele><time>2026-05-02T10:15:28.203Z</time></trkpt><trkpt lat="43.6897061" lon="12.8109136"><ele>116.6</ele><time>2026-05-02T10:15:29.204Z</time></trkpt><trkpt lat="43.6897535" lon="12.8110248"><ele>116.19999999999999</ele><time>2026-05-02T10:15:30.206Z</time></trkpt><trkpt lat="43.6898067" lon="12.8111476"><ele>115.8</ele><time>2026-05-02T10:15:31.208Z</time></trkpt><trkpt lat="43.6898593" lon="12.8112774"><ele>115.4</ele><time>2026-05-02T10:15:32.207Z</time></trkpt><trkpt lat="43.6899153" lon="12.8114211"><ele>115.0</ele><time>2026-05-02T10:15:33.197Z</time></trkpt><trkpt lat="43.6899808" lon="12.8115826"><ele>115.0</ele><time>2026-05-02T10:15:34.196Z</time></trkpt><trkpt lat="43.6900502" lon="12.8117554"><ele>115.0</ele><time>2026-05-02T10:15:35.203Z</time></trkpt><trkpt lat="43.6901161" lon="12.8119315"><ele>115.0</ele><time>2026-05-02T10:15:36.202Z</time></trkpt><trkpt lat="43.6901838" lon="12.8121126"><ele>115.0</ele><time>2026-05-02T10:15:37.203Z</time></trkpt><trkpt lat="43.6902507" lon="12.8122762"><ele>114.8</ele><time>2026-05-02T10:15:38.2Z</time></trkpt><trkpt lat="43.6903203" lon="12.812435"><ele>114.6</ele><time>2026-05-02T10:15:39.205Z</time></trkpt><trkpt lat="43.6903817" lon="12.8125784"><ele>114.4</ele><time>2026-05-02T10:15:40.203Z</time></trkpt><trkpt lat="43.6904327" lon="12.8126961"><ele>114.2</ele><time>2026-05-02T10:15:41.201Z</time></trkpt><trkpt lat="43.6904712" lon="12.8127888"><ele>114.0</ele><time>2026-05-02T10:15:42.199Z</time></trkpt><trkpt lat="43.6905227" lon="12.8129169"><ele>114.0</ele><time>2026-05-02T10:15:44.186Z</time></trkpt><trkpt lat="43.6905572" lon="12.8130091"><ele>114.0</ele><time>2026-05-02T10:15:47.202Z</time></trkpt><trkpt lat="43.6906097" lon="12.813119"><ele>114.0</ele><time>2026-05-02T10:15:52.203Z</time></trkpt><trkpt lat="43.690655" lon="12.8132247"><ele>114.0</ele><time>2026-05-02T10:15:54.197Z</time></trkpt><trkpt lat="43.6907207" lon="12.813376"><ele>114.0</ele><time>2026-05-02T10:15:56.198Z</time></trkpt><trkpt lat="43.6907592" lon="12.8134731"><ele>113.5</ele><time>2026-05-02T10:15:57.199Z</time></trkpt><trkpt lat="43.690799" lon="12.8135785"><ele>113.0</ele><time>2026-05-02T10:15:58.199Z</time></trkpt><trkpt lat="43.6908421" lon="12.8136892"><ele>112.5</ele><time>2026-05-02T10:15:59.2Z</time></trkpt><trkpt lat="43.6908902" lon="12.8138002"><ele>112.0</ele><time>2026-05-02T10:16:00.202Z</time></trkpt><trkpt lat="43.6909398" lon="12.8139036"><ele>111.5</ele><time>2026-05-02T10:16:01.204Z</time></trkpt><trkpt lat="43.6909844" lon="12.8140086"><ele>111.0</ele><time>2026-05-02T10:16:02.203Z</time></trkpt><trkpt lat="43.6910284" lon="12.8141216"><ele>111.0</ele><time>2026-05-02T10:16:03.202Z</time></trkpt><trkpt lat="43.6910754" lon="12.8142427"><ele>111.0</ele><time>2026-05-02T10:16:04.203Z</time></trkpt><trkpt lat="43.6911256" lon="12.8143754"><ele>111.0</ele><time>2026-05-02T10:16:05.204Z</time></trkpt><trkpt lat="43.6911766" lon="12.8145124"><ele>111.0</ele><time>2026-05-02T10:16:06.204Z</time></trkpt><trkpt lat="43.6912281" lon="12.8146436"><ele>111.0</ele><time>2026-05-02T10:16:07.202Z</time></trkpt><trkpt lat="43.6912781" lon="12.8147689"><ele>111.0</ele><time>2026-05-02T10:16:08.204Z</time></trkpt><trkpt lat="43.6913296" lon="12.8148934"><ele>111.0</ele><time>2026-05-02T10:16:09.203Z</time></trkpt><trkpt lat="43.6913846" lon="12.8150188"><ele>111.0</ele><time>2026-05-02T10:16:10.203Z</time></trkpt><trkpt lat="43.6914387" lon="12.8151485"><ele>111.0</ele><time>2026-05-02T10:16:11.2Z</time></trkpt><trkpt lat="43.6914904" lon="12.8152764"><ele>111.0</ele><time>2026-05-02T10:16:12.197Z</time></trkpt><trkpt lat="43.6915422" lon="12.8154025"><ele>110.6</ele><time>2026-05-02T10:16:13.204Z</time></trkpt><trkpt lat="43.6915918" lon="12.8155191"><ele>110.19999999999999</ele><time>2026-05-02T10:16:14.199Z</time></trkpt><trkpt lat="43.6916469" lon="12.8156484"><ele>109.80000000000001</ele><time>2026-05-02T10:16:15.202Z</time></trkpt><trkpt lat="43.6917049" lon="12.8157809"><ele>109.4</ele><time>2026-05-02T10:16:16.203Z</time></trkpt><trkpt lat="43.6917652" lon="12.8159145"><ele>109.0</ele><time>2026-05-02T10:16:17.207Z</time></trkpt><trkpt lat="43.6918251" lon="12.816051"><ele>108.75</ele><time>2026-05-02T10:16:18.206Z</time></trkpt><trkpt lat="43.6918839" lon="12.816191"><ele>108.5</ele><time>2026-05-02T10:16:19.208Z</time></trkpt><trkpt lat="43.69194" lon="12.8163286"><ele>108.25</ele><time>2026-05-02T10:16:20.205Z</time></trkpt><trkpt lat="43.6919948" lon="12.8164655"><ele>108.0</ele><time>2026-05-02T10:16:21.203Z</time></trkpt><trkpt lat="43.6920477" lon="12.8165967"><ele>108.4</ele><time>2026-05-02T10:16:22.21Z</time></trkpt><trkpt lat="43.6920955" lon="12.8167236"><ele>108.80000000000001</ele><time>2026-05-02T10:16:23.204Z</time></trkpt><trkpt lat="43.6921432" lon="12.8168474"><ele>109.2</ele><time>2026-05-02T10:16:24.205Z</time></trkpt><trkpt lat="43.692193" lon="12.8169721"><ele>109.6</ele><time>2026-05-02T10:16:25.204Z</time></trkpt><trkpt lat="43.6922446" lon="12.8170995"><ele>110.0</ele><time>2026-05-02T10:16:26.209Z</time></trkpt><trkpt lat="43.692298" lon="12.8172251"><ele>110.0</ele><time>2026-05-02T10:16:27.201Z</time></trkpt><trkpt lat="43.6923532" lon="12.8173548"><ele>110.0</ele><time>2026-05-02T10:16:28.207Z</time></trkpt><trkpt lat="43.6924115" lon="12.8174813"><ele>110.0</ele><time>2026-05-02T10:16:29.205Z</time></trkpt><trkpt lat="43.6924677" lon="12.8176088"><ele>110.0</ele><time>2026-05-02T10:16:30.202Z</time></trkpt><trkpt lat="43.6925227" lon="12.8177355"><ele>110.0</ele><time>2026-05-02T10:16:31.204Z</time></trkpt><trkpt lat="43.6925731" lon="12.8178651"><ele>109.8</ele><time>2026-05-02T10:16:32.203Z</time></trkpt><trkpt lat="43.6926217" lon="12.8179933"><ele>109.6</ele><time>2026-05-02T10:16:33.207Z</time></trkpt><trkpt lat="43.6926753" lon="12.8181257"><ele>109.4</ele><time>2026-05-02T10:16:34.202Z</time></trkpt><trkpt lat="43.6927308" lon="12.8182598"><ele>109.2</ele><time>2026-05-02T10:16:35.206Z</time></trkpt><trkpt lat="43.692787" lon="12.8183954"><ele>109.0</ele><time>2026-05-02T10:16:36.205Z</time></trkpt><trkpt lat="43.6928425" lon="12.8185317"><ele>108.4</ele><time>2026-05-02T10:16:37.204Z</time></trkpt><trkpt lat="43.6928951" lon="12.8186616"><ele>107.80000000000001</ele><time>2026-05-02T10:16:38.204Z</time></trkpt><trkpt lat="43.6929474" lon="12.8187879"><ele>107.19999999999999</ele><time>2026-05-02T10:16:39.203Z</time></trkpt><trkpt lat="43.6929985" lon="12.8189064"><ele>106.6</ele><time>2026-05-02T10:16:40.204Z</time></trkpt><trkpt lat="43.6930487" lon="12.8190202"><ele>106.0</ele><time>2026-05-02T10:16:41.202Z</time></trkpt><trkpt lat="43.6930989" lon="12.8191246"><ele>106.00000000000001</ele><time>2026-05-02T10:16:42.2Z</time></trkpt><trkpt lat="43.6931492" lon="12.8192295"><ele>106.0</ele><time>2026-05-02T10:16:43.199Z</time></trkpt><trkpt lat="43.6931976" lon="12.8193331"><ele>106.0</ele><time>2026-05-02T10:16:44.198Z</time></trkpt><trkpt lat="43.6932375" lon="12.8194298"><ele>106.0</ele><time>2026-05-02T10:16:45.198Z</time></trkpt><trkpt lat="43.6932758" lon="12.8195154"><ele>106.00000000000001</ele><time>2026-05-02T10:16:46.197Z</time></trkpt><trkpt lat="43.6933087" lon="12.8195975"><ele>106.0</ele><time>2026-05-02T10:16:47.2Z</time></trkpt><trkpt lat="43.6933406" lon="12.8196772"><ele>106.0</ele><time>2026-05-02T10:16:48.199Z</time></trkpt><trkpt lat="43.6933913" lon="12.8198345"><ele>106.0</ele><time>2026-05-02T10:16:50.196Z</time></trkpt><trkpt lat="43.6933919" lon="12.8199913"><ele>106.0</ele><time>2026-05-02T10:16:52.203Z</time></trkpt><trkpt lat="43.693364" lon="12.820121"><ele>106.0</ele><time>2026-05-02T10:16:54.199Z</time></trkpt><trkpt lat="43.6933862" lon="12.8202392"><ele>106.0</ele><time>2026-05-02T10:16:56.208Z</time></trkpt><trkpt lat="43.6934657" lon="12.8203332"><ele>106.0</ele><time>2026-05-02T10:16:58.206Z</time></trkpt><trkpt lat="43.693571" lon="12.8204031"><ele>106.0</ele><time>2026-05-02T10:17:00.202Z</time></trkpt><trkpt lat="43.6936659" lon="12.8205095"><ele>106.0</ele><time>2026-05-02T10:17:02.203Z</time></trkpt><trkpt lat="43.6937055" lon="12.8205827"><ele>106.0</ele><time>2026-05-02T10:17:03.204Z</time></trkpt><trkpt lat="43.6937427" lon="12.8206699"><ele>106.0</ele><time>2026-05-02T10:17:04.205Z</time></trkpt><trkpt lat="43.6937813" lon="12.8207686"><ele>106.16666666666667</ele><time>2026-05-02T10:17:05.207Z</time></trkpt><trkpt lat="43.6938224" lon="12.8208738"><ele>106.33333333333334</ele><time>2026-05-02T10:17:06.202Z</time></trkpt><trkpt lat="43.6938656" lon="12.8209798"><ele>106.5</ele><time>2026-05-02T10:17:07.208Z</time></trkpt><trkpt lat="43.6939133" lon="12.8210855"><ele>106.66666666666666</ele><time>2026-05-02T10:17:08.207Z</time></trkpt><trkpt lat="43.6939583" lon="12.8211974"><ele>106.83333333333333</ele><time>2026-05-02T10:17:09.206Z</time></trkpt><trkpt lat="43.6940042" lon="12.8213056"><ele>107.0</ele><time>2026-05-02T10:17:10.204Z</time></trkpt><trkpt lat="43.6940485" lon="12.8214117"><ele>106.99999999999999</ele><time>2026-05-02T10:17:11.206Z</time></trkpt><trkpt lat="43.6940938" lon="12.8215147"><ele>107.0</ele><time>2026-05-02T10:17:12.204Z</time></trkpt><trkpt lat="43.6941379" lon="12.8216171"><ele>107.0</ele><time>2026-05-02T10:17:13.202Z</time></trkpt><trkpt lat="43.6941788" lon="12.8217202"><ele>107.0</ele><time>2026-05-02T10:17:14.205Z</time></trkpt><trkpt lat="43.6942148" lon="12.8218276"><ele>106.99999999999999</ele><time>2026-05-02T10:17:15.21Z</time></trkpt><trkpt lat="43.6942536" lon="12.8219365"><ele>107.0</ele><time>2026-05-02T10:17:16.204Z</time></trkpt><trkpt lat="43.6942961" lon="12.8220434"><ele>107.16666666666666</ele><time>2026-05-02T10:17:17.211Z</time></trkpt><trkpt lat="43.6943378" lon="12.8221447"><ele>107.33333333333333</ele><time>2026-05-02T10:17:18.205Z</time></trkpt><trkpt lat="43.6943763" lon="12.8222481"><ele>107.5</ele><time>2026-05-02T10:17:19.209Z</time></trkpt><trkpt lat="43.694417" lon="12.8223576"><ele>107.66666666666666</ele><time>2026-05-02T10:17:20.206Z</time></trkpt><trkpt lat="43.694457" lon="12.8224667"><ele>107.83333333333333</ele><time>2026-05-02T10:17:21.211Z</time></trkpt><trkpt lat="43.6945048" lon="12.8225705"><ele>108.0</ele><time>2026-05-02T10:17:22.211Z</time></trkpt><trkpt lat="43.6945583" lon="12.82268"><ele>108.2</ele><time>2026-05-02T10:17:23.21Z</time></trkpt><trkpt lat="43.6946124" lon="12.8227982"><ele>108.4</ele><time>2026-05-02T10:17:24.209Z</time></trkpt><trkpt lat="43.6946691" lon="12.8229171"><ele>108.60000000000001</ele><time>2026-05-02T10:17:25.208Z</time></trkpt><trkpt lat="43.6947257" lon="12.8230432"><ele>108.80000000000001</ele><time>2026-05-02T10:17:26.214Z</time></trkpt><trkpt lat="43.6947802" lon="12.8231739"><ele>109.0</ele><time>2026-05-02T10:17:27.206Z</time></trkpt><trkpt lat="43.6948374" lon="12.8233043"><ele>109.0</ele><time>2026-05-02T10:17:28.213Z</time></trkpt><trkpt lat="43.694893" lon="12.8234338"><ele>109.0</ele><time>2026-05-02T10:17:29.205Z</time></trkpt><trkpt lat="43.6949456" lon="12.8235719"><ele>109.0</ele><time>2026-05-02T10:17:30.205Z</time></trkpt><trkpt lat="43.6950011" lon="12.8237089"><ele>109.0</ele><time>2026-05-02T10:17:31.208Z</time></trkpt><trkpt lat="43.6950614" lon="12.8238475"><ele>108.5</ele><time>2026-05-02T10:17:32.206Z</time></trkpt><trkpt lat="43.6951223" lon="12.8239909"><ele>108.0</ele><time>2026-05-02T10:17:33.209Z</time></trkpt><trkpt lat="43.6951889" lon="12.8241363"><ele>107.5</ele><time>2026-05-02T10:17:34.201Z</time></trkpt><trkpt lat="43.6952561" lon="12.8242814"><ele>107.0</ele><time>2026-05-02T10:17:35.203Z</time></trkpt><trkpt lat="43.6953254" lon="12.8244263"><ele>107.0</ele><time>2026-05-02T10:17:36.2Z</time></trkpt><trkpt lat="43.6953944" lon="12.824566"><ele>106.99999999999999</ele><time>2026-05-02T10:17:37.199Z</time></trkpt><trkpt lat="43.695458" lon="12.8246934"><ele>106.99999999999999</ele><time>2026-05-02T10:17:38.206Z</time></trkpt><trkpt lat="43.6955164" lon="12.824806"><ele>107.0</ele><time>2026-05-02T10:17:39.196Z</time></trkpt><trkpt lat="43.6955676" lon="12.8249052"><ele>107.0</ele><time>2026-05-02T10:17:40.2Z</time></trkpt><trkpt lat="43.6956151" lon="12.8249888"><ele>107.0</ele><time>2026-05-02T10:17:41.204Z</time></trkpt><trkpt lat="43.6956669" lon="12.8250524"><ele>106.99999999999999</ele><time>2026-05-02T10:17:42.205Z</time></trkpt><trkpt lat="43.695776" lon="12.8250453"><ele>106.99999999999999</ele><time>2026-05-02T10:17:44.204Z</time></trkpt><trkpt lat="43.6958369" lon="12.8249635"><ele>107.0</ele><time>2026-05-02T10:17:45.205Z</time></trkpt><trkpt lat="43.69589" lon="12.8248661"><ele>107.0</ele><time>2026-05-02T10:17:46.202Z</time></trkpt><trkpt lat="43.695954" lon="12.8247523"><ele>107.0</ele><time>2026-05-02T10:17:47.206Z</time></trkpt><trkpt lat="43.6960321" lon="12.8246259"><ele>107.0</ele><time>2026-05-02T10:17:48.198Z</time></trkpt><trkpt lat="43.6961151" lon="12.8244955"><ele>107.0</ele><time>2026-05-02T10:17:49.209Z</time></trkpt><trkpt lat="43.6962036" lon="12.8243698"><ele>107.0</ele><time>2026-05-02T10:17:50.198Z</time></trkpt><trkpt lat="43.6962921" lon="12.8242439"><ele>107.5</ele><time>2026-05-02T10:17:51.201Z</time></trkpt><trkpt lat="43.6963842" lon="12.8241165"><ele>108.0</ele><time>2026-05-02T10:17:52.2Z</time></trkpt><trkpt lat="43.6964775" lon="12.8239918"><ele>108.5</ele><time>2026-05-02T10:17:53.203Z</time></trkpt><trkpt lat="43.6965712" lon="12.8238674"><ele>109.0</ele><time>2026-05-02T10:17:54.198Z</time></trkpt><trkpt lat="43.6966629" lon="12.8237397"><ele>109.0</ele><time>2026-05-02T10:17:55.205Z</time></trkpt><trkpt lat="43.6967557" lon="12.8236111"><ele>109.0</ele><time>2026-05-02T10:17:56.202Z</time></trkpt><trkpt lat="43.6968505" lon="12.8234766"><ele>109.0</ele><time>2026-05-02T10:17:57.198Z</time></trkpt><trkpt lat="43.6969488" lon="12.8233393"><ele>109.0</ele><time>2026-05-02T10:17:58.2Z</time></trkpt><trkpt lat="43.6970434" lon="12.8232021"><ele>110.66666666666667</ele><time>2026-05-02T10:17:59.203Z</time></trkpt><trkpt lat="43.6971443" lon="12.8230645"><ele>112.33333333333334</ele><time>2026-05-02T10:18:00.203Z</time></trkpt><trkpt lat="43.6972528" lon="12.822914"><ele>114.0</ele><time>2026-05-02T10:18:01.203Z</time></trkpt><trkpt lat="43.6973653" lon="12.8227611"><ele>116.0</ele><time>2026-05-02T10:18:02.201Z</time></trkpt><trkpt lat="43.6974807" lon="12.8226005"><ele>118.0</ele><time>2026-05-02T10:18:03.202Z</time></trkpt><trkpt lat="43.6976019" lon="12.8224402"><ele>120.0</ele><time>2026-05-02T10:18:04.2Z</time></trkpt><trkpt lat="43.6977167" lon="12.8222673"><ele>121.66666666666666</ele><time>2026-05-02T10:18:05.202Z</time></trkpt><trkpt lat="43.6978331" lon="12.8220834"><ele>123.33333333333333</ele><time>2026-05-02T10:18:06.199Z</time></trkpt><trkpt lat="43.697947" lon="12.8218896"><ele>125.0</ele><time>2026-05-02T10:18:07.2Z</time></trkpt><trkpt lat="43.6980685" lon="12.8216989"><ele>126.33333333333333</ele><time>2026-05-02T10:18:08.197Z</time></trkpt><trkpt lat="43.698196" lon="12.8215111"><ele>127.66666666666666</ele><time>2026-05-02T10:18:09.2Z</time></trkpt><trkpt lat="43.6983271" lon="12.8213253"><ele>129.0</ele><time>2026-05-02T10:18:10.195Z</time></trkpt><trkpt lat="43.698445" lon="12.8211423"><ele>130.0</ele><time>2026-05-02T10:18:11.195Z</time></trkpt><trkpt lat="43.6985423" lon="12.8209659"><ele>131.0</ele><time>2026-05-02T10:18:12.196Z</time></trkpt><trkpt lat="43.6986489" lon="12.8208142"><ele>132.0</ele><time>2026-05-02T10:18:13.199Z</time></trkpt><trkpt lat="43.6987426" lon="12.8206562"><ele>132.0</ele><time>2026-05-02T10:18:14.2Z</time></trkpt><trkpt lat="43.6988168" lon="12.8205057"><ele>132.0</ele><time>2026-05-02T10:18:15.196Z</time></trkpt><trkpt lat="43.6988938" lon="12.8203847"><ele>132.0</ele><time>2026-05-02T10:18:16.192Z</time></trkpt><trkpt lat="43.6989657" lon="12.8202457"><ele>132.0</ele><time>2026-05-02T10:18:17.19Z</time></trkpt><trkpt lat="43.6990309" lon="12.8201127"><ele>132.5</ele><time>2026-05-02T10:18:18.199Z</time></trkpt><trkpt lat="43.699093" lon="12.8199788"><ele>133.0</ele><time>2026-05-02T10:18:19.198Z</time></trkpt><trkpt lat="43.6991503" lon="12.8198448"><ele>133.5</ele><time>2026-05-02T10:18:20.201Z</time></trkpt><trkpt lat="43.6992162" lon="12.8197144"><ele>134.0</ele><time>2026-05-02T10:18:21.199Z</time></trkpt><trkpt lat="43.6992914" lon="12.8195933"><ele>134.0</ele><time>2026-05-02T10:18:22.201Z</time></trkpt><trkpt lat="43.6993737" lon="12.8194754"><ele>134.0</ele><time>2026-05-02T10:18:23.201Z</time></trkpt><trkpt lat="43.6994618" lon="12.8193546"><ele>134.0</ele><time>2026-05-02T10:18:24.2Z</time></trkpt><trkpt lat="43.699553" lon="12.8192324"><ele>134.0</ele><time>2026-05-02T10:18:25.198Z</time></trkpt><trkpt lat="43.6996501" lon="12.8191036"><ele>135.25</ele><time>2026-05-02T10:18:26.201Z</time></trkpt><trkpt lat="43.6997496" lon="12.8189685"><ele>136.5</ele><time>2026-05-02T10:18:27.197Z</time></trkpt><trkpt lat="43.6998359" lon="12.8188212"><ele>137.75</ele><time>2026-05-02T10:18:28.203Z</time></trkpt><trkpt lat="43.6999103" lon="12.8186667"><ele>139.0</ele><time>2026-05-02T10:18:29.202Z</time></trkpt><trkpt lat="43.6999741" lon="12.8185138"><ele>140.25</ele><time>2026-05-02T10:18:30.204Z</time></trkpt><trkpt lat="43.7000271" lon="12.8183689"><ele>141.5</ele><time>2026-05-02T10:18:31.196Z</time></trkpt><trkpt lat="43.7000739" lon="12.8182249"><ele>142.75</ele><time>2026-05-02T10:18:32.202Z</time></trkpt><trkpt lat="43.7001236" lon="12.8180803"><ele>144.0</ele><time>2026-05-02T10:18:33.199Z</time></trkpt><trkpt lat="43.7001797" lon="12.8179335"><ele>144.0</ele><time>2026-05-02T10:18:34.196Z</time></trkpt><trkpt lat="43.7002458" lon="12.8178008"><ele>144.0</ele><time>2026-05-02T10:18:35.195Z</time></trkpt><trkpt lat="43.7003218" lon="12.817675"><ele>144.0</ele><time>2026-05-02T10:18:36.196Z</time></trkpt><trkpt lat="43.7004006" lon="12.8175603"><ele>144.0</ele><time>2026-05-02T10:18:37.205Z</time></trkpt><trkpt lat="43.700484" lon="12.8174473"><ele>144.4</ele><time>2026-05-02T10:18:38.198Z</time></trkpt><trkpt lat="43.7005666" lon="12.817337"><ele>144.8</ele><time>2026-05-02T10:18:39.2Z</time></trkpt><trkpt lat="43.7006458" lon="12.8172221"><ele>145.2</ele><time>2026-05-02T10:18:40.201Z</time></trkpt><trkpt lat="43.700712" lon="12.8171011"><ele>145.6</ele><time>2026-05-02T10:18:41.197Z</time></trkpt><trkpt lat="43.7007698" lon="12.8169734"><ele>146.0</ele><time>2026-05-02T10:18:42.195Z</time></trkpt><trkpt lat="43.7008192" lon="12.8168344"><ele>146.0</ele><time>2026-05-02T10:18:43.198Z</time></trkpt><trkpt lat="43.7008692" lon="12.8166982"><ele>146.0</ele><time>2026-05-02T10:18:44.202Z</time></trkpt><trkpt lat="43.7009277" lon="12.8165593"><ele>146.0</ele><time>2026-05-02T10:18:45.199Z</time></trkpt><trkpt lat="43.70099" lon="12.8164248"><ele>146.0</ele><time>2026-05-02T10:18:46.195Z</time></trkpt><trkpt lat="43.7010498" lon="12.8163005"><ele>146.0</ele><time>2026-05-02T10:18:47.198Z</time></trkpt><trkpt lat="43.7011208" lon="12.8161809"><ele>146.0</ele><time>2026-05-02T10:18:48.199Z</time></trkpt><trkpt lat="43.7011936" lon="12.8160555"><ele>146.0</ele><time>2026-05-02T10:18:49.201Z</time></trkpt><trkpt lat="43.7012688" lon="12.8159314"><ele>146.0</ele><time>2026-05-02T10:18:50.198Z</time></trkpt><trkpt lat="43.7013466" lon="12.8158045"><ele>145.6</ele><time>2026-05-02T10:18:51.194Z</time></trkpt><trkpt lat="43.701422" lon="12.8156808"><ele>145.2</ele><time>2026-05-02T10:18:52.2Z</time></trkpt><trkpt lat="43.7014916" lon="12.8155628"><ele>144.8</ele><time>2026-05-02T10:18:53.198Z</time></trkpt><trkpt lat="43.7015583" lon="12.8154482"><ele>144.4</ele><time>2026-05-02T10:18:54.197Z</time></trkpt><trkpt lat="43.7016146" lon="12.8153335"><ele>144.0</ele><time>2026-05-02T10:18:55.197Z</time></trkpt><trkpt lat="43.7016607" lon="12.8152074"><ele>144.25</ele><time>2026-05-02T10:18:56.191Z</time></trkpt><trkpt lat="43.7016928" lon="12.8150639"><ele>144.5</ele><time>2026-05-02T10:18:57.194Z</time></trkpt><trkpt lat="43.7017125" lon="12.8149034"><ele>144.75</ele><time>2026-05-02T10:18:58.191Z</time></trkpt><trkpt lat="43.701723" lon="12.8147178"><ele>145.0</ele><time>2026-05-02T10:18:59.191Z</time></trkpt><trkpt lat="43.701734" lon="12.8145225"><ele>145.0</ele><time>2026-05-02T10:19:00.191Z</time></trkpt><trkpt lat="43.7017486" lon="12.8143222"><ele>145.0</ele><time>2026-05-02T10:19:01.193Z</time></trkpt><trkpt lat="43.7017747" lon="12.8141088"><ele>145.0</ele><time>2026-05-02T10:19:02.2Z</time></trkpt><trkpt lat="43.7018007" lon="12.8138921"><ele>146.66666666666669</ele><time>2026-05-02T10:19:03.193Z</time></trkpt><trkpt lat="43.7018273" lon="12.813656"><ele>148.33333333333334</ele><time>2026-05-02T10:19:04.196Z</time></trkpt><trkpt lat="43.701834" lon="12.8134257"><ele>150.0</ele><time>2026-05-02T10:19:05.193Z</time></trkpt><trkpt lat="43.7018174" lon="12.8132047"><ele>151.25</ele><time>2026-05-02T10:19:06.198Z</time></trkpt><trkpt lat="43.7017937" lon="12.8130007"><ele>152.5</ele><time>2026-05-02T10:19:07.2Z</time></trkpt><trkpt lat="43.7018013" lon="12.8128041"><ele>153.75</ele><time>2026-05-02T10:19:08.194Z</time></trkpt><trkpt lat="43.7018547" lon="12.8126277"><ele>155.0</ele><time>2026-05-02T10:19:09.197Z</time></trkpt><trkpt lat="43.7019516" lon="12.8125018"><ele>158.2</ele><time>2026-05-02T10:19:10.197Z</time></trkpt><trkpt lat="43.7020537" lon="12.8124521"><ele>161.4</ele><time>2026-05-02T10:19:11.188Z</time></trkpt><trkpt lat="43.7021556" lon="12.8124542"><ele>164.60000000000002</ele><time>2026-05-02T10:19:12.19Z</time></trkpt><trkpt lat="43.7022627" lon="12.8124845"><ele>167.8</ele><time>2026-05-02T10:19:13.193Z</time></trkpt><trkpt lat="43.7023806" lon="12.8125063"><ele>171.0</ele><time>2026-05-02T10:19:14.191Z</time></trkpt><trkpt lat="43.7025036" lon="12.8124856"><ele>171.0</ele><time>2026-05-02T10:19:15.203Z</time></trkpt><trkpt lat="43.7026248" lon="12.812405"><ele>171.0</ele><time>2026-05-02T10:19:16.201Z</time></trkpt><trkpt lat="43.7027435" lon="12.812326"><ele>171.0</ele><time>2026-05-02T10:19:17.203Z</time></trkpt><trkpt lat="43.7028599" lon="12.8122411"><ele>171.0</ele><time>2026-05-02T10:19:18.2Z</time></trkpt><trkpt lat="43.7029612" lon="12.8121532"><ele>171.0</ele><time>2026-05-02T10:19:19.203Z</time></trkpt><trkpt lat="43.7030364" lon="12.8120575"><ele>171.0</ele><time>2026-05-02T10:19:20.199Z</time></trkpt><trkpt lat="43.7030848" lon="12.8119575"><ele>171.0</ele><time>2026-05-02T10:19:21.201Z</time></trkpt><trkpt lat="43.7030862" lon="12.8118632"><ele>171.0</ele><time>2026-05-02T10:19:22.197Z</time></trkpt><trkpt lat="43.7030354" lon="12.8117853"><ele>171.0</ele><time>2026-05-02T10:19:23.2Z</time></trkpt><trkpt lat="43.7029454" lon="12.8117307"><ele>171.0</ele><time>2026-05-02T10:19:24.204Z</time></trkpt><trkpt lat="43.7028217" lon="12.8116908"><ele>174.0</ele><time>2026-05-02T10:19:25.198Z</time></trkpt><trkpt lat="43.702684" lon="12.811638"><ele>177.0</ele><time>2026-05-02T10:19:26.199Z</time></trkpt><trkpt lat="43.7025311" lon="12.8115734"><ele>180.0</ele><time>2026-05-02T10:19:27.201Z</time></trkpt><trkpt lat="43.7023686" lon="12.8115112"><ele>180.0</ele><time>2026-05-02T10:19:28.203Z</time></trkpt><trkpt lat="43.7021924" lon="12.8114404"><ele>180.0</ele><time>2026-05-02T10:19:29.208Z</time></trkpt><trkpt lat="43.7020245" lon="12.8113736"><ele>180.0</ele><time>2026-05-02T10:19:30.204Z</time></trkpt><trkpt lat="43.701875" lon="12.8113259"><ele>180.75</ele><time>2026-05-02T10:19:31.195Z</time></trkpt><trkpt lat="43.701755" lon="12.811275"><ele>181.5</ele><time>2026-05-02T10:19:32.208Z</time></trkpt><trkpt lat="43.7016558" lon="12.8112059"><ele>182.25</ele><time>2026-05-02T10:19:33.198Z</time></trkpt><trkpt lat="43.7015618" lon="12.811102"><ele>183.0</ele><time>2026-05-02T10:19:34.202Z</time></trkpt><trkpt lat="43.7015069" lon="12.8109756"><ele>183.0</ele><time>2026-05-02T10:19:35.195Z</time></trkpt><trkpt lat="43.7014706" lon="12.8108185"><ele>183.0</ele><time>2026-05-02T10:19:36.196Z</time></trkpt><trkpt lat="43.7014489" lon="12.8106431"><ele>183.0</ele><time>2026-05-02T10:19:37.195Z</time></trkpt><trkpt lat="43.7014414" lon="12.8104503"><ele>183.0</ele><time>2026-05-02T10:19:38.195Z</time></trkpt><trkpt lat="43.7014382" lon="12.8102517"><ele>185.75</ele><time>2026-05-02T10:19:39.203Z</time></trkpt><trkpt lat="43.70145" lon="12.8100429"><ele>188.5</ele><time>2026-05-02T10:19:40.197Z</time></trkpt><trkpt lat="43.7014799" lon="12.8098403"><ele>191.25</ele><time>2026-05-02T10:19:41.207Z</time></trkpt><trkpt lat="43.7015151" lon="12.8096561"><ele>194.0</ele><time>2026-05-02T10:19:42.201Z</time></trkpt><trkpt lat="43.7015303" lon="12.8094477"><ele>196.75</ele><time>2026-05-02T10:19:43.201Z</time></trkpt><trkpt lat="43.7015333" lon="12.8092356"><ele>199.5</ele><time>2026-05-02T10:19:44.197Z</time></trkpt><trkpt lat="43.7015404" lon="12.8090293"><ele>202.25</ele><time>2026-05-02T10:19:45.196Z</time></trkpt><trkpt lat="43.7015634" lon="12.8088353"><ele>205.0</ele><time>2026-05-02T10:19:46.195Z</time></trkpt><trkpt lat="43.7016037" lon="12.8086351"><ele>206.66666666666666</ele><time>2026-05-02T10:19:47.198Z</time></trkpt><trkpt lat="43.7016439" lon="12.8084407"><ele>208.33333333333331</ele><time>2026-05-02T10:19:48.196Z</time></trkpt><trkpt lat="43.7016863" lon="12.8082278"><ele>210.0</ele><time>2026-05-02T10:19:49.207Z</time></trkpt><trkpt lat="43.7017338" lon="12.8080088"><ele>210.0</ele><time>2026-05-02T10:19:50.193Z</time></trkpt><trkpt lat="43.7017786" lon="12.8077854"><ele>210.0</ele><time>2026-05-02T10:19:51.189Z</time></trkpt><trkpt lat="43.701819" lon="12.807559"><ele>210.0</ele><time>2026-05-02T10:19:52.196Z</time></trkpt><trkpt lat="43.7018705" lon="12.8073363"><ele>220.33333333333331</ele><time>2026-05-02T10:19:53.194Z</time></trkpt><trkpt lat="43.7019408" lon="12.8071307"><ele>230.66666666666666</ele><time>2026-05-02T10:19:54.189Z</time></trkpt><trkpt lat="43.7020264" lon="12.8069456"><ele>241.0</ele><time>2026-05-02T10:19:55.19Z</time></trkpt><trkpt lat="43.702119" lon="12.8067595"><ele>241.0</ele><time>2026-05-02T10:19:56.191Z</time></trkpt><trkpt lat="43.7022062" lon="12.8065817"><ele>241.0</ele><time>2026-05-02T10:19:57.195Z</time></trkpt><trkpt lat="43.7022977" lon="12.8064026"><ele>241.0</ele><time>2026-05-02T10:19:58.193Z</time></trkpt><trkpt lat="43.7024007" lon="12.8062092"><ele>241.0</ele><time>2026-05-02T10:19:59.192Z</time></trkpt><trkpt lat="43.7025124" lon="12.8060363"><ele>241.0</ele><time>2026-05-02T10:20:00.192Z</time></trkpt><trkpt lat="43.7026362" lon="12.805876"><ele>241.0</ele><time>2026-05-02T10:20:01.201Z</time></trkpt><trkpt lat="43.7027716" lon="12.8057336"><ele>246.66666666666666</ele><time>2026-05-02T10:20:02.202Z</time></trkpt><trkpt lat="43.7029091" lon="12.8055907"><ele>252.33333333333331</ele><time>2026-05-02T10:20:03.2Z</time></trkpt><trkpt lat="43.7030389" lon="12.8054505"><ele>258.0</ele><time>2026-05-02T10:20:04.2Z</time></trkpt><trkpt lat="43.7031628" lon="12.8052936"><ele>254.33333333333331</ele><time>2026-05-02T10:20:05.197Z</time></trkpt><trkpt lat="43.7032833" lon="12.8051562"><ele>250.66666666666666</ele><time>2026-05-02T10:20:06.195Z</time></trkpt><trkpt lat="43.7034052" lon="12.8050257"><ele>247.0</ele><time>2026-05-02T10:20:07.201Z</time></trkpt><trkpt lat="43.7035374" lon="12.8049097"><ele>254.5</ele><time>2026-05-02T10:20:08.197Z</time></trkpt><trkpt lat="43.7036596" lon="12.8047835"><ele>262.0</ele><time>2026-05-02T10:20:09.198Z</time></trkpt><trkpt lat="43.7037683" lon="12.8046478"><ele>269.5</ele><time>2026-05-02T10:20:10.202Z</time></trkpt><trkpt lat="43.7038765" lon="12.8045039"><ele>277.0</ele><time>2026-05-02T10:20:11.199Z</time></trkpt><trkpt lat="43.70397" lon="12.8043539"><ele>274.5</ele><time>2026-05-02T10:20:12.183Z</time></trkpt><trkpt lat="43.7040599" lon="12.8042022"><ele>272.0</ele><time>2026-05-02T10:20:13.188Z</time></trkpt><trkpt lat="43.7041462" lon="12.8040276"><ele>269.5</ele><time>2026-05-02T10:20:14.182Z</time></trkpt><trkpt lat="43.7042111" lon="12.8038749"><ele>267.0</ele><time>2026-05-02T10:20:15.193Z</time></trkpt><trkpt lat="43.7042731" lon="12.8037333"><ele>267.0</ele><time>2026-05-02T10:20:16.186Z</time></trkpt><trkpt lat="43.7043348" lon="12.8036018"><ele>267.0</ele><time>2026-05-02T10:20:17.186Z</time></trkpt><trkpt lat="43.7044021" lon="12.8034787"><ele>267.0</ele><time>2026-05-02T10:20:18.186Z</time></trkpt><trkpt lat="43.7044781" lon="12.803358"><ele>267.0</ele><time>2026-05-02T10:20:19.193Z</time></trkpt><trkpt lat="43.704575" lon="12.8032487"><ele>270.0</ele><time>2026-05-02T10:20:20.186Z</time></trkpt><trkpt lat="43.704686" lon="12.8031634"><ele>273.0</ele><time>2026-05-02T10:20:21.191Z</time></trkpt><trkpt lat="43.7047947" lon="12.803085"><ele>276.0</ele><time>2026-05-02T10:20:22.194Z</time></trkpt><trkpt lat="43.7048941" lon="12.8029917"><ele>279.0</ele><time>2026-05-02T10:20:23.191Z</time></trkpt><trkpt lat="43.7049771" lon="12.8028998"><ele>279.0</ele><time>2026-05-02T10:20:24.19Z</time></trkpt><trkpt lat="43.7050442" lon="12.8027978"><ele>279.0</ele><time>2026-05-02T10:20:25.19Z</time></trkpt><trkpt lat="43.7050779" lon="12.8026663"><ele>279.0</ele><time>2026-05-02T10:20:26.189Z</time></trkpt><trkpt lat="43.7051003" lon="12.8025093"><ele>279.0</ele><time>2026-05-02T10:20:27.182Z</time></trkpt><trkpt lat="43.7051459" lon="12.802386"><ele>279.0</ele><time>2026-05-02T10:20:28.186Z</time></trkpt><trkpt lat="43.7052234" lon="12.8022813"><ele>284.5</ele><time>2026-05-02T10:20:29.193Z</time></trkpt><trkpt lat="43.7053231" lon="12.8022014"><ele>290.0</ele><time>2026-05-02T10:20:30.192Z</time></trkpt><trkpt lat="43.7054152" lon="12.8021072"><ele>295.5</ele><time>2026-05-02T10:20:31.19Z</time></trkpt><trkpt lat="43.7055072" lon="12.8020044"><ele>301.0</ele><time>2026-05-02T10:20:32.192Z</time></trkpt><trkpt lat="43.7056078" lon="12.8019098"><ele>301.0</ele><time>2026-05-02T10:20:33.186Z</time></trkpt><trkpt lat="43.7057177" lon="12.8018323"><ele>301.0</ele><time>2026-05-02T10:20:34.188Z</time></trkpt><trkpt lat="43.7058257" lon="12.8017381"><ele>301.0</ele><time>2026-05-02T10:20:35.188Z</time></trkpt><trkpt lat="43.7059301" lon="12.8016047"><ele>301.0</ele><time>2026-05-02T10:20:36.182Z</time></trkpt><trkpt lat="43.7060376" lon="12.8014559"><ele>303.5</ele><time>2026-05-02T10:20:37.184Z</time></trkpt><trkpt lat="43.7061443" lon="12.8012872"><ele>306.0</ele><time>2026-05-02T10:20:38.189Z</time></trkpt><trkpt lat="43.7062444" lon="12.8011517"><ele>308.5</ele><time>2026-05-02T10:20:39.178Z</time></trkpt><trkpt lat="43.7063415" lon="12.8010394"><ele>311.0</ele><time>2026-05-02T10:20:40.185Z</time></trkpt><trkpt lat="43.7064352" lon="12.8009304"><ele>311.0</ele><time>2026-05-02T10:20:41.186Z</time></trkpt><trkpt lat="43.7065155" lon="12.8008615"><ele>311.0</ele><time>2026-05-02T10:20:42.178Z</time></trkpt><trkpt lat="43.7066005" lon="12.8008433"><ele>311.0</ele><time>2026-05-02T10:20:43.19Z</time></trkpt><trkpt lat="43.7066823" lon="12.8008393"><ele>311.0</ele><time>2026-05-02T10:20:44.196Z</time></trkpt><trkpt lat="43.7067456" lon="12.8008228"><ele>311.0</ele><time>2026-05-02T10:20:45.193Z</time></trkpt><trkpt lat="43.7068281" lon="12.8007922"><ele>311.0</ele><time>2026-05-02T10:20:47.203Z</time></trkpt><trkpt lat="43.7069083" lon="12.8008767"><ele>309.2</ele><time>2026-05-02T10:20:49.195Z</time></trkpt><trkpt lat="43.7069672" lon="12.800973"><ele>307.40000000000003</ele><time>2026-05-02T10:20:50.198Z</time></trkpt><trkpt lat="43.7070438" lon="12.801083"><ele>305.6</ele><time>2026-05-02T10:20:51.199Z</time></trkpt><trkpt lat="43.707126" lon="12.8011995"><ele>303.8</ele><time>2026-05-02T10:20:52.2Z</time></trkpt><trkpt lat="43.7071995" lon="12.801314"><ele>302.0</ele><time>2026-05-02T10:20:53.196Z</time></trkpt><trkpt lat="43.707272" lon="12.8014299"><ele>300.8</ele><time>2026-05-02T10:20:54.198Z</time></trkpt><trkpt lat="43.7073412" lon="12.8015241"><ele>299.6</ele><time>2026-05-02T10:20:55.18Z</time></trkpt><trkpt lat="43.7074066" lon="12.8016176"><ele>298.40000000000003</ele><time>2026-05-02T10:20:56.202Z</time></trkpt><trkpt lat="43.7074751" lon="12.8017066"><ele>297.2</ele><time>2026-05-02T10:20:57.197Z</time></trkpt><trkpt lat="43.7075409" lon="12.8018072"><ele>296.0</ele><time>2026-05-02T10:20:58.202Z</time></trkpt><trkpt lat="43.707608" lon="12.8019402"><ele>296.0</ele><time>2026-05-02T10:20:59.192Z</time></trkpt><trkpt lat="43.7076838" lon="12.8020875"><ele>296.0</ele><time>2026-05-02T10:21:00.191Z</time></trkpt><trkpt lat="43.7077446" lon="12.8022337"><ele>296.0</ele><time>2026-05-02T10:21:01.193Z</time></trkpt><trkpt lat="43.7078101" lon="12.802364"><ele>296.0</ele><time>2026-05-02T10:21:02.192Z</time></trkpt><trkpt lat="43.7078676" lon="12.8024836"><ele>292.6666666666667</ele><time>2026-05-02T10:21:03.194Z</time></trkpt><trkpt lat="43.7079078" lon="12.8025921"><ele>289.33333333333337</ele><time>2026-05-02T10:21:04.198Z</time></trkpt><trkpt lat="43.7079339" lon="12.8027084"><ele>286.0</ele><time>2026-05-02T10:21:05.195Z</time></trkpt><trkpt lat="43.7079431" lon="12.8028181"><ele>282.6666666666667</ele><time>2026-05-02T10:21:06.203Z</time></trkpt><trkpt lat="43.707961" lon="12.802939"><ele>279.3333333333333</ele><time>2026-05-02T10:21:07.197Z</time></trkpt><trkpt lat="43.7079779" lon="12.8030639"><ele>276.0</ele><time>2026-05-02T10:21:08.189Z</time></trkpt><trkpt lat="43.7080025" lon="12.8032091"><ele>274.6</ele><time>2026-05-02T10:21:09.196Z</time></trkpt><trkpt lat="43.7080387" lon="12.8033603"><ele>273.20000000000005</ele><time>2026-05-02T10:21:10.2Z</time></trkpt><trkpt lat="43.7080855" lon="12.8035025"><ele>271.79999999999995</ele><time>2026-05-02T10:21:11.198Z</time></trkpt><trkpt lat="43.7081319" lon="12.803628"><ele>270.4</ele><time>2026-05-02T10:21:12.2Z</time></trkpt><trkpt lat="43.7081713" lon="12.8037327"><ele>269.0</ele><time>2026-05-02T10:21:13.201Z</time></trkpt><trkpt lat="43.7082087" lon="12.8038073"><ele>268.8</ele><time>2026-05-02T10:21:14.202Z</time></trkpt><trkpt lat="43.7082853" lon="12.8038716"><ele>268.59999999999997</ele><time>2026-05-02T10:21:16.205Z</time></trkpt><trkpt lat="43.708351" lon="12.80379"><ele>268.4</ele><time>2026-05-02T10:21:18.203Z</time></trkpt><trkpt lat="43.7084194" lon="12.8037103"><ele>268.2</ele><time>2026-05-02T10:21:19.204Z</time></trkpt><trkpt lat="43.7085103" lon="12.8036253"><ele>268.0</ele><time>2026-05-02T10:21:20.197Z</time></trkpt><trkpt lat="43.7086287" lon="12.8035369"><ele>265.0</ele><time>2026-05-02T10:21:21.206Z</time></trkpt><trkpt lat="43.7087491" lon="12.8034452"><ele>262.0</ele><time>2026-05-02T10:21:22.205Z</time></trkpt><trkpt lat="43.7088583" lon="12.8033627"><ele>259.0</ele><time>2026-05-02T10:21:23.198Z</time></trkpt><trkpt lat="43.7089494" lon="12.8032851"><ele>256.0</ele><time>2026-05-02T10:21:24.203Z</time></trkpt><trkpt lat="43.7090235" lon="12.8031985"><ele>256.0</ele><time>2026-05-02T10:21:25.203Z</time></trkpt><trkpt lat="43.7090765" lon="12.8030951"><ele>256.0</ele><time>2026-05-02T10:21:26.212Z</time></trkpt><trkpt lat="43.7091098" lon="12.8029555"><ele>256.0</ele><time>2026-05-02T10:21:27.21Z</time></trkpt><trkpt lat="43.7091388" lon="12.802778"><ele>256.0</ele><time>2026-05-02T10:21:28.21Z</time></trkpt><trkpt lat="43.7091861" lon="12.8025946"><ele>257.5</ele><time>2026-05-02T10:21:29.199Z</time></trkpt><trkpt lat="43.7092439" lon="12.8024022"><ele>259.0</ele><time>2026-05-02T10:21:30.207Z</time></trkpt><trkpt lat="43.7092943" lon="12.8022074"><ele>260.5</ele><time>2026-05-02T10:21:31.203Z</time></trkpt><trkpt lat="43.7093231" lon="12.802015"><ele>262.0</ele><time>2026-05-02T10:21:32.199Z</time></trkpt><trkpt lat="43.7093575" lon="12.8018495"><ele>261.5</ele><time>2026-05-02T10:21:33.205Z</time></trkpt><trkpt lat="43.7094266" lon="12.8017363"><ele>261.0</ele><time>2026-05-02T10:21:34.201Z</time></trkpt><trkpt lat="43.7095167" lon="12.8016362"><ele>260.5</ele><time>2026-05-02T10:21:35.199Z</time></trkpt><trkpt lat="43.7096404" lon="12.8015379"><ele>260.0</ele><time>2026-05-02T10:21:36.192Z</time></trkpt><trkpt lat="43.7097684" lon="12.801451"><ele>260.0</ele><time>2026-05-02T10:21:37.205Z</time></trkpt><trkpt lat="43.7098971" lon="12.8013757"><ele>260.0</ele><time>2026-05-02T10:21:38.192Z</time></trkpt><trkpt lat="43.710033" lon="12.8012949"><ele>260.0</ele><time>2026-05-02T10:21:39.198Z</time></trkpt><trkpt lat="43.7101805" lon="12.8012062"><ele>260.0</ele><time>2026-05-02T10:21:40.198Z</time></trkpt><trkpt lat="43.710316" lon="12.8011282"><ele>259.75</ele><time>2026-05-02T10:21:41.202Z</time></trkpt><trkpt lat="43.7104432" lon="12.8010456"><ele>259.5</ele><time>2026-05-02T10:21:42.202Z</time></trkpt><trkpt lat="43.7105539" lon="12.8009844"><ele>259.25</ele><time>2026-05-02T10:21:43.204Z</time></trkpt><trkpt lat="43.7106486" lon="12.8009082"><ele>259.0</ele><time>2026-05-02T10:21:44.204Z</time></trkpt><trkpt lat="43.710714" lon="12.8008393"><ele>259.0</ele><time>2026-05-02T10:21:45.202Z</time></trkpt><trkpt lat="43.7107732" lon="12.8007498"><ele>259.0</ele><time>2026-05-02T10:21:46.209Z</time></trkpt><trkpt lat="43.7108267" lon="12.8006449"><ele>259.0</ele><time>2026-05-02T10:21:47.204Z</time></trkpt><trkpt lat="43.7108753" lon="12.8005208"><ele>259.0</ele><time>2026-05-02T10:21:48.199Z</time></trkpt><trkpt lat="43.7109173" lon="12.8003805"><ele>259.0</ele><time>2026-05-02T10:21:49.203Z</time></trkpt><trkpt lat="43.7109345" lon="12.8002149"><ele>260.0</ele><time>2026-05-02T10:21:50.205Z</time></trkpt><trkpt lat="43.71096" lon="12.8000459"><ele>261.0</ele><time>2026-05-02T10:21:51.194Z</time></trkpt><trkpt lat="43.7109956" lon="12.7998866"><ele>262.0</ele><time>2026-05-02T10:21:52.2Z</time></trkpt><trkpt lat="43.7110472" lon="12.7997395"><ele>263.0</ele><time>2026-05-02T10:21:53.196Z</time></trkpt><trkpt lat="43.711134" lon="12.7996041"><ele>260.33333333333337</ele><time>2026-05-02T10:21:54.203Z</time></trkpt><trkpt lat="43.7112514" lon="12.7994687"><ele>257.6666666666667</ele><time>2026-05-02T10:21:55.205Z</time></trkpt><trkpt lat="43.7113803" lon="12.7993454"><ele>255.0</ele><time>2026-05-02T10:21:56.204Z</time></trkpt><trkpt lat="43.7115238" lon="12.7992422"><ele>255.0</ele><time>2026-05-02T10:21:57.199Z</time></trkpt><trkpt lat="43.7116443" lon="12.7991264"><ele>255.0</ele><time>2026-05-02T10:21:58.209Z</time></trkpt><trkpt lat="43.7117664" lon="12.7989939"><ele>255.0</ele><time>2026-05-02T10:21:59.207Z</time></trkpt><trkpt lat="43.7118836" lon="12.798859"><ele>254.25</ele><time>2026-05-02T10:22:00.204Z</time></trkpt><trkpt lat="43.7119923" lon="12.798736"><ele>253.5</ele><time>2026-05-02T10:22:01.205Z</time></trkpt><trkpt lat="43.712087" lon="12.7986323"><ele>252.75</ele><time>2026-05-02T10:22:02.203Z</time></trkpt><trkpt lat="43.7121699" lon="12.7985325"><ele>252.0</ele><time>2026-05-02T10:22:03.204Z</time></trkpt><trkpt lat="43.7122322" lon="12.7984543"><ele>252.0</ele><time>2026-05-02T10:22:04.204Z</time></trkpt><trkpt lat="43.7122824" lon="12.7983605"><ele>252.0</ele><time>2026-05-02T10:22:05.205Z</time></trkpt><trkpt lat="43.7123156" lon="12.798232"><ele>252.0</ele><time>2026-05-02T10:22:06.199Z</time></trkpt><trkpt lat="43.7123468" lon="12.7980873"><ele>252.0</ele><time>2026-05-02T10:22:07.205Z</time></trkpt><trkpt lat="43.7123818" lon="12.7979498"><ele>252.0</ele><time>2026-05-02T10:22:08.198Z</time></trkpt><trkpt lat="43.7124063" lon="12.7978031"><ele>251.75</ele><time>2026-05-02T10:22:09.204Z</time></trkpt><trkpt lat="43.7124134" lon="12.7976492"><ele>251.5</ele><time>2026-05-02T10:22:10.2Z</time></trkpt><trkpt lat="43.7124062" lon="12.7974738"><ele>251.25</ele><time>2026-05-02T10:22:11.202Z</time></trkpt><trkpt lat="43.71239" lon="12.797291"><ele>251.0</ele><time>2026-05-02T10:22:12.199Z</time></trkpt><trkpt lat="43.7123737" lon="12.7971018"><ele>251.0</ele><time>2026-05-02T10:22:13.2Z</time></trkpt><trkpt lat="43.7123574" lon="12.7969135"><ele>251.0</ele><time>2026-05-02T10:22:14.201Z</time></trkpt><trkpt lat="43.7123451" lon="12.7967248"><ele>251.0</ele><time>2026-05-02T10:22:15.201Z</time></trkpt><trkpt lat="43.7123306" lon="12.7965457"><ele>251.0</ele><time>2026-05-02T10:22:16.209Z</time></trkpt><trkpt lat="43.7123109" lon="12.7963708"><ele>251.0</ele><time>2026-05-02T10:22:17.206Z</time></trkpt><trkpt lat="43.7122915" lon="12.7962031"><ele>251.0</ele><time>2026-05-02T10:22:18.207Z</time></trkpt><trkpt lat="43.7122752" lon="12.7960258"><ele>251.0</ele><time>2026-05-02T10:22:19.21Z</time></trkpt><trkpt lat="43.7122752" lon="12.7958731"><ele>251.0</ele><time>2026-05-02T10:22:20.206Z</time></trkpt><trkpt lat="43.7122665" lon="12.7957295"><ele>251.0</ele><time>2026-05-02T10:22:21.207Z</time></trkpt><trkpt lat="43.7122633" lon="12.7955886"><ele>251.00000000000003</ele><time>2026-05-02T10:22:22.207Z</time></trkpt><trkpt lat="43.7122613" lon="12.79544"><ele>251.00000000000003</ele><time>2026-05-02T10:22:23.206Z</time></trkpt><trkpt lat="43.7122469" lon="12.7953002"><ele>251.0</ele><time>2026-05-02T10:22:24.197Z</time></trkpt><trkpt lat="43.7122264" lon="12.795178"><ele>251.0</ele><time>2026-05-02T10:22:25.195Z</time></trkpt><trkpt lat="43.7121978" lon="12.795075"><ele>250.4</ele><time>2026-05-02T10:22:26.199Z</time></trkpt><trkpt lat="43.7121402" lon="12.7950049"><ele>249.8</ele><time>2026-05-02T10:22:27.201Z</time></trkpt><trkpt lat="43.7120604" lon="12.7949606"><ele>249.20000000000002</ele><time>2026-05-02T10:22:28.201Z</time></trkpt><trkpt lat="43.7119499" lon="12.7949336"><ele>248.60000000000002</ele><time>2026-05-02T10:22:29.199Z</time></trkpt><trkpt lat="43.7118256" lon="12.794912"><ele>248.0</ele><time>2026-05-02T10:22:30.199Z</time></trkpt><trkpt lat="43.7117017" lon="12.7948687"><ele>250.8</ele><time>2026-05-02T10:22:31.198Z</time></trkpt><trkpt lat="43.7115804" lon="12.7948121"><ele>253.60000000000002</ele><time>2026-05-02T10:22:32.203Z</time></trkpt><trkpt lat="43.711476" lon="12.7947533"><ele>256.4</ele><time>2026-05-02T10:22:33.199Z</time></trkpt><trkpt lat="43.7113893" lon="12.7946788"><ele>259.2</ele><time>2026-05-02T10:22:34.204Z</time></trkpt><trkpt lat="43.7113247" lon="12.7945793"><ele>262.0</ele><time>2026-05-02T10:22:35.203Z</time></trkpt><trkpt lat="43.7112654" lon="12.7944568"><ele>262.6</ele><time>2026-05-02T10:22:36.203Z</time></trkpt><trkpt lat="43.7112068" lon="12.7943196"><ele>263.2</ele><time>2026-05-02T10:22:37.206Z</time></trkpt><trkpt lat="43.7111538" lon="12.7941976"><ele>263.8</ele><time>2026-05-02T10:22:38.194Z</time></trkpt><trkpt lat="43.7111058" lon="12.7940893"><ele>264.4</ele><time>2026-05-02T10:22:39.202Z</time></trkpt><trkpt lat="43.7110594" lon="12.7939891"><ele>265.0</ele><time>2026-05-02T10:22:40.188Z</time></trkpt><trkpt lat="43.7110287" lon="12.7938902"><ele>266.5</ele><time>2026-05-02T10:22:41.191Z</time></trkpt><trkpt lat="43.7110268" lon="12.7937898"><ele>268.0</ele><time>2026-05-02T10:22:42.19Z</time></trkpt><trkpt lat="43.7110311" lon="12.7936757"><ele>269.5</ele><time>2026-05-02T10:22:43.187Z</time></trkpt><trkpt lat="43.711041" lon="12.7935566"><ele>271.0</ele><time>2026-05-02T10:22:44.19Z</time></trkpt><trkpt lat="43.7110492" lon="12.7934562"><ele>272.5</ele><time>2026-05-02T10:22:45.191Z</time></trkpt><trkpt lat="43.7110624" lon="12.793369"><ele>274.0</ele><time>2026-05-02T10:22:46.191Z</time></trkpt><trkpt lat="43.7110845" lon="12.7932744"><ele>275.0</ele><time>2026-05-02T10:22:47.191Z</time></trkpt><trkpt lat="43.7111123" lon="12.7931637"><ele>276.0</ele><time>2026-05-02T10:22:48.191Z</time></trkpt><trkpt lat="43.7111453" lon="12.7930358"><ele>277.0</ele><time>2026-05-02T10:22:49.193Z</time></trkpt><trkpt lat="43.7111798" lon="12.7929213"><ele>278.0</ele><time>2026-05-02T10:22:50.195Z</time></trkpt><trkpt lat="43.7112247" lon="12.7928348"><ele>279.0</ele><time>2026-05-02T10:22:51.189Z</time></trkpt><trkpt lat="43.711334" lon="12.7928398"><ele>279.0</ele><time>2026-05-02T10:22:53.191Z</time></trkpt><trkpt lat="43.7113896" lon="12.7929378"><ele>279.0</ele><time>2026-05-02T10:22:54.19Z</time></trkpt><trkpt lat="43.7114427" lon="12.7930883"><ele>279.0</ele><time>2026-05-02T10:22:55.188Z</time></trkpt><trkpt lat="43.7115063" lon="12.7932205"><ele>279.0</ele><time>2026-05-02T10:22:56.191Z</time></trkpt><trkpt lat="43.7115782" lon="12.7933297"><ele>279.0</ele><time>2026-05-02T10:22:57.195Z</time></trkpt><trkpt lat="43.7116617" lon="12.7934273"><ele>280.0</ele><time>2026-05-02T10:22:58.19Z</time></trkpt><trkpt lat="43.7117502" lon="12.7935184"><ele>281.0</ele><time>2026-05-02T10:22:59.191Z</time></trkpt><trkpt lat="43.7118245" lon="12.7935859"><ele>282.0</ele><time>2026-05-02T10:23:00.194Z</time></trkpt><trkpt lat="43.711933" lon="12.7935724"><ele>283.0</ele><time>2026-05-02T10:23:02.205Z</time></trkpt><trkpt lat="43.7120027" lon="12.7935217"><ele>284.0</ele><time>2026-05-02T10:23:03.199Z</time></trkpt><trkpt lat="43.7120927" lon="12.7934405"><ele>284.0</ele><time>2026-05-02T10:23:04.2Z</time></trkpt><trkpt lat="43.7121981" lon="12.7933629"><ele>284.0</ele><time>2026-05-02T10:23:05.205Z</time></trkpt><trkpt lat="43.7123086" lon="12.793286"><ele>284.0</ele><time>2026-05-02T10:23:06.2Z</time></trkpt><trkpt lat="43.7123986" lon="12.7932013"><ele>284.0</ele><time>2026-05-02T10:23:07.204Z</time></trkpt><trkpt lat="43.7124718" lon="12.7931029"><ele>284.0</ele><time>2026-05-02T10:23:08.203Z</time></trkpt><trkpt lat="43.7125298" lon="12.7929893"><ele>284.0</ele><time>2026-05-02T10:23:09.201Z</time></trkpt><trkpt lat="43.7125934" lon="12.7928697"><ele>284.0</ele><time>2026-05-02T10:23:10.201Z</time></trkpt><trkpt lat="43.7126617" lon="12.7927617"><ele>284.0</ele><time>2026-05-02T10:23:11.195Z</time></trkpt><trkpt lat="43.7127459" lon="12.7926773"><ele>284.0</ele><time>2026-05-02T10:23:12.196Z</time></trkpt><trkpt lat="43.7128406" lon="12.792618"><ele>287.8</ele><time>2026-05-02T10:23:13.196Z</time></trkpt><trkpt lat="43.7129426" lon="12.7925665"><ele>291.59999999999997</ele><time>2026-05-02T10:23:14.197Z</time></trkpt><trkpt lat="43.713035" lon="12.7925332"><ele>295.4</ele><time>2026-05-02T10:23:15.188Z</time></trkpt><trkpt lat="43.7131203" lon="12.792529"><ele>299.2</ele><time>2026-05-02T10:23:16.195Z</time></trkpt><trkpt lat="43.7132173" lon="12.792569"><ele>303.0</ele><time>2026-05-02T10:23:17.193Z</time></trkpt><trkpt lat="43.713337" lon="12.792641"><ele>299.2</ele><time>2026-05-02T10:23:18.187Z</time></trkpt><trkpt lat="43.7134447" lon="12.7927172"><ele>295.4</ele><time>2026-05-02T10:23:19.196Z</time></trkpt><trkpt lat="43.7135436" lon="12.7927807"><ele>291.59999999999997</ele><time>2026-05-02T10:23:20.194Z</time></trkpt><trkpt lat="43.7136296" lon="12.7928062"><ele>287.8</ele><time>2026-05-02T10:23:21.198Z</time></trkpt><trkpt lat="43.7137029" lon="12.7927901"><ele>284.0</ele><time>2026-05-02T10:23:22.197Z</time></trkpt><trkpt lat="43.7137625" lon="12.7927502"><ele>284.0</ele><time>2026-05-02T10:23:23.189Z</time></trkpt><trkpt lat="43.7138084" lon="12.7926858"><ele>284.0</ele><time>2026-05-02T10:23:24.193Z</time></trkpt><trkpt lat="43.713851" lon="12.7926032"><ele>284.0</ele><time>2026-05-02T10:23:25.192Z</time></trkpt><trkpt lat="43.7138934" lon="12.792522"><ele>284.0</ele><time>2026-05-02T10:23:26.19Z</time></trkpt><trkpt lat="43.7139832" lon="12.7924677"><ele>284.0</ele><time>2026-05-02T10:23:28.196Z</time></trkpt><trkpt lat="43.714068" lon="12.7926001"><ele>284.0</ele><time>2026-05-02T10:23:30.191Z</time></trkpt><trkpt lat="43.7141399" lon="12.7926783"><ele>284.0</ele><time>2026-05-02T10:23:31.186Z</time></trkpt><trkpt lat="43.7142309" lon="12.7927602"><ele>284.0</ele><time>2026-05-02T10:23:32.193Z</time></trkpt><trkpt lat="43.7143343" lon="12.7928322"><ele>284.0</ele><time>2026-05-02T10:23:33.192Z</time></trkpt><trkpt lat="43.7144286" lon="12.7929132"><ele>284.0</ele><time>2026-05-02T10:23:34.197Z</time></trkpt><trkpt lat="43.7145204" lon="12.7930108"><ele>285.0</ele><time>2026-05-02T10:23:35.194Z</time></trkpt><trkpt lat="43.7146074" lon="12.7931254"><ele>286.0</ele><time>2026-05-02T10:23:36.196Z</time></trkpt><trkpt lat="43.7146887" lon="12.7932496"><ele>287.0</ele><time>2026-05-02T10:23:37.197Z</time></trkpt><trkpt lat="43.7147634" lon="12.7933783"><ele>288.0</ele><time>2026-05-02T10:23:38.199Z</time></trkpt><trkpt lat="43.7148183" lon="12.793519"><ele>288.0</ele><time>2026-05-02T10:23:39.2Z</time></trkpt><trkpt lat="43.7148501" lon="12.7936676"><ele>288.0</ele><time>2026-05-02T10:23:40.201Z</time></trkpt><trkpt lat="43.7148846" lon="12.7938127"><ele>288.0</ele><time>2026-05-02T10:23:41.194Z</time></trkpt><trkpt lat="43.7149415" lon="12.7939575"><ele>288.0</ele><time>2026-05-02T10:23:42.2Z</time></trkpt><trkpt lat="43.715024" lon="12.7941021"><ele>288.0</ele><time>2026-05-02T10:23:43.196Z</time></trkpt><trkpt lat="43.7151047" lon="12.7942311"><ele>288.0</ele><time>2026-05-02T10:23:44.19Z</time></trkpt><trkpt lat="43.7151921" lon="12.7943429"><ele>288.0</ele><time>2026-05-02T10:23:45.197Z</time></trkpt><trkpt lat="43.7152888" lon="12.7944471"><ele>288.0</ele><time>2026-05-02T10:23:46.194Z</time></trkpt><trkpt lat="43.7153838" lon="12.7945279"><ele>289.25</ele><time>2026-05-02T10:23:47.195Z</time></trkpt><trkpt lat="43.7154727" lon="12.794617"><ele>290.5</ele><time>2026-05-02T10:23:48.194Z</time></trkpt><trkpt lat="43.7155519" lon="12.7947249"><ele>291.75</ele><time>2026-05-02T10:23:49.191Z</time></trkpt><trkpt lat="43.7156104" lon="12.7948722"><ele>293.0</ele><time>2026-05-02T10:23:50.187Z</time></trkpt><trkpt lat="43.7156734" lon="12.7950545"><ele>288.75</ele><time>2026-05-02T10:23:51.189Z</time></trkpt><trkpt lat="43.715733" lon="12.7952381"><ele>284.5</ele><time>2026-05-02T10:23:52.194Z</time></trkpt><trkpt lat="43.7157839" lon="12.7954027"><ele>280.25</ele><time>2026-05-02T10:23:53.191Z</time></trkpt><trkpt lat="43.7158249" lon="12.7955471"><ele>276.0</ele><time>2026-05-02T10:23:54.194Z</time></trkpt><trkpt lat="43.7158501" lon="12.795675"><ele>276.0</ele><time>2026-05-02T10:23:55.196Z</time></trkpt><trkpt lat="43.7158826" lon="12.795813"><ele>276.0</ele><time>2026-05-02T10:23:56.195Z</time></trkpt><trkpt lat="43.7159334" lon="12.7959684"><ele>276.0</ele><time>2026-05-02T10:23:57.196Z</time></trkpt><trkpt lat="43.7160066" lon="12.7961246"><ele>276.0</ele><time>2026-05-02T10:23:58.199Z</time></trkpt><trkpt lat="43.7160709" lon="12.7962775"><ele>276.0</ele><time>2026-05-02T10:23:59.198Z</time></trkpt><trkpt lat="43.7161199" lon="12.7964147"><ele>276.0</ele><time>2026-05-02T10:24:00.193Z</time></trkpt><trkpt lat="43.7161515" lon="12.7965102"><ele>276.0</ele><time>2026-05-02T10:24:01.192Z</time></trkpt><trkpt lat="43.7161827" lon="12.7965911"><ele>276.0</ele><time>2026-05-02T10:24:03.193Z</time></trkpt><trkpt lat="43.716204" lon="12.7966766"><ele>276.0</ele><time>2026-05-02T10:24:05.189Z</time></trkpt><trkpt lat="43.7161727" lon="12.7968688"><ele>274.8</ele><time>2026-05-02T10:24:07.192Z</time></trkpt><trkpt lat="43.7161719" lon="12.7969837"><ele>273.6</ele><time>2026-05-02T10:24:08.192Z</time></trkpt><trkpt lat="43.7161861" lon="12.7971132"><ele>272.4</ele><time>2026-05-02T10:24:09.194Z</time></trkpt><trkpt lat="43.7162426" lon="12.7972393"><ele>271.2</ele><time>2026-05-02T10:24:10.201Z</time></trkpt><trkpt lat="43.7163283" lon="12.7973486"><ele>270.0</ele><time>2026-05-02T10:24:11.191Z</time></trkpt><trkpt lat="43.716422" lon="12.7974412"><ele>270.0</ele><time>2026-05-02T10:24:12.199Z</time></trkpt><trkpt lat="43.7165173" lon="12.7975246"><ele>270.0</ele><time>2026-05-02T10:24:13.194Z</time></trkpt><trkpt lat="43.7165993" lon="12.7976063"><ele>270.0</ele><time>2026-05-02T10:24:14.196Z</time></trkpt><trkpt lat="43.7166756" lon="12.7977033"><ele>270.0</ele><time>2026-05-02T10:24:15.195Z</time></trkpt><trkpt lat="43.7167451" lon="12.79781"><ele>270.0</ele><time>2026-05-02T10:24:16.197Z</time></trkpt><trkpt lat="43.7168038" lon="12.7979319"><ele>269.75</ele><time>2026-05-02T10:24:17.206Z</time></trkpt><trkpt lat="43.7168586" lon="12.7980666"><ele>269.5</ele><time>2026-05-02T10:24:18.202Z</time></trkpt><trkpt lat="43.7169121" lon="12.7982111"><ele>269.25</ele><time>2026-05-02T10:24:19.212Z</time></trkpt><trkpt lat="43.7169606" lon="12.7983551"><ele>269.0</ele><time>2026-05-02T10:24:20.203Z</time></trkpt><trkpt lat="43.7170082" lon="12.7985016"><ele>266.0</ele><time>2026-05-02T10:24:21.201Z</time></trkpt><trkpt lat="43.7170459" lon="12.7986571"><ele>263.0</ele><time>2026-05-02T10:24:22.206Z</time></trkpt><trkpt lat="43.7170666" lon="12.798827"><ele>260.0</ele><time>2026-05-02T10:24:23.197Z</time></trkpt><trkpt lat="43.7170778" lon="12.799013"><ele>257.0</ele><time>2026-05-02T10:24:24.206Z</time></trkpt><trkpt lat="43.7170822" lon="12.7992058"><ele>257.25</ele><time>2026-05-02T10:24:25.199Z</time></trkpt><trkpt lat="43.7170826" lon="12.7993962"><ele>257.5</ele><time>2026-05-02T10:24:26.203Z</time></trkpt><trkpt lat="43.7170747" lon="12.7995773"><ele>257.75</ele><time>2026-05-02T10:24:27.203Z</time></trkpt><trkpt lat="43.7170728" lon="12.7997322"><ele>258.0</ele><time>2026-05-02T10:24:28.203Z</time></trkpt><trkpt lat="43.7170861" lon="12.7998599"><ele>258.0</ele><time>2026-05-02T10:24:29.203Z</time></trkpt><trkpt lat="43.7171208" lon="12.7999743"><ele>258.0</ele><time>2026-05-02T10:24:30.194Z</time></trkpt><trkpt lat="43.7171793" lon="12.800081"><ele>258.0</ele><time>2026-05-02T10:24:31.207Z</time></trkpt><trkpt lat="43.7172723" lon="12.8001814"><ele>258.0</ele><time>2026-05-02T10:24:32.201Z</time></trkpt><trkpt lat="43.7173787" lon="12.8002793"><ele>258.0</ele><time>2026-05-02T10:24:33.2Z</time></trkpt><trkpt lat="43.7174813" lon="12.800372"><ele>258.0</ele><time>2026-05-02T10:24:34.203Z</time></trkpt><trkpt lat="43.7175671" lon="12.8004609"><ele>258.0</ele><time>2026-05-02T10:24:35.204Z</time></trkpt><trkpt lat="43.7176347" lon="12.800555"><ele>258.0</ele><time>2026-05-02T10:24:36.203Z</time></trkpt><trkpt lat="43.7176916" lon="12.8006685"><ele>258.0</ele><time>2026-05-02T10:24:37.202Z</time></trkpt><trkpt lat="43.7177418" lon="12.8008051"><ele>258.0</ele><time>2026-05-02T10:24:38.204Z</time></trkpt><trkpt lat="43.7177783" lon="12.8009524"><ele>256.2</ele><time>2026-05-02T10:24:39.2Z</time></trkpt><trkpt lat="43.7177911" lon="12.8010901"><ele>254.4</ele><time>2026-05-02T10:24:40.206Z</time></trkpt><trkpt lat="43.7177783" lon="12.801224"><ele>252.59999999999997</ele><time>2026-05-02T10:24:41.207Z</time></trkpt><trkpt lat="43.7177632" lon="12.8013737"><ele>250.79999999999998</ele><time>2026-05-02T10:24:42.205Z</time></trkpt><trkpt lat="43.7177684" lon="12.8015374"><ele>249.0</ele><time>2026-05-02T10:24:43.213Z</time></trkpt><trkpt lat="43.7177955" lon="12.8017192"><ele>250.0</ele><time>2026-05-02T10:24:44.209Z</time></trkpt><trkpt lat="43.7178443" lon="12.8019192"><ele>251.0</ele><time>2026-05-02T10:24:45.202Z</time></trkpt><trkpt lat="43.717904" lon="12.802138"><ele>252.0</ele><time>2026-05-02T10:24:46.206Z</time></trkpt><trkpt lat="43.717963" lon="12.8023546"><ele>252.0</ele><time>2026-05-02T10:24:47.205Z</time></trkpt><trkpt lat="43.7180156" lon="12.8025809"><ele>252.0</ele><time>2026-05-02T10:24:48.205Z</time></trkpt><trkpt lat="43.7180642" lon="12.8027974"><ele>252.0</ele><time>2026-05-02T10:24:49.203Z</time></trkpt><trkpt lat="43.7181152" lon="12.8030064"><ele>252.25</ele><time>2026-05-02T10:24:50.204Z</time></trkpt><trkpt lat="43.7181606" lon="12.8031945"><ele>252.5</ele><time>2026-05-02T10:24:51.203Z</time></trkpt><trkpt lat="43.7182038" lon="12.8033684"><ele>252.75</ele><time>2026-05-02T10:24:52.201Z</time></trkpt><trkpt lat="43.7182421" lon="12.8035103"><ele>253.0</ele><time>2026-05-02T10:24:53.203Z</time></trkpt><trkpt lat="43.7182812" lon="12.8036193"><ele>251.8</ele><time>2026-05-02T10:24:54.2Z</time></trkpt><trkpt lat="43.7183232" lon="12.8037139"><ele>250.60000000000002</ele><time>2026-05-02T10:24:55.2Z</time></trkpt><trkpt lat="43.7183809" lon="12.8037992"><ele>249.39999999999998</ele><time>2026-05-02T10:24:56.205Z</time></trkpt><trkpt lat="43.7184579" lon="12.8039064"><ele>248.2</ele><time>2026-05-02T10:24:57.202Z</time></trkpt><trkpt lat="43.7185481" lon="12.8040122"><ele>247.0</ele><time>2026-05-02T10:24:58.193Z</time></trkpt><trkpt lat="43.7186525" lon="12.8041098"><ele>246.25</ele><time>2026-05-02T10:24:59.2Z</time></trkpt><trkpt lat="43.7187754" lon="12.8041889"><ele>245.5</ele><time>2026-05-02T10:25:00.2Z</time></trkpt><trkpt lat="43.7189104" lon="12.8042516"><ele>244.75</ele><time>2026-05-02T10:25:01.205Z</time></trkpt><trkpt lat="43.7190402" lon="12.8043019"><ele>244.0</ele><time>2026-05-02T10:25:02.202Z</time></trkpt><trkpt lat="43.7191777" lon="12.8043378"><ele>243.0</ele><time>2026-05-02T10:25:03.204Z</time></trkpt><trkpt lat="43.719321" lon="12.8043584"><ele>242.0</ele><time>2026-05-02T10:25:04.201Z</time></trkpt><trkpt lat="43.7194675" lon="12.8043554"><ele>241.0</ele><time>2026-05-02T10:25:05.205Z</time></trkpt><trkpt lat="43.7196044" lon="12.8043598"><ele>240.0</ele><time>2026-05-02T10:25:06.203Z</time></trkpt><trkpt lat="43.7197318" lon="12.8043776"><ele>240.0</ele><time>2026-05-02T10:25:07.201Z</time></trkpt><trkpt lat="43.7198319" lon="12.8043836"><ele>240.0</ele><time>2026-05-02T10:25:08.204Z</time></trkpt><trkpt lat="43.71992" lon="12.8043927"><ele>240.0</ele><time>2026-05-02T10:25:09.198Z</time></trkpt><trkpt lat="43.719996" lon="12.8044174"><ele>240.0</ele><time>2026-05-02T10:25:10.204Z</time></trkpt><trkpt lat="43.7200666" lon="12.8044611"><ele>240.0</ele><time>2026-05-02T10:25:11.2Z</time></trkpt><trkpt lat="43.7201244" lon="12.8045279"><ele>240.0</ele><time>2026-05-02T10:25:12.194Z</time></trkpt><trkpt lat="43.7201808" lon="12.804616"><ele>240.0</ele><time>2026-05-02T10:25:13.204Z</time></trkpt><trkpt lat="43.7202238" lon="12.8047362"><ele>240.0</ele><time>2026-05-02T10:25:14.209Z</time></trkpt><trkpt lat="43.7202518" lon="12.8048892"><ele>240.0</ele><time>2026-05-02T10:25:15.204Z</time></trkpt><trkpt lat="43.7202635" lon="12.8050796"><ele>240.0</ele><time>2026-05-02T10:25:16.209Z</time></trkpt><trkpt lat="43.7202727" lon="12.8052871"><ele>237.25</ele><time>2026-05-02T10:25:17.205Z</time></trkpt><trkpt lat="43.720285" lon="12.8054972"><ele>234.5</ele><time>2026-05-02T10:25:18.217Z</time></trkpt><trkpt lat="43.7202996" lon="12.8057007"><ele>231.75</ele><time>2026-05-02T10:25:19.202Z</time></trkpt><trkpt lat="43.7203309" lon="12.8058908"><ele>229.0</ele><time>2026-05-02T10:25:20.215Z</time></trkpt><trkpt lat="43.7203662" lon="12.8060875"><ele>229.0</ele><time>2026-05-02T10:25:21.21Z</time></trkpt><trkpt lat="43.7204075" lon="12.8062805"><ele>229.0</ele><time>2026-05-02T10:25:22.211Z</time></trkpt><trkpt lat="43.7204458" lon="12.806447"><ele>229.0</ele><time>2026-05-02T10:25:23.204Z</time></trkpt><trkpt lat="43.7204725" lon="12.806583"><ele>229.0</ele><time>2026-05-02T10:25:24.207Z</time></trkpt><trkpt lat="43.7205018" lon="12.8067079"><ele>230.0</ele><time>2026-05-02T10:25:25.213Z</time></trkpt><trkpt lat="43.7205298" lon="12.8068362"><ele>230.99999999999997</ele><time>2026-05-02T10:25:26.209Z</time></trkpt><trkpt lat="43.7205649" lon="12.8069706"><ele>231.99999999999997</ele><time>2026-05-02T10:25:27.21Z</time></trkpt><trkpt lat="43.7206106" lon="12.8071002"><ele>233.0</ele><time>2026-05-02T10:25:28.205Z</time></trkpt><trkpt lat="43.7206638" lon="12.8072131"><ele>234.0</ele><time>2026-05-02T10:25:29.206Z</time></trkpt><trkpt lat="43.7207198" lon="12.8072872"><ele>234.0</ele><time>2026-05-02T10:25:30.199Z</time></trkpt><trkpt lat="43.7207755" lon="12.8073369"><ele>234.00000000000003</ele><time>2026-05-02T10:25:31.207Z</time></trkpt><trkpt lat="43.7208296" lon="12.8073851"><ele>234.0</ele><time>2026-05-02T10:25:32.203Z</time></trkpt><trkpt lat="43.7208844" lon="12.8074323"><ele>234.0</ele><time>2026-05-02T10:25:33.203Z</time></trkpt><trkpt lat="43.7209479" lon="12.8074692"><ele>234.00000000000003</ele><time>2026-05-02T10:25:34.203Z</time></trkpt><trkpt lat="43.7210238" lon="12.8074674"><ele>234.0</ele><time>2026-05-02T10:25:35.207Z</time></trkpt><trkpt lat="43.7211176" lon="12.8074098"><ele>234.0</ele><time>2026-05-02T10:25:36.205Z</time></trkpt><trkpt lat="43.7212146" lon="12.8073047"><ele>233.0</ele><time>2026-05-02T10:25:37.202Z</time></trkpt><trkpt lat="43.72131" lon="12.8071906"><ele>231.99999999999997</ele><time>2026-05-02T10:25:38.205Z</time></trkpt><trkpt lat="43.7214041" lon="12.8071006"><ele>230.99999999999997</ele><time>2026-05-02T10:25:39.202Z</time></trkpt><trkpt lat="43.7214962" lon="12.807039"><ele>230.0</ele><time>2026-05-02T10:25:40.205Z</time></trkpt><trkpt lat="43.7215836" lon="12.8070298"><ele>229.0</ele><time>2026-05-02T10:25:41.203Z</time></trkpt><trkpt lat="43.721668" lon="12.8070661"><ele>229.0</ele><time>2026-05-02T10:25:42.207Z</time></trkpt><trkpt lat="43.7217481" lon="12.8071305"><ele>228.99999999999997</ele><time>2026-05-02T10:25:43.2Z</time></trkpt><trkpt lat="43.7218226" lon="12.807216"><ele>228.99999999999997</ele><time>2026-05-02T10:25:44.206Z</time></trkpt><trkpt lat="43.7218929" lon="12.8073213"><ele>229.0</ele><time>2026-05-02T10:25:45.201Z</time></trkpt><trkpt lat="43.7219655" lon="12.8074342"><ele>229.0</ele><time>2026-05-02T10:25:46.202Z</time></trkpt><trkpt lat="43.7220406" lon="12.807559"><ele>223.5</ele><time>2026-05-02T10:25:47.204Z</time></trkpt><trkpt lat="43.7221225" lon="12.8076812"><ele>218.0</ele><time>2026-05-02T10:25:48.202Z</time></trkpt><trkpt lat="43.7222136" lon="12.8077684"><ele>212.5</ele><time>2026-05-02T10:25:49.214Z</time></trkpt><trkpt lat="43.7223234" lon="12.8078113"><ele>207.0</ele><time>2026-05-02T10:25:50.202Z</time></trkpt><trkpt lat="43.7224486" lon="12.8078473"><ele>207.0</ele><time>2026-05-02T10:25:51.201Z</time></trkpt><trkpt lat="43.7225713" lon="12.8078947"><ele>207.0</ele><time>2026-05-02T10:25:52.207Z</time></trkpt><trkpt lat="43.7226893" lon="12.8079482"><ele>207.0</ele><time>2026-05-02T10:25:53.207Z</time></trkpt><trkpt lat="43.7228083" lon="12.8080017"><ele>207.0</ele><time>2026-05-02T10:25:54.203Z</time></trkpt><trkpt lat="43.7229272" lon="12.8080611"><ele>202.5</ele><time>2026-05-02T10:25:55.206Z</time></trkpt><trkpt lat="43.7230549" lon="12.8081323"><ele>198.0</ele><time>2026-05-02T10:25:56.202Z</time></trkpt><trkpt lat="43.723184" lon="12.8082085"><ele>193.5</ele><time>2026-05-02T10:25:57.205Z</time></trkpt><trkpt lat="43.7233155" lon="12.8082869"><ele>189.0</ele><time>2026-05-02T10:25:58.203Z</time></trkpt><trkpt lat="43.7234499" lon="12.8083546"><ele>185.25</ele><time>2026-05-02T10:25:59.202Z</time></trkpt><trkpt lat="43.7235854" lon="12.8083916"><ele>181.5</ele><time>2026-05-02T10:26:00.204Z</time></trkpt><trkpt lat="43.7237157" lon="12.8083902"><ele>177.75</ele><time>2026-05-02T10:26:01.202Z</time></trkpt><trkpt lat="43.7238446" lon="12.8083781"><ele>174.0</ele><time>2026-05-02T10:26:02.206Z</time></trkpt><trkpt lat="43.7239736" lon="12.8083844"><ele>174.0</ele><time>2026-05-02T10:26:03.203Z</time></trkpt><trkpt lat="43.7240978" lon="12.8084075"><ele>174.0</ele><time>2026-05-02T10:26:04.202Z</time></trkpt><trkpt lat="43.7242082" lon="12.8084636"><ele>174.0</ele><time>2026-05-02T10:26:05.201Z</time></trkpt><trkpt lat="43.7243038" lon="12.8085322"><ele>174.0</ele><time>2026-05-02T10:26:06.201Z</time></trkpt><trkpt lat="43.7243869" lon="12.8086067"><ele>168.79999999999998</ele><time>2026-05-02T10:26:07.206Z</time></trkpt><trkpt lat="43.7244506" lon="12.8086988"><ele>163.6</ele><time>2026-05-02T10:26:08.203Z</time></trkpt><trkpt lat="43.7244937" lon="12.8088032"><ele>158.4</ele><time>2026-05-02T10:26:09.207Z</time></trkpt><trkpt lat="43.724523" lon="12.8089385"><ele>153.2</ele><time>2026-05-02T10:26:10.203Z</time></trkpt><trkpt lat="43.7245366" lon="12.8091057"><ele>148.0</ele><time>2026-05-02T10:26:11.205Z</time></trkpt><trkpt lat="43.7245509" lon="12.8092906"><ele>147.6</ele><time>2026-05-02T10:26:12.202Z</time></trkpt><trkpt lat="43.7245695" lon="12.8094675"><ele>147.20000000000002</ele><time>2026-05-02T10:26:13.198Z</time></trkpt><trkpt lat="43.7245853" lon="12.8096166"><ele>146.8</ele><time>2026-05-02T10:26:14.202Z</time></trkpt><trkpt lat="43.7246081" lon="12.8097369"><ele>146.4</ele><time>2026-05-02T10:26:15.209Z</time></trkpt><trkpt lat="43.7246475" lon="12.8098148"><ele>146.0</ele><time>2026-05-02T10:26:16.199Z</time></trkpt><trkpt lat="43.7247579" lon="12.8098676"><ele>146.0</ele><time>2026-05-02T10:26:18.203Z</time></trkpt><trkpt lat="43.7248206" lon="12.809819"><ele>146.0</ele><time>2026-05-02T10:26:19.21Z</time></trkpt><trkpt lat="43.7248831" lon="12.8097177"><ele>146.0</ele><time>2026-05-02T10:26:20.208Z</time></trkpt><trkpt lat="43.7249272" lon="12.8095759"><ele>146.0</ele><time>2026-05-02T10:26:21.206Z</time></trkpt><trkpt lat="43.7249624" lon="12.8093963"><ele>146.0</ele><time>2026-05-02T10:26:22.211Z</time></trkpt><trkpt lat="43.7250033" lon="12.809212"><ele>146.5</ele><time>2026-05-02T10:26:23.205Z</time></trkpt><trkpt lat="43.7250547" lon="12.8090519"><ele>147.0</ele><time>2026-05-02T10:26:24.2Z</time></trkpt><trkpt lat="43.7251172" lon="12.8089136"><ele>147.5</ele><time>2026-05-02T10:26:25.206Z</time></trkpt><trkpt lat="43.7251925" lon="12.8087963"><ele>148.0</ele><time>2026-05-02T10:26:26.206Z</time></trkpt><trkpt lat="43.7252745" lon="12.8086806"><ele>144.0</ele><time>2026-05-02T10:26:27.208Z</time></trkpt><trkpt lat="43.7253589" lon="12.8085782"><ele>140.0</ele><time>2026-05-02T10:26:28.208Z</time></trkpt><trkpt lat="43.7254506" lon="12.8085186"><ele>136.0</ele><time>2026-05-02T10:26:29.204Z</time></trkpt><trkpt lat="43.7255552" lon="12.8085056"><ele>132.0</ele><time>2026-05-02T10:26:30.201Z</time></trkpt><trkpt lat="43.7256743" lon="12.808539"><ele>128.0</ele><time>2026-05-02T10:26:31.197Z</time></trkpt><trkpt lat="43.7257943" lon="12.8085776"><ele>128.0</ele><time>2026-05-02T10:26:32.203Z</time></trkpt><trkpt lat="43.7259106" lon="12.8086103"><ele>128.0</ele><time>2026-05-02T10:26:33.206Z</time></trkpt><trkpt lat="43.7260157" lon="12.80864"><ele>128.0</ele><time>2026-05-02T10:26:34.207Z</time></trkpt><trkpt lat="43.7261132" lon="12.8086654"><ele>128.0</ele><time>2026-05-02T10:26:35.204Z</time></trkpt><trkpt lat="43.7262039" lon="12.8087015"><ele>128.0</ele><time>2026-05-02T10:26:36.195Z</time></trkpt><trkpt lat="43.7262829" lon="12.8087511"><ele>127.60000000000001</ele><time>2026-05-02T10:26:37.205Z</time></trkpt><trkpt lat="43.7263421" lon="12.8088545"><ele>127.20000000000002</ele><time>2026-05-02T10:26:38.197Z</time></trkpt><trkpt lat="43.7263775" lon="12.8089895"><ele>126.8</ele><time>2026-05-02T10:26:39.206Z</time></trkpt><trkpt lat="43.726377" lon="12.8091316"><ele>126.4</ele><time>2026-05-02T10:26:40.203Z</time></trkpt><trkpt lat="43.7263323" lon="12.8092799"><ele>126.0</ele><time>2026-05-02T10:26:41.194Z</time></trkpt><trkpt lat="43.7262691" lon="12.8094244"><ele>126.0</ele><time>2026-05-02T10:26:42.189Z</time></trkpt><trkpt lat="43.7262236" lon="12.8095739"><ele>126.0</ele><time>2026-05-02T10:26:43.193Z</time></trkpt><trkpt lat="43.7262186" lon="12.8096984"><ele>126.0</ele><time>2026-05-02T10:26:44.203Z</time></trkpt><trkpt lat="43.726346" lon="12.8097865"><ele>126.0</ele><time>2026-05-02T10:26:46.189Z</time></trkpt><trkpt lat="43.7264492" lon="12.8098128"><ele>126.0</ele><time>2026-05-02T10:26:47.192Z</time></trkpt><trkpt lat="43.7265624" lon="12.8098528"><ele>126.0</ele><time>2026-05-02T10:26:48.196Z</time></trkpt><trkpt lat="43.7266702" lon="12.8098948"><ele>126.0</ele><time>2026-05-02T10:26:49.204Z</time></trkpt><trkpt lat="43.7267673" lon="12.8099253"><ele>126.0</ele><time>2026-05-02T10:26:50.198Z</time></trkpt><trkpt lat="43.7268488" lon="12.8099361"><ele>126.0</ele><time>2026-05-02T10:26:51.204Z</time></trkpt><trkpt lat="43.726952" lon="12.8099435"><ele>126.19999999999999</ele><time>2026-05-02T10:26:53.202Z</time></trkpt><trkpt lat="43.7269623" lon="12.8100394"><ele>126.39999999999999</ele><time>2026-05-02T10:26:55.204Z</time></trkpt><trkpt lat="43.7269389" lon="12.8101369"><ele>126.6</ele><time>2026-05-02T10:26:56.2Z</time></trkpt><trkpt lat="43.7268955" lon="12.8102692"><ele>126.8</ele><time>2026-05-02T10:26:57.2Z</time></trkpt><trkpt lat="43.7268544" lon="12.8104252"><ele>127.0</ele><time>2026-05-02T10:26:58.197Z</time></trkpt><trkpt lat="43.7268116" lon="12.8105948"><ele>127.0</ele><time>2026-05-02T10:26:59.197Z</time></trkpt><trkpt lat="43.7267719" lon="12.8107844"><ele>127.0</ele><time>2026-05-02T10:27:00.193Z</time></trkpt><trkpt lat="43.7267337" lon="12.810987"><ele>127.0</ele><time>2026-05-02T10:27:01.196Z</time></trkpt><trkpt lat="43.7266949" lon="12.8112055"><ele>127.33333333333334</ele><time>2026-05-02T10:27:02.195Z</time></trkpt><trkpt lat="43.7266599" lon="12.8114498"><ele>127.66666666666666</ele><time>2026-05-02T10:27:03.199Z</time></trkpt><trkpt lat="43.7266226" lon="12.8116875"><ele>128.0</ele><time>2026-05-02T10:27:04.2Z</time></trkpt><trkpt lat="43.7265867" lon="12.8119272"><ele>129.0</ele><time>2026-05-02T10:27:05.196Z</time></trkpt><trkpt lat="43.7265557" lon="12.8121679"><ele>130.0</ele><time>2026-05-02T10:27:06.201Z</time></trkpt><trkpt lat="43.7265203" lon="12.8124157"><ele>131.0</ele><time>2026-05-02T10:27:07.196Z</time></trkpt><trkpt lat="43.726481" lon="12.8126531"><ele>131.0</ele><time>2026-05-02T10:27:08.202Z</time></trkpt><trkpt lat="43.7264458" lon="12.8128961"><ele>131.0</ele><time>2026-05-02T10:27:09.199Z</time></trkpt><trkpt lat="43.7264168" lon="12.8131287"><ele>131.0</ele><time>2026-05-02T10:27:10.203Z</time></trkpt><trkpt lat="43.7263828" lon="12.8133541"><ele>132.33333333333331</ele><time>2026-05-02T10:27:11.204Z</time></trkpt><trkpt lat="43.7263466" lon="12.81357"><ele>133.66666666666666</ele><time>2026-05-02T10:27:12.201Z</time></trkpt><trkpt lat="43.7263015" lon="12.8137907"><ele>135.0</ele><time>2026-05-02T10:27:13.203Z</time></trkpt><trkpt lat="43.7262478" lon="12.8139919"><ele>135.0</ele><time>2026-05-02T10:27:14.205Z</time></trkpt><trkpt lat="43.7261811" lon="12.8141868"><ele>135.0</ele><time>2026-05-02T10:27:15.203Z</time></trkpt><trkpt lat="43.7261115" lon="12.8143868"><ele>135.0</ele><time>2026-05-02T10:27:16.197Z</time></trkpt><trkpt lat="43.7260453" lon="12.8145895"><ele>132.0</ele><time>2026-05-02T10:27:17.2Z</time></trkpt><trkpt lat="43.7259828" lon="12.814781"><ele>129.0</ele><time>2026-05-02T10:27:18.196Z</time></trkpt><trkpt lat="43.7259199" lon="12.8149723"><ele>126.0</ele><time>2026-05-02T10:27:19.203Z</time></trkpt><trkpt lat="43.7258551" lon="12.8151708"><ele>125.66666666666666</ele><time>2026-05-02T10:27:20.196Z</time></trkpt><trkpt lat="43.7257823" lon="12.8153701"><ele>125.33333333333333</ele><time>2026-05-02T10:27:21.2Z</time></trkpt><trkpt lat="43.725709" lon="12.815574"><ele>125.0</ele><time>2026-05-02T10:27:22.206Z</time></trkpt><trkpt lat="43.725633" lon="12.8157775"><ele>125.0</ele><time>2026-05-02T10:27:23.199Z</time></trkpt><trkpt lat="43.7255616" lon="12.8159818"><ele>125.0</ele><time>2026-05-02T10:27:24.203Z</time></trkpt><trkpt lat="43.7254885" lon="12.8161798"><ele>125.0</ele><time>2026-05-02T10:27:25.199Z</time></trkpt><trkpt lat="43.725426" lon="12.8163837"><ele>125.33333333333333</ele><time>2026-05-02T10:27:26.203Z</time></trkpt><trkpt lat="43.7253604" lon="12.8165856"><ele>125.66666666666666</ele><time>2026-05-02T10:27:27.198Z</time></trkpt><trkpt lat="43.7252961" lon="12.8167774"><ele>126.0</ele><time>2026-05-02T10:27:28.203Z</time></trkpt><trkpt lat="43.725228" lon="12.8169662"><ele>125.5</ele><time>2026-05-02T10:27:29.197Z</time></trkpt><trkpt lat="43.7251629" lon="12.817145"><ele>125.0</ele><time>2026-05-02T10:27:30.199Z</time></trkpt><trkpt lat="43.7250953" lon="12.8173334"><ele>124.5</ele><time>2026-05-02T10:27:31.201Z</time></trkpt><trkpt lat="43.7250322" lon="12.817521"><ele>124.0</ele><time>2026-05-02T10:27:32.2Z</time></trkpt><trkpt lat="43.7249695" lon="12.8177118"><ele>124.0</ele><time>2026-05-02T10:27:33.208Z</time></trkpt><trkpt lat="43.7249306" lon="12.8179137"><ele>124.0</ele><time>2026-05-02T10:27:34.195Z</time></trkpt><trkpt lat="43.7249218" lon="12.8181341"><ele>124.0</ele><time>2026-05-02T10:27:35.199Z</time></trkpt><trkpt lat="43.7249388" lon="12.8183634"><ele>123.0</ele><time>2026-05-02T10:27:36.199Z</time></trkpt><trkpt lat="43.7249672" lon="12.8185947"><ele>122.0</ele><time>2026-05-02T10:27:37.198Z</time></trkpt><trkpt lat="43.7249902" lon="12.8188331"><ele>121.0</ele><time>2026-05-02T10:27:38.206Z</time></trkpt><trkpt lat="43.7250059" lon="12.8190677"><ele>121.0</ele><time>2026-05-02T10:27:39.204Z</time></trkpt><trkpt lat="43.7250194" lon="12.8192974"><ele>121.0</ele><time>2026-05-02T10:27:40.208Z</time></trkpt><trkpt lat="43.7250395" lon="12.819528"><ele>121.0</ele><time>2026-05-02T10:27:41.202Z</time></trkpt><trkpt lat="43.7250563" lon="12.8197664"><ele>120.0</ele><time>2026-05-02T10:27:42.204Z</time></trkpt><trkpt lat="43.7250667" lon="12.8200004"><ele>119.0</ele><time>2026-05-02T10:27:43.203Z</time></trkpt><trkpt lat="43.7250799" lon="12.820232"><ele>118.0</ele><time>2026-05-02T10:27:44.199Z</time></trkpt><trkpt lat="43.7250952" lon="12.8204682"><ele>117.66666666666667</ele><time>2026-05-02T10:27:45.207Z</time></trkpt><trkpt lat="43.7251159" lon="12.8207147"><ele>117.33333333333334</ele><time>2026-05-02T10:27:46.201Z</time></trkpt><trkpt lat="43.7251341" lon="12.8209544"><ele>117.0</ele><time>2026-05-02T10:27:47.202Z</time></trkpt><trkpt lat="43.7251566" lon="12.8211991"><ele>116.33333333333334</ele><time>2026-05-02T10:27:48.206Z</time></trkpt><trkpt lat="43.72518" lon="12.8214482"><ele>115.66666666666667</ele><time>2026-05-02T10:27:49.209Z</time></trkpt><trkpt lat="43.7252099" lon="12.8217009"><ele>115.0</ele><time>2026-05-02T10:27:50.2Z</time></trkpt><trkpt lat="43.7252374" lon="12.8219428"><ele>118.33333333333334</ele><time>2026-05-02T10:27:51.203Z</time></trkpt><trkpt lat="43.7252645" lon="12.8221778"><ele>121.66666666666666</ele><time>2026-05-02T10:27:52.205Z</time></trkpt><trkpt lat="43.7252856" lon="12.8224015"><ele>125.0</ele><time>2026-05-02T10:27:53.202Z</time></trkpt><trkpt lat="43.7253088" lon="12.8226175"><ele>124.66666666666666</ele><time>2026-05-02T10:27:54.202Z</time></trkpt><trkpt lat="43.7253366" lon="12.8228396"><ele>124.33333333333334</ele><time>2026-05-02T10:27:55.204Z</time></trkpt><trkpt lat="43.7253613" lon="12.8230575"><ele>124.0</ele><time>2026-05-02T10:27:56.197Z</time></trkpt><trkpt lat="43.7253854" lon="12.8232705"><ele>122.0</ele><time>2026-05-02T10:27:57.202Z</time></trkpt><trkpt lat="43.7254111" lon="12.8234854"><ele>120.0</ele><time>2026-05-02T10:27:58.208Z</time></trkpt><trkpt lat="43.7254343" lon="12.8236953"><ele>118.0</ele><time>2026-05-02T10:27:59.212Z</time></trkpt><trkpt lat="43.7254571" lon="12.8239084"><ele>118.0</ele><time>2026-05-02T10:28:00.204Z</time></trkpt><trkpt lat="43.7254824" lon="12.8241166"><ele>118.0</ele><time>2026-05-02T10:28:01.211Z</time></trkpt><trkpt lat="43.7255057" lon="12.8243201"><ele>118.0</ele><time>2026-05-02T10:28:02.204Z</time></trkpt><trkpt lat="43.7255468" lon="12.8245159"><ele>118.0</ele><time>2026-05-02T10:28:03.201Z</time></trkpt><trkpt lat="43.7256135" lon="12.8246941"><ele>121.33333333333334</ele><time>2026-05-02T10:28:04.2Z</time></trkpt><trkpt lat="43.7257135" lon="12.8248378"><ele>124.66666666666666</ele><time>2026-05-02T10:28:05.2Z</time></trkpt><trkpt lat="43.7258517" lon="12.8249503"><ele>128.0</ele><time>2026-05-02T10:28:06.204Z</time></trkpt><trkpt lat="43.7259998" lon="12.8250379"><ele>127.66666666666666</ele><time>2026-05-02T10:28:07.201Z</time></trkpt><trkpt lat="43.7261511" lon="12.825126"><ele>127.33333333333334</ele><time>2026-05-02T10:28:08.199Z</time></trkpt><trkpt lat="43.726289" lon="12.8252271"><ele>127.0</ele><time>2026-05-02T10:28:09.193Z</time></trkpt><trkpt lat="43.7264147" lon="12.8253173"><ele>129.2</ele><time>2026-05-02T10:28:10.201Z</time></trkpt><trkpt lat="43.7265236" lon="12.8253984"><ele>131.39999999999998</ele><time>2026-05-02T10:28:11.2Z</time></trkpt><trkpt lat="43.7266178" lon="12.8254776"><ele>133.60000000000002</ele><time>2026-05-02T10:28:12.193Z</time></trkpt><trkpt lat="43.7267018" lon="12.8255344"><ele>135.8</ele><time>2026-05-02T10:28:13.201Z</time></trkpt><trkpt lat="43.7267658" lon="12.8256024"><ele>138.0</ele><time>2026-05-02T10:28:14.2Z</time></trkpt><trkpt lat="43.7268066" lon="12.8256707"><ele>138.0</ele><time>2026-05-02T10:28:15.196Z</time></trkpt><trkpt lat="43.7268417" lon="12.8257447"><ele>138.0</ele><time>2026-05-02T10:28:16.2Z</time></trkpt><trkpt lat="43.7269392" lon="12.8257685"><ele>138.0</ele><time>2026-05-02T10:28:18.2Z</time></trkpt><trkpt lat="43.7270065" lon="12.8257787"><ele>138.0</ele><time>2026-05-02T10:28:19.205Z</time></trkpt><trkpt lat="43.7270809" lon="12.825806"><ele>138.0</ele><time>2026-05-02T10:28:20.196Z</time></trkpt><trkpt lat="43.7271732" lon="12.8258457"><ele>138.0</ele><time>2026-05-02T10:28:21.195Z</time></trkpt><trkpt lat="43.7272673" lon="12.8259072"><ele>138.66666666666666</ele><time>2026-05-02T10:28:22.202Z</time></trkpt><trkpt lat="43.7273585" lon="12.8259745"><ele>139.33333333333334</ele><time>2026-05-02T10:28:23.196Z</time></trkpt><trkpt lat="43.7274451" lon="12.8260205"><ele>140.0</ele><time>2026-05-02T10:28:24.207Z</time></trkpt><trkpt lat="43.7275288" lon="12.8260347"><ele>140.66666666666669</ele><time>2026-05-02T10:28:25.198Z</time></trkpt><trkpt lat="43.727602" lon="12.8260631"><ele>141.33333333333334</ele><time>2026-05-02T10:28:26.203Z</time></trkpt><trkpt lat="43.7276727" lon="12.8261273"><ele>142.0</ele><time>2026-05-02T10:28:27.196Z</time></trkpt><trkpt lat="43.7277406" lon="12.8261862"><ele>144.16666666666669</ele><time>2026-05-02T10:28:28.199Z</time></trkpt><trkpt lat="43.7278057" lon="12.8262142"><ele>146.33333333333334</ele><time>2026-05-02T10:28:29.202Z</time></trkpt><trkpt lat="43.727873" lon="12.8261957"><ele>148.5</ele><time>2026-05-02T10:28:30.202Z</time></trkpt><trkpt lat="43.7279384" lon="12.8261389"><ele>150.66666666666666</ele><time>2026-05-02T10:28:31.204Z</time></trkpt><trkpt lat="43.7279972" lon="12.826041"><ele>152.83333333333331</ele><time>2026-05-02T10:28:32.199Z</time></trkpt><trkpt lat="43.7280685" lon="12.8259272"><ele>155.0</ele><time>2026-05-02T10:28:33.195Z</time></trkpt><trkpt lat="43.7281548" lon="12.8258193"><ele>155.0</ele><time>2026-05-02T10:28:34.198Z</time></trkpt><trkpt lat="43.728254" lon="12.8257212"><ele>155.0</ele><time>2026-05-02T10:28:35.202Z</time></trkpt><trkpt lat="43.7283595" lon="12.8256429"><ele>155.0</ele><time>2026-05-02T10:28:36.202Z</time></trkpt><trkpt lat="43.7284702" lon="12.8255772"><ele>155.0</ele><time>2026-05-02T10:28:37.203Z</time></trkpt><trkpt lat="43.7285884" lon="12.8255214"><ele>158.25</ele><time>2026-05-02T10:28:38.199Z</time></trkpt><trkpt lat="43.7287078" lon="12.8254831"><ele>161.5</ele><time>2026-05-02T10:28:39.198Z</time></trkpt><trkpt lat="43.7288294" lon="12.8254599"><ele>164.75</ele><time>2026-05-02T10:28:40.2Z</time></trkpt><trkpt lat="43.728955" lon="12.8254516"><ele>168.0</ele><time>2026-05-02T10:28:41.198Z</time></trkpt><trkpt lat="43.7290776" lon="12.8254544"><ele>168.0</ele><time>2026-05-02T10:28:42.203Z</time></trkpt><trkpt lat="43.7291981" lon="12.8254621"><ele>168.0</ele><time>2026-05-02T10:28:43.195Z</time></trkpt><trkpt lat="43.7293223" lon="12.8254621"><ele>168.0</ele><time>2026-05-02T10:28:44.202Z</time></trkpt><trkpt lat="43.7294416" lon="12.8254625"><ele>168.0</ele><time>2026-05-02T10:28:45.196Z</time></trkpt><trkpt lat="43.7295571" lon="12.8254638"><ele>171.0</ele><time>2026-05-02T10:28:46.203Z</time></trkpt><trkpt lat="43.7296753" lon="12.8254758"><ele>174.0</ele><time>2026-05-02T10:28:47.191Z</time></trkpt><trkpt lat="43.7297957" lon="12.8255048"><ele>177.0</ele><time>2026-05-02T10:28:48.196Z</time></trkpt><trkpt lat="43.729925" lon="12.8255353"><ele>180.0</ele><time>2026-05-02T10:28:49.201Z</time></trkpt><trkpt lat="43.7300606" lon="12.8255734"><ele>180.0</ele><time>2026-05-02T10:28:50.201Z</time></trkpt><trkpt lat="43.7302034" lon="12.82561"><ele>180.0</ele><time>2026-05-02T10:28:51.194Z</time></trkpt><trkpt lat="43.7303538" lon="12.8256122"><ele>180.0</ele><time>2026-05-02T10:28:52.196Z</time></trkpt><trkpt lat="43.7304996" lon="12.8256062"><ele>180.0</ele><time>2026-05-02T10:28:53.189Z</time></trkpt><trkpt lat="43.7305932" lon="12.8256069"><ele>179.66666666666666</ele><time>2026-05-02T10:28:54.194Z</time></trkpt><trkpt lat="43.7306713" lon="12.8256355"><ele>179.33333333333334</ele><time>2026-05-02T10:28:55.202Z</time></trkpt><trkpt lat="43.7307376" lon="12.8257087"><ele>179.0</ele><time>2026-05-02T10:28:56.191Z</time></trkpt><trkpt lat="43.7307763" lon="12.8258021"><ele>178.66666666666669</ele><time>2026-05-02T10:28:57.199Z</time></trkpt><trkpt lat="43.7308135" lon="12.8259197"><ele>178.33333333333334</ele><time>2026-05-02T10:28:58.195Z</time></trkpt><trkpt lat="43.73084" lon="12.826071"><ele>178.0</ele><time>2026-05-02T10:28:59.192Z</time></trkpt><trkpt lat="43.7308824" lon="12.8262179"><ele>177.5</ele><time>2026-05-02T10:29:00.202Z</time></trkpt><trkpt lat="43.7309496" lon="12.8263757"><ele>177.0</ele><time>2026-05-02T10:29:01.188Z</time></trkpt><trkpt lat="43.7310193" lon="12.8265213"><ele>176.5</ele><time>2026-05-02T10:29:02.199Z</time></trkpt><trkpt lat="43.731079" lon="12.8266753"><ele>176.0</ele><time>2026-05-02T10:29:03.195Z</time></trkpt><trkpt lat="43.7311211" lon="12.8268299"><ele>182.0</ele><time>2026-05-02T10:29:04.195Z</time></trkpt><trkpt lat="43.7311642" lon="12.8269814"><ele>188.0</ele><time>2026-05-02T10:29:05.195Z</time></trkpt><trkpt lat="43.7312193" lon="12.8271264"><ele>194.0</ele><time>2026-05-02T10:29:06.198Z</time></trkpt><trkpt lat="43.7312811" lon="12.8272685"><ele>200.0</ele><time>2026-05-02T10:29:07.204Z</time></trkpt><trkpt lat="43.7313452" lon="12.8274107"><ele>200.0</ele><time>2026-05-02T10:29:08.202Z</time></trkpt><trkpt lat="43.7313999" lon="12.8275486"><ele>200.0</ele><time>2026-05-02T10:29:09.2Z</time></trkpt><trkpt lat="43.7314401" lon="12.8276702"><ele>200.0</ele><time>2026-05-02T10:29:10.2Z</time></trkpt><trkpt lat="43.7314793" lon="12.8277838"><ele>200.0</ele><time>2026-05-02T10:29:12.193Z</time></trkpt><trkpt lat="43.7315514" lon="12.8278352"><ele>200.0</ele><time>2026-05-02T10:29:15.202Z</time></trkpt><trkpt lat="43.7316286" lon="12.8278873"><ele>199.6</ele><time>2026-05-02T10:29:17.205Z</time></trkpt><trkpt lat="43.7317409" lon="12.8279501"><ele>199.2</ele><time>2026-05-02T10:29:19.21Z</time></trkpt><trkpt lat="43.7318376" lon="12.8280289"><ele>198.8</ele><time>2026-05-02T10:29:21.206Z</time></trkpt><trkpt lat="43.731913" lon="12.8281305"><ele>198.4</ele><time>2026-05-02T10:29:23.204Z</time></trkpt><trkpt lat="43.7319812" lon="12.8282443"><ele>198.0</ele><time>2026-05-02T10:29:25.202Z</time></trkpt><trkpt lat="43.7320505" lon="12.8283823"><ele>198.0</ele><time>2026-05-02T10:29:27.203Z</time></trkpt><trkpt lat="43.7320992" lon="12.8284582"><ele>198.0</ele><time>2026-05-02T10:29:28.203Z</time></trkpt><trkpt lat="43.732154" lon="12.8285355"><ele>198.0</ele><time>2026-05-02T10:29:29.203Z</time></trkpt><trkpt lat="43.7322101" lon="12.8286183"><ele>198.0</ele><time>2026-05-02T10:29:30.201Z</time></trkpt><trkpt lat="43.7322747" lon="12.8287077"><ele>198.0</ele><time>2026-05-02T10:29:31.205Z</time></trkpt><trkpt lat="43.7323373" lon="12.8287992"><ele>198.0</ele><time>2026-05-02T10:29:32.196Z</time></trkpt><trkpt lat="43.732383" lon="12.8289009"><ele>200.33333333333334</ele><time>2026-05-02T10:29:33.194Z</time></trkpt><trkpt lat="43.7324222" lon="12.8290014"><ele>202.66666666666669</ele><time>2026-05-02T10:29:34.196Z</time></trkpt><trkpt lat="43.7324527" lon="12.8290987"><ele>205.0</ele><time>2026-05-02T10:29:35.19Z</time></trkpt><trkpt lat="43.7324796" lon="12.8291886"><ele>207.33333333333334</ele><time>2026-05-02T10:29:36.2Z</time></trkpt><trkpt lat="43.7325106" lon="12.8292719"><ele>209.66666666666669</ele><time>2026-05-02T10:29:37.193Z</time></trkpt><trkpt lat="43.7325653" lon="12.8294217"><ele>212.0</ele><time>2026-05-02T10:29:39.195Z</time></trkpt><trkpt lat="43.7326016" lon="12.8295054"><ele>212.66666666666669</ele><time>2026-05-02T10:29:40.192Z</time></trkpt><trkpt lat="43.7326301" lon="12.8295905"><ele>213.33333333333334</ele><time>2026-05-02T10:29:41.202Z</time></trkpt><trkpt lat="43.732651" lon="12.8296792"><ele>214.0</ele><time>2026-05-02T10:29:42.189Z</time></trkpt><trkpt lat="43.73267" lon="12.8298374"><ele>214.66666666666669</ele><time>2026-05-02T10:29:44.199Z</time></trkpt><trkpt lat="43.7326707" lon="12.8299269"><ele>215.33333333333334</ele><time>2026-05-02T10:29:45.2Z</time></trkpt><trkpt lat="43.7326684" lon="12.8300318"><ele>216.0</ele><time>2026-05-02T10:29:46.209Z</time></trkpt><trkpt lat="43.7326668" lon="12.8301837"><ele>216.0</ele><time>2026-05-02T10:29:48.189Z</time></trkpt><trkpt lat="43.7326646" lon="12.8302896"><ele>216.0</ele><time>2026-05-02T10:29:50.202Z</time></trkpt><trkpt lat="43.732729" lon="12.8303474"><ele>216.0</ele><time>2026-05-02T10:29:52.197Z</time></trkpt><trkpt lat="43.7327993" lon="12.8303697"><ele>216.0</ele><time>2026-05-02T10:29:53.198Z</time></trkpt><trkpt lat="43.7328828" lon="12.8304034"><ele>216.0</ele><time>2026-05-02T10:29:54.199Z</time></trkpt><trkpt lat="43.7329798" lon="12.8304484"><ele>216.0</ele><time>2026-05-02T10:29:55.2Z</time></trkpt><trkpt lat="43.733085" lon="12.8305051"><ele>219.25</ele><time>2026-05-02T10:29:56.2Z</time></trkpt><trkpt lat="43.7331981" lon="12.8305688"><ele>222.5</ele><time>2026-05-02T10:29:57.199Z</time></trkpt><trkpt lat="43.7333139" lon="12.8306345"><ele>225.75</ele><time>2026-05-02T10:29:58.201Z</time></trkpt><trkpt lat="43.7334339" lon="12.830688"><ele>229.0</ele><time>2026-05-02T10:29:59.201Z</time></trkpt><trkpt lat="43.7335602" lon="12.8307201"><ele>232.0</ele><time>2026-05-02T10:30:00.195Z</time></trkpt><trkpt lat="43.7336959" lon="12.8307299"><ele>235.0</ele><time>2026-05-02T10:30:01.198Z</time></trkpt><trkpt lat="43.7338317" lon="12.8307261"><ele>238.0</ele><time>2026-05-02T10:30:02.193Z</time></trkpt><trkpt lat="43.7339448" lon="12.8307313"><ele>241.0</ele><time>2026-05-02T10:30:03.197Z</time></trkpt><trkpt lat="43.7340372" lon="12.8307383"><ele>241.0</ele><time>2026-05-02T10:30:04.199Z</time></trkpt><trkpt lat="43.7341163" lon="12.8307512"><ele>241.00000000000003</ele><time>2026-05-02T10:30:05.189Z</time></trkpt><trkpt lat="43.734195" lon="12.8307967"><ele>241.00000000000003</ele><time>2026-05-02T10:30:06.197Z</time></trkpt><trkpt lat="43.7342824" lon="12.8308686"><ele>241.0</ele><time>2026-05-02T10:30:07.194Z</time></trkpt><trkpt lat="43.7343848" lon="12.830947"><ele>241.0</ele><time>2026-05-02T10:30:08.192Z</time></trkpt><trkpt lat="43.7345062" lon="12.8310306"><ele>242.60000000000002</ele><time>2026-05-02T10:30:09.196Z</time></trkpt><trkpt lat="43.7346212" lon="12.8311127"><ele>244.20000000000002</ele><time>2026-05-02T10:30:10.196Z</time></trkpt><trkpt lat="43.7347245" lon="12.8311835"><ele>245.79999999999998</ele><time>2026-05-02T10:30:11.2Z</time></trkpt><trkpt lat="43.7348111" lon="12.8312599"><ele>247.39999999999998</ele><time>2026-05-02T10:30:12.199Z</time></trkpt><trkpt lat="43.7348786" lon="12.8313497"><ele>249.0</ele><time>2026-05-02T10:30:13.208Z</time></trkpt><trkpt lat="43.7349235" lon="12.8314623"><ele>249.0</ele><time>2026-05-02T10:30:14.21Z</time></trkpt><trkpt lat="43.7349557" lon="12.8315953"><ele>248.99999999999997</ele><time>2026-05-02T10:30:15.21Z</time></trkpt><trkpt lat="43.7349594" lon="12.8317525"><ele>248.99999999999997</ele><time>2026-05-02T10:30:16.208Z</time></trkpt><trkpt lat="43.7349401" lon="12.8319069"><ele>249.0</ele><time>2026-05-02T10:30:17.212Z</time></trkpt><trkpt lat="43.7349067" lon="12.8320299"><ele>249.0</ele><time>2026-05-02T10:30:18.208Z</time></trkpt><trkpt lat="43.7348569" lon="12.8321148"><ele>251.6</ele><time>2026-05-02T10:30:19.214Z</time></trkpt><trkpt lat="43.7347999" lon="12.8321819"><ele>254.2</ele><time>2026-05-02T10:30:20.202Z</time></trkpt><trkpt lat="43.7347434" lon="12.8322568"><ele>256.79999999999995</ele><time>2026-05-02T10:30:21.204Z</time></trkpt><trkpt lat="43.7346788" lon="12.8323421"><ele>259.4</ele><time>2026-05-02T10:30:22.207Z</time></trkpt><trkpt lat="43.7346048" lon="12.8324498"><ele>262.0</ele><time>2026-05-02T10:30:23.201Z</time></trkpt><trkpt lat="43.7345267" lon="12.8325733"><ele>262.5</ele><time>2026-05-02T10:30:24.196Z</time></trkpt><trkpt lat="43.7344559" lon="12.8326997"><ele>263.0</ele><time>2026-05-02T10:30:25.198Z</time></trkpt><trkpt lat="43.7343992" lon="12.8328192"><ele>263.5</ele><time>2026-05-02T10:30:26.193Z</time></trkpt><trkpt lat="43.7343581" lon="12.8329251"><ele>264.0</ele><time>2026-05-02T10:30:27.196Z</time></trkpt><trkpt lat="43.7343497" lon="12.8330141"><ele>264.5</ele><time>2026-05-02T10:30:28.193Z</time></trkpt><trkpt lat="43.7343575" lon="12.8331046"><ele>265.0</ele><time>2026-05-02T10:30:29.199Z</time></trkpt><trkpt lat="43.7343779" lon="12.833193"><ele>265.0</ele><time>2026-05-02T10:30:30.192Z</time></trkpt><trkpt lat="43.7344123" lon="12.8332741"><ele>265.0</ele><time>2026-05-02T10:30:31.191Z</time></trkpt><trkpt lat="43.7344605" lon="12.8333455"><ele>265.0</ele><time>2026-05-02T10:30:32.189Z</time></trkpt><trkpt lat="43.7345362" lon="12.8334182"><ele>265.0</ele><time>2026-05-02T10:30:33.187Z</time></trkpt><trkpt lat="43.7346351" lon="12.8334815"><ele>265.0</ele><time>2026-05-02T10:30:34.183Z</time></trkpt><trkpt lat="43.7347406" lon="12.8335491"><ele>263.2</ele><time>2026-05-02T10:30:35.179Z</time></trkpt><trkpt lat="43.7348464" lon="12.8336194"><ele>261.4</ele><time>2026-05-02T10:30:36.179Z</time></trkpt><trkpt lat="43.7349445" lon="12.833683"><ele>259.6</ele><time>2026-05-02T10:30:37.179Z</time></trkpt><trkpt lat="43.7350297" lon="12.8337349"><ele>257.8</ele><time>2026-05-02T10:30:38.183Z</time></trkpt><trkpt lat="43.7351017" lon="12.8337914"><ele>256.0</ele><time>2026-05-02T10:30:39.183Z</time></trkpt><trkpt lat="43.7351677" lon="12.8338477"><ele>255.4</ele><time>2026-05-02T10:30:40.185Z</time></trkpt><trkpt lat="43.7352222" lon="12.8338977"><ele>254.8</ele><time>2026-05-02T10:30:41.191Z</time></trkpt><trkpt lat="43.7352929" lon="12.8339838"><ele>254.20000000000002</ele><time>2026-05-02T10:30:43.189Z</time></trkpt><trkpt lat="43.7353358" lon="12.8341549"><ele>253.60000000000002</ele><time>2026-05-02T10:30:45.192Z</time></trkpt><trkpt lat="43.7353574" lon="12.8342508"><ele>253.0</ele><time>2026-05-02T10:30:46.19Z</time></trkpt><trkpt lat="43.7353407" lon="12.8344054"><ele>253.0</ele><time>2026-05-02T10:30:48.186Z</time></trkpt><trkpt lat="43.7353464" lon="12.8344996"><ele>253.0</ele><time>2026-05-02T10:30:50.199Z</time></trkpt><trkpt lat="43.7354594" lon="12.8345735"><ele>253.0</ele><time>2026-05-02T10:30:52.2Z</time></trkpt><trkpt lat="43.7355415" lon="12.8346235"><ele>253.0</ele><time>2026-05-02T10:30:53.195Z</time></trkpt><trkpt lat="43.7356307" lon="12.8346923"><ele>253.0</ele><time>2026-05-02T10:30:54.192Z</time></trkpt><trkpt lat="43.735719" lon="12.8347821"><ele>253.0</ele><time>2026-05-02T10:30:55.194Z</time></trkpt><trkpt lat="43.7358053" lon="12.8348856"><ele>253.0</ele><time>2026-05-02T10:30:56.2Z</time></trkpt><trkpt lat="43.7358987" lon="12.8349994"><ele>253.0</ele><time>2026-05-02T10:30:57.193Z</time></trkpt><trkpt lat="43.736001" lon="12.8351199"><ele>253.0</ele><time>2026-05-02T10:30:58.205Z</time></trkpt><trkpt lat="43.7361104" lon="12.8352392"><ele>251.0</ele><time>2026-05-02T10:30:59.21Z</time></trkpt><trkpt lat="43.7362229" lon="12.8353571"><ele>249.0</ele><time>2026-05-02T10:31:00.199Z</time></trkpt><trkpt lat="43.7363324" lon="12.8354716"><ele>247.0</ele><time>2026-05-02T10:31:01.204Z</time></trkpt><trkpt lat="43.7364348" lon="12.8355813"><ele>245.0</ele><time>2026-05-02T10:31:02.199Z</time></trkpt><trkpt lat="43.7365276" lon="12.8356758"><ele>245.0</ele><time>2026-05-02T10:31:03.197Z</time></trkpt><trkpt lat="43.7366216" lon="12.835735"><ele>245.0</ele><time>2026-05-02T10:31:04.197Z</time></trkpt><trkpt lat="43.7367205" lon="12.8357525"><ele>245.0</ele><time>2026-05-02T10:31:05.203Z</time></trkpt><trkpt lat="43.7368427" lon="12.8357079"><ele>245.0</ele><time>2026-05-02T10:31:06.199Z</time></trkpt><trkpt lat="43.736971" lon="12.8356141"><ele>245.25</ele><time>2026-05-02T10:31:07.203Z</time></trkpt><trkpt lat="43.737094" lon="12.8355066"><ele>245.5</ele><time>2026-05-02T10:31:08.196Z</time></trkpt><trkpt lat="43.7372223" lon="12.8354074"><ele>245.75</ele><time>2026-05-02T10:31:09.197Z</time></trkpt><trkpt lat="43.7373437" lon="12.8353058"><ele>246.0</ele><time>2026-05-02T10:31:10.201Z</time></trkpt><trkpt lat="43.7374587" lon="12.8351894"><ele>246.0</ele><time>2026-05-02T10:31:11.201Z</time></trkpt><trkpt lat="43.7375422" lon="12.8350434"><ele>246.0</ele><time>2026-05-02T10:31:12.193Z</time></trkpt><trkpt lat="43.7376246" lon="12.8348814"><ele>246.0</ele><time>2026-05-02T10:31:13.193Z</time></trkpt><trkpt lat="43.7377216" lon="12.8347391"><ele>246.0</ele><time>2026-05-02T10:31:14.2Z</time></trkpt><trkpt lat="43.7378224" lon="12.8346311"><ele>247.0</ele><time>2026-05-02T10:31:15.192Z</time></trkpt><trkpt lat="43.7379238" lon="12.8345509"><ele>248.0</ele><time>2026-05-02T10:31:16.2Z</time></trkpt><trkpt lat="43.738043" lon="12.8344803"><ele>249.0</ele><time>2026-05-02T10:31:17.202Z</time></trkpt><trkpt lat="43.738169" lon="12.8344035"><ele>250.0</ele><time>2026-05-02T10:31:18.194Z</time></trkpt><trkpt lat="43.7383011" lon="12.8343389"><ele>248.0</ele><time>2026-05-02T10:31:19.201Z</time></trkpt><trkpt lat="43.7384242" lon="12.8342688"><ele>246.0</ele><time>2026-05-02T10:31:20.201Z</time></trkpt><trkpt lat="43.7385481" lon="12.8342118"><ele>244.0</ele><time>2026-05-02T10:31:21.191Z</time></trkpt><trkpt lat="43.738673" lon="12.8341801"><ele>242.0</ele><time>2026-05-02T10:31:22.199Z</time></trkpt><trkpt lat="43.7388016" lon="12.8342023"><ele>241.0</ele><time>2026-05-02T10:31:23.202Z</time></trkpt><trkpt lat="43.7389354" lon="12.8342804"><ele>240.0</ele><time>2026-05-02T10:31:24.202Z</time></trkpt><trkpt lat="43.7390756" lon="12.8344027"><ele>239.0</ele><time>2026-05-02T10:31:25.197Z</time></trkpt><trkpt lat="43.7392303" lon="12.8344646"><ele>237.66666666666669</ele><time>2026-05-02T10:31:26.208Z</time></trkpt><trkpt lat="43.7394006" lon="12.834467"><ele>236.33333333333331</ele><time>2026-05-02T10:31:27.2Z</time></trkpt><trkpt lat="43.739569" lon="12.8344433"><ele>235.0</ele><time>2026-05-02T10:31:28.207Z</time></trkpt><trkpt lat="43.7397408" lon="12.83441"><ele>235.0</ele><time>2026-05-02T10:31:29.207Z</time></trkpt><trkpt lat="43.7399196" lon="12.8343787"><ele>235.0</ele><time>2026-05-02T10:31:30.201Z</time></trkpt><trkpt lat="43.7400989" lon="12.8343427"><ele>235.0</ele><time>2026-05-02T10:31:31.203Z</time></trkpt><trkpt lat="43.7402754" lon="12.834318"><ele>239.33333333333331</ele><time>2026-05-02T10:31:32.201Z</time></trkpt><trkpt lat="43.7404344" lon="12.8342913"><ele>243.66666666666669</ele><time>2026-05-02T10:31:33.199Z</time></trkpt><trkpt lat="43.7405894" lon="12.8342321"><ele>248.0</ele><time>2026-05-02T10:31:34.205Z</time></trkpt><trkpt lat="43.7407353" lon="12.8341266"><ele>248.0</ele><time>2026-05-02T10:31:35.206Z</time></trkpt><trkpt lat="43.7408679" lon="12.8339977"><ele>248.0</ele><time>2026-05-02T10:31:36.2Z</time></trkpt><trkpt lat="43.7410019" lon="12.8338856"><ele>248.0</ele><time>2026-05-02T10:31:37.204Z</time></trkpt><trkpt lat="43.741133" lon="12.8337901"><ele>249.75</ele><time>2026-05-02T10:31:38.2Z</time></trkpt><trkpt lat="43.7412628" lon="12.8337216"><ele>251.5</ele><time>2026-05-02T10:31:39.203Z</time></trkpt><trkpt lat="43.7414081" lon="12.8336883"><ele>253.25</ele><time>2026-05-02T10:31:40.2Z</time></trkpt><trkpt lat="43.741559" lon="12.8336783"><ele>255.0</ele><time>2026-05-02T10:31:41.203Z</time></trkpt><trkpt lat="43.7417171" lon="12.8336822"><ele>255.0</ele><time>2026-05-02T10:31:42.2Z</time></trkpt><trkpt lat="43.7418814" lon="12.8337133"><ele>255.0</ele><time>2026-05-02T10:31:43.2Z</time></trkpt><trkpt lat="43.7420395" lon="12.8337316"><ele>255.0</ele><time>2026-05-02T10:31:44.197Z</time></trkpt><trkpt lat="43.7421989" lon="12.8337446"><ele>257.25</ele><time>2026-05-02T10:31:45.202Z</time></trkpt><trkpt lat="43.7423572" lon="12.833755"><ele>259.5</ele><time>2026-05-02T10:31:46.193Z</time></trkpt><trkpt lat="43.7425028" lon="12.8337534"><ele>261.75</ele><time>2026-05-02T10:31:47.196Z</time></trkpt><trkpt lat="43.7426298" lon="12.8337619"><ele>264.0</ele><time>2026-05-02T10:31:48.199Z</time></trkpt><trkpt lat="43.7427611" lon="12.8337814"><ele>264.1666666666667</ele><time>2026-05-02T10:31:49.206Z</time></trkpt><trkpt lat="43.7428729" lon="12.8337817"><ele>264.3333333333333</ele><time>2026-05-02T10:31:50.191Z</time></trkpt><trkpt lat="43.7429625" lon="12.8337659"><ele>264.5</ele><time>2026-05-02T10:31:51.206Z</time></trkpt><trkpt lat="43.7430304" lon="12.8337278"><ele>264.66666666666663</ele><time>2026-05-02T10:31:52.196Z</time></trkpt><trkpt lat="43.7431076" lon="12.8336705"><ele>264.8333333333333</ele><time>2026-05-02T10:31:54.196Z</time></trkpt><trkpt lat="43.743159" lon="12.8335963"><ele>265.0</ele><time>2026-05-02T10:32:22.273Z</time></trkpt><trkpt lat="43.7432313" lon="12.8334446"><ele>264.5</ele><time>2026-05-02T10:32:24.197Z</time></trkpt><trkpt lat="43.7432705" lon="12.8333138"><ele>264.0</ele><time>2026-05-02T10:32:25.2Z</time></trkpt><trkpt lat="43.7432945" lon="12.8331615"><ele>263.5</ele><time>2026-05-02T10:32:26.198Z</time></trkpt><trkpt lat="43.7433022" lon="12.832993"><ele>263.0</ele><time>2026-05-02T10:32:27.201Z</time></trkpt><trkpt lat="43.7432914" lon="12.8328249"><ele>263.0</ele><time>2026-05-02T10:32:28.196Z</time></trkpt><trkpt lat="43.7432808" lon="12.8326581"><ele>263.0</ele><time>2026-05-02T10:32:29.2Z</time></trkpt><trkpt lat="43.7432753" lon="12.8324935"><ele>263.0</ele><time>2026-05-02T10:32:30.196Z</time></trkpt><trkpt lat="43.7432786" lon="12.8323401"><ele>263.0</ele><time>2026-05-02T10:32:31.191Z</time></trkpt><trkpt lat="43.7432883" lon="12.8321931"><ele>263.5</ele><time>2026-05-02T10:32:32.194Z</time></trkpt><trkpt lat="43.7433124" lon="12.8320557"><ele>264.0</ele><time>2026-05-02T10:32:33.194Z</time></trkpt><trkpt lat="43.7433481" lon="12.8319092"><ele>264.5</ele><time>2026-05-02T10:32:34.19Z</time></trkpt><trkpt lat="43.7433906" lon="12.8317562"><ele>265.0</ele><time>2026-05-02T10:32:35.184Z</time></trkpt><trkpt lat="43.7434336" lon="12.8315935"><ele>265.25</ele><time>2026-05-02T10:32:36.19Z</time></trkpt><trkpt lat="43.7434823" lon="12.8314192"><ele>265.5</ele><time>2026-05-02T10:32:37.189Z</time></trkpt><trkpt lat="43.743536" lon="12.8312394"><ele>265.75</ele><time>2026-05-02T10:32:38.189Z</time></trkpt><trkpt lat="43.743597" lon="12.8310579"><ele>266.0</ele><time>2026-05-02T10:32:39.19Z</time></trkpt><trkpt lat="43.7436778" lon="12.8308756"><ele>268.25</ele><time>2026-05-02T10:32:40.19Z</time></trkpt><trkpt lat="43.743765" lon="12.8307124"><ele>270.5</ele><time>2026-05-02T10:32:41.195Z</time></trkpt><trkpt lat="43.7438563" lon="12.8305648"><ele>272.75</ele><time>2026-05-02T10:32:42.194Z</time></trkpt><trkpt lat="43.7439644" lon="12.8304172"><ele>275.0</ele><time>2026-05-02T10:32:43.198Z</time></trkpt><trkpt lat="43.7440591" lon="12.8302805"><ele>273.75</ele><time>2026-05-02T10:32:44.198Z</time></trkpt><trkpt lat="43.7441373" lon="12.830127"><ele>272.5</ele><time>2026-05-02T10:32:45.19Z</time></trkpt><trkpt lat="43.7441958" lon="12.8299705"><ele>271.25</ele><time>2026-05-02T10:32:46.195Z</time></trkpt><trkpt lat="43.7442482" lon="12.8298262"><ele>270.0</ele><time>2026-05-02T10:32:47.195Z</time></trkpt><trkpt lat="43.7443018" lon="12.829687"><ele>270.0</ele><time>2026-05-02T10:32:48.195Z</time></trkpt><trkpt lat="43.7443617" lon="12.8295538"><ele>270.0</ele><time>2026-05-02T10:32:49.196Z</time></trkpt><trkpt lat="43.7444272" lon="12.829426"><ele>270.0</ele><time>2026-05-02T10:32:50.197Z</time></trkpt><trkpt lat="43.7444931" lon="12.8293032"><ele>270.0</ele><time>2026-05-02T10:32:51.198Z</time></trkpt><trkpt lat="43.7445575" lon="12.8291835"><ele>270.0</ele><time>2026-05-02T10:32:52.197Z</time></trkpt><trkpt lat="43.7446144" lon="12.829069"><ele>270.5</ele><time>2026-05-02T10:32:53.195Z</time></trkpt><trkpt lat="43.7446684" lon="12.8289682"><ele>271.0</ele><time>2026-05-02T10:32:54.194Z</time></trkpt><trkpt lat="43.7447192" lon="12.8288853"><ele>271.5</ele><time>2026-05-02T10:32:55.2Z</time></trkpt><trkpt lat="43.7447714" lon="12.8288058"><ele>272.0</ele><time>2026-05-02T10:32:56.195Z</time></trkpt><trkpt lat="43.7448246" lon="12.8287338"><ele>272.5</ele><time>2026-05-02T10:32:57.196Z</time></trkpt><trkpt lat="43.7448719" lon="12.8286667"><ele>273.0</ele><time>2026-05-02T10:32:58.194Z</time></trkpt><trkpt lat="43.7449441" lon="12.8285557"><ele>273.0</ele><time>2026-05-02T10:33:00.189Z</time></trkpt><trkpt lat="43.745029" lon="12.8285122"><ele>273.0</ele><time>2026-05-02T10:33:02.198Z</time></trkpt><trkpt lat="43.7451297" lon="12.8286526"><ele>273.0</ele><time>2026-05-02T10:33:04.189Z</time></trkpt><trkpt lat="43.7451954" lon="12.8287738"><ele>273.0</ele><time>2026-05-02T10:33:05.186Z</time></trkpt><trkpt lat="43.7452692" lon="12.8289019"><ele>272.4</ele><time>2026-05-02T10:33:06.187Z</time></trkpt><trkpt lat="43.7453493" lon="12.82903"><ele>271.8</ele><time>2026-05-02T10:33:07.186Z</time></trkpt><trkpt lat="43.7454206" lon="12.8291345"><ele>271.2</ele><time>2026-05-02T10:33:08.186Z</time></trkpt><trkpt lat="43.7454679" lon="12.8292115"><ele>270.6</ele><time>2026-05-02T10:33:09.187Z</time></trkpt><trkpt lat="43.7455603" lon="12.8292363"><ele>270.0</ele><time>2026-05-02T10:33:28.238Z</time></trkpt><trkpt lat="43.7456337" lon="12.8292328"><ele>270.0</ele><time>2026-05-02T10:33:29.197Z</time></trkpt><trkpt lat="43.7457337" lon="12.8292294"><ele>270.0</ele><time>2026-05-02T10:33:30.195Z</time></trkpt><trkpt lat="43.7458385" lon="12.8292134"><ele>270.0</ele><time>2026-05-02T10:33:31.194Z</time></trkpt><trkpt lat="43.7459431" lon="12.8291801"><ele>270.0</ele><time>2026-05-02T10:33:32.191Z</time></trkpt><trkpt lat="43.7460419" lon="12.8291327"><ele>270.0</ele><time>2026-05-02T10:33:33.199Z</time></trkpt><trkpt lat="43.7461225" lon="12.8290836"><ele>271.0</ele><time>2026-05-02T10:33:34.197Z</time></trkpt><trkpt lat="43.7462022" lon="12.8290482"><ele>272.0</ele><time>2026-05-02T10:33:35.193Z</time></trkpt><trkpt lat="43.7462721" lon="12.8290049"><ele>273.0</ele><time>2026-05-02T10:33:36.2Z</time></trkpt><trkpt lat="43.7463362" lon="12.8289331"><ele>274.0</ele><time>2026-05-02T10:33:37.2Z</time></trkpt><trkpt lat="43.7463921" lon="12.8288229"><ele>275.0</ele><time>2026-05-02T10:33:38.196Z</time></trkpt><trkpt lat="43.7464555" lon="12.8287094"><ele>276.0</ele><time>2026-05-02T10:33:39.195Z</time></trkpt><trkpt lat="43.7465249" lon="12.8285949"><ele>276.0</ele><time>2026-05-02T10:33:40.19Z</time></trkpt><trkpt lat="43.7466103" lon="12.8284957"><ele>276.0</ele><time>2026-05-02T10:33:41.19Z</time></trkpt><trkpt lat="43.746691" lon="12.82842"><ele>276.0</ele><time>2026-05-02T10:33:42.2Z</time></trkpt><trkpt lat="43.7467748" lon="12.8283733"><ele>276.0</ele><time>2026-05-02T10:33:43.199Z</time></trkpt><trkpt lat="43.7468631" lon="12.8283572"><ele>276.0</ele><time>2026-05-02T10:33:44.197Z</time></trkpt><trkpt lat="43.7469582" lon="12.8283498"><ele>274.5</ele><time>2026-05-02T10:33:45.198Z</time></trkpt><trkpt lat="43.7470623" lon="12.8283469"><ele>273.0</ele><time>2026-05-02T10:33:46.194Z</time></trkpt><trkpt lat="43.7471779" lon="12.8283358"><ele>271.5</ele><time>2026-05-02T10:33:47.2Z</time></trkpt><trkpt lat="43.7472969" lon="12.8283286"><ele>270.0</ele><time>2026-05-02T10:33:48.199Z</time></trkpt><trkpt lat="43.7474077" lon="12.8283189"><ele>270.0</ele><time>2026-05-02T10:33:49.201Z</time></trkpt><trkpt lat="43.7475156" lon="12.8283045"><ele>270.0</ele><time>2026-05-02T10:33:50.195Z</time></trkpt><trkpt lat="43.7476139" lon="12.8282825"><ele>270.0</ele><time>2026-05-02T10:33:51.196Z</time></trkpt><trkpt lat="43.7477159" lon="12.8282437"><ele>270.0</ele><time>2026-05-02T10:33:52.199Z</time></trkpt><trkpt lat="43.7478213" lon="12.8281875"><ele>270.0</ele><time>2026-05-02T10:33:53.195Z</time></trkpt><trkpt lat="43.7479264" lon="12.8281212"><ele>269.6</ele><time>2026-05-02T10:33:54.201Z</time></trkpt><trkpt lat="43.7480175" lon="12.8280554"><ele>269.2</ele><time>2026-05-02T10:33:55.195Z</time></trkpt><trkpt lat="43.7481021" lon="12.8280049"><ele>268.8</ele><time>2026-05-02T10:33:56.197Z</time></trkpt><trkpt lat="43.748185" lon="12.8279743"><ele>268.4</ele><time>2026-05-02T10:33:57.203Z</time></trkpt><trkpt lat="43.748274" lon="12.827984"><ele>268.0</ele><time>2026-05-02T10:33:58.198Z</time></trkpt><trkpt lat="43.748357" lon="12.8280184"><ele>268.0</ele><time>2026-05-02T10:33:59.199Z</time></trkpt><trkpt lat="43.7484279" lon="12.8280659"><ele>268.0</ele><time>2026-05-02T10:34:00.196Z</time></trkpt><trkpt lat="43.7484904" lon="12.828134"><ele>268.0</ele><time>2026-05-02T10:34:01.196Z</time></trkpt><trkpt lat="43.7485419" lon="12.8282213"><ele>268.0</ele><time>2026-05-02T10:34:02.193Z</time></trkpt><trkpt lat="43.7485903" lon="12.8283188"><ele>268.0</ele><time>2026-05-02T10:34:03.198Z</time></trkpt><trkpt lat="43.748649" lon="12.8283981"><ele>268.0</ele><time>2026-05-02T10:34:04.198Z</time></trkpt><trkpt lat="43.7487187" lon="12.8284558"><ele>265.66666666666663</ele><time>2026-05-02T10:34:05.199Z</time></trkpt><trkpt lat="43.7487961" lon="12.8284904"><ele>263.3333333333333</ele><time>2026-05-02T10:34:06.199Z</time></trkpt><trkpt lat="43.7488674" lon="12.8285144"><ele>261.0</ele><time>2026-05-02T10:34:07.194Z</time></trkpt><trkpt lat="43.7489358" lon="12.8285243"><ele>258.6666666666667</ele><time>2026-05-02T10:34:08.192Z</time></trkpt><trkpt lat="43.7490483" lon="12.8284665"><ele>256.33333333333337</ele><time>2026-05-02T10:34:10.202Z</time></trkpt><trkpt lat="43.7490956" lon="12.8284029"><ele>254.0</ele><time>2026-05-02T10:34:11.197Z</time></trkpt><trkpt lat="43.7491375" lon="12.8283294"><ele>254.0</ele><time>2026-05-02T10:34:12.195Z</time></trkpt><trkpt lat="43.7491794" lon="12.8282464"><ele>254.0</ele><time>2026-05-02T10:34:13.198Z</time></trkpt><trkpt lat="43.7492208" lon="12.8281609"><ele>254.0</ele><time>2026-05-02T10:34:14.196Z</time></trkpt><trkpt lat="43.749268" lon="12.8280783"><ele>254.0</ele><time>2026-05-02T10:34:15.208Z</time></trkpt><trkpt lat="43.749326" lon="12.8280123"><ele>254.0</ele><time>2026-05-02T10:34:16.191Z</time></trkpt><trkpt lat="43.7493856" lon="12.8279614"><ele>254.0</ele><time>2026-05-02T10:34:17.203Z</time></trkpt><trkpt lat="43.7494447" lon="12.8279189"><ele>254.0</ele><time>2026-05-02T10:34:18.197Z</time></trkpt><trkpt lat="43.7495033" lon="12.8278774"><ele>251.0</ele><time>2026-05-02T10:34:19.203Z</time></trkpt><trkpt lat="43.7495576" lon="12.8278232"><ele>247.99999999999997</ele><time>2026-05-02T10:34:20.196Z</time></trkpt><trkpt lat="43.7496088" lon="12.8277635"><ele>244.99999999999997</ele><time>2026-05-02T10:34:21.196Z</time></trkpt><trkpt lat="43.7496904" lon="12.8276375"><ele>242.0</ele><time>2026-05-02T10:34:23.198Z</time></trkpt><trkpt lat="43.7497274" lon="12.8274815"><ele>239.0</ele><time>2026-05-02T10:34:25.197Z</time></trkpt><trkpt lat="43.7497382" lon="12.8273109"><ele>239.00000000000003</ele><time>2026-05-02T10:34:27.196Z</time></trkpt><trkpt lat="43.7497315" lon="12.82722"><ele>239.0</ele><time>2026-05-02T10:34:28.203Z</time></trkpt><trkpt lat="43.7497191" lon="12.8271172"><ele>239.0</ele><time>2026-05-02T10:34:29.194Z</time></trkpt><trkpt lat="43.7496997" lon="12.8270044"><ele>239.0</ele><time>2026-05-02T10:34:30.192Z</time></trkpt><trkpt lat="43.7496914" lon="12.8268946"><ele>239.00000000000003</ele><time>2026-05-02T10:34:31.193Z</time></trkpt><trkpt lat="43.7496875" lon="12.8267926"><ele>239.0</ele><time>2026-05-02T10:34:32.186Z</time></trkpt><trkpt lat="43.7496645" lon="12.8266325"><ele>238.79999999999998</ele><time>2026-05-02T10:34:34.195Z</time></trkpt><trkpt lat="43.7496154" lon="12.8265211"><ele>238.59999999999997</ele><time>2026-05-02T10:34:36.191Z</time></trkpt><trkpt lat="43.7495559" lon="12.826422"><ele>238.4</ele><time>2026-05-02T10:34:38.189Z</time></trkpt><trkpt lat="43.7494688" lon="12.826424"><ele>238.2</ele><time>2026-05-02T10:34:40.193Z</time></trkpt><trkpt lat="43.7493754" lon="12.8264931"><ele>238.0</ele><time>2026-05-02T10:34:42.192Z</time></trkpt><trkpt lat="43.7492894" lon="12.8265644"><ele>237.99999999999997</ele><time>2026-05-02T10:34:44.196Z</time></trkpt><trkpt lat="43.7491947" lon="12.8266297"><ele>238.0</ele><time>2026-05-02T10:34:46.201Z</time></trkpt><trkpt lat="43.7491045" lon="12.8266733"><ele>238.0</ele><time>2026-05-02T10:34:48.194Z</time></trkpt><trkpt lat="43.7490343" lon="12.8266932"><ele>238.0</ele><time>2026-05-02T10:34:50.197Z</time></trkpt><trkpt lat="43.7489567" lon="12.8267131"><ele>237.99999999999997</ele><time>2026-05-02T10:34:52.203Z</time></trkpt><trkpt lat="43.7488709" lon="12.8267229"><ele>238.0</ele><time>2026-05-02T10:34:54.195Z</time></trkpt><trkpt lat="43.7488077" lon="12.8267018"><ele>237.99999999999997</ele><time>2026-05-02T10:34:56.196Z</time></trkpt><trkpt lat="43.7488501" lon="12.8265978"><ele>238.0</ele><time>2026-05-02T10:35:01.195Z</time></trkpt><trkpt lat="43.7489027" lon="12.8265286"><ele>238.0</ele><time>2026-05-02T10:35:03.192Z</time></trkpt><trkpt lat="43.7489566" lon="12.8264652"><ele>238.0</ele><time>2026-05-02T10:35:05.191Z</time></trkpt><trkpt lat="43.7490114" lon="12.8264074"><ele>237.99999999999997</ele><time>2026-05-02T10:35:07.193Z</time></trkpt><trkpt lat="43.7490596" lon="12.8263056"><ele>238.0</ele><time>2026-05-02T10:35:09.19Z</time></trkpt><trkpt lat="43.7491322" lon="12.8261894"><ele>238.0</ele><time>2026-05-02T10:35:11.187Z</time></trkpt><trkpt lat="43.7492113" lon="12.8260595"><ele>238.0</ele><time>2026-05-02T10:35:13.19Z</time></trkpt><trkpt lat="43.7492982" lon="12.8259487"><ele>238.0</ele><time>2026-05-02T10:35:15.189Z</time></trkpt><trkpt lat="43.749375" lon="12.8258412"><ele>238.0</ele><time>2026-05-02T10:35:17.191Z</time></trkpt><trkpt lat="43.7494637" lon="12.825761"><ele>237.0</ele><time>2026-05-02T10:35:19.201Z</time></trkpt><trkpt lat="43.7495693" lon="12.8257426"><ele>236.0</ele><time>2026-05-02T10:35:21.197Z</time></trkpt><trkpt lat="43.7496455" lon="12.8258148"><ele>235.0</ele><time>2026-05-02T10:35:23.197Z</time></trkpt><trkpt lat="43.7497144" lon="12.8259343"><ele>234.0</ele><time>2026-05-02T10:35:25.192Z</time></trkpt><trkpt lat="43.7497891" lon="12.8260411"><ele>233.0</ele><time>2026-05-02T10:35:27.191Z</time></trkpt><trkpt lat="43.7498525" lon="12.8260116"><ele>229.4</ele><time>2026-05-02T10:35:29.191Z</time></trkpt><trkpt lat="43.749833" lon="12.8258952"><ele>225.8</ele><time>2026-05-02T10:35:31.183Z</time></trkpt><trkpt lat="43.7497937" lon="12.8257696"><ele>222.2</ele><time>2026-05-02T10:35:33.181Z</time></trkpt><trkpt lat="43.7497628" lon="12.8256454"><ele>218.6</ele><time>2026-05-02T10:35:35.181Z</time></trkpt><trkpt lat="43.7497702" lon="12.8254844"><ele>215.0</ele><time>2026-05-02T10:35:37.186Z</time></trkpt><trkpt lat="43.7497982" lon="12.8253133"><ele>215.00000000000003</ele><time>2026-05-02T10:35:39.185Z</time></trkpt><trkpt lat="43.749819" lon="12.8251854"><ele>215.0</ele><time>2026-05-02T10:35:41.182Z</time></trkpt><trkpt lat="43.7498819" lon="12.8251095"><ele>215.0</ele><time>2026-05-02T10:35:43.178Z</time></trkpt><trkpt lat="43.7499698" lon="12.8250673"><ele>215.0</ele><time>2026-05-02T10:35:45.19Z</time></trkpt><trkpt lat="43.7500764" lon="12.8250529"><ele>215.00000000000003</ele><time>2026-05-02T10:35:47.18Z</time></trkpt><trkpt lat="43.7501421" lon="12.8250521"><ele>215.0</ele><time>2026-05-02T10:35:48.188Z</time></trkpt><trkpt lat="43.7502131" lon="12.8250655"><ele>212.16666666666669</ele><time>2026-05-02T10:35:49.193Z</time></trkpt><trkpt lat="43.7502869" lon="12.8250895"><ele>209.33333333333334</ele><time>2026-05-02T10:35:50.193Z</time></trkpt><trkpt lat="43.750355" lon="12.825134"><ele>206.5</ele><time>2026-05-02T10:35:51.187Z</time></trkpt><trkpt lat="43.7504174" lon="12.8251922"><ele>203.66666666666669</ele><time>2026-05-02T10:35:52.187Z</time></trkpt><trkpt lat="43.7504821" lon="12.8252507"><ele>200.83333333333334</ele><time>2026-05-02T10:35:53.187Z</time></trkpt><trkpt lat="43.750545" lon="12.8253147"><ele>198.0</ele><time>2026-05-02T10:35:54.187Z</time></trkpt><trkpt lat="43.7506354" lon="12.82541"><ele>197.66666666666666</ele><time>2026-05-02T10:35:56.188Z</time></trkpt><trkpt lat="43.7507069" lon="12.825456"><ele>197.33333333333331</ele><time>2026-05-02T10:35:58.192Z</time></trkpt><trkpt lat="43.7507705" lon="12.8254656"><ele>197.0</ele><time>2026-05-02T10:36:05.278Z</time></trkpt><trkpt lat="43.7508381" lon="12.8255316"><ele>196.66666666666666</ele><time>2026-05-02T10:36:08.191Z</time></trkpt><trkpt lat="43.7508841" lon="12.8256516"><ele>196.33333333333331</ele><time>2026-05-02T10:36:10.186Z</time></trkpt><trkpt lat="43.7509148" lon="12.8257349"><ele>196.0</ele><time>2026-05-02T10:36:11.187Z</time></trkpt><trkpt lat="43.7509524" lon="12.8258176"><ele>195.99999999999997</ele><time>2026-05-02T10:36:12.191Z</time></trkpt><trkpt lat="43.7509873" lon="12.8259045"><ele>196.0</ele><time>2026-05-02T10:36:13.19Z</time></trkpt><trkpt lat="43.7510187" lon="12.825994"><ele>196.0</ele><time>2026-05-02T10:36:14.191Z</time></trkpt><trkpt lat="43.7510418" lon="12.8260816"><ele>196.0</ele><time>2026-05-02T10:36:15.186Z</time></trkpt><trkpt lat="43.7510594" lon="12.8261656"><ele>195.99999999999997</ele><time>2026-05-02T10:36:16.189Z</time></trkpt><trkpt lat="43.7510681" lon="12.8262528"><ele>196.0</ele><time>2026-05-02T10:36:17.183Z</time></trkpt><trkpt lat="43.7510843" lon="12.8264142"><ele>189.60000000000002</ele><time>2026-05-02T10:36:19.188Z</time></trkpt><trkpt lat="43.7511163" lon="12.8265622"><ele>183.2</ele><time>2026-05-02T10:36:21.181Z</time></trkpt><trkpt lat="43.7511468" lon="12.8267221"><ele>176.8</ele><time>2026-05-02T10:36:23.185Z</time></trkpt><trkpt lat="43.7511719" lon="12.8268831"><ele>170.39999999999998</ele><time>2026-05-02T10:36:25.186Z</time></trkpt><trkpt lat="43.7511841" lon="12.8269715"><ele>164.0</ele><time>2026-05-02T10:36:26.185Z</time></trkpt><trkpt lat="43.751216" lon="12.8271357"><ele>163.83333333333331</ele><time>2026-05-02T10:36:28.185Z</time></trkpt><trkpt lat="43.751253" lon="12.8272665"><ele>163.66666666666666</ele><time>2026-05-02T10:36:30.186Z</time></trkpt><trkpt lat="43.7512697" lon="12.8274027"><ele>163.5</ele><time>2026-05-02T10:36:32.193Z</time></trkpt><trkpt lat="43.7512181" lon="12.8275421"><ele>163.33333333333334</ele><time>2026-05-02T10:36:34.183Z</time></trkpt><trkpt lat="43.7511835" lon="12.8276224"><ele>163.16666666666669</ele><time>2026-05-02T10:36:35.182Z</time></trkpt><trkpt lat="43.7511485" lon="12.8277016"><ele>163.0</ele><time>2026-05-02T10:36:36.182Z</time></trkpt><trkpt lat="43.7511263" lon="12.8277841"><ele>162.0</ele><time>2026-05-02T10:36:37.183Z</time></trkpt><trkpt lat="43.7510651" lon="12.827931"><ele>161.0</ele><time>2026-05-02T10:36:39.179Z</time></trkpt><trkpt lat="43.751032" lon="12.8280144"><ele>160.0</ele><time>2026-05-02T10:36:40.173Z</time></trkpt><trkpt lat="43.7509793" lon="12.8281559"><ele>159.0</ele><time>2026-05-02T10:36:42.177Z</time></trkpt><trkpt lat="43.750958" lon="12.8283001"><ele>158.0</ele><time>2026-05-02T10:36:44.174Z</time></trkpt><trkpt lat="43.7509636" lon="12.8284109"><ele>159.2</ele><time>2026-05-02T10:36:46.178Z</time></trkpt><trkpt lat="43.7509861" lon="12.8285238"><ele>160.4</ele><time>2026-05-02T10:36:48.179Z</time></trkpt><trkpt lat="43.7510437" lon="12.8286379"><ele>161.6</ele><time>2026-05-02T10:36:50.183Z</time></trkpt><trkpt lat="43.7511111" lon="12.828763"><ele>162.79999999999998</ele><time>2026-05-02T10:36:52.186Z</time></trkpt><trkpt lat="43.7511533" lon="12.8289126"><ele>164.0</ele><time>2026-05-02T10:36:54.187Z</time></trkpt><trkpt lat="43.7511732" lon="12.829074"><ele>164.0</ele><time>2026-05-02T10:36:56.187Z</time></trkpt><trkpt lat="43.751169" lon="12.8292385"><ele>164.0</ele><time>2026-05-02T10:36:58.18Z</time></trkpt><trkpt lat="43.7511466" lon="12.8293688"><ele>164.0</ele><time>2026-05-02T10:37:00.184Z</time></trkpt><trkpt lat="43.7511747" lon="12.8294513"><ele>164.0</ele><time>2026-05-02T10:37:04.186Z</time></trkpt><trkpt lat="43.7511916" lon="12.8293509"><ele>164.0</ele><time>2026-05-02T10:39:16.198Z</time></trkpt><trkpt lat="43.7512078" lon="12.8292261"><ele>164.0</ele><time>2026-05-02T10:39:19.2Z</time></trkpt><trkpt lat="43.7512185" lon="12.8291315"><ele>164.0</ele><time>2026-05-02T10:39:22.197Z</time></trkpt><trkpt lat="43.7512185" lon="12.8290105"><ele>164.0</ele><time>2026-05-02T10:39:47.191Z</time></trkpt><trkpt lat="43.7511947" lon="12.8288871"><ele>164.0</ele><time>2026-05-02T10:39:49.196Z</time></trkpt><trkpt lat="43.7511731" lon="12.828766"><ele>164.0</ele><time>2026-05-02T10:39:51.197Z</time></trkpt><trkpt lat="43.751159" lon="12.8286552"><ele>164.0</ele><time>2026-05-02T10:39:53.183Z</time></trkpt><trkpt lat="43.7511528" lon="12.8285346"><ele>164.0</ele><time>2026-05-02T10:39:55.191Z</time></trkpt><trkpt lat="43.7511723" lon="12.8283997"><ele>162.79999999999998</ele><time>2026-05-02T10:39:57.193Z</time></trkpt><trkpt lat="43.7511961" lon="12.8282706"><ele>161.6</ele><time>2026-05-02T10:39:59.193Z</time></trkpt><trkpt lat="43.751237" lon="12.8281404"><ele>160.4</ele><time>2026-05-02T10:40:01.188Z</time></trkpt><trkpt lat="43.7512842" lon="12.828028"><ele>159.2</ele><time>2026-05-02T10:40:03.192Z</time></trkpt><trkpt lat="43.7513622" lon="12.8279258"><ele>158.0</ele><time>2026-05-02T10:40:05.192Z</time></trkpt><trkpt lat="43.7514279" lon="12.8278537"><ele>158.0</ele><time>2026-05-02T10:40:07.184Z</time></trkpt><trkpt lat="43.7515007" lon="12.8278131"><ele>158.0</ele><time>2026-05-02T10:40:10.192Z</time></trkpt><trkpt lat="43.7515669" lon="12.8278134"><ele>158.0</ele><time>2026-05-02T10:40:12.189Z</time></trkpt><trkpt lat="43.7516647" lon="12.8278548"><ele>158.0</ele><time>2026-05-02T10:40:15.193Z</time></trkpt><trkpt lat="43.7517404" lon="12.8278903"><ele>158.0</ele><time>2026-05-02T10:40:17.191Z</time></trkpt><trkpt lat="43.7518264" lon="12.8279231"><ele>158.0</ele><time>2026-05-02T10:40:19.189Z</time></trkpt><trkpt lat="43.7519014" lon="12.827875"><ele>159.14285714285717</ele><time>2026-05-02T10:40:22.182Z</time></trkpt><trkpt lat="43.7519091" lon="12.8277817"><ele>160.28571428571428</ele><time>2026-05-02T10:40:25.199Z</time></trkpt><trkpt lat="43.7519163" lon="12.8276937"><ele>161.42857142857144</ele><time>2026-05-02T10:40:37.187Z</time></trkpt><trkpt lat="43.7519399" lon="12.8275972"><ele>162.57142857142858</ele><time>2026-05-02T10:40:40.184Z</time></trkpt><trkpt lat="43.751976" lon="12.8275052"><ele>163.71428571428572</ele><time>2026-05-02T10:40:43.18Z</time></trkpt><trkpt lat="43.752024" lon="12.8274345"><ele>164.85714285714286</ele><time>2026-05-02T10:40:46.187Z</time></trkpt><trkpt lat="43.752041" lon="12.8273208"><ele>166.0</ele><time>2026-05-02T10:40:58.198Z</time></trkpt><trkpt lat="43.7520701" lon="12.8272376"><ele>166.0</ele><time>2026-05-02T10:41:00.193Z</time></trkpt><trkpt lat="43.7520749" lon="12.8271138"><ele>166.0</ele><time>2026-05-02T10:41:02.191Z</time></trkpt><trkpt lat="43.7520749" lon="12.8269762"><ele>166.0</ele><time>2026-05-02T10:41:04.194Z</time></trkpt><trkpt lat="43.7521201" lon="12.8268604"><ele>166.0</ele><time>2026-05-02T10:41:06.2Z</time></trkpt><trkpt lat="43.752217" lon="12.8267291"><ele>166.0</ele><time>2026-05-02T10:41:08.2Z</time></trkpt><trkpt lat="43.7522743" lon="12.8266611"><ele>165.66666666666669</ele><time>2026-05-02T10:41:09.199Z</time></trkpt><trkpt lat="43.7523313" lon="12.8265974"><ele>165.33333333333334</ele><time>2026-05-02T10:41:10.194Z</time></trkpt><trkpt lat="43.7523851" lon="12.8265172"><ele>165.0</ele><time>2026-05-02T10:41:11.194Z</time></trkpt><trkpt lat="43.7524433" lon="12.8264401"><ele>164.66666666666666</ele><time>2026-05-02T10:41:12.196Z</time></trkpt><trkpt lat="43.7524969" lon="12.8263725"><ele>164.33333333333331</ele><time>2026-05-02T10:41:13.193Z</time></trkpt><trkpt lat="43.7525462" lon="12.8262993"><ele>164.0</ele><time>2026-05-02T10:41:14.192Z</time></trkpt><trkpt lat="43.7526026" lon="12.8262015"><ele>164.0</ele><time>2026-05-02T10:41:16.186Z</time></trkpt><trkpt lat="43.7526651" lon="12.8261854"><ele>164.0</ele><time>2026-05-02T10:41:26.192Z</time></trkpt><trkpt lat="43.7526723" lon="12.8263117"><ele>164.0</ele><time>2026-05-02T10:41:29.193Z</time></trkpt><trkpt lat="43.752644" lon="12.8263993"><ele>164.0</ele><time>2026-05-02T10:41:30.185Z</time></trkpt><trkpt lat="43.7526046" lon="12.8265033"><ele>164.0</ele><time>2026-05-02T10:41:31.188Z</time></trkpt><trkpt lat="43.7525667" lon="12.8266189"><ele>164.0</ele><time>2026-05-02T10:41:32.186Z</time></trkpt><trkpt lat="43.7525304" lon="12.8267346"><ele>164.33333333333331</ele><time>2026-05-02T10:41:33.187Z</time></trkpt><trkpt lat="43.7525083" lon="12.8268338"><ele>164.66666666666666</ele><time>2026-05-02T10:41:34.189Z</time></trkpt><trkpt lat="43.7524938" lon="12.82692"><ele>165.0</ele><time>2026-05-02T10:41:35.192Z</time></trkpt><trkpt lat="43.7524732" lon="12.8270448"><ele>165.33333333333334</ele><time>2026-05-02T10:41:37.195Z</time></trkpt><trkpt lat="43.7524606" lon="12.8271793"><ele>165.66666666666669</ele><time>2026-05-02T10:41:39.193Z</time></trkpt><trkpt lat="43.752445" lon="12.8273403"><ele>166.0</ele><time>2026-05-02T10:41:41.196Z</time></trkpt><trkpt lat="43.7524237" lon="12.827519"><ele>166.0</ele><time>2026-05-02T10:41:43.192Z</time></trkpt><trkpt lat="43.7524107" lon="12.8276123"><ele>166.0</ele><time>2026-05-02T10:41:44.19Z</time></trkpt><trkpt lat="43.7523967" lon="12.8277057"><ele>166.0</ele><time>2026-05-02T10:41:45.191Z</time></trkpt><trkpt lat="43.7523615" lon="12.8278595"><ele>166.0</ele><time>2026-05-02T10:41:47.194Z</time></trkpt><trkpt lat="43.75231" lon="12.8280053"><ele>166.0</ele><time>2026-05-02T10:41:49.189Z</time></trkpt><trkpt lat="43.7522603" lon="12.8281434"><ele>166.8</ele><time>2026-05-02T10:41:51.187Z</time></trkpt><trkpt lat="43.7522254" lon="12.828287"><ele>167.60000000000002</ele><time>2026-05-02T10:41:53.186Z</time></trkpt><trkpt lat="43.7521912" lon="12.8284517"><ele>168.4</ele><time>2026-05-02T10:41:55.179Z</time></trkpt><trkpt lat="43.7521659" lon="12.8285855"><ele>169.2</ele><time>2026-05-02T10:41:57.184Z</time></trkpt><trkpt lat="43.7521478" lon="12.8286959"><ele>170.0</ele><time>2026-05-02T10:41:59.191Z</time></trkpt><trkpt lat="43.7521776" lon="12.8288276"><ele>171.0</ele><time>2026-05-02T10:42:01.186Z</time></trkpt><trkpt lat="43.7522187" lon="12.8289752"><ele>172.0</ele><time>2026-05-02T10:42:03.187Z</time></trkpt><trkpt lat="43.752202" lon="12.8291069"><ele>173.0</ele><time>2026-05-02T10:42:05.183Z</time></trkpt><trkpt lat="43.752178" lon="12.8292254"><ele>174.0</ele><time>2026-05-02T10:42:07.187Z</time></trkpt><trkpt lat="43.7521757" lon="12.8293448"><ele>175.0</ele><time>2026-05-02T10:42:09.187Z</time></trkpt><trkpt lat="43.7521864" lon="12.8294859"><ele>175.6</ele><time>2026-05-02T10:42:11.189Z</time></trkpt><trkpt lat="43.7521967" lon="12.8296193"><ele>176.2</ele><time>2026-05-02T10:42:13.189Z</time></trkpt><trkpt lat="43.7522157" lon="12.8297544"><ele>176.8</ele><time>2026-05-02T10:42:15.187Z</time></trkpt><trkpt lat="43.7522313" lon="12.8298995"><ele>177.4</ele><time>2026-05-02T10:42:17.191Z</time></trkpt><trkpt lat="43.7522401" lon="12.8300473"><ele>178.0</ele><time>2026-05-02T10:42:19.198Z</time></trkpt><trkpt lat="43.7522523" lon="12.8301778"><ele>179.33333333333334</ele><time>2026-05-02T10:42:21.187Z</time></trkpt><trkpt lat="43.7522476" lon="12.8302938"><ele>180.66666666666669</ele><time>2026-05-02T10:42:23.185Z</time></trkpt><trkpt lat="43.7522324" lon="12.8303938"><ele>182.0</ele><time>2026-05-02T10:42:25.187Z</time></trkpt><trkpt lat="43.7521973" lon="12.8305027"><ele>183.33333333333334</ele><time>2026-05-02T10:42:28.189Z</time></trkpt><trkpt lat="43.7521618" lon="12.8306128"><ele>184.66666666666666</ele><time>2026-05-02T10:42:30.185Z</time></trkpt><trkpt lat="43.7521207" lon="12.8307143"><ele>186.0</ele><time>2026-05-02T10:42:32.182Z</time></trkpt><trkpt lat="43.7520624" lon="12.8307975"><ele>186.0</ele><time>2026-05-02T10:42:35.187Z</time></trkpt><trkpt lat="43.7520208" lon="12.8308876"><ele>186.0</ele><time>2026-05-02T10:42:38.186Z</time></trkpt><trkpt lat="43.7519848" lon="12.8310058"><ele>186.0</ele><time>2026-05-02T10:42:41.184Z</time></trkpt><trkpt lat="43.7519642" lon="12.8311113"><ele>186.0</ele><time>2026-05-02T10:42:43.188Z</time></trkpt><trkpt lat="43.751943" lon="12.8312524"><ele>186.0</ele><time>2026-05-02T10:42:45.186Z</time></trkpt><trkpt lat="43.7519085" lon="12.8313781"><ele>183.5</ele><time>2026-05-02T10:42:47.182Z</time></trkpt><trkpt lat="43.7518713" lon="12.8314804"><ele>181.0</ele><time>2026-05-02T10:42:49.185Z</time></trkpt><trkpt lat="43.7518375" lon="12.8315664"><ele>178.5</ele><time>2026-05-02T10:42:51.186Z</time></trkpt><trkpt lat="43.7518057" lon="12.8316685"><ele>176.0</ele><time>2026-05-02T10:42:53.184Z</time></trkpt><trkpt lat="43.7517685" lon="12.8317898"><ele>173.5</ele><time>2026-05-02T10:42:55.189Z</time></trkpt><trkpt lat="43.7517274" lon="12.8319225"><ele>171.0</ele><time>2026-05-02T10:42:57.19Z</time></trkpt><trkpt lat="43.7516826" lon="12.8320576"><ele>171.0</ele><time>2026-05-02T10:42:59.194Z</time></trkpt><trkpt lat="43.7516375" lon="12.8321808"><ele>171.0</ele><time>2026-05-02T10:43:01.184Z</time></trkpt><trkpt lat="43.75159" lon="12.8322984"><ele>171.0</ele><time>2026-05-02T10:43:03.183Z</time></trkpt><trkpt lat="43.7515452" lon="12.8324253"><ele>171.0</ele><time>2026-05-02T10:43:05.185Z</time></trkpt><trkpt lat="43.7515059" lon="12.8325584"><ele>171.0</ele><time>2026-05-02T10:43:07.186Z</time></trkpt><trkpt lat="43.7514751" lon="12.832691"><ele>170.8</ele><time>2026-05-02T10:43:09.187Z</time></trkpt><trkpt lat="43.7514476" lon="12.832812"><ele>170.60000000000002</ele><time>2026-05-02T10:43:11.191Z</time></trkpt><trkpt lat="43.7514104" lon="12.8329456"><ele>170.4</ele><time>2026-05-02T10:43:13.192Z</time></trkpt><trkpt lat="43.7513896" lon="12.8330664"><ele>170.2</ele><time>2026-05-02T10:43:15.19Z</time></trkpt><trkpt lat="43.7514173" lon="12.8331818"><ele>170.0</ele><time>2026-05-02T10:43:17.187Z</time></trkpt><trkpt lat="43.7514421" lon="12.8333118"><ele>170.0</ele><time>2026-05-02T10:43:19.191Z</time></trkpt><trkpt lat="43.7514631" lon="12.8334707"><ele>170.0</ele><time>2026-05-02T10:43:21.199Z</time></trkpt><trkpt lat="43.7514789" lon="12.833646"><ele>170.0</ele><time>2026-05-02T10:43:23.197Z</time></trkpt><trkpt lat="43.7514918" lon="12.8338122"><ele>170.0</ele><time>2026-05-02T10:43:25.196Z</time></trkpt><trkpt lat="43.7515197" lon="12.8339502"><ele>169.0</ele><time>2026-05-02T10:43:27.201Z</time></trkpt><trkpt lat="43.7515736" lon="12.8340386"><ele>168.0</ele><time>2026-05-02T10:43:29.195Z</time></trkpt><trkpt lat="43.7516731" lon="12.8340631"><ele>167.0</ele><time>2026-05-02T10:43:31.192Z</time></trkpt><trkpt lat="43.7517857" lon="12.8340526"><ele>166.0</ele><time>2026-05-02T10:43:33.193Z</time></trkpt><trkpt lat="43.7518673" lon="12.833979"><ele>165.0</ele><time>2026-05-02T10:43:35.193Z</time></trkpt><trkpt lat="43.75191" lon="12.8339133"><ele>165.0</ele><time>2026-05-02T10:43:36.196Z</time></trkpt><trkpt lat="43.7519537" lon="12.8338397"><ele>165.0</ele><time>2026-05-02T10:43:37.19Z</time></trkpt><trkpt lat="43.7520084" lon="12.8337484"><ele>165.0</ele><time>2026-05-02T10:43:38.187Z</time></trkpt><trkpt lat="43.7520715" lon="12.8336502"><ele>165.0</ele><time>2026-05-02T10:43:39.191Z</time></trkpt><trkpt lat="43.7521411" lon="12.8335436"><ele>165.0</ele><time>2026-05-02T10:43:40.188Z</time></trkpt><trkpt lat="43.7522163" lon="12.8334325"><ele>168.0</ele><time>2026-05-02T10:43:41.195Z</time></trkpt><trkpt lat="43.7523075" lon="12.8333215"><ele>171.0</ele><time>2026-05-02T10:43:42.188Z</time></trkpt><trkpt lat="43.7524003" lon="12.833237"><ele>174.0</ele><time>2026-05-02T10:43:43.191Z</time></trkpt><trkpt lat="43.752473" lon="12.8331879"><ele>177.0</ele><time>2026-05-02T10:43:44.184Z</time></trkpt><trkpt lat="43.7525514" lon="12.8331193"><ele>180.0</ele><time>2026-05-02T10:43:46.185Z</time></trkpt><trkpt lat="43.7524884" lon="12.8330519"><ele>180.0</ele><time>2026-05-02T10:43:49.188Z</time></trkpt><trkpt lat="43.7524207" lon="12.8330744"><ele>180.0</ele><time>2026-05-02T10:43:50.189Z</time></trkpt><trkpt lat="43.7523399" lon="12.8330847"><ele>180.0</ele><time>2026-05-02T10:43:51.187Z</time></trkpt><trkpt lat="43.7522475" lon="12.8330942"><ele>180.0</ele><time>2026-05-02T10:43:52.195Z</time></trkpt><trkpt lat="43.7521734" lon="12.8330894"><ele>180.0</ele><time>2026-05-02T10:43:53.196Z</time></trkpt><trkpt lat="43.7521003" lon="12.833049"><ele>180.0</ele><time>2026-05-02T10:43:55.199Z</time></trkpt><trkpt lat="43.7521178" lon="12.8329593"><ele>180.0</ele><time>2026-05-02T10:43:57.202Z</time></trkpt><trkpt lat="43.752167" lon="12.8328971"><ele>180.0</ele><time>2026-05-02T10:43:58.198Z</time></trkpt><trkpt lat="43.7522293" lon="12.8328342"><ele>180.0</ele><time>2026-05-02T10:43:59.198Z</time></trkpt><trkpt lat="43.7522903" lon="12.8327809"><ele>180.0</ele><time>2026-05-02T10:44:00.196Z</time></trkpt><trkpt lat="43.7523632" lon="12.8326808"><ele>180.0</ele><time>2026-05-02T10:44:02.196Z</time></trkpt><trkpt lat="43.7523837" lon="12.8325589"><ele>180.0</ele><time>2026-05-02T10:44:04.194Z</time></trkpt><trkpt lat="43.7524095" lon="12.832479"><ele>184.0</ele><time>2026-05-02T10:44:05.195Z</time></trkpt><trkpt lat="43.7524473" lon="12.8323801"><ele>188.0</ele><time>2026-05-02T10:44:06.195Z</time></trkpt><trkpt lat="43.7524844" lon="12.8322646"><ele>192.0</ele><time>2026-05-02T10:44:07.2Z</time></trkpt><trkpt lat="43.7525247" lon="12.8321574"><ele>196.0</ele><time>2026-05-02T10:44:08.194Z</time></trkpt><trkpt lat="43.7525717" lon="12.8320394"><ele>200.0</ele><time>2026-05-02T10:44:09.193Z</time></trkpt><trkpt lat="43.7526242" lon="12.8319273"><ele>200.0</ele><time>2026-05-02T10:44:10.197Z</time></trkpt><trkpt lat="43.7526797" lon="12.8318185"><ele>200.0</ele><time>2026-05-02T10:44:11.191Z</time></trkpt><trkpt lat="43.7527387" lon="12.8317167"><ele>200.0</ele><time>2026-05-02T10:44:12.193Z</time></trkpt><trkpt lat="43.7527973" lon="12.8316143"><ele>200.0</ele><time>2026-05-02T10:44:13.192Z</time></trkpt><trkpt lat="43.7528647" lon="12.8315066"><ele>200.0</ele><time>2026-05-02T10:44:14.189Z</time></trkpt><trkpt lat="43.752938" lon="12.8314043"><ele>203.8</ele><time>2026-05-02T10:44:15.189Z</time></trkpt><trkpt lat="43.7530046" lon="12.8313005"><ele>207.6</ele><time>2026-05-02T10:44:16.185Z</time></trkpt><trkpt lat="43.7530771" lon="12.831189"><ele>211.39999999999998</ele><time>2026-05-02T10:44:17.19Z</time></trkpt><trkpt lat="43.7531434" lon="12.8310869"><ele>215.2</ele><time>2026-05-02T10:44:18.187Z</time></trkpt><trkpt lat="43.7532023" lon="12.830983"><ele>219.0</ele><time>2026-05-02T10:44:19.187Z</time></trkpt><trkpt lat="43.7532567" lon="12.8308773"><ele>219.33333333333334</ele><time>2026-05-02T10:44:20.189Z</time></trkpt><trkpt lat="43.7533159" lon="12.8307835"><ele>219.66666666666669</ele><time>2026-05-02T10:44:21.185Z</time></trkpt><trkpt lat="43.7533747" lon="12.8306909"><ele>220.0</ele><time>2026-05-02T10:44:22.188Z</time></trkpt><trkpt lat="43.7534279" lon="12.8306058"><ele>220.33333333333334</ele><time>2026-05-02T10:44:23.187Z</time></trkpt><trkpt lat="43.7534733" lon="12.8305203"><ele>220.66666666666669</ele><time>2026-05-02T10:44:24.188Z</time></trkpt><trkpt lat="43.7535089" lon="12.8304113"><ele>221.0</ele><time>2026-05-02T10:44:25.183Z</time></trkpt><trkpt lat="43.7535322" lon="12.8302936"><ele>221.83333333333334</ele><time>2026-05-02T10:44:26.187Z</time></trkpt><trkpt lat="43.7535625" lon="12.8301868"><ele>222.66666666666669</ele><time>2026-05-02T10:44:27.191Z</time></trkpt><trkpt lat="43.7535995" lon="12.8300847"><ele>223.5</ele><time>2026-05-02T10:44:28.197Z</time></trkpt><trkpt lat="43.7536417" lon="12.829977"><ele>224.33333333333331</ele><time>2026-05-02T10:44:29.191Z</time></trkpt><trkpt lat="43.753691" lon="12.8298799"><ele>225.16666666666666</ele><time>2026-05-02T10:44:30.191Z</time></trkpt><trkpt lat="43.7537476" lon="12.8297929"><ele>226.0</ele><time>2026-05-02T10:44:31.189Z</time></trkpt><trkpt lat="43.7538029" lon="12.8297243"><ele>227.99999999999997</ele><time>2026-05-02T10:44:32.187Z</time></trkpt><trkpt lat="43.7538726" lon="12.8296625"><ele>230.0</ele><time>2026-05-02T10:44:33.191Z</time></trkpt><trkpt lat="43.7539499" lon="12.8296112"><ele>232.0</ele><time>2026-05-02T10:44:34.192Z</time></trkpt><trkpt lat="43.7540363" lon="12.8295762"><ele>234.0</ele><time>2026-05-02T10:44:35.191Z</time></trkpt><trkpt lat="43.7541258" lon="12.8295504"><ele>235.99999999999997</ele><time>2026-05-02T10:44:36.192Z</time></trkpt><trkpt lat="43.7542051" lon="12.8295269"><ele>238.0</ele><time>2026-05-02T10:44:37.194Z</time></trkpt><trkpt lat="43.7542748" lon="12.8295197"><ele>239.0</ele><time>2026-05-02T10:44:38.2Z</time></trkpt><trkpt lat="43.7543921" lon="12.8295547"><ele>240.0</ele><time>2026-05-02T10:44:40.195Z</time></trkpt><trkpt lat="43.7544555" lon="12.829533"><ele>241.0</ele><time>2026-05-02T10:44:43.2Z</time></trkpt><trkpt lat="43.754501" lon="12.8294296"><ele>242.0</ele><time>2026-05-02T10:44:47.201Z</time></trkpt><trkpt lat="43.7545193" lon="12.8292873"><ele>243.0</ele><time>2026-05-02T10:44:49.2Z</time></trkpt><trkpt lat="43.7545364" lon="12.8291837"><ele>243.0</ele><time>2026-05-02T10:44:51.188Z</time></trkpt><trkpt lat="43.7545918" lon="12.8290493"><ele>243.0</ele><time>2026-05-02T10:44:53.19Z</time></trkpt><trkpt lat="43.7546232" lon="12.8289656"><ele>243.0</ele><time>2026-05-02T10:44:54.207Z</time></trkpt><trkpt lat="43.754663" lon="12.8288667"><ele>243.0</ele><time>2026-05-02T10:44:55.195Z</time></trkpt><trkpt lat="43.754703" lon="12.8287572"><ele>243.0</ele><time>2026-05-02T10:44:56.199Z</time></trkpt><trkpt lat="43.7547508" lon="12.8286377"><ele>243.0</ele><time>2026-05-02T10:44:57.191Z</time></trkpt><trkpt lat="43.7548016" lon="12.8285106"><ele>244.60000000000002</ele><time>2026-05-02T10:44:58.2Z</time></trkpt><trkpt lat="43.7548511" lon="12.8283856"><ele>246.20000000000002</ele><time>2026-05-02T10:44:59.202Z</time></trkpt><trkpt lat="43.7549012" lon="12.8282674"><ele>247.8</ele><time>2026-05-02T10:45:00.198Z</time></trkpt><trkpt lat="43.7549461" lon="12.8281519"><ele>249.4</ele><time>2026-05-02T10:45:01.2Z</time></trkpt><trkpt lat="43.7549895" lon="12.8280415"><ele>251.0</ele><time>2026-05-02T10:45:02.2Z</time></trkpt><trkpt lat="43.7550315" lon="12.8279358"><ele>251.00000000000003</ele><time>2026-05-02T10:45:03.198Z</time></trkpt><trkpt lat="43.7550678" lon="12.8278273"><ele>251.0</ele><time>2026-05-02T10:45:04.199Z</time></trkpt><trkpt lat="43.7550995" lon="12.8277229"><ele>251.0</ele><time>2026-05-02T10:45:05.201Z</time></trkpt><trkpt lat="43.7551356" lon="12.8276285"><ele>251.0</ele><time>2026-05-02T10:45:06.194Z</time></trkpt><trkpt lat="43.7551737" lon="12.827543"><ele>251.00000000000003</ele><time>2026-05-02T10:45:07.201Z</time></trkpt><trkpt lat="43.7552136" lon="12.8274714"><ele>251.0</ele><time>2026-05-02T10:45:08.198Z</time></trkpt><trkpt lat="43.7552563" lon="12.8273982"><ele>253.00000000000003</ele><time>2026-05-02T10:45:09.192Z</time></trkpt><trkpt lat="43.7553059" lon="12.8273231"><ele>255.0</ele><time>2026-05-02T10:45:10.193Z</time></trkpt><trkpt lat="43.7553698" lon="12.827254"><ele>257.0</ele><time>2026-05-02T10:45:11.194Z</time></trkpt><trkpt lat="43.7554459" lon="12.8271943"><ele>259.0</ele><time>2026-05-02T10:45:12.202Z</time></trkpt><trkpt lat="43.7555206" lon="12.8271439"><ele>261.0</ele><time>2026-05-02T10:45:13.2Z</time></trkpt><trkpt lat="43.7555932" lon="12.8271047"><ele>263.0</ele><time>2026-05-02T10:45:14.206Z</time></trkpt><trkpt lat="43.7556691" lon="12.8270684"><ele>263.0</ele><time>2026-05-02T10:45:15.199Z</time></trkpt><trkpt lat="43.7557372" lon="12.8270297"><ele>263.0</ele><time>2026-05-02T10:45:16.195Z</time></trkpt><trkpt lat="43.7558007" lon="12.8269914"><ele>263.0</ele><time>2026-05-02T10:45:17.206Z</time></trkpt><trkpt lat="43.7558668" lon="12.8269609"><ele>263.0</ele><time>2026-05-02T10:45:18.195Z</time></trkpt><trkpt lat="43.7559335" lon="12.8269436"><ele>263.0</ele><time>2026-05-02T10:45:19.201Z</time></trkpt><trkpt lat="43.7559964" lon="12.8269476"><ele>263.0</ele><time>2026-05-02T10:45:20.193Z</time></trkpt><trkpt lat="43.756102" lon="12.8270476"><ele>266.2</ele><time>2026-05-02T10:45:22.191Z</time></trkpt><trkpt lat="43.756186" lon="12.8271467"><ele>269.4</ele><time>2026-05-02T10:45:24.196Z</time></trkpt><trkpt lat="43.7562747" lon="12.8270933"><ele>272.59999999999997</ele><time>2026-05-02T10:45:26.202Z</time></trkpt><trkpt lat="43.7563496" lon="12.8270242"><ele>275.8</ele><time>2026-05-02T10:45:27.189Z</time></trkpt><trkpt lat="43.756439" lon="12.8269496"><ele>279.0</ele><time>2026-05-02T10:45:28.194Z</time></trkpt><trkpt lat="43.7565316" lon="12.8269116"><ele>279.0</ele><time>2026-05-02T10:45:29.196Z</time></trkpt><trkpt lat="43.7566079" lon="12.8269125"><ele>279.0</ele><time>2026-05-02T10:45:30.202Z</time></trkpt><trkpt lat="43.7566869" lon="12.8269611"><ele>279.0</ele><time>2026-05-02T10:45:31.203Z</time></trkpt><trkpt lat="43.7567651" lon="12.8270504"><ele>279.0</ele><time>2026-05-02T10:45:32.193Z</time></trkpt><trkpt lat="43.7568446" lon="12.8271511"><ele>279.0</ele><time>2026-05-02T10:45:33.193Z</time></trkpt><trkpt lat="43.7569206" lon="12.8272546"><ele>282.2</ele><time>2026-05-02T10:45:34.194Z</time></trkpt><trkpt lat="43.7569868" lon="12.8273375"><ele>285.4</ele><time>2026-05-02T10:45:35.202Z</time></trkpt><trkpt lat="43.7570647" lon="12.8273728"><ele>288.6</ele><time>2026-05-02T10:45:37.196Z</time></trkpt><trkpt lat="43.7571294" lon="12.8272455"><ele>291.8</ele><time>2026-05-02T10:45:39.19Z</time></trkpt><trkpt lat="43.7571896" lon="12.827157"><ele>295.0</ele><time>2026-05-02T10:45:40.195Z</time></trkpt><trkpt lat="43.7572722" lon="12.8270786"><ele>295.0</ele><time>2026-05-02T10:45:41.191Z</time></trkpt><trkpt lat="43.7573641" lon="12.8270108"><ele>295.0</ele><time>2026-05-02T10:45:42.195Z</time></trkpt><trkpt lat="43.7574548" lon="12.8269559"><ele>295.0</ele><time>2026-05-02T10:45:43.192Z</time></trkpt><trkpt lat="43.7575405" lon="12.8269158"><ele>295.0</ele><time>2026-05-02T10:45:44.197Z</time></trkpt><trkpt lat="43.7576202" lon="12.826879"><ele>295.0</ele><time>2026-05-02T10:45:45.191Z</time></trkpt><trkpt lat="43.7576911" lon="12.8268371"><ele>296.6</ele><time>2026-05-02T10:45:46.195Z</time></trkpt><trkpt lat="43.7577665" lon="12.8268008"><ele>298.2</ele><time>2026-05-02T10:45:47.189Z</time></trkpt><trkpt lat="43.7578486" lon="12.8267653"><ele>299.8</ele><time>2026-05-02T10:45:48.192Z</time></trkpt><trkpt lat="43.7579384" lon="12.8267162"><ele>301.4</ele><time>2026-05-02T10:45:49.186Z</time></trkpt><trkpt lat="43.7580397" lon="12.8266606"><ele>303.0</ele><time>2026-05-02T10:45:50.187Z</time></trkpt><trkpt lat="43.7581507" lon="12.8265988"><ele>303.0</ele><time>2026-05-02T10:45:51.184Z</time></trkpt><trkpt lat="43.7582671" lon="12.8265352"><ele>303.0</ele><time>2026-05-02T10:45:52.182Z</time></trkpt><trkpt lat="43.7583868" lon="12.8264714"><ele>303.0</ele><time>2026-05-02T10:45:53.183Z</time></trkpt><trkpt lat="43.758502" lon="12.8263952"><ele>303.0</ele><time>2026-05-02T10:45:54.181Z</time></trkpt><trkpt lat="43.7586068" lon="12.8263249"><ele>303.4</ele><time>2026-05-02T10:45:55.182Z</time></trkpt><trkpt lat="43.7586977" lon="12.8262626"><ele>303.8</ele><time>2026-05-02T10:45:56.183Z</time></trkpt><trkpt lat="43.7587823" lon="12.8262313"><ele>304.2</ele><time>2026-05-02T10:45:57.182Z</time></trkpt><trkpt lat="43.7588683" lon="12.8262282"><ele>304.6</ele><time>2026-05-02T10:45:58.179Z</time></trkpt><trkpt lat="43.7589664" lon="12.8262326"><ele>305.0</ele><time>2026-05-02T10:45:59.183Z</time></trkpt><trkpt lat="43.7590647" lon="12.8262323"><ele>305.0</ele><time>2026-05-02T10:46:00.179Z</time></trkpt><trkpt lat="43.7591531" lon="12.8262263"><ele>305.0</ele><time>2026-05-02T10:46:01.196Z</time></trkpt><trkpt lat="43.7592399" lon="12.8262039"><ele>305.0</ele><time>2026-05-02T10:46:02.198Z</time></trkpt><trkpt lat="43.7593233" lon="12.8261745"><ele>305.0</ele><time>2026-05-02T10:46:03.199Z</time></trkpt><trkpt lat="43.7594157" lon="12.8261532"><ele>305.0</ele><time>2026-05-02T10:46:04.198Z</time></trkpt><trkpt lat="43.7594953" lon="12.8261528"><ele>305.0</ele><time>2026-05-02T10:46:05.195Z</time></trkpt><trkpt lat="43.759565" lon="12.8261708"><ele>304.8</ele><time>2026-05-02T10:46:06.192Z</time></trkpt><trkpt lat="43.7596309" lon="12.826182"><ele>304.6</ele><time>2026-05-02T10:46:07.194Z</time></trkpt><trkpt lat="43.7597425" lon="12.8261743"><ele>304.4</ele><time>2026-05-02T10:46:09.193Z</time></trkpt><trkpt lat="43.7598389" lon="12.8260611"><ele>304.2</ele><time>2026-05-02T10:46:11.189Z</time></trkpt><trkpt lat="43.7598819" lon="12.8259613"><ele>304.0</ele><time>2026-05-02T10:46:12.2Z</time></trkpt><trkpt lat="43.7599012" lon="12.8258368"><ele>304.59999999999997</ele><time>2026-05-02T10:46:13.185Z</time></trkpt><trkpt lat="43.7599128" lon="12.8256933"><ele>305.2</ele><time>2026-05-02T10:46:14.192Z</time></trkpt><trkpt lat="43.7599288" lon="12.8255364"><ele>305.79999999999995</ele><time>2026-05-02T10:46:15.19Z</time></trkpt><trkpt lat="43.7599323" lon="12.8253931"><ele>306.4</ele><time>2026-05-02T10:46:16.189Z</time></trkpt><trkpt lat="43.7599202" lon="12.8252497"><ele>307.0</ele><time>2026-05-02T10:46:17.2Z</time></trkpt><trkpt lat="43.7598797" lon="12.8251201"><ele>307.0</ele><time>2026-05-02T10:46:18.191Z</time></trkpt><trkpt lat="43.7598049" lon="12.825011"><ele>307.0</ele><time>2026-05-02T10:46:19.191Z</time></trkpt><trkpt lat="43.7597178" lon="12.8249033"><ele>307.0</ele><time>2026-05-02T10:46:20.194Z</time></trkpt><trkpt lat="43.7596462" lon="12.8247901"><ele>307.0</ele><time>2026-05-02T10:46:21.19Z</time></trkpt><trkpt lat="43.7595856" lon="12.824665"><ele>307.0</ele><time>2026-05-02T10:46:22.195Z</time></trkpt><trkpt lat="43.7595338" lon="12.8245264"><ele>307.0</ele><time>2026-05-02T10:46:23.198Z</time></trkpt><trkpt lat="43.7594914" lon="12.8243789"><ele>307.0</ele><time>2026-05-02T10:46:24.181Z</time></trkpt><trkpt lat="43.7594613" lon="12.8242364"><ele>307.0</ele><time>2026-05-02T10:46:25.183Z</time></trkpt><trkpt lat="43.7594483" lon="12.8241041"><ele>307.0</ele><time>2026-05-02T10:46:26.186Z</time></trkpt><trkpt lat="43.7594528" lon="12.8239906"><ele>307.0</ele><time>2026-05-02T10:46:27.202Z</time></trkpt><trkpt lat="43.7594747" lon="12.8238845"><ele>308.16666666666663</ele><time>2026-05-02T10:46:28.186Z</time></trkpt><trkpt lat="43.759484" lon="12.8237738"><ele>309.3333333333333</ele><time>2026-05-02T10:46:29.201Z</time></trkpt><trkpt lat="43.7594878" lon="12.8236679"><ele>310.5</ele><time>2026-05-02T10:46:30.19Z</time></trkpt><trkpt lat="43.7594814" lon="12.8235516"><ele>311.6666666666667</ele><time>2026-05-02T10:46:31.189Z</time></trkpt><trkpt lat="43.75946" lon="12.8234284"><ele>312.83333333333337</ele><time>2026-05-02T10:46:32.196Z</time></trkpt><trkpt lat="43.7594374" lon="12.8232997"><ele>314.0</ele><time>2026-05-02T10:46:33.187Z</time></trkpt><trkpt lat="43.7594077" lon="12.8231778"><ele>314.33333333333337</ele><time>2026-05-02T10:46:34.188Z</time></trkpt><trkpt lat="43.7593696" lon="12.8230702"><ele>314.6666666666667</ele><time>2026-05-02T10:46:35.194Z</time></trkpt><trkpt lat="43.7593187" lon="12.8229745"><ele>315.0</ele><time>2026-05-02T10:46:36.183Z</time></trkpt><trkpt lat="43.7592652" lon="12.8228957"><ele>315.3333333333333</ele><time>2026-05-02T10:46:37.191Z</time></trkpt><trkpt lat="43.7592135" lon="12.8228275"><ele>315.66666666666663</ele><time>2026-05-02T10:46:38.186Z</time></trkpt><trkpt lat="43.7591462" lon="12.8226793"><ele>316.0</ele><time>2026-05-02T10:46:40.19Z</time></trkpt><trkpt lat="43.7591189" lon="12.8225887"><ele>313.28571428571433</ele><time>2026-05-02T10:46:41.191Z</time></trkpt><trkpt lat="43.7590893" lon="12.8224897"><ele>310.57142857142856</ele><time>2026-05-02T10:46:42.196Z</time></trkpt><trkpt lat="43.7590619" lon="12.8223929"><ele>307.8571428571429</ele><time>2026-05-02T10:46:43.192Z</time></trkpt><trkpt lat="43.7590487" lon="12.822297"><ele>305.14285714285717</ele><time>2026-05-02T10:46:44.192Z</time></trkpt><trkpt lat="43.7590536" lon="12.8222034"><ele>302.42857142857144</ele><time>2026-05-02T10:46:45.195Z</time></trkpt><trkpt lat="43.7590894" lon="12.8221283"><ele>299.7142857142857</ele><time>2026-05-02T10:46:46.195Z</time></trkpt><trkpt lat="43.7591493" lon="12.8220822"><ele>297.0</ele><time>2026-05-02T10:46:47.196Z</time></trkpt><trkpt lat="43.7592695" lon="12.8220769"><ele>298.42857142857144</ele><time>2026-05-02T10:46:49.196Z</time></trkpt><trkpt lat="43.7593808" lon="12.8220328"><ele>299.8571428571429</ele><time>2026-05-02T10:46:51.192Z</time></trkpt><trkpt lat="43.7594398" lon="12.8219972"><ele>301.2857142857143</ele><time>2026-05-02T10:46:52.204Z</time></trkpt><trkpt lat="43.7595008" lon="12.8219596"><ele>302.7142857142857</ele><time>2026-05-02T10:46:53.19Z</time></trkpt><trkpt lat="43.7595642" lon="12.821933"><ele>304.1428571428571</ele><time>2026-05-02T10:46:54.19Z</time></trkpt><trkpt lat="43.7596278" lon="12.8219071"><ele>305.57142857142856</ele><time>2026-05-02T10:46:55.191Z</time></trkpt><trkpt lat="43.7596923" lon="12.8218787"><ele>307.0</ele><time>2026-05-02T10:46:56.188Z</time></trkpt><trkpt lat="43.7597554" lon="12.8218545"><ele>306.99999999999994</ele><time>2026-05-02T10:46:57.193Z</time></trkpt><trkpt lat="43.7598192" lon="12.8218293"><ele>307.0</ele><time>2026-05-02T10:46:58.195Z</time></trkpt><trkpt lat="43.7598817" lon="12.8217977"><ele>307.0</ele><time>2026-05-02T10:46:59.193Z</time></trkpt><trkpt lat="43.7599432" lon="12.821752"><ele>307.0</ele><time>2026-05-02T10:47:00.196Z</time></trkpt><trkpt lat="43.7600043" lon="12.8217049"><ele>307.0</ele><time>2026-05-02T10:47:01.19Z</time></trkpt><trkpt lat="43.7600666" lon="12.821667"><ele>306.99999999999994</ele><time>2026-05-02T10:47:02.192Z</time></trkpt><trkpt lat="43.7601293" lon="12.8216313"><ele>307.0</ele><time>2026-05-02T10:47:03.188Z</time></trkpt><trkpt lat="43.7601968" lon="12.8215912"><ele>306.71428571428567</ele><time>2026-05-02T10:47:04.195Z</time></trkpt><trkpt lat="43.7602641" lon="12.8215532"><ele>306.42857142857144</ele><time>2026-05-02T10:47:05.188Z</time></trkpt><trkpt lat="43.76033" lon="12.8215146"><ele>306.1428571428571</ele><time>2026-05-02T10:47:06.196Z</time></trkpt><trkpt lat="43.7603986" lon="12.8214666"><ele>305.85714285714283</ele><time>2026-05-02T10:47:07.194Z</time></trkpt><trkpt lat="43.7604656" lon="12.8214191"><ele>305.57142857142856</ele><time>2026-05-02T10:47:08.195Z</time></trkpt><trkpt lat="43.7605271" lon="12.8213507"><ele>305.2857142857143</ele><time>2026-05-02T10:47:09.185Z</time></trkpt><trkpt lat="43.7605813" lon="12.8212816"><ele>305.0</ele><time>2026-05-02T10:47:10.193Z</time></trkpt><trkpt lat="43.7606352" lon="12.821221"><ele>305.0</ele><time>2026-05-02T10:47:11.194Z</time></trkpt><trkpt lat="43.7606827" lon="12.8211554"><ele>305.0</ele><time>2026-05-02T10:47:12.188Z</time></trkpt><trkpt lat="43.7607295" lon="12.8210944"><ele>305.0</ele><time>2026-05-02T10:47:13.186Z</time></trkpt><trkpt lat="43.7607834" lon="12.8209686"><ele>305.0</ele><time>2026-05-02T10:47:15.194Z</time></trkpt><trkpt lat="43.7608145" lon="12.8208342"><ele>305.0</ele><time>2026-05-02T10:47:17.19Z</time></trkpt><trkpt lat="43.7608472" lon="12.8206563"><ele>304.5</ele><time>2026-05-02T10:47:19.187Z</time></trkpt><trkpt lat="43.760883" lon="12.8205566"><ele>304.0</ele><time>2026-05-02T10:47:20.19Z</time></trkpt><trkpt lat="43.7609306" lon="12.8204682"><ele>303.5</ele><time>2026-05-02T10:47:21.185Z</time></trkpt><trkpt lat="43.760994" lon="12.8203926"><ele>303.0</ele><time>2026-05-02T10:47:22.195Z</time></trkpt><trkpt lat="43.7610673" lon="12.8203274"><ele>302.5</ele><time>2026-05-02T10:47:23.191Z</time></trkpt><trkpt lat="43.761155" lon="12.8202667"><ele>302.0</ele><time>2026-05-02T10:47:24.189Z</time></trkpt><trkpt lat="43.761241" lon="12.8202098"><ele>302.83333333333337</ele><time>2026-05-02T10:47:25.194Z</time></trkpt><trkpt lat="43.7613265" lon="12.8201778"><ele>303.6666666666667</ele><time>2026-05-02T10:47:26.191Z</time></trkpt><trkpt lat="43.7614154" lon="12.8201465"><ele>304.5</ele><time>2026-05-02T10:47:27.191Z</time></trkpt><trkpt lat="43.7614968" lon="12.8201035"><ele>305.3333333333333</ele><time>2026-05-02T10:47:28.194Z</time></trkpt><trkpt lat="43.7615755" lon="12.8200484"><ele>306.16666666666663</ele><time>2026-05-02T10:47:29.191Z</time></trkpt><trkpt lat="43.7616451" lon="12.8199745"><ele>307.0</ele><time>2026-05-02T10:47:30.191Z</time></trkpt><trkpt lat="43.7617007" lon="12.8198815"><ele>307.0</ele><time>2026-05-02T10:47:31.19Z</time></trkpt><trkpt lat="43.7617481" lon="12.8197613"><ele>307.0</ele><time>2026-05-02T10:47:32.188Z</time></trkpt><trkpt lat="43.7617845" lon="12.8196332"><ele>307.0</ele><time>2026-05-02T10:47:33.19Z</time></trkpt><trkpt lat="43.7618121" lon="12.8195114"><ele>307.0</ele><time>2026-05-02T10:47:34.19Z</time></trkpt><trkpt lat="43.7618355" lon="12.8193972"><ele>307.0</ele><time>2026-05-02T10:47:35.191Z</time></trkpt><trkpt lat="43.7618654" lon="12.8192882"><ele>308.71428571428567</ele><time>2026-05-02T10:47:36.187Z</time></trkpt><trkpt lat="43.7619035" lon="12.8191875"><ele>310.42857142857144</ele><time>2026-05-02T10:47:37.186Z</time></trkpt><trkpt lat="43.7619428" lon="12.8191001"><ele>312.1428571428571</ele><time>2026-05-02T10:47:38.193Z</time></trkpt><trkpt lat="43.7619894" lon="12.8190364"><ele>313.85714285714283</ele><time>2026-05-02T10:47:39.193Z</time></trkpt><trkpt lat="43.7620436" lon="12.8189904"><ele>315.57142857142856</ele><time>2026-05-02T10:47:40.189Z</time></trkpt><trkpt lat="43.7621038" lon="12.8189649"><ele>317.2857142857143</ele><time>2026-05-02T10:47:41.192Z</time></trkpt><trkpt lat="43.762178" lon="12.818954"><ele>319.0</ele><time>2026-05-02T10:47:42.191Z</time></trkpt><trkpt lat="43.7622583" lon="12.8189368"><ele>319.0</ele><time>2026-05-02T10:47:43.184Z</time></trkpt><trkpt lat="43.762347" lon="12.8189288"><ele>319.0</ele><time>2026-05-02T10:47:44.188Z</time></trkpt><trkpt lat="43.7624305" lon="12.81894"><ele>319.0</ele><time>2026-05-02T10:47:45.188Z</time></trkpt><trkpt lat="43.7625144" lon="12.8189753"><ele>319.0</ele><time>2026-05-02T10:47:46.189Z</time></trkpt><trkpt lat="43.7625956" lon="12.8190189"><ele>319.0</ele><time>2026-05-02T10:47:47.19Z</time></trkpt><trkpt lat="43.762677" lon="12.819053"><ele>319.0</ele><time>2026-05-02T10:47:48.192Z</time></trkpt><trkpt lat="43.7627653" lon="12.819077"><ele>321.5</ele><time>2026-05-02T10:47:49.187Z</time></trkpt><trkpt lat="43.7628521" lon="12.8190836"><ele>324.0</ele><time>2026-05-02T10:47:50.184Z</time></trkpt><trkpt lat="43.7629341" lon="12.8190883"><ele>326.5</ele><time>2026-05-02T10:47:51.188Z</time></trkpt><trkpt lat="43.7630097" lon="12.819076"><ele>329.0</ele><time>2026-05-02T10:47:52.177Z</time></trkpt><trkpt lat="43.7630789" lon="12.8190447"><ele>331.5</ele><time>2026-05-02T10:47:53.181Z</time></trkpt><trkpt lat="43.7631854" lon="12.8189916"><ele>334.0</ele><time>2026-05-02T10:47:55.185Z</time></trkpt><trkpt lat="43.7632577" lon="12.818993"><ele>334.0</ele><time>2026-05-02T10:47:56.181Z</time></trkpt><trkpt lat="43.7633456" lon="12.8190156"><ele>334.0</ele><time>2026-05-02T10:47:57.186Z</time></trkpt><trkpt lat="43.7634288" lon="12.8190617"><ele>334.0</ele><time>2026-05-02T10:47:58.191Z</time></trkpt><trkpt lat="43.7635025" lon="12.8191062"><ele>334.0</ele><time>2026-05-02T10:47:59.194Z</time></trkpt><trkpt lat="43.7635707" lon="12.8191714"><ele>334.0</ele><time>2026-05-02T10:48:00.19Z</time></trkpt><trkpt lat="43.7636393" lon="12.8192443"><ele>334.0</ele><time>2026-05-02T10:48:01.194Z</time></trkpt><trkpt lat="43.763712" lon="12.8193075"><ele>338.4</ele><time>2026-05-02T10:48:02.182Z</time></trkpt><trkpt lat="43.7637842" lon="12.8193693"><ele>342.79999999999995</ele><time>2026-05-02T10:48:03.184Z</time></trkpt><trkpt lat="43.763851" lon="12.8194493"><ele>347.20000000000005</ele><time>2026-05-02T10:48:04.187Z</time></trkpt><trkpt lat="43.7639264" lon="12.8195398"><ele>351.6</ele><time>2026-05-02T10:48:05.19Z</time></trkpt><trkpt lat="43.7640112" lon="12.8196373"><ele>356.0</ele><time>2026-05-02T10:48:06.19Z</time></trkpt><trkpt lat="43.7641058" lon="12.8197268"><ele>356.0</ele><time>2026-05-02T10:48:07.186Z</time></trkpt><trkpt lat="43.7642047" lon="12.8198046"><ele>356.0</ele><time>2026-05-02T10:48:08.186Z</time></trkpt><trkpt lat="43.764305" lon="12.8198701"><ele>356.0</ele><time>2026-05-02T10:48:09.188Z</time></trkpt><trkpt lat="43.7644016" lon="12.8199284"><ele>356.0</ele><time>2026-05-02T10:48:10.186Z</time></trkpt><trkpt lat="43.7644962" lon="12.8199744"><ele>356.0</ele><time>2026-05-02T10:48:11.184Z</time></trkpt><trkpt lat="43.7645929" lon="12.8199921"><ele>358.0</ele><time>2026-05-02T10:48:12.19Z</time></trkpt><trkpt lat="43.7646801" lon="12.8199744"><ele>360.0</ele><time>2026-05-02T10:48:13.182Z</time></trkpt><trkpt lat="43.7647481" lon="12.8199522"><ele>362.0</ele><time>2026-05-02T10:48:14.194Z</time></trkpt><trkpt lat="43.7648368" lon="12.8199179"><ele>364.0</ele><time>2026-05-02T10:48:16.186Z</time></trkpt><trkpt lat="43.7648987" lon="12.8198942"><ele>366.0</ele><time>2026-05-02T10:48:18.189Z</time></trkpt><trkpt lat="43.7649668" lon="12.8198695"><ele>368.0</ele><time>2026-05-02T10:48:20.193Z</time></trkpt><trkpt lat="43.7650644" lon="12.8198528"><ele>368.0</ele><time>2026-05-02T10:48:22.192Z</time></trkpt><trkpt lat="43.7651765" lon="12.8198287"><ele>368.0</ele><time>2026-05-02T10:48:24.195Z</time></trkpt><trkpt lat="43.7652841" lon="12.8198011"><ele>368.0</ele><time>2026-05-02T10:48:26.19Z</time></trkpt><trkpt lat="43.7653904" lon="12.819773"><ele>368.0</ele><time>2026-05-02T10:48:28.192Z</time></trkpt><trkpt lat="43.7654784" lon="12.8197252"><ele>368.0</ele><time>2026-05-02T10:48:30.185Z</time></trkpt><trkpt lat="43.7655032" lon="12.8195883"><ele>372.0</ele><time>2026-05-02T10:48:32.175Z</time></trkpt><trkpt lat="43.7654864" lon="12.8194881"><ele>376.0</ele><time>2026-05-02T10:48:33.181Z</time></trkpt><trkpt lat="43.7654667" lon="12.8193764"><ele>380.0</ele><time>2026-05-02T10:48:34.181Z</time></trkpt><trkpt lat="43.7654442" lon="12.8192628"><ele>384.0</ele><time>2026-05-02T10:48:35.186Z</time></trkpt><trkpt lat="43.7654249" lon="12.8191576"><ele>387.99999999999994</ele><time>2026-05-02T10:48:36.182Z</time></trkpt><trkpt lat="43.7654027" lon="12.8190565"><ele>392.0</ele><time>2026-05-02T10:48:37.179Z</time></trkpt><trkpt lat="43.7653778" lon="12.8189557"><ele>392.3333333333333</ele><time>2026-05-02T10:48:38.17Z</time></trkpt><trkpt lat="43.76536" lon="12.8188581"><ele>392.66666666666663</ele><time>2026-05-02T10:48:39.177Z</time></trkpt><trkpt lat="43.7653416" lon="12.8187604"><ele>393.0</ele><time>2026-05-02T10:48:40.179Z</time></trkpt><trkpt lat="43.7653289" lon="12.8186621"><ele>393.33333333333337</ele><time>2026-05-02T10:48:41.185Z</time></trkpt><trkpt lat="43.7653246" lon="12.8185625"><ele>393.6666666666667</ele><time>2026-05-02T10:48:42.189Z</time></trkpt><trkpt lat="43.7653197" lon="12.8184556"><ele>394.0</ele><time>2026-05-02T10:48:43.191Z</time></trkpt><trkpt lat="43.7653126" lon="12.8183372"><ele>394.83333333333337</ele><time>2026-05-02T10:48:44.195Z</time></trkpt><trkpt lat="43.765305" lon="12.8182238"><ele>395.6666666666667</ele><time>2026-05-02T10:48:45.195Z</time></trkpt><trkpt lat="43.7652884" lon="12.8181163"><ele>396.5</ele><time>2026-05-02T10:48:46.195Z</time></trkpt><trkpt lat="43.765277" lon="12.8180238"><ele>397.33333333333337</ele><time>2026-05-02T10:48:47.196Z</time></trkpt><trkpt lat="43.7652914" lon="12.8178726"><ele>398.1666666666667</ele><time>2026-05-02T10:48:49.194Z</time></trkpt><trkpt lat="43.7653916" lon="12.8178314"><ele>399.0</ele><time>2026-05-02T10:48:51.193Z</time></trkpt><trkpt lat="43.7654796" lon="12.8178532"><ele>399.0</ele><time>2026-05-02T10:48:52.195Z</time></trkpt><trkpt lat="43.765576" lon="12.8178723"><ele>399.0</ele><time>2026-05-02T10:48:53.197Z</time></trkpt><trkpt lat="43.7656642" lon="12.8178753"><ele>399.0</ele><time>2026-05-02T10:48:54.19Z</time></trkpt><trkpt lat="43.7657466" lon="12.8178628"><ele>399.0</ele><time>2026-05-02T10:48:55.195Z</time></trkpt><trkpt lat="43.7658089" lon="12.8178338"><ele>399.0</ele><time>2026-05-02T10:48:56.195Z</time></trkpt><trkpt lat="43.7658588" lon="12.8177653"><ele>399.0</ele><time>2026-05-02T10:48:58.19Z</time></trkpt><trkpt lat="43.7659003" lon="12.8176824"><ele>399.0</ele><time>2026-05-02T10:49:02.191Z</time></trkpt><trkpt lat="43.7659445" lon="12.8175518"><ele>399.0</ele><time>2026-05-02T10:49:05.19Z</time></trkpt><trkpt lat="43.765978" lon="12.8174381"><ele>399.0</ele><time>2026-05-02T10:49:07.188Z</time></trkpt><trkpt lat="43.7660069" lon="12.8173092"><ele>399.0</ele><time>2026-05-02T10:49:09.18Z</time></trkpt><trkpt lat="43.7660891" lon="12.8172321"><ele>399.0</ele><time>2026-05-02T10:49:11.182Z</time></trkpt><trkpt lat="43.7662251" lon="12.8172408"><ele>402.6666666666667</ele><time>2026-05-02T10:49:13.186Z</time></trkpt><trkpt lat="43.7663072" lon="12.8172566"><ele>406.33333333333337</ele><time>2026-05-02T10:49:14.183Z</time></trkpt><trkpt lat="43.7663898" lon="12.8172661"><ele>410.0</ele><time>2026-05-02T10:49:15.177Z</time></trkpt><trkpt lat="43.7664653" lon="12.8172612"><ele>413.6666666666667</ele><time>2026-05-02T10:49:16.186Z</time></trkpt><trkpt lat="43.7665663" lon="12.8171957"><ele>417.33333333333337</ele><time>2026-05-02T10:49:18.18Z</time></trkpt><trkpt lat="43.7666379" lon="12.8171407"><ele>421.0</ele><time>2026-05-02T10:49:20.177Z</time></trkpt><trkpt lat="43.7666992" lon="12.8172177"><ele>421.0</ele><time>2026-05-02T10:49:22.176Z</time></trkpt><trkpt lat="43.7667812" lon="12.817381"><ele>421.0</ele><time>2026-05-02T10:49:24.178Z</time></trkpt><trkpt lat="43.7668407" lon="12.8174959"><ele>421.0</ele><time>2026-05-02T10:49:25.172Z</time></trkpt><trkpt lat="43.7668783" lon="12.8176124"><ele>421.0</ele><time>2026-05-02T10:49:26.177Z</time></trkpt><trkpt lat="43.7668792" lon="12.8177601"><ele>421.0</ele><time>2026-05-02T10:49:27.174Z</time></trkpt><trkpt lat="43.7668317" lon="12.8179167"><ele>421.75</ele><time>2026-05-02T10:49:28.169Z</time></trkpt><trkpt lat="43.7667595" lon="12.8180677"><ele>422.5</ele><time>2026-05-02T10:49:29.174Z</time></trkpt><trkpt lat="43.7666845" lon="12.8182153"><ele>423.25</ele><time>2026-05-02T10:49:30.17Z</time></trkpt><trkpt lat="43.766608" lon="12.8183529"><ele>424.0</ele><time>2026-05-02T10:49:31.169Z</time></trkpt><trkpt lat="43.7665597" lon="12.8184836"><ele>425.6</ele><time>2026-05-02T10:49:32.175Z</time></trkpt><trkpt lat="43.7665321" lon="12.8186164"><ele>427.2</ele><time>2026-05-02T10:49:33.173Z</time></trkpt><trkpt lat="43.7665163" lon="12.8187506"><ele>428.80000000000007</ele><time>2026-05-02T10:49:34.181Z</time></trkpt><trkpt lat="43.7665159" lon="12.8189023"><ele>430.40000000000003</ele><time>2026-05-02T10:49:35.175Z</time></trkpt><trkpt lat="43.7665435" lon="12.8190667"><ele>432.0</ele><time>2026-05-02T10:49:36.176Z</time></trkpt><trkpt lat="43.7665618" lon="12.8192251"><ele>431.20000000000005</ele><time>2026-05-02T10:49:37.182Z</time></trkpt><trkpt lat="43.7665725" lon="12.8193923"><ele>430.40000000000003</ele><time>2026-05-02T10:49:38.174Z</time></trkpt><trkpt lat="43.7665735" lon="12.8195512"><ele>429.59999999999997</ele><time>2026-05-02T10:49:39.172Z</time></trkpt><trkpt lat="43.7665645" lon="12.8196811"><ele>428.79999999999995</ele><time>2026-05-02T10:49:40.179Z</time></trkpt><trkpt lat="43.7665598" lon="12.8197853"><ele>428.0</ele><time>2026-05-02T10:49:41.178Z</time></trkpt><trkpt lat="43.7666055" lon="12.8199272"><ele>427.99999999999994</ele><time>2026-05-02T10:49:43.184Z</time></trkpt><trkpt lat="43.7666594" lon="12.8199746"><ele>428.0</ele><time>2026-05-02T10:49:44.191Z</time></trkpt><trkpt lat="43.7667647" lon="12.8200306"><ele>428.0</ele><time>2026-05-02T10:49:46.189Z</time></trkpt><trkpt lat="43.7668391" lon="12.8200129"><ele>428.0</ele><time>2026-05-02T10:49:50.185Z</time></trkpt><trkpt lat="43.7668222" lon="12.8198767"><ele>427.99999999999994</ele><time>2026-05-02T10:49:52.183Z</time></trkpt><trkpt lat="43.7667987" lon="12.8197863"><ele>428.0</ele><time>2026-05-02T10:49:53.189Z</time></trkpt><trkpt lat="43.7667711" lon="12.8196901"><ele>428.0</ele><time>2026-05-02T10:49:54.181Z</time></trkpt><trkpt lat="43.7667474" lon="12.8195739"><ele>427.99999999999994</ele><time>2026-05-02T10:49:55.192Z</time></trkpt><trkpt lat="43.7667329" lon="12.8194438"><ele>427.99999999999994</ele><time>2026-05-02T10:49:56.186Z</time></trkpt><trkpt lat="43.7667287" lon="12.8192994"><ele>428.0</ele><time>2026-05-02T10:49:57.185Z</time></trkpt><trkpt lat="43.7667346" lon="12.8191399"><ele>428.0</ele><time>2026-05-02T10:49:58.185Z</time></trkpt><trkpt lat="43.7667547" lon="12.8189727"><ele>429.0</ele><time>2026-05-02T10:49:59.189Z</time></trkpt><trkpt lat="43.7667871" lon="12.8188074"><ele>430.0</ele><time>2026-05-02T10:50:00.181Z</time></trkpt><trkpt lat="43.7668393" lon="12.8186456"><ele>431.0</ele><time>2026-05-02T10:50:01.187Z</time></trkpt><trkpt lat="43.7669165" lon="12.818487"><ele>432.0</ele><time>2026-05-02T10:50:02.183Z</time></trkpt><trkpt lat="43.7670011" lon="12.8183245"><ele>437.75</ele><time>2026-05-02T10:50:03.187Z</time></trkpt><trkpt lat="43.7670852" lon="12.818163"><ele>443.5</ele><time>2026-05-02T10:50:04.189Z</time></trkpt><trkpt lat="43.7671669" lon="12.8179948"><ele>449.25</ele><time>2026-05-02T10:50:05.186Z</time></trkpt><trkpt lat="43.7672309" lon="12.8178241"><ele>455.0</ele><time>2026-05-02T10:50:06.181Z</time></trkpt><trkpt lat="43.7672696" lon="12.8176332"><ele>455.75</ele><time>2026-05-02T10:50:07.176Z</time></trkpt><trkpt lat="43.767273" lon="12.8174466"><ele>456.5</ele><time>2026-05-02T10:50:08.187Z</time></trkpt><trkpt lat="43.7672221" lon="12.8172547"><ele>457.25</ele><time>2026-05-02T10:50:09.184Z</time></trkpt><trkpt lat="43.7671728" lon="12.8170681"><ele>458.0</ele><time>2026-05-02T10:50:10.173Z</time></trkpt><trkpt lat="43.7671265" lon="12.816887"><ele>462.3333333333333</ele><time>2026-05-02T10:50:11.17Z</time></trkpt><trkpt lat="43.7670819" lon="12.8166977"><ele>466.66666666666663</ele><time>2026-05-02T10:50:12.174Z</time></trkpt><trkpt lat="43.7670819" lon="12.8164818"><ele>471.0</ele><time>2026-05-02T10:50:13.18Z</time></trkpt><trkpt lat="43.7670982" lon="12.8162661"><ele>471.0</ele><time>2026-05-02T10:50:14.175Z</time></trkpt><trkpt lat="43.7670769" lon="12.8160592"><ele>471.0</ele><time>2026-05-02T10:50:15.18Z</time></trkpt><trkpt lat="43.7670262" lon="12.815845"><ele>471.0</ele><time>2026-05-02T10:50:16.174Z</time></trkpt><trkpt lat="43.766966" lon="12.8156521"><ele>472.0</ele><time>2026-05-02T10:50:17.183Z</time></trkpt><trkpt lat="43.766922" lon="12.8154452"><ele>473.0</ele><time>2026-05-02T10:50:18.184Z</time></trkpt><trkpt lat="43.7668972" lon="12.8152292"><ele>474.0</ele><time>2026-05-02T10:50:19.181Z</time></trkpt><trkpt lat="43.7668811" lon="12.8150007"><ele>467.33333333333337</ele><time>2026-05-02T10:50:20.181Z</time></trkpt><trkpt lat="43.7668471" lon="12.8147945"><ele>460.6666666666667</ele><time>2026-05-02T10:50:21.177Z</time></trkpt><trkpt lat="43.7667746" lon="12.8145994"><ele>454.0</ele><time>2026-05-02T10:50:22.181Z</time></trkpt><trkpt lat="43.7666831" lon="12.8144241"><ele>459.6666666666667</ele><time>2026-05-02T10:50:23.178Z</time></trkpt><trkpt lat="43.7665537" lon="12.8142838"><ele>465.33333333333337</ele><time>2026-05-02T10:50:24.176Z</time></trkpt><trkpt lat="43.7664319" lon="12.8141309"><ele>471.0</ele><time>2026-05-02T10:50:25.181Z</time></trkpt><trkpt lat="43.766322" lon="12.8139778"><ele>471.0</ele><time>2026-05-02T10:50:26.184Z</time></trkpt><trkpt lat="43.7662442" lon="12.8137922"><ele>471.0</ele><time>2026-05-02T10:50:27.179Z</time></trkpt><trkpt lat="43.7661725" lon="12.8136317"><ele>471.0</ele><time>2026-05-02T10:50:28.19Z</time></trkpt><trkpt lat="43.7661054" lon="12.8135064"><ele>471.0</ele><time>2026-05-02T10:50:29.191Z</time></trkpt><trkpt lat="43.7660288" lon="12.813426"><ele>470.0</ele><time>2026-05-02T10:50:30.185Z</time></trkpt><trkpt lat="43.7659469" lon="12.8134073"><ele>469.0</ele><time>2026-05-02T10:50:31.192Z</time></trkpt><trkpt lat="43.7658592" lon="12.8133826"><ele>468.0</ele><time>2026-05-02T10:50:33.192Z</time></trkpt><trkpt lat="43.7658816" lon="12.8132858"><ele>467.0</ele><time>2026-05-02T10:50:36.194Z</time></trkpt><trkpt lat="43.7659834" lon="12.8133125"><ele>466.0</ele><time>2026-05-02T10:50:38.2Z</time></trkpt><trkpt lat="43.7660569" lon="12.8133445"><ele>465.0</ele><time>2026-05-02T10:50:39.203Z</time></trkpt><trkpt lat="43.7661458" lon="12.8133889"><ele>466.2</ele><time>2026-05-02T10:50:40.203Z</time></trkpt><trkpt lat="43.7662372" lon="12.8134432"><ele>467.4</ele><time>2026-05-02T10:50:41.207Z</time></trkpt><trkpt lat="43.7663302" lon="12.8135122"><ele>468.6</ele><time>2026-05-02T10:50:42.203Z</time></trkpt><trkpt lat="43.7664205" lon="12.8135876"><ele>469.8</ele><time>2026-05-02T10:50:43.209Z</time></trkpt><trkpt lat="43.7665211" lon="12.8136582"><ele>471.0</ele><time>2026-05-02T10:50:44.206Z</time></trkpt><trkpt lat="43.7666227" lon="12.8137132"><ele>471.0</ele><time>2026-05-02T10:50:45.213Z</time></trkpt><trkpt lat="43.7667336" lon="12.8137555"><ele>471.0</ele><time>2026-05-02T10:50:46.21Z</time></trkpt><trkpt lat="43.7668459" lon="12.813792"><ele>471.0</ele><time>2026-05-02T10:50:47.217Z</time></trkpt><trkpt lat="43.7669568" lon="12.8138254"><ele>471.0</ele><time>2026-05-02T10:50:48.204Z</time></trkpt><trkpt lat="43.7670634" lon="12.8138578"><ele>475.20000000000005</ele><time>2026-05-02T10:50:49.2Z</time></trkpt><trkpt lat="43.7671661" lon="12.8139026"><ele>479.40000000000003</ele><time>2026-05-02T10:50:50.198Z</time></trkpt><trkpt lat="43.7672673" lon="12.8139585"><ele>483.6</ele><time>2026-05-02T10:50:51.199Z</time></trkpt><trkpt lat="43.7673657" lon="12.8140196"><ele>487.8</ele><time>2026-05-02T10:50:52.2Z</time></trkpt><trkpt lat="43.7674658" lon="12.8140863"><ele>492.0</ele><time>2026-05-02T10:50:53.195Z</time></trkpt><trkpt lat="43.7675734" lon="12.8141509"><ele>492.0</ele><time>2026-05-02T10:50:54.197Z</time></trkpt><trkpt lat="43.7676851" lon="12.8142124"><ele>492.0</ele><time>2026-05-02T10:50:55.188Z</time></trkpt><trkpt lat="43.7677938" lon="12.8142628"><ele>492.0</ele><time>2026-05-02T10:50:56.196Z</time></trkpt><trkpt lat="43.7678926" lon="12.8143328"><ele>492.0</ele><time>2026-05-02T10:50:57.195Z</time></trkpt><trkpt lat="43.7679826" lon="12.8144318"><ele>497.0</ele><time>2026-05-02T10:50:58.181Z</time></trkpt><trkpt lat="43.7680655" lon="12.8145552"><ele>502.0</ele><time>2026-05-02T10:50:59.192Z</time></trkpt><trkpt lat="43.7681192" lon="12.814718"><ele>507.0</ele><time>2026-05-02T10:51:00.185Z</time></trkpt><trkpt lat="43.7681566" lon="12.8148885"><ele>512.0</ele><time>2026-05-02T10:51:01.181Z</time></trkpt><trkpt lat="43.7681788" lon="12.8150607"><ele>512.5</ele><time>2026-05-02T10:51:02.176Z</time></trkpt><trkpt lat="43.7681908" lon="12.8152198"><ele>513.0</ele><time>2026-05-02T10:51:03.188Z</time></trkpt><trkpt lat="43.7681935" lon="12.8153584"><ele>513.5</ele><time>2026-05-02T10:51:04.197Z</time></trkpt><trkpt lat="43.76818" lon="12.8154555"><ele>514.0</ele><time>2026-05-02T10:51:05.169Z</time></trkpt><trkpt lat="43.7681495" lon="12.8155385"><ele>514.5</ele><time>2026-05-02T10:51:07.182Z</time></trkpt><trkpt lat="43.7681274" lon="12.815445"><ele>515.0</ele><time>2026-05-02T10:51:45.274Z</time></trkpt><trkpt lat="43.7680673" lon="12.8154719"><ele>515.0</ele><time>2026-05-02T10:51:53.189Z</time></trkpt><trkpt lat="43.7680219" lon="12.8155421"><ele>515.0</ele><time>2026-05-02T10:51:54.184Z</time></trkpt><trkpt lat="43.7679639" lon="12.8156227"><ele>515.0</ele><time>2026-05-02T10:51:55.192Z</time></trkpt><trkpt lat="43.7679087" lon="12.8156935"><ele>515.0</ele><time>2026-05-02T10:51:56.194Z</time></trkpt><trkpt lat="43.7678702" lon="12.8157689"><ele>515.0</ele><time>2026-05-02T10:52:12.242Z</time></trkpt><trkpt lat="43.7678963" lon="12.8156893"><ele>515.0</ele><time>2026-05-02T10:52:25.186Z</time></trkpt><trkpt lat="43.7679809" lon="12.8155627"><ele>515.0</ele><time>2026-05-02T10:52:27.192Z</time></trkpt><trkpt lat="43.7680334" lon="12.8154938"><ele>515.0</ele><time>2026-05-02T10:52:28.193Z</time></trkpt><trkpt lat="43.7680719" lon="12.8154245"><ele>515.0</ele><time>2026-05-02T10:52:29.196Z</time></trkpt><trkpt lat="43.7681064" lon="12.815531"><ele>515.0</ele><time>2026-05-02T10:52:36.191Z</time></trkpt><trkpt lat="43.7680797" lon="12.8156867"><ele>515.0</ele><time>2026-05-02T10:52:38.184Z</time></trkpt><trkpt lat="43.7680532" lon="12.8157831"><ele>515.0</ele><time>2026-05-02T10:52:39.186Z</time></trkpt><trkpt lat="43.7680163" lon="12.8158817"><ele>515.0</ele><time>2026-05-02T10:52:40.18Z</time></trkpt><trkpt lat="43.7679801" lon="12.8159722"><ele>515.0</ele><time>2026-05-02T10:52:41.187Z</time></trkpt><trkpt lat="43.7679639" lon="12.8160594"><ele>515.0</ele><time>2026-05-02T10:52:42.189Z</time></trkpt><trkpt lat="43.7679631" lon="12.8161479"><ele>515.0</ele><time>2026-05-02T10:52:43.186Z</time></trkpt><trkpt lat="43.7680168" lon="12.8163246"><ele>515.0</ele><time>2026-05-02T10:52:45.187Z</time></trkpt><trkpt lat="43.7680697" lon="12.8164186"><ele>515.0</ele><time>2026-05-02T10:52:46.192Z</time></trkpt><trkpt lat="43.7681255" lon="12.8164994"><ele>514.3333333333333</ele><time>2026-05-02T10:52:47.195Z</time></trkpt><trkpt lat="43.7681811" lon="12.8165671"><ele>513.6666666666666</ele><time>2026-05-02T10:52:48.19Z</time></trkpt><trkpt lat="43.7682299" lon="12.8166449"><ele>513.0</ele><time>2026-05-02T10:52:49.198Z</time></trkpt><trkpt lat="43.7682789" lon="12.8167269"><ele>512.3333333333334</ele><time>2026-05-02T10:52:50.193Z</time></trkpt><trkpt lat="43.7683315" lon="12.8168093"><ele>511.6666666666667</ele><time>2026-05-02T10:52:51.188Z</time></trkpt><trkpt lat="43.7683895" lon="12.8168955"><ele>511.0</ele><time>2026-05-02T10:52:52.193Z</time></trkpt><trkpt lat="43.7684523" lon="12.8169707"><ele>512.8</ele><time>2026-05-02T10:52:53.188Z</time></trkpt><trkpt lat="43.7685515" lon="12.8170767"><ele>514.6</ele><time>2026-05-02T10:52:55.2Z</time></trkpt><trkpt lat="43.7686727" lon="12.8171101"><ele>516.4</ele><time>2026-05-02T10:52:57.202Z</time></trkpt><trkpt lat="43.7687374" lon="12.8171215"><ele>518.2</ele><time>2026-05-02T10:52:58.203Z</time></trkpt><trkpt lat="43.7688024" lon="12.8171602"><ele>520.0</ele><time>2026-05-02T10:52:59.205Z</time></trkpt><trkpt lat="43.7688592" lon="12.8172078"><ele>520.0000000000001</ele><time>2026-05-02T10:53:00.206Z</time></trkpt><trkpt lat="43.7689163" lon="12.8172604"><ele>520.0</ele><time>2026-05-02T10:53:01.194Z</time></trkpt><trkpt lat="43.7689697" lon="12.8173185"><ele>520.0</ele><time>2026-05-02T10:53:02.191Z</time></trkpt><trkpt lat="43.7690113" lon="12.817393"><ele>520.0</ele><time>2026-05-02T10:53:03.192Z</time></trkpt><trkpt lat="43.7690478" lon="12.8174816"><ele>520.0</ele><time>2026-05-02T10:53:04.194Z</time></trkpt><trkpt lat="43.7690783" lon="12.8175682"><ele>520.0000000000001</ele><time>2026-05-02T10:53:05.2Z</time></trkpt><trkpt lat="43.7691028" lon="12.8176496"><ele>520.0</ele><time>2026-05-02T10:53:06.192Z</time></trkpt><trkpt lat="43.7691192" lon="12.8177362"><ele>518.6666666666667</ele><time>2026-05-02T10:53:07.201Z</time></trkpt><trkpt lat="43.7691248" lon="12.817831"><ele>517.3333333333334</ele><time>2026-05-02T10:53:08.197Z</time></trkpt><trkpt lat="43.7691255" lon="12.8179307"><ele>516.0</ele><time>2026-05-02T10:53:09.2Z</time></trkpt><trkpt lat="43.769117" lon="12.8180285"><ele>514.6666666666666</ele><time>2026-05-02T10:53:10.203Z</time></trkpt><trkpt lat="43.7690952" lon="12.8181507"><ele>513.3333333333333</ele><time>2026-05-02T10:53:12.204Z</time></trkpt><trkpt lat="43.7690494" lon="12.818231"><ele>512.0</ele><time>2026-05-02T10:53:31.244Z</time></trkpt><trkpt lat="43.7690108" lon="12.8184278"><ele>513.2</ele><time>2026-05-02T10:53:33.195Z</time></trkpt><trkpt lat="43.7689957" lon="12.818567"><ele>514.4000000000001</ele><time>2026-05-02T10:53:34.193Z</time></trkpt><trkpt lat="43.7689839" lon="12.8187225"><ele>515.5999999999999</ele><time>2026-05-02T10:53:35.2Z</time></trkpt><trkpt lat="43.7689771" lon="12.8188838"><ele>516.8</ele><time>2026-05-02T10:53:36.191Z</time></trkpt><trkpt lat="43.7689882" lon="12.8190353"><ele>518.0</ele><time>2026-05-02T10:53:37.197Z</time></trkpt><trkpt lat="43.7690257" lon="12.8191777"><ele>518.0</ele><time>2026-05-02T10:53:38.201Z</time></trkpt><trkpt lat="43.7690866" lon="12.8193091"><ele>518.0</ele><time>2026-05-02T10:53:39.201Z</time></trkpt><trkpt lat="43.7691523" lon="12.819432"><ele>518.0</ele><time>2026-05-02T10:53:40.199Z</time></trkpt><trkpt lat="43.7691995" lon="12.8195516"><ele>518.0</ele><time>2026-05-02T10:53:41.199Z</time></trkpt><trkpt lat="43.7692273" lon="12.819656"><ele>518.0</ele><time>2026-05-02T10:53:42.207Z</time></trkpt><trkpt lat="43.7692491" lon="12.819746"><ele>518.1999999999999</ele><time>2026-05-02T10:53:43.199Z</time></trkpt><trkpt lat="43.7692994" lon="12.8198559"><ele>518.4</ele><time>2026-05-02T10:53:45.2Z</time></trkpt><trkpt lat="43.7693282" lon="12.819972"><ele>518.5999999999999</ele><time>2026-05-02T10:53:47.197Z</time></trkpt><trkpt lat="43.769341" lon="12.8201492"><ele>518.8</ele><time>2026-05-02T10:53:49.204Z</time></trkpt><trkpt lat="43.7693592" lon="12.8202488"><ele>519.0</ele><time>2026-05-02T10:53:50.2Z</time></trkpt><trkpt lat="43.7693866" lon="12.8203488"><ele>513.8333333333334</ele><time>2026-05-02T10:53:51.203Z</time></trkpt><trkpt lat="43.769413" lon="12.8204492"><ele>508.66666666666663</ele><time>2026-05-02T10:53:52.201Z</time></trkpt><trkpt lat="43.7694407" lon="12.8205419"><ele>503.5</ele><time>2026-05-02T10:53:53.203Z</time></trkpt><trkpt lat="43.7694654" lon="12.8206325"><ele>498.3333333333333</ele><time>2026-05-02T10:53:54.195Z</time></trkpt><trkpt lat="43.7695011" lon="12.8207917"><ele>493.16666666666663</ele><time>2026-05-02T10:53:56.2Z</time></trkpt><trkpt lat="43.7695307" lon="12.8209305"><ele>488.0</ele><time>2026-05-02T10:53:58.203Z</time></trkpt><trkpt lat="43.7695489" lon="12.8210291"><ele>486.8333333333333</ele><time>2026-05-02T10:53:59.202Z</time></trkpt><trkpt lat="43.7695685" lon="12.8211529"><ele>485.66666666666663</ele><time>2026-05-02T10:54:00.197Z</time></trkpt><trkpt lat="43.7695817" lon="12.8212793"><ele>484.5</ele><time>2026-05-02T10:54:01.202Z</time></trkpt><trkpt lat="43.7695922" lon="12.821397"><ele>483.33333333333337</ele><time>2026-05-02T10:54:02.206Z</time></trkpt><trkpt lat="43.7696027" lon="12.8215072"><ele>482.1666666666667</ele><time>2026-05-02T10:54:03.198Z</time></trkpt><trkpt lat="43.7696199" lon="12.8216081"><ele>481.0</ele><time>2026-05-02T10:54:04.202Z</time></trkpt><trkpt lat="43.7696425" lon="12.8217042"><ele>481.00000000000006</ele><time>2026-05-02T10:54:05.2Z</time></trkpt><trkpt lat="43.7696706" lon="12.8217931"><ele>481.0</ele><time>2026-05-02T10:54:06.2Z</time></trkpt><trkpt lat="43.769702" lon="12.8218738"><ele>481.0</ele><time>2026-05-02T10:54:07.191Z</time></trkpt><trkpt lat="43.7697342" lon="12.8219652"><ele>481.0</ele><time>2026-05-02T10:54:08.198Z</time></trkpt><trkpt lat="43.7697444" lon="12.8220609"><ele>481.00000000000006</ele><time>2026-05-02T10:54:09.205Z</time></trkpt><trkpt lat="43.7696893" lon="12.8222117"><ele>481.0</ele><time>2026-05-02T10:54:11.199Z</time></trkpt><trkpt lat="43.7696255" lon="12.8222639"><ele>480.83333333333337</ele><time>2026-05-02T10:54:12.203Z</time></trkpt><trkpt lat="43.7695633" lon="12.8223146"><ele>480.6666666666667</ele><time>2026-05-02T10:54:13.196Z</time></trkpt><trkpt lat="43.7694979" lon="12.8223635"><ele>480.5</ele><time>2026-05-02T10:54:14.197Z</time></trkpt><trkpt lat="43.7694252" lon="12.8224023"><ele>480.33333333333337</ele><time>2026-05-02T10:54:15.202Z</time></trkpt><trkpt lat="43.7693596" lon="12.822434"><ele>480.1666666666667</ele><time>2026-05-02T10:54:16.202Z</time></trkpt><trkpt lat="43.7692424" lon="12.8224139"><ele>480.0</ele><time>2026-05-02T10:54:18.202Z</time></trkpt><trkpt lat="43.7691845" lon="12.822374"><ele>480.0</ele><time>2026-05-02T10:54:19.2Z</time></trkpt><trkpt lat="43.7690975" lon="12.822359"><ele>480.0</ele><time>2026-05-02T10:54:21.198Z</time></trkpt><trkpt lat="43.7691123" lon="12.8224578"><ele>480.0</ele><time>2026-05-02T10:54:23.185Z</time></trkpt><trkpt lat="43.7691726" lon="12.8225658"><ele>480.0</ele><time>2026-05-02T10:54:25.196Z</time></trkpt><trkpt lat="43.769251" lon="12.8226662"><ele>480.0</ele><time>2026-05-02T10:54:27.201Z</time></trkpt><trkpt lat="43.7693635" lon="12.8227104"><ele>478.6</ele><time>2026-05-02T10:54:29.205Z</time></trkpt><trkpt lat="43.769463" lon="12.8226092"><ele>477.2</ele><time>2026-05-02T10:54:31.199Z</time></trkpt><trkpt lat="43.7695707" lon="12.8225917"><ele>475.79999999999995</ele><time>2026-05-02T10:54:33.199Z</time></trkpt><trkpt lat="43.7696228" lon="12.8226426"><ele>474.4</ele><time>2026-05-02T10:54:34.188Z</time></trkpt><trkpt lat="43.7696702" lon="12.8227087"><ele>473.0</ele><time>2026-05-02T10:54:35.19Z</time></trkpt><trkpt lat="43.7697437" lon="12.8228125"><ele>470.66666666666663</ele><time>2026-05-02T10:54:37.19Z</time></trkpt><trkpt lat="43.7698452" lon="12.8227922"><ele>468.3333333333333</ele><time>2026-05-02T10:54:39.195Z</time></trkpt><trkpt lat="43.7699029" lon="12.8227435"><ele>466.0</ele><time>2026-05-02T10:54:40.19Z</time></trkpt><trkpt lat="43.7699925" lon="12.822679"><ele>463.66666666666663</ele><time>2026-05-02T10:54:42.189Z</time></trkpt><trkpt lat="43.7700423" lon="12.822776"><ele>461.3333333333333</ele><time>2026-05-02T10:54:46.199Z</time></trkpt><trkpt lat="43.7700661" lon="12.8228784"><ele>459.0</ele><time>2026-05-02T10:54:48.197Z</time></trkpt><trkpt lat="43.7700939" lon="12.8229905"><ele>459.0</ele><time>2026-05-02T10:54:50.192Z</time></trkpt><trkpt lat="43.7701373" lon="12.823087"><ele>459.0</ele><time>2026-05-02T10:54:52.189Z</time></trkpt><trkpt lat="43.7701863" lon="12.8232043"><ele>459.0</ele><time>2026-05-02T10:54:54.19Z</time></trkpt><trkpt lat="43.7702342" lon="12.8233433"><ele>459.0</ele><time>2026-05-02T10:54:56.194Z</time></trkpt><trkpt lat="43.7702552" lon="12.8235021"><ele>459.0</ele><time>2026-05-02T10:54:58.194Z</time></trkpt><trkpt lat="43.7702821" lon="12.823663"><ele>456.0</ele><time>2026-05-02T10:55:00.188Z</time></trkpt><trkpt lat="43.7703352" lon="12.8238069"><ele>453.0</ele><time>2026-05-02T10:55:02.185Z</time></trkpt><trkpt lat="43.7704219" lon="12.8239264"><ele>450.0</ele><time>2026-05-02T10:55:04.185Z</time></trkpt><trkpt lat="43.7704781" lon="12.823981"><ele>447.0</ele><time>2026-05-02T10:55:05.183Z</time></trkpt><trkpt lat="43.7705424" lon="12.8240175"><ele>444.0</ele><time>2026-05-02T10:55:06.19Z</time></trkpt><trkpt lat="43.7706729" lon="12.8240861"><ele>444.0</ele><time>2026-05-02T10:55:08.182Z</time></trkpt><trkpt lat="43.7707416" lon="12.8241252"><ele>444.0</ele><time>2026-05-02T10:55:09.18Z</time></trkpt><trkpt lat="43.7708016" lon="12.8241633"><ele>444.0</ele><time>2026-05-02T10:55:10.186Z</time></trkpt><trkpt lat="43.7708963" lon="12.8242451"><ele>444.0</ele><time>2026-05-02T10:55:12.191Z</time></trkpt><trkpt lat="43.7709655" lon="12.8242963"><ele>444.0</ele><time>2026-05-02T10:55:15.2Z</time></trkpt><trkpt lat="43.7710498" lon="12.8243643"><ele>444.0</ele><time>2026-05-02T10:55:18.191Z</time></trkpt><trkpt lat="43.7711201" lon="12.8244276"><ele>440.4</ele><time>2026-05-02T10:55:20.199Z</time></trkpt><trkpt lat="43.7711911" lon="12.8245198"><ele>436.79999999999995</ele><time>2026-05-02T10:55:23.198Z</time></trkpt><trkpt lat="43.7712702" lon="12.8245956"><ele>433.20000000000005</ele><time>2026-05-02T10:55:25.193Z</time></trkpt><trkpt lat="43.7713664" lon="12.8246774"><ele>429.6</ele><time>2026-05-02T10:55:27.196Z</time></trkpt><trkpt lat="43.7714468" lon="12.8247526"><ele>426.0</ele><time>2026-05-02T10:55:29.198Z</time></trkpt><trkpt lat="43.771533" lon="12.8248545"><ele>426.0</ele><time>2026-05-02T10:55:31.196Z</time></trkpt><trkpt lat="43.771628" lon="12.8249407"><ele>426.0</ele><time>2026-05-02T10:55:33.203Z</time></trkpt><trkpt lat="43.7717326" lon="12.8250194"><ele>426.0</ele><time>2026-05-02T10:55:35.203Z</time></trkpt><trkpt lat="43.7717864" lon="12.8250755"><ele>426.0</ele><time>2026-05-02T10:55:36.201Z</time></trkpt><trkpt lat="43.7718476" lon="12.8251826"><ele>426.0</ele><time>2026-05-02T10:55:38.201Z</time></trkpt><trkpt lat="43.7718455" lon="12.8252873"><ele>424.0</ele><time>2026-05-02T10:55:41.198Z</time></trkpt><trkpt lat="43.7718545" lon="12.8253799"><ele>422.0</ele><time>2026-05-02T10:55:43.197Z</time></trkpt><trkpt lat="43.7718934" lon="12.8254913"><ele>420.0</ele><time>2026-05-02T10:55:45.188Z</time></trkpt><trkpt lat="43.7719721" lon="12.8256207"><ele>418.0</ele><time>2026-05-02T10:55:47.187Z</time></trkpt><trkpt lat="43.7720305" lon="12.8256765"><ele>416.0</ele><time>2026-05-02T10:55:48.2Z</time></trkpt><trkpt lat="43.7720925" lon="12.8257185"><ele>414.0</ele><time>2026-05-02T10:55:49.202Z</time></trkpt><trkpt lat="43.7721566" lon="12.8257614"><ele>414.0</ele><time>2026-05-02T10:55:50.197Z</time></trkpt><trkpt lat="43.7722168" lon="12.8258092"><ele>414.0</ele><time>2026-05-02T10:55:51.197Z</time></trkpt><trkpt lat="43.7723051" lon="12.8258915"><ele>414.0</ele><time>2026-05-02T10:55:53.192Z</time></trkpt><trkpt lat="43.7723502" lon="12.8260137"><ele>414.0</ele><time>2026-05-02T10:55:55.197Z</time></trkpt><trkpt lat="43.7723674" lon="12.8261179"><ele>414.0</ele><time>2026-05-02T10:55:56.194Z</time></trkpt><trkpt lat="43.772382" lon="12.826245"><ele>414.0</ele><time>2026-05-02T10:55:57.189Z</time></trkpt><trkpt lat="43.7723899" lon="12.8263912"><ele>410.25</ele><time>2026-05-02T10:55:58.194Z</time></trkpt><trkpt lat="43.7723863" lon="12.8265471"><ele>406.5</ele><time>2026-05-02T10:55:59.191Z</time></trkpt><trkpt lat="43.7723707" lon="12.8267128"><ele>402.75</ele><time>2026-05-02T10:56:00.196Z</time></trkpt><trkpt lat="43.7723624" lon="12.8268733"><ele>399.0</ele><time>2026-05-02T10:56:01.194Z</time></trkpt><trkpt lat="43.7723644" lon="12.8270284"><ele>397.6</ele><time>2026-05-02T10:56:02.193Z</time></trkpt><trkpt lat="43.7723847" lon="12.827174"><ele>396.2</ele><time>2026-05-02T10:56:03.191Z</time></trkpt><trkpt lat="43.7724227" lon="12.8273095"><ele>394.8</ele><time>2026-05-02T10:56:04.197Z</time></trkpt><trkpt lat="43.7724954" lon="12.8274244"><ele>393.40000000000003</ele><time>2026-05-02T10:56:05.198Z</time></trkpt><trkpt lat="43.7726003" lon="12.8274999"><ele>392.0</ele><time>2026-05-02T10:56:06.196Z</time></trkpt><trkpt lat="43.7727193" lon="12.8275461"><ele>392.0</ele><time>2026-05-02T10:56:07.194Z</time></trkpt><trkpt lat="43.7728398" lon="12.8275746"><ele>392.0</ele><time>2026-05-02T10:56:08.193Z</time></trkpt><trkpt lat="43.7729565" lon="12.827583"><ele>392.0</ele><time>2026-05-02T10:56:09.195Z</time></trkpt><trkpt lat="43.7730633" lon="12.8275606"><ele>392.0</ele><time>2026-05-02T10:56:10.195Z</time></trkpt><trkpt lat="43.773161" lon="12.8275244"><ele>392.0</ele><time>2026-05-02T10:56:11.197Z</time></trkpt><trkpt lat="43.7732489" lon="12.8274854"><ele>392.0</ele><time>2026-05-02T10:56:12.198Z</time></trkpt><trkpt lat="43.7733337" lon="12.8274485"><ele>392.0</ele><time>2026-05-02T10:56:13.192Z</time></trkpt><trkpt lat="43.7734259" lon="12.8273998"><ele>392.0</ele><time>2026-05-02T10:56:14.193Z</time></trkpt><trkpt lat="43.7735221" lon="12.8273484"><ele>392.0</ele><time>2026-05-02T10:56:15.192Z</time></trkpt><trkpt lat="43.7736222" lon="12.8272968"><ele>392.0</ele><time>2026-05-02T10:56:16.194Z</time></trkpt><trkpt lat="43.7737266" lon="12.8272508"><ele>394.40000000000003</ele><time>2026-05-02T10:56:17.193Z</time></trkpt><trkpt lat="43.7738332" lon="12.827204"><ele>396.8</ele><time>2026-05-02T10:56:18.19Z</time></trkpt><trkpt lat="43.7739401" lon="12.8271581"><ele>399.2</ele><time>2026-05-02T10:56:19.186Z</time></trkpt><trkpt lat="43.7740404" lon="12.8270944"><ele>401.6</ele><time>2026-05-02T10:56:20.182Z</time></trkpt><trkpt lat="43.7741317" lon="12.8270244"><ele>404.0</ele><time>2026-05-02T10:56:21.185Z</time></trkpt><trkpt lat="43.7742097" lon="12.8269401"><ele>404.0</ele><time>2026-05-02T10:56:22.183Z</time></trkpt><trkpt lat="43.7742773" lon="12.8268467"><ele>404.0</ele><time>2026-05-02T10:56:23.184Z</time></trkpt><trkpt lat="43.7743435" lon="12.8267405"><ele>404.0</ele><time>2026-05-02T10:56:24.185Z</time></trkpt><trkpt lat="43.7744129" lon="12.8266343"><ele>404.0</ele><time>2026-05-02T10:56:25.191Z</time></trkpt><trkpt lat="43.7744898" lon="12.8265435"><ele>404.0</ele><time>2026-05-02T10:56:26.19Z</time></trkpt><trkpt lat="43.7745752" lon="12.8264713"><ele>399.6</ele><time>2026-05-02T10:56:27.19Z</time></trkpt><trkpt lat="43.774664" lon="12.8264153"><ele>395.2</ele><time>2026-05-02T10:56:28.191Z</time></trkpt><trkpt lat="43.7747514" lon="12.8263695"><ele>390.8</ele><time>2026-05-02T10:56:29.203Z</time></trkpt><trkpt lat="43.7748431" lon="12.8263197"><ele>386.40000000000003</ele><time>2026-05-02T10:56:30.203Z</time></trkpt><trkpt lat="43.7749354" lon="12.8262662"><ele>382.0</ele><time>2026-05-02T10:56:31.196Z</time></trkpt><trkpt lat="43.7750256" lon="12.8262135"><ele>382.0</ele><time>2026-05-02T10:56:32.194Z</time></trkpt><trkpt lat="43.7751195" lon="12.8261667"><ele>382.0</ele><time>2026-05-02T10:56:33.197Z</time></trkpt><trkpt lat="43.7752094" lon="12.8261253"><ele>382.0</ele><time>2026-05-02T10:56:34.198Z</time></trkpt><trkpt lat="43.7752919" lon="12.8261009"><ele>382.0</ele><time>2026-05-02T10:56:35.194Z</time></trkpt><trkpt lat="43.7753694" lon="12.8260783"><ele>382.0</ele><time>2026-05-02T10:56:36.197Z</time></trkpt><trkpt lat="43.7754389" lon="12.8260518"><ele>382.0</ele><time>2026-05-02T10:56:37.2Z</time></trkpt><trkpt lat="43.7755134" lon="12.8260137"><ele>379.8333333333333</ele><time>2026-05-02T10:56:38.201Z</time></trkpt><trkpt lat="43.775583" lon="12.825978"><ele>377.66666666666663</ele><time>2026-05-02T10:56:39.198Z</time></trkpt><trkpt lat="43.7756472" lon="12.8259252"><ele>375.5</ele><time>2026-05-02T10:56:40.208Z</time></trkpt><trkpt lat="43.7757105" lon="12.8258468"><ele>373.3333333333333</ele><time>2026-05-02T10:56:41.191Z</time></trkpt><trkpt lat="43.775783" lon="12.8257832"><ele>371.1666666666667</ele><time>2026-05-02T10:56:42.188Z</time></trkpt><trkpt lat="43.7758542" lon="12.8257202"><ele>369.0</ele><time>2026-05-02T10:56:43.197Z</time></trkpt><trkpt lat="43.7759186" lon="12.8256561"><ele>369.0</ele><time>2026-05-02T10:56:44.191Z</time></trkpt><trkpt lat="43.7759759" lon="12.8255923"><ele>369.0</ele><time>2026-05-02T10:56:45.191Z</time></trkpt><trkpt lat="43.7760421" lon="12.8255318"><ele>369.0</ele><time>2026-05-02T10:56:46.192Z</time></trkpt><trkpt lat="43.7761015" lon="12.8254854"><ele>369.0</ele><time>2026-05-02T10:56:47.192Z</time></trkpt><trkpt lat="43.7761651" lon="12.8254389"><ele>369.0</ele><time>2026-05-02T10:56:48.188Z</time></trkpt><trkpt lat="43.7762321" lon="12.8253833"><ele>369.0</ele><time>2026-05-02T10:56:49.195Z</time></trkpt><trkpt lat="43.7762901" lon="12.8253235"><ele>369.0</ele><time>2026-05-02T10:56:50.192Z</time></trkpt><trkpt lat="43.776345" lon="12.8252688"><ele>366.85714285714283</ele><time>2026-05-02T10:56:51.192Z</time></trkpt><trkpt lat="43.7764053" lon="12.8252223"><ele>364.71428571428567</ele><time>2026-05-02T10:56:52.195Z</time></trkpt><trkpt lat="43.7764697" lon="12.8251891"><ele>362.57142857142856</ele><time>2026-05-02T10:56:53.196Z</time></trkpt><trkpt lat="43.7765375" lon="12.8251596"><ele>360.42857142857144</ele><time>2026-05-02T10:56:54.198Z</time></trkpt><trkpt lat="43.7766106" lon="12.8251339"><ele>358.2857142857143</ele><time>2026-05-02T10:56:55.198Z</time></trkpt><trkpt lat="43.7766806" lon="12.8251119"><ele>356.14285714285717</ele><time>2026-05-02T10:56:56.198Z</time></trkpt><trkpt lat="43.7767474" lon="12.8250963"><ele>354.0</ele><time>2026-05-02T10:56:57.204Z</time></trkpt><trkpt lat="43.7768126" lon="12.8250977"><ele>353.0</ele><time>2026-05-02T10:56:58.209Z</time></trkpt><trkpt lat="43.7768798" lon="12.8251134"><ele>352.0</ele><time>2026-05-02T10:56:59.195Z</time></trkpt><trkpt lat="43.776942" lon="12.8251349"><ele>351.0</ele><time>2026-05-02T10:57:00.197Z</time></trkpt><trkpt lat="43.777002" lon="12.8251616"><ele>350.0</ele><time>2026-05-02T10:57:01.195Z</time></trkpt><trkpt lat="43.7770631" lon="12.8251908"><ele>349.0</ele><time>2026-05-02T10:57:02.198Z</time></trkpt><trkpt lat="43.7771824" lon="12.8252389"><ele>348.0</ele><time>2026-05-02T10:57:04.196Z</time></trkpt><trkpt lat="43.7772928" lon="12.8252872"><ele>348.0</ele><time>2026-05-02T10:57:06.193Z</time></trkpt><trkpt lat="43.7774125" lon="12.825244"><ele>348.0</ele><time>2026-05-02T10:57:08.187Z</time></trkpt><trkpt lat="43.7774832" lon="12.8251972"><ele>348.0</ele><time>2026-05-02T10:57:09.191Z</time></trkpt><trkpt lat="43.7775538" lon="12.8251258"><ele>348.0</ele><time>2026-05-02T10:57:10.192Z</time></trkpt><trkpt lat="43.7776368" lon="12.8250472"><ele>348.0</ele><time>2026-05-02T10:57:11.185Z</time></trkpt><trkpt lat="43.777728" lon="12.8249733"><ele>343.0</ele><time>2026-05-02T10:57:12.182Z</time></trkpt><trkpt lat="43.7778235" lon="12.8249004"><ele>338.0</ele><time>2026-05-02T10:57:13.186Z</time></trkpt><trkpt lat="43.7779098" lon="12.8248281"><ele>333.0</ele><time>2026-05-02T10:57:14.177Z</time></trkpt><trkpt lat="43.7779991" lon="12.8247485"><ele>328.0</ele><time>2026-05-02T10:57:15.184Z</time></trkpt><trkpt lat="43.7780858" lon="12.8246709"><ele>323.0</ele><time>2026-05-02T10:57:16.186Z</time></trkpt><trkpt lat="43.7781651" lon="12.8245957"><ele>323.0</ele><time>2026-05-02T10:57:17.194Z</time></trkpt><trkpt lat="43.7782319" lon="12.8245202"><ele>323.0</ele><time>2026-05-02T10:57:18.189Z</time></trkpt><trkpt lat="43.7782924" lon="12.8244242"><ele>323.0</ele><time>2026-05-02T10:57:19.187Z</time></trkpt><trkpt lat="43.7783523" lon="12.8243122"><ele>323.0</ele><time>2026-05-02T10:57:20.183Z</time></trkpt><trkpt lat="43.7784059" lon="12.8241984"><ele>323.0</ele><time>2026-05-02T10:57:21.185Z</time></trkpt><trkpt lat="43.7784508" lon="12.8240977"><ele>324.0</ele><time>2026-05-02T10:57:22.191Z</time></trkpt><trkpt lat="43.7784962" lon="12.8240162"><ele>325.0</ele><time>2026-05-02T10:57:23.19Z</time></trkpt><trkpt lat="43.7785525" lon="12.823941"><ele>326.0</ele><time>2026-05-02T10:57:24.188Z</time></trkpt><trkpt lat="43.7786126" lon="12.8238803"><ele>327.0</ele><time>2026-05-02T10:57:25.193Z</time></trkpt><trkpt lat="43.7786778" lon="12.8238047"><ele>328.0</ele><time>2026-05-02T10:57:26.192Z</time></trkpt><trkpt lat="43.7787464" lon="12.823731"><ele>329.0</ele><time>2026-05-02T10:57:27.193Z</time></trkpt><trkpt lat="43.7788193" lon="12.8236592"><ele>327.4</ele><time>2026-05-02T10:57:28.191Z</time></trkpt><trkpt lat="43.7788885" lon="12.8235806"><ele>325.79999999999995</ele><time>2026-05-02T10:57:29.19Z</time></trkpt><trkpt lat="43.7789564" lon="12.8234862"><ele>324.20000000000005</ele><time>2026-05-02T10:57:30.188Z</time></trkpt><trkpt lat="43.7790158" lon="12.8233773"><ele>322.6</ele><time>2026-05-02T10:57:31.195Z</time></trkpt><trkpt lat="43.7790861" lon="12.8232641"><ele>321.0</ele><time>2026-05-02T10:57:32.206Z</time></trkpt><trkpt lat="43.7791528" lon="12.8231552"><ele>321.0</ele><time>2026-05-02T10:57:33.202Z</time></trkpt><trkpt lat="43.7792129" lon="12.8230575"><ele>321.0</ele><time>2026-05-02T10:57:34.218Z</time></trkpt><trkpt lat="43.7792727" lon="12.8229575"><ele>321.0</ele><time>2026-05-02T10:57:35.207Z</time></trkpt><trkpt lat="43.7793329" lon="12.8228637"><ele>321.0</ele><time>2026-05-02T10:57:36.2Z</time></trkpt><trkpt lat="43.7793963" lon="12.8227661"><ele>321.0</ele><time>2026-05-02T10:57:37.199Z</time></trkpt><trkpt lat="43.7794633" lon="12.8226641"><ele>317.0</ele><time>2026-05-02T10:57:38.206Z</time></trkpt><trkpt lat="43.7795375" lon="12.8225566"><ele>313.0</ele><time>2026-05-02T10:57:39.199Z</time></trkpt><trkpt lat="43.779603" lon="12.8224458"><ele>309.0</ele><time>2026-05-02T10:57:40.204Z</time></trkpt><trkpt lat="43.7796651" lon="12.8223096"><ele>305.0</ele><time>2026-05-02T10:57:41.202Z</time></trkpt><trkpt lat="43.7797303" lon="12.8221536"><ele>305.0</ele><time>2026-05-02T10:57:42.203Z</time></trkpt><trkpt lat="43.7797965" lon="12.8219981"><ele>305.0</ele><time>2026-05-02T10:57:43.203Z</time></trkpt><trkpt lat="43.7798675" lon="12.8218414"><ele>305.0</ele><time>2026-05-02T10:57:44.203Z</time></trkpt><trkpt lat="43.7799309" lon="12.821689"><ele>305.0</ele><time>2026-05-02T10:57:45.207Z</time></trkpt><trkpt lat="43.7799989" lon="12.8215463"><ele>304.75</ele><time>2026-05-02T10:57:46.199Z</time></trkpt><trkpt lat="43.7800564" lon="12.821415"><ele>304.5</ele><time>2026-05-02T10:57:47.198Z</time></trkpt><trkpt lat="43.7801201" lon="12.8212889"><ele>304.25</ele><time>2026-05-02T10:57:48.193Z</time></trkpt><trkpt lat="43.7801998" lon="12.821165"><ele>304.0</ele><time>2026-05-02T10:57:49.203Z</time></trkpt><trkpt lat="43.7802894" lon="12.821043"><ele>303.5</ele><time>2026-05-02T10:57:50.193Z</time></trkpt><trkpt lat="43.7803887" lon="12.820927"><ele>303.0</ele><time>2026-05-02T10:57:51.199Z</time></trkpt><trkpt lat="43.7804874" lon="12.8208145"><ele>302.5</ele><time>2026-05-02T10:57:52.206Z</time></trkpt><trkpt lat="43.7805793" lon="12.8207033"><ele>302.0</ele><time>2026-05-02T10:57:53.204Z</time></trkpt><trkpt lat="43.780688" lon="12.8206004"><ele>302.0</ele><time>2026-05-02T10:57:54.196Z</time></trkpt><trkpt lat="43.7808003" lon="12.8205117"><ele>302.0</ele><time>2026-05-02T10:57:55.195Z</time></trkpt><trkpt lat="43.7809171" lon="12.8204284"><ele>302.0</ele><time>2026-05-02T10:57:56.194Z</time></trkpt><trkpt lat="43.7810343" lon="12.8203385"><ele>302.0</ele><time>2026-05-02T10:57:57.201Z</time></trkpt><trkpt lat="43.7811469" lon="12.8202476"><ele>301.25</ele><time>2026-05-02T10:57:58.213Z</time></trkpt><trkpt lat="43.7812602" lon="12.820147"><ele>300.5</ele><time>2026-05-02T10:57:59.213Z</time></trkpt><trkpt lat="43.7813712" lon="12.8200518"><ele>299.75</ele><time>2026-05-02T10:58:00.206Z</time></trkpt><trkpt lat="43.7814742" lon="12.8199625"><ele>299.0</ele><time>2026-05-02T10:58:01.201Z</time></trkpt><trkpt lat="43.781566" lon="12.8198868"><ele>299.0</ele><time>2026-05-02T10:58:02.213Z</time></trkpt><trkpt lat="43.7816586" lon="12.8198342"><ele>299.0</ele><time>2026-05-02T10:58:03.199Z</time></trkpt><trkpt lat="43.7817433" lon="12.8197973"><ele>299.0</ele><time>2026-05-02T10:58:04.215Z</time></trkpt><trkpt lat="43.7818125" lon="12.8197884"><ele>299.0</ele><time>2026-05-02T10:58:05.203Z</time></trkpt><trkpt lat="43.7819083" lon="12.8198426"><ele>299.0</ele><time>2026-05-02T10:58:07.204Z</time></trkpt><trkpt lat="43.7820114" lon="12.819928"><ele>296.4</ele><time>2026-05-02T10:58:09.199Z</time></trkpt><trkpt lat="43.7821249" lon="12.8199754"><ele>293.79999999999995</ele><time>2026-05-02T10:58:11.209Z</time></trkpt><trkpt lat="43.782243" lon="12.8199435"><ele>291.20000000000005</ele><time>2026-05-02T10:58:13.205Z</time></trkpt><trkpt lat="43.7823396" lon="12.8198571"><ele>288.6</ele><time>2026-05-02T10:58:15.213Z</time></trkpt><trkpt lat="43.7824049" lon="12.8197774"><ele>286.0</ele><time>2026-05-02T10:58:17.219Z</time></trkpt><trkpt lat="43.7824598" lon="12.8196991"><ele>286.0</ele><time>2026-05-02T10:58:19.215Z</time></trkpt><trkpt lat="43.7824986" lon="12.8196037"><ele>286.0</ele><time>2026-05-02T10:58:21.218Z</time></trkpt><trkpt lat="43.7825278" lon="12.8194846"><ele>286.0</ele><time>2026-05-02T10:58:23.215Z</time></trkpt><trkpt lat="43.7825492" lon="12.8193154"><ele>286.0</ele><time>2026-05-02T10:58:25.213Z</time></trkpt><trkpt lat="43.7825634" lon="12.8192109"><ele>286.0</ele><time>2026-05-02T10:58:26.211Z</time></trkpt><trkpt lat="43.7825846" lon="12.8190975"><ele>284.6</ele><time>2026-05-02T10:58:27.22Z</time></trkpt><trkpt lat="43.7826076" lon="12.8189734"><ele>283.20000000000005</ele><time>2026-05-02T10:58:28.219Z</time></trkpt><trkpt lat="43.7826325" lon="12.8188493"><ele>281.79999999999995</ele><time>2026-05-02T10:58:29.213Z</time></trkpt><trkpt lat="43.7826601" lon="12.8187189"><ele>280.4</ele><time>2026-05-02T10:58:30.218Z</time></trkpt><trkpt lat="43.78269" lon="12.8186001"><ele>279.0</ele><time>2026-05-02T10:58:31.213Z</time></trkpt><trkpt lat="43.7827229" lon="12.8184844"><ele>277.5</ele><time>2026-05-02T10:58:32.211Z</time></trkpt><trkpt lat="43.7827648" lon="12.818381"><ele>276.0</ele><time>2026-05-02T10:58:33.215Z</time></trkpt><trkpt lat="43.7828114" lon="12.8182878"><ele>274.5</ele><time>2026-05-02T10:58:34.216Z</time></trkpt><trkpt lat="43.7828511" lon="12.8182135"><ele>273.0</ele><time>2026-05-02T10:58:35.214Z</time></trkpt><trkpt lat="43.7828962" lon="12.8181354"><ele>271.5</ele><time>2026-05-02T10:58:37.211Z</time></trkpt><trkpt lat="43.7829561" lon="12.8180335"><ele>270.0</ele><time>2026-05-02T10:58:52.214Z</time></trkpt><trkpt lat="43.7830011" lon="12.8179713"><ele>270.0</ele><time>2026-05-02T10:58:53.212Z</time></trkpt><trkpt lat="43.7830587" lon="12.8179068"><ele>270.0</ele><time>2026-05-02T10:58:54.216Z</time></trkpt><trkpt lat="43.7831222" lon="12.8178515"><ele>270.0</ele><time>2026-05-02T10:58:55.208Z</time></trkpt><trkpt lat="43.7831915" lon="12.817805"><ele>270.0</ele><time>2026-05-02T10:58:56.224Z</time></trkpt><trkpt lat="43.7832584" lon="12.8177669"><ele>270.0</ele><time>2026-05-02T10:58:57.213Z</time></trkpt><trkpt lat="43.7833313" lon="12.81772"><ele>270.0</ele><time>2026-05-02T10:58:58.221Z</time></trkpt><trkpt lat="43.7834072" lon="12.8176768"><ele>269.3333333333333</ele><time>2026-05-02T10:58:59.218Z</time></trkpt><trkpt lat="43.7834797" lon="12.8176421"><ele>268.6666666666667</ele><time>2026-05-02T10:59:00.222Z</time></trkpt><trkpt lat="43.7835493" lon="12.8176013"><ele>268.0</ele><time>2026-05-02T10:59:01.215Z</time></trkpt><trkpt lat="43.7836139" lon="12.8175493"><ele>267.33333333333337</ele><time>2026-05-02T10:59:02.213Z</time></trkpt><trkpt lat="43.7836733" lon="12.8174838"><ele>266.6666666666667</ele><time>2026-05-02T10:59:03.213Z</time></trkpt><trkpt lat="43.783725" lon="12.8174046"><ele>266.0</ele><time>2026-05-02T10:59:04.219Z</time></trkpt><trkpt lat="43.7837709" lon="12.8173067"><ele>265.1666666666667</ele><time>2026-05-02T10:59:05.22Z</time></trkpt><trkpt lat="43.7838083" lon="12.8171881"><ele>264.33333333333337</ele><time>2026-05-02T10:59:06.214Z</time></trkpt><trkpt lat="43.7838375" lon="12.8170634"><ele>263.5</ele><time>2026-05-02T10:59:07.214Z</time></trkpt><trkpt lat="43.7838639" lon="12.816947"><ele>262.6666666666667</ele><time>2026-05-02T10:59:08.214Z</time></trkpt><trkpt lat="43.7838937" lon="12.8168371"><ele>261.8333333333333</ele><time>2026-05-02T10:59:09.214Z</time></trkpt><trkpt lat="43.7839224" lon="12.8167396"><ele>261.0</ele><time>2026-05-02T10:59:10.217Z</time></trkpt><trkpt lat="43.7839601" lon="12.8166524"><ele>260.5</ele><time>2026-05-02T10:59:11.215Z</time></trkpt><trkpt lat="43.7840141" lon="12.8165799"><ele>260.0</ele><time>2026-05-02T10:59:12.217Z</time></trkpt><trkpt lat="43.7840826" lon="12.8165436"><ele>259.5</ele><time>2026-05-02T10:59:13.214Z</time></trkpt><trkpt lat="43.7841631" lon="12.8165334"><ele>259.0</ele><time>2026-05-02T10:59:14.215Z</time></trkpt><trkpt lat="43.7842398" lon="12.8165419"><ele>258.5</ele><time>2026-05-02T10:59:15.215Z</time></trkpt><trkpt lat="43.784309" lon="12.8165776"><ele>258.0</ele><time>2026-05-02T10:59:16.214Z</time></trkpt><trkpt lat="43.7843747" lon="12.8166311"><ele>254.66666666666666</ele><time>2026-05-02T10:59:17.204Z</time></trkpt><trkpt lat="43.7844412" lon="12.8167083"><ele>251.33333333333331</ele><time>2026-05-02T10:59:18.217Z</time></trkpt><trkpt lat="43.7844987" lon="12.8167944"><ele>248.0</ele><time>2026-05-02T10:59:19.208Z</time></trkpt><trkpt lat="43.7845473" lon="12.8168884"><ele>244.66666666666666</ele><time>2026-05-02T10:59:20.206Z</time></trkpt><trkpt lat="43.7845924" lon="12.8169865"><ele>241.33333333333331</ele><time>2026-05-02T10:59:21.21Z</time></trkpt><trkpt lat="43.7846356" lon="12.8170896"><ele>238.0</ele><time>2026-05-02T10:59:22.224Z</time></trkpt><trkpt lat="43.7846787" lon="12.8171879"><ele>238.0</ele><time>2026-05-02T10:59:23.194Z</time></trkpt><trkpt lat="43.7847302" lon="12.8172794"><ele>238.0</ele><time>2026-05-02T10:59:24.209Z</time></trkpt><trkpt lat="43.7847872" lon="12.8173596"><ele>238.0</ele><time>2026-05-02T10:59:25.196Z</time></trkpt><trkpt lat="43.7848354" lon="12.8174247"><ele>238.0</ele><time>2026-05-02T10:59:26.203Z</time></trkpt><trkpt lat="43.7848875" lon="12.8174992"><ele>238.0</ele><time>2026-05-02T10:59:27.202Z</time></trkpt><trkpt lat="43.7849415" lon="12.8175664"><ele>238.0</ele><time>2026-05-02T10:59:28.21Z</time></trkpt><trkpt lat="43.7849966" lon="12.8176232"><ele>238.0</ele><time>2026-05-02T10:59:29.206Z</time></trkpt><trkpt lat="43.78506" lon="12.8176778"><ele>237.66666666666666</ele><time>2026-05-02T10:59:30.202Z</time></trkpt><trkpt lat="43.7851211" lon="12.8177165"><ele>237.33333333333331</ele><time>2026-05-02T10:59:31.206Z</time></trkpt><trkpt lat="43.7851834" lon="12.8177352"><ele>237.0</ele><time>2026-05-02T10:59:32.2Z</time></trkpt><trkpt lat="43.7852973" lon="12.8177809"><ele>236.66666666666669</ele><time>2026-05-02T10:59:34.206Z</time></trkpt><trkpt lat="43.7853817" lon="12.817833"><ele>236.33333333333334</ele><time>2026-05-02T10:59:36.198Z</time></trkpt><trkpt lat="43.7854602" lon="12.8178339"><ele>236.0</ele><time>2026-05-02T10:59:38.213Z</time></trkpt><trkpt lat="43.7854927" lon="12.8177366"><ele>233.50000000000003</ele><time>2026-05-02T10:59:40.218Z</time></trkpt><trkpt lat="43.7854641" lon="12.817612"><ele>231.0</ele><time>2026-05-02T10:59:42.202Z</time></trkpt><trkpt lat="43.7854162" lon="12.8174668"><ele>228.5</ele><time>2026-05-02T10:59:44.2Z</time></trkpt><trkpt lat="43.7853897" lon="12.817382"><ele>226.0</ele><time>2026-05-02T10:59:45.205Z</time></trkpt><trkpt lat="43.7853619" lon="12.8172959"><ele>223.50000000000003</ele><time>2026-05-02T10:59:46.202Z</time></trkpt><trkpt lat="43.7853345" lon="12.8172022"><ele>221.0</ele><time>2026-05-02T10:59:47.205Z</time></trkpt><trkpt lat="43.7853116" lon="12.8171112"><ele>221.00000000000003</ele><time>2026-05-02T10:59:48.203Z</time></trkpt><trkpt lat="43.7852847" lon="12.817015"><ele>221.0</ele><time>2026-05-02T10:59:49.209Z</time></trkpt><trkpt lat="43.7852609" lon="12.8169166"><ele>221.0</ele><time>2026-05-02T10:59:50.197Z</time></trkpt><trkpt lat="43.7852526" lon="12.816818"><ele>221.0</ele><time>2026-05-02T10:59:51.192Z</time></trkpt><trkpt lat="43.7852622" lon="12.8167206"><ele>221.0</ele><time>2026-05-02T10:59:52.198Z</time></trkpt><trkpt lat="43.7852812" lon="12.8166296"><ele>221.00000000000003</ele><time>2026-05-02T10:59:53.195Z</time></trkpt><trkpt lat="43.7853026" lon="12.816525"><ele>221.0</ele><time>2026-05-02T10:59:54.205Z</time></trkpt><trkpt lat="43.7853334" lon="12.8164199"><ele>218.50000000000003</ele><time>2026-05-02T10:59:55.195Z</time></trkpt><trkpt lat="43.785369" lon="12.8163134"><ele>216.0</ele><time>2026-05-02T10:59:56.173Z</time></trkpt><trkpt lat="43.7854057" lon="12.8162147"><ele>213.5</ele><time>2026-05-02T10:59:57.18Z</time></trkpt><trkpt lat="43.7854445" lon="12.8161126"><ele>211.0</ele><time>2026-05-02T10:59:58.184Z</time></trkpt><trkpt lat="43.7854884" lon="12.8160141"><ele>208.50000000000003</ele><time>2026-05-02T10:59:59.177Z</time></trkpt><trkpt lat="43.7855331" lon="12.8159228"><ele>206.0</ele><time>2026-05-02T11:00:00.178Z</time></trkpt><trkpt lat="43.7855716" lon="12.8158455"><ele>204.16666666666669</ele><time>2026-05-02T11:00:01.179Z</time></trkpt><trkpt lat="43.7856036" lon="12.8157672"><ele>202.33333333333334</ele><time>2026-05-02T11:00:02.182Z</time></trkpt><trkpt lat="43.7856326" lon="12.8156805"><ele>200.5</ele><time>2026-05-02T11:00:03.181Z</time></trkpt><trkpt lat="43.7856538" lon="12.8155941"><ele>198.66666666666669</ele><time>2026-05-02T11:00:04.169Z</time></trkpt><trkpt lat="43.7856349" lon="12.8154272"><ele>196.83333333333334</ele><time>2026-05-02T11:00:06.176Z</time></trkpt><trkpt lat="43.7855741" lon="12.8153553"><ele>195.0</ele><time>2026-05-02T11:00:07.163Z</time></trkpt><trkpt lat="43.7854982" lon="12.815298"><ele>195.0</ele><time>2026-05-02T11:00:08.164Z</time></trkpt><trkpt lat="43.7854199" lon="12.8152311"><ele>195.0</ele><time>2026-05-02T11:00:09.165Z</time></trkpt><trkpt lat="43.7853449" lon="12.8151465"><ele>195.0</ele><time>2026-05-02T11:00:10.177Z</time></trkpt><trkpt lat="43.7852682" lon="12.8150664"><ele>195.0</ele><time>2026-05-02T11:00:11.169Z</time></trkpt><trkpt lat="43.785177" lon="12.8149863"><ele>195.0</ele><time>2026-05-02T11:00:12.159Z</time></trkpt><trkpt lat="43.7850833" lon="12.8149226"><ele>195.83333333333334</ele><time>2026-05-02T11:00:13.163Z</time></trkpt><trkpt lat="43.785007" lon="12.8148507"><ele>196.66666666666669</ele><time>2026-05-02T11:00:14.164Z</time></trkpt><trkpt lat="43.7849414" lon="12.8147777"><ele>197.5</ele><time>2026-05-02T11:00:15.162Z</time></trkpt><trkpt lat="43.7848972" lon="12.8147126"><ele>198.33333333333334</ele><time>2026-05-02T11:00:16.16Z</time></trkpt><trkpt lat="43.7848714" lon="12.8146172"><ele>199.16666666666669</ele><time>2026-05-02T11:00:18.166Z</time></trkpt><trkpt lat="43.7849345" lon="12.814523"><ele>200.0</ele><time>2026-05-02T11:00:20.163Z</time></trkpt><trkpt lat="43.785033" lon="12.8144256"><ele>200.0</ele><time>2026-05-02T11:00:22.17Z</time></trkpt><trkpt lat="43.7851738" lon="12.8144186"><ele>200.0</ele><time>2026-05-02T11:00:24.161Z</time></trkpt><trkpt lat="43.785267" lon="12.8144629"><ele>200.0</ele><time>2026-05-02T11:00:25.167Z</time></trkpt><trkpt lat="43.7853679" lon="12.8145187"><ele>200.0</ele><time>2026-05-02T11:00:26.158Z</time></trkpt><trkpt lat="43.7854749" lon="12.8146037"><ele>197.5</ele><time>2026-05-02T11:00:27.158Z</time></trkpt><trkpt lat="43.7855817" lon="12.8146873"><ele>195.0</ele><time>2026-05-02T11:00:28.161Z</time></trkpt><trkpt lat="43.7856971" lon="12.8147567"><ele>192.5</ele><time>2026-05-02T11:00:29.15Z</time></trkpt><trkpt lat="43.7858212" lon="12.8148175"><ele>190.0</ele><time>2026-05-02T11:00:30.16Z</time></trkpt><trkpt lat="43.7859314" lon="12.8148596"><ele>190.16666666666669</ele><time>2026-05-02T11:00:31.151Z</time></trkpt><trkpt lat="43.7860194" lon="12.8148801"><ele>190.33333333333334</ele><time>2026-05-02T11:00:32.162Z</time></trkpt><trkpt lat="43.786099" lon="12.8148725"><ele>190.5</ele><time>2026-05-02T11:00:33.154Z</time></trkpt><trkpt lat="43.7861688" lon="12.8148446"><ele>190.66666666666666</ele><time>2026-05-02T11:00:34.164Z</time></trkpt><trkpt lat="43.7862437" lon="12.8147801"><ele>190.83333333333331</ele><time>2026-05-02T11:00:35.162Z</time></trkpt><trkpt lat="43.7863334" lon="12.8147268"><ele>191.0</ele><time>2026-05-02T11:00:36.161Z</time></trkpt><trkpt lat="43.7864533" lon="12.8147012"><ele>191.0</ele><time>2026-05-02T11:00:37.164Z</time></trkpt><trkpt lat="43.7865788" lon="12.8146815"><ele>191.0</ele><time>2026-05-02T11:00:38.163Z</time></trkpt><trkpt lat="43.7867077" lon="12.8146819"><ele>191.0</ele><time>2026-05-02T11:00:39.16Z</time></trkpt><trkpt lat="43.7868281" lon="12.8147036"><ele>191.0</ele><time>2026-05-02T11:00:40.164Z</time></trkpt><trkpt lat="43.7869431" lon="12.8147628"><ele>194.75</ele><time>2026-05-02T11:00:41.164Z</time></trkpt><trkpt lat="43.7870693" lon="12.814836"><ele>198.5</ele><time>2026-05-02T11:00:42.153Z</time></trkpt><trkpt lat="43.7871868" lon="12.8148944"><ele>202.25</ele><time>2026-05-02T11:00:43.155Z</time></trkpt><trkpt lat="43.7872899" lon="12.8149633"><ele>206.0</ele><time>2026-05-02T11:00:44.157Z</time></trkpt><trkpt lat="43.7873939" lon="12.8150451"><ele>206.0</ele><time>2026-05-02T11:00:45.154Z</time></trkpt><trkpt lat="43.7874949" lon="12.8151387"><ele>206.0</ele><time>2026-05-02T11:00:46.163Z</time></trkpt><trkpt lat="43.7875966" lon="12.8152431"><ele>206.0</ele><time>2026-05-02T11:00:47.152Z</time></trkpt><trkpt lat="43.7876869" lon="12.8153452"><ele>206.0</ele><time>2026-05-02T11:00:48.154Z</time></trkpt><trkpt lat="43.7877774" lon="12.8154242"><ele>201.20000000000002</ele><time>2026-05-02T11:00:49.176Z</time></trkpt><trkpt lat="43.7878628" lon="12.815486"><ele>196.4</ele><time>2026-05-02T11:00:50.158Z</time></trkpt><trkpt lat="43.7879551" lon="12.8155251"><ele>191.6</ele><time>2026-05-02T11:00:51.173Z</time></trkpt><trkpt lat="43.7880491" lon="12.8155463"><ele>186.8</ele><time>2026-05-02T11:00:52.188Z</time></trkpt><trkpt lat="43.7881439" lon="12.815539"><ele>182.0</ele><time>2026-05-02T11:00:53.181Z</time></trkpt><trkpt lat="43.7882352" lon="12.8154795"><ele>182.0</ele><time>2026-05-02T11:00:54.187Z</time></trkpt><trkpt lat="43.7883187" lon="12.8153936"><ele>182.0</ele><time>2026-05-02T11:00:55.178Z</time></trkpt><trkpt lat="43.7884138" lon="12.8153051"><ele>182.0</ele><time>2026-05-02T11:00:56.193Z</time></trkpt><trkpt lat="43.7885131" lon="12.8152097"><ele>182.0</ele><time>2026-05-02T11:00:57.191Z</time></trkpt><trkpt lat="43.7886187" lon="12.8151134"><ele>183.2</ele><time>2026-05-02T11:00:58.202Z</time></trkpt><trkpt lat="43.7887241" lon="12.8150259"><ele>184.39999999999998</ele><time>2026-05-02T11:00:59.195Z</time></trkpt><trkpt lat="43.7888103" lon="12.8149306"><ele>185.60000000000002</ele><time>2026-05-02T11:01:00.194Z</time></trkpt><trkpt lat="43.7888811" lon="12.8148211"><ele>186.8</ele><time>2026-05-02T11:01:01.189Z</time></trkpt><trkpt lat="43.7889355" lon="12.8147091"><ele>188.0</ele><time>2026-05-02T11:01:02.194Z</time></trkpt><trkpt lat="43.7889976" lon="12.8146"><ele>188.0</ele><time>2026-05-02T11:01:03.191Z</time></trkpt><trkpt lat="43.789059" lon="12.8144906"><ele>188.0</ele><time>2026-05-02T11:01:04.192Z</time></trkpt><trkpt lat="43.7891254" lon="12.8143837"><ele>188.0</ele><time>2026-05-02T11:01:05.2Z</time></trkpt><trkpt lat="43.7891937" lon="12.8142766"><ele>188.0</ele><time>2026-05-02T11:01:06.182Z</time></trkpt><trkpt lat="43.7892701" lon="12.8141904"><ele>188.0</ele><time>2026-05-02T11:01:07.193Z</time></trkpt><trkpt lat="43.7893569" lon="12.8141448"><ele>188.60000000000002</ele><time>2026-05-02T11:01:08.179Z</time></trkpt><trkpt lat="43.7894348" lon="12.8141135"><ele>189.20000000000002</ele><time>2026-05-02T11:01:09.183Z</time></trkpt><trkpt lat="43.7895128" lon="12.8140574"><ele>189.8</ele><time>2026-05-02T11:01:10.189Z</time></trkpt><trkpt lat="43.78959" lon="12.8139759"><ele>190.4</ele><time>2026-05-02T11:01:11.187Z</time></trkpt><trkpt lat="43.7896502" lon="12.8138724"><ele>191.0</ele><time>2026-05-02T11:01:12.189Z</time></trkpt><trkpt lat="43.7897049" lon="12.813729"><ele>191.0</ele><time>2026-05-02T11:01:13.183Z</time></trkpt><trkpt lat="43.7897563" lon="12.8135769"><ele>191.0</ele><time>2026-05-02T11:01:14.192Z</time></trkpt><trkpt lat="43.7898111" lon="12.8134455"><ele>191.0</ele><time>2026-05-02T11:01:15.187Z</time></trkpt><trkpt lat="43.7898657" lon="12.8133493"><ele>191.0</ele><time>2026-05-02T11:01:16.19Z</time></trkpt><trkpt lat="43.7899162" lon="12.8132768"><ele>191.0</ele><time>2026-05-02T11:01:17.19Z</time></trkpt><trkpt lat="43.7900283" lon="12.8132375"><ele>193.0</ele><time>2026-05-02T11:01:19.185Z</time></trkpt><trkpt lat="43.7901495" lon="12.8132718"><ele>195.0</ele><time>2026-05-02T11:01:21.193Z</time></trkpt><trkpt lat="43.7902397" lon="12.8133074"><ele>197.0</ele><time>2026-05-02T11:01:22.182Z</time></trkpt><trkpt lat="43.7903462" lon="12.8133502"><ele>199.0</ele><time>2026-05-02T11:01:23.182Z</time></trkpt><trkpt lat="43.7904603" lon="12.8133931"><ele>201.0</ele><time>2026-05-02T11:01:24.181Z</time></trkpt><trkpt lat="43.7905885" lon="12.8134129"><ele>201.4</ele><time>2026-05-02T11:01:25.175Z</time></trkpt><trkpt lat="43.7907208" lon="12.8134383"><ele>201.8</ele><time>2026-05-02T11:01:26.176Z</time></trkpt><trkpt lat="43.7908304" lon="12.8134765"><ele>202.20000000000002</ele><time>2026-05-02T11:01:27.184Z</time></trkpt><trkpt lat="43.7909217" lon="12.8135139"><ele>202.60000000000002</ele><time>2026-05-02T11:01:28.191Z</time></trkpt><trkpt lat="43.7909956" lon="12.8135353"><ele>203.0</ele><time>2026-05-02T11:01:29.193Z</time></trkpt><trkpt lat="43.7910625" lon="12.8135113"><ele>201.25</ele><time>2026-05-02T11:01:30.189Z</time></trkpt><trkpt lat="43.7911408" lon="12.8134615"><ele>199.5</ele><time>2026-05-02T11:01:31.194Z</time></trkpt><trkpt lat="43.7912421" lon="12.8133852"><ele>197.75</ele><time>2026-05-02T11:01:32.185Z</time></trkpt><trkpt lat="43.7913586" lon="12.813307"><ele>196.0</ele><time>2026-05-02T11:01:33.178Z</time></trkpt><trkpt lat="43.791481" lon="12.8132544"><ele>196.0</ele><time>2026-05-02T11:01:34.178Z</time></trkpt><trkpt lat="43.7916225" lon="12.8132462"><ele>196.0</ele><time>2026-05-02T11:01:35.173Z</time></trkpt><trkpt lat="43.7917733" lon="12.8132602"><ele>196.0</ele><time>2026-05-02T11:01:36.175Z</time></trkpt><trkpt lat="43.7919227" lon="12.8132657"><ele>196.0</ele><time>2026-05-02T11:01:37.175Z</time></trkpt><trkpt lat="43.7920742" lon="12.8132725"><ele>195.25</ele><time>2026-05-02T11:01:38.176Z</time></trkpt><trkpt lat="43.7922178" lon="12.8132613"><ele>194.5</ele><time>2026-05-02T11:01:39.177Z</time></trkpt><trkpt lat="43.7923434" lon="12.8132526"><ele>193.75</ele><time>2026-05-02T11:01:40.187Z</time></trkpt><trkpt lat="43.7924668" lon="12.8132623"><ele>193.0</ele><time>2026-05-02T11:01:41.18Z</time></trkpt><trkpt lat="43.7925751" lon="12.813281"><ele>191.2</ele><time>2026-05-02T11:01:42.179Z</time></trkpt><trkpt lat="43.792688" lon="12.8132876"><ele>189.4</ele><time>2026-05-02T11:01:43.18Z</time></trkpt><trkpt lat="43.7927963" lon="12.8132919"><ele>187.6</ele><time>2026-05-02T11:01:44.183Z</time></trkpt><trkpt lat="43.7928975" lon="12.8132996"><ele>185.79999999999998</ele><time>2026-05-02T11:01:45.189Z</time></trkpt><trkpt lat="43.7930051" lon="12.8133124"><ele>184.0</ele><time>2026-05-02T11:01:46.184Z</time></trkpt><trkpt lat="43.7931089" lon="12.8133374"><ele>184.0</ele><time>2026-05-02T11:01:47.181Z</time></trkpt><trkpt lat="43.7932146" lon="12.8133617"><ele>184.0</ele><time>2026-05-02T11:01:48.184Z</time></trkpt><trkpt lat="43.7933147" lon="12.813385"><ele>184.0</ele><time>2026-05-02T11:01:49.191Z</time></trkpt><trkpt lat="43.7934036" lon="12.813419"><ele>184.0</ele><time>2026-05-02T11:01:50.194Z</time></trkpt><trkpt lat="43.793494" lon="12.8134489"><ele>184.0</ele><time>2026-05-02T11:01:51.191Z</time></trkpt><trkpt lat="43.7935836" lon="12.8134887"><ele>180.2</ele><time>2026-05-02T11:01:52.196Z</time></trkpt><trkpt lat="43.7936766" lon="12.8135394"><ele>176.39999999999998</ele><time>2026-05-02T11:01:53.191Z</time></trkpt><trkpt lat="43.7937656" lon="12.813601"><ele>172.6</ele><time>2026-05-02T11:01:54.193Z</time></trkpt><trkpt lat="43.7938435" lon="12.8136763"><ele>168.8</ele><time>2026-05-02T11:01:55.197Z</time></trkpt><trkpt lat="43.7939183" lon="12.8137715"><ele>165.0</ele><time>2026-05-02T11:01:56.187Z</time></trkpt><trkpt lat="43.7939899" lon="12.8138698"><ele>165.0</ele><time>2026-05-02T11:01:57.195Z</time></trkpt><trkpt lat="43.7940611" lon="12.8139696"><ele>165.0</ele><time>2026-05-02T11:01:58.201Z</time></trkpt><trkpt lat="43.7941224" lon="12.8140734"><ele>165.0</ele><time>2026-05-02T11:01:59.189Z</time></trkpt><trkpt lat="43.7941674" lon="12.8141683"><ele>165.0</ele><time>2026-05-02T11:02:00.196Z</time></trkpt><trkpt lat="43.7942026" lon="12.8142544"><ele>165.0</ele><time>2026-05-02T11:02:01.19Z</time></trkpt><trkpt lat="43.7942559" lon="12.8143735"><ele>163.0</ele><time>2026-05-02T11:02:03.184Z</time></trkpt><trkpt lat="43.7943473" lon="12.8144288"><ele>161.0</ele><time>2026-05-02T11:02:05.19Z</time></trkpt><trkpt lat="43.7944103" lon="12.8144525"><ele>159.0</ele><time>2026-05-02T11:02:06.189Z</time></trkpt><trkpt lat="43.794477" lon="12.8144808"><ele>157.0</ele><time>2026-05-02T11:02:07.185Z</time></trkpt><trkpt lat="43.7945541" lon="12.8145154"><ele>155.0</ele><time>2026-05-02T11:02:08.183Z</time></trkpt><trkpt lat="43.7946425" lon="12.814565"><ele>153.0</ele><time>2026-05-02T11:02:09.187Z</time></trkpt><trkpt lat="43.7947301" lon="12.8146037"><ele>153.0</ele><time>2026-05-02T11:02:10.19Z</time></trkpt><trkpt lat="43.7948238" lon="12.8146308"><ele>153.0</ele><time>2026-05-02T11:02:11.182Z</time></trkpt><trkpt lat="43.7949232" lon="12.8146392"><ele>153.0</ele><time>2026-05-02T11:02:12.187Z</time></trkpt><trkpt lat="43.7950301" lon="12.8146405"><ele>153.0</ele><time>2026-05-02T11:02:13.182Z</time></trkpt><trkpt lat="43.7951384" lon="12.8146374"><ele>153.0</ele><time>2026-05-02T11:02:14.19Z</time></trkpt><trkpt lat="43.7952384" lon="12.8146318"><ele>153.0</ele><time>2026-05-02T11:02:15.19Z</time></trkpt><trkpt lat="43.7953267" lon="12.8146267"><ele>153.0</ele><time>2026-05-02T11:02:16.192Z</time></trkpt><trkpt lat="43.7954095" lon="12.8146316"><ele>153.0</ele><time>2026-05-02T11:02:17.189Z</time></trkpt><trkpt lat="43.7954841" lon="12.8146511"><ele>153.0</ele><time>2026-05-02T11:02:18.19Z</time></trkpt><trkpt lat="43.7955568" lon="12.8146934"><ele>153.0</ele><time>2026-05-02T11:02:19.194Z</time></trkpt><trkpt lat="43.7956256" lon="12.8147708"><ele>153.0</ele><time>2026-05-02T11:02:20.188Z</time></trkpt><trkpt lat="43.7956833" lon="12.8148665"><ele>153.0</ele><time>2026-05-02T11:02:21.188Z</time></trkpt><trkpt lat="43.7957435" lon="12.8149727"><ele>153.0</ele><time>2026-05-02T11:02:22.193Z</time></trkpt><trkpt lat="43.7958081" lon="12.8150797"><ele>153.0</ele><time>2026-05-02T11:02:23.188Z</time></trkpt><trkpt lat="43.7958793" lon="12.8151743"><ele>153.0</ele><time>2026-05-02T11:02:24.191Z</time></trkpt><trkpt lat="43.7959555" lon="12.8152798"><ele>153.0</ele><time>2026-05-02T11:02:25.19Z</time></trkpt><trkpt lat="43.7960383" lon="12.815388"><ele>153.75</ele><time>2026-05-02T11:02:26.181Z</time></trkpt><trkpt lat="43.7961316" lon="12.8154889"><ele>154.5</ele><time>2026-05-02T11:02:27.19Z</time></trkpt><trkpt lat="43.7962209" lon="12.8155878"><ele>155.25</ele><time>2026-05-02T11:02:28.187Z</time></trkpt><trkpt lat="43.7963059" lon="12.8156889"><ele>156.0</ele><time>2026-05-02T11:02:29.193Z</time></trkpt><trkpt lat="43.7963976" lon="12.8157889"><ele>156.0</ele><time>2026-05-02T11:02:30.184Z</time></trkpt><trkpt lat="43.7964893" lon="12.8158998"><ele>156.0</ele><time>2026-05-02T11:02:31.195Z</time></trkpt><trkpt lat="43.7965812" lon="12.8160377"><ele>156.0</ele><time>2026-05-02T11:02:32.185Z</time></trkpt><trkpt lat="43.7966707" lon="12.8161896"><ele>156.0</ele><time>2026-05-02T11:02:33.184Z</time></trkpt><trkpt lat="43.7967602" lon="12.8163692"><ele>157.66666666666666</ele><time>2026-05-02T11:02:34.184Z</time></trkpt><trkpt lat="43.7968427" lon="12.816572"><ele>159.33333333333331</ele><time>2026-05-02T11:02:35.186Z</time></trkpt><trkpt lat="43.7969064" lon="12.816774"><ele>161.0</ele><time>2026-05-02T11:02:36.193Z</time></trkpt><trkpt lat="43.7969746" lon="12.8169676"><ele>157.66666666666666</ele><time>2026-05-02T11:02:37.194Z</time></trkpt><trkpt lat="43.7970517" lon="12.8171573"><ele>154.33333333333334</ele><time>2026-05-02T11:02:38.186Z</time></trkpt><trkpt lat="43.7971289" lon="12.8173455"><ele>151.0</ele><time>2026-05-02T11:02:39.192Z</time></trkpt><trkpt lat="43.7972028" lon="12.8175266"><ele>149.33333333333334</ele><time>2026-05-02T11:02:40.191Z</time></trkpt><trkpt lat="43.7972761" lon="12.8177147"><ele>147.66666666666666</ele><time>2026-05-02T11:02:41.193Z</time></trkpt><trkpt lat="43.7973617" lon="12.8178992"><ele>146.0</ele><time>2026-05-02T11:02:42.196Z</time></trkpt><trkpt lat="43.7974477" lon="12.8180934"><ele>146.0</ele><time>2026-05-02T11:02:43.193Z</time></trkpt><trkpt lat="43.7975325" lon="12.818282"><ele>146.0</ele><time>2026-05-02T11:02:44.188Z</time></trkpt><trkpt lat="43.7976126" lon="12.8184603"><ele>146.0</ele><time>2026-05-02T11:02:45.195Z</time></trkpt><trkpt lat="43.7976959" lon="12.8186417"><ele>148.66666666666666</ele><time>2026-05-02T11:02:46.191Z</time></trkpt><trkpt lat="43.7977653" lon="12.8188386"><ele>151.33333333333334</ele><time>2026-05-02T11:02:47.187Z</time></trkpt><trkpt lat="43.7978166" lon="12.8190364"><ele>154.0</ele><time>2026-05-02T11:02:48.181Z</time></trkpt><trkpt lat="43.7978533" lon="12.8192456"><ele>153.25</ele><time>2026-05-02T11:02:49.18Z</time></trkpt><trkpt lat="43.7978587" lon="12.8194548"><ele>152.5</ele><time>2026-05-02T11:02:50.181Z</time></trkpt><trkpt lat="43.7978714" lon="12.819652"><ele>151.75</ele><time>2026-05-02T11:02:51.177Z</time></trkpt><trkpt lat="43.7978953" lon="12.8198237"><ele>151.0</ele><time>2026-05-02T11:02:52.178Z</time></trkpt><trkpt lat="43.7979285" lon="12.8199921"><ele>150.25</ele><time>2026-05-02T11:02:53.186Z</time></trkpt><trkpt lat="43.7979948" lon="12.8201516"><ele>149.5</ele><time>2026-05-02T11:02:54.183Z</time></trkpt><trkpt lat="43.7980713" lon="12.8203142"><ele>148.75</ele><time>2026-05-02T11:02:55.181Z</time></trkpt><trkpt lat="43.7981494" lon="12.8204681"><ele>148.0</ele><time>2026-05-02T11:02:56.189Z</time></trkpt><trkpt lat="43.7982277" lon="12.8206073"><ele>148.0</ele><time>2026-05-02T11:02:57.185Z</time></trkpt><trkpt lat="43.7983066" lon="12.8207418"><ele>148.0</ele><time>2026-05-02T11:02:58.181Z</time></trkpt><trkpt lat="43.7984119" lon="12.820875"><ele>148.0</ele><time>2026-05-02T11:02:59.187Z</time></trkpt><trkpt lat="43.7985326" lon="12.8209924"><ele>148.0</ele><time>2026-05-02T11:03:00.18Z</time></trkpt><trkpt lat="43.7986633" lon="12.8210901"><ele>147.66666666666669</ele><time>2026-05-02T11:03:01.186Z</time></trkpt><trkpt lat="43.7988054" lon="12.8211817"><ele>147.33333333333334</ele><time>2026-05-02T11:03:02.19Z</time></trkpt><trkpt lat="43.79895" lon="12.8212769"><ele>147.0</ele><time>2026-05-02T11:03:03.193Z</time></trkpt><trkpt lat="43.7990908" lon="12.821375"><ele>147.0</ele><time>2026-05-02T11:03:04.197Z</time></trkpt><trkpt lat="43.7992357" lon="12.8214785"><ele>147.0</ele><time>2026-05-02T11:03:05.193Z</time></trkpt><trkpt lat="43.7993717" lon="12.8215747"><ele>147.0</ele><time>2026-05-02T11:03:06.195Z</time></trkpt><trkpt lat="43.7994917" lon="12.8216604"><ele>146.5</ele><time>2026-05-02T11:03:07.196Z</time></trkpt><trkpt lat="43.7995996" lon="12.8217332"><ele>146.0</ele><time>2026-05-02T11:03:08.19Z</time></trkpt><trkpt lat="43.7997026" lon="12.8218038"><ele>145.5</ele><time>2026-05-02T11:03:09.194Z</time></trkpt><trkpt lat="43.7998117" lon="12.8218743"><ele>145.0</ele><time>2026-05-02T11:03:10.193Z</time></trkpt><trkpt lat="43.7999174" lon="12.8219724"><ele>144.75</ele><time>2026-05-02T11:03:11.189Z</time></trkpt><trkpt lat="43.8000021" lon="12.8221016"><ele>144.5</ele><time>2026-05-02T11:03:12.199Z</time></trkpt><trkpt lat="43.8000685" lon="12.8222595"><ele>144.25</ele><time>2026-05-02T11:03:13.189Z</time></trkpt><trkpt lat="43.8001553" lon="12.8224277"><ele>144.0</ele><time>2026-05-02T11:03:14.188Z</time></trkpt><trkpt lat="43.8002611" lon="12.8225948"><ele>143.33333333333334</ele><time>2026-05-02T11:03:15.181Z</time></trkpt><trkpt lat="43.8003961" lon="12.8227436"><ele>142.66666666666669</ele><time>2026-05-02T11:03:16.194Z</time></trkpt><trkpt lat="43.8005445" lon="12.8228981"><ele>142.0</ele><time>2026-05-02T11:03:17.185Z</time></trkpt><trkpt lat="43.8006964" lon="12.8230505"><ele>142.0</ele><time>2026-05-02T11:03:18.183Z</time></trkpt><trkpt lat="43.8008477" lon="12.8232087"><ele>142.0</ele><time>2026-05-02T11:03:19.185Z</time></trkpt><trkpt lat="43.8009993" lon="12.82336"><ele>142.0</ele><time>2026-05-02T11:03:20.184Z</time></trkpt><trkpt lat="43.8011415" lon="12.8235191"><ele>141.33333333333334</ele><time>2026-05-02T11:03:21.184Z</time></trkpt><trkpt lat="43.8012734" lon="12.823667"><ele>140.66666666666666</ele><time>2026-05-02T11:03:22.193Z</time></trkpt><trkpt lat="43.8013769" lon="12.8238313"><ele>140.0</ele><time>2026-05-02T11:03:23.191Z</time></trkpt><trkpt lat="43.8014623" lon="12.8240125"><ele>140.0</ele><time>2026-05-02T11:03:24.195Z</time></trkpt><trkpt lat="43.8015318" lon="12.8242138"><ele>140.0</ele><time>2026-05-02T11:03:25.191Z</time></trkpt><trkpt lat="43.8015907" lon="12.8244391"><ele>140.0</ele><time>2026-05-02T11:03:26.194Z</time></trkpt><trkpt lat="43.8016724" lon="12.8246609"><ele>140.0</ele><time>2026-05-02T11:03:27.194Z</time></trkpt><trkpt lat="43.8017714" lon="12.8248859"><ele>140.0</ele><time>2026-05-02T11:03:28.189Z</time></trkpt><trkpt lat="43.8018743" lon="12.8250848"><ele>140.0</ele><time>2026-05-02T11:03:29.189Z</time></trkpt><trkpt lat="43.8019701" lon="12.8252599"><ele>139.0</ele><time>2026-05-02T11:03:30.177Z</time></trkpt><trkpt lat="43.802066" lon="12.8254124"><ele>138.0</ele><time>2026-05-02T11:03:31.187Z</time></trkpt><trkpt lat="43.802176" lon="12.8255547"><ele>137.0</ele><time>2026-05-02T11:03:32.184Z</time></trkpt><trkpt lat="43.8023027" lon="12.8256504"><ele>136.0</ele><time>2026-05-02T11:03:33.187Z</time></trkpt><trkpt lat="43.8024557" lon="12.8257244"><ele>136.0</ele><time>2026-05-02T11:03:34.191Z</time></trkpt><trkpt lat="43.802606" lon="12.825791"><ele>136.0</ele><time>2026-05-02T11:03:35.172Z</time></trkpt><trkpt lat="43.8027713" lon="12.8258478"><ele>136.0</ele><time>2026-05-02T11:03:36.184Z</time></trkpt><trkpt lat="43.8029308" lon="12.8259016"><ele>137.33333333333334</ele><time>2026-05-02T11:03:37.187Z</time></trkpt><trkpt lat="43.8030906" lon="12.825935"><ele>138.66666666666666</ele><time>2026-05-02T11:03:38.187Z</time></trkpt><trkpt lat="43.8032514" lon="12.8259501"><ele>140.0</ele><time>2026-05-02T11:03:39.194Z</time></trkpt><trkpt lat="43.8034108" lon="12.8259493"><ele>142.0</ele><time>2026-05-02T11:03:40.188Z</time></trkpt><trkpt lat="43.8035597" lon="12.8259363"><ele>144.0</ele><time>2026-05-02T11:03:41.185Z</time></trkpt><trkpt lat="43.8037095" lon="12.825913"><ele>146.0</ele><time>2026-05-02T11:03:42.188Z</time></trkpt><trkpt lat="43.8038558" lon="12.8258995"><ele>148.0</ele><time>2026-05-02T11:03:43.191Z</time></trkpt><trkpt lat="43.8039937" lon="12.8258814"><ele>148.0</ele><time>2026-05-02T11:03:44.186Z</time></trkpt><trkpt lat="43.8041307" lon="12.8258689"><ele>148.0</ele><time>2026-05-02T11:03:45.176Z</time></trkpt><trkpt lat="43.8042599" lon="12.8258743"><ele>148.0</ele><time>2026-05-02T11:03:46.19Z</time></trkpt><trkpt lat="43.8043815" lon="12.8258913"><ele>148.0</ele><time>2026-05-02T11:03:47.181Z</time></trkpt><trkpt lat="43.8044884" lon="12.825948"><ele>146.75</ele><time>2026-05-02T11:03:48.183Z</time></trkpt><trkpt lat="43.8045751" lon="12.8260431"><ele>145.5</ele><time>2026-05-02T11:03:49.191Z</time></trkpt><trkpt lat="43.8046694" lon="12.8261391"><ele>144.25</ele><time>2026-05-02T11:03:50.186Z</time></trkpt><trkpt lat="43.8047621" lon="12.8262657"><ele>143.0</ele><time>2026-05-02T11:03:51.185Z</time></trkpt><trkpt lat="43.8048535" lon="12.8264113"><ele>143.0</ele><time>2026-05-02T11:03:52.195Z</time></trkpt><trkpt lat="43.8049448" lon="12.8265602"><ele>143.0</ele><time>2026-05-02T11:03:53.185Z</time></trkpt><trkpt lat="43.8050133" lon="12.8267073"><ele>143.0</ele><time>2026-05-02T11:03:54.186Z</time></trkpt><trkpt lat="43.8050636" lon="12.8268577"><ele>143.0</ele><time>2026-05-02T11:03:55.175Z</time></trkpt><trkpt lat="43.8051129" lon="12.8270098"><ele>139.75</ele><time>2026-05-02T11:03:56.183Z</time></trkpt><trkpt lat="43.8051436" lon="12.8271654"><ele>136.5</ele><time>2026-05-02T11:03:57.188Z</time></trkpt><trkpt lat="43.8051548" lon="12.827335"><ele>133.25</ele><time>2026-05-02T11:03:58.188Z</time></trkpt><trkpt lat="43.8051585" lon="12.8275254"><ele>130.0</ele><time>2026-05-02T11:03:59.193Z</time></trkpt><trkpt lat="43.8051705" lon="12.8277239"><ele>129.33333333333334</ele><time>2026-05-02T11:04:00.187Z</time></trkpt><trkpt lat="43.8051958" lon="12.8279341"><ele>128.66666666666666</ele><time>2026-05-02T11:04:01.186Z</time></trkpt><trkpt lat="43.8052349" lon="12.8281605"><ele>128.0</ele><time>2026-05-02T11:04:02.19Z</time></trkpt><trkpt lat="43.8052795" lon="12.8283975"><ele>126.33333333333333</ele><time>2026-05-02T11:04:03.195Z</time></trkpt><trkpt lat="43.8053266" lon="12.8286216"><ele>124.66666666666666</ele><time>2026-05-02T11:04:04.194Z</time></trkpt><trkpt lat="43.8053708" lon="12.8288244"><ele>123.0</ele><time>2026-05-02T11:04:05.193Z</time></trkpt><trkpt lat="43.8054246" lon="12.8290044"><ele>123.0</ele><time>2026-05-02T11:04:06.197Z</time></trkpt><trkpt lat="43.8054845" lon="12.8291639"><ele>123.0</ele><time>2026-05-02T11:04:07.189Z</time></trkpt><trkpt lat="43.8055608" lon="12.8292975"><ele>123.0</ele><time>2026-05-02T11:04:08.19Z</time></trkpt><trkpt lat="43.8056388" lon="12.829392"><ele>123.0</ele><time>2026-05-02T11:04:09.184Z</time></trkpt><trkpt lat="43.8057367" lon="12.8294599"><ele>123.25</ele><time>2026-05-02T11:04:10.186Z</time></trkpt><trkpt lat="43.8058458" lon="12.8295299"><ele>123.5</ele><time>2026-05-02T11:04:11.184Z</time></trkpt><trkpt lat="43.805957" lon="12.8295728"><ele>123.75</ele><time>2026-05-02T11:04:12.182Z</time></trkpt><trkpt lat="43.8060698" lon="12.8296191"><ele>124.0</ele><time>2026-05-02T11:04:13.183Z</time></trkpt><trkpt lat="43.8061868" lon="12.8296615"><ele>124.0</ele><time>2026-05-02T11:04:14.189Z</time></trkpt><trkpt lat="43.8063054" lon="12.8297083"><ele>124.0</ele><time>2026-05-02T11:04:15.183Z</time></trkpt><trkpt lat="43.8064217" lon="12.8297492"><ele>124.0</ele><time>2026-05-02T11:04:16.186Z</time></trkpt><trkpt lat="43.8065342" lon="12.8297966"><ele>124.0</ele><time>2026-05-02T11:04:17.187Z</time></trkpt><trkpt lat="43.8066407" lon="12.8298403"><ele>124.0</ele><time>2026-05-02T11:04:18.195Z</time></trkpt><trkpt lat="43.8067391" lon="12.8298409"><ele>124.0</ele><time>2026-05-02T11:04:19.196Z</time></trkpt><trkpt lat="43.8068318" lon="12.8297945"><ele>124.0</ele><time>2026-05-02T11:04:20.196Z</time></trkpt><trkpt lat="43.8069258" lon="12.8297146"><ele>124.0</ele><time>2026-05-02T11:04:21.192Z</time></trkpt><trkpt lat="43.8070226" lon="12.8296166"><ele>124.0</ele><time>2026-05-02T11:04:22.194Z</time></trkpt><trkpt lat="43.8071322" lon="12.8295398"><ele>124.75</ele><time>2026-05-02T11:04:23.186Z</time></trkpt><trkpt lat="43.8072499" lon="12.8294977"><ele>125.5</ele><time>2026-05-02T11:04:24.192Z</time></trkpt><trkpt lat="43.8073713" lon="12.8295"><ele>126.25</ele><time>2026-05-02T11:04:25.193Z</time></trkpt><trkpt lat="43.8074961" lon="12.8295499"><ele>127.0</ele><time>2026-05-02T11:04:26.182Z</time></trkpt><trkpt lat="43.8076236" lon="12.8296063"><ele>129.0</ele><time>2026-05-02T11:04:27.189Z</time></trkpt><trkpt lat="43.8077496" lon="12.8296804"><ele>131.0</ele><time>2026-05-02T11:04:28.193Z</time></trkpt><trkpt lat="43.8078786" lon="12.8297461"><ele>133.0</ele><time>2026-05-02T11:04:29.193Z</time></trkpt><trkpt lat="43.8080043" lon="12.8297913"><ele>135.0</ele><time>2026-05-02T11:04:30.198Z</time></trkpt><trkpt lat="43.8081332" lon="12.8298025"><ele>135.0</ele><time>2026-05-02T11:04:31.193Z</time></trkpt><trkpt lat="43.8082595" lon="12.8297882"><ele>135.0</ele><time>2026-05-02T11:04:32.188Z</time></trkpt><trkpt lat="43.8083933" lon="12.8297658"><ele>135.0</ele><time>2026-05-02T11:04:33.191Z</time></trkpt><trkpt lat="43.8085292" lon="12.8297465"><ele>135.0</ele><time>2026-05-02T11:04:34.188Z</time></trkpt><trkpt lat="43.8086658" lon="12.8297239"><ele>138.0</ele><time>2026-05-02T11:04:35.191Z</time></trkpt><trkpt lat="43.8088" lon="12.8297126"><ele>141.0</ele><time>2026-05-02T11:04:36.186Z</time></trkpt><trkpt lat="43.8089122" lon="12.8296967"><ele>144.0</ele><time>2026-05-02T11:04:37.195Z</time></trkpt><trkpt lat="43.8089968" lon="12.829632"><ele>147.0</ele><time>2026-05-02T11:04:38.193Z</time></trkpt><trkpt lat="43.8090614" lon="12.8295296"><ele>150.0</ele><time>2026-05-02T11:04:39.182Z</time></trkpt><trkpt lat="43.8091384" lon="12.829445"><ele>150.0</ele><time>2026-05-02T11:04:40.186Z</time></trkpt><trkpt lat="43.8092173" lon="12.8293835"><ele>150.0</ele><time>2026-05-02T11:04:41.183Z</time></trkpt><trkpt lat="43.8092981" lon="12.8293704"><ele>150.0</ele><time>2026-05-02T11:04:42.191Z</time></trkpt><trkpt lat="43.8093804" lon="12.8293768"><ele>150.0</ele><time>2026-05-02T11:04:43.167Z</time></trkpt><trkpt lat="43.8094613" lon="12.8293981"><ele>150.0</ele><time>2026-05-02T11:04:44.175Z</time></trkpt><trkpt lat="43.809551" lon="12.829423"><ele>150.0</ele><time>2026-05-02T11:04:45.17Z</time></trkpt><trkpt lat="43.8096429" lon="12.8294466"><ele>153.0</ele><time>2026-05-02T11:04:46.165Z</time></trkpt><trkpt lat="43.8097458" lon="12.8294778"><ele>156.0</ele><time>2026-05-02T11:04:47.167Z</time></trkpt><trkpt lat="43.8098463" lon="12.8294962"><ele>159.0</ele><time>2026-05-02T11:04:48.177Z</time></trkpt><trkpt lat="43.8099249" lon="12.829511"><ele>162.0</ele><time>2026-05-02T11:04:49.177Z</time></trkpt><trkpt lat="43.8098652" lon="12.8295848"><ele>165.0</ele><time>2026-05-02T11:04:57.18Z</time></trkpt><trkpt lat="43.8097458" lon="12.829591"><ele>165.0</ele><time>2026-05-02T11:04:59.177Z</time></trkpt><trkpt lat="43.8096604" lon="12.8296004"><ele>165.0</ele><time>2026-05-02T11:05:00.189Z</time></trkpt><trkpt lat="43.8095677" lon="12.8296187"><ele>165.0</ele><time>2026-05-02T11:05:01.175Z</time></trkpt><trkpt lat="43.8094739" lon="12.829639"><ele>165.0</ele><time>2026-05-02T11:05:02.175Z</time></trkpt><trkpt lat="43.8093726" lon="12.8296905"><ele>165.0</ele><time>2026-05-02T11:05:03.174Z</time></trkpt><trkpt lat="43.8092659" lon="12.8297811"><ele>164.0</ele><time>2026-05-02T11:05:04.179Z</time></trkpt><trkpt lat="43.8091534" lon="12.8299132"><ele>163.0</ele><time>2026-05-02T11:05:05.171Z</time></trkpt><trkpt lat="43.8090411" lon="12.8300499"><ele>162.0</ele><time>2026-05-02T11:05:06.173Z</time></trkpt><trkpt lat="43.8089187" lon="12.8302134"><ele>162.0</ele><time>2026-05-02T11:05:07.169Z</time></trkpt><trkpt lat="43.8088207" lon="12.8303937"><ele>162.0</ele><time>2026-05-02T11:05:08.165Z</time></trkpt><trkpt lat="43.8087337" lon="12.8305898"><ele>162.0</ele><time>2026-05-02T11:05:09.169Z</time></trkpt><trkpt lat="43.808658" lon="12.8307978"><ele>162.66666666666666</ele><time>2026-05-02T11:05:10.168Z</time></trkpt><trkpt lat="43.8085842" lon="12.8310091"><ele>163.33333333333331</ele><time>2026-05-02T11:05:11.174Z</time></trkpt><trkpt lat="43.8085175" lon="12.8312297"><ele>164.0</ele><time>2026-05-02T11:05:12.178Z</time></trkpt><trkpt lat="43.8084588" lon="12.8314475"><ele>158.0</ele><time>2026-05-02T11:05:13.171Z</time></trkpt><trkpt lat="43.808411" lon="12.8316613"><ele>152.0</ele><time>2026-05-02T11:05:14.18Z</time></trkpt><trkpt lat="43.8083736" lon="12.8318651"><ele>146.0</ele><time>2026-05-02T11:05:15.166Z</time></trkpt><trkpt lat="43.808325" lon="12.8320499"><ele>146.0</ele><time>2026-05-02T11:05:16.169Z</time></trkpt><trkpt lat="43.8082614" lon="12.8322105"><ele>146.0</ele><time>2026-05-02T11:05:17.169Z</time></trkpt><trkpt lat="43.808171" lon="12.8323742"><ele>146.0</ele><time>2026-05-02T11:05:18.18Z</time></trkpt><trkpt lat="43.8080493" lon="12.8325096"><ele>146.0</ele><time>2026-05-02T11:05:19.17Z</time></trkpt><trkpt lat="43.8079247" lon="12.8326461"><ele>151.0</ele><time>2026-05-02T11:05:20.173Z</time></trkpt><trkpt lat="43.8078081" lon="12.8328052"><ele>156.0</ele><time>2026-05-02T11:05:21.171Z</time></trkpt><trkpt lat="43.807703" lon="12.8329858"><ele>161.0</ele><time>2026-05-02T11:05:22.171Z</time></trkpt><trkpt lat="43.8076103" lon="12.8331875"><ele>153.66666666666666</ele><time>2026-05-02T11:05:23.176Z</time></trkpt><trkpt lat="43.807532" lon="12.8333935"><ele>146.33333333333334</ele><time>2026-05-02T11:05:24.169Z</time></trkpt><trkpt lat="43.8074498" lon="12.8336108"><ele>139.0</ele><time>2026-05-02T11:05:25.168Z</time></trkpt><trkpt lat="43.8073764" lon="12.8338179"><ele>139.0</ele><time>2026-05-02T11:05:26.168Z</time></trkpt><trkpt lat="43.8073282" lon="12.8340492"><ele>139.0</ele><time>2026-05-02T11:05:27.171Z</time></trkpt><trkpt lat="43.8073027" lon="12.8342837"><ele>139.0</ele><time>2026-05-02T11:05:28.169Z</time></trkpt><trkpt lat="43.8072838" lon="12.8345246"><ele>139.0</ele><time>2026-05-02T11:05:29.174Z</time></trkpt><trkpt lat="43.8072646" lon="12.834758"><ele>139.0</ele><time>2026-05-02T11:05:30.18Z</time></trkpt><trkpt lat="43.8072384" lon="12.8349885"><ele>139.0</ele><time>2026-05-02T11:05:31.164Z</time></trkpt><trkpt lat="43.8072131" lon="12.8352147"><ele>138.0</ele><time>2026-05-02T11:05:32.182Z</time></trkpt><trkpt lat="43.8071852" lon="12.835434"><ele>137.0</ele><time>2026-05-02T11:05:33.172Z</time></trkpt><trkpt lat="43.8071593" lon="12.8356307"><ele>136.0</ele><time>2026-05-02T11:05:34.167Z</time></trkpt><trkpt lat="43.8071445" lon="12.8357904"><ele>135.0</ele><time>2026-05-02T11:05:35.175Z</time></trkpt><trkpt lat="43.8071488" lon="12.8359455"><ele>131.0</ele><time>2026-05-02T11:05:36.17Z</time></trkpt><trkpt lat="43.8071802" lon="12.8360924"><ele>127.0</ele><time>2026-05-02T11:05:37.186Z</time></trkpt><trkpt lat="43.8072695" lon="12.8362155"><ele>123.0</ele><time>2026-05-02T11:05:38.167Z</time></trkpt><trkpt lat="43.8073884" lon="12.8362907"><ele>119.0</ele><time>2026-05-02T11:05:39.177Z</time></trkpt><trkpt lat="43.8075315" lon="12.8363298"><ele>122.5</ele><time>2026-05-02T11:05:40.174Z</time></trkpt><trkpt lat="43.8076823" lon="12.8363532"><ele>126.0</ele><time>2026-05-02T11:05:41.174Z</time></trkpt><trkpt lat="43.8078235" lon="12.8363962"><ele>129.5</ele><time>2026-05-02T11:05:42.168Z</time></trkpt><trkpt lat="43.8079557" lon="12.8364865"><ele>133.0</ele><time>2026-05-02T11:05:43.173Z</time></trkpt><trkpt lat="43.8080645" lon="12.836642"><ele>129.25</ele><time>2026-05-02T11:05:44.174Z</time></trkpt><trkpt lat="43.8081398" lon="12.8368064"><ele>125.5</ele><time>2026-05-02T11:05:45.179Z</time></trkpt><trkpt lat="43.8081756" lon="12.8369596"><ele>121.75</ele><time>2026-05-02T11:05:46.175Z</time></trkpt><trkpt lat="43.8081678" lon="12.8371174"><ele>118.0</ele><time>2026-05-02T11:05:47.174Z</time></trkpt><trkpt lat="43.8081155" lon="12.837279"><ele>118.0</ele><time>2026-05-02T11:05:48.174Z</time></trkpt><trkpt lat="43.8080415" lon="12.8374417"><ele>118.0</ele><time>2026-05-02T11:05:49.169Z</time></trkpt><trkpt lat="43.8079535" lon="12.8376019"><ele>118.0</ele><time>2026-05-02T11:05:50.169Z</time></trkpt><trkpt lat="43.8078709" lon="12.8377735"><ele>118.0</ele><time>2026-05-02T11:05:51.165Z</time></trkpt><trkpt lat="43.80778" lon="12.8379578"><ele>118.0</ele><time>2026-05-02T11:05:52.174Z</time></trkpt><trkpt lat="43.8076846" lon="12.8381567"><ele>118.0</ele><time>2026-05-02T11:05:53.165Z</time></trkpt><trkpt lat="43.8075897" lon="12.8383615"><ele>118.0</ele><time>2026-05-02T11:05:54.166Z</time></trkpt><trkpt lat="43.8074969" lon="12.8385655"><ele>118.66666666666667</ele><time>2026-05-02T11:05:55.183Z</time></trkpt><trkpt lat="43.8074073" lon="12.8387606"><ele>119.33333333333334</ele><time>2026-05-02T11:05:56.177Z</time></trkpt><trkpt lat="43.8073232" lon="12.8389419"><ele>120.0</ele><time>2026-05-02T11:05:57.179Z</time></trkpt><trkpt lat="43.8072462" lon="12.8391384"><ele>121.66666666666666</ele><time>2026-05-02T11:05:58.18Z</time></trkpt><trkpt lat="43.8071985" lon="12.8393389"><ele>123.33333333333333</ele><time>2026-05-02T11:05:59.185Z</time></trkpt><trkpt lat="43.8071922" lon="12.8395547"><ele>125.0</ele><time>2026-05-02T11:06:00.177Z</time></trkpt><trkpt lat="43.8072218" lon="12.8397514"><ele>125.0</ele><time>2026-05-02T11:06:01.177Z</time></trkpt><trkpt lat="43.8072566" lon="12.839952"><ele>125.0</ele><time>2026-05-02T11:06:02.177Z</time></trkpt><trkpt lat="43.8072839" lon="12.8401546"><ele>125.0</ele><time>2026-05-02T11:06:03.173Z</time></trkpt><trkpt lat="43.8073101" lon="12.8403463"><ele>125.0</ele><time>2026-05-02T11:06:04.176Z</time></trkpt><trkpt lat="43.8073305" lon="12.8404973"><ele>125.5</ele><time>2026-05-02T11:06:05.17Z</time></trkpt><trkpt lat="43.8073507" lon="12.8406543"><ele>126.0</ele><time>2026-05-02T11:06:06.176Z</time></trkpt><trkpt lat="43.8074358" lon="12.8407868"><ele>126.5</ele><time>2026-05-02T11:06:07.18Z</time></trkpt><trkpt lat="43.8075421" lon="12.8408473"><ele>127.0</ele><time>2026-05-02T11:06:08.18Z</time></trkpt><trkpt lat="43.8076811" lon="12.8408812"><ele>127.0</ele><time>2026-05-02T11:06:09.168Z</time></trkpt><trkpt lat="43.8078362" lon="12.840912"><ele>127.0</ele><time>2026-05-02T11:06:10.17Z</time></trkpt><trkpt lat="43.8079726" lon="12.8409437"><ele>127.0</ele><time>2026-05-02T11:06:11.175Z</time></trkpt><trkpt lat="43.8080904" lon="12.8410016"><ele>127.0</ele><time>2026-05-02T11:06:12.181Z</time></trkpt><trkpt lat="43.8081839" lon="12.8410851"><ele>128.66666666666669</ele><time>2026-05-02T11:06:13.18Z</time></trkpt><trkpt lat="43.8082484" lon="12.8411967"><ele>130.33333333333334</ele><time>2026-05-02T11:06:14.177Z</time></trkpt><trkpt lat="43.8082655" lon="12.8413068"><ele>132.0</ele><time>2026-05-02T11:06:15.176Z</time></trkpt><trkpt lat="43.8082688" lon="12.8413954"><ele>133.66666666666666</ele><time>2026-05-02T11:06:16.175Z</time></trkpt><trkpt lat="43.8083174" lon="12.8415086"><ele>135.33333333333331</ele><time>2026-05-02T11:06:18.176Z</time></trkpt><trkpt lat="43.8083734" lon="12.8415672"><ele>137.0</ele><time>2026-05-02T11:06:20.176Z</time></trkpt><trkpt lat="43.8084324" lon="12.8416085"><ele>137.0</ele><time>2026-05-02T11:06:44.271Z</time></trkpt><trkpt lat="43.8084878" lon="12.8417024"><ele>137.0</ele><time>2026-05-02T11:06:46.216Z</time></trkpt><trkpt lat="43.8085189" lon="12.8418292"><ele>137.0</ele><time>2026-05-02T11:06:47.181Z</time></trkpt><trkpt lat="43.8085437" lon="12.8419727"><ele>137.0</ele><time>2026-05-02T11:06:48.181Z</time></trkpt><trkpt lat="43.8085446" lon="12.8421287"><ele>137.0</ele><time>2026-05-02T11:06:49.182Z</time></trkpt><trkpt lat="43.8085354" lon="12.8422993"><ele>135.75</ele><time>2026-05-02T11:06:50.182Z</time></trkpt><trkpt lat="43.8085281" lon="12.8424808"><ele>134.5</ele><time>2026-05-02T11:06:51.179Z</time></trkpt><trkpt lat="43.8085447" lon="12.8426521"><ele>133.25</ele><time>2026-05-02T11:06:52.177Z</time></trkpt><trkpt lat="43.8085825" lon="12.8428194"><ele>132.0</ele><time>2026-05-02T11:06:53.174Z</time></trkpt><trkpt lat="43.8086286" lon="12.8429997"><ele>132.0</ele><time>2026-05-02T11:06:54.18Z</time></trkpt><trkpt lat="43.8086807" lon="12.8431841"><ele>132.0</ele><time>2026-05-02T11:06:55.181Z</time></trkpt><trkpt lat="43.8087388" lon="12.8433685"><ele>132.0</ele><time>2026-05-02T11:06:56.174Z</time></trkpt><trkpt lat="43.8087962" lon="12.8435276"><ele>132.0</ele><time>2026-05-02T11:06:57.173Z</time></trkpt><trkpt lat="43.8088704" lon="12.8436692"><ele>132.6</ele><time>2026-05-02T11:06:58.177Z</time></trkpt><trkpt lat="43.8089595" lon="12.8437858"><ele>133.2</ele><time>2026-05-02T11:06:59.176Z</time></trkpt><trkpt lat="43.8090564" lon="12.8438547"><ele>133.8</ele><time>2026-05-02T11:07:00.18Z</time></trkpt><trkpt lat="43.8091446" lon="12.8438854"><ele>134.4</ele><time>2026-05-02T11:07:01.171Z</time></trkpt><trkpt lat="43.8092144" lon="12.8439028"><ele>135.0</ele><time>2026-05-02T11:07:02.177Z</time></trkpt><trkpt lat="43.8092978" lon="12.843833"><ele>135.0</ele><time>2026-05-02T11:07:04.179Z</time></trkpt><trkpt lat="43.8092988" lon="12.8437404"><ele>135.0</ele><time>2026-05-02T11:07:05.178Z</time></trkpt><trkpt lat="43.8092907" lon="12.8435999"><ele>135.0</ele><time>2026-05-02T11:07:06.179Z</time></trkpt><trkpt lat="43.8092897" lon="12.8434307"><ele>135.0</ele><time>2026-05-02T11:07:07.168Z</time></trkpt><trkpt lat="43.8092964" lon="12.8432741"><ele>135.0</ele><time>2026-05-02T11:07:08.178Z</time></trkpt><trkpt lat="43.8093212" lon="12.8431295"><ele>134.6</ele><time>2026-05-02T11:07:09.174Z</time></trkpt><trkpt lat="43.8093694" lon="12.8429973"><ele>134.2</ele><time>2026-05-02T11:07:10.169Z</time></trkpt><trkpt lat="43.8094315" lon="12.8428795"><ele>133.8</ele><time>2026-05-02T11:07:11.167Z</time></trkpt><trkpt lat="43.8095116" lon="12.8427772"><ele>133.4</ele><time>2026-05-02T11:07:12.168Z</time></trkpt><trkpt lat="43.8096004" lon="12.8426865"><ele>133.0</ele><time>2026-05-02T11:07:13.167Z</time></trkpt><trkpt lat="43.8096977" lon="12.8426059"><ele>130.75</ele><time>2026-05-02T11:07:14.174Z</time></trkpt><trkpt lat="43.8098128" lon="12.8425242"><ele>128.5</ele><time>2026-05-02T11:07:15.171Z</time></trkpt><trkpt lat="43.809944" lon="12.8424348"><ele>126.25</ele><time>2026-05-02T11:07:16.165Z</time></trkpt><trkpt lat="43.810081" lon="12.842344"><ele>124.0</ele><time>2026-05-02T11:07:17.17Z</time></trkpt><trkpt lat="43.8102118" lon="12.8422581"><ele>122.5</ele><time>2026-05-02T11:07:18.169Z</time></trkpt><trkpt lat="43.8103363" lon="12.8421774"><ele>121.0</ele><time>2026-05-02T11:07:19.186Z</time></trkpt><trkpt lat="43.8104486" lon="12.8420691"><ele>119.5</ele><time>2026-05-02T11:07:20.177Z</time></trkpt><trkpt lat="43.8105501" lon="12.8419603"><ele>118.0</ele><time>2026-05-02T11:07:21.179Z</time></trkpt><trkpt lat="43.8106531" lon="12.8418592"><ele>116.75</ele><time>2026-05-02T11:07:22.178Z</time></trkpt><trkpt lat="43.8107561" lon="12.8417724"><ele>115.5</ele><time>2026-05-02T11:07:23.177Z</time></trkpt><trkpt lat="43.8108585" lon="12.8416856"><ele>114.25</ele><time>2026-05-02T11:07:24.178Z</time></trkpt><trkpt lat="43.8109541" lon="12.8416013"><ele>113.0</ele><time>2026-05-02T11:07:25.186Z</time></trkpt><trkpt lat="43.8110448" lon="12.8415222"><ele>111.80000000000001</ele><time>2026-05-02T11:07:26.181Z</time></trkpt><trkpt lat="43.8111405" lon="12.8414623"><ele>110.60000000000001</ele><time>2026-05-02T11:07:27.184Z</time></trkpt><trkpt lat="43.8112429" lon="12.8414378"><ele>109.39999999999999</ele><time>2026-05-02T11:07:28.187Z</time></trkpt><trkpt lat="43.8113479" lon="12.8414656"><ele>108.19999999999999</ele><time>2026-05-02T11:07:29.181Z</time></trkpt><trkpt lat="43.8114297" lon="12.841552"><ele>107.0</ele><time>2026-05-02T11:07:30.175Z</time></trkpt><trkpt lat="43.8115066" lon="12.8416887"><ele>109.33333333333333</ele><time>2026-05-02T11:07:31.185Z</time></trkpt><trkpt lat="43.8115972" lon="12.8418513"><ele>111.66666666666666</ele><time>2026-05-02T11:07:32.181Z</time></trkpt><trkpt lat="43.8116999" lon="12.8420058"><ele>114.0</ele><time>2026-05-02T11:07:33.183Z</time></trkpt><trkpt lat="43.8118162" lon="12.8421442"><ele>112.5</ele><time>2026-05-02T11:07:34.175Z</time></trkpt><trkpt lat="43.8119514" lon="12.8422534"><ele>111.0</ele><time>2026-05-02T11:07:35.179Z</time></trkpt><trkpt lat="43.8120794" lon="12.8423309"><ele>109.5</ele><time>2026-05-02T11:07:36.176Z</time></trkpt><trkpt lat="43.8121972" lon="12.8424103"><ele>108.0</ele><time>2026-05-02T11:07:37.182Z</time></trkpt><trkpt lat="43.8123119" lon="12.8424656"><ele>108.0</ele><time>2026-05-02T11:07:38.175Z</time></trkpt><trkpt lat="43.8124241" lon="12.8424889"><ele>108.00000000000001</ele><time>2026-05-02T11:07:39.18Z</time></trkpt><trkpt lat="43.8125372" lon="12.8424784"><ele>108.00000000000001</ele><time>2026-05-02T11:07:40.177Z</time></trkpt><trkpt lat="43.8126511" lon="12.8424462"><ele>108.0</ele><time>2026-05-02T11:07:41.176Z</time></trkpt><trkpt lat="43.8127527" lon="12.8424322"><ele>108.0</ele><time>2026-05-02T11:07:42.177Z</time></trkpt><trkpt lat="43.8128482" lon="12.842447"><ele>108.2</ele><time>2026-05-02T11:07:43.172Z</time></trkpt><trkpt lat="43.8129357" lon="12.842492"><ele>108.4</ele><time>2026-05-02T11:07:44.179Z</time></trkpt><trkpt lat="43.8130068" lon="12.8425797"><ele>108.60000000000001</ele><time>2026-05-02T11:07:45.175Z</time></trkpt><trkpt lat="43.8130723" lon="12.8427036"><ele>108.80000000000001</ele><time>2026-05-02T11:07:46.166Z</time></trkpt><trkpt lat="43.8131528" lon="12.8428433"><ele>109.0</ele><time>2026-05-02T11:07:47.166Z</time></trkpt><trkpt lat="43.8132466" lon="12.842975"><ele>109.0</ele><time>2026-05-02T11:07:48.162Z</time></trkpt><trkpt lat="43.8133392" lon="12.8431109"><ele>109.0</ele><time>2026-05-02T11:07:49.175Z</time></trkpt><trkpt lat="43.8134283" lon="12.8432293"><ele>109.0</ele><time>2026-05-02T11:07:50.164Z</time></trkpt><trkpt lat="43.8135187" lon="12.8433093"><ele>109.0</ele><time>2026-05-02T11:07:51.173Z</time></trkpt><trkpt lat="43.8136093" lon="12.8433534"><ele>110.4</ele><time>2026-05-02T11:07:52.177Z</time></trkpt><trkpt lat="43.8137057" lon="12.8433452"><ele>111.80000000000001</ele><time>2026-05-02T11:07:53.177Z</time></trkpt><trkpt lat="43.8137962" lon="12.8432796"><ele>113.19999999999999</ele><time>2026-05-02T11:07:54.174Z</time></trkpt><trkpt lat="43.8138667" lon="12.843172"><ele>114.6</ele><time>2026-05-02T11:07:55.177Z</time></trkpt><trkpt lat="43.8139204" lon="12.843017"><ele>116.0</ele><time>2026-05-02T11:07:56.169Z</time></trkpt><trkpt lat="43.8139511" lon="12.8428723"><ele>116.0</ele><time>2026-05-02T11:07:57.162Z</time></trkpt><trkpt lat="43.8139613" lon="12.8427015"><ele>116.0</ele><time>2026-05-02T11:07:58.166Z</time></trkpt><trkpt lat="43.8139649" lon="12.8425246"><ele>116.0</ele><time>2026-05-02T11:07:59.164Z</time></trkpt><trkpt lat="43.8139814" lon="12.8423625"><ele>116.0</ele><time>2026-05-02T11:08:00.169Z</time></trkpt><trkpt lat="43.814028" lon="12.8422203"><ele>112.75</ele><time>2026-05-02T11:08:01.174Z</time></trkpt><trkpt lat="43.8141024" lon="12.8420642"><ele>109.5</ele><time>2026-05-02T11:08:02.174Z</time></trkpt><trkpt lat="43.8141846" lon="12.84191"><ele>106.25</ele><time>2026-05-02T11:08:03.163Z</time></trkpt><trkpt lat="43.814271" lon="12.8417288"><ele>103.0</ele><time>2026-05-02T11:08:04.173Z</time></trkpt><trkpt lat="43.8143632" lon="12.8415167"><ele>102.5</ele><time>2026-05-02T11:08:05.176Z</time></trkpt><trkpt lat="43.8144581" lon="12.841325"><ele>102.0</ele><time>2026-05-02T11:08:06.174Z</time></trkpt><trkpt lat="43.8145242" lon="12.84116"><ele>101.5</ele><time>2026-05-02T11:08:07.17Z</time></trkpt><trkpt lat="43.814593" lon="12.8410145"><ele>101.0</ele><time>2026-05-02T11:08:08.171Z</time></trkpt><trkpt lat="43.8146584" lon="12.8408966"><ele>100.99999999999999</ele><time>2026-05-02T11:08:09.178Z</time></trkpt><trkpt lat="43.814725" lon="12.8408203"><ele>101.0</ele><time>2026-05-02T11:08:10.18Z</time></trkpt><trkpt lat="43.8148087" lon="12.8407728"><ele>101.0</ele><time>2026-05-02T11:08:11.178Z</time></trkpt><trkpt lat="43.8148828" lon="12.8407785"><ele>101.0</ele><time>2026-05-02T11:08:12.176Z</time></trkpt><trkpt lat="43.8149249" lon="12.8408485"><ele>100.99999999999999</ele><time>2026-05-02T11:08:13.166Z</time></trkpt><trkpt lat="43.8149714" lon="12.8409286"><ele>101.0</ele><time>2026-05-02T11:08:14.173Z</time></trkpt><trkpt lat="43.8150321" lon="12.8410562"><ele>101.0</ele><time>2026-05-02T11:08:15.168Z</time></trkpt><trkpt lat="43.8151141" lon="12.8411941"><ele>101.0</ele><time>2026-05-02T11:08:16.163Z</time></trkpt><trkpt lat="43.8152155" lon="12.8413389"><ele>101.0</ele><time>2026-05-02T11:08:17.171Z</time></trkpt><trkpt lat="43.8153483" lon="12.8415016"><ele>101.25</ele><time>2026-05-02T11:08:18.169Z</time></trkpt><trkpt lat="43.8154757" lon="12.8416478"><ele>101.5</ele><time>2026-05-02T11:08:19.165Z</time></trkpt><trkpt lat="43.8155645" lon="12.8417899"><ele>101.75</ele><time>2026-05-02T11:08:20.168Z</time></trkpt><trkpt lat="43.8156359" lon="12.8419377"><ele>102.0</ele><time>2026-05-02T11:08:21.166Z</time></trkpt><trkpt lat="43.8156858" lon="12.8421131"><ele>102.8</ele><time>2026-05-02T11:08:22.171Z</time></trkpt><trkpt lat="43.8157263" lon="12.8422696"><ele>103.6</ele><time>2026-05-02T11:08:23.166Z</time></trkpt><trkpt lat="43.8157797" lon="12.8423903"><ele>104.39999999999999</ele><time>2026-05-02T11:08:24.171Z</time></trkpt><trkpt lat="43.8158634" lon="12.8424869"><ele>105.19999999999999</ele><time>2026-05-02T11:08:25.182Z</time></trkpt><trkpt lat="43.8159606" lon="12.8425486"><ele>106.0</ele><time>2026-05-02T11:08:26.174Z</time></trkpt><trkpt lat="43.8160536" lon="12.8425528"><ele>106.0</ele><time>2026-05-02T11:08:27.165Z</time></trkpt><trkpt lat="43.8161429" lon="12.8425234"><ele>106.0</ele><time>2026-05-02T11:08:28.174Z</time></trkpt><trkpt lat="43.8162079" lon="12.8424608"><ele>106.0</ele><time>2026-05-02T11:08:29.175Z</time></trkpt><trkpt lat="43.8162608" lon="12.8423666"><ele>106.0</ele><time>2026-05-02T11:08:30.175Z</time></trkpt><trkpt lat="43.8163228" lon="12.8422435"><ele>106.0</ele><time>2026-05-02T11:08:31.17Z</time></trkpt><trkpt lat="43.8163981" lon="12.8420938"><ele>106.0</ele><time>2026-05-02T11:08:32.171Z</time></trkpt><trkpt lat="43.8164791" lon="12.8419405"><ele>106.0</ele><time>2026-05-02T11:08:33.175Z</time></trkpt><trkpt lat="43.8165622" lon="12.8417735"><ele>106.0</ele><time>2026-05-02T11:08:34.164Z</time></trkpt><trkpt lat="43.8166532" lon="12.8416206"><ele>106.0</ele><time>2026-05-02T11:08:35.183Z</time></trkpt><trkpt lat="43.8167637" lon="12.8415169"><ele>104.33333333333334</ele><time>2026-05-02T11:08:36.177Z</time></trkpt><trkpt lat="43.8169014" lon="12.8414648"><ele>102.66666666666666</ele><time>2026-05-02T11:08:37.175Z</time></trkpt><trkpt lat="43.8170549" lon="12.8414356"><ele>101.0</ele><time>2026-05-02T11:08:38.174Z</time></trkpt><trkpt lat="43.8172142" lon="12.8414043"><ele>101.0</ele><time>2026-05-02T11:08:39.176Z</time></trkpt><trkpt lat="43.8173809" lon="12.8413744"><ele>101.0</ele><time>2026-05-02T11:08:40.179Z</time></trkpt><trkpt lat="43.8175444" lon="12.8413302"><ele>101.0</ele><time>2026-05-02T11:08:41.181Z</time></trkpt><trkpt lat="43.8177037" lon="12.8412829"><ele>101.75</ele><time>2026-05-02T11:08:42.178Z</time></trkpt><trkpt lat="43.8178554" lon="12.8412603"><ele>102.5</ele><time>2026-05-02T11:08:43.177Z</time></trkpt><trkpt lat="43.8180057" lon="12.8412467"><ele>103.25</ele><time>2026-05-02T11:08:44.18Z</time></trkpt><trkpt lat="43.818143" lon="12.8412703"><ele>104.0</ele><time>2026-05-02T11:08:45.178Z</time></trkpt><trkpt lat="43.8182955" lon="12.8413346"><ele>104.0</ele><time>2026-05-02T11:08:46.179Z</time></trkpt><trkpt lat="43.8184622" lon="12.8413749"><ele>104.0</ele><time>2026-05-02T11:08:47.181Z</time></trkpt><trkpt lat="43.818637" lon="12.8413978"><ele>104.0</ele><time>2026-05-02T11:08:48.172Z</time></trkpt><trkpt lat="43.8187982" lon="12.841403"><ele>104.0</ele><time>2026-05-02T11:08:49.175Z</time></trkpt><trkpt lat="43.8189463" lon="12.8414088"><ele>104.0</ele><time>2026-05-02T11:08:50.176Z</time></trkpt><trkpt lat="43.8190893" lon="12.8414002"><ele>104.0</ele><time>2026-05-02T11:08:51.169Z</time></trkpt><trkpt lat="43.8192332" lon="12.8413909"><ele>104.0</ele><time>2026-05-02T11:08:52.173Z</time></trkpt><trkpt lat="43.8193782" lon="12.841396"><ele>104.0</ele><time>2026-05-02T11:08:53.171Z</time></trkpt><trkpt lat="43.819534" lon="12.8414141"><ele>104.0</ele><time>2026-05-02T11:08:54.172Z</time></trkpt><trkpt lat="43.8196966" lon="12.8414419"><ele>104.0</ele><time>2026-05-02T11:08:55.174Z</time></trkpt><trkpt lat="43.8198538" lon="12.8414544"><ele>104.0</ele><time>2026-05-02T11:08:56.171Z</time></trkpt><trkpt lat="43.8200072" lon="12.8414698"><ele>104.0</ele><time>2026-05-02T11:08:57.178Z</time></trkpt><trkpt lat="43.8201579" lon="12.8415083"><ele>104.0</ele><time>2026-05-02T11:08:58.178Z</time></trkpt><trkpt lat="43.820312" lon="12.8415556"><ele>102.0</ele><time>2026-05-02T11:08:59.171Z</time></trkpt><trkpt lat="43.8204699" lon="12.8416264"><ele>100.0</ele><time>2026-05-02T11:09:00.176Z</time></trkpt><trkpt lat="43.8206208" lon="12.8416912"><ele>98.0</ele><time>2026-05-02T11:09:01.173Z</time></trkpt><trkpt lat="43.820768" lon="12.8417418"><ele>98.0</ele><time>2026-05-02T11:09:02.169Z</time></trkpt><trkpt lat="43.8208998" lon="12.8417585"><ele>98.0</ele><time>2026-05-02T11:09:03.176Z</time></trkpt><trkpt lat="43.821014" lon="12.8417442"><ele>98.0</ele><time>2026-05-02T11:09:04.183Z</time></trkpt><trkpt lat="43.8211292" lon="12.8416876"><ele>98.0</ele><time>2026-05-02T11:09:05.176Z</time></trkpt><trkpt lat="43.8212476" lon="12.8416208"><ele>97.80000000000001</ele><time>2026-05-02T11:09:06.178Z</time></trkpt><trkpt lat="43.821361" lon="12.8415708"><ele>97.6</ele><time>2026-05-02T11:09:07.176Z</time></trkpt><trkpt lat="43.8214589" lon="12.8415493"><ele>97.4</ele><time>2026-05-02T11:09:08.181Z</time></trkpt><trkpt lat="43.8215444" lon="12.8415724"><ele>97.19999999999999</ele><time>2026-05-02T11:09:09.175Z</time></trkpt><trkpt lat="43.8216565" lon="12.8416207"><ele>97.0</ele><time>2026-05-02T11:09:10.178Z</time></trkpt><trkpt lat="43.8217841" lon="12.8416668"><ele>96.25</ele><time>2026-05-02T11:09:11.177Z</time></trkpt><trkpt lat="43.8219223" lon="12.8417104"><ele>95.5</ele><time>2026-05-02T11:09:12.187Z</time></trkpt><trkpt lat="43.8220688" lon="12.8417596"><ele>94.75</ele><time>2026-05-02T11:09:13.181Z</time></trkpt><trkpt lat="43.8222028" lon="12.8418094"><ele>94.0</ele><time>2026-05-02T11:09:14.178Z</time></trkpt><trkpt lat="43.8223045" lon="12.8418468"><ele>94.0</ele><time>2026-05-02T11:09:15.179Z</time></trkpt><trkpt lat="43.822384" lon="12.8418701"><ele>94.0</ele><time>2026-05-02T11:09:16.178Z</time></trkpt><trkpt lat="43.8224885" lon="12.8418814"><ele>94.0</ele><time>2026-05-02T11:09:18.174Z</time></trkpt><trkpt lat="43.8225816" lon="12.8417608"><ele>94.0</ele><time>2026-05-02T11:09:20.173Z</time></trkpt><trkpt lat="43.822607" lon="12.8416324"><ele>94.0</ele><time>2026-05-02T11:09:21.172Z</time></trkpt><trkpt lat="43.8226286" lon="12.8414802"><ele>93.4</ele><time>2026-05-02T11:09:22.179Z</time></trkpt><trkpt lat="43.8226569" lon="12.8413224"><ele>92.80000000000001</ele><time>2026-05-02T11:09:23.174Z</time></trkpt><trkpt lat="43.822689" lon="12.8411762"><ele>92.19999999999999</ele><time>2026-05-02T11:09:24.176Z</time></trkpt><trkpt lat="43.8227184" lon="12.8410327"><ele>91.6</ele><time>2026-05-02T11:09:25.179Z</time></trkpt><trkpt lat="43.8227357" lon="12.8408906"><ele>91.0</ele><time>2026-05-02T11:09:26.174Z</time></trkpt><trkpt lat="43.8227305" lon="12.8407548"><ele>91.0</ele><time>2026-05-02T11:09:27.184Z</time></trkpt><trkpt lat="43.8227068" lon="12.8406156"><ele>91.0</ele><time>2026-05-02T11:09:28.184Z</time></trkpt><trkpt lat="43.822653" lon="12.8404878"><ele>91.0</ele><time>2026-05-02T11:09:29.181Z</time></trkpt><trkpt lat="43.8225941" lon="12.8403801"><ele>91.0</ele><time>2026-05-02T11:09:30.171Z</time></trkpt><trkpt lat="43.8225439" lon="12.8402794"><ele>91.0</ele><time>2026-05-02T11:09:31.175Z</time></trkpt><trkpt lat="43.8225143" lon="12.8401748"><ele>91.0</ele><time>2026-05-02T11:09:32.169Z</time></trkpt><trkpt lat="43.8225048" lon="12.8400534"><ele>91.0</ele><time>2026-05-02T11:09:33.165Z</time></trkpt><trkpt lat="43.8224983" lon="12.8399386"><ele>91.0</ele><time>2026-05-02T11:09:34.17Z</time></trkpt><trkpt lat="43.8224682" lon="12.8398384"><ele>91.0</ele><time>2026-05-02T11:09:35.172Z</time></trkpt><trkpt lat="43.8224165" lon="12.8397476"><ele>91.0</ele><time>2026-05-02T11:09:36.174Z</time></trkpt><trkpt lat="43.8223624" lon="12.8396378"><ele>91.0</ele><time>2026-05-02T11:09:37.168Z</time></trkpt><trkpt lat="43.8223131" lon="12.8395083"><ele>91.0</ele><time>2026-05-02T11:09:38.18Z</time></trkpt><trkpt lat="43.8222849" lon="12.8393464"><ele>91.0</ele><time>2026-05-02T11:09:39.174Z</time></trkpt><trkpt lat="43.822268" lon="12.8391689"><ele>91.0</ele><time>2026-05-02T11:09:40.165Z</time></trkpt><trkpt lat="43.822259" lon="12.8390118"><ele>91.0</ele><time>2026-05-02T11:09:41.171Z</time></trkpt><trkpt lat="43.8222598" lon="12.8388769"><ele>91.8</ele><time>2026-05-02T11:09:42.17Z</time></trkpt><trkpt lat="43.8223056" lon="12.8387589"><ele>92.6</ele><time>2026-05-02T11:09:44.178Z</time></trkpt><trkpt lat="43.8224195" lon="12.8387634"><ele>93.4</ele><time>2026-05-02T11:09:46.178Z</time></trkpt><trkpt lat="43.8225163" lon="12.8387897"><ele>94.2</ele><time>2026-05-02T11:09:47.174Z</time></trkpt><trkpt lat="43.8226207" lon="12.8388174"><ele>95.0</ele><time>2026-05-02T11:09:48.172Z</time></trkpt><trkpt lat="43.8227326" lon="12.8388442"><ele>95.5</ele><time>2026-05-02T11:09:49.176Z</time></trkpt><trkpt lat="43.8228539" lon="12.838871"><ele>96.0</ele><time>2026-05-02T11:09:50.174Z</time></trkpt><trkpt lat="43.8229885" lon="12.8389019"><ele>96.5</ele><time>2026-05-02T11:09:51.169Z</time></trkpt><trkpt lat="43.82313" lon="12.8389365"><ele>97.0</ele><time>2026-05-02T11:09:52.174Z</time></trkpt><trkpt lat="43.8232702" lon="12.8389862"><ele>97.0</ele><time>2026-05-02T11:09:53.173Z</time></trkpt><trkpt lat="43.8234033" lon="12.8390776"><ele>97.0</ele><time>2026-05-02T11:09:54.175Z</time></trkpt><trkpt lat="43.823529" lon="12.8392052"><ele>97.0</ele><time>2026-05-02T11:09:55.176Z</time></trkpt><trkpt lat="43.8236605" lon="12.8393469"><ele>95.33333333333334</ele><time>2026-05-02T11:09:56.183Z</time></trkpt><trkpt lat="43.8237999" lon="12.8394624"><ele>93.66666666666667</ele><time>2026-05-02T11:09:57.18Z</time></trkpt><trkpt lat="43.8239519" lon="12.8395557"><ele>92.0</ele><time>2026-05-02T11:09:58.176Z</time></trkpt><trkpt lat="43.8241106" lon="12.8396382"><ele>92.0</ele><time>2026-05-02T11:09:59.184Z</time></trkpt><trkpt lat="43.8242711" lon="12.8397237"><ele>92.0</ele><time>2026-05-02T11:10:00.175Z</time></trkpt><trkpt lat="43.8244391" lon="12.8397906"><ele>92.0</ele><time>2026-05-02T11:10:01.183Z</time></trkpt><trkpt lat="43.8246246" lon="12.8398672"><ele>92.0</ele><time>2026-05-02T11:10:02.175Z</time></trkpt><trkpt lat="43.8247975" lon="12.8399452"><ele>92.0</ele><time>2026-05-02T11:10:03.174Z</time></trkpt><trkpt lat="43.8249788" lon="12.8400422"><ele>92.0</ele><time>2026-05-02T11:10:04.182Z</time></trkpt><trkpt lat="43.8251635" lon="12.8401523"><ele>91.33333333333334</ele><time>2026-05-02T11:10:05.173Z</time></trkpt><trkpt lat="43.8253546" lon="12.8402668"><ele>90.66666666666667</ele><time>2026-05-02T11:10:06.18Z</time></trkpt><trkpt lat="43.8255339" lon="12.8403797"><ele>90.0</ele><time>2026-05-02T11:10:07.178Z</time></trkpt><trkpt lat="43.8257108" lon="12.8404772"><ele>90.0</ele><time>2026-05-02T11:10:08.182Z</time></trkpt><trkpt lat="43.8258939" lon="12.8405607"><ele>90.0</ele><time>2026-05-02T11:10:09.177Z</time></trkpt><trkpt lat="43.8260733" lon="12.8406452"><ele>90.0</ele><time>2026-05-02T11:10:10.182Z</time></trkpt><trkpt lat="43.8262543" lon="12.8407357"><ele>89.33333333333333</ele><time>2026-05-02T11:10:11.174Z</time></trkpt><trkpt lat="43.8264273" lon="12.840824"><ele>88.66666666666666</ele><time>2026-05-02T11:10:12.175Z</time></trkpt><trkpt lat="43.8265829" lon="12.8409123"><ele>88.0</ele><time>2026-05-02T11:10:13.177Z</time></trkpt><trkpt lat="43.8267305" lon="12.841013"><ele>88.33333333333333</ele><time>2026-05-02T11:10:14.177Z</time></trkpt><trkpt lat="43.8268661" lon="12.8411186"><ele>88.66666666666667</ele><time>2026-05-02T11:10:15.181Z</time></trkpt><trkpt lat="43.8269975" lon="12.8412086"><ele>89.0</ele><time>2026-05-02T11:10:16.175Z</time></trkpt><trkpt lat="43.8271347" lon="12.8412887"><ele>89.0</ele><time>2026-05-02T11:10:17.18Z</time></trkpt><trkpt lat="43.8272735" lon="12.8413709"><ele>89.0</ele><time>2026-05-02T11:10:18.171Z</time></trkpt><trkpt lat="43.8274104" lon="12.8414483"><ele>89.0</ele><time>2026-05-02T11:10:19.181Z</time></trkpt><trkpt lat="43.827562" lon="12.8415244"><ele>88.66666666666667</ele><time>2026-05-02T11:10:20.178Z</time></trkpt><trkpt lat="43.8277196" lon="12.8415881"><ele>88.33333333333333</ele><time>2026-05-02T11:10:21.176Z</time></trkpt><trkpt lat="43.827893" lon="12.8416573"><ele>88.0</ele><time>2026-05-02T11:10:22.179Z</time></trkpt><trkpt lat="43.8280652" lon="12.8417054"><ele>88.0</ele><time>2026-05-02T11:10:23.171Z</time></trkpt><trkpt lat="43.8282371" lon="12.8417428"><ele>88.0</ele><time>2026-05-02T11:10:24.176Z</time></trkpt><trkpt lat="43.8284035" lon="12.8417807"><ele>88.0</ele><time>2026-05-02T11:10:25.182Z</time></trkpt><trkpt lat="43.8285597" lon="12.84183"><ele>87.5</ele><time>2026-05-02T11:10:26.176Z</time></trkpt><trkpt lat="43.8287075" lon="12.8418968"><ele>87.0</ele><time>2026-05-02T11:10:27.181Z</time></trkpt><trkpt lat="43.8288392" lon="12.8419877"><ele>86.5</ele><time>2026-05-02T11:10:28.182Z</time></trkpt><trkpt lat="43.8289449" lon="12.842096"><ele>86.0</ele><time>2026-05-02T11:10:29.182Z</time></trkpt><trkpt lat="43.8290204" lon="12.8422711"><ele>86.0</ele><time>2026-05-02T11:10:30.176Z</time></trkpt><trkpt lat="43.8290751" lon="12.8424441"><ele>86.0</ele><time>2026-05-02T11:10:31.182Z</time></trkpt><trkpt lat="43.8291731" lon="12.8425976"><ele>86.0</ele><time>2026-05-02T11:10:32.172Z</time></trkpt><trkpt lat="43.8292861" lon="12.8427197"><ele>86.0</ele><time>2026-05-02T11:10:33.171Z</time></trkpt><trkpt lat="43.8294247" lon="12.8428297"><ele>87.33333333333334</ele><time>2026-05-02T11:10:34.175Z</time></trkpt><trkpt lat="43.8295829" lon="12.8429473"><ele>88.66666666666667</ele><time>2026-05-02T11:10:35.168Z</time></trkpt><trkpt lat="43.8297281" lon="12.8430952"><ele>90.0</ele><time>2026-05-02T11:10:36.17Z</time></trkpt><trkpt lat="43.8298608" lon="12.84326"><ele>90.0</ele><time>2026-05-02T11:10:37.179Z</time></trkpt><trkpt lat="43.8299747" lon="12.8434238"><ele>90.0</ele><time>2026-05-02T11:10:38.173Z</time></trkpt><trkpt lat="43.83007" lon="12.8435956"><ele>90.0</ele><time>2026-05-02T11:10:39.172Z</time></trkpt><trkpt lat="43.8301516" lon="12.8437477"><ele>90.4</ele><time>2026-05-02T11:10:40.174Z</time></trkpt><trkpt lat="43.830214" lon="12.8438799"><ele>90.8</ele><time>2026-05-02T11:10:41.17Z</time></trkpt><trkpt lat="43.8302915" lon="12.8439703"><ele>91.19999999999999</ele><time>2026-05-02T11:10:42.18Z</time></trkpt><trkpt lat="43.830381" lon="12.844003"><ele>91.6</ele><time>2026-05-02T11:10:43.18Z</time></trkpt><trkpt lat="43.8304842" lon="12.8439969"><ele>92.0</ele><time>2026-05-02T11:10:44.182Z</time></trkpt><trkpt lat="43.8305769" lon="12.8439497"><ele>92.0</ele><time>2026-05-02T11:10:45.18Z</time></trkpt><trkpt lat="43.8306696" lon="12.8438747"><ele>92.0</ele><time>2026-05-02T11:10:46.175Z</time></trkpt><trkpt lat="43.8307702" lon="12.8437858"><ele>92.0</ele><time>2026-05-02T11:10:47.172Z</time></trkpt><trkpt lat="43.83087" lon="12.8436863"><ele>92.0</ele><time>2026-05-02T11:10:48.179Z</time></trkpt><trkpt lat="43.8309762" lon="12.8435983"><ele>92.25</ele><time>2026-05-02T11:10:49.181Z</time></trkpt><trkpt lat="43.831082" lon="12.8435101"><ele>92.5</ele><time>2026-05-02T11:10:50.176Z</time></trkpt><trkpt lat="43.8311887" lon="12.8434148"><ele>92.75</ele><time>2026-05-02T11:10:51.178Z</time></trkpt><trkpt lat="43.8312922" lon="12.8433251"><ele>93.0</ele><time>2026-05-02T11:10:52.185Z</time></trkpt><trkpt lat="43.8313878" lon="12.843248"><ele>93.0</ele><time>2026-05-02T11:10:53.188Z</time></trkpt><trkpt lat="43.8314748" lon="12.84321"><ele>93.0</ele><time>2026-05-02T11:10:54.189Z</time></trkpt><trkpt lat="43.8315599" lon="12.8432195"><ele>93.0</ele><time>2026-05-02T11:10:55.187Z</time></trkpt><trkpt lat="43.8316338" lon="12.8432839"><ele>93.0</ele><time>2026-05-02T11:10:56.189Z</time></trkpt><trkpt lat="43.831692" lon="12.8434004"><ele>93.0</ele><time>2026-05-02T11:10:57.176Z</time></trkpt><trkpt lat="43.8317555" lon="12.8435434"><ele>94.25</ele><time>2026-05-02T11:10:58.188Z</time></trkpt><trkpt lat="43.8318294" lon="12.8437116"><ele>95.5</ele><time>2026-05-02T11:10:59.182Z</time></trkpt><trkpt lat="43.8319148" lon="12.843868"><ele>96.75</ele><time>2026-05-02T11:11:00.18Z</time></trkpt><trkpt lat="43.8320009" lon="12.8440289"><ele>98.0</ele><time>2026-05-02T11:11:01.184Z</time></trkpt><trkpt lat="43.8320896" lon="12.8441904"><ele>95.66666666666666</ele><time>2026-05-02T11:11:02.177Z</time></trkpt><trkpt lat="43.8321775" lon="12.8443703"><ele>93.33333333333333</ele><time>2026-05-02T11:11:03.186Z</time></trkpt><trkpt lat="43.8322711" lon="12.8445389"><ele>91.0</ele><time>2026-05-02T11:11:04.186Z</time></trkpt><trkpt lat="43.8323714" lon="12.8447092"><ele>91.0</ele><time>2026-05-02T11:11:05.189Z</time></trkpt><trkpt lat="43.8324741" lon="12.8448703"><ele>91.0</ele><time>2026-05-02T11:11:06.181Z</time></trkpt><trkpt lat="43.8325892" lon="12.8450116"><ele>91.0</ele><time>2026-05-02T11:11:07.189Z</time></trkpt><trkpt lat="43.8327164" lon="12.8451066"><ele>90.8</ele><time>2026-05-02T11:11:08.201Z</time></trkpt><trkpt lat="43.832837" lon="12.8451839"><ele>90.6</ele><time>2026-05-02T11:11:09.195Z</time></trkpt><trkpt lat="43.8329357" lon="12.8452455"><ele>90.4</ele><time>2026-05-02T11:11:10.195Z</time></trkpt><trkpt lat="43.8330114" lon="12.8453173"><ele>90.2</ele><time>2026-05-02T11:11:11.191Z</time></trkpt><trkpt lat="43.8330728" lon="12.8453743"><ele>90.0</ele><time>2026-05-02T11:11:12.179Z</time></trkpt><trkpt lat="43.833168" lon="12.845444"><ele>90.0</ele><time>2026-05-02T11:11:14.188Z</time></trkpt><trkpt lat="43.8332397" lon="12.8455563"><ele>90.0</ele><time>2026-05-02T11:11:16.192Z</time></trkpt><trkpt lat="43.833259" lon="12.845644"><ele>90.0</ele><time>2026-05-02T11:11:17.189Z</time></trkpt><trkpt lat="43.8332651" lon="12.8457686"><ele>90.0</ele><time>2026-05-02T11:11:19.194Z</time></trkpt><trkpt lat="43.8332699" lon="12.8458653"><ele>90.0</ele><time>2026-05-02T11:11:22.182Z</time></trkpt><trkpt lat="43.8332912" lon="12.8460297"><ele>88.83333333333333</ele><time>2026-05-02T11:11:25.176Z</time></trkpt><trkpt lat="43.8333027" lon="12.8461161"><ele>87.66666666666667</ele><time>2026-05-02T11:11:26.185Z</time></trkpt><trkpt lat="43.8333104" lon="12.8462042"><ele>86.5</ele><time>2026-05-02T11:11:27.175Z</time></trkpt><trkpt lat="43.8333199" lon="12.8463042"><ele>85.33333333333334</ele><time>2026-05-02T11:11:28.182Z</time></trkpt><trkpt lat="43.833334" lon="12.8464384"><ele>84.16666666666667</ele><time>2026-05-02T11:11:29.188Z</time></trkpt><trkpt lat="43.8333512" lon="12.8465988"><ele>83.0</ele><time>2026-05-02T11:11:30.18Z</time></trkpt><trkpt lat="43.8333652" lon="12.8467755"><ele>82.0</ele><time>2026-05-02T11:11:31.18Z</time></trkpt><trkpt lat="43.8333834" lon="12.8469617"><ele>81.0</ele><time>2026-05-02T11:11:32.178Z</time></trkpt><trkpt lat="43.8334004" lon="12.8471536"><ele>80.0</ele><time>2026-05-02T11:11:33.186Z</time></trkpt><trkpt lat="43.8334187" lon="12.8473602"><ele>79.0</ele><time>2026-05-02T11:11:34.18Z</time></trkpt><trkpt lat="43.8334412" lon="12.8475843"><ele>78.66666666666666</ele><time>2026-05-02T11:11:35.182Z</time></trkpt><trkpt lat="43.8334653" lon="12.8478046"><ele>78.33333333333333</ele><time>2026-05-02T11:11:36.181Z</time></trkpt><trkpt lat="43.8334912" lon="12.8480169"><ele>78.0</ele><time>2026-05-02T11:11:37.188Z</time></trkpt><trkpt lat="43.8335178" lon="12.8482286"><ele>78.0</ele><time>2026-05-02T11:11:38.181Z</time></trkpt><trkpt lat="43.8335472" lon="12.848449"><ele>78.0</ele><time>2026-05-02T11:11:39.187Z</time></trkpt><trkpt lat="43.8335713" lon="12.8486625"><ele>78.0</ele><time>2026-05-02T11:11:40.202Z</time></trkpt><trkpt lat="43.8335896" lon="12.8488817"><ele>78.0</ele><time>2026-05-02T11:11:41.195Z</time></trkpt><trkpt lat="43.8336142" lon="12.8491034"><ele>78.0</ele><time>2026-05-02T11:11:42.201Z</time></trkpt><trkpt lat="43.8336389" lon="12.8493308"><ele>78.0</ele><time>2026-05-02T11:11:43.198Z</time></trkpt><trkpt lat="43.8336613" lon="12.8495682"><ele>78.33333333333333</ele><time>2026-05-02T11:11:44.194Z</time></trkpt><trkpt lat="43.8336881" lon="12.8498082"><ele>78.66666666666666</ele><time>2026-05-02T11:11:45.197Z</time></trkpt><trkpt lat="43.8337203" lon="12.850048"><ele>79.0</ele><time>2026-05-02T11:11:46.195Z</time></trkpt><trkpt lat="43.8337486" lon="12.8502892"><ele>78.33333333333333</ele><time>2026-05-02T11:11:47.194Z</time></trkpt><trkpt lat="43.8337788" lon="12.8505372"><ele>77.66666666666667</ele><time>2026-05-02T11:11:48.197Z</time></trkpt><trkpt lat="43.8338026" lon="12.850767"><ele>77.0</ele><time>2026-05-02T11:11:49.199Z</time></trkpt><trkpt lat="43.8338217" lon="12.8509888"><ele>77.0</ele><time>2026-05-02T11:11:50.19Z</time></trkpt><trkpt lat="43.8338368" lon="12.8512095"><ele>77.0</ele><time>2026-05-02T11:11:51.195Z</time></trkpt><trkpt lat="43.8338642" lon="12.851427"><ele>77.0</ele><time>2026-05-02T11:11:52.201Z</time></trkpt><trkpt lat="43.8338958" lon="12.8516525"><ele>76.75</ele><time>2026-05-02T11:11:53.195Z</time></trkpt><trkpt lat="43.8339262" lon="12.8518685"><ele>76.5</ele><time>2026-05-02T11:11:54.194Z</time></trkpt><trkpt lat="43.8339476" lon="12.8520602"><ele>76.25</ele><time>2026-05-02T11:11:55.204Z</time></trkpt><trkpt lat="43.8339725" lon="12.8522357"><ele>76.0</ele><time>2026-05-02T11:11:56.197Z</time></trkpt><trkpt lat="43.8339934" lon="12.8524149"><ele>76.0</ele><time>2026-05-02T11:11:57.193Z</time></trkpt><trkpt lat="43.8340142" lon="12.8525863"><ele>76.0</ele><time>2026-05-02T11:11:58.196Z</time></trkpt><trkpt lat="43.8340356" lon="12.8527739"><ele>76.0</ele><time>2026-05-02T11:11:59.192Z</time></trkpt><trkpt lat="43.8340539" lon="12.8529602"><ele>76.0</ele><time>2026-05-02T11:12:00.2Z</time></trkpt><trkpt lat="43.8340746" lon="12.8531564"><ele>75.75</ele><time>2026-05-02T11:12:01.192Z</time></trkpt><trkpt lat="43.8340788" lon="12.8533576"><ele>75.5</ele><time>2026-05-02T11:12:02.199Z</time></trkpt><trkpt lat="43.8340599" lon="12.8535552"><ele>75.25</ele><time>2026-05-02T11:12:03.193Z</time></trkpt><trkpt lat="43.8340282" lon="12.8537487"><ele>75.0</ele><time>2026-05-02T11:12:04.195Z</time></trkpt><trkpt lat="43.8339911" lon="12.853935"><ele>74.75</ele><time>2026-05-02T11:12:05.188Z</time></trkpt><trkpt lat="43.8339769" lon="12.8541214"><ele>74.5</ele><time>2026-05-02T11:12:06.184Z</time></trkpt><trkpt lat="43.8339841" lon="12.8543049"><ele>74.25</ele><time>2026-05-02T11:12:07.194Z</time></trkpt><trkpt lat="43.8340086" lon="12.854487"><ele>74.0</ele><time>2026-05-02T11:12:08.186Z</time></trkpt><trkpt lat="43.834056" lon="12.8546393"><ele>74.0</ele><time>2026-05-02T11:12:09.193Z</time></trkpt><trkpt lat="43.8341057" lon="12.8547858"><ele>74.0</ele><time>2026-05-02T11:12:10.18Z</time></trkpt><trkpt lat="43.8341386" lon="12.8549263"><ele>74.0</ele><time>2026-05-02T11:12:11.185Z</time></trkpt><trkpt lat="43.8341603" lon="12.855047"><ele>74.0</ele><time>2026-05-02T11:12:12.192Z</time></trkpt><trkpt lat="43.8341792" lon="12.85515"><ele>74.0</ele><time>2026-05-02T11:12:13.191Z</time></trkpt><trkpt lat="43.8341909" lon="12.8552427"><ele>73.60000000000001</ele><time>2026-05-02T11:12:14.189Z</time></trkpt><trkpt lat="43.8341555" lon="12.8554024"><ele>73.2</ele><time>2026-05-02T11:12:16.195Z</time></trkpt><trkpt lat="43.8341053" lon="12.8554706"><ele>72.80000000000001</ele><time>2026-05-02T11:12:17.194Z</time></trkpt><trkpt lat="43.8340492" lon="12.8555328"><ele>72.4</ele><time>2026-05-02T11:12:18.196Z</time></trkpt><trkpt lat="43.8339895" lon="12.8555781"><ele>72.0</ele><time>2026-05-02T11:12:19.201Z</time></trkpt><trkpt lat="43.833875" lon="12.8556412"><ele>72.0</ele><time>2026-05-02T11:12:21.194Z</time></trkpt><trkpt lat="43.8337983" lon="12.8557511"><ele>72.0</ele><time>2026-05-02T11:12:23.197Z</time></trkpt><trkpt lat="43.8337866" lon="12.855867"><ele>72.0</ele><time>2026-05-02T11:12:25.193Z</time></trkpt><trkpt lat="43.8336796" lon="12.8559173"><ele>72.0</ele><time>2026-05-02T11:17:49.19Z</time></trkpt><trkpt lat="43.8335871" lon="12.8560283"><ele>72.0</ele><time>2026-05-02T11:17:52.186Z</time></trkpt><trkpt lat="43.833715" lon="12.8559536"><ele>72.0</ele><time>2026-05-02T11:20:36.203Z</time></trkpt><trkpt lat="43.8337779" lon="12.8559024"><ele>72.0</ele><time>2026-05-02T11:21:53.204Z</time></trkpt><trkpt lat="43.8338323" lon="12.8558575"><ele>72.0</ele><time>2026-05-02T11:22:34.202Z</time></trkpt><trkpt lat="43.8339028" lon="12.8558824"><ele>72.0</ele><time>2026-05-02T11:22:51.179Z</time></trkpt><trkpt lat="43.8339724" lon="12.8559784"><ele>72.0</ele><time>2026-05-02T11:22:53.206Z</time></trkpt><trkpt lat="43.8338941" lon="12.8559072"><ele>72.0</ele><time>2026-05-02T11:27:35.194Z</time></trkpt><trkpt lat="43.833866" lon="12.8557058"><ele>72.0</ele><time>2026-05-02T11:27:37.191Z</time></trkpt><trkpt lat="43.8338189" lon="12.8556219"><ele>72.0</ele><time>2026-05-02T11:27:38.193Z</time></trkpt><trkpt lat="43.8339057" lon="12.8556822"><ele>72.0</ele><time>2026-05-02T11:28:47.197Z</time></trkpt><trkpt lat="43.8338842" lon="12.8557648"><ele>72.0</ele><time>2026-05-02T11:31:05.183Z</time></trkpt><trkpt lat="43.8338588" lon="12.8558544"><ele>72.0</ele><time>2026-05-02T11:31:07.18Z</time></trkpt><trkpt lat="43.833821" lon="12.8559322"><ele>72.0</ele><time>2026-05-02T11:31:09.198Z</time></trkpt><trkpt lat="43.8337769" lon="12.856024"><ele>71.33333333333333</ele><time>2026-05-02T11:31:12.179Z</time></trkpt><trkpt lat="43.8337504" lon="12.8561171"><ele>70.66666666666667</ele><time>2026-05-02T11:31:16.192Z</time></trkpt><trkpt lat="43.8338143" lon="12.8561624"><ele>70.0</ele><time>2026-05-02T11:34:07.21Z</time></trkpt><trkpt lat="43.8337706" lon="12.8562824"><ele>69.33333333333334</ele><time>2026-05-02T11:34:49.174Z</time></trkpt><trkpt lat="43.8338112" lon="12.8561921"><ele>68.66666666666667</ele><time>2026-05-02T11:35:24.183Z</time></trkpt><trkpt lat="43.83388" lon="12.8561458"><ele>68.0</ele><time>2026-05-02T11:35:26.165Z</time></trkpt><trkpt lat="43.8337943" lon="12.8563737"><ele>68.0</ele><time>2026-05-02T11:35:34.154Z</time></trkpt><trkpt lat="43.8339194" lon="12.8563305"><ele>68.0</ele><time>2026-05-02T11:35:37.157Z</time></trkpt><trkpt lat="43.8339825" lon="12.8562802"><ele>68.0</ele><time>2026-05-02T11:35:39.163Z</time></trkpt><trkpt lat="43.8338892" lon="12.8562075"><ele>68.0</ele><time>2026-05-02T11:35:58.17Z</time></trkpt><trkpt lat="43.8337187" lon="12.8562361"><ele>68.0</ele><time>2026-05-02T11:36:02.151Z</time></trkpt><trkpt lat="43.8337821" lon="12.8561352"><ele>68.0</ele><time>2026-05-02T11:37:09.164Z</time></trkpt><trkpt lat="43.8338518" lon="12.8561902"><ele>68.0</ele><time>2026-05-02T11:37:21.162Z</time></trkpt><trkpt lat="43.8338471" lon="12.85609"><ele>68.0</ele><time>2026-05-02T11:37:49.165Z</time></trkpt><trkpt lat="43.8339223" lon="12.8559857"><ele>68.0</ele><time>2026-05-02T11:37:51.159Z</time></trkpt><trkpt lat="43.83398" lon="12.8559373"><ele>68.0</ele><time>2026-05-02T11:37:52.154Z</time></trkpt><trkpt lat="43.8340393" lon="12.855891"><ele>68.33333333333334</ele><time>2026-05-02T11:37:53.162Z</time></trkpt><trkpt lat="43.8340943" lon="12.8558347"><ele>68.66666666666667</ele><time>2026-05-02T11:37:54.16Z</time></trkpt><trkpt lat="43.8341486" lon="12.8557691"><ele>69.0</ele><time>2026-05-02T11:37:55.165Z</time></trkpt><trkpt lat="43.8342404" lon="12.8557362"><ele>69.33333333333333</ele><time>2026-05-02T11:37:57.166Z</time></trkpt><trkpt lat="43.8343028" lon="12.8557156"><ele>69.66666666666666</ele><time>2026-05-02T11:37:58.17Z</time></trkpt><trkpt lat="43.8343679" lon="12.8557491"><ele>70.0</ele><time>2026-05-02T11:37:59.16Z</time></trkpt><trkpt lat="43.8344167" lon="12.8558582"><ele>69.75</ele><time>2026-05-02T11:38:00.162Z</time></trkpt><trkpt lat="43.8344476" lon="12.8559842"><ele>69.5</ele><time>2026-05-02T11:38:01.16Z</time></trkpt><trkpt lat="43.8344732" lon="12.8561648"><ele>69.25</ele><time>2026-05-02T11:38:02.14Z</time></trkpt><trkpt lat="43.8345013" lon="12.8563475"><ele>69.0</ele><time>2026-05-02T11:38:03.148Z</time></trkpt><trkpt lat="43.8345304" lon="12.8565344"><ele>69.0</ele><time>2026-05-02T11:38:04.151Z</time></trkpt><trkpt lat="43.8345674" lon="12.8567242"><ele>69.0</ele><time>2026-05-02T11:38:05.158Z</time></trkpt><trkpt lat="43.8345781" lon="12.8569297"><ele>69.0</ele><time>2026-05-02T11:38:06.149Z</time></trkpt><trkpt lat="43.8345628" lon="12.8571265"><ele>69.0</ele><time>2026-05-02T11:38:07.166Z</time></trkpt><trkpt lat="43.8345322" lon="12.8573302"><ele>69.0</ele><time>2026-05-02T11:38:08.164Z</time></trkpt><trkpt lat="43.8344903" lon="12.8575365"><ele>69.0</ele><time>2026-05-02T11:38:09.148Z</time></trkpt><trkpt lat="43.8344717" lon="12.8577463"><ele>69.0</ele><time>2026-05-02T11:38:10.16Z</time></trkpt><trkpt lat="43.8344447" lon="12.8579695"><ele>69.0</ele><time>2026-05-02T11:38:11.153Z</time></trkpt><trkpt lat="43.8344095" lon="12.8582454"><ele>69.0</ele><time>2026-05-02T11:38:12.163Z</time></trkpt><trkpt lat="43.8343809" lon="12.8584747"><ele>69.0</ele><time>2026-05-02T11:38:13.164Z</time></trkpt><trkpt lat="43.8343526" lon="12.8587104"><ele>69.66666666666667</ele><time>2026-05-02T11:38:14.165Z</time></trkpt><trkpt lat="43.8343168" lon="12.8589593"><ele>70.33333333333334</ele><time>2026-05-02T11:38:15.168Z</time></trkpt><trkpt lat="43.8343283" lon="12.8591657"><ele>71.0</ele><time>2026-05-02T11:38:16.162Z</time></trkpt><trkpt lat="43.8343945" lon="12.8593214"><ele>71.5</ele><time>2026-05-02T11:38:17.164Z</time></trkpt><trkpt lat="43.8343646" lon="12.8594777"><ele>72.0</ele><time>2026-05-02T11:38:18.153Z</time></trkpt><trkpt lat="43.8343438" lon="12.8596886"><ele>72.5</ele><time>2026-05-02T11:38:19.153Z</time></trkpt><trkpt lat="43.8343196" lon="12.8599337"><ele>73.0</ele><time>2026-05-02T11:38:20.151Z</time></trkpt><trkpt lat="43.8342731" lon="12.8601528"><ele>70.66666666666666</ele><time>2026-05-02T11:38:21.162Z</time></trkpt><trkpt lat="43.8342051" lon="12.8603279"><ele>68.33333333333333</ele><time>2026-05-02T11:38:22.16Z</time></trkpt><trkpt lat="43.8341455" lon="12.8605403"><ele>66.0</ele><time>2026-05-02T11:38:23.157Z</time></trkpt><trkpt lat="43.8341124" lon="12.8607744"><ele>66.33333333333333</ele><time>2026-05-02T11:38:24.15Z</time></trkpt><trkpt lat="43.8340954" lon="12.8609967"><ele>66.66666666666666</ele><time>2026-05-02T11:38:25.164Z</time></trkpt><trkpt lat="43.8340571" lon="12.861215"><ele>67.0</ele><time>2026-05-02T11:38:26.162Z</time></trkpt><trkpt lat="43.8340616" lon="12.8614518"><ele>67.0</ele><time>2026-05-02T11:38:27.16Z</time></trkpt><trkpt lat="43.8340977" lon="12.8616974"><ele>67.0</ele><time>2026-05-02T11:38:28.166Z</time></trkpt><trkpt lat="43.8341408" lon="12.861972"><ele>67.0</ele><time>2026-05-02T11:38:29.163Z</time></trkpt><trkpt lat="43.834141" lon="12.8622112"><ele>67.0</ele><time>2026-05-02T11:38:30.146Z</time></trkpt><trkpt lat="43.8341702" lon="12.8624452"><ele>67.0</ele><time>2026-05-02T11:38:31.154Z</time></trkpt><trkpt lat="43.8341307" lon="12.8626855"><ele>67.0</ele><time>2026-05-02T11:38:32.155Z</time></trkpt><trkpt lat="43.8341238" lon="12.8628909"><ele>67.0</ele><time>2026-05-02T11:38:33.156Z</time></trkpt><trkpt lat="43.834105" lon="12.8631564"><ele>67.0</ele><time>2026-05-02T11:38:34.158Z</time></trkpt><trkpt lat="43.8340385" lon="12.8633998"><ele>67.0</ele><time>2026-05-02T11:38:35.154Z</time></trkpt><trkpt lat="43.8339596" lon="12.8636584"><ele>66.66666666666666</ele><time>2026-05-02T11:38:36.156Z</time></trkpt><trkpt lat="43.8339327" lon="12.8639391"><ele>66.33333333333333</ele><time>2026-05-02T11:38:37.16Z</time></trkpt><trkpt lat="43.8339353" lon="12.8641606"><ele>66.0</ele><time>2026-05-02T11:38:38.14Z</time></trkpt><trkpt lat="43.8339198" lon="12.8643807"><ele>64.66666666666667</ele><time>2026-05-02T11:38:39.14Z</time></trkpt><trkpt lat="43.8339217" lon="12.8646279"><ele>63.333333333333336</ele><time>2026-05-02T11:38:40.14Z</time></trkpt><trkpt lat="43.8339176" lon="12.8648786"><ele>62.0</ele><time>2026-05-02T11:38:41.147Z</time></trkpt><trkpt lat="43.8338938" lon="12.8651341"><ele>61.66666666666667</ele><time>2026-05-02T11:38:42.144Z</time></trkpt><trkpt lat="43.8338664" lon="12.8654026"><ele>61.33333333333333</ele><time>2026-05-02T11:38:43.156Z</time></trkpt><trkpt lat="43.8338295" lon="12.8656566"><ele>61.0</ele><time>2026-05-02T11:38:44.154Z</time></trkpt><trkpt lat="43.8338083" lon="12.8659182"><ele>60.666666666666664</ele><time>2026-05-02T11:38:45.159Z</time></trkpt><trkpt lat="43.8337781" lon="12.866176"><ele>60.33333333333333</ele><time>2026-05-02T11:38:46.155Z</time></trkpt><trkpt lat="43.8337504" lon="12.8664396"><ele>60.0</ele><time>2026-05-02T11:38:47.16Z</time></trkpt><trkpt lat="43.8337172" lon="12.866706"><ele>60.0</ele><time>2026-05-02T11:38:48.156Z</time></trkpt><trkpt lat="43.833683" lon="12.86698"><ele>60.0</ele><time>2026-05-02T11:38:49.16Z</time></trkpt><trkpt lat="43.8336484" lon="12.8672506"><ele>60.0</ele><time>2026-05-02T11:38:50.159Z</time></trkpt><trkpt lat="43.8336259" lon="12.8675208"><ele>60.33333333333333</ele><time>2026-05-02T11:38:51.155Z</time></trkpt><trkpt lat="43.8336028" lon="12.8678149"><ele>60.666666666666664</ele><time>2026-05-02T11:38:52.157Z</time></trkpt><trkpt lat="43.8335825" lon="12.8680952"><ele>61.0</ele><time>2026-05-02T11:38:53.155Z</time></trkpt><trkpt lat="43.8335704" lon="12.8683526"><ele>62.33333333333333</ele><time>2026-05-02T11:38:54.168Z</time></trkpt><trkpt lat="43.8335496" lon="12.8685751"><ele>63.66666666666667</ele><time>2026-05-02T11:38:55.158Z</time></trkpt><trkpt lat="43.8335479" lon="12.868789"><ele>65.0</ele><time>2026-05-02T11:38:56.155Z</time></trkpt><trkpt lat="43.8335517" lon="12.8690217"><ele>65.0</ele><time>2026-05-02T11:38:57.158Z</time></trkpt><trkpt lat="43.8335316" lon="12.8692463"><ele>65.0</ele><time>2026-05-02T11:38:58.162Z</time></trkpt><trkpt lat="43.8334757" lon="12.8693902"><ele>65.0</ele><time>2026-05-02T11:38:59.155Z</time></trkpt><trkpt lat="43.8333881" lon="12.8694934"><ele>65.0</ele><time>2026-05-02T11:39:00.158Z</time></trkpt><trkpt lat="43.8332882" lon="12.8695923"><ele>66.0</ele><time>2026-05-02T11:39:01.152Z</time></trkpt><trkpt lat="43.8332117" lon="12.8696971"><ele>67.0</ele><time>2026-05-02T11:39:02.161Z</time></trkpt><trkpt lat="43.833085" lon="12.8697327"><ele>68.0</ele><time>2026-05-02T11:39:03.155Z</time></trkpt><trkpt lat="43.8329311" lon="12.8697489"><ele>69.0</ele><time>2026-05-02T11:39:04.157Z</time></trkpt><trkpt lat="43.8327701" lon="12.8697799"><ele>69.5</ele><time>2026-05-02T11:39:05.162Z</time></trkpt><trkpt lat="43.8326241" lon="12.869808"><ele>70.0</ele><time>2026-05-02T11:39:06.161Z</time></trkpt><trkpt lat="43.8324968" lon="12.8698343"><ele>70.5</ele><time>2026-05-02T11:39:07.161Z</time></trkpt><trkpt lat="43.8323794" lon="12.8698647"><ele>71.0</ele><time>2026-05-02T11:39:08.157Z</time></trkpt><trkpt lat="43.8322643" lon="12.8698808"><ele>71.0</ele><time>2026-05-02T11:39:09.16Z</time></trkpt><trkpt lat="43.8321867" lon="12.8698943"><ele>71.0</ele><time>2026-05-02T11:39:10.157Z</time></trkpt><trkpt lat="43.8321122" lon="12.869916"><ele>71.0</ele><time>2026-05-02T11:39:11.167Z</time></trkpt><trkpt lat="43.8320732" lon="12.8700151"><ele>71.0</ele><time>2026-05-02T11:39:13.159Z</time></trkpt><trkpt lat="43.8321083" lon="12.8701905"><ele>71.0</ele><time>2026-05-02T11:39:15.166Z</time></trkpt><trkpt lat="43.8321636" lon="12.8703232"><ele>71.0</ele><time>2026-05-02T11:39:16.168Z</time></trkpt><trkpt lat="43.8322403" lon="12.8704837"><ele>71.0</ele><time>2026-05-02T11:39:17.158Z</time></trkpt><trkpt lat="43.8323098" lon="12.8706632"><ele>71.0</ele><time>2026-05-02T11:39:18.152Z</time></trkpt><trkpt lat="43.83237" lon="12.8708571"><ele>71.0</ele><time>2026-05-02T11:39:19.155Z</time></trkpt><trkpt lat="43.8324304" lon="12.8710601"><ele>70.66666666666667</ele><time>2026-05-02T11:39:20.159Z</time></trkpt><trkpt lat="43.8324939" lon="12.8712791"><ele>70.33333333333333</ele><time>2026-05-02T11:39:21.155Z</time></trkpt><trkpt lat="43.8325708" lon="12.871501"><ele>70.0</ele><time>2026-05-02T11:39:22.16Z</time></trkpt><trkpt lat="43.8326547" lon="12.8717311"><ele>69.66666666666666</ele><time>2026-05-02T11:39:23.161Z</time></trkpt><trkpt lat="43.8327416" lon="12.8719756"><ele>69.33333333333333</ele><time>2026-05-02T11:39:24.161Z</time></trkpt><trkpt lat="43.8328273" lon="12.8722097"><ele>69.0</ele><time>2026-05-02T11:39:25.164Z</time></trkpt><trkpt lat="43.8329195" lon="12.8724408"><ele>68.0</ele><time>2026-05-02T11:39:26.156Z</time></trkpt><trkpt lat="43.8330025" lon="12.872674"><ele>67.0</ele><time>2026-05-02T11:39:27.162Z</time></trkpt><trkpt lat="43.833089" lon="12.8729014"><ele>66.0</ele><time>2026-05-02T11:39:28.17Z</time></trkpt><trkpt lat="43.8331629" lon="12.87314"><ele>66.0</ele><time>2026-05-02T11:39:29.163Z</time></trkpt><trkpt lat="43.8332363" lon="12.8733947"><ele>66.0</ele><time>2026-05-02T11:39:30.159Z</time></trkpt><trkpt lat="43.8332987" lon="12.8736561"><ele>66.0</ele><time>2026-05-02T11:39:31.164Z</time></trkpt><trkpt lat="43.8333276" lon="12.8739182"><ele>66.0</ele><time>2026-05-02T11:39:32.15Z</time></trkpt><trkpt lat="43.8333613" lon="12.8741803"><ele>66.0</ele><time>2026-05-02T11:39:33.15Z</time></trkpt><trkpt lat="43.8333977" lon="12.8744689"><ele>66.0</ele><time>2026-05-02T11:39:34.161Z</time></trkpt><trkpt lat="43.8334708" lon="12.874751"><ele>65.66666666666667</ele><time>2026-05-02T11:39:35.154Z</time></trkpt><trkpt lat="43.8335059" lon="12.875034"><ele>65.33333333333334</ele><time>2026-05-02T11:39:36.159Z</time></trkpt><trkpt lat="43.8334906" lon="12.875335"><ele>65.0</ele><time>2026-05-02T11:39:37.152Z</time></trkpt><trkpt lat="43.8334567" lon="12.8756175"><ele>65.0</ele><time>2026-05-02T11:39:38.152Z</time></trkpt><trkpt lat="43.8335241" lon="12.8758534"><ele>65.0</ele><time>2026-05-02T11:39:39.142Z</time></trkpt><trkpt lat="43.8336296" lon="12.8760788"><ele>65.0</ele><time>2026-05-02T11:39:40.152Z</time></trkpt><trkpt lat="43.8337615" lon="12.8763477"><ele>64.66666666666667</ele><time>2026-05-02T11:39:41.143Z</time></trkpt><trkpt lat="43.8338948" lon="12.8765678"><ele>64.33333333333333</ele><time>2026-05-02T11:39:42.139Z</time></trkpt><trkpt lat="43.8340178" lon="12.8767864"><ele>64.0</ele><time>2026-05-02T11:39:43.151Z</time></trkpt><trkpt lat="43.834161" lon="12.8769898"><ele>64.0</ele><time>2026-05-02T11:39:44.156Z</time></trkpt><trkpt lat="43.8342665" lon="12.8772486"><ele>64.0</ele><time>2026-05-02T11:39:45.156Z</time></trkpt><trkpt lat="43.8344142" lon="12.8775012"><ele>64.0</ele><time>2026-05-02T11:39:46.159Z</time></trkpt><trkpt lat="43.8345463" lon="12.8777024"><ele>63.666666666666664</ele><time>2026-05-02T11:39:47.159Z</time></trkpt><trkpt lat="43.8346478" lon="12.8779401"><ele>63.33333333333333</ele><time>2026-05-02T11:39:48.165Z</time></trkpt><trkpt lat="43.8347638" lon="12.8781325"><ele>63.0</ele><time>2026-05-02T11:39:49.166Z</time></trkpt><trkpt lat="43.8348972" lon="12.8783779"><ele>63.0</ele><time>2026-05-02T11:39:50.165Z</time></trkpt><trkpt lat="43.8350063" lon="12.8786478"><ele>63.0</ele><time>2026-05-02T11:39:51.149Z</time></trkpt><trkpt lat="43.8350745" lon="12.8789409"><ele>63.0</ele><time>2026-05-02T11:39:52.157Z</time></trkpt><trkpt lat="43.8351594" lon="12.8792409"><ele>62.66666666666667</ele><time>2026-05-02T11:39:53.156Z</time></trkpt><trkpt lat="43.8352413" lon="12.879543"><ele>62.333333333333336</ele><time>2026-05-02T11:39:54.16Z</time></trkpt><trkpt lat="43.8353056" lon="12.8798219"><ele>62.0</ele><time>2026-05-02T11:39:55.153Z</time></trkpt><trkpt lat="43.8353858" lon="12.8800892"><ele>62.66666666666667</ele><time>2026-05-02T11:39:56.153Z</time></trkpt><trkpt lat="43.8354704" lon="12.8803662"><ele>63.33333333333333</ele><time>2026-05-02T11:39:57.155Z</time></trkpt><trkpt lat="43.8355396" lon="12.8806428"><ele>64.0</ele><time>2026-05-02T11:39:58.155Z</time></trkpt><trkpt lat="43.8355899" lon="12.8809132"><ele>62.666666666666664</ele><time>2026-05-02T11:39:59.163Z</time></trkpt><trkpt lat="43.8356439" lon="12.8811946"><ele>61.33333333333333</ele><time>2026-05-02T11:40:00.152Z</time></trkpt><trkpt lat="43.8357164" lon="12.8814712"><ele>60.0</ele><time>2026-05-02T11:40:01.167Z</time></trkpt><trkpt lat="43.8357882" lon="12.8817409"><ele>60.0</ele><time>2026-05-02T11:40:02.154Z</time></trkpt><trkpt lat="43.8358525" lon="12.8820165"><ele>60.0</ele><time>2026-05-02T11:40:03.154Z</time></trkpt><trkpt lat="43.835919" lon="12.8822773"><ele>60.0</ele><time>2026-05-02T11:40:04.158Z</time></trkpt><trkpt lat="43.8359898" lon="12.8825411"><ele>60.33333333333333</ele><time>2026-05-02T11:40:05.157Z</time></trkpt><trkpt lat="43.8360652" lon="12.8828016"><ele>60.666666666666664</ele><time>2026-05-02T11:40:06.16Z</time></trkpt><trkpt lat="43.8361504" lon="12.8830729"><ele>61.0</ele><time>2026-05-02T11:40:07.165Z</time></trkpt><trkpt lat="43.8362264" lon="12.8833385"><ele>60.33333333333333</ele><time>2026-05-02T11:40:08.161Z</time></trkpt><trkpt lat="43.836298" lon="12.8835993"><ele>59.66666666666667</ele><time>2026-05-02T11:40:09.16Z</time></trkpt><trkpt lat="43.8363774" lon="12.8838639"><ele>59.0</ele><time>2026-05-02T11:40:10.159Z</time></trkpt><trkpt lat="43.8364601" lon="12.8841232"><ele>59.333333333333336</ele><time>2026-05-02T11:40:11.156Z</time></trkpt><trkpt lat="43.8365552" lon="12.8843732"><ele>59.66666666666667</ele><time>2026-05-02T11:40:12.156Z</time></trkpt><trkpt lat="43.8366636" lon="12.8846311"><ele>60.0</ele><time>2026-05-02T11:40:13.159Z</time></trkpt><trkpt lat="43.8367854" lon="12.8848918"><ele>59.5</ele><time>2026-05-02T11:40:14.16Z</time></trkpt><trkpt lat="43.8369142" lon="12.8851357"><ele>59.0</ele><time>2026-05-02T11:40:15.152Z</time></trkpt><trkpt lat="43.8370656" lon="12.8853802"><ele>59.0</ele><time>2026-05-02T11:40:16.163Z</time></trkpt><trkpt lat="43.8372444" lon="12.8856336"><ele>59.0</ele><time>2026-05-02T11:40:17.152Z</time></trkpt><trkpt lat="43.8374011" lon="12.885847"><ele>58.66666666666667</ele><time>2026-05-02T11:40:18.162Z</time></trkpt><trkpt lat="43.8375089" lon="12.8860872"><ele>58.33333333333333</ele><time>2026-05-02T11:40:19.164Z</time></trkpt><trkpt lat="43.8375973" lon="12.8863373"><ele>58.0</ele><time>2026-05-02T11:40:20.159Z</time></trkpt><trkpt lat="43.8376963" lon="12.88659"><ele>57.666666666666664</ele><time>2026-05-02T11:40:21.151Z</time></trkpt><trkpt lat="43.8378089" lon="12.8868292"><ele>57.33333333333333</ele><time>2026-05-02T11:40:22.155Z</time></trkpt><trkpt lat="43.8379054" lon="12.887097"><ele>57.0</ele><time>2026-05-02T11:40:23.151Z</time></trkpt><trkpt lat="43.8380041" lon="12.887361"><ele>57.33333333333333</ele><time>2026-05-02T11:40:24.159Z</time></trkpt><trkpt lat="43.8380882" lon="12.8876313"><ele>57.666666666666664</ele><time>2026-05-02T11:40:25.161Z</time></trkpt><trkpt lat="43.8381802" lon="12.8879166"><ele>58.0</ele><time>2026-05-02T11:40:26.154Z</time></trkpt><trkpt lat="43.8382611" lon="12.8882028"><ele>57.33333333333333</ele><time>2026-05-02T11:40:27.16Z</time></trkpt><trkpt lat="43.8383155" lon="12.8884866"><ele>56.66666666666667</ele><time>2026-05-02T11:40:28.162Z</time></trkpt><trkpt lat="43.8383697" lon="12.8887662"><ele>56.0</ele><time>2026-05-02T11:40:29.161Z</time></trkpt><trkpt lat="43.8384276" lon="12.8890574"><ele>55.66666666666667</ele><time>2026-05-02T11:40:30.159Z</time></trkpt><trkpt lat="43.8384834" lon="12.8893416"><ele>55.33333333333333</ele><time>2026-05-02T11:40:31.165Z</time></trkpt><trkpt lat="43.8385404" lon="12.889618"><ele>55.0</ele><time>2026-05-02T11:40:32.16Z</time></trkpt><trkpt lat="43.8385961" lon="12.8898999"><ele>55.33333333333333</ele><time>2026-05-02T11:40:33.163Z</time></trkpt><trkpt lat="43.8386599" lon="12.8901683"><ele>55.66666666666667</ele><time>2026-05-02T11:40:34.16Z</time></trkpt><trkpt lat="43.8387188" lon="12.8904398"><ele>56.0</ele><time>2026-05-02T11:40:35.161Z</time></trkpt><trkpt lat="43.8387846" lon="12.890709"><ele>55.66666666666667</ele><time>2026-05-02T11:40:36.162Z</time></trkpt><trkpt lat="43.8388357" lon="12.8909685"><ele>55.33333333333333</ele><time>2026-05-02T11:40:37.165Z</time></trkpt><trkpt lat="43.8388921" lon="12.8912141"><ele>55.0</ele><time>2026-05-02T11:40:38.164Z</time></trkpt><trkpt lat="43.8389475" lon="12.8914508"><ele>55.0</ele><time>2026-05-02T11:40:39.165Z</time></trkpt><trkpt lat="43.8389996" lon="12.8916859"><ele>55.0</ele><time>2026-05-02T11:40:40.16Z</time></trkpt><trkpt lat="43.8390646" lon="12.8919325"><ele>55.0</ele><time>2026-05-02T11:40:41.161Z</time></trkpt><trkpt lat="43.839127" lon="12.8921855"><ele>55.0</ele><time>2026-05-02T11:40:42.16Z</time></trkpt><trkpt lat="43.8391861" lon="12.8924437"><ele>55.0</ele><time>2026-05-02T11:40:43.161Z</time></trkpt><trkpt lat="43.8392401" lon="12.8927031"><ele>55.0</ele><time>2026-05-02T11:40:44.158Z</time></trkpt><trkpt lat="43.8392709" lon="12.8929581"><ele>53.0</ele><time>2026-05-02T11:40:45.159Z</time></trkpt><trkpt lat="43.8393019" lon="12.8932129"><ele>51.0</ele><time>2026-05-02T11:40:46.153Z</time></trkpt><trkpt lat="43.8393455" lon="12.8934302"><ele>49.0</ele><time>2026-05-02T11:40:47.16Z</time></trkpt><trkpt lat="43.8393744" lon="12.8936383"><ele>49.0</ele><time>2026-05-02T11:40:48.159Z</time></trkpt><trkpt lat="43.839393" lon="12.8938384"><ele>49.0</ele><time>2026-05-02T11:40:49.162Z</time></trkpt><trkpt lat="43.8394116" lon="12.8940189"><ele>49.0</ele><time>2026-05-02T11:40:50.161Z</time></trkpt><trkpt lat="43.8394268" lon="12.8941956"><ele>49.0</ele><time>2026-05-02T11:40:51.16Z</time></trkpt><trkpt lat="43.8394354" lon="12.8943513"><ele>49.400000000000006</ele><time>2026-05-02T11:40:52.165Z</time></trkpt><trkpt lat="43.8394642" lon="12.8944858"><ele>49.8</ele><time>2026-05-02T11:40:53.163Z</time></trkpt><trkpt lat="43.8395197" lon="12.8946005"><ele>50.2</ele><time>2026-05-02T11:40:54.162Z</time></trkpt><trkpt lat="43.8395915" lon="12.8947023"><ele>50.599999999999994</ele><time>2026-05-02T11:40:55.168Z</time></trkpt><trkpt lat="43.8396844" lon="12.8947647"><ele>51.0</ele><time>2026-05-02T11:40:56.151Z</time></trkpt><trkpt lat="43.8397881" lon="12.8947965"><ele>51.0</ele><time>2026-05-02T11:40:57.148Z</time></trkpt><trkpt lat="43.839925" lon="12.8948205"><ele>51.0</ele><time>2026-05-02T11:40:58.163Z</time></trkpt><trkpt lat="43.8400689" lon="12.8947975"><ele>51.0</ele><time>2026-05-02T11:40:59.164Z</time></trkpt><trkpt lat="43.8402248" lon="12.8947962"><ele>51.0</ele><time>2026-05-02T11:41:00.165Z</time></trkpt><trkpt lat="43.8403642" lon="12.8947891"><ele>51.75</ele><time>2026-05-02T11:41:01.162Z</time></trkpt><trkpt lat="43.8404919" lon="12.894766"><ele>52.5</ele><time>2026-05-02T11:41:02.161Z</time></trkpt><trkpt lat="43.840629" lon="12.8947226"><ele>53.25</ele><time>2026-05-02T11:41:03.159Z</time></trkpt><trkpt lat="43.8407399" lon="12.894621"><ele>54.0</ele><time>2026-05-02T11:41:04.165Z</time></trkpt><trkpt lat="43.8408853" lon="12.8945771"><ele>54.75</ele><time>2026-05-02T11:41:05.148Z</time></trkpt><trkpt lat="43.8410235" lon="12.8945236"><ele>55.5</ele><time>2026-05-02T11:41:06.161Z</time></trkpt><trkpt lat="43.8411733" lon="12.8945118"><ele>56.25</ele><time>2026-05-02T11:41:07.147Z</time></trkpt><trkpt lat="43.8413218" lon="12.8945046"><ele>57.0</ele><time>2026-05-02T11:41:08.148Z</time></trkpt><trkpt lat="43.8414559" lon="12.8945039"><ele>57.0</ele><time>2026-05-02T11:41:09.157Z</time></trkpt><trkpt lat="43.8415676" lon="12.8945184"><ele>57.0</ele><time>2026-05-02T11:41:10.159Z</time></trkpt><trkpt lat="43.8416607" lon="12.8945299"><ele>57.0</ele><time>2026-05-02T11:41:11.15Z</time></trkpt><trkpt lat="43.8417606" lon="12.8945497"><ele>57.0</ele><time>2026-05-02T11:41:12.157Z</time></trkpt><trkpt lat="43.8419221" lon="12.8945338"><ele>57.6</ele><time>2026-05-02T11:41:13.155Z</time></trkpt><trkpt lat="43.8420384" lon="12.8945701"><ele>58.2</ele><time>2026-05-02T11:41:14.161Z</time></trkpt><trkpt lat="43.8421245" lon="12.8946161"><ele>58.8</ele><time>2026-05-02T11:41:15.157Z</time></trkpt><trkpt lat="43.8422053" lon="12.8945568"><ele>59.4</ele><time>2026-05-02T11:41:18.149Z</time></trkpt><trkpt lat="43.8422828" lon="12.8945453"><ele>60.0</ele><time>2026-05-02T11:41:20.157Z</time></trkpt><trkpt lat="43.8424062" lon="12.8945383"><ele>60.0</ele><time>2026-05-02T11:41:22.154Z</time></trkpt><trkpt lat="43.8424845" lon="12.8945482"><ele>60.0</ele><time>2026-05-02T11:41:23.153Z</time></trkpt><trkpt lat="43.8425696" lon="12.894553"><ele>60.0</ele><time>2026-05-02T11:41:24.162Z</time></trkpt><trkpt lat="43.8426672" lon="12.8945543"><ele>60.0</ele><time>2026-05-02T11:41:25.163Z</time></trkpt><trkpt lat="43.8428" lon="12.8945805"><ele>60.0</ele><time>2026-05-02T11:41:26.156Z</time></trkpt><trkpt lat="43.842923" lon="12.8946112"><ele>61.5</ele><time>2026-05-02T11:41:27.153Z</time></trkpt><trkpt lat="43.8430355" lon="12.8946426"><ele>63.0</ele><time>2026-05-02T11:41:28.153Z</time></trkpt><trkpt lat="43.8431451" lon="12.8946748"><ele>64.5</ele><time>2026-05-02T11:41:29.151Z</time></trkpt><trkpt lat="43.8432589" lon="12.8947008"><ele>66.0</ele><time>2026-05-02T11:41:30.154Z</time></trkpt><trkpt lat="43.8433823" lon="12.8947309"><ele>68.5</ele><time>2026-05-02T11:41:31.158Z</time></trkpt><trkpt lat="43.843513" lon="12.8947709"><ele>71.0</ele><time>2026-05-02T11:41:32.153Z</time></trkpt><trkpt lat="43.8436502" lon="12.8948392"><ele>73.5</ele><time>2026-05-02T11:41:33.148Z</time></trkpt><trkpt lat="43.8437843" lon="12.8948946"><ele>76.0</ele><time>2026-05-02T11:41:34.136Z</time></trkpt><trkpt lat="43.8439126" lon="12.8949375"><ele>76.0</ele><time>2026-05-02T11:41:35.153Z</time></trkpt><trkpt lat="43.8440301" lon="12.8949084"><ele>76.0</ele><time>2026-05-02T11:41:36.154Z</time></trkpt><trkpt lat="43.8441573" lon="12.8948255"><ele>76.0</ele><time>2026-05-02T11:41:37.159Z</time></trkpt><trkpt lat="43.8442984" lon="12.8947433"><ele>76.0</ele><time>2026-05-02T11:41:38.15Z</time></trkpt><trkpt lat="43.8444352" lon="12.8946239"><ele>78.33333333333333</ele><time>2026-05-02T11:41:39.148Z</time></trkpt><trkpt lat="43.844561" lon="12.8945143"><ele>80.66666666666667</ele><time>2026-05-02T11:41:40.161Z</time></trkpt><trkpt lat="43.8446714" lon="12.8943228"><ele>83.0</ele><time>2026-05-02T11:41:41.161Z</time></trkpt><trkpt lat="43.844802" lon="12.8942602"><ele>81.33333333333334</ele><time>2026-05-02T11:41:42.164Z</time></trkpt><trkpt lat="43.8448794" lon="12.8941063"><ele>79.66666666666667</ele><time>2026-05-02T11:41:43.159Z</time></trkpt><trkpt lat="43.8450387" lon="12.8939638"><ele>78.0</ele><time>2026-05-02T11:41:44.162Z</time></trkpt><trkpt lat="43.8452064" lon="12.8938886"><ele>80.25</ele><time>2026-05-02T11:41:45.161Z</time></trkpt><trkpt lat="43.8453342" lon="12.8937963"><ele>82.5</ele><time>2026-05-02T11:41:46.162Z</time></trkpt><trkpt lat="43.8454438" lon="12.8936564"><ele>84.75</ele><time>2026-05-02T11:41:47.161Z</time></trkpt><trkpt lat="43.8455527" lon="12.893535"><ele>87.0</ele><time>2026-05-02T11:41:48.152Z</time></trkpt><trkpt lat="43.8456825" lon="12.8934098"><ele>87.0</ele><time>2026-05-02T11:41:49.156Z</time></trkpt><trkpt lat="43.8457979" lon="12.8932884"><ele>87.0</ele><time>2026-05-02T11:41:50.156Z</time></trkpt><trkpt lat="43.8459104" lon="12.8931734"><ele>87.0</ele><time>2026-05-02T11:41:51.153Z</time></trkpt><trkpt lat="43.8460198" lon="12.8930344"><ele>87.0</ele><time>2026-05-02T11:41:52.157Z</time></trkpt><trkpt lat="43.846143" lon="12.8928774"><ele>91.66666666666666</ele><time>2026-05-02T11:41:53.152Z</time></trkpt><trkpt lat="43.8462763" lon="12.8927581"><ele>96.33333333333333</ele><time>2026-05-02T11:41:54.151Z</time></trkpt><trkpt lat="43.8463985" lon="12.8926084"><ele>101.0</ele><time>2026-05-02T11:41:55.15Z</time></trkpt><trkpt lat="43.8465057" lon="12.8924412"><ele>101.0</ele><time>2026-05-02T11:41:56.153Z</time></trkpt><trkpt lat="43.8466173" lon="12.8922946"><ele>101.0</ele><time>2026-05-02T11:41:57.151Z</time></trkpt><trkpt lat="43.8467311" lon="12.8921469"><ele>101.0</ele><time>2026-05-02T11:41:58.154Z</time></trkpt><trkpt lat="43.8468555" lon="12.8920288"><ele>104.25</ele><time>2026-05-02T11:41:59.153Z</time></trkpt><trkpt lat="43.8469904" lon="12.8919576"><ele>107.5</ele><time>2026-05-02T11:42:00.156Z</time></trkpt><trkpt lat="43.8471105" lon="12.8919304"><ele>110.75</ele><time>2026-05-02T11:42:01.152Z</time></trkpt><trkpt lat="43.8472163" lon="12.8919057"><ele>114.0</ele><time>2026-05-02T11:42:02.157Z</time></trkpt><trkpt lat="43.8473182" lon="12.8919546"><ele>114.0</ele><time>2026-05-02T11:42:03.143Z</time></trkpt><trkpt lat="43.8474192" lon="12.8920662"><ele>114.0</ele><time>2026-05-02T11:42:04.152Z</time></trkpt><trkpt lat="43.8475008" lon="12.8922101"><ele>114.0</ele><time>2026-05-02T11:42:05.153Z</time></trkpt><trkpt lat="43.8475926" lon="12.892351"><ele>114.0</ele><time>2026-05-02T11:42:06.153Z</time></trkpt><trkpt lat="43.8476995" lon="12.8924909"><ele>117.75</ele><time>2026-05-02T11:42:07.159Z</time></trkpt><trkpt lat="43.8478137" lon="12.8925936"><ele>121.5</ele><time>2026-05-02T11:42:08.147Z</time></trkpt><trkpt lat="43.8479595" lon="12.8926854"><ele>125.25</ele><time>2026-05-02T11:42:09.153Z</time></trkpt><trkpt lat="43.8480927" lon="12.8927598"><ele>129.0</ele><time>2026-05-02T11:42:10.159Z</time></trkpt><trkpt lat="43.8482054" lon="12.892806"><ele>129.0</ele><time>2026-05-02T11:42:11.155Z</time></trkpt><trkpt lat="43.8483165" lon="12.8928574"><ele>129.0</ele><time>2026-05-02T11:42:12.163Z</time></trkpt><trkpt lat="43.848417" lon="12.8928968"><ele>129.0</ele><time>2026-05-02T11:42:13.162Z</time></trkpt><trkpt lat="43.8485392" lon="12.8928768"><ele>129.0</ele><time>2026-05-02T11:42:14.162Z</time></trkpt><trkpt lat="43.8486569" lon="12.8927934"><ele>131.4</ele><time>2026-05-02T11:42:15.148Z</time></trkpt><trkpt lat="43.8487316" lon="12.8927103"><ele>133.8</ele><time>2026-05-02T11:42:16.154Z</time></trkpt><trkpt lat="43.8488055" lon="12.8926617"><ele>136.2</ele><time>2026-05-02T11:42:17.155Z</time></trkpt><trkpt lat="43.8489235" lon="12.8926702"><ele>138.6</ele><time>2026-05-02T11:42:19.155Z</time></trkpt><trkpt lat="43.8489581" lon="12.8927836"><ele>141.0</ele><time>2026-05-02T11:42:20.156Z</time></trkpt><trkpt lat="43.8489985" lon="12.8928908"><ele>141.0</ele><time>2026-05-02T11:42:21.157Z</time></trkpt><trkpt lat="43.849044" lon="12.8930132"><ele>141.0</ele><time>2026-05-02T11:42:22.155Z</time></trkpt><trkpt lat="43.849078" lon="12.8931624"><ele>141.0</ele><time>2026-05-02T11:42:23.156Z</time></trkpt><trkpt lat="43.8490972" lon="12.8933451"><ele>141.0</ele><time>2026-05-02T11:42:24.151Z</time></trkpt><trkpt lat="43.8491199" lon="12.8935112"><ele>142.5</ele><time>2026-05-02T11:42:25.162Z</time></trkpt><trkpt lat="43.8490926" lon="12.8936869"><ele>144.0</ele><time>2026-05-02T11:42:26.155Z</time></trkpt><trkpt lat="43.8490124" lon="12.8938458"><ele>145.5</ele><time>2026-05-02T11:42:27.15Z</time></trkpt><trkpt lat="43.8489043" lon="12.8939969"><ele>147.0</ele><time>2026-05-02T11:42:28.147Z</time></trkpt><trkpt lat="43.8488071" lon="12.8941233"><ele>147.0</ele><time>2026-05-02T11:42:29.149Z</time></trkpt><trkpt lat="43.8487034" lon="12.8942344"><ele>147.0</ele><time>2026-05-02T11:42:30.142Z</time></trkpt><trkpt lat="43.8485866" lon="12.8943569"><ele>147.0</ele><time>2026-05-02T11:42:31.15Z</time></trkpt><trkpt lat="43.8484906" lon="12.8944592"><ele>147.0</ele><time>2026-05-02T11:42:32.156Z</time></trkpt><trkpt lat="43.8484088" lon="12.8945722"><ele>147.25</ele><time>2026-05-02T11:42:33.154Z</time></trkpt><trkpt lat="43.8483344" lon="12.8946809"><ele>147.5</ele><time>2026-05-02T11:42:34.149Z</time></trkpt><trkpt lat="43.8482602" lon="12.8948021"><ele>147.75</ele><time>2026-05-02T11:42:35.152Z</time></trkpt><trkpt lat="43.8482307" lon="12.8949604"><ele>148.0</ele><time>2026-05-02T11:42:36.16Z</time></trkpt><trkpt lat="43.8482392" lon="12.895115"><ele>148.4</ele><time>2026-05-02T11:42:37.153Z</time></trkpt><trkpt lat="43.8482742" lon="12.8952375"><ele>148.8</ele><time>2026-05-02T11:42:38.155Z</time></trkpt><trkpt lat="43.8483366" lon="12.8953677"><ele>149.2</ele><time>2026-05-02T11:42:39.144Z</time></trkpt><trkpt lat="43.8484147" lon="12.895498"><ele>149.6</ele><time>2026-05-02T11:42:40.151Z</time></trkpt><trkpt lat="43.8485002" lon="12.8955969"><ele>150.0</ele><time>2026-05-02T11:42:41.158Z</time></trkpt><trkpt lat="43.8486026" lon="12.895647"><ele>153.75</ele><time>2026-05-02T11:42:42.168Z</time></trkpt><trkpt lat="43.8487259" lon="12.8956546"><ele>157.5</ele><time>2026-05-02T11:42:43.16Z</time></trkpt><trkpt lat="43.848873" lon="12.8956154"><ele>161.25</ele><time>2026-05-02T11:42:44.149Z</time></trkpt><trkpt lat="43.8489956" lon="12.8955523"><ele>165.0</ele><time>2026-05-02T11:42:45.149Z</time></trkpt><trkpt lat="43.8491221" lon="12.8954979"><ele>165.0</ele><time>2026-05-02T11:42:46.145Z</time></trkpt><trkpt lat="43.8492517" lon="12.8954398"><ele>165.0</ele><time>2026-05-02T11:42:47.15Z</time></trkpt><trkpt lat="43.8493734" lon="12.8954198"><ele>165.0</ele><time>2026-05-02T11:42:48.144Z</time></trkpt><trkpt lat="43.8494851" lon="12.895426"><ele>165.0</ele><time>2026-05-02T11:42:49.156Z</time></trkpt><trkpt lat="43.8496091" lon="12.8954679"><ele>166.0</ele><time>2026-05-02T11:42:50.149Z</time></trkpt><trkpt lat="43.8497248" lon="12.8955264"><ele>167.0</ele><time>2026-05-02T11:42:51.155Z</time></trkpt><trkpt lat="43.8498137" lon="12.89556"><ele>168.0</ele><time>2026-05-02T11:42:52.164Z</time></trkpt><trkpt lat="43.8499039" lon="12.8955315"><ele>169.0</ele><time>2026-05-02T11:42:53.164Z</time></trkpt><trkpt lat="43.8499854" lon="12.8954526"><ele>170.0</ele><time>2026-05-02T11:42:54.163Z</time></trkpt><trkpt lat="43.850079" lon="12.8953185"><ele>169.66666666666666</ele><time>2026-05-02T11:42:55.157Z</time></trkpt><trkpt lat="43.8501747" lon="12.8951611"><ele>169.33333333333334</ele><time>2026-05-02T11:42:56.155Z</time></trkpt><trkpt lat="43.8502828" lon="12.8949884"><ele>169.0</ele><time>2026-05-02T11:42:57.155Z</time></trkpt><trkpt lat="43.850392" lon="12.8948196"><ele>169.0</ele><time>2026-05-02T11:42:58.16Z</time></trkpt><trkpt lat="43.8505066" lon="12.8946572"><ele>169.0</ele><time>2026-05-02T11:42:59.168Z</time></trkpt><trkpt lat="43.8506126" lon="12.8944988"><ele>169.0</ele><time>2026-05-02T11:43:00.16Z</time></trkpt><trkpt lat="43.8507244" lon="12.8943442"><ele>171.66666666666669</ele><time>2026-05-02T11:43:01.159Z</time></trkpt><trkpt lat="43.8508516" lon="12.8941927"><ele>174.33333333333334</ele><time>2026-05-02T11:43:02.16Z</time></trkpt><trkpt lat="43.8509792" lon="12.8940434"><ele>177.0</ele><time>2026-05-02T11:43:03.154Z</time></trkpt><trkpt lat="43.8511074" lon="12.8939026"><ele>177.0</ele><time>2026-05-02T11:43:04.153Z</time></trkpt><trkpt lat="43.8512456" lon="12.893716"><ele>177.0</ele><time>2026-05-02T11:43:05.155Z</time></trkpt><trkpt lat="43.851367" lon="12.8936271"><ele>177.0</ele><time>2026-05-02T11:43:06.158Z</time></trkpt><trkpt lat="43.8514935" lon="12.8934925"><ele>177.0</ele><time>2026-05-02T11:43:07.154Z</time></trkpt><trkpt lat="43.8516235" lon="12.8934437"><ele>177.0</ele><time>2026-05-02T11:43:08.16Z</time></trkpt><trkpt lat="43.8517603" lon="12.8934426"><ele>177.0</ele><time>2026-05-02T11:43:09.152Z</time></trkpt><trkpt lat="43.8519042" lon="12.8934256"><ele>177.0</ele><time>2026-05-02T11:43:10.158Z</time></trkpt><trkpt lat="43.8520643" lon="12.8933959"><ele>179.75</ele><time>2026-05-02T11:43:11.151Z</time></trkpt><trkpt lat="43.8522041" lon="12.89337"><ele>182.5</ele><time>2026-05-02T11:43:12.158Z</time></trkpt><trkpt lat="43.8523458" lon="12.8933304"><ele>185.25</ele><time>2026-05-02T11:43:13.154Z</time></trkpt><trkpt lat="43.8524866" lon="12.8932543"><ele>188.0</ele><time>2026-05-02T11:43:14.158Z</time></trkpt><trkpt lat="43.852609" lon="12.8931771"><ele>189.0</ele><time>2026-05-02T11:43:15.16Z</time></trkpt><trkpt lat="43.8527453" lon="12.8931449"><ele>190.0</ele><time>2026-05-02T11:43:16.153Z</time></trkpt><trkpt lat="43.8528774" lon="12.8931259"><ele>191.0</ele><time>2026-05-02T11:43:17.157Z</time></trkpt><trkpt lat="43.8530078" lon="12.893106"><ele>192.0</ele><time>2026-05-02T11:43:18.151Z</time></trkpt><trkpt lat="43.8531501" lon="12.8930774"><ele>192.0</ele><time>2026-05-02T11:43:19.154Z</time></trkpt><trkpt lat="43.8533452" lon="12.8931039"><ele>192.0</ele><time>2026-05-02T11:43:20.15Z</time></trkpt><trkpt lat="43.8534782" lon="12.8931312"><ele>192.0</ele><time>2026-05-02T11:43:21.14Z</time></trkpt><trkpt lat="43.8535649" lon="12.893202"><ele>192.0</ele><time>2026-05-02T11:43:22.145Z</time></trkpt><trkpt lat="43.8536331" lon="12.8932872"><ele>189.75</ele><time>2026-05-02T11:43:23.157Z</time></trkpt><trkpt lat="43.8537759" lon="12.8933045"><ele>187.5</ele><time>2026-05-02T11:43:24.157Z</time></trkpt><trkpt lat="43.8538835" lon="12.8932921"><ele>185.25</ele><time>2026-05-02T11:43:25.166Z</time></trkpt><trkpt lat="43.8540168" lon="12.8932977"><ele>183.0</ele><time>2026-05-02T11:43:26.145Z</time></trkpt><trkpt lat="43.8541624" lon="12.8933372"><ele>181.66666666666666</ele><time>2026-05-02T11:43:27.148Z</time></trkpt><trkpt lat="43.8543388" lon="12.8933672"><ele>180.33333333333331</ele><time>2026-05-02T11:43:28.153Z</time></trkpt><trkpt lat="43.8545129" lon="12.8933794"><ele>179.0</ele><time>2026-05-02T11:43:29.159Z</time></trkpt><trkpt lat="43.8546846" lon="12.8933921"><ele>179.0</ele><time>2026-05-02T11:43:30.147Z</time></trkpt><trkpt lat="43.8548824" lon="12.8933839"><ele>179.0</ele><time>2026-05-02T11:43:31.156Z</time></trkpt><trkpt lat="43.8551268" lon="12.8933181"><ele>179.0</ele><time>2026-05-02T11:43:32.152Z</time></trkpt><trkpt lat="43.8553898" lon="12.8931972"><ele>179.33333333333331</ele><time>2026-05-02T11:43:33.148Z</time></trkpt><trkpt lat="43.8556014" lon="12.8930901"><ele>179.66666666666666</ele><time>2026-05-02T11:43:34.144Z</time></trkpt><trkpt lat="43.8557582" lon="12.8930742"><ele>180.0</ele><time>2026-05-02T11:43:35.145Z</time></trkpt><trkpt lat="43.855891" lon="12.8930492"><ele>182.0</ele><time>2026-05-02T11:43:36.148Z</time></trkpt><trkpt lat="43.8560635" lon="12.8929648"><ele>184.0</ele><time>2026-05-02T11:43:37.143Z</time></trkpt><trkpt lat="43.8561997" lon="12.8929053"><ele>186.0</ele><time>2026-05-02T11:43:38.149Z</time></trkpt><trkpt lat="43.8563164" lon="12.892883"><ele>188.0</ele><time>2026-05-02T11:43:39.145Z</time></trkpt><trkpt lat="43.8564221" lon="12.8929304"><ele>188.0</ele><time>2026-05-02T11:43:40.145Z</time></trkpt><trkpt lat="43.8565801" lon="12.8929375"><ele>188.0</ele><time>2026-05-02T11:43:41.156Z</time></trkpt><trkpt lat="43.8567313" lon="12.8929829"><ele>188.0</ele><time>2026-05-02T11:43:42.162Z</time></trkpt><trkpt lat="43.8568523" lon="12.8930084"><ele>188.0</ele><time>2026-05-02T11:43:43.16Z</time></trkpt><trkpt lat="43.8569842" lon="12.893065"><ele>189.0</ele><time>2026-05-02T11:43:44.157Z</time></trkpt><trkpt lat="43.8571034" lon="12.8930955"><ele>190.0</ele><time>2026-05-02T11:43:45.153Z</time></trkpt><trkpt lat="43.857228" lon="12.8931484"><ele>191.0</ele><time>2026-05-02T11:43:46.158Z</time></trkpt><trkpt lat="43.8573694" lon="12.8932228"><ele>192.0</ele><time>2026-05-02T11:43:47.157Z</time></trkpt><trkpt lat="43.8574333" lon="12.8932655"><ele>192.0</ele><time>2026-05-02T11:43:48.158Z</time></trkpt><trkpt lat="43.8575043" lon="12.8933552"><ele>192.0</ele><time>2026-05-02T11:43:49.164Z</time></trkpt><trkpt lat="43.8575971" lon="12.8934403"><ele>192.0</ele><time>2026-05-02T11:43:50.153Z</time></trkpt><trkpt lat="43.8577424" lon="12.8935152"><ele>192.0</ele><time>2026-05-02T11:43:51.155Z</time></trkpt><trkpt lat="43.8578279" lon="12.8935927"><ele>191.0</ele><time>2026-05-02T11:43:52.152Z</time></trkpt><trkpt lat="43.8578966" lon="12.893658"><ele>190.0</ele><time>2026-05-02T11:43:53.155Z</time></trkpt><trkpt lat="43.8579948" lon="12.8937509"><ele>189.0</ele><time>2026-05-02T11:43:54.153Z</time></trkpt><trkpt lat="43.8581216" lon="12.8938995"><ele>188.0</ele><time>2026-05-02T11:43:55.163Z</time></trkpt><trkpt lat="43.8582428" lon="12.8940181"><ele>188.0</ele><time>2026-05-02T11:43:56.159Z</time></trkpt><trkpt lat="43.8583884" lon="12.8941503"><ele>188.0</ele><time>2026-05-02T11:43:57.15Z</time></trkpt><trkpt lat="43.8585704" lon="12.8942207"><ele>188.0</ele><time>2026-05-02T11:43:58.16Z</time></trkpt><trkpt lat="43.8587608" lon="12.8942708"><ele>183.0</ele><time>2026-05-02T11:43:59.161Z</time></trkpt><trkpt lat="43.8589228" lon="12.8943571"><ele>178.0</ele><time>2026-05-02T11:44:00.158Z</time></trkpt><trkpt lat="43.859052" lon="12.8944554"><ele>173.0</ele><time>2026-05-02T11:44:01.145Z</time></trkpt><trkpt lat="43.8591806" lon="12.8945389"><ele>171.75</ele><time>2026-05-02T11:44:02.148Z</time></trkpt><trkpt lat="43.8592952" lon="12.8945675"><ele>170.5</ele><time>2026-05-02T11:44:03.139Z</time></trkpt><trkpt lat="43.85943" lon="12.8945599"><ele>169.25</ele><time>2026-05-02T11:44:04.142Z</time></trkpt><trkpt lat="43.8595986" lon="12.894519"><ele>168.0</ele><time>2026-05-02T11:44:05.142Z</time></trkpt><trkpt lat="43.8597814" lon="12.8944786"><ele>168.0</ele><time>2026-05-02T11:44:06.152Z</time></trkpt><trkpt lat="43.85995" lon="12.8944482"><ele>168.0</ele><time>2026-05-02T11:44:07.146Z</time></trkpt><trkpt lat="43.8601511" lon="12.8944647"><ele>168.0</ele><time>2026-05-02T11:44:08.145Z</time></trkpt><trkpt lat="43.8603227" lon="12.8944726"><ele>169.0</ele><time>2026-05-02T11:44:09.148Z</time></trkpt><trkpt lat="43.8604615" lon="12.8944849"><ele>170.0</ele><time>2026-05-02T11:44:10.144Z</time></trkpt><trkpt lat="43.8606159" lon="12.894503"><ele>171.0</ele><time>2026-05-02T11:44:11.146Z</time></trkpt><trkpt lat="43.8607695" lon="12.8945121"><ele>172.0</ele><time>2026-05-02T11:44:12.145Z</time></trkpt><trkpt lat="43.8609203" lon="12.8945194"><ele>170.66666666666669</ele><time>2026-05-02T11:44:13.147Z</time></trkpt><trkpt lat="43.8610714" lon="12.8945395"><ele>169.33333333333334</ele><time>2026-05-02T11:44:14.148Z</time></trkpt><trkpt lat="43.8612056" lon="12.894582"><ele>168.0</ele><time>2026-05-02T11:44:15.15Z</time></trkpt><trkpt lat="43.8613781" lon="12.8946654"><ele>168.0</ele><time>2026-05-02T11:44:16.159Z</time></trkpt><trkpt lat="43.8615794" lon="12.894798"><ele>168.0</ele><time>2026-05-02T11:44:17.152Z</time></trkpt><trkpt lat="43.8617593" lon="12.8949199"><ele>168.0</ele><time>2026-05-02T11:44:18.149Z</time></trkpt><trkpt lat="43.8619324" lon="12.8950276"><ele>166.33333333333334</ele><time>2026-05-02T11:44:19.157Z</time></trkpt><trkpt lat="43.8621064" lon="12.8950987"><ele>164.66666666666669</ele><time>2026-05-02T11:44:20.156Z</time></trkpt><trkpt lat="43.8622859" lon="12.8951572"><ele>163.0</ele><time>2026-05-02T11:44:21.146Z</time></trkpt><trkpt lat="43.8624406" lon="12.8952137"><ele>163.0</ele><time>2026-05-02T11:44:22.143Z</time></trkpt><trkpt lat="43.8625877" lon="12.8952524"><ele>163.0</ele><time>2026-05-02T11:44:23.153Z</time></trkpt><trkpt lat="43.8627682" lon="12.8953295"><ele>163.0</ele><time>2026-05-02T11:44:24.14Z</time></trkpt><trkpt lat="43.8629345" lon="12.8954081"><ele>162.25</ele><time>2026-05-02T11:44:25.139Z</time></trkpt><trkpt lat="43.8630714" lon="12.8954397"><ele>161.5</ele><time>2026-05-02T11:44:26.139Z</time></trkpt><trkpt lat="43.8632196" lon="12.8954292"><ele>160.75</ele><time>2026-05-02T11:44:27.154Z</time></trkpt><trkpt lat="43.8633088" lon="12.8955093"><ele>160.0</ele><time>2026-05-02T11:44:28.152Z</time></trkpt><trkpt lat="43.8631356" lon="12.8956703"><ele>160.0</ele><time>2026-05-02T11:44:29.157Z</time></trkpt><trkpt lat="43.8630412" lon="12.8959"><ele>160.0</ele><time>2026-05-02T11:44:30.164Z</time></trkpt><trkpt lat="43.8630105" lon="12.8960981"><ele>160.0</ele><time>2026-05-02T11:44:31.158Z</time></trkpt><trkpt lat="43.8630216" lon="12.8963184"><ele>156.66666666666669</ele><time>2026-05-02T11:44:32.147Z</time></trkpt><trkpt lat="43.8630021" lon="12.8965711"><ele>153.33333333333334</ele><time>2026-05-02T11:44:33.156Z</time></trkpt><trkpt lat="43.8629814" lon="12.8968346"><ele>150.0</ele><time>2026-05-02T11:44:34.157Z</time></trkpt><trkpt lat="43.8628948" lon="12.8971533"><ele>148.33333333333334</ele><time>2026-05-02T11:44:35.163Z</time></trkpt><trkpt lat="43.8628812" lon="12.8973777"><ele>146.66666666666669</ele><time>2026-05-02T11:44:36.164Z</time></trkpt><trkpt lat="43.8628906" lon="12.8975928"><ele>145.0</ele><time>2026-05-02T11:44:37.159Z</time></trkpt><trkpt lat="43.8628825" lon="12.8978481"><ele>145.0</ele><time>2026-05-02T11:44:38.161Z</time></trkpt><trkpt lat="43.8629402" lon="12.8980597"><ele>145.0</ele><time>2026-05-02T11:44:39.148Z</time></trkpt><trkpt lat="43.8629976" lon="12.8982694"><ele>145.0</ele><time>2026-05-02T11:44:40.149Z</time></trkpt><trkpt lat="43.8631069" lon="12.8984487"><ele>145.0</ele><time>2026-05-02T11:44:41.145Z</time></trkpt><trkpt lat="43.8632359" lon="12.8986229"><ele>145.0</ele><time>2026-05-02T11:44:42.141Z</time></trkpt><trkpt lat="43.8633576" lon="12.8987709"><ele>145.0</ele><time>2026-05-02T11:44:43.14Z</time></trkpt><trkpt lat="43.8634655" lon="12.8989301"><ele>140.0</ele><time>2026-05-02T11:44:44.147Z</time></trkpt><trkpt lat="43.8635256" lon="12.899121"><ele>135.0</ele><time>2026-05-02T11:44:45.15Z</time></trkpt><trkpt lat="43.8635607" lon="12.8993095"><ele>130.0</ele><time>2026-05-02T11:44:46.142Z</time></trkpt><trkpt lat="43.8636252" lon="12.8994715"><ele>125.0</ele><time>2026-05-02T11:44:47.152Z</time></trkpt><trkpt lat="43.8636674" lon="12.8996478"><ele>125.0</ele><time>2026-05-02T11:44:48.147Z</time></trkpt><trkpt lat="43.8636962" lon="12.8998227"><ele>125.0</ele><time>2026-05-02T11:44:49.151Z</time></trkpt><trkpt lat="43.8637781" lon="12.8999903"><ele>125.0</ele><time>2026-05-02T11:44:50.145Z</time></trkpt><trkpt lat="43.8638682" lon="12.9001407"><ele>125.0</ele><time>2026-05-02T11:44:51.15Z</time></trkpt><trkpt lat="43.8640174" lon="12.9002491"><ele>125.66666666666666</ele><time>2026-05-02T11:44:52.143Z</time></trkpt><trkpt lat="43.8641657" lon="12.9003364"><ele>126.33333333333334</ele><time>2026-05-02T11:44:53.146Z</time></trkpt><trkpt lat="43.8643096" lon="12.9004238"><ele>127.0</ele><time>2026-05-02T11:44:54.146Z</time></trkpt><trkpt lat="43.8644526" lon="12.9005067"><ele>123.33333333333334</ele><time>2026-05-02T11:44:55.146Z</time></trkpt><trkpt lat="43.8646103" lon="12.9006083"><ele>119.66666666666666</ele><time>2026-05-02T11:44:56.146Z</time></trkpt><trkpt lat="43.8647501" lon="12.9007467"><ele>116.0</ele><time>2026-05-02T11:44:57.147Z</time></trkpt><trkpt lat="43.8648743" lon="12.9009038"><ele>117.66666666666666</ele><time>2026-05-02T11:44:58.159Z</time></trkpt><trkpt lat="43.8649856" lon="12.9010668"><ele>119.33333333333334</ele><time>2026-05-02T11:44:59.153Z</time></trkpt><trkpt lat="43.8650986" lon="12.9012381"><ele>121.0</ele><time>2026-05-02T11:45:00.135Z</time></trkpt><trkpt lat="43.8652285" lon="12.9013769"><ele>121.0</ele><time>2026-05-02T11:45:01.135Z</time></trkpt><trkpt lat="43.8653753" lon="12.9014706"><ele>121.0</ele><time>2026-05-02T11:45:02.137Z</time></trkpt><trkpt lat="43.8655269" lon="12.9015248"><ele>121.0</ele><time>2026-05-02T11:45:03.135Z</time></trkpt><trkpt lat="43.8656864" lon="12.9015775"><ele>121.0</ele><time>2026-05-02T11:45:04.135Z</time></trkpt><trkpt lat="43.8658417" lon="12.9016372"><ele>121.0</ele><time>2026-05-02T11:45:05.134Z</time></trkpt><trkpt lat="43.8659826" lon="12.901683"><ele>121.0</ele><time>2026-05-02T11:45:06.131Z</time></trkpt><trkpt lat="43.866118" lon="12.9017434"><ele>121.0</ele><time>2026-05-02T11:45:07.132Z</time></trkpt><trkpt lat="43.8662461" lon="12.9017882"><ele>122.25</ele><time>2026-05-02T11:45:08.129Z</time></trkpt><trkpt lat="43.8663656" lon="12.901843"><ele>123.5</ele><time>2026-05-02T11:45:09.131Z</time></trkpt><trkpt lat="43.8665106" lon="12.9018874"><ele>124.75</ele><time>2026-05-02T11:45:10.129Z</time></trkpt><trkpt lat="43.8666662" lon="12.9019239"><ele>126.0</ele><time>2026-05-02T11:45:11.137Z</time></trkpt><trkpt lat="43.8668202" lon="12.9018913"><ele>119.0</ele><time>2026-05-02T11:45:12.136Z</time></trkpt><trkpt lat="43.8670066" lon="12.9018884"><ele>112.0</ele><time>2026-05-02T11:45:13.131Z</time></trkpt><trkpt lat="43.8672828" lon="12.9019015"><ele>112.0</ele><time>2026-05-02T11:45:14.136Z</time></trkpt><trkpt lat="43.8674914" lon="12.9019125"><ele>112.0</ele><time>2026-05-02T11:45:15.13Z</time></trkpt><trkpt lat="43.8676202" lon="12.9019647"><ele>112.0</ele><time>2026-05-02T11:45:16.14Z</time></trkpt><trkpt lat="43.8677673" lon="12.9019726"><ele>110.0</ele><time>2026-05-02T11:45:17.141Z</time></trkpt><trkpt lat="43.8679203" lon="12.9019911"><ele>108.0</ele><time>2026-05-02T11:45:18.141Z</time></trkpt><trkpt lat="43.8679978" lon="12.9018977"><ele>106.0</ele><time>2026-05-02T11:45:19.135Z</time></trkpt><trkpt lat="43.8680597" lon="12.901768"><ele>104.0</ele><time>2026-05-02T11:45:20.131Z</time></trkpt><trkpt lat="43.8680591" lon="12.9015028"><ele>104.0</ele><time>2026-05-02T11:45:21.141Z</time></trkpt><trkpt lat="43.8681021" lon="12.9013234"><ele>104.0</ele><time>2026-05-02T11:45:22.141Z</time></trkpt><trkpt lat="43.868184" lon="12.9011282"><ele>104.0</ele><time>2026-05-02T11:45:23.145Z</time></trkpt><trkpt lat="43.868291" lon="12.9009343"><ele>105.0</ele><time>2026-05-02T11:45:24.132Z</time></trkpt><trkpt lat="43.8684103" lon="12.9007929"><ele>106.0</ele><time>2026-05-02T11:45:25.143Z</time></trkpt><trkpt lat="43.8685089" lon="12.9006582"><ele>107.0</ele><time>2026-05-02T11:45:26.131Z</time></trkpt><trkpt lat="43.8686023" lon="12.9005355"><ele>108.0</ele><time>2026-05-02T11:45:27.135Z</time></trkpt><trkpt lat="43.8687147" lon="12.9004206"><ele>104.0</ele><time>2026-05-02T11:45:28.148Z</time></trkpt><trkpt lat="43.8688166" lon="12.9002756"><ele>100.0</ele><time>2026-05-02T11:45:29.142Z</time></trkpt><trkpt lat="43.8689191" lon="12.9001121"><ele>96.0</ele><time>2026-05-02T11:45:30.13Z</time></trkpt><trkpt lat="43.8690296" lon="12.8999454"><ele>96.0</ele><time>2026-05-02T11:45:31.136Z</time></trkpt><trkpt lat="43.8691324" lon="12.899759"><ele>96.0</ele><time>2026-05-02T11:45:32.141Z</time></trkpt><trkpt lat="43.8692216" lon="12.8995829"><ele>96.0</ele><time>2026-05-02T11:45:33.139Z</time></trkpt><trkpt lat="43.869318" lon="12.8994478"><ele>93.75</ele><time>2026-05-02T11:45:34.146Z</time></trkpt><trkpt lat="43.8694091" lon="12.8993188"><ele>91.5</ele><time>2026-05-02T11:45:35.137Z</time></trkpt><trkpt lat="43.8694928" lon="12.899197"><ele>89.25</ele><time>2026-05-02T11:45:36.138Z</time></trkpt><trkpt lat="43.8695554" lon="12.8990753"><ele>87.0</ele><time>2026-05-02T11:45:37.132Z</time></trkpt><trkpt lat="43.8696133" lon="12.8989403"><ele>87.0</ele><time>2026-05-02T11:45:38.131Z</time></trkpt><trkpt lat="43.8696728" lon="12.8988035"><ele>87.0</ele><time>2026-05-02T11:45:39.145Z</time></trkpt><trkpt lat="43.8697237" lon="12.8986431"><ele>87.0</ele><time>2026-05-02T11:45:40.132Z</time></trkpt><trkpt lat="43.8697792" lon="12.8984853"><ele>87.0</ele><time>2026-05-02T11:45:41.14Z</time></trkpt><trkpt lat="43.8698262" lon="12.8982913"><ele>89.0</ele><time>2026-05-02T11:45:42.142Z</time></trkpt><trkpt lat="43.8698711" lon="12.8980914"><ele>91.0</ele><time>2026-05-02T11:45:43.133Z</time></trkpt><trkpt lat="43.8699042" lon="12.8978633"><ele>93.0</ele><time>2026-05-02T11:45:44.136Z</time></trkpt><trkpt lat="43.8699859" lon="12.8976489"><ele>92.0</ele><time>2026-05-02T11:45:45.132Z</time></trkpt><trkpt lat="43.8700496" lon="12.8974379"><ele>91.0</ele><time>2026-05-02T11:45:46.13Z</time></trkpt><trkpt lat="43.8701416" lon="12.8972673"><ele>90.0</ele><time>2026-05-02T11:45:47.133Z</time></trkpt><trkpt lat="43.8702401" lon="12.89709"><ele>87.75</ele><time>2026-05-02T11:45:48.13Z</time></trkpt><trkpt lat="43.8703199" lon="12.8969359"><ele>85.5</ele><time>2026-05-02T11:45:49.132Z</time></trkpt><trkpt lat="43.8704104" lon="12.8967614"><ele>83.25</ele><time>2026-05-02T11:45:50.136Z</time></trkpt><trkpt lat="43.8704675" lon="12.896588"><ele>81.0</ele><time>2026-05-02T11:45:51.129Z</time></trkpt><trkpt lat="43.8705203" lon="12.8964264"><ele>81.0</ele><time>2026-05-02T11:45:52.133Z</time></trkpt><trkpt lat="43.8705588" lon="12.896238"><ele>81.0</ele><time>2026-05-02T11:45:53.129Z</time></trkpt><trkpt lat="43.8706256" lon="12.8961098"><ele>81.0</ele><time>2026-05-02T11:45:54.132Z</time></trkpt><trkpt lat="43.8706847" lon="12.8959588"><ele>81.0</ele><time>2026-05-02T11:45:55.125Z</time></trkpt><trkpt lat="43.8707604" lon="12.8958458"><ele>79.25</ele><time>2026-05-02T11:45:56.126Z</time></trkpt><trkpt lat="43.8708371" lon="12.8957507"><ele>77.5</ele><time>2026-05-02T11:45:57.127Z</time></trkpt><trkpt lat="43.8709392" lon="12.8956697"><ele>75.75</ele><time>2026-05-02T11:45:58.132Z</time></trkpt><trkpt lat="43.8710974" lon="12.8955882"><ele>74.0</ele><time>2026-05-02T11:45:59.14Z</time></trkpt><trkpt lat="43.8712632" lon="12.8955498"><ele>71.33333333333334</ele><time>2026-05-02T11:46:00.127Z</time></trkpt><trkpt lat="43.8714407" lon="12.8955419"><ele>68.66666666666667</ele><time>2026-05-02T11:46:01.133Z</time></trkpt><trkpt lat="43.8715989" lon="12.8955141"><ele>66.0</ele><time>2026-05-02T11:46:02.133Z</time></trkpt><trkpt lat="43.8717358" lon="12.8954712"><ele>60.33333333333333</ele><time>2026-05-02T11:46:03.137Z</time></trkpt><trkpt lat="43.8718833" lon="12.8953935"><ele>54.666666666666664</ele><time>2026-05-02T11:46:04.14Z</time></trkpt><trkpt lat="43.8720433" lon="12.8952565"><ele>49.0</ele><time>2026-05-02T11:46:05.137Z</time></trkpt><trkpt lat="43.8721704" lon="12.8951194"><ele>50.5</ele><time>2026-05-02T11:46:06.14Z</time></trkpt><trkpt lat="43.8722926" lon="12.8950092"><ele>52.0</ele><time>2026-05-02T11:46:07.139Z</time></trkpt><trkpt lat="43.8723994" lon="12.8949227"><ele>53.5</ele><time>2026-05-02T11:46:08.132Z</time></trkpt><trkpt lat="43.8724846" lon="12.8948223"><ele>55.0</ele><time>2026-05-02T11:46:09.136Z</time></trkpt><trkpt lat="43.8725417" lon="12.8947224"><ele>54.99999999999999</ele><time>2026-05-02T11:46:10.139Z</time></trkpt><trkpt lat="43.8725963" lon="12.8946373"><ele>55.0</ele><time>2026-05-02T11:46:11.135Z</time></trkpt><trkpt lat="43.8726402" lon="12.8945584"><ele>55.0</ele><time>2026-05-02T11:46:12.134Z</time></trkpt><trkpt lat="43.8726989" lon="12.8945091"><ele>55.0</ele><time>2026-05-02T11:46:13.138Z</time></trkpt><trkpt lat="43.8728125" lon="12.8945438"><ele>54.99999999999999</ele><time>2026-05-02T11:46:15.142Z</time></trkpt><trkpt lat="43.8728603" lon="12.8946711"><ele>55.0</ele><time>2026-05-02T11:46:16.135Z</time></trkpt><trkpt lat="43.8728879" lon="12.8948425"><ele>49.666666666666664</ele><time>2026-05-02T11:46:17.139Z</time></trkpt><trkpt lat="43.8728827" lon="12.8950582"><ele>44.33333333333333</ele><time>2026-05-02T11:46:18.142Z</time></trkpt><trkpt lat="43.872855" lon="12.8953045"><ele>39.0</ele><time>2026-05-02T11:46:19.13Z</time></trkpt><trkpt lat="43.8728568" lon="12.8955313"><ele>39.0</ele><time>2026-05-02T11:46:20.132Z</time></trkpt><trkpt lat="43.872857" lon="12.8959032"><ele>39.0</ele><time>2026-05-02T11:46:21.13Z</time></trkpt><trkpt lat="43.8728504" lon="12.8963058"><ele>39.666666666666664</ele><time>2026-05-02T11:46:22.128Z</time></trkpt><trkpt lat="43.8729067" lon="12.896645"><ele>40.33333333333333</ele><time>2026-05-02T11:46:23.141Z</time></trkpt><trkpt lat="43.8729366" lon="12.8968773"><ele>41.0</ele><time>2026-05-02T11:46:24.138Z</time></trkpt><trkpt lat="43.8730062" lon="12.897043"><ele>41.0</ele><time>2026-05-02T11:46:25.137Z</time></trkpt><trkpt lat="43.8730919" lon="12.897218"><ele>41.0</ele><time>2026-05-02T11:46:26.143Z</time></trkpt><trkpt lat="43.8731469" lon="12.8971285"><ele>41.0</ele><time>2026-05-02T11:46:28.14Z</time></trkpt><trkpt lat="43.8731936" lon="12.8969266"><ele>41.0</ele><time>2026-05-02T11:46:29.156Z</time></trkpt><trkpt lat="43.8733187" lon="12.8966974"><ele>41.0</ele><time>2026-05-02T11:46:30.136Z</time></trkpt><trkpt lat="43.8734632" lon="12.8963133"><ele>41.0</ele><time>2026-05-02T11:46:31.141Z</time></trkpt><trkpt lat="43.8736117" lon="12.8959924"><ele>38.0</ele><time>2026-05-02T11:46:32.14Z</time></trkpt><trkpt lat="43.8737388" lon="12.8956042"><ele>35.0</ele><time>2026-05-02T11:46:33.124Z</time></trkpt><trkpt lat="43.8738417" lon="12.8953991"><ele>35.0</ele><time>2026-05-02T11:46:34.136Z</time></trkpt><trkpt lat="43.8739583" lon="12.895257"><ele>35.0</ele><time>2026-05-02T11:46:35.128Z</time></trkpt><trkpt lat="43.8740911" lon="12.8951351"><ele>35.0</ele><time>2026-05-02T11:46:36.137Z</time></trkpt><trkpt lat="43.8741977" lon="12.8949076"><ele>34.6</ele><time>2026-05-02T11:46:37.131Z</time></trkpt><trkpt lat="43.8742663" lon="12.8948085"><ele>34.2</ele><time>2026-05-02T11:46:38.143Z</time></trkpt><trkpt lat="43.8743797" lon="12.8947718"><ele>33.8</ele><time>2026-05-02T11:46:39.146Z</time></trkpt><trkpt lat="43.8744535" lon="12.8947103"><ele>33.4</ele><time>2026-05-02T11:46:40.144Z</time></trkpt><trkpt lat="43.8745508" lon="12.8946472"><ele>33.0</ele><time>2026-05-02T11:46:41.15Z</time></trkpt><trkpt lat="43.8746179" lon="12.8945859"><ele>32.4</ele><time>2026-05-02T11:46:42.143Z</time></trkpt><trkpt lat="43.874613" lon="12.8944679"><ele>31.799999999999997</ele><time>2026-05-02T11:46:44.139Z</time></trkpt><trkpt lat="43.8746378" lon="12.8943754"><ele>31.2</ele><time>2026-05-02T11:46:45.134Z</time></trkpt><trkpt lat="43.8746747" lon="12.8942587"><ele>30.6</ele><time>2026-05-02T11:46:46.133Z</time></trkpt><trkpt lat="43.874772" lon="12.8940628"><ele>30.0</ele><time>2026-05-02T11:46:47.131Z</time></trkpt><trkpt lat="43.8749293" lon="12.8938986"><ele>30.0</ele><time>2026-05-02T11:46:48.136Z</time></trkpt><trkpt lat="43.8749774" lon="12.8938022"><ele>30.0</ele><time>2026-05-02T11:46:49.153Z</time></trkpt><trkpt lat="43.8750777" lon="12.8937846"><ele>30.0</ele><time>2026-05-02T11:46:50.143Z</time></trkpt><trkpt lat="43.8752015" lon="12.8938562"><ele>30.0</ele><time>2026-05-02T11:46:51.146Z</time></trkpt><trkpt lat="43.8753487" lon="12.8939458"><ele>30.0</ele><time>2026-05-02T11:46:52.147Z</time></trkpt><trkpt lat="43.8755284" lon="12.8940232"><ele>30.0</ele><time>2026-05-02T11:46:53.152Z</time></trkpt><trkpt lat="43.8756953" lon="12.894119"><ele>30.0</ele><time>2026-05-02T11:46:54.148Z</time></trkpt><trkpt lat="43.8758595" lon="12.8942235"><ele>29.666666666666664</ele><time>2026-05-02T11:46:55.143Z</time></trkpt><trkpt lat="43.8760312" lon="12.8943088"><ele>29.333333333333332</ele><time>2026-05-02T11:46:56.142Z</time></trkpt><trkpt lat="43.8761966" lon="12.8943887"><ele>29.0</ele><time>2026-05-02T11:46:57.138Z</time></trkpt><trkpt lat="43.8763662" lon="12.8944873"><ele>29.0</ele><time>2026-05-02T11:46:58.149Z</time></trkpt><trkpt lat="43.8765334" lon="12.8945975"><ele>29.0</ele><time>2026-05-02T11:46:59.15Z</time></trkpt><trkpt lat="43.8766848" lon="12.8947021"><ele>29.0</ele><time>2026-05-02T11:47:00.148Z</time></trkpt><trkpt lat="43.8768283" lon="12.894817"><ele>29.666666666666664</ele><time>2026-05-02T11:47:01.14Z</time></trkpt><trkpt lat="43.8769653" lon="12.8949306"><ele>30.333333333333336</ele><time>2026-05-02T11:47:02.15Z</time></trkpt><trkpt lat="43.8771002" lon="12.8950478"><ele>31.0</ele><time>2026-05-02T11:47:03.147Z</time></trkpt><trkpt lat="43.8772128" lon="12.8951835"><ele>31.0</ele><time>2026-05-02T11:47:04.149Z</time></trkpt><trkpt lat="43.877334" lon="12.8953135"><ele>31.0</ele><time>2026-05-02T11:47:05.151Z</time></trkpt><trkpt lat="43.8774654" lon="12.8954353"><ele>31.0</ele><time>2026-05-02T11:47:06.148Z</time></trkpt><trkpt lat="43.8775879" lon="12.8955736"><ele>32.0</ele><time>2026-05-02T11:47:07.146Z</time></trkpt><trkpt lat="43.8777024" lon="12.895708"><ele>33.0</ele><time>2026-05-02T11:47:08.148Z</time></trkpt><trkpt lat="43.8778407" lon="12.8958349"><ele>34.0</ele><time>2026-05-02T11:47:09.148Z</time></trkpt><trkpt lat="43.877949" lon="12.8959991"><ele>31.666666666666668</ele><time>2026-05-02T11:47:10.148Z</time></trkpt><trkpt lat="43.8780739" lon="12.8961298"><ele>29.333333333333336</ele><time>2026-05-02T11:47:11.15Z</time></trkpt><trkpt lat="43.878193" lon="12.8962662"><ele>27.0</ele><time>2026-05-02T11:47:12.15Z</time></trkpt><trkpt lat="43.8783119" lon="12.8964051"><ele>26.666666666666664</ele><time>2026-05-02T11:47:13.149Z</time></trkpt><trkpt lat="43.8784363" lon="12.8965484"><ele>26.333333333333332</ele><time>2026-05-02T11:47:14.154Z</time></trkpt><trkpt lat="43.8785509" lon="12.8966999"><ele>26.0</ele><time>2026-05-02T11:47:15.145Z</time></trkpt><trkpt lat="43.8786687" lon="12.896845"><ele>26.0</ele><time>2026-05-02T11:47:16.144Z</time></trkpt><trkpt lat="43.8787788" lon="12.8969806"><ele>26.0</ele><time>2026-05-02T11:47:17.143Z</time></trkpt><trkpt lat="43.8788856" lon="12.8970561"><ele>26.0</ele><time>2026-05-02T11:47:18.155Z</time></trkpt><trkpt lat="43.8790296" lon="12.8971442"><ele>26.0</ele><time>2026-05-02T11:47:19.152Z</time></trkpt><trkpt lat="43.8791083" lon="12.8972248"><ele>26.0</ele><time>2026-05-02T11:47:20.15Z</time></trkpt><trkpt lat="43.8791107" lon="12.8973975"><ele>26.0</ele><time>2026-05-02T11:47:21.143Z</time></trkpt><trkpt lat="43.8791485" lon="12.8976102"><ele>26.0</ele><time>2026-05-02T11:47:22.143Z</time></trkpt><trkpt lat="43.8792102" lon="12.8977566"><ele>26.0</ele><time>2026-05-02T11:47:23.147Z</time></trkpt><trkpt lat="43.8793087" lon="12.8978321"><ele>28.333333333333332</ele><time>2026-05-02T11:47:24.143Z</time></trkpt><trkpt lat="43.879468" lon="12.8979444"><ele>30.666666666666664</ele><time>2026-05-02T11:47:25.148Z</time></trkpt><trkpt lat="43.8795929" lon="12.8980889"><ele>33.0</ele><time>2026-05-02T11:47:26.145Z</time></trkpt><trkpt lat="43.8797262" lon="12.8982356"><ele>33.0</ele><time>2026-05-02T11:47:27.136Z</time></trkpt><trkpt lat="43.8798594" lon="12.898379"><ele>33.0</ele><time>2026-05-02T11:47:28.144Z</time></trkpt><trkpt lat="43.8799838" lon="12.898535"><ele>33.0</ele><time>2026-05-02T11:47:29.151Z</time></trkpt><trkpt lat="43.8800896" lon="12.8987312"><ele>33.0</ele><time>2026-05-02T11:47:30.147Z</time></trkpt><trkpt lat="43.8802115" lon="12.8989409"><ele>33.0</ele><time>2026-05-02T11:47:31.143Z</time></trkpt><trkpt lat="43.8804" lon="12.8990998"><ele>33.0</ele><time>2026-05-02T11:47:32.14Z</time></trkpt><trkpt lat="43.8805261" lon="12.8992793"><ele>30.0</ele><time>2026-05-02T11:47:33.139Z</time></trkpt><trkpt lat="43.8806579" lon="12.899472"><ele>27.0</ele><time>2026-05-02T11:47:34.134Z</time></trkpt><trkpt lat="43.8807795" lon="12.8996137"><ele>24.0</ele><time>2026-05-02T11:47:35.134Z</time></trkpt><trkpt lat="43.8809026" lon="12.8997538"><ele>24.0</ele><time>2026-05-02T11:47:36.135Z</time></trkpt><trkpt lat="43.8809848" lon="12.8998962"><ele>24.0</ele><time>2026-05-02T11:47:37.139Z</time></trkpt><trkpt lat="43.881094" lon="12.9000296"><ele>24.0</ele><time>2026-05-02T11:47:38.132Z</time></trkpt><trkpt lat="43.8812322" lon="12.9001536"><ele>24.0</ele><time>2026-05-02T11:47:39.139Z</time></trkpt><trkpt lat="43.8813673" lon="12.900364"><ele>24.0</ele><time>2026-05-02T11:47:41.13Z</time></trkpt><trkpt lat="43.881509" lon="12.9004642"><ele>24.0</ele><time>2026-05-02T11:47:42.136Z</time></trkpt><trkpt lat="43.8816411" lon="12.9005921"><ele>24.0</ele><time>2026-05-02T11:47:43.14Z</time></trkpt><trkpt lat="43.8817823" lon="12.9007234"><ele>24.166666666666668</ele><time>2026-05-02T11:47:44.14Z</time></trkpt><trkpt lat="43.8818592" lon="12.900749"><ele>24.333333333333336</ele><time>2026-05-02T11:47:45.132Z</time></trkpt><trkpt lat="43.8819275" lon="12.9007599"><ele>24.5</ele><time>2026-05-02T11:47:46.13Z</time></trkpt><trkpt lat="43.8819994" lon="12.9008847"><ele>24.666666666666668</ele><time>2026-05-02T11:47:48.128Z</time></trkpt><trkpt lat="43.8820516" lon="12.9009517"><ele>24.833333333333336</ele><time>2026-05-02T11:47:49.124Z</time></trkpt><trkpt lat="43.8821231" lon="12.9009947"><ele>25.0</ele><time>2026-05-02T11:47:51.14Z</time></trkpt><trkpt lat="43.8822003" lon="12.9009803"><ele>23.75</ele><time>2026-05-02T11:47:53.14Z</time></trkpt><trkpt lat="43.8822835" lon="12.9009733"><ele>22.5</ele><time>2026-05-02T11:48:10.138Z</time></trkpt><trkpt lat="43.8824257" lon="12.9010628"><ele>21.25</ele><time>2026-05-02T11:48:13.135Z</time></trkpt><trkpt lat="43.882519" lon="12.9011446"><ele>20.0</ele><time>2026-05-02T11:48:14.139Z</time></trkpt><trkpt lat="43.882615" lon="12.9012201"><ele>20.0</ele><time>2026-05-02T11:48:15.137Z</time></trkpt><trkpt lat="43.8827188" lon="12.9012767"><ele>20.0</ele><time>2026-05-02T11:48:16.141Z</time></trkpt><trkpt lat="43.8828439" lon="12.9013612"><ele>20.0</ele><time>2026-05-02T11:48:17.139Z</time></trkpt><trkpt lat="43.882961" lon="12.9014433"><ele>20.0</ele><time>2026-05-02T11:48:18.142Z</time></trkpt><trkpt lat="43.8830773" lon="12.9015112"><ele>20.0</ele><time>2026-05-02T11:48:19.147Z</time></trkpt><trkpt lat="43.8831971" lon="12.9015731"><ele>20.0</ele><time>2026-05-02T11:48:20.145Z</time></trkpt><trkpt lat="43.8833247" lon="12.9016281"><ele>20.0</ele><time>2026-05-02T11:48:21.129Z</time></trkpt><trkpt lat="43.8834525" lon="12.9016775"><ele>20.0</ele><time>2026-05-02T11:48:22.134Z</time></trkpt><trkpt lat="43.8835742" lon="12.9017292"><ele>20.25</ele><time>2026-05-02T11:48:23.141Z</time></trkpt><trkpt lat="43.8836962" lon="12.9017787"><ele>20.5</ele><time>2026-05-02T11:48:24.136Z</time></trkpt><trkpt lat="43.8838448" lon="12.9017883"><ele>20.75</ele><time>2026-05-02T11:48:25.145Z</time></trkpt><trkpt lat="43.8839903" lon="12.9018336"><ele>21.0</ele><time>2026-05-02T11:48:26.143Z</time></trkpt><trkpt lat="43.8841158" lon="12.9018899"><ele>21.0</ele><time>2026-05-02T11:48:27.131Z</time></trkpt><trkpt lat="43.8841948" lon="12.9019432"><ele>21.0</ele><time>2026-05-02T11:48:28.136Z</time></trkpt><trkpt lat="43.8843155" lon="12.9019792"><ele>21.0</ele><time>2026-05-02T11:48:29.148Z</time></trkpt><trkpt lat="43.8844606" lon="12.9020016"><ele>21.0</ele><time>2026-05-02T11:48:30.138Z</time></trkpt><trkpt lat="43.8845954" lon="12.9020179"><ele>19.666666666666668</ele><time>2026-05-02T11:48:31.134Z</time></trkpt><trkpt lat="43.8847387" lon="12.9020281"><ele>18.333333333333336</ele><time>2026-05-02T11:48:32.138Z</time></trkpt><trkpt lat="43.8848873" lon="12.9020551"><ele>17.0</ele><time>2026-05-02T11:48:33.127Z</time></trkpt><trkpt lat="43.8850613" lon="12.9021102"><ele>16.666666666666668</ele><time>2026-05-02T11:48:34.129Z</time></trkpt><trkpt lat="43.8852444" lon="12.9021466"><ele>16.333333333333332</ele><time>2026-05-02T11:48:35.133Z</time></trkpt><trkpt lat="43.8854267" lon="12.9021715"><ele>16.0</ele><time>2026-05-02T11:48:36.136Z</time></trkpt><trkpt lat="43.8855492" lon="12.9021336"><ele>16.0</ele><time>2026-05-02T11:48:37.142Z</time></trkpt><trkpt lat="43.8856865" lon="12.902081"><ele>16.0</ele><time>2026-05-02T11:48:38.148Z</time></trkpt><trkpt lat="43.885819" lon="12.9020217"><ele>16.0</ele><time>2026-05-02T11:48:39.14Z</time></trkpt><trkpt lat="43.8859624" lon="12.9019183"><ele>16.0</ele><time>2026-05-02T11:48:40.142Z</time></trkpt><trkpt lat="43.8861261" lon="12.9018207"><ele>15.666666666666666</ele><time>2026-05-02T11:48:41.142Z</time></trkpt><trkpt lat="43.8862416" lon="12.901691"><ele>15.333333333333332</ele><time>2026-05-02T11:48:42.146Z</time></trkpt><trkpt lat="43.886388" lon="12.9015847"><ele>15.0</ele><time>2026-05-02T11:48:43.144Z</time></trkpt><trkpt lat="43.8865352" lon="12.9014736"><ele>15.0</ele><time>2026-05-02T11:48:44.137Z</time></trkpt><trkpt lat="43.886645" lon="12.9013032"><ele>15.0</ele><time>2026-05-02T11:48:45.147Z</time></trkpt><trkpt lat="43.8867596" lon="12.9011724"><ele>15.0</ele><time>2026-05-02T11:48:46.147Z</time></trkpt><trkpt lat="43.8869219" lon="12.90106"><ele>15.0</ele><time>2026-05-02T11:48:47.15Z</time></trkpt><trkpt lat="43.8870837" lon="12.9009965"><ele>15.0</ele><time>2026-05-02T11:48:48.148Z</time></trkpt><trkpt lat="43.8872142" lon="12.9008648"><ele>15.0</ele><time>2026-05-02T11:48:49.155Z</time></trkpt><trkpt lat="43.8873231" lon="12.9007544"><ele>15.0</ele><time>2026-05-02T11:48:50.15Z</time></trkpt><trkpt lat="43.8873527" lon="12.9006589"><ele>15.0</ele><time>2026-05-02T11:48:51.136Z</time></trkpt><trkpt lat="43.8874863" lon="12.9005885"><ele>15.0</ele><time>2026-05-02T11:48:52.154Z</time></trkpt><trkpt lat="43.8875955" lon="12.9004936"><ele>15.0</ele><time>2026-05-02T11:48:53.149Z</time></trkpt><trkpt lat="43.8877128" lon="12.900392"><ele>14.25</ele><time>2026-05-02T11:48:54.144Z</time></trkpt><trkpt lat="43.8878239" lon="12.9003112"><ele>13.5</ele><time>2026-05-02T11:48:55.137Z</time></trkpt><trkpt lat="43.8879755" lon="12.9001987"><ele>12.75</ele><time>2026-05-02T11:48:56.137Z</time></trkpt><trkpt lat="43.88812" lon="12.9001394"><ele>12.0</ele><time>2026-05-02T11:48:57.141Z</time></trkpt><trkpt lat="43.8882415" lon="12.9000839"><ele>12.0</ele><time>2026-05-02T11:48:58.146Z</time></trkpt><trkpt lat="43.8883849" lon="12.9000112"><ele>12.0</ele><time>2026-05-02T11:48:59.148Z</time></trkpt><trkpt lat="43.88852" lon="12.8999496"><ele>12.0</ele><time>2026-05-02T11:49:00.151Z</time></trkpt><trkpt lat="43.8886448" lon="12.8999164"><ele>12.0</ele><time>2026-05-02T11:49:01.148Z</time></trkpt><trkpt lat="43.8887526" lon="12.8999272"><ele>12.0</ele><time>2026-05-02T11:49:02.15Z</time></trkpt><trkpt lat="43.8888434" lon="12.9000035"><ele>12.0</ele><time>2026-05-02T11:49:03.147Z</time></trkpt><trkpt lat="43.8889412" lon="12.9001221"><ele>12.0</ele><time>2026-05-02T11:49:04.15Z</time></trkpt><trkpt lat="43.8890011" lon="12.9002661"><ele>12.0</ele><time>2026-05-02T11:49:05.144Z</time></trkpt><trkpt lat="43.8890533" lon="12.9004083"><ele>12.0</ele><time>2026-05-02T11:49:06.147Z</time></trkpt><trkpt lat="43.8890988" lon="12.9005686"><ele>12.0</ele><time>2026-05-02T11:49:07.154Z</time></trkpt><trkpt lat="43.8891228" lon="12.9007391"><ele>12.0</ele><time>2026-05-02T11:49:08.141Z</time></trkpt><trkpt lat="43.8890916" lon="12.9009391"><ele>12.0</ele><time>2026-05-02T11:49:09.155Z</time></trkpt><trkpt lat="43.8890258" lon="12.9011518"><ele>12.0</ele><time>2026-05-02T11:49:10.153Z</time></trkpt><trkpt lat="43.888938" lon="12.901374"><ele>12.0</ele><time>2026-05-02T11:49:11.149Z</time></trkpt><trkpt lat="43.8888626" lon="12.9015949"><ele>12.0</ele><time>2026-05-02T11:49:12.147Z</time></trkpt><trkpt lat="43.8887935" lon="12.9018004"><ele>12.0</ele><time>2026-05-02T11:49:13.151Z</time></trkpt><trkpt lat="43.8887383" lon="12.902002"><ele>12.0</ele><time>2026-05-02T11:49:14.141Z</time></trkpt><trkpt lat="43.8886653" lon="12.902216"><ele>12.0</ele><time>2026-05-02T11:49:15.145Z</time></trkpt><trkpt lat="43.8886016" lon="12.9024436"><ele>12.0</ele><time>2026-05-02T11:49:16.137Z</time></trkpt><trkpt lat="43.8885172" lon="12.9026538"><ele>12.0</ele><time>2026-05-02T11:49:17.146Z</time></trkpt><trkpt lat="43.8884361" lon="12.9028568"><ele>12.0</ele><time>2026-05-02T11:49:18.152Z</time></trkpt><trkpt lat="43.8883885" lon="12.903083"><ele>12.0</ele><time>2026-05-02T11:49:19.149Z</time></trkpt><trkpt lat="43.8883191" lon="12.903294"><ele>12.0</ele><time>2026-05-02T11:49:20.141Z</time></trkpt><trkpt lat="43.888231" lon="12.9034719"><ele>12.0</ele><time>2026-05-02T11:49:21.131Z</time></trkpt><trkpt lat="43.888182" lon="12.9036918"><ele>12.0</ele><time>2026-05-02T11:49:22.148Z</time></trkpt><trkpt lat="43.8881404" lon="12.9039468"><ele>12.0</ele><time>2026-05-02T11:49:23.147Z</time></trkpt><trkpt lat="43.88807" lon="12.9041486"><ele>12.0</ele><time>2026-05-02T11:49:24.151Z</time></trkpt><trkpt lat="43.8880118" lon="12.9043626"><ele>12.333333333333332</ele><time>2026-05-02T11:49:25.151Z</time></trkpt><trkpt lat="43.8878873" lon="12.9046341"><ele>12.666666666666666</ele><time>2026-05-02T11:49:26.15Z</time></trkpt><trkpt lat="43.8878658" lon="12.90487"><ele>13.0</ele><time>2026-05-02T11:49:27.148Z</time></trkpt><trkpt lat="43.8878652" lon="12.9050577"><ele>13.0</ele><time>2026-05-02T11:49:28.144Z</time></trkpt><trkpt lat="43.8878805" lon="12.9052526"><ele>13.0</ele><time>2026-05-02T11:49:29.148Z</time></trkpt><trkpt lat="43.8878766" lon="12.9054742"><ele>13.0</ele><time>2026-05-02T11:49:30.148Z</time></trkpt><trkpt lat="43.8878714" lon="12.9057036"><ele>13.0</ele><time>2026-05-02T11:49:31.151Z</time></trkpt><trkpt lat="43.8878728" lon="12.905885"><ele>13.0</ele><time>2026-05-02T11:49:32.141Z</time></trkpt><trkpt lat="43.8878493" lon="12.9060806"><ele>13.0</ele><time>2026-05-02T11:49:33.145Z</time></trkpt><trkpt lat="43.8878276" lon="12.906273"><ele>13.0</ele><time>2026-05-02T11:49:34.149Z</time></trkpt><trkpt lat="43.8878046" lon="12.9064512"><ele>13.0</ele><time>2026-05-02T11:49:35.14Z</time></trkpt><trkpt lat="43.8877924" lon="12.9066314"><ele>13.0</ele><time>2026-05-02T11:49:36.151Z</time></trkpt><trkpt lat="43.887741" lon="12.9068024"><ele>13.0</ele><time>2026-05-02T11:49:37.148Z</time></trkpt><trkpt lat="43.8876768" lon="12.9069973"><ele>13.0</ele><time>2026-05-02T11:49:38.135Z</time></trkpt><trkpt lat="43.8876287" lon="12.9071822"><ele>12.8</ele><time>2026-05-02T11:49:39.149Z</time></trkpt><trkpt lat="43.887522" lon="12.9072919"><ele>12.600000000000001</ele><time>2026-05-02T11:49:40.146Z</time></trkpt><trkpt lat="43.8874262" lon="12.9073885"><ele>12.399999999999999</ele><time>2026-05-02T11:49:41.144Z</time></trkpt><trkpt lat="43.8873754" lon="12.9074833"><ele>12.2</ele><time>2026-05-02T11:49:42.143Z</time></trkpt><trkpt lat="43.8874031" lon="12.9075733"><ele>12.0</ele><time>2026-05-02T11:49:43.143Z</time></trkpt><trkpt lat="43.8875078" lon="12.9076646"><ele>11.8</ele><time>2026-05-02T11:49:44.144Z</time></trkpt><trkpt lat="43.8876073" lon="12.9077306"><ele>11.6</ele><time>2026-05-02T11:49:45.142Z</time></trkpt><trkpt lat="43.8877117" lon="12.907721"><ele>11.4</ele><time>2026-05-02T11:49:46.144Z</time></trkpt><trkpt lat="43.8878137" lon="12.9076832"><ele>11.200000000000001</ele><time>2026-05-02T11:49:47.149Z</time></trkpt><trkpt lat="43.8879083" lon="12.907653"><ele>11.0</ele><time>2026-05-02T11:49:48.15Z</time></trkpt><trkpt lat="43.8880033" lon="12.9075591"><ele>11.0</ele><time>2026-05-02T11:49:49.146Z</time></trkpt><trkpt lat="43.8880963" lon="12.9075004"><ele>11.0</ele><time>2026-05-02T11:49:50.145Z</time></trkpt><trkpt lat="43.8882021" lon="12.9074202"><ele>11.0</ele><time>2026-05-02T11:49:51.143Z</time></trkpt><trkpt lat="43.8882741" lon="12.9072938"><ele>11.0</ele><time>2026-05-02T11:49:52.14Z</time></trkpt><trkpt lat="43.8883255" lon="12.9071843"><ele>11.0</ele><time>2026-05-02T11:49:53.132Z</time></trkpt><trkpt lat="43.8884098" lon="12.9070163"><ele>11.5</ele><time>2026-05-02T11:49:54.149Z</time></trkpt><trkpt lat="43.8885312" lon="12.9069238"><ele>12.0</ele><time>2026-05-02T11:49:55.147Z</time></trkpt><trkpt lat="43.8886599" lon="12.906954"><ele>12.5</ele><time>2026-05-02T11:49:56.143Z</time></trkpt><trkpt lat="43.8888084" lon="12.9070673"><ele>13.0</ele><time>2026-05-02T11:49:57.14Z</time></trkpt><trkpt lat="43.888966" lon="12.9071414"><ele>13.0</ele><time>2026-05-02T11:49:58.136Z</time></trkpt><trkpt lat="43.8891223" lon="12.907229"><ele>13.0</ele><time>2026-05-02T11:49:59.145Z</time></trkpt><trkpt lat="43.8892515" lon="12.9073407"><ele>13.0</ele><time>2026-05-02T11:50:00.15Z</time></trkpt><trkpt lat="43.8893393" lon="12.9074179"><ele>13.0</ele><time>2026-05-02T11:50:01.142Z</time></trkpt><trkpt lat="43.8894175" lon="12.9074796"><ele>12.999999999999998</ele><time>2026-05-02T11:50:02.141Z</time></trkpt><trkpt lat="43.8894877" lon="12.9075392"><ele>13.0</ele><time>2026-05-02T11:50:03.141Z</time></trkpt><trkpt lat="43.8895414" lon="12.9075902"><ele>13.0</ele><time>2026-05-02T11:50:04.141Z</time></trkpt><trkpt lat="43.8895968" lon="12.9076521"><ele>13.0</ele><time>2026-05-02T11:50:05.144Z</time></trkpt><trkpt lat="43.8895797" lon="12.9077998"><ele>12.999999999999998</ele><time>2026-05-02T11:50:07.141Z</time></trkpt><trkpt lat="43.8895195" lon="12.9078615"><ele>13.0</ele><time>2026-05-02T11:50:08.132Z</time></trkpt><trkpt lat="43.8894542" lon="12.9079634"><ele>12.999999999999998</ele><time>2026-05-02T11:50:09.136Z</time></trkpt><trkpt lat="43.8894192" lon="12.9080756"><ele>13.0</ele><time>2026-05-02T11:50:10.129Z</time></trkpt><trkpt lat="43.8894104" lon="12.9081999"><ele>13.0</ele><time>2026-05-02T11:50:11.138Z</time></trkpt><trkpt lat="43.8894326" lon="12.908304"><ele>13.0</ele><time>2026-05-02T11:50:12.135Z</time></trkpt><trkpt lat="43.8894638" lon="12.9083893"><ele>12.999999999999998</ele><time>2026-05-02T11:50:13.138Z</time></trkpt><trkpt lat="43.8895204" lon="12.9084604"><ele>13.0</ele><time>2026-05-02T11:50:14.136Z</time></trkpt><trkpt lat="43.8896062" lon="12.9085229"><ele>12.999999999999998</ele><time>2026-05-02T11:50:15.137Z</time></trkpt><trkpt lat="43.8896764" lon="12.9086248"><ele>13.0</ele><time>2026-05-02T11:50:16.138Z</time></trkpt><trkpt lat="43.8897478" lon="12.9087267"><ele>13.0</ele><time>2026-05-02T11:50:17.138Z</time></trkpt><trkpt lat="43.8898225" lon="12.9087992"><ele>13.0</ele><time>2026-05-02T11:50:18.137Z</time></trkpt><trkpt lat="43.8898774" lon="12.9088721"><ele>12.999999999999998</ele><time>2026-05-02T11:50:19.137Z</time></trkpt><trkpt lat="43.8899271" lon="12.9089477"><ele>13.0</ele><time>2026-05-02T11:50:20.14Z</time></trkpt><trkpt lat="43.8899862" lon="12.9090131"><ele>13.0</ele><time>2026-05-02T11:50:21.136Z</time></trkpt><trkpt lat="43.8899593" lon="12.9091342"><ele>13.0</ele><time>2026-05-02T11:50:26.143Z</time></trkpt><trkpt lat="43.8898672" lon="12.9092459"><ele>13.0</ele><time>2026-05-02T11:50:28.134Z</time></trkpt><trkpt lat="43.8897479" lon="12.9092607"><ele>13.0</ele><time>2026-05-02T11:50:31.123Z</time></trkpt><trkpt lat="43.8896314" lon="12.9092313"><ele>12.999999999999998</ele><time>2026-05-02T11:50:33.116Z</time></trkpt><trkpt lat="43.8895996" lon="12.9091472"><ele>13.0</ele><time>2026-05-02T11:50:35.113Z</time></trkpt><trkpt lat="43.889572" lon="12.9092326"><ele>13.0</ele><time>2026-05-02T11:50:48.114Z</time></trkpt><trkpt lat="43.8896413" lon="12.9092832"><ele>13.0</ele><time>2026-05-02T11:50:49.116Z</time></trkpt><trkpt lat="43.8897082" lon="12.9093272"><ele>12.999999999999998</ele><time>2026-05-02T11:51:00.118Z</time></trkpt><trkpt lat="43.8895961" lon="12.9094246"><ele>13.0</ele><time>2026-05-02T11:51:03.11Z</time></trkpt><trkpt lat="43.8895265" lon="12.909367"><ele>13.0</ele><time>2026-05-02T11:51:04.116Z</time></trkpt><trkpt lat="43.8895678" lon="12.9091902"><ele>13.0</ele><time>2026-05-02T11:51:55.128Z</time></trkpt><trkpt lat="43.8895899" lon="12.9090994"><ele>13.0</ele><time>2026-05-02T11:52:50.133Z</time></trkpt><trkpt lat="43.8895486" lon="12.9092194"><ele>13.0</ele><time>2026-05-02T11:53:39.119Z</time></trkpt><trkpt lat="43.8894268" lon="12.9091337"><ele>13.0</ele><time>2026-05-02T11:54:00.125Z</time></trkpt><trkpt lat="43.8894879" lon="12.9091981"><ele>12.999999999999998</ele><time>2026-05-02T11:54:50.137Z</time></trkpt><trkpt lat="43.8894994" lon="12.9090774"><ele>13.0</ele><time>2026-05-02T11:56:12.133Z</time></trkpt><trkpt lat="43.8894599" lon="12.9091707"><ele>13.0</ele><time>2026-05-02T11:56:31.133Z</time></trkpt><trkpt lat="43.8893887" lon="12.9092024"><ele>13.0</ele><time>2026-05-02T11:57:47.126Z</time></trkpt><trkpt lat="43.8893546" lon="12.9093149"><ele>12.999999999999998</ele><time>2026-05-02T11:57:50.133Z</time></trkpt><trkpt lat="43.8894205" lon="12.9092288"><ele>13.0</ele><time>2026-05-02T11:58:15.135Z</time></trkpt><trkpt lat="43.8894335" lon="12.9093268"><ele>13.0</ele><time>2026-05-02T11:58:22.123Z</time></trkpt><trkpt lat="43.8894149" lon="12.9094198"><ele>13.0</ele><time>2026-05-02T11:58:34.128Z</time></trkpt><trkpt lat="43.8894441" lon="12.9093214"><ele>13.0</ele><time>2026-05-02T11:58:46.128Z</time></trkpt><trkpt lat="43.8895072" lon="12.9093034"><ele>13.0</ele><time>2026-05-02T11:58:53.127Z</time></trkpt><trkpt lat="43.8895397" lon="12.9091957"><ele>13.0</ele><time>2026-05-02T11:59:36.142Z</time></trkpt><trkpt lat="43.8895704" lon="12.9091178"><ele>13.0</ele><time>2026-05-02T11:59:39.141Z</time></trkpt><trkpt lat="43.8896021" lon="12.9090321"><ele>13.0</ele><time>2026-05-02T12:01:03.145Z</time></trkpt><trkpt lat="43.8896487" lon="12.9089631"><ele>13.0</ele><time>2026-05-02T12:01:55.147Z</time></trkpt><trkpt lat="43.8895852" lon="12.9090265"><ele>13.0</ele><time>2026-05-02T12:02:04.158Z</time></trkpt><trkpt lat="43.8895139" lon="12.909107"><ele>13.0</ele><time>2026-05-02T12:02:25.131Z</time></trkpt><trkpt lat="43.8894474" lon="12.9090609"><ele>13.0</ele><time>2026-05-02T12:02:36.112Z</time></trkpt></trkseg></trk></gpx>